<?xml version='1.0' encoding='UTF-8'?><gpx version="1.1" creator="JPX - https://github.com/jenetics/jpx" xmlns="http://www.topografix.com/GPX/1/1"><trk><trkseg><trkpt lat="45.4161148618759" lon="9.403174702745087"><ele>97.0</ele><time>2026-04-06T06:54:49Z</time></trkpt><trkpt lat="45.4161394823717" lon="9.403278353678433"><ele>97.0</ele><time>2026-04-06T06:55:01.001Z</time></trkpt><trkpt lat="45.41620244182508" lon="9.40314178662737"><ele>97.0</ele><time>2026-04-06T06:55:03.001Z</time></trkpt><trkpt lat="45.416237464883984" lon="9.403009532047834"><ele>97.0</ele><time>2026-04-06T06:55:04.001Z</time></trkpt><trkpt lat="45.41620073369293" lon="9.402876577686616"><ele>97.0</ele><time>2026-04-06T06:55:14.065Z</time></trkpt><trkpt lat="45.416072772082174" lon="9.403001034306014"><ele>97.0</ele><time>2026-04-06T06:55:41.436Z</time></trkpt><trkpt lat="45.41615315834205" lon="9.402976694324465"><ele>97.0</ele><time>2026-04-06T06:55:55Z</time></trkpt><trkpt lat="45.416201797492924" lon="9.402887825311431"><ele>97.0</ele><time>2026-04-06T06:55:57.02Z</time></trkpt><trkpt lat="45.41608594796174" lon="9.403012754989552"><ele>97.0</ele><time>2026-04-06T06:56:14.359Z</time></trkpt><trkpt lat="45.415978909816694" lon="9.403114731097984"><ele>97.0</ele><time>2026-04-06T06:57:08.273Z</time></trkpt><trkpt lat="45.41586021634246" lon="9.403300847070872"><ele>98.0</ele><time>2026-04-06T06:57:14.011Z</time></trkpt><trkpt lat="45.4160591336674" lon="9.402963527460267"><ele>99.0</ele><time>2026-04-06T06:57:27.861Z</time></trkpt><trkpt lat="45.416217248304456" lon="9.402830677660805"><ele>99.0</ele><time>2026-04-06T06:57:31.417Z</time></trkpt><trkpt lat="45.41609368114446" lon="9.402889202676283"><ele>99.0</ele><time>2026-04-06T06:57:54.406Z</time></trkpt><trkpt lat="45.416002524064844" lon="9.40309856706477"><ele>99.0</ele><time>2026-04-06T06:57:56.192Z</time></trkpt><trkpt lat="45.415957847570745" lon="9.403199090824788"><ele>99.0</ele><time>2026-04-06T06:58:08Z</time></trkpt><trkpt lat="45.4159779488051" lon="9.403320219616017"><ele>98.6</ele><time>2026-04-06T06:58:15Z</time></trkpt><trkpt lat="45.41599653420376" lon="9.403454465517708"><ele>98.2</ele><time>2026-04-06T06:58:18Z</time></trkpt><trkpt lat="45.41601404901449" lon="9.403566651025447"><ele>97.8</ele><time>2026-04-06T06:58:20Z</time></trkpt><trkpt lat="45.416021750405385" lon="9.403697863046602"><ele>97.39999999999999</ele><time>2026-04-06T06:58:22Z</time></trkpt><trkpt lat="45.41603927766149" lon="9.403825303394617"><ele>97.0</ele><time>2026-04-06T06:58:24Z</time></trkpt><trkpt lat="45.41605892629268" lon="9.403961853535765"><ele>96.8</ele><time>2026-04-06T06:58:26Z</time></trkpt><trkpt lat="45.41607363675406" lon="9.404108247944235"><ele>96.6</ele><time>2026-04-06T06:58:28Z</time></trkpt><trkpt lat="45.41609126926964" lon="9.404259645451111"><ele>96.39999999999999</ele><time>2026-04-06T06:58:30Z</time></trkpt><trkpt lat="45.41611148909725" lon="9.40441090859751"><ele>96.19999999999999</ele><time>2026-04-06T06:58:32Z</time></trkpt><trkpt lat="45.41613462632364" lon="9.404557575240936"><ele>96.0</ele><time>2026-04-06T06:58:34Z</time></trkpt><trkpt lat="45.41616661843812" lon="9.404712592034157"><ele>96.0</ele><time>2026-04-06T06:58:36Z</time></trkpt><trkpt lat="45.41619586963102" lon="9.404866868976782"><ele>96.0</ele><time>2026-04-06T06:58:38Z</time></trkpt><trkpt lat="45.41622236904337" lon="9.405015560195668"><ele>96.0</ele><time>2026-04-06T06:58:40Z</time></trkpt><trkpt lat="45.41624613034912" lon="9.405178908969367"><ele>96.0</ele><time>2026-04-06T06:58:42Z</time></trkpt><trkpt lat="45.41627524669321" lon="9.405349594491504"><ele>95.99999999999999</ele><time>2026-04-06T06:58:44Z</time></trkpt><trkpt lat="45.416290759232844" lon="9.405437360235526"><ele>96.0</ele><time>2026-04-06T06:58:45Z</time></trkpt><trkpt lat="45.41630666394527" lon="9.4055354471112"><ele>96.0</ele><time>2026-04-06T06:58:46Z</time></trkpt><trkpt lat="45.41632649585892" lon="9.4056381312239"><ele>96.0</ele><time>2026-04-06T06:58:47Z</time></trkpt><trkpt lat="45.41634702942589" lon="9.405739125054195"><ele>96.0</ele><time>2026-04-06T06:58:48Z</time></trkpt><trkpt lat="45.41636589951022" lon="9.40583414089634"><ele>95.99999999999999</ele><time>2026-04-06T06:58:49Z</time></trkpt><trkpt lat="45.416382029912434" lon="9.405937877726892"><ele>96.0</ele><time>2026-04-06T06:58:50Z</time></trkpt><trkpt lat="45.4163968138633" lon="9.406039493198652"><ele>95.83333333333333</ele><time>2026-04-06T06:58:51Z</time></trkpt><trkpt lat="45.41641563148647" lon="9.406143128836481"><ele>95.66666666666667</ele><time>2026-04-06T06:58:52Z</time></trkpt><trkpt lat="45.41643394796427" lon="9.406253181419151"><ele>95.5</ele><time>2026-04-06T06:58:53Z</time></trkpt><trkpt lat="45.416452748023815" lon="9.406364456141555"><ele>95.33333333333334</ele><time>2026-04-06T06:58:54Z</time></trkpt><trkpt lat="45.41647395943066" lon="9.406472547686548"><ele>95.16666666666667</ele><time>2026-04-06T06:58:55Z</time></trkpt><trkpt lat="45.41649519209693" lon="9.406587939053383"><ele>95.0</ele><time>2026-04-06T06:58:56Z</time></trkpt><trkpt lat="45.416513434571634" lon="9.406703865132107"><ele>95.0</ele><time>2026-04-06T06:58:57Z</time></trkpt><trkpt lat="45.41653333580994" lon="9.406822639506114"><ele>95.0</ele><time>2026-04-06T06:58:58Z</time></trkpt><trkpt lat="45.41656538510672" lon="9.406940524178223"><ele>95.0</ele><time>2026-04-06T06:58:59Z</time></trkpt><trkpt lat="45.416587315578134" lon="9.407061154232418"><ele>95.0</ele><time>2026-04-06T06:59:00Z</time></trkpt><trkpt lat="45.41660741135121" lon="9.407183034850368"><ele>95.0</ele><time>2026-04-06T06:59:01Z</time></trkpt><trkpt lat="45.41662575874983" lon="9.407298938324399"><ele>95.0</ele><time>2026-04-06T06:59:02Z</time></trkpt><trkpt lat="45.416640035155716" lon="9.407416531042317"><ele>95.0</ele><time>2026-04-06T06:59:03Z</time></trkpt><trkpt lat="45.41665560149618" lon="9.407532729076467"><ele>95.0</ele><time>2026-04-06T06:59:04Z</time></trkpt><trkpt lat="45.416677144788714" lon="9.407645301721839"><ele>95.0</ele><time>2026-04-06T06:59:05Z</time></trkpt><trkpt lat="45.41670165387337" lon="9.40775909000889"><ele>95.0</ele><time>2026-04-06T06:59:06Z</time></trkpt><trkpt lat="45.41672488385269" lon="9.407866001864893"><ele>95.0</ele><time>2026-04-06T06:59:07Z</time></trkpt><trkpt lat="45.416747848676295" lon="9.407953204173028"><ele>95.0</ele><time>2026-04-06T06:59:08Z</time></trkpt><trkpt lat="45.41677335172861" lon="9.408054446002554"><ele>95.0</ele><time>2026-04-06T06:59:10Z</time></trkpt><trkpt lat="45.4167805536286" lon="9.408164907119737"><ele>95.0</ele><time>2026-04-06T06:59:14Z</time></trkpt><trkpt lat="45.41675457316417" lon="9.408275394807525"><ele>95.0</ele><time>2026-04-06T06:59:16Z</time></trkpt><trkpt lat="45.41672370666393" lon="9.408424750451452"><ele>95.0</ele><time>2026-04-06T06:59:18Z</time></trkpt><trkpt lat="45.41676182926685" lon="9.408593785872398"><ele>95.0</ele><time>2026-04-06T06:59:20Z</time></trkpt><trkpt lat="45.416807309735994" lon="9.408674754331473"><ele>95.0</ele><time>2026-04-06T06:59:21Z</time></trkpt><trkpt lat="45.416861400920745" lon="9.408746909544485"><ele>95.0</ele><time>2026-04-06T06:59:22Z</time></trkpt><trkpt lat="45.41690892481663" lon="9.40882451675635"><ele>95.0</ele><time>2026-04-06T06:59:23Z</time></trkpt><trkpt lat="45.41694811370263" lon="9.408915844134198"><ele>95.0</ele><time>2026-04-06T06:59:24Z</time></trkpt><trkpt lat="45.41697317460626" lon="9.40902720185406"><ele>95.0</ele><time>2026-04-06T06:59:25Z</time></trkpt><trkpt lat="45.41698856108123" lon="9.409150705206642"><ele>95.0</ele><time>2026-04-06T06:59:26Z</time></trkpt><trkpt lat="45.416999571125366" lon="9.409279659259024"><ele>95.0</ele><time>2026-04-06T06:59:27Z</time></trkpt><trkpt lat="45.417015141720725" lon="9.409410394310006"><ele>95.0</ele><time>2026-04-06T06:59:28Z</time></trkpt><trkpt lat="45.417032394194074" lon="9.409543605615069"><ele>95.0</ele><time>2026-04-06T06:59:29Z</time></trkpt><trkpt lat="45.41704954977401" lon="9.409680031591947"><ele>95.0</ele><time>2026-04-06T06:59:30Z</time></trkpt><trkpt lat="45.417064953983974" lon="9.409815349195831"><ele>95.0</ele><time>2026-04-06T06:59:31Z</time></trkpt><trkpt lat="45.417078128197765" lon="9.409947106820253"><ele>95.0</ele><time>2026-04-06T06:59:32Z</time></trkpt><trkpt lat="45.4170889239268" lon="9.410072796327514"><ele>95.0</ele><time>2026-04-06T06:59:33Z</time></trkpt><trkpt lat="45.41709704971388" lon="9.41019368022566"><ele>95.0</ele><time>2026-04-06T06:59:34Z</time></trkpt><trkpt lat="45.41710464621884" lon="9.410309688321128"><ele>95.0</ele><time>2026-04-06T06:59:35Z</time></trkpt><trkpt lat="45.41710810761711" lon="9.410420247145831"><ele>95.0</ele><time>2026-04-06T06:59:36Z</time></trkpt><trkpt lat="45.4171080637177" lon="9.410518684072349"><ele>95.0</ele><time>2026-04-06T06:59:37Z</time></trkpt><trkpt lat="45.41711114724021" lon="9.410691826553862"><ele>95.0</ele><time>2026-04-06T06:59:39Z</time></trkpt><trkpt lat="45.417112892938604" lon="9.410788300173676"><ele>95.0</ele><time>2026-04-06T06:59:40Z</time></trkpt><trkpt lat="45.41711625658633" lon="9.410895243250657"><ele>95.0</ele><time>2026-04-06T06:59:41Z</time></trkpt><trkpt lat="45.41712028687552" lon="9.411011074612192"><ele>95.0</ele><time>2026-04-06T06:59:42Z</time></trkpt><trkpt lat="45.417123433999976" lon="9.411135520468"><ele>95.0</ele><time>2026-04-06T06:59:43Z</time></trkpt><trkpt lat="45.417126876774226" lon="9.411267045772927"><ele>95.0</ele><time>2026-04-06T06:59:44Z</time></trkpt><trkpt lat="45.41712880731562" lon="9.41140577317618"><ele>95.0</ele><time>2026-04-06T06:59:45Z</time></trkpt><trkpt lat="45.417131506056386" lon="9.41154769437545"><ele>95.0</ele><time>2026-04-06T06:59:46Z</time></trkpt><trkpt lat="45.4171354418349" lon="9.411693860462016"><ele>95.0</ele><time>2026-04-06T06:59:47Z</time></trkpt><trkpt lat="45.417139376515976" lon="9.411844469289777"><ele>95.0</ele><time>2026-04-06T06:59:48Z</time></trkpt><trkpt lat="45.41714340572594" lon="9.412000894400624"><ele>95.0</ele><time>2026-04-06T06:59:49Z</time></trkpt><trkpt lat="45.41714520411329" lon="9.41216079133075"><ele>95.0</ele><time>2026-04-06T06:59:50Z</time></trkpt><trkpt lat="45.41713925788232" lon="9.412319405500675"><ele>95.0</ele><time>2026-04-06T06:59:51Z</time></trkpt><trkpt lat="45.41716925767039" lon="9.412477934870752"><ele>95.0</ele><time>2026-04-06T06:59:52Z</time></trkpt><trkpt lat="45.417191773419475" lon="9.412637637273816"><ele>95.0</ele><time>2026-04-06T06:59:53Z</time></trkpt><trkpt lat="45.41721964284932" lon="9.412794329072048"><ele>95.25</ele><time>2026-04-06T06:59:54Z</time></trkpt><trkpt lat="45.41725176003503" lon="9.412953082812477"><ele>95.5</ele><time>2026-04-06T06:59:55Z</time></trkpt><trkpt lat="45.41729474108456" lon="9.413107078184822"><ele>95.75</ele><time>2026-04-06T06:59:56Z</time></trkpt><trkpt lat="45.41733943762263" lon="9.413259097257084"><ele>96.0</ele><time>2026-04-06T06:59:57Z</time></trkpt><trkpt lat="45.41738327661219" lon="9.41340620145916"><ele>96.0</ele><time>2026-04-06T06:59:58Z</time></trkpt><trkpt lat="45.41742507198703" lon="9.413549692404942"><ele>96.0</ele><time>2026-04-06T06:59:59Z</time></trkpt><trkpt lat="45.41746664278428" lon="9.41368804642505"><ele>96.0</ele><time>2026-04-06T07:00:00Z</time></trkpt><trkpt lat="45.41750578874713" lon="9.413820547652865"><ele>96.0</ele><time>2026-04-06T07:00:01Z</time></trkpt><trkpt lat="45.417539337939715" lon="9.413941354186269"><ele>96.0</ele><time>2026-04-06T07:00:02Z</time></trkpt><trkpt lat="45.41755901505735" lon="9.414051002664618"><ele>95.66666666666667</ele><time>2026-04-06T07:00:03Z</time></trkpt><trkpt lat="45.417563085430515" lon="9.414166439423413"><ele>95.33333333333333</ele><time>2026-04-06T07:00:04Z</time></trkpt><trkpt lat="45.417540797048154" lon="9.414277411743749"><ele>95.0</ele><time>2026-04-06T07:00:05Z</time></trkpt><trkpt lat="45.417509233305225" lon="9.41437910013559"><ele>94.66666666666666</ele><time>2026-04-06T07:00:06Z</time></trkpt><trkpt lat="45.417502838854304" lon="9.414484860495714"><ele>94.33333333333333</ele><time>2026-04-06T07:00:07Z</time></trkpt><trkpt lat="45.417532700448504" lon="9.41459123737449"><ele>94.0</ele><time>2026-04-06T07:00:08Z</time></trkpt><trkpt lat="45.41757875634939" lon="9.414688530549455"><ele>94.0</ele><time>2026-04-06T07:00:09Z</time></trkpt><trkpt lat="45.41763427770792" lon="9.414781841696747"><ele>94.0</ele><time>2026-04-06T07:00:10Z</time></trkpt><trkpt lat="45.4176761371283" lon="9.414889587136537"><ele>94.0</ele><time>2026-04-06T07:00:11Z</time></trkpt><trkpt lat="45.417709915744055" lon="9.415010495888385"><ele>94.0</ele><time>2026-04-06T07:00:12Z</time></trkpt><trkpt lat="45.41769266786396" lon="9.415147337692769"><ele>94.0</ele><time>2026-04-06T07:00:13Z</time></trkpt><trkpt lat="45.41768779655747" lon="9.415283079677884"><ele>94.0</ele><time>2026-04-06T07:00:14Z</time></trkpt><trkpt lat="45.417678621535096" lon="9.415425564705542"><ele>94.0</ele><time>2026-04-06T07:00:15Z</time></trkpt><trkpt lat="45.417668865691205" lon="9.415576021431223"><ele>94.0</ele><time>2026-04-06T07:00:16Z</time></trkpt><trkpt lat="45.417658083525716" lon="9.415735961357871"><ele>94.0</ele><time>2026-04-06T07:00:17Z</time></trkpt><trkpt lat="45.41764465190449" lon="9.415902337158931"><ele>94.0</ele><time>2026-04-06T07:00:18Z</time></trkpt><trkpt lat="45.417626514293495" lon="9.416069015770129"><ele>94.25</ele><time>2026-04-06T07:00:19Z</time></trkpt><trkpt lat="45.41760010479031" lon="9.41623579387658"><ele>94.5</ele><time>2026-04-06T07:00:20Z</time></trkpt><trkpt lat="45.41756801915965" lon="9.41640257514802"><ele>94.75</ele><time>2026-04-06T07:00:21Z</time></trkpt><trkpt lat="45.41753265422044" lon="9.416569752197246"><ele>95.0</ele><time>2026-04-06T07:00:22Z</time></trkpt><trkpt lat="45.41749018416907" lon="9.416736433627698"><ele>95.0</ele><time>2026-04-06T07:00:23Z</time></trkpt><trkpt lat="45.41745289442375" lon="9.416903627741624"><ele>95.0</ele><time>2026-04-06T07:00:24Z</time></trkpt><trkpt lat="45.41739972667449" lon="9.417071196732843"><ele>95.0</ele><time>2026-04-06T07:00:25Z</time></trkpt><trkpt lat="45.41734262667934" lon="9.417236935199414"><ele>95.0</ele><time>2026-04-06T07:00:26Z</time></trkpt><trkpt lat="45.41728280527556" lon="9.417406181326909"><ele>95.25</ele><time>2026-04-06T07:00:27Z</time></trkpt><trkpt lat="45.41721805350227" lon="9.417578064764175"><ele>95.5</ele><time>2026-04-06T07:00:28Z</time></trkpt><trkpt lat="45.41715258774351" lon="9.417755097571046"><ele>95.75</ele><time>2026-04-06T07:00:29Z</time></trkpt><trkpt lat="45.41708735566561" lon="9.41793442870696"><ele>96.0</ele><time>2026-04-06T07:00:30Z</time></trkpt><trkpt lat="45.41702173650822" lon="9.418111480573488"><ele>95.75</ele><time>2026-04-06T07:00:31Z</time></trkpt><trkpt lat="45.416955858002936" lon="9.41828941485513"><ele>95.5</ele><time>2026-04-06T07:00:32Z</time></trkpt><trkpt lat="45.41688831046616" lon="9.41846801021561"><ele>95.25</ele><time>2026-04-06T07:00:33Z</time></trkpt><trkpt lat="45.41681642315947" lon="9.418648194176468"><ele>95.0</ele><time>2026-04-06T07:00:34Z</time></trkpt><trkpt lat="45.41673723765252" lon="9.418827606276336"><ele>95.0</ele><time>2026-04-06T07:00:35Z</time></trkpt><trkpt lat="45.41665202309394" lon="9.419005117927737"><ele>95.0</ele><time>2026-04-06T07:00:36Z</time></trkpt><trkpt lat="45.416556865117336" lon="9.419178371204548"><ele>95.0</ele><time>2026-04-06T07:00:37Z</time></trkpt><trkpt lat="45.416449502551664" lon="9.419344156059777"><ele>95.0</ele><time>2026-04-06T07:00:38Z</time></trkpt><trkpt lat="45.41633119068639" lon="9.419502578303039"><ele>95.0</ele><time>2026-04-06T07:00:39Z</time></trkpt><trkpt lat="45.41620127523841" lon="9.419649656167957"><ele>95.0</ele><time>2026-04-06T07:00:40Z</time></trkpt><trkpt lat="45.41606039287717" lon="9.419785528221992"><ele>95.33333333333334</ele><time>2026-04-06T07:00:41Z</time></trkpt><trkpt lat="45.41591234223387" lon="9.41991025845402"><ele>95.66666666666667</ele><time>2026-04-06T07:00:42Z</time></trkpt><trkpt lat="45.41575935140739" lon="9.42002334822015"><ele>96.0</ele><time>2026-04-06T07:00:43Z</time></trkpt><trkpt lat="45.41560403819295" lon="9.420130586798361"><ele>95.33333333333333</ele><time>2026-04-06T07:00:44Z</time></trkpt><trkpt lat="45.41545133456639" lon="9.420241677521354"><ele>94.66666666666666</ele><time>2026-04-06T07:00:45Z</time></trkpt><trkpt lat="45.41530247206271" lon="9.420364752559188"><ele>94.0</ele><time>2026-04-06T07:00:46Z</time></trkpt><trkpt lat="45.4151616036797" lon="9.420504267579943"><ele>94.0</ele><time>2026-04-06T07:00:47Z</time></trkpt><trkpt lat="45.415028162486806" lon="9.42066013454725"><ele>94.0</ele><time>2026-04-06T07:00:48Z</time></trkpt><trkpt lat="45.41490049332538" lon="9.420830599770195"><ele>94.0</ele><time>2026-04-06T07:00:49Z</time></trkpt><trkpt lat="45.41478122559934" lon="9.421009791934846"><ele>94.0</ele><time>2026-04-06T07:00:50Z</time></trkpt><trkpt lat="45.4146708161446" lon="9.42120231629289"><ele>94.0</ele><time>2026-04-06T07:00:51Z</time></trkpt><trkpt lat="45.41457030442042" lon="9.421406208548591"><ele>94.0</ele><time>2026-04-06T07:00:52Z</time></trkpt><trkpt lat="45.41447908439938" lon="9.42161708291293"><ele>94.0</ele><time>2026-04-06T07:00:53Z</time></trkpt><trkpt lat="45.414399134190184" lon="9.4218394662045"><ele>94.0</ele><time>2026-04-06T07:00:54Z</time></trkpt><trkpt lat="45.41432744575172" lon="9.422069173324095"><ele>94.0</ele><time>2026-04-06T07:00:55Z</time></trkpt><trkpt lat="45.41425386999053" lon="9.422294508063084"><ele>94.0</ele><time>2026-04-06T07:00:56Z</time></trkpt><trkpt lat="45.41418108038455" lon="9.422522371576921"><ele>94.0</ele><time>2026-04-06T07:00:57Z</time></trkpt><trkpt lat="45.41410605503218" lon="9.422748159022914"><ele>94.0</ele><time>2026-04-06T07:00:58Z</time></trkpt><trkpt lat="45.414031145289854" lon="9.42297090562002"><ele>94.33333333333333</ele><time>2026-04-06T07:00:59Z</time></trkpt><trkpt lat="45.413957389058915" lon="9.423187065202224"><ele>94.66666666666667</ele><time>2026-04-06T07:01:00Z</time></trkpt><trkpt lat="45.41388954422556" lon="9.42338706529214"><ele>95.0</ele><time>2026-04-06T07:01:01Z</time></trkpt><trkpt lat="45.41382791081702" lon="9.423570709363524"><ele>95.2</ele><time>2026-04-06T07:01:02Z</time></trkpt><trkpt lat="45.41377333232911" lon="9.423735659945166"><ele>95.4</ele><time>2026-04-06T07:01:03Z</time></trkpt><trkpt lat="45.41372467437631" lon="9.423880738853848"><ele>95.6</ele><time>2026-04-06T07:01:04Z</time></trkpt><trkpt lat="45.413679107672735" lon="9.42400367162413"><ele>95.8</ele><time>2026-04-06T07:01:05Z</time></trkpt><trkpt lat="45.413636936973724" lon="9.42410397470718"><ele>96.0</ele><time>2026-04-06T07:01:06Z</time></trkpt><trkpt lat="45.41358067907934" lon="9.424183607856211"><ele>96.0</ele><time>2026-04-06T07:01:07Z</time></trkpt><trkpt lat="45.413513660494075" lon="9.424235557163938"><ele>96.0</ele><time>2026-04-06T07:01:08Z</time></trkpt><trkpt lat="45.41345109373006" lon="9.424288481085288"><ele>96.0</ele><time>2026-04-06T07:01:09Z</time></trkpt><trkpt lat="45.41340111375799" lon="9.424374060112472"><ele>96.0</ele><time>2026-04-06T07:01:10Z</time></trkpt><trkpt lat="45.41337360836345" lon="9.424475969541788"><ele>96.0</ele><time>2026-04-06T07:01:11Z</time></trkpt><trkpt lat="45.41338715656519" lon="9.42459318339947"><ele>96.0</ele><time>2026-04-06T07:01:12Z</time></trkpt><trkpt lat="45.41343642775632" lon="9.42468961462514"><ele>95.83333333333333</ele><time>2026-04-06T07:01:13Z</time></trkpt><trkpt lat="45.41350757141282" lon="9.424747528037603"><ele>95.66666666666667</ele><time>2026-04-06T07:01:14Z</time></trkpt><trkpt lat="45.41359250649144" lon="9.424768924729126"><ele>95.5</ele><time>2026-04-06T07:01:15Z</time></trkpt><trkpt lat="45.41367003538247" lon="9.424802272852595"><ele>95.33333333333334</ele><time>2026-04-06T07:01:16Z</time></trkpt><trkpt lat="45.41374201629871" lon="9.424865669836244"><ele>95.16666666666667</ele><time>2026-04-06T07:01:17Z</time></trkpt><trkpt lat="45.413802069563225" lon="9.424951194427836"><ele>95.0</ele><time>2026-04-06T07:01:18Z</time></trkpt><trkpt lat="45.413850226185026" lon="9.425050973335532"><ele>95.0</ele><time>2026-04-06T07:01:19Z</time></trkpt><trkpt lat="45.41390577888713" lon="9.42514963312282"><ele>95.0</ele><time>2026-04-06T07:01:20Z</time></trkpt><trkpt lat="45.41396064793454" lon="9.425243275190116"><ele>95.0</ele><time>2026-04-06T07:01:21Z</time></trkpt><trkpt lat="45.414013460339035" lon="9.425332981368488"><ele>95.0</ele><time>2026-04-06T07:01:22Z</time></trkpt><trkpt lat="45.41406121428714" lon="9.425424532566241"><ele>95.0</ele><time>2026-04-06T07:01:23Z</time></trkpt><trkpt lat="45.414103802830205" lon="9.425516170758621"><ele>95.0</ele><time>2026-04-06T07:01:24Z</time></trkpt><trkpt lat="45.414134892878586" lon="9.425614815894093"><ele>95.0</ele><time>2026-04-06T07:01:25Z</time></trkpt><trkpt lat="45.41414831452208" lon="9.425720720097102"><ele>95.0</ele><time>2026-04-06T07:01:26Z</time></trkpt><trkpt lat="45.41415561791209" lon="9.425827708332067"><ele>95.0</ele><time>2026-04-06T07:01:27Z</time></trkpt><trkpt lat="45.414177739309736" lon="9.425931132251971"><ele>95.0</ele><time>2026-04-06T07:01:28Z</time></trkpt><trkpt lat="45.41423270981878" lon="9.426017113794918"><ele>95.0</ele><time>2026-04-06T07:01:29Z</time></trkpt><trkpt lat="45.41430923576657" lon="9.426063852165175"><ele>95.0</ele><time>2026-04-06T07:01:30Z</time></trkpt><trkpt lat="45.41439240107838" lon="9.426054074962495"><ele>95.0</ele><time>2026-04-06T07:01:31Z</time></trkpt><trkpt lat="45.41446313614002" lon="9.425992214306543"><ele>95.0</ele><time>2026-04-06T07:01:32Z</time></trkpt><trkpt lat="45.4145079751575" lon="9.425893189297787"><ele>95.0</ele><time>2026-04-06T07:01:33Z</time></trkpt><trkpt lat="45.41451878623092" lon="9.425775993470127"><ele>95.0</ele><time>2026-04-06T07:01:34Z</time></trkpt><trkpt lat="45.41452275128536" lon="9.425662943452073"><ele>95.0</ele><time>2026-04-06T07:01:35Z</time></trkpt><trkpt lat="45.41451647556408" lon="9.425561158393043"><ele>95.0</ele><time>2026-04-06T07:01:36Z</time></trkpt><trkpt lat="45.4145923724471" lon="9.425460108451503"><ele>95.16666666666667</ele><time>2026-04-06T07:01:37Z</time></trkpt><trkpt lat="45.414649091556015" lon="9.425374930526333"><ele>95.33333333333334</ele><time>2026-04-06T07:01:38Z</time></trkpt><trkpt lat="45.41470441232012" lon="9.425283402720709"><ele>95.5</ele><time>2026-04-06T07:01:39Z</time></trkpt><trkpt lat="45.41475560567927" lon="9.425181038663728"><ele>95.66666666666667</ele><time>2026-04-06T07:01:40Z</time></trkpt><trkpt lat="45.414801214634664" lon="9.425069959713788"><ele>95.83333333333333</ele><time>2026-04-06T07:01:41Z</time></trkpt><trkpt lat="45.41486437999213" lon="9.424973657523173"><ele>96.0</ele><time>2026-04-06T07:01:42Z</time></trkpt><trkpt lat="45.41491373452746" lon="9.424861251374463"><ele>96.0</ele><time>2026-04-06T07:01:43Z</time></trkpt><trkpt lat="45.41496177475325" lon="9.42474686602826"><ele>96.0</ele><time>2026-04-06T07:01:44Z</time></trkpt><trkpt lat="45.415010463987734" lon="9.424630935378996"><ele>96.0</ele><time>2026-04-06T07:01:45Z</time></trkpt><trkpt lat="45.41506038634614" lon="9.424512068628585"><ele>96.0</ele><time>2026-04-06T07:01:46Z</time></trkpt><trkpt lat="45.415110816811364" lon="9.4243919920696"><ele>96.0</ele><time>2026-04-06T07:01:47Z</time></trkpt><trkpt lat="45.41516362251881" lon="9.424266260553717"><ele>96.0</ele><time>2026-04-06T07:01:48Z</time></trkpt><trkpt lat="45.41521262423654" lon="9.424138079073423"><ele>96.0</ele><time>2026-04-06T07:01:49Z</time></trkpt><trkpt lat="45.41524498671352" lon="9.423998252163052"><ele>96.0</ele><time>2026-04-06T07:01:50Z</time></trkpt><trkpt lat="45.415296543453444" lon="9.42386960275584"><ele>96.0</ele><time>2026-04-06T07:01:51Z</time></trkpt><trkpt lat="45.415348869629874" lon="9.4237394029363"><ele>96.0</ele><time>2026-04-06T07:01:52Z</time></trkpt><trkpt lat="45.41540421774868" lon="9.423608872692345"><ele>96.0</ele><time>2026-04-06T07:01:53Z</time></trkpt><trkpt lat="45.415459136331144" lon="9.423476779335424"><ele>96.0</ele><time>2026-04-06T07:01:54Z</time></trkpt><trkpt lat="45.41551569568479" lon="9.423343554119201"><ele>96.0</ele><time>2026-04-06T07:01:55Z</time></trkpt><trkpt lat="45.41557662688011" lon="9.423211541579523"><ele>96.0</ele><time>2026-04-06T07:01:56Z</time></trkpt><trkpt lat="45.41563053400112" lon="9.423073346423374"><ele>96.0</ele><time>2026-04-06T07:01:57Z</time></trkpt><trkpt lat="45.41568893268465" lon="9.422936044451102"><ele>96.0</ele><time>2026-04-06T07:01:58Z</time></trkpt><trkpt lat="45.415746660985" lon="9.42279735360037"><ele>96.0</ele><time>2026-04-06T07:01:59Z</time></trkpt><trkpt lat="45.41580463478131" lon="9.422657177637994"><ele>96.0</ele><time>2026-04-06T07:02:00Z</time></trkpt><trkpt lat="45.41586222410901" lon="9.422515542047242"><ele>96.0</ele><time>2026-04-06T07:02:01Z</time></trkpt><trkpt lat="45.41592085179687" lon="9.422373406604313"><ele>96.0</ele><time>2026-04-06T07:02:02Z</time></trkpt><trkpt lat="45.41598143785312" lon="9.422230418999087"><ele>96.0</ele><time>2026-04-06T07:02:03Z</time></trkpt><trkpt lat="45.41604145770852" lon="9.42208658370527"><ele>96.0</ele><time>2026-04-06T07:02:04Z</time></trkpt><trkpt lat="45.41610140843393" lon="9.421941403151635"><ele>96.0</ele><time>2026-04-06T07:02:05Z</time></trkpt><trkpt lat="45.416162854101444" lon="9.421796232657806"><ele>96.0</ele><time>2026-04-06T07:02:06Z</time></trkpt><trkpt lat="45.41622158747925" lon="9.421653983690268"><ele>96.0</ele><time>2026-04-06T07:02:07Z</time></trkpt><trkpt lat="45.41627747934354" lon="9.421521742032855"><ele>96.0</ele><time>2026-04-06T07:02:08Z</time></trkpt><trkpt lat="45.416328888349724" lon="9.421400084021476"><ele>96.0</ele><time>2026-04-06T07:02:09Z</time></trkpt><trkpt lat="45.41637544940937" lon="9.421293235982423"><ele>96.0</ele><time>2026-04-06T07:02:10Z</time></trkpt><trkpt lat="45.41641628147352" lon="9.421204956552925"><ele>96.0</ele><time>2026-04-06T07:02:11Z</time></trkpt><trkpt lat="45.41647541438255" lon="9.42106659327642"><ele>96.0</ele><time>2026-04-06T07:02:13Z</time></trkpt><trkpt lat="45.4165175672181" lon="9.42098682114587"><ele>96.0</ele><time>2026-04-06T07:02:15Z</time></trkpt><trkpt lat="45.41643393780435" lon="9.42091818015385"><ele>96.0</ele><time>2026-04-06T07:02:18Z</time></trkpt><trkpt lat="45.416515431822695" lon="9.420991855909703"><ele>96.0</ele><time>2026-04-06T07:02:30Z</time></trkpt><trkpt lat="45.41642260273454" lon="9.420913226160424"><ele>95.99999999999999</ele><time>2026-04-06T07:02:33Z</time></trkpt><trkpt lat="45.41637759495266" lon="9.420846420658302"><ele>96.0</ele><time>2026-04-06T07:02:52Z</time></trkpt><trkpt lat="45.41640175269957" lon="9.420752150106345"><ele>96.0</ele><time>2026-04-06T07:02:58Z</time></trkpt><trkpt lat="45.41641203626243" lon="9.420661358266752"><ele>96.0</ele><time>2026-04-06T07:03:03Z</time></trkpt><trkpt lat="45.416442923631095" lon="9.420567133066251"><ele>96.0</ele><time>2026-04-06T07:03:11Z</time></trkpt><trkpt lat="45.41647746992655" lon="9.420473542826686"><ele>95.99999999999999</ele><time>2026-04-06T07:03:18Z</time></trkpt><trkpt lat="45.4164393552867" lon="9.420393901009678"><ele>96.0</ele><time>2026-04-06T07:03:44Z</time></trkpt><trkpt lat="45.416372305534026" lon="9.420344729828829"><ele>95.99999999999999</ele><time>2026-04-06T07:03:50Z</time></trkpt><trkpt lat="45.41631562667377" lon="9.420304433486375"><ele>96.0</ele><time>2026-04-06T07:03:56Z</time></trkpt><trkpt lat="45.41626495112405" lon="9.420362042780237"><ele>96.0</ele><time>2026-04-06T07:04:11Z</time></trkpt><trkpt lat="45.416243280440156" lon="9.42046482791353"><ele>96.0</ele><time>2026-04-06T07:04:19Z</time></trkpt><trkpt lat="45.416186318794736" lon="9.420520669627853"><ele>96.0</ele><time>2026-04-06T07:04:29Z</time></trkpt><trkpt lat="45.416121167200906" lon="9.420435174659708"><ele>95.99999999999999</ele><time>2026-04-06T07:04:38Z</time></trkpt><trkpt lat="45.41607336200322" lon="9.420346243754054"><ele>96.0</ele><time>2026-04-06T07:04:43Z</time></trkpt><trkpt lat="45.416060829938864" lon="9.42025409074733"><ele>96.0</ele><time>2026-04-06T07:04:51Z</time></trkpt><trkpt lat="45.41599846626312" lon="9.420179199660002"><ele>96.0</ele><time>2026-04-06T07:04:53Z</time></trkpt><trkpt lat="45.415994999201224" lon="9.420089336709749"><ele>96.0</ele><time>2026-04-06T07:05:09Z</time></trkpt><trkpt lat="45.41590879047138" lon="9.420011059156861"><ele>96.0</ele><time>2026-04-06T07:05:14Z</time></trkpt><trkpt lat="45.41597301333161" lon="9.420175317581544"><ele>96.0</ele><time>2026-04-06T07:05:20Z</time></trkpt><trkpt lat="45.41603859351411" lon="9.42024642374043"><ele>96.0</ele><time>2026-04-06T07:05:35Z</time></trkpt><trkpt lat="45.4160858188052" lon="9.420334811702137"><ele>96.0</ele><time>2026-04-06T07:05:37Z</time></trkpt><trkpt lat="45.41619169808912" lon="9.420429934647755"><ele>96.0</ele><time>2026-04-06T07:05:43Z</time></trkpt><trkpt lat="45.41612661971603" lon="9.420428105164321"><ele>96.0</ele><time>2026-04-06T07:05:50Z</time></trkpt><trkpt lat="45.41608768467267" lon="9.42034977933056"><ele>96.0</ele><time>2026-04-06T07:05:55Z</time></trkpt><trkpt lat="45.416061456047764" lon="9.420265898132168"><ele>96.0</ele><time>2026-04-06T07:05:57Z</time></trkpt><trkpt lat="45.41595819862541" lon="9.420207684152286"><ele>96.0</ele><time>2026-04-06T07:05:59Z</time></trkpt><trkpt lat="45.41589359384374" lon="9.420177382193001"><ele>96.0</ele><time>2026-04-06T07:06:00Z</time></trkpt><trkpt lat="45.415864583532866" lon="9.420093658759543"><ele>96.0</ele><time>2026-04-06T07:06:04Z</time></trkpt><trkpt lat="45.4159065986638" lon="9.420170661396991"><ele>96.0</ele><time>2026-04-06T07:06:30Z</time></trkpt><trkpt lat="45.416013910056066" lon="9.420195284236089"><ele>96.0</ele><time>2026-04-06T07:06:41Z</time></trkpt><trkpt lat="45.41597548988352" lon="9.420117922167412"><ele>96.0</ele><time>2026-04-06T07:06:51Z</time></trkpt><trkpt lat="45.416064137996216" lon="9.420130863241933"><ele>96.0</ele><time>2026-04-06T07:07:04Z</time></trkpt><trkpt lat="45.4161076170838" lon="9.420225977072633"><ele>96.0</ele><time>2026-04-06T07:07:05Z</time></trkpt><trkpt lat="45.416090299637624" lon="9.420361820861533"><ele>96.0</ele><time>2026-04-06T07:07:25Z</time></trkpt><trkpt lat="45.41612994134859" lon="9.420440226171376"><ele>96.0</ele><time>2026-04-06T07:07:26Z</time></trkpt><trkpt lat="45.41620434144306" lon="9.420504621056025"><ele>96.0</ele><time>2026-04-06T07:07:31Z</time></trkpt><trkpt lat="45.41626116650695" lon="9.420545213091719"><ele>96.0</ele><time>2026-04-06T07:07:34Z</time></trkpt><trkpt lat="45.416230988706204" lon="9.420462135043502"><ele>96.0</ele><time>2026-04-06T07:07:42Z</time></trkpt><trkpt lat="45.416294639735376" lon="9.420530091010484"><ele>96.0</ele><time>2026-04-06T07:07:59.033Z</time></trkpt><trkpt lat="45.416307756067525" lon="9.420663110500872"><ele>96.0</ele><time>2026-04-06T07:08:00.031Z</time></trkpt><trkpt lat="45.41609619485164" lon="9.420470338137159"><ele>96.0</ele><time>2026-04-06T07:08:01.032Z</time></trkpt><trkpt lat="45.41600444558652" lon="9.420370998434679"><ele>96.0</ele><time>2026-04-06T07:08:02.034Z</time></trkpt><trkpt lat="45.415911007779684" lon="9.420297975854021"><ele>96.0</ele><time>2026-04-06T07:08:03.033Z</time></trkpt><trkpt lat="45.41582564760084" lon="9.420226615316286"><ele>96.0</ele><time>2026-04-06T07:08:04.033Z</time></trkpt><trkpt lat="45.41589294255123" lon="9.420200300132072"><ele>96.0</ele><time>2026-04-06T07:08:14.03Z</time></trkpt><trkpt lat="45.4160267302643" lon="9.420168388378855"><ele>96.0</ele><time>2026-04-06T07:08:17.031Z</time></trkpt><trkpt lat="45.415873172918225" lon="9.420120353605714"><ele>96.0</ele><time>2026-04-06T07:08:27.025Z</time></trkpt><trkpt lat="45.415818969000746" lon="9.42006515605942"><ele>96.0</ele><time>2026-04-06T07:08:29.024Z</time></trkpt><trkpt lat="45.41586228775535" lon="9.420139585917147"><ele>96.0</ele><time>2026-04-06T07:08:32.022Z</time></trkpt><trkpt lat="45.415790894203376" lon="9.420101953952805"><ele>96.0</ele><time>2026-04-06T07:08:48.028Z</time></trkpt><trkpt lat="45.41573040848959" lon="9.42006551118682"><ele>96.0</ele><time>2026-04-06T07:09:02.023Z</time></trkpt><trkpt lat="45.415866173552956" lon="9.420165099760192"><ele>96.0</ele><time>2026-04-06T07:09:22.012Z</time></trkpt><trkpt lat="45.4153818585445" lon="9.41968537848343"><ele>96.0</ele><time>2026-04-06T07:14:51.01Z</time></trkpt><trkpt lat="45.41531283489689" lon="9.419623762890264"><ele>96.0</ele><time>2026-04-06T07:14:52.012Z</time></trkpt><trkpt lat="45.415423373145785" lon="9.419757695920604"><ele>96.0</ele><time>2026-04-06T07:14:53.011Z</time></trkpt><trkpt lat="45.41555907326355" lon="9.41988456125056"><ele>96.0</ele><time>2026-04-06T07:14:54.01Z</time></trkpt><trkpt lat="45.41564468135783" lon="9.419886357937996"><ele>96.0</ele><time>2026-04-06T07:15:01.011Z</time></trkpt><trkpt lat="45.415705348981604" lon="9.419929441997002"><ele>96.0</ele><time>2026-04-06T07:15:05.01Z</time></trkpt><trkpt lat="45.41575851162456" lon="9.41998133842877"><ele>96.0</ele><time>2026-04-06T07:15:09.012Z</time></trkpt><trkpt lat="45.41583521236518" lon="9.420023584749599"><ele>96.0</ele><time>2026-04-06T07:15:11.011Z</time></trkpt><trkpt lat="45.41593142230099" lon="9.420104171731223"><ele>96.0</ele><time>2026-04-06T07:15:17.011Z</time></trkpt><trkpt lat="45.416016027926645" lon="9.420171646575909"><ele>96.0</ele><time>2026-04-06T07:15:24.011Z</time></trkpt><trkpt lat="45.41597817224128" lon="9.420099387454245"><ele>96.0</ele><time>2026-04-06T07:15:48.009Z</time></trkpt><trkpt lat="45.41591852479419" lon="9.420053040814775"><ele>96.0</ele><time>2026-04-06T07:15:50.01Z</time></trkpt><trkpt lat="45.415724163668756" lon="9.419948605687702"><ele>96.0</ele><time>2026-04-06T07:15:59.012Z</time></trkpt><trkpt lat="45.41578259976697" lon="9.420021134018658"><ele>96.0</ele><time>2026-04-06T07:16:11.011Z</time></trkpt><trkpt lat="45.41582388491261" lon="9.420101560063168"><ele>96.0</ele><time>2026-04-06T07:16:33Z</time></trkpt><trkpt lat="45.41605974773927" lon="9.42029257122747"><ele>96.0</ele><time>2026-04-06T07:16:34Z</time></trkpt><trkpt lat="45.41599406512649" lon="9.42038099437177"><ele>96.0</ele><time>2026-04-06T07:22:02Z</time></trkpt><trkpt lat="45.41598424242928" lon="9.42048153920538"><ele>96.0</ele><time>2026-04-06T07:22:03Z</time></trkpt><trkpt lat="45.41600514074244" lon="9.420572649020107"><ele>96.0</ele><time>2026-04-06T07:22:04Z</time></trkpt><trkpt lat="45.41606827523423" lon="9.420657337066341"><ele>96.0</ele><time>2026-04-06T07:22:05Z</time></trkpt><trkpt lat="45.41614730760652" lon="9.420730806415389"><ele>96.0</ele><time>2026-04-06T07:22:06Z</time></trkpt><trkpt lat="45.41621492858432" lon="9.420776493023856"><ele>96.0</ele><time>2026-04-06T07:22:07Z</time></trkpt><trkpt lat="45.416308960701485" lon="9.420855801127434"><ele>96.0</ele><time>2026-04-06T07:22:09Z</time></trkpt><trkpt lat="45.41637678577336" lon="9.420879430534688"><ele>96.0</ele><time>2026-04-06T07:22:49Z</time></trkpt><trkpt lat="45.416422001712924" lon="9.42107470250198"><ele>96.0</ele><time>2026-04-06T07:23:37Z</time></trkpt><trkpt lat="45.41638129648319" lon="9.421170675823387"><ele>96.0</ele><time>2026-04-06T07:23:38Z</time></trkpt><trkpt lat="45.41634744376052" lon="9.421250492578721"><ele>95.83333333333333</ele><time>2026-04-06T07:23:39Z</time></trkpt><trkpt lat="45.41631504306331" lon="9.421379327517357"><ele>95.66666666666667</ele><time>2026-04-06T07:23:43Z</time></trkpt><trkpt lat="45.416288421998765" lon="9.421468831806704"><ele>95.5</ele><time>2026-04-06T07:23:44Z</time></trkpt><trkpt lat="45.4162430499981" lon="9.421560675910369"><ele>95.33333333333334</ele><time>2026-04-06T07:23:45Z</time></trkpt><trkpt lat="45.41618859852511" lon="9.421674120027504"><ele>95.16666666666667</ele><time>2026-04-06T07:23:46Z</time></trkpt><trkpt lat="45.41613594758519" lon="9.421801078639467"><ele>95.0</ele><time>2026-04-06T07:23:47Z</time></trkpt><trkpt lat="45.41607913398908" lon="9.421931982192602"><ele>95.0</ele><time>2026-04-06T07:23:48Z</time></trkpt><trkpt lat="45.416028485209225" lon="9.422054708512647"><ele>95.0</ele><time>2026-04-06T07:23:49Z</time></trkpt><trkpt lat="45.415970066106816" lon="9.422191577471601"><ele>95.0</ele><time>2026-04-06T07:23:50Z</time></trkpt><trkpt lat="45.41589855382867" lon="9.42237157222181"><ele>95.0</ele><time>2026-04-06T07:23:51Z</time></trkpt><trkpt lat="45.41581928597419" lon="9.422565086761443"><ele>95.0</ele><time>2026-04-06T07:23:52Z</time></trkpt><trkpt lat="45.415739951553086" lon="9.422748357662662"><ele>95.0</ele><time>2026-04-06T07:23:53Z</time></trkpt><trkpt lat="45.41565880898906" lon="9.422947222411047"><ele>95.0</ele><time>2026-04-06T07:23:54Z</time></trkpt><trkpt lat="45.41557283351533" lon="9.423154170480327"><ele>95.33333333333334</ele><time>2026-04-06T07:23:55Z</time></trkpt><trkpt lat="45.41548414044057" lon="9.423356607544257"><ele>95.66666666666667</ele><time>2026-04-06T07:23:56Z</time></trkpt><trkpt lat="45.41540045538313" lon="9.423561650752267"><ele>96.0</ele><time>2026-04-06T07:23:57Z</time></trkpt><trkpt lat="45.41531952744388" lon="9.423776208122826"><ele>95.66666666666667</ele><time>2026-04-06T07:23:58Z</time></trkpt><trkpt lat="45.41524218441142" lon="9.423977359150891"><ele>95.33333333333334</ele><time>2026-04-06T07:23:59Z</time></trkpt><trkpt lat="45.41515876775955" lon="9.424177481544081"><ele>95.0</ele><time>2026-04-06T07:24:00Z</time></trkpt><trkpt lat="45.41507505352489" lon="9.424369815869625"><ele>95.0</ele><time>2026-04-06T07:24:01Z</time></trkpt><trkpt lat="45.41499920223518" lon="9.424553804918212"><ele>95.0</ele><time>2026-04-06T07:24:02Z</time></trkpt><trkpt lat="45.414929910406926" lon="9.424725700885881"><ele>95.0</ele><time>2026-04-06T07:24:03Z</time></trkpt><trkpt lat="45.41485747420379" lon="9.424873875668213"><ele>95.0</ele><time>2026-04-06T07:24:04Z</time></trkpt><trkpt lat="45.41479538134175" lon="9.42501431568427"><ele>95.0</ele><time>2026-04-06T07:24:05Z</time></trkpt><trkpt lat="45.414742636736165" lon="9.425147079245189"><ele>95.0</ele><time>2026-04-06T07:24:06Z</time></trkpt><trkpt lat="45.41468729408902" lon="9.42526878495264"><ele>95.0</ele><time>2026-04-06T07:24:07Z</time></trkpt><trkpt lat="45.41462897083608" lon="9.425360981907104"><ele>95.0</ele><time>2026-04-06T07:24:08Z</time></trkpt><trkpt lat="45.4145680061637" lon="9.425435310369165"><ele>95.0</ele><time>2026-04-06T07:24:09Z</time></trkpt><trkpt lat="45.414512988134604" lon="9.425492474850552"><ele>95.0</ele><time>2026-04-06T07:24:10Z</time></trkpt><trkpt lat="45.414454890937584" lon="9.425529052769077"><ele>95.0</ele><time>2026-04-06T07:24:12Z</time></trkpt><trkpt lat="45.41436975365043" lon="9.425521606800748"><ele>95.0</ele><time>2026-04-06T07:24:24Z</time></trkpt><trkpt lat="45.41423834100352" lon="9.425500476844691"><ele>95.0</ele><time>2026-04-06T07:24:26Z</time></trkpt><trkpt lat="45.41416417276465" lon="9.42546132055791"><ele>95.0</ele><time>2026-04-06T07:24:27Z</time></trkpt><trkpt lat="45.414095353506895" lon="9.425383090708008"><ele>95.0</ele><time>2026-04-06T07:24:28Z</time></trkpt><trkpt lat="45.41403281344033" lon="9.425291580296525"><ele>95.0</ele><time>2026-04-06T07:24:29Z</time></trkpt><trkpt lat="45.41397875601952" lon="9.425185550355556"><ele>95.0</ele><time>2026-04-06T07:24:30Z</time></trkpt><trkpt lat="45.4139195675166" lon="9.425080328609157"><ele>95.0</ele><time>2026-04-06T07:24:31Z</time></trkpt><trkpt lat="45.41386618949362" lon="9.424979043245125"><ele>95.0</ele><time>2026-04-06T07:24:32Z</time></trkpt><trkpt lat="45.41381543137985" lon="9.424880097629748"><ele>95.0</ele><time>2026-04-06T07:24:33Z</time></trkpt><trkpt lat="45.413778017198126" lon="9.424790958884996"><ele>95.0</ele><time>2026-04-06T07:24:34Z</time></trkpt><trkpt lat="45.41374264696218" lon="9.42468305521141"><ele>95.16666666666667</ele><time>2026-04-06T07:24:35Z</time></trkpt><trkpt lat="45.413724805474146" lon="9.42454568582771"><ele>95.33333333333334</ele><time>2026-04-06T07:24:36Z</time></trkpt><trkpt lat="45.4137120109332" lon="9.424424129357204"><ele>95.5</ele><time>2026-04-06T07:24:37Z</time></trkpt><trkpt lat="45.413675590203425" lon="9.424334195603912"><ele>95.66666666666667</ele><time>2026-04-06T07:24:38Z</time></trkpt><trkpt lat="45.41364480788015" lon="9.424241309204401"><ele>95.83333333333333</ele><time>2026-04-06T07:24:39Z</time></trkpt><trkpt lat="45.413558724632324" lon="9.424216720032549"><ele>96.0</ele><time>2026-04-06T07:24:40Z</time></trkpt><trkpt lat="45.413474513300784" lon="9.424257318205022"><ele>96.0</ele><time>2026-04-06T07:24:41Z</time></trkpt><trkpt lat="45.41339452990483" lon="9.424291868680534"><ele>96.0</ele><time>2026-04-06T07:24:42Z</time></trkpt><trkpt lat="45.41329734259245" lon="9.42435043082425"><ele>96.0</ele><time>2026-04-06T07:24:43Z</time></trkpt><trkpt lat="45.41318180321868" lon="9.424388656970994"><ele>96.0</ele><time>2026-04-06T07:24:44Z</time></trkpt><trkpt lat="45.41305330490992" lon="9.424410815357998"><ele>96.0</ele><time>2026-04-06T07:24:45Z</time></trkpt><trkpt lat="45.412903153357576" lon="9.42434981050512"><ele>96.0</ele><time>2026-04-06T07:24:46Z</time></trkpt><trkpt lat="45.41275594409114" lon="9.424316147690583"><ele>96.0</ele><time>2026-04-06T07:24:47Z</time></trkpt><trkpt lat="45.41259242206487" lon="9.424280946846508"><ele>96.0</ele><time>2026-04-06T07:24:48Z</time></trkpt><trkpt lat="45.41242235947123" lon="9.424245167689397"><ele>96.0</ele><time>2026-04-06T07:24:49Z</time></trkpt><trkpt lat="45.41225668439784" lon="9.424212607743684"><ele>96.0</ele><time>2026-04-06T07:24:50Z</time></trkpt><trkpt lat="45.41208783390586" lon="9.424187747276049"><ele>96.0</ele><time>2026-04-06T07:24:51Z</time></trkpt><trkpt lat="45.41192156331203" lon="9.424156208085781"><ele>96.0</ele><time>2026-04-06T07:24:52Z</time></trkpt><trkpt lat="45.41175251556367" lon="9.424126072716815"><ele>96.0</ele><time>2026-04-06T07:24:53Z</time></trkpt><trkpt lat="45.41157886386808" lon="9.424096419809207"><ele>96.0</ele><time>2026-04-06T07:24:54Z</time></trkpt><trkpt lat="45.41140361465603" lon="9.424066685166249"><ele>95.66666666666667</ele><time>2026-04-06T07:24:55Z</time></trkpt><trkpt lat="45.41122942660164" lon="9.424042102623968"><ele>95.33333333333334</ele><time>2026-04-06T07:24:56Z</time></trkpt><trkpt lat="45.411054635921055" lon="9.424026756824603"><ele>95.0</ele><time>2026-04-06T07:24:57Z</time></trkpt><trkpt lat="45.41086759809577" lon="9.424017056553517"><ele>95.0</ele><time>2026-04-06T07:24:58Z</time></trkpt><trkpt lat="45.410682893064745" lon="9.424017935701377"><ele>95.0</ele><time>2026-04-06T07:24:59Z</time></trkpt><trkpt lat="45.41051301815723" lon="9.424022837977509"><ele>95.0</ele><time>2026-04-06T07:25:00Z</time></trkpt><trkpt lat="45.410358508579506" lon="9.424023530931487"><ele>94.75</ele><time>2026-04-06T07:25:01Z</time></trkpt><trkpt lat="45.41021276640472" lon="9.424032263550783"><ele>94.5</ele><time>2026-04-06T07:25:02Z</time></trkpt><trkpt lat="45.41009317805389" lon="9.424040639116837"><ele>94.25</ele><time>2026-04-06T07:25:03Z</time></trkpt><trkpt lat="45.40999912869394" lon="9.424043560710551"><ele>94.0</ele><time>2026-04-06T07:25:04Z</time></trkpt><trkpt lat="45.40990168391915" lon="9.424059072894302"><ele>94.0</ele><time>2026-04-06T07:25:06Z</time></trkpt><trkpt lat="45.40979416481556" lon="9.42408260046223"><ele>94.0</ele><time>2026-04-06T07:26:37Z</time></trkpt><trkpt lat="45.40969180827306" lon="9.424111471758915"><ele>94.0</ele><time>2026-04-06T07:26:39Z</time></trkpt><trkpt lat="45.409623107834456" lon="9.42414070816389"><ele>94.0</ele><time>2026-04-06T07:26:40Z</time></trkpt><trkpt lat="45.40953023338527" lon="9.424161244563267"><ele>94.0</ele><time>2026-04-06T07:26:41Z</time></trkpt><trkpt lat="45.40941455914544" lon="9.424194982668519"><ele>94.25</ele><time>2026-04-06T07:26:42Z</time></trkpt><trkpt lat="45.40928845173537" lon="9.424232227188167"><ele>94.5</ele><time>2026-04-06T07:26:43Z</time></trkpt><trkpt lat="45.40915996800162" lon="9.424274012578952"><ele>94.75</ele><time>2026-04-06T07:26:44Z</time></trkpt><trkpt lat="45.40902806647061" lon="9.424320111654747"><ele>95.0</ele><time>2026-04-06T07:26:45Z</time></trkpt><trkpt lat="45.408883312732755" lon="9.424375068809644"><ele>95.0</ele><time>2026-04-06T07:26:46Z</time></trkpt><trkpt lat="45.4087419133185" lon="9.42443868867058"><ele>95.0</ele><time>2026-04-06T07:26:47Z</time></trkpt><trkpt lat="45.408592253122706" lon="9.424508666823153"><ele>95.0</ele><time>2026-04-06T07:26:48Z</time></trkpt><trkpt lat="45.40844039561799" lon="9.424578559914229"><ele>95.0</ele><time>2026-04-06T07:26:49Z</time></trkpt><trkpt lat="45.4082793984164" lon="9.424653222546453"><ele>95.0</ele><time>2026-04-06T07:26:50Z</time></trkpt><trkpt lat="45.40811354588476" lon="9.424731204102727"><ele>95.0</ele><time>2026-04-06T07:26:51Z</time></trkpt><trkpt lat="45.40794256059631" lon="9.424809602365347"><ele>94.33333333333334</ele><time>2026-04-06T07:26:52Z</time></trkpt><trkpt lat="45.40775474037176" lon="9.424897352454066"><ele>93.66666666666667</ele><time>2026-04-06T07:26:53Z</time></trkpt><trkpt lat="45.407569274170164" lon="9.424973562899297"><ele>93.0</ele><time>2026-04-06T07:26:54Z</time></trkpt><trkpt lat="45.40737151272339" lon="9.425063780542132"><ele>93.0</ele><time>2026-04-06T07:26:55Z</time></trkpt><trkpt lat="45.407181512106874" lon="9.425153277951393"><ele>93.0</ele><time>2026-04-06T07:26:56Z</time></trkpt><trkpt lat="45.40699456928225" lon="9.425243781592764"><ele>93.0</ele><time>2026-04-06T07:26:57Z</time></trkpt><trkpt lat="45.406801745056335" lon="9.42533650290517"><ele>93.0</ele><time>2026-04-06T07:26:58Z</time></trkpt><trkpt lat="45.40660735821779" lon="9.425434199231011"><ele>93.0</ele><time>2026-04-06T07:26:59Z</time></trkpt><trkpt lat="45.406413780968926" lon="9.425536685661546"><ele>93.0</ele><time>2026-04-06T07:27:00Z</time></trkpt><trkpt lat="45.40622341749239" lon="9.425646381771427"><ele>92.33333333333333</ele><time>2026-04-06T07:27:01Z</time></trkpt><trkpt lat="45.40603605589788" lon="9.425762936510756"><ele>91.66666666666666</ele><time>2026-04-06T07:27:02Z</time></trkpt><trkpt lat="45.405849798119384" lon="9.425888384253714"><ele>91.0</ele><time>2026-04-06T07:27:03Z</time></trkpt><trkpt lat="45.40566535357121" lon="9.426023522612024"><ele>91.66666666666666</ele><time>2026-04-06T07:27:04Z</time></trkpt><trkpt lat="45.405481905453584" lon="9.426173981431148"><ele>92.33333333333333</ele><time>2026-04-06T07:27:05Z</time></trkpt><trkpt lat="45.40530482126627" lon="9.426330678814159"><ele>93.0</ele><time>2026-04-06T07:27:06Z</time></trkpt><trkpt lat="45.40512956018507" lon="9.426494434416293"><ele>93.0</ele><time>2026-04-06T07:27:07Z</time></trkpt><trkpt lat="45.40495741470766" lon="9.426667902271197"><ele>93.0</ele><time>2026-04-06T07:27:08Z</time></trkpt><trkpt lat="45.404789686213846" lon="9.426854728747326"><ele>93.0</ele><time>2026-04-06T07:27:09Z</time></trkpt><trkpt lat="45.40462441101386" lon="9.427053379557673"><ele>93.0</ele><time>2026-04-06T07:27:10Z</time></trkpt><trkpt lat="45.40446213577581" lon="9.427256499148918"><ele>93.0</ele><time>2026-04-06T07:27:11Z</time></trkpt><trkpt lat="45.40430442120352" lon="9.427469803882275"><ele>93.0</ele><time>2026-04-06T07:27:12Z</time></trkpt><trkpt lat="45.4041498711569" lon="9.427694438017502"><ele>93.0</ele><time>2026-04-06T07:27:13Z</time></trkpt><trkpt lat="45.40400033296436" lon="9.427924073751361"><ele>93.0</ele><time>2026-04-06T07:27:14Z</time></trkpt><trkpt lat="45.40385744519358" lon="9.428162113847204"><ele>93.0</ele><time>2026-04-06T07:27:15Z</time></trkpt><trkpt lat="45.40372060951154" lon="9.428407740257015"><ele>93.0</ele><time>2026-04-06T07:27:16Z</time></trkpt><trkpt lat="45.40358754882445" lon="9.42865463502593"><ele>93.0</ele><time>2026-04-06T07:27:17Z</time></trkpt><trkpt lat="45.40345517222637" lon="9.428903011209512"><ele>93.0</ele><time>2026-04-06T07:27:18Z</time></trkpt><trkpt lat="45.403327860693246" lon="9.429144710774882"><ele>93.0</ele><time>2026-04-06T07:27:19Z</time></trkpt><trkpt lat="45.40320041975035" lon="9.429394213243512"><ele>93.0</ele><time>2026-04-06T07:27:20Z</time></trkpt><trkpt lat="45.40307211391482" lon="9.429647821519724"><ele>93.0</ele><time>2026-04-06T07:27:21Z</time></trkpt><trkpt lat="45.40293832165998" lon="9.429890006869222"><ele>93.33333333333333</ele><time>2026-04-06T07:27:22Z</time></trkpt><trkpt lat="45.40279561228192" lon="9.430124012959425"><ele>93.66666666666666</ele><time>2026-04-06T07:27:23Z</time></trkpt><trkpt lat="45.40264031915238" lon="9.430347133063817"><ele>94.0</ele><time>2026-04-06T07:27:24Z</time></trkpt><trkpt lat="45.402483299175636" lon="9.43055361079632"><ele>93.33333333333333</ele><time>2026-04-06T07:27:25Z</time></trkpt><trkpt lat="45.40232471162539" lon="9.430759008692464"><ele>92.66666666666667</ele><time>2026-04-06T07:27:26Z</time></trkpt><trkpt lat="45.40217102457572" lon="9.43094483991093"><ele>92.0</ele><time>2026-04-06T07:27:27Z</time></trkpt><trkpt lat="45.40202415076794" lon="9.43111115500585"><ele>92.0</ele><time>2026-04-06T07:27:28Z</time></trkpt><trkpt lat="45.40188690389485" lon="9.431269332104666"><ele>92.0</ele><time>2026-04-06T07:27:29Z</time></trkpt><trkpt lat="45.40175774331218" lon="9.431427009252879"><ele>92.0</ele><time>2026-04-06T07:27:30Z</time></trkpt><trkpt lat="45.4016408928973" lon="9.431567409352184"><ele>92.25</ele><time>2026-04-06T07:27:31Z</time></trkpt><trkpt lat="45.40153072498731" lon="9.431693864555514"><ele>92.5</ele><time>2026-04-06T07:27:32Z</time></trkpt><trkpt lat="45.401424595805835" lon="9.431808804642062"><ele>92.75</ele><time>2026-04-06T07:27:33Z</time></trkpt><trkpt lat="45.401335050411824" lon="9.431903842145397"><ele>93.0</ele><time>2026-04-06T07:27:34Z</time></trkpt><trkpt lat="45.40127204323038" lon="9.431955459121284"><ele>93.0</ele><time>2026-04-06T07:27:35Z</time></trkpt><trkpt lat="45.40119257788052" lon="9.431990594303844"><ele>93.0</ele><time>2026-04-06T07:27:37Z</time></trkpt><trkpt lat="45.40110113679814" lon="9.43204706097984"><ele>93.0</ele><time>2026-04-06T07:27:39Z</time></trkpt><trkpt lat="45.40104207939371" lon="9.432084674680754"><ele>93.0</ele><time>2026-04-06T07:27:40Z</time></trkpt><trkpt lat="45.40096192799034" lon="9.432080771568756"><ele>93.0</ele><time>2026-04-06T07:27:41Z</time></trkpt><trkpt lat="45.400918114949675" lon="9.432171224589423"><ele>93.0</ele><time>2026-04-06T07:27:42Z</time></trkpt><trkpt lat="45.40089917312193" lon="9.432288394974897"><ele>92.83333333333333</ele><time>2026-04-06T07:27:43Z</time></trkpt><trkpt lat="45.4008944140865" lon="9.432411631904625"><ele>92.66666666666667</ele><time>2026-04-06T07:27:44Z</time></trkpt><trkpt lat="45.40088618828252" lon="9.43252934874958"><ele>92.5</ele><time>2026-04-06T07:27:45Z</time></trkpt><trkpt lat="45.400846847622304" lon="9.432635944739319"><ele>92.33333333333334</ele><time>2026-04-06T07:27:46Z</time></trkpt><trkpt lat="45.40077397664174" lon="9.432701260978298"><ele>92.16666666666667</ele><time>2026-04-06T07:27:47Z</time></trkpt><trkpt lat="45.40067852853421" lon="9.432715963795507"><ele>92.0</ele><time>2026-04-06T07:27:48Z</time></trkpt><trkpt lat="45.40057131107275" lon="9.432683517299282"><ele>91.75</ele><time>2026-04-06T07:27:49Z</time></trkpt><trkpt lat="45.400454195004194" lon="9.432602196915518"><ele>91.5</ele><time>2026-04-06T07:27:50Z</time></trkpt><trkpt lat="45.40035004505914" lon="9.432513051109728"><ele>91.25</ele><time>2026-04-06T07:27:51Z</time></trkpt><trkpt lat="45.40024692862741" lon="9.432487108040762"><ele>91.0</ele><time>2026-04-06T07:27:52Z</time></trkpt><trkpt lat="45.40013798780173" lon="9.432517892918602"><ele>91.0</ele><time>2026-04-06T07:27:53Z</time></trkpt><trkpt lat="45.40003503469353" lon="9.432594553663298"><ele>91.0</ele><time>2026-04-06T07:27:54Z</time></trkpt><trkpt lat="45.399957133080704" lon="9.432703575965315"><ele>91.0</ele><time>2026-04-06T07:27:55Z</time></trkpt><trkpt lat="45.399909431342" lon="9.432838524485076"><ele>91.0</ele><time>2026-04-06T07:27:56Z</time></trkpt><trkpt lat="45.39988469365805" lon="9.433004577631852"><ele>91.0</ele><time>2026-04-06T07:27:57Z</time></trkpt><trkpt lat="45.39987757219436" lon="9.433182865596322"><ele>91.0</ele><time>2026-04-06T07:27:58Z</time></trkpt><trkpt lat="45.39989180208364" lon="9.433385040647115"><ele>91.0</ele><time>2026-04-06T07:27:59Z</time></trkpt><trkpt lat="45.39991632359099" lon="9.433586963423592"><ele>91.0</ele><time>2026-04-06T07:28:00Z</time></trkpt><trkpt lat="45.39992909050476" lon="9.433781824749756"><ele>91.0</ele><time>2026-04-06T07:28:01Z</time></trkpt><trkpt lat="45.39992721484707" lon="9.433967021938662"><ele>91.0</ele><time>2026-04-06T07:28:02Z</time></trkpt><trkpt lat="45.3999169413577" lon="9.434176908631608"><ele>91.0</ele><time>2026-04-06T07:28:03Z</time></trkpt><trkpt lat="45.399902596081546" lon="9.434397627031869"><ele>91.0</ele><time>2026-04-06T07:28:04Z</time></trkpt><trkpt lat="45.39989198484484" lon="9.434625903993847"><ele>91.0</ele><time>2026-04-06T07:28:05Z</time></trkpt><trkpt lat="45.39989573951705" lon="9.434855616027656"><ele>91.0</ele><time>2026-04-06T07:28:06Z</time></trkpt><trkpt lat="45.39991413362579" lon="9.435089854130535"><ele>91.0</ele><time>2026-04-06T07:28:07Z</time></trkpt><trkpt lat="45.399937602890375" lon="9.435338165309297"><ele>90.66666666666666</ele><time>2026-04-06T07:28:08Z</time></trkpt><trkpt lat="45.39995900299862" lon="9.435573286955755"><ele>90.33333333333333</ele><time>2026-04-06T07:28:09Z</time></trkpt><trkpt lat="45.39999314082863" lon="9.43580873078196"><ele>90.0</ele><time>2026-04-06T07:28:10Z</time></trkpt><trkpt lat="45.40003418673413" lon="9.436040142845703"><ele>90.0</ele><time>2026-04-06T07:28:11Z</time></trkpt><trkpt lat="45.40008122932547" lon="9.436278248574116"><ele>90.0</ele><time>2026-04-06T07:28:12Z</time></trkpt><trkpt lat="45.40013228466445" lon="9.43650698535447"><ele>90.0</ele><time>2026-04-06T07:28:13Z</time></trkpt><trkpt lat="45.400175479115234" lon="9.43671986759769"><ele>90.0</ele><time>2026-04-06T07:28:14Z</time></trkpt><trkpt lat="45.40020671791318" lon="9.436921057836747"><ele>90.0</ele><time>2026-04-06T07:28:15Z</time></trkpt><trkpt lat="45.40023117393588" lon="9.437113128494676"><ele>90.0</ele><time>2026-04-06T07:28:16Z</time></trkpt><trkpt lat="45.4002553073495" lon="9.437289357159115"><ele>90.0</ele><time>2026-04-06T07:28:17Z</time></trkpt><trkpt lat="45.400285132561066" lon="9.437454052955928"><ele>90.25</ele><time>2026-04-06T07:28:18Z</time></trkpt><trkpt lat="45.400324259623055" lon="9.43761805469077"><ele>90.5</ele><time>2026-04-06T07:28:19Z</time></trkpt><trkpt lat="45.400374947878746" lon="9.437788763101294"><ele>90.75</ele><time>2026-04-06T07:28:20Z</time></trkpt><trkpt lat="45.400437526983666" lon="9.437968608056986"><ele>91.0</ele><time>2026-04-06T07:28:21Z</time></trkpt><trkpt lat="45.40049693183305" lon="9.438141909944765"><ele>91.0</ele><time>2026-04-06T07:28:22Z</time></trkpt><trkpt lat="45.400541778916875" lon="9.438299157301316"><ele>91.0</ele><time>2026-04-06T07:28:23Z</time></trkpt><trkpt lat="45.40058086873754" lon="9.438438162461706"><ele>91.0</ele><time>2026-04-06T07:28:24Z</time></trkpt><trkpt lat="45.400614570371204" lon="9.438558960436499"><ele>91.0</ele><time>2026-04-06T07:28:25Z</time></trkpt><trkpt lat="45.40063616156881" lon="9.438643624326454"><ele>91.0</ele><time>2026-04-06T07:28:26Z</time></trkpt><trkpt lat="45.40063791755492" lon="9.438735783302045"><ele>91.0</ele><time>2026-04-06T07:28:28Z</time></trkpt><trkpt lat="45.40057962749944" lon="9.438832903567091"><ele>91.6</ele><time>2026-04-06T07:28:30Z</time></trkpt><trkpt lat="45.400434702109045" lon="9.438868557874907"><ele>92.19999999999999</ele><time>2026-04-06T07:28:32Z</time></trkpt><trkpt lat="45.4003390139318" lon="9.438889494945792"><ele>92.80000000000001</ele><time>2026-04-06T07:28:33Z</time></trkpt><trkpt lat="45.400244270611026" lon="9.438897747493224"><ele>93.4</ele><time>2026-04-06T07:28:34Z</time></trkpt><trkpt lat="45.40015255657526" lon="9.438907456696636"><ele>94.0</ele><time>2026-04-06T07:28:35Z</time></trkpt><trkpt lat="45.40004293122156" lon="9.438919810821886"><ele>94.0</ele><time>2026-04-06T07:28:36Z</time></trkpt><trkpt lat="45.39993374526998" lon="9.43894549549832"><ele>94.0</ele><time>2026-04-06T07:28:37Z</time></trkpt><trkpt lat="45.399836155935716" lon="9.438942202370425"><ele>94.0</ele><time>2026-04-06T07:28:38Z</time></trkpt><trkpt lat="45.39975114978958" lon="9.438982615664983"><ele>94.0</ele><time>2026-04-06T07:28:39Z</time></trkpt><trkpt lat="45.39967253681465" lon="9.438998140202917"><ele>94.0</ele><time>2026-04-06T07:28:40Z</time></trkpt><trkpt lat="45.39959409303063" lon="9.438985423663745"><ele>93.80000000000001</ele><time>2026-04-06T07:28:41Z</time></trkpt><trkpt lat="45.399511428878434" lon="9.43899142411979"><ele>93.60000000000001</ele><time>2026-04-06T07:28:42Z</time></trkpt><trkpt lat="45.399435127970044" lon="9.438994479312298"><ele>93.4</ele><time>2026-04-06T07:28:43Z</time></trkpt><trkpt lat="45.399261760234495" lon="9.439009558700475"><ele>93.2</ele><time>2026-04-06T07:28:45Z</time></trkpt><trkpt lat="45.39917523293936" lon="9.439005594263252"><ele>93.0</ele><time>2026-04-06T07:28:46Z</time></trkpt><trkpt lat="45.39907307427961" lon="9.438985496084538"><ele>93.0</ele><time>2026-04-06T07:28:47Z</time></trkpt><trkpt lat="45.398979880976" lon="9.438972657612004"><ele>93.0</ele><time>2026-04-06T07:28:48Z</time></trkpt><trkpt lat="45.39889275823937" lon="9.438987298963811"><ele>93.0</ele><time>2026-04-06T07:28:49Z</time></trkpt><trkpt lat="45.39880848638393" lon="9.438972058516056"><ele>93.0</ele><time>2026-04-06T07:28:50Z</time></trkpt><trkpt lat="45.398718947080624" lon="9.438937760553424"><ele>93.0</ele><time>2026-04-06T07:28:51Z</time></trkpt><trkpt lat="45.39864806214622" lon="9.438936844046298"><ele>93.0</ele><time>2026-04-06T07:28:52Z</time></trkpt><trkpt lat="45.398575056360414" lon="9.438945354436871"><ele>93.0</ele><time>2026-04-06T07:28:53Z</time></trkpt><trkpt lat="45.39850921979386" lon="9.43896992233498"><ele>93.0</ele><time>2026-04-06T07:28:54Z</time></trkpt><trkpt lat="45.39841690742337" lon="9.43905632518207"><ele>93.0</ele><time>2026-04-06T07:28:56Z</time></trkpt><trkpt lat="45.3983297890704" lon="9.439171746331898"><ele>93.0</ele><time>2026-04-06T07:28:58Z</time></trkpt><trkpt lat="45.39820272989017" lon="9.4391943973517"><ele>93.0</ele><time>2026-04-06T07:29:00Z</time></trkpt><trkpt lat="45.39809482605746" lon="9.439202807586128"><ele>92.60000000000001</ele><time>2026-04-06T07:29:01Z</time></trkpt><trkpt lat="45.39797363700444" lon="9.4392365165632"><ele>92.2</ele><time>2026-04-06T07:29:02Z</time></trkpt><trkpt lat="45.39785774321052" lon="9.439247677610876"><ele>91.8</ele><time>2026-04-06T07:29:03Z</time></trkpt><trkpt lat="45.39776825421191" lon="9.439292365942762"><ele>91.4</ele><time>2026-04-06T07:29:04Z</time></trkpt><trkpt lat="45.39767345379696" lon="9.439338251348643"><ele>91.0</ele><time>2026-04-06T07:29:05Z</time></trkpt><trkpt lat="45.39758310801064" lon="9.439375732118542"><ele>91.0</ele><time>2026-04-06T07:29:06Z</time></trkpt><trkpt lat="45.39748851158475" lon="9.43940242111021"><ele>91.0</ele><time>2026-04-06T07:29:07Z</time></trkpt><trkpt lat="45.39739864973076" lon="9.439413253786967"><ele>91.0</ele><time>2026-04-06T07:29:08Z</time></trkpt><trkpt lat="45.39732073195069" lon="9.439422367148314"><ele>91.0</ele><time>2026-04-06T07:29:09Z</time></trkpt><trkpt lat="45.397244676164426" lon="9.439408923812401"><ele>91.0</ele><time>2026-04-06T07:29:10Z</time></trkpt><trkpt lat="45.397131948800315" lon="9.439475268946904"><ele>90.8</ele><time>2026-04-06T07:29:12Z</time></trkpt><trkpt lat="45.3970861576208" lon="9.439537047669528"><ele>90.6</ele><time>2026-04-06T07:29:13Z</time></trkpt><trkpt lat="45.397036194869095" lon="9.43970347766158"><ele>90.4</ele><time>2026-04-06T07:29:15Z</time></trkpt><trkpt lat="45.397034094794186" lon="9.439815328985219"><ele>90.2</ele><time>2026-04-06T07:29:16Z</time></trkpt><trkpt lat="45.397049364582585" lon="9.439967791995718"><ele>90.0</ele><time>2026-04-06T07:29:17Z</time></trkpt><trkpt lat="45.39707396553813" lon="9.440146549291581"><ele>89.0</ele><time>2026-04-06T07:29:18Z</time></trkpt><trkpt lat="45.397114083657065" lon="9.440317904349495"><ele>88.0</ele><time>2026-04-06T07:29:19Z</time></trkpt><trkpt lat="45.39713708268017" lon="9.440471761708674"><ele>87.0</ele><time>2026-04-06T07:29:20Z</time></trkpt><trkpt lat="45.39715917239081" lon="9.440624296844428"><ele>86.0</ele><time>2026-04-06T07:29:21Z</time></trkpt><trkpt lat="45.39718439112021" lon="9.440777047913684"><ele>85.8</ele><time>2026-04-06T07:29:22Z</time></trkpt><trkpt lat="45.39720987838474" lon="9.440931676737149"><ele>85.6</ele><time>2026-04-06T07:29:23Z</time></trkpt><trkpt lat="45.39723502332194" lon="9.441072682800687"><ele>85.4</ele><time>2026-04-06T07:29:24Z</time></trkpt><trkpt lat="45.39725133566491" lon="9.441192257326778"><ele>85.2</ele><time>2026-04-06T07:29:25Z</time></trkpt><trkpt lat="45.39727020225489" lon="9.441351637484694"><ele>85.0</ele><time>2026-04-06T07:29:27Z</time></trkpt><trkpt lat="45.39721013471334" lon="9.44147235236518"><ele>84.0</ele><time>2026-04-06T07:29:29Z</time></trkpt><trkpt lat="45.3970896329769" lon="9.441486576856414"><ele>83.0</ele><time>2026-04-06T07:29:31Z</time></trkpt><trkpt lat="45.396989855021076" lon="9.441520369413496"><ele>82.0</ele><time>2026-04-06T07:29:32Z</time></trkpt><trkpt lat="45.39686835380779" lon="9.441520190147848"><ele>81.0</ele><time>2026-04-06T07:29:33Z</time></trkpt><trkpt lat="45.39671844594308" lon="9.44153694275887"><ele>81.0</ele><time>2026-04-06T07:29:34Z</time></trkpt><trkpt lat="45.39656180658797" lon="9.44156323889574"><ele>81.0</ele><time>2026-04-06T07:29:35Z</time></trkpt><trkpt lat="45.39642657679045" lon="9.441584100751196"><ele>81.0</ele><time>2026-04-06T07:29:36Z</time></trkpt><trkpt lat="45.396297399113166" lon="9.44159435733825"><ele>81.0</ele><time>2026-04-06T07:29:37Z</time></trkpt><trkpt lat="45.396160537555716" lon="9.441612263203915"><ele>80.75</ele><time>2026-04-06T07:29:38Z</time></trkpt><trkpt lat="45.39601189465454" lon="9.44162801742657"><ele>80.5</ele><time>2026-04-06T07:29:39Z</time></trkpt><trkpt lat="45.39587701300565" lon="9.441642786566618"><ele>80.25</ele><time>2026-04-06T07:29:40Z</time></trkpt><trkpt lat="45.395755070000895" lon="9.44164782565071"><ele>80.0</ele><time>2026-04-06T07:29:41Z</time></trkpt><trkpt lat="45.395640281221475" lon="9.441692219280535"><ele>80.0</ele><time>2026-04-06T07:29:42Z</time></trkpt><trkpt lat="45.39552971515664" lon="9.441726893073618"><ele>80.0</ele><time>2026-04-06T07:29:43Z</time></trkpt><trkpt lat="45.39540966716593" lon="9.441764211157393"><ele>80.0</ele><time>2026-04-06T07:29:44Z</time></trkpt><trkpt lat="45.39527443780037" lon="9.441800842578674"><ele>80.0</ele><time>2026-04-06T07:29:45Z</time></trkpt><trkpt lat="45.39513981308975" lon="9.441840756979612"><ele>79.75</ele><time>2026-04-06T07:29:46Z</time></trkpt><trkpt lat="45.39500948379688" lon="9.441875073698759"><ele>79.5</ele><time>2026-04-06T07:29:47Z</time></trkpt><trkpt lat="45.39487369692874" lon="9.441906262239907"><ele>79.25</ele><time>2026-04-06T07:29:48Z</time></trkpt><trkpt lat="45.394728916546775" lon="9.44194210591788"><ele>79.0</ele><time>2026-04-06T07:29:49Z</time></trkpt><trkpt lat="45.3945827507639" lon="9.441970303399117"><ele>79.5</ele><time>2026-04-06T07:29:50Z</time></trkpt><trkpt lat="45.39443863218119" lon="9.441990279454233"><ele>80.0</ele><time>2026-04-06T07:29:51Z</time></trkpt><trkpt lat="45.39428173979774" lon="9.441988931224463"><ele>80.5</ele><time>2026-04-06T07:29:52Z</time></trkpt><trkpt lat="45.39414934328371" lon="9.442002441355394"><ele>81.0</ele><time>2026-04-06T07:29:53Z</time></trkpt><trkpt lat="45.39404372353134" lon="9.442038022479862"><ele>81.0</ele><time>2026-04-06T07:29:54Z</time></trkpt><trkpt lat="45.393933311993926" lon="9.442063497498994"><ele>81.0</ele><time>2026-04-06T07:29:55Z</time></trkpt><trkpt lat="45.39381747997618" lon="9.442090844714425"><ele>81.0</ele><time>2026-04-06T07:29:56Z</time></trkpt><trkpt lat="45.39369181606669" lon="9.442126378766606"><ele>81.0</ele><time>2026-04-06T07:29:57Z</time></trkpt><trkpt lat="45.393561527307654" lon="9.442153829087239"><ele>80.25</ele><time>2026-04-06T07:29:58Z</time></trkpt><trkpt lat="45.393433305189845" lon="9.442189210344493"><ele>79.5</ele><time>2026-04-06T07:29:59Z</time></trkpt><trkpt lat="45.39330774660769" lon="9.442218310026574"><ele>78.75</ele><time>2026-04-06T07:30:00Z</time></trkpt><trkpt lat="45.39319070992445" lon="9.442239945376768"><ele>78.0</ele><time>2026-04-06T07:30:01Z</time></trkpt><trkpt lat="45.39306413679437" lon="9.442272520419241"><ele>78.0</ele><time>2026-04-06T07:30:02Z</time></trkpt><trkpt lat="45.39292907492055" lon="9.442312316597503"><ele>78.0</ele><time>2026-04-06T07:30:03Z</time></trkpt><trkpt lat="45.392787190729514" lon="9.442351682582101"><ele>78.0</ele><time>2026-04-06T07:30:04Z</time></trkpt><trkpt lat="45.392650858996895" lon="9.442390499736028"><ele>78.0</ele><time>2026-04-06T07:30:05Z</time></trkpt><trkpt lat="45.39249723084963" lon="9.442429523416557"><ele>78.0</ele><time>2026-04-06T07:30:06Z</time></trkpt><trkpt lat="45.392351738862864" lon="9.442447636720287"><ele>78.0</ele><time>2026-04-06T07:30:07Z</time></trkpt><trkpt lat="45.3922195463653" lon="9.442476862219433"><ele>78.0</ele><time>2026-04-06T07:30:08Z</time></trkpt><trkpt lat="45.39209002965103" lon="9.442503962927526"><ele>78.0</ele><time>2026-04-06T07:30:09Z</time></trkpt><trkpt lat="45.391953903087625" lon="9.442556239619805"><ele>77.75</ele><time>2026-04-06T07:30:10Z</time></trkpt><trkpt lat="45.39182337048867" lon="9.44258169662225"><ele>77.5</ele><time>2026-04-06T07:30:11Z</time></trkpt><trkpt lat="45.3916852216894" lon="9.442613993327296"><ele>77.25</ele><time>2026-04-06T07:30:12Z</time></trkpt><trkpt lat="45.391553931436846" lon="9.442660505890482"><ele>77.0</ele><time>2026-04-06T07:30:13Z</time></trkpt><trkpt lat="45.391432078488556" lon="9.442677807439889"><ele>77.0</ele><time>2026-04-06T07:30:14Z</time></trkpt><trkpt lat="45.39132104693345" lon="9.442705550554441"><ele>77.0</ele><time>2026-04-06T07:30:15Z</time></trkpt><trkpt lat="45.39121573950854" lon="9.442731863406394"><ele>77.0</ele><time>2026-04-06T07:30:16Z</time></trkpt><trkpt lat="45.39110160769511" lon="9.442760186206703"><ele>77.0</ele><time>2026-04-06T07:30:17Z</time></trkpt><trkpt lat="45.39099137958252" lon="9.44278652591668"><ele>77.0</ele><time>2026-04-06T07:30:18Z</time></trkpt><trkpt lat="45.39087847736527" lon="9.44281350461094"><ele>77.0</ele><time>2026-04-06T07:30:19Z</time></trkpt><trkpt lat="45.390776900154265" lon="9.442837777089332"><ele>77.0</ele><time>2026-04-06T07:30:20Z</time></trkpt><trkpt lat="45.39069280306241" lon="9.442858643790906"><ele>77.0</ele><time>2026-04-06T07:30:21Z</time></trkpt><trkpt lat="45.390633497704805" lon="9.442889154714244"><ele>77.0</ele><time>2026-04-06T07:30:22Z</time></trkpt><trkpt lat="45.39054060054268" lon="9.44289987572108"><ele>77.0</ele><time>2026-04-06T07:30:24Z</time></trkpt><trkpt lat="45.39048208269766" lon="9.442935334196159"><ele>77.0</ele><time>2026-04-06T07:30:26Z</time></trkpt><trkpt lat="45.39046163178527" lon="9.443095163809271"><ele>77.0</ele><time>2026-04-06T07:30:28Z</time></trkpt><trkpt lat="45.39048991013924" lon="9.443213431674904"><ele>77.0</ele><time>2026-04-06T07:30:29Z</time></trkpt><trkpt lat="45.390516820153984" lon="9.443347774736234"><ele>77.0</ele><time>2026-04-06T07:30:30Z</time></trkpt><trkpt lat="45.39054959123435" lon="9.443486029123942"><ele>77.0</ele><time>2026-04-06T07:30:31Z</time></trkpt><trkpt lat="45.39058919629476" lon="9.443649171140256"><ele>77.0</ele><time>2026-04-06T07:30:32Z</time></trkpt><trkpt lat="45.390625698165124" lon="9.443835113128541"><ele>77.25</ele><time>2026-04-06T07:30:33Z</time></trkpt><trkpt lat="45.39065890264288" lon="9.444027789582252"><ele>77.5</ele><time>2026-04-06T07:30:34Z</time></trkpt><trkpt lat="45.390694825520654" lon="9.444218526378265"><ele>77.75</ele><time>2026-04-06T07:30:35Z</time></trkpt><trkpt lat="45.39073958735987" lon="9.444418420756955"><ele>78.0</ele><time>2026-04-06T07:30:36Z</time></trkpt><trkpt lat="45.39077506520213" lon="9.444610759199309"><ele>77.75</ele><time>2026-04-06T07:30:37Z</time></trkpt><trkpt lat="45.390814803042936" lon="9.444815179462593"><ele>77.5</ele><time>2026-04-06T07:30:38Z</time></trkpt><trkpt lat="45.390855012478085" lon="9.445006448343992"><ele>77.25</ele><time>2026-04-06T07:30:39Z</time></trkpt><trkpt lat="45.3908971395279" lon="9.445199168382873"><ele>77.0</ele><time>2026-04-06T07:30:40Z</time></trkpt><trkpt lat="45.390932178103" lon="9.44538946950519"><ele>77.0</ele><time>2026-04-06T07:30:41Z</time></trkpt><trkpt lat="45.39096957047146" lon="9.445558710222814"><ele>77.0</ele><time>2026-04-06T07:30:42Z</time></trkpt><trkpt lat="45.39099748513076" lon="9.445708537717152"><ele>77.0</ele><time>2026-04-06T07:30:43Z</time></trkpt><trkpt lat="45.391022215241215" lon="9.445854622469534"><ele>77.0</ele><time>2026-04-06T07:30:44Z</time></trkpt><trkpt lat="45.391050932295855" lon="9.446009935052897"><ele>77.0</ele><time>2026-04-06T07:30:45Z</time></trkpt><trkpt lat="45.39108618118228" lon="9.446178803808774"><ele>77.0</ele><time>2026-04-06T07:30:46Z</time></trkpt><trkpt lat="45.391119382482785" lon="9.446357735831661"><ele>77.0</ele><time>2026-04-06T07:30:47Z</time></trkpt><trkpt lat="45.39114991669529" lon="9.446521994829041"><ele>77.0</ele><time>2026-04-06T07:30:48Z</time></trkpt><trkpt lat="45.39117542493576" lon="9.44666410770643"><ele>77.0</ele><time>2026-04-06T07:30:49Z</time></trkpt><trkpt lat="45.391206704383734" lon="9.44683046403847"><ele>77.0</ele><time>2026-04-06T07:30:50Z</time></trkpt><trkpt lat="45.39124969492096" lon="9.44701940742052"><ele>77.0</ele><time>2026-04-06T07:30:51Z</time></trkpt><trkpt lat="45.391287327722765" lon="9.447203865322658"><ele>77.0</ele><time>2026-04-06T07:30:52Z</time></trkpt><trkpt lat="45.39131687735032" lon="9.447371498705943"><ele>77.2</ele><time>2026-04-06T07:30:53Z</time></trkpt><trkpt lat="45.391342996128124" lon="9.447527575427097"><ele>77.4</ele><time>2026-04-06T07:30:54Z</time></trkpt><trkpt lat="45.391374898686486" lon="9.44767710128856"><ele>77.6</ele><time>2026-04-06T07:30:55Z</time></trkpt><trkpt lat="45.391400211529245" lon="9.447799579518987"><ele>77.8</ele><time>2026-04-06T07:30:56Z</time></trkpt><trkpt lat="45.3914311579626" lon="9.4479074185425"><ele>78.0</ele><time>2026-04-06T07:30:57Z</time></trkpt><trkpt lat="45.39147259208565" lon="9.44805078398889"><ele>78.0</ele><time>2026-04-06T07:30:59Z</time></trkpt><trkpt lat="45.391495994094235" lon="9.448188636261047"><ele>78.0</ele><time>2026-04-06T07:31:01Z</time></trkpt><trkpt lat="45.3914172696997" lon="9.44830254005711"><ele>78.0</ele><time>2026-04-06T07:31:03Z</time></trkpt><trkpt lat="45.39132591849164" lon="9.448311128729781"><ele>78.0</ele><time>2026-04-06T07:31:04Z</time></trkpt><trkpt lat="45.39121349982839" lon="9.448338561846978"><ele>78.0</ele><time>2026-04-06T07:31:05Z</time></trkpt><trkpt lat="45.39109128612613" lon="9.448389596274815"><ele>77.75</ele><time>2026-04-06T07:31:06Z</time></trkpt><trkpt lat="45.39096955814197" lon="9.44847565143111"><ele>77.5</ele><time>2026-04-06T07:31:07Z</time></trkpt><trkpt lat="45.390821760795895" lon="9.448528071502778"><ele>77.25</ele><time>2026-04-06T07:31:08Z</time></trkpt><trkpt lat="45.390690729499504" lon="9.448582819654842"><ele>77.0</ele><time>2026-04-06T07:31:09Z</time></trkpt><trkpt lat="45.39055232980564" lon="9.448633997051502"><ele>77.6</ele><time>2026-04-06T07:31:10Z</time></trkpt><trkpt lat="45.39044160966041" lon="9.448675172784023"><ele>78.2</ele><time>2026-04-06T07:31:11Z</time></trkpt><trkpt lat="45.39037079477921" lon="9.448750044389211"><ele>78.8</ele><time>2026-04-06T07:31:12Z</time></trkpt><trkpt lat="45.39027996741433" lon="9.44885354850555"><ele>79.4</ele><time>2026-04-06T07:31:14Z</time></trkpt><trkpt lat="45.390254843416784" lon="9.4490092149386"><ele>80.0</ele><time>2026-04-06T07:31:16Z</time></trkpt><trkpt lat="45.39025025984325" lon="9.449135771348091"><ele>80.8</ele><time>2026-04-06T07:31:18Z</time></trkpt><trkpt lat="45.39024834724821" lon="9.44924129019465"><ele>81.6</ele><time>2026-04-06T07:31:21Z</time></trkpt><trkpt lat="45.390252183552235" lon="9.449341978621899"><ele>82.4</ele><time>2026-04-06T07:32:01Z</time></trkpt><trkpt lat="45.39024885933792" lon="9.44948206660025"><ele>83.2</ele><time>2026-04-06T07:32:02Z</time></trkpt><trkpt lat="45.39024588095042" lon="9.449614555000025"><ele>84.0</ele><time>2026-04-06T07:32:03Z</time></trkpt><trkpt lat="45.390240740545984" lon="9.44981211618182"><ele>84.33333333333333</ele><time>2026-04-06T07:32:04Z</time></trkpt><trkpt lat="45.39023644335347" lon="9.450029618975682"><ele>84.66666666666666</ele><time>2026-04-06T07:32:05Z</time></trkpt><trkpt lat="45.39023285098837" lon="9.450251418941555"><ele>85.0</ele><time>2026-04-06T07:32:06Z</time></trkpt><trkpt lat="45.3902267096152" lon="9.450474400081067"><ele>85.2</ele><time>2026-04-06T07:32:07Z</time></trkpt><trkpt lat="45.390225481548896" lon="9.450613472027525"><ele>85.4</ele><time>2026-04-06T07:32:08Z</time></trkpt><trkpt lat="45.390222250180614" lon="9.450706708646921"><ele>85.6</ele><time>2026-04-06T07:32:09Z</time></trkpt><trkpt lat="45.39025759033646" lon="9.450852758032338"><ele>85.8</ele><time>2026-04-06T07:32:11Z</time></trkpt><trkpt lat="45.39030976764167" lon="9.450966035930065"><ele>86.0</ele><time>2026-04-06T07:32:13Z</time></trkpt><trkpt lat="45.390348577705176" lon="9.451084083512775"><ele>86.0</ele><time>2026-04-06T07:32:15Z</time></trkpt><trkpt lat="45.390362252586065" lon="9.451224359122628"><ele>86.0</ele><time>2026-04-06T07:32:17Z</time></trkpt><trkpt lat="45.39036560098266" lon="9.4513924481546"><ele>86.0</ele><time>2026-04-06T07:32:19Z</time></trkpt><trkpt lat="45.39036262982094" lon="9.451490782836904"><ele>86.0</ele><time>2026-04-06T07:32:21Z</time></trkpt><trkpt lat="45.39024268686199" lon="9.451475001075432"><ele>86.0</ele><time>2026-04-06T07:32:35Z</time></trkpt><trkpt lat="45.3901743023156" lon="9.451469174180897"><ele>86.0</ele><time>2026-04-06T07:32:36Z</time></trkpt><trkpt lat="45.39010948036743" lon="9.451483320526295"><ele>86.0</ele><time>2026-04-06T07:32:37Z</time></trkpt><trkpt lat="45.39003202566835" lon="9.451556319969907"><ele>86.0</ele><time>2026-04-06T07:32:39Z</time></trkpt><trkpt lat="45.39000140137385" lon="9.451663012390997"><ele>86.0</ele><time>2026-04-06T07:32:40Z</time></trkpt><trkpt lat="45.389973328979224" lon="9.451747975404242"><ele>86.0</ele><time>2026-04-06T07:32:41Z</time></trkpt><trkpt lat="45.3899033910776" lon="9.451810266604488"><ele>86.0</ele><time>2026-04-06T07:32:43Z</time></trkpt><trkpt lat="45.38980273473954" lon="9.451904631481787"><ele>86.0</ele><time>2026-04-06T07:32:45Z</time></trkpt><trkpt lat="45.38971645707557" lon="9.45191288319666"><ele>86.0</ele><time>2026-04-06T07:32:46Z</time></trkpt><trkpt lat="45.389602955990505" lon="9.451948610346717"><ele>86.0</ele><time>2026-04-06T07:32:48Z</time></trkpt><trkpt lat="45.38952270250693" lon="9.451974361043677"><ele>86.0</ele><time>2026-04-06T07:32:49.999Z</time></trkpt><trkpt lat="45.38964883612583" lon="9.45193388959083"><ele>86.0</ele><time>2026-04-06T07:32:58.999Z</time></trkpt><trkpt lat="45.389727692033084" lon="9.45192193433906"><ele>86.0</ele><time>2026-04-06T07:32:59.999Z</time></trkpt><trkpt lat="45.389810920370024" lon="9.45188331030391"><ele>86.0</ele><time>2026-04-06T07:33:00.999Z</time></trkpt><trkpt lat="45.38988049728844" lon="9.451856486519928"><ele>86.0</ele><time>2026-04-06T07:33:01.999Z</time></trkpt><trkpt lat="45.38998548518501" lon="9.45172931109503"><ele>86.0</ele><time>2026-04-06T07:33:03.999Z</time></trkpt><trkpt lat="45.3900369636621" lon="9.451606626754739"><ele>86.0</ele><time>2026-04-06T07:33:04.999Z</time></trkpt><trkpt lat="45.39006254286595" lon="9.451509097515128"><ele>86.0</ele><time>2026-04-06T07:33:07Z</time></trkpt><trkpt lat="45.39026128026583" lon="9.451554111078135"><ele>86.0</ele><time>2026-04-06T07:33:11Z</time></trkpt><trkpt lat="45.39033995178285" lon="9.451498883293855"><ele>86.0</ele><time>2026-04-06T07:33:14Z</time></trkpt><trkpt lat="45.39036349903988" lon="9.451343995673428"><ele>86.0</ele><time>2026-04-06T07:33:16Z</time></trkpt><trkpt lat="45.390390908774876" lon="9.451213922403989"><ele>86.0</ele><time>2026-04-06T07:33:17Z</time></trkpt><trkpt lat="45.39037195379656" lon="9.451050389877777"><ele>86.0</ele><time>2026-04-06T07:33:18Z</time></trkpt><trkpt lat="45.390322429426284" lon="9.450875587114645"><ele>86.0</ele><time>2026-04-06T07:33:19Z</time></trkpt><trkpt lat="45.39028961357408" lon="9.450711164139625"><ele>86.0</ele><time>2026-04-06T07:33:20Z</time></trkpt><trkpt lat="45.39027334757512" lon="9.45057666072938"><ele>86.0</ele><time>2026-04-06T07:33:21Z</time></trkpt><trkpt lat="45.39026805461809" lon="9.450458577009814"><ele>86.0</ele><time>2026-04-06T07:33:22Z</time></trkpt><trkpt lat="45.3902686181641" lon="9.450345885442191"><ele>86.0</ele><time>2026-04-06T07:33:23Z</time></trkpt><trkpt lat="45.39027092257543" lon="9.450241180986296"><ele>86.0</ele><time>2026-04-06T07:33:24Z</time></trkpt><trkpt lat="45.39026757979607" lon="9.4503726267006"><ele>86.0</ele><time>2026-04-06T07:33:36Z</time></trkpt><trkpt lat="45.39023391170467" lon="9.450503127101879"><ele>86.0</ele><time>2026-04-06T07:33:38Z</time></trkpt><trkpt lat="45.39023171412559" lon="9.450628841611515"><ele>86.0</ele><time>2026-04-06T07:33:40Z</time></trkpt><trkpt lat="45.390242804792464" lon="9.450738411566753"><ele>86.0</ele><time>2026-04-06T07:33:42Z</time></trkpt><trkpt lat="45.39028627835275" lon="9.450885467827186"><ele>86.0</ele><time>2026-04-06T07:33:44Z</time></trkpt><trkpt lat="45.39032616316484" lon="9.450986050995029"><ele>86.0</ele><time>2026-04-06T07:33:46Z</time></trkpt><trkpt lat="45.39035476244057" lon="9.451111849037039"><ele>86.0</ele><time>2026-04-06T07:33:48Z</time></trkpt><trkpt lat="45.39035632952667" lon="9.451282547017104"><ele>86.0</ele><time>2026-04-06T07:33:50Z</time></trkpt><trkpt lat="45.390374900006805" lon="9.451424226077396"><ele>86.0</ele><time>2026-04-06T07:33:52Z</time></trkpt><trkpt lat="45.39033294106116" lon="9.451507438827448"><ele>86.0</ele><time>2026-04-06T07:33:54Z</time></trkpt><trkpt lat="45.390233732970245" lon="9.451543055594286"><ele>86.0</ele><time>2026-04-06T07:33:56Z</time></trkpt><trkpt lat="45.39013826807293" lon="9.45151109693793"><ele>86.0</ele><time>2026-04-06T07:33:58Z</time></trkpt><trkpt lat="45.39003757410763" lon="9.451571445459864"><ele>86.0</ele><time>2026-04-06T07:34:00Z</time></trkpt><trkpt lat="45.38999333381315" lon="9.451654861656138"><ele>86.0</ele><time>2026-04-06T07:34:01Z</time></trkpt><trkpt lat="45.38996513491749" lon="9.451751287856238"><ele>86.0</ele><time>2026-04-06T07:34:02Z</time></trkpt><trkpt lat="45.389848160354816" lon="9.45188051917275"><ele>86.0</ele><time>2026-04-06T07:34:04Z</time></trkpt><trkpt lat="45.389730099949645" lon="9.45194560083557"><ele>86.0</ele><time>2026-04-06T07:34:05Z</time></trkpt><trkpt lat="45.389601942480844" lon="9.45198296704699"><ele>86.0</ele><time>2026-04-06T07:34:06Z</time></trkpt><trkpt lat="45.38951478815686" lon="9.452010312690291"><ele>86.0</ele><time>2026-04-06T07:34:07Z</time></trkpt><trkpt lat="45.389378428645344" lon="9.452046223725299"><ele>86.0</ele><time>2026-04-06T07:34:08Z</time></trkpt><trkpt lat="45.38925112224315" lon="9.452086815337198"><ele>86.0</ele><time>2026-04-06T07:34:09Z</time></trkpt><trkpt lat="45.38914180496703" lon="9.452119118595512"><ele>85.6</ele><time>2026-04-06T07:34:10Z</time></trkpt><trkpt lat="45.3890462470427" lon="9.452163216741672"><ele>85.19999999999999</ele><time>2026-04-06T07:34:11Z</time></trkpt><trkpt lat="45.3889475827877" lon="9.452167012287164"><ele>84.80000000000001</ele><time>2026-04-06T07:34:12Z</time></trkpt><trkpt lat="45.38885615484587" lon="9.452171101250963"><ele>84.4</ele><time>2026-04-06T07:34:13Z</time></trkpt><trkpt lat="45.38874745582699" lon="9.45217873719976"><ele>84.0</ele><time>2026-04-06T07:34:14Z</time></trkpt><trkpt lat="45.38862012763084" lon="9.452189688408186"><ele>83.80000000000001</ele><time>2026-04-06T07:34:15Z</time></trkpt><trkpt lat="45.3885055287121" lon="9.452197131435844"><ele>83.60000000000001</ele><time>2026-04-06T07:34:16Z</time></trkpt><trkpt lat="45.38841143708162" lon="9.452197713280182"><ele>83.4</ele><time>2026-04-06T07:34:17Z</time></trkpt><trkpt lat="45.38832262775306" lon="9.452184987572176"><ele>83.2</ele><time>2026-04-06T07:34:18Z</time></trkpt><trkpt lat="45.388223202220004" lon="9.452159127049356"><ele>83.0</ele><time>2026-04-06T07:34:19Z</time></trkpt><trkpt lat="45.38813115498301" lon="9.452136028282684"><ele>83.16666666666667</ele><time>2026-04-06T07:34:20Z</time></trkpt><trkpt lat="45.38804650709728" lon="9.452118333037054"><ele>83.33333333333334</ele><time>2026-04-06T07:34:23Z</time></trkpt><trkpt lat="45.38793796573504" lon="9.452138322208699"><ele>83.5</ele><time>2026-04-06T07:34:25Z</time></trkpt><trkpt lat="45.38786457380928" lon="9.452183356286895"><ele>83.66666666666667</ele><time>2026-04-06T07:34:26Z</time></trkpt><trkpt lat="45.387829573551585" lon="9.452299627535666"><ele>83.83333333333333</ele><time>2026-04-06T07:34:27Z</time></trkpt><trkpt lat="45.387788071313516" lon="9.452384441035944"><ele>84.0</ele><time>2026-04-06T07:34:28Z</time></trkpt><trkpt lat="45.387748994159224" lon="9.452509520349269"><ele>84.0</ele><time>2026-04-06T07:34:29Z</time></trkpt><trkpt lat="45.38772027666874" lon="9.452648829598854"><ele>84.0</ele><time>2026-04-06T07:34:30Z</time></trkpt><trkpt lat="45.38769555817666" lon="9.452782053255355"><ele>84.0</ele><time>2026-04-06T07:34:31Z</time></trkpt><trkpt lat="45.3876683273694" lon="9.45290861278751"><ele>84.0</ele><time>2026-04-06T07:34:32Z</time></trkpt><trkpt lat="45.387633251168715" lon="9.453023754334192"><ele>84.0</ele><time>2026-04-06T07:34:33Z</time></trkpt><trkpt lat="45.38759436651781" lon="9.453120324795595"><ele>84.0</ele><time>2026-04-06T07:34:34Z</time></trkpt><trkpt lat="45.3875251673721" lon="9.45316716169745"><ele>84.0</ele><time>2026-04-06T07:34:35Z</time></trkpt><trkpt lat="45.38745468425365" lon="9.453257007197776"><ele>84.0</ele><time>2026-04-06T07:34:35.999Z</time></trkpt><trkpt lat="45.387351875071" lon="9.453326131199464"><ele>84.0</ele><time>2026-04-06T07:34:36.999Z</time></trkpt><trkpt lat="45.38726076180324" lon="9.453406657863313"><ele>84.0</ele><time>2026-04-06T07:34:37.999Z</time></trkpt><trkpt lat="45.38718125766577" lon="9.453432038471881"><ele>83.66666666666667</ele><time>2026-04-06T07:34:38.999Z</time></trkpt><trkpt lat="45.38710494229972" lon="9.453438129640606"><ele>83.33333333333333</ele><time>2026-04-06T07:34:40.999Z</time></trkpt><trkpt lat="45.38704565048534" lon="9.453345070251233"><ele>83.0</ele><time>2026-04-06T07:34:42.999Z</time></trkpt><trkpt lat="45.38694150217154" lon="9.453269048431478"><ele>82.66666666666666</ele><time>2026-04-06T07:34:44.999Z</time></trkpt><trkpt lat="45.386878501898494" lon="9.453222179256727"><ele>82.33333333333333</ele><time>2026-04-06T07:34:45.999Z</time></trkpt><trkpt lat="45.38681900337849" lon="9.453177915109341"><ele>82.0</ele><time>2026-04-06T07:34:46.999Z</time></trkpt><trkpt lat="45.386693966836916" lon="9.453110703046718"><ele>81.99999999999999</ele><time>2026-04-06T07:34:48.999Z</time></trkpt><trkpt lat="45.386614460387555" lon="9.453078184912401"><ele>82.0</ele><time>2026-04-06T07:34:49.999Z</time></trkpt><trkpt lat="45.38653704549674" lon="9.453067581803497"><ele>82.0</ele><time>2026-04-06T07:34:50.999Z</time></trkpt><trkpt lat="45.38647049851149" lon="9.453049776232891"><ele>82.0</ele><time>2026-04-06T07:34:51.999Z</time></trkpt><trkpt lat="45.386391679637526" lon="9.453073296524831"><ele>82.0</ele><time>2026-04-06T07:34:52.999Z</time></trkpt><trkpt lat="45.386329251370874" lon="9.453095611397039"><ele>81.99999999999999</ele><time>2026-04-06T07:34:53.999Z</time></trkpt><trkpt lat="45.38626886732908" lon="9.453133226018311"><ele>82.0</ele><time>2026-04-06T07:34:55.999Z</time></trkpt><trkpt lat="45.38626616233869" lon="9.453282868057903"><ele>82.0</ele><time>2026-04-06T07:35:17Z</time></trkpt><trkpt lat="45.386312247041595" lon="9.453377382905202"><ele>82.0</ele><time>2026-04-06T07:35:18Z</time></trkpt><trkpt lat="45.38634140027084" lon="9.453506333175692"><ele>82.0</ele><time>2026-04-06T07:35:19Z</time></trkpt><trkpt lat="45.3864006707644" lon="9.453631882067269"><ele>82.0</ele><time>2026-04-06T07:35:20Z</time></trkpt><trkpt lat="45.38643112951542" lon="9.45373019784376"><ele>82.0</ele><time>2026-04-06T07:35:21Z</time></trkpt><trkpt lat="45.38645012910335" lon="9.453900019954137"><ele>82.0</ele><time>2026-04-06T07:35:23Z</time></trkpt><trkpt lat="45.38648288412215" lon="9.454018441866419"><ele>82.0</ele><time>2026-04-06T07:35:25Z</time></trkpt><trkpt lat="45.3863433115051" lon="9.45416877114111"><ele>82.0</ele><time>2026-04-06T07:35:26Z</time></trkpt><trkpt lat="45.38625570819613" lon="9.454286717341573"><ele>82.0</ele><time>2026-04-06T07:35:27Z</time></trkpt><trkpt lat="45.386166850615325" lon="9.454423227826844"><ele>82.0</ele><time>2026-04-06T07:35:28Z</time></trkpt><trkpt lat="45.38608654285175" lon="9.454549050466648"><ele>82.0</ele><time>2026-04-06T07:35:29Z</time></trkpt><trkpt lat="45.38600927934277" lon="9.454667713704346"><ele>82.0</ele><time>2026-04-06T07:35:30Z</time></trkpt><trkpt lat="45.385920201578735" lon="9.454803206103735"><ele>82.0</ele><time>2026-04-06T07:35:31Z</time></trkpt><trkpt lat="45.38583617804719" lon="9.454935234256872"><ele>81.75</ele><time>2026-04-06T07:35:32Z</time></trkpt><trkpt lat="45.385732690830714" lon="9.455065017869272"><ele>81.5</ele><time>2026-04-06T07:35:33Z</time></trkpt><trkpt lat="45.385645295512525" lon="9.455224712948072"><ele>81.25</ele><time>2026-04-06T07:35:34Z</time></trkpt><trkpt lat="45.38555017176096" lon="9.455370138353391"><ele>81.0</ele><time>2026-04-06T07:35:35Z</time></trkpt><trkpt lat="45.3854499762607" lon="9.455528037616315"><ele>81.0</ele><time>2026-04-06T07:35:36Z</time></trkpt><trkpt lat="45.385350506272715" lon="9.455675357140905"><ele>81.0</ele><time>2026-04-06T07:35:37Z</time></trkpt><trkpt lat="45.385262476372155" lon="9.455807934277592"><ele>81.0</ele><time>2026-04-06T07:35:38Z</time></trkpt><trkpt lat="45.385179526076946" lon="9.455945584496302"><ele>81.0</ele><time>2026-04-06T07:35:39Z</time></trkpt><trkpt lat="45.38509652179791" lon="9.456076822814767"><ele>81.0</ele><time>2026-04-06T07:35:40Z</time></trkpt><trkpt lat="45.38502029088475" lon="9.456203637832521"><ele>81.0</ele><time>2026-04-06T07:35:41Z</time></trkpt><trkpt lat="45.3849355938878" lon="9.456333555375224"><ele>81.0</ele><time>2026-04-06T07:35:42Z</time></trkpt><trkpt lat="45.38482663789134" lon="9.456457569703137"><ele>81.0</ele><time>2026-04-06T07:35:43Z</time></trkpt><trkpt lat="45.38473003378602" lon="9.456590883808182"><ele>80.83333333333333</ele><time>2026-04-06T07:35:44Z</time></trkpt><trkpt lat="45.38466786049856" lon="9.45670589359863"><ele>80.66666666666667</ele><time>2026-04-06T07:35:45Z</time></trkpt><trkpt lat="45.38461030783482" lon="9.456775242209089"><ele>80.5</ele><time>2026-04-06T07:35:46Z</time></trkpt><trkpt lat="45.384535848256604" lon="9.456873417368879"><ele>80.33333333333334</ele><time>2026-04-06T07:35:48Z</time></trkpt><trkpt lat="45.38446638830459" lon="9.456944637471077"><ele>80.16666666666667</ele><time>2026-04-06T07:36:36Z</time></trkpt><trkpt lat="45.38441556267377" lon="9.457004654206965"><ele>80.0</ele><time>2026-04-06T07:36:37Z</time></trkpt><trkpt lat="45.38436520402922" lon="9.457063806390904"><ele>79.66666666666667</ele><time>2026-04-06T07:36:38Z</time></trkpt><trkpt lat="45.38430970772395" lon="9.457156519647683"><ele>79.33333333333334</ele><time>2026-04-06T07:36:39Z</time></trkpt><trkpt lat="45.3842372913002" lon="9.457241293717672"><ele>79.0</ele><time>2026-04-06T07:36:40Z</time></trkpt><trkpt lat="45.38415142675143" lon="9.457301988007568"><ele>78.66666666666667</ele><time>2026-04-06T07:36:41Z</time></trkpt><trkpt lat="45.38407539265988" lon="9.457365331340208"><ele>78.33333333333333</ele><time>2026-04-06T07:36:42Z</time></trkpt><trkpt lat="45.384000360422014" lon="9.457410624323117"><ele>78.0</ele><time>2026-04-06T07:36:43Z</time></trkpt><trkpt lat="45.38391905853585" lon="9.457457200366946"><ele>78.6</ele><time>2026-04-06T07:36:44Z</time></trkpt><trkpt lat="45.38383341080395" lon="9.457426378239296"><ele>79.19999999999999</ele><time>2026-04-06T07:36:45Z</time></trkpt><trkpt lat="45.383759712373966" lon="9.457406357122066"><ele>79.8</ele><time>2026-04-06T07:36:46Z</time></trkpt><trkpt lat="45.383668271806044" lon="9.457394980147948"><ele>80.39999999999999</ele><time>2026-04-06T07:36:47Z</time></trkpt><trkpt lat="45.38359092436877" lon="9.457385356649047"><ele>81.0</ele><time>2026-04-06T07:36:48Z</time></trkpt><trkpt lat="45.38348374920875" lon="9.457644032608563"><ele>81.0</ele><time>2026-04-06T07:36:49Z</time></trkpt><trkpt lat="45.383402892357445" lon="9.457685843656998"><ele>81.0</ele><time>2026-04-06T07:36:49.999Z</time></trkpt><trkpt lat="45.383288760927584" lon="9.457735544084532"><ele>81.0</ele><time>2026-04-06T07:36:50.999Z</time></trkpt><trkpt lat="45.38318099121447" lon="9.457786604365667"><ele>81.0</ele><time>2026-04-06T07:36:51.999Z</time></trkpt><trkpt lat="45.38308543949858" lon="9.457833011575206"><ele>81.0</ele><time>2026-04-06T07:36:52.999Z</time></trkpt><trkpt lat="45.38298469708076" lon="9.45788197163594"><ele>81.0</ele><time>2026-04-06T07:36:53.999Z</time></trkpt><trkpt lat="45.382881202043166" lon="9.457931654104652"><ele>81.0</ele><time>2026-04-06T07:36:54.999Z</time></trkpt><trkpt lat="45.382777240923694" lon="9.457970476405784"><ele>81.0</ele><time>2026-04-06T07:36:55.999Z</time></trkpt><trkpt lat="45.3827014739838" lon="9.457995725427974"><ele>81.0</ele><time>2026-04-06T07:36:56.999Z</time></trkpt><trkpt lat="45.38263426881455" lon="9.458017676989598"><ele>81.0</ele><time>2026-04-06T07:36:57.999Z</time></trkpt><trkpt lat="45.382574160191936" lon="9.45804464242371"><ele>81.0</ele><time>2026-04-06T07:36:58.999Z</time></trkpt><trkpt lat="45.38249494176287" lon="9.45807942431533"><ele>80.6</ele><time>2026-04-06T07:36:59.999Z</time></trkpt><trkpt lat="45.38241982125119" lon="9.4581246282331"><ele>80.19999999999999</ele><time>2026-04-06T07:37:00.999Z</time></trkpt><trkpt lat="45.38232197849694" lon="9.4581941232585"><ele>79.80000000000001</ele><time>2026-04-06T07:37:01.999Z</time></trkpt><trkpt lat="45.38223097185692" lon="9.458264137505578"><ele>79.4</ele><time>2026-04-06T07:37:02.999Z</time></trkpt><trkpt lat="45.38212077106258" lon="9.458352662386085"><ele>79.0</ele><time>2026-04-06T07:37:03.999Z</time></trkpt><trkpt lat="45.38199882198208" lon="9.458444048531115"><ele>79.0</ele><time>2026-04-06T07:37:04.999Z</time></trkpt><trkpt lat="45.38188712324339" lon="9.45853099265981"><ele>79.0</ele><time>2026-04-06T07:37:05.999Z</time></trkpt><trkpt lat="45.381779692936874" lon="9.458581475623852"><ele>79.0</ele><time>2026-04-06T07:37:06.999Z</time></trkpt><trkpt lat="45.38169757773309" lon="9.458635710127066"><ele>79.0</ele><time>2026-04-06T07:37:07.999Z</time></trkpt><trkpt lat="45.381633688279464" lon="9.458686824379354"><ele>79.0</ele><time>2026-04-06T07:37:08.999Z</time></trkpt><trkpt lat="45.38155492262386" lon="9.458750786328688"><ele>78.60000000000001</ele><time>2026-04-06T07:37:09.999Z</time></trkpt><trkpt lat="45.38146167532764" lon="9.458849499720765"><ele>78.2</ele><time>2026-04-06T07:37:10.999Z</time></trkpt><trkpt lat="45.38136605639579" lon="9.458921833472626"><ele>77.80000000000001</ele><time>2026-04-06T07:37:11.999Z</time></trkpt><trkpt lat="45.38125859798179" lon="9.458988428059822"><ele>77.4</ele><time>2026-04-06T07:37:12.999Z</time></trkpt><trkpt lat="45.38117921299428" lon="9.459055319712775"><ele>77.0</ele><time>2026-04-06T07:37:13.999Z</time></trkpt><trkpt lat="45.38109501779585" lon="9.459107585285235"><ele>77.0</ele><time>2026-04-06T07:37:14.999Z</time></trkpt><trkpt lat="45.381004257495015" lon="9.459153162541519"><ele>77.0</ele><time>2026-04-06T07:37:15.999Z</time></trkpt><trkpt lat="45.380915359509586" lon="9.459180047482617"><ele>77.0</ele><time>2026-04-06T07:37:17Z</time></trkpt><trkpt lat="45.38080237449423" lon="9.459225827008765"><ele>77.0</ele><time>2026-04-06T07:37:18Z</time></trkpt><trkpt lat="45.38070770963624" lon="9.459236037695012"><ele>77.0</ele><time>2026-04-06T07:37:19Z</time></trkpt><trkpt lat="45.380587687750364" lon="9.459242646606148"><ele>76.8</ele><time>2026-04-06T07:37:20Z</time></trkpt><trkpt lat="45.38047537099436" lon="9.459254014873693"><ele>76.6</ele><time>2026-04-06T07:37:21Z</time></trkpt><trkpt lat="45.38035139437749" lon="9.459293625772807"><ele>76.39999999999999</ele><time>2026-04-06T07:37:22Z</time></trkpt><trkpt lat="45.38023737771846" lon="9.459337127127057"><ele>76.2</ele><time>2026-04-06T07:37:23Z</time></trkpt><trkpt lat="45.38015506299719" lon="9.45936743448621"><ele>76.0</ele><time>2026-04-06T07:37:24Z</time></trkpt><trkpt lat="45.38007677995941" lon="9.459394029711868"><ele>76.0</ele><time>2026-04-06T07:37:25Z</time></trkpt><trkpt lat="45.380014225711214" lon="9.459407902904282"><ele>76.0</ele><time>2026-04-06T07:37:26Z</time></trkpt><trkpt lat="45.379939215545726" lon="9.459425931359048"><ele>76.0</ele><time>2026-04-06T07:37:27Z</time></trkpt><trkpt lat="45.37987296110535" lon="9.45943524105516"><ele>76.0</ele><time>2026-04-06T07:37:28Z</time></trkpt><trkpt lat="45.379807431397396" lon="9.459431737586918"><ele>76.0</ele><time>2026-04-06T07:37:29Z</time></trkpt><trkpt lat="45.379720957298964" lon="9.459396946576906"><ele>76.0</ele><time>2026-04-06T07:37:30Z</time></trkpt><trkpt lat="45.37963565437062" lon="9.459327778801903"><ele>76.5</ele><time>2026-04-06T07:37:31Z</time></trkpt><trkpt lat="45.379543398558766" lon="9.459230746000216"><ele>77.0</ele><time>2026-04-06T07:37:32Z</time></trkpt><trkpt lat="45.37945430859308" lon="9.459126166544221"><ele>77.5</ele><time>2026-04-06T07:37:33Z</time></trkpt><trkpt lat="45.37933090277523" lon="9.458999925791161"><ele>78.0</ele><time>2026-04-06T07:37:34Z</time></trkpt><trkpt lat="45.37920627304765" lon="9.458872030406457"><ele>78.0</ele><time>2026-04-06T07:37:35Z</time></trkpt><trkpt lat="45.37909625513402" lon="9.458754709732666"><ele>78.0</ele><time>2026-04-06T07:37:36Z</time></trkpt><trkpt lat="45.37900245907756" lon="9.45865714768291"><ele>78.0</ele><time>2026-04-06T07:37:37Z</time></trkpt><trkpt lat="45.3789112814316" lon="9.458558604828115"><ele>78.0</ele><time>2026-04-06T07:37:38Z</time></trkpt><trkpt lat="45.37881810749987" lon="9.458461531829464"><ele>78.5</ele><time>2026-04-06T07:37:39Z</time></trkpt><trkpt lat="45.37872560749254" lon="9.458361907918114"><ele>79.0</ele><time>2026-04-06T07:37:40Z</time></trkpt><trkpt lat="45.37861546091335" lon="9.45825540882602"><ele>79.5</ele><time>2026-04-06T07:37:41Z</time></trkpt><trkpt lat="45.37851932914633" lon="9.458163584517054"><ele>80.0</ele><time>2026-04-06T07:37:42Z</time></trkpt><trkpt lat="45.37844377966675" lon="9.458079501026067"><ele>80.0</ele><time>2026-04-06T07:37:43Z</time></trkpt><trkpt lat="45.37838807981095" lon="9.458017389701167"><ele>80.0</ele><time>2026-04-06T07:37:44Z</time></trkpt><trkpt lat="45.37834508945247" lon="9.457919157449714"><ele>80.0</ele><time>2026-04-06T07:37:47Z</time></trkpt><trkpt lat="45.37829941276645" lon="9.457852534098507"><ele>80.0</ele><time>2026-04-06T07:38:00Z</time></trkpt><trkpt lat="45.378376384498075" lon="9.457835845069162"><ele>80.0</ele><time>2026-04-06T07:38:21Z</time></trkpt><trkpt lat="45.37847282209246" lon="9.457736442780252"><ele>80.0</ele><time>2026-04-06T07:38:23Z</time></trkpt><trkpt lat="45.378574425782226" lon="9.457702897213041"><ele>79.4</ele><time>2026-04-06T07:38:24Z</time></trkpt><trkpt lat="45.37867755519386" lon="9.45767335627296"><ele>78.8</ele><time>2026-04-06T07:38:25Z</time></trkpt><trkpt lat="45.378784285340885" lon="9.457632619525059"><ele>78.2</ele><time>2026-04-06T07:38:26Z</time></trkpt><trkpt lat="45.37888004604009" lon="9.457604197050944"><ele>77.6</ele><time>2026-04-06T07:38:27Z</time></trkpt><trkpt lat="45.378983418339544" lon="9.457599924966114"><ele>77.0</ele><time>2026-04-06T07:38:28Z</time></trkpt><trkpt lat="45.37909116414055" lon="9.457621086399145"><ele>76.75</ele><time>2026-04-06T07:38:29Z</time></trkpt><trkpt lat="45.379184284200036" lon="9.457640572964566"><ele>76.5</ele><time>2026-04-06T07:38:30Z</time></trkpt><trkpt lat="45.379295511578945" lon="9.457655295848843"><ele>76.25</ele><time>2026-04-06T07:38:31Z</time></trkpt><trkpt lat="45.379423431576576" lon="9.45766570525862"><ele>76.0</ele><time>2026-04-06T07:38:32Z</time></trkpt><trkpt lat="45.37955136430173" lon="9.457669033705347"><ele>76.0</ele><time>2026-04-06T07:38:33Z</time></trkpt><trkpt lat="45.379673445408265" lon="9.457670777940969"><ele>76.0</ele><time>2026-04-06T07:38:34Z</time></trkpt><trkpt lat="45.379788917692956" lon="9.457675883665475"><ele>76.0</ele><time>2026-04-06T07:38:35Z</time></trkpt><trkpt lat="45.37990417141813" lon="9.457679325015983"><ele>76.0</ele><time>2026-04-06T07:38:36Z</time></trkpt><trkpt lat="45.38000386736046" lon="9.457667962052673"><ele>76.33333333333333</ele><time>2026-04-06T07:38:37Z</time></trkpt><trkpt lat="45.38010926095331" lon="9.457628476315309"><ele>76.66666666666666</ele><time>2026-04-06T07:38:38Z</time></trkpt><trkpt lat="45.38019295663052" lon="9.45758594784284"><ele>77.0</ele><time>2026-04-06T07:38:39Z</time></trkpt><trkpt lat="45.38027845620687" lon="9.45752264391522"><ele>77.33333333333333</ele><time>2026-04-06T07:38:40Z</time></trkpt><trkpt lat="45.38034105974591" lon="9.45746344807526"><ele>77.66666666666667</ele><time>2026-04-06T07:38:41Z</time></trkpt><trkpt lat="45.38040424497008" lon="9.457417076396416"><ele>78.0</ele><time>2026-04-06T07:38:42Z</time></trkpt><trkpt lat="45.38046703541902" lon="9.457372806529417"><ele>78.2</ele><time>2026-04-06T07:38:43Z</time></trkpt><trkpt lat="45.380524117441986" lon="9.457326877314932"><ele>78.4</ele><time>2026-04-06T07:38:44Z</time></trkpt><trkpt lat="45.380622438904005" lon="9.457230318111964"><ele>78.60000000000001</ele><time>2026-04-06T07:38:46Z</time></trkpt><trkpt lat="45.380693062787344" lon="9.457136319999112"><ele>78.8</ele><time>2026-04-06T07:38:48Z</time></trkpt><trkpt lat="45.38079359382346" lon="9.457060298899629"><ele>79.0</ele><time>2026-04-06T07:38:50Z</time></trkpt><trkpt lat="45.38086206659684" lon="9.456979002218581"><ele>78.5</ele><time>2026-04-06T07:38:53Z</time></trkpt><trkpt lat="45.3809170771877" lon="9.456888304473727"><ele>78.0</ele><time>2026-04-06T07:38:57Z</time></trkpt><trkpt lat="45.38103439511602" lon="9.456712121244292"><ele>77.5</ele><time>2026-04-06T07:38:59Z</time></trkpt><trkpt lat="45.381133899571935" lon="9.456559837276746"><ele>77.0</ele><time>2026-04-06T07:39:00Z</time></trkpt><trkpt lat="45.381233454725205" lon="9.456394872783731"><ele>77.0</ele><time>2026-04-06T07:39:00.999Z</time></trkpt><trkpt lat="45.38132621792886" lon="9.456247108966023"><ele>77.0</ele><time>2026-04-06T07:39:01.999Z</time></trkpt><trkpt lat="45.38141227999054" lon="9.456113833774616"><ele>77.0</ele><time>2026-04-06T07:39:02.999Z</time></trkpt><trkpt lat="45.3815077741957" lon="9.455968336925201"><ele>77.0</ele><time>2026-04-06T07:39:03.999Z</time></trkpt><trkpt lat="45.381601048240654" lon="9.45585250430426"><ele>77.25</ele><time>2026-04-06T07:39:04.999Z</time></trkpt><trkpt lat="45.38169282984936" lon="9.455743743056374"><ele>77.5</ele><time>2026-04-06T07:39:05.999Z</time></trkpt><trkpt lat="45.38178223595838" lon="9.455545291207798"><ele>77.75</ele><time>2026-04-06T07:39:06.999Z</time></trkpt><trkpt lat="45.38186295416839" lon="9.455427132393973"><ele>78.0</ele><time>2026-04-06T07:39:07.999Z</time></trkpt><trkpt lat="45.381947106464885" lon="9.455318031736443"><ele>78.0</ele><time>2026-04-06T07:39:08.999Z</time></trkpt><trkpt lat="45.38202133270032" lon="9.455192301530108"><ele>78.0</ele><time>2026-04-06T07:39:09.999Z</time></trkpt><trkpt lat="45.38209998519611" lon="9.45506649534407"><ele>78.0</ele><time>2026-04-06T07:39:10.999Z</time></trkpt><trkpt lat="45.382185219984976" lon="9.454943393633393"><ele>78.0</ele><time>2026-04-06T07:39:11.999Z</time></trkpt><trkpt lat="45.38225927624184" lon="9.45483186730248"><ele>78.16666666666667</ele><time>2026-04-06T07:39:12.999Z</time></trkpt><trkpt lat="45.38232702185112" lon="9.454737391013271"><ele>78.33333333333333</ele><time>2026-04-06T07:39:13.999Z</time></trkpt><trkpt lat="45.38238493745895" lon="9.454637549682417"><ele>78.5</ele><time>2026-04-06T07:39:14.999Z</time></trkpt><trkpt lat="45.38244462361653" lon="9.454524554875508"><ele>78.66666666666666</ele><time>2026-04-06T07:39:15.999Z</time></trkpt><trkpt lat="45.38249411272685" lon="9.45441502704857"><ele>78.83333333333333</ele><time>2026-04-06T07:39:16.999Z</time></trkpt><trkpt lat="45.38252705398991" lon="9.45432515432215"><ele>79.0</ele><time>2026-04-06T07:39:17.999Z</time></trkpt><trkpt lat="45.38267833943495" lon="9.454200483799966"><ele>79.0</ele><time>2026-04-06T07:39:24Z</time></trkpt><trkpt lat="45.382659353621214" lon="9.454293788899921"><ele>79.0</ele><time>2026-04-06T07:39:27Z</time></trkpt><trkpt lat="45.38264411204043" lon="9.454385600461416"><ele>79.0</ele><time>2026-04-06T07:39:28Z</time></trkpt><trkpt lat="45.38284091959022" lon="9.454639880880823"><ele>79.0</ele><time>2026-04-06T07:39:29Z</time></trkpt><trkpt lat="45.38289047980277" lon="9.454824948774666"><ele>79.66666666666666</ele><time>2026-04-06T07:39:30Z</time></trkpt><trkpt lat="45.38294772507646" lon="9.455003899280923"><ele>80.33333333333333</ele><time>2026-04-06T07:39:31Z</time></trkpt><trkpt lat="45.383029907403426" lon="9.455231885423972"><ele>81.0</ele><time>2026-04-06T07:39:32Z</time></trkpt><trkpt lat="45.38310336553022" lon="9.455448512405566"><ele>80.75</ele><time>2026-04-06T07:39:33Z</time></trkpt><trkpt lat="45.38316777972639" lon="9.455638588597335"><ele>80.5</ele><time>2026-04-06T07:39:34Z</time></trkpt><trkpt lat="45.38322537446307" lon="9.455806927034834"><ele>80.25</ele><time>2026-04-06T07:39:35Z</time></trkpt><trkpt lat="45.383280547432285" lon="9.455960746735903"><ele>80.0</ele><time>2026-04-06T07:39:36Z</time></trkpt><trkpt lat="45.38332561907187" lon="9.45613081371321"><ele>80.25</ele><time>2026-04-06T07:39:37Z</time></trkpt><trkpt lat="45.383387665932396" lon="9.456325322287876"><ele>80.5</ele><time>2026-04-06T07:39:38Z</time></trkpt><trkpt lat="45.38344343516101" lon="9.456502962413214"><ele>80.75</ele><time>2026-04-06T07:39:39Z</time></trkpt><trkpt lat="45.383497909209794" lon="9.456672743244145"><ele>81.0</ele><time>2026-04-06T07:39:40Z</time></trkpt><trkpt lat="45.383552119594235" lon="9.456834554738112"><ele>81.0</ele><time>2026-04-06T07:39:41Z</time></trkpt><trkpt lat="45.38360773137411" lon="9.456995598680182"><ele>81.0</ele><time>2026-04-06T07:39:42Z</time></trkpt><trkpt lat="45.38366647306752" lon="9.4571500900642"><ele>81.0</ele><time>2026-04-06T07:39:43Z</time></trkpt><trkpt lat="45.38373325728885" lon="9.45726896075334"><ele>81.0</ele><time>2026-04-06T07:39:44Z</time></trkpt><trkpt lat="45.38377765613284" lon="9.457389236314745"><ele>81.0</ele><time>2026-04-06T07:39:45Z</time></trkpt><trkpt lat="45.38382492541954" lon="9.457453424144115"><ele>81.0</ele><time>2026-04-06T07:39:46Z</time></trkpt><trkpt lat="45.38387609747435" lon="9.457509264350785"><ele>81.0</ele><time>2026-04-06T07:39:48Z</time></trkpt><trkpt lat="45.383980261588064" lon="9.457481220376836"><ele>81.0</ele><time>2026-04-06T07:39:52Z</time></trkpt><trkpt lat="45.38406011376823" lon="9.457457234980822"><ele>81.0</ele><time>2026-04-06T07:39:53Z</time></trkpt><trkpt lat="45.38412216655604" lon="9.457409746816747"><ele>81.0</ele><time>2026-04-06T07:39:54Z</time></trkpt><trkpt lat="45.384180880457244" lon="9.457364139089405"><ele>79.5</ele><time>2026-04-06T07:39:55Z</time></trkpt><trkpt lat="45.384245013951336" lon="9.457296788095498"><ele>78.0</ele><time>2026-04-06T07:39:57Z</time></trkpt><trkpt lat="45.38451984074229" lon="9.457744554070306"><ele>78.0</ele><time>2026-04-06T07:40:00Z</time></trkpt><trkpt lat="45.38451599808791" lon="9.457924898910585"><ele>78.0</ele><time>2026-04-06T07:40:02Z</time></trkpt><trkpt lat="45.38449404908465" lon="9.458025333960821"><ele>78.0</ele><time>2026-04-06T07:40:03Z</time></trkpt><trkpt lat="45.38443263281803" lon="9.458182101765182"><ele>78.0</ele><time>2026-04-06T07:40:05Z</time></trkpt><trkpt lat="45.38436722106679" lon="9.458258049930441"><ele>78.0</ele><time>2026-04-06T07:40:06Z</time></trkpt><trkpt lat="45.384311420064876" lon="9.458325968766836"><ele>78.0</ele><time>2026-04-06T07:40:07Z</time></trkpt><trkpt lat="45.384257774051484" lon="9.458404477116826"><ele>78.0</ele><time>2026-04-06T07:40:08Z</time></trkpt><trkpt lat="45.38422319387074" lon="9.458485540085835"><ele>78.0</ele><time>2026-04-06T07:40:09Z</time></trkpt><trkpt lat="45.38419203052499" lon="9.458597554591796"><ele>78.0</ele><time>2026-04-06T07:40:10Z</time></trkpt><trkpt lat="45.38416956454275" lon="9.458724683196024"><ele>78.0</ele><time>2026-04-06T07:40:11Z</time></trkpt><trkpt lat="45.38415870407668" lon="9.458848351470552"><ele>78.0</ele><time>2026-04-06T07:40:12Z</time></trkpt><trkpt lat="45.38414876768813" lon="9.458993315546497"><ele>77.8</ele><time>2026-04-06T07:40:13Z</time></trkpt><trkpt lat="45.384137091329805" lon="9.459115840558779"><ele>77.6</ele><time>2026-04-06T07:40:14Z</time></trkpt><trkpt lat="45.38413202809883" lon="9.45924255645988"><ele>77.4</ele><time>2026-04-06T07:40:15Z</time></trkpt><trkpt lat="45.384122424338315" lon="9.459368629998329"><ele>77.2</ele><time>2026-04-06T07:40:16Z</time></trkpt><trkpt lat="45.38412083428254" lon="9.459513601262252"><ele>77.0</ele><time>2026-04-06T07:40:17Z</time></trkpt><trkpt lat="45.38410934616765" lon="9.459654012974806"><ele>77.0</ele><time>2026-04-06T07:40:18Z</time></trkpt><trkpt lat="45.38409268530257" lon="9.45979532290948"><ele>77.0</ele><time>2026-04-06T07:40:19Z</time></trkpt><trkpt lat="45.38408365126834" lon="9.459945564212875"><ele>77.0</ele><time>2026-04-06T07:40:20Z</time></trkpt><trkpt lat="45.38408340824429" lon="9.460093418297856"><ele>77.0</ele><time>2026-04-06T07:40:21Z</time></trkpt><trkpt lat="45.38407968874238" lon="9.460224168743753"><ele>77.0</ele><time>2026-04-06T07:40:22Z</time></trkpt><trkpt lat="45.3840817535959" lon="9.460335229077732"><ele>76.83333333333334</ele><time>2026-04-06T07:40:23Z</time></trkpt><trkpt lat="45.38408254807045" lon="9.460452707448836"><ele>76.66666666666667</ele><time>2026-04-06T07:40:24Z</time></trkpt><trkpt lat="45.38408385903722" lon="9.46057554111126"><ele>76.5</ele><time>2026-04-06T07:40:25Z</time></trkpt><trkpt lat="45.38408858819419" lon="9.460698723421832"><ele>76.33333333333333</ele><time>2026-04-06T07:40:26Z</time></trkpt><trkpt lat="45.384087386839454" lon="9.460831591301169"><ele>76.16666666666666</ele><time>2026-04-06T07:40:27Z</time></trkpt><trkpt lat="45.38408374249789" lon="9.460965736046694"><ele>76.0</ele><time>2026-04-06T07:40:28Z</time></trkpt><trkpt lat="45.38407954905808" lon="9.46109447704909"><ele>76.0</ele><time>2026-04-06T07:40:29Z</time></trkpt><trkpt lat="45.384067722983964" lon="9.461209881629543"><ele>76.0</ele><time>2026-04-06T07:40:30Z</time></trkpt><trkpt lat="45.38406266522547" lon="9.461302689733964"><ele>76.0</ele><time>2026-04-06T07:40:31Z</time></trkpt><trkpt lat="45.38406081490824" lon="9.461392486072452"><ele>76.0</ele><time>2026-04-06T07:40:32Z</time></trkpt><trkpt lat="45.38403883013904" lon="9.461517142226517"><ele>76.0</ele><time>2026-04-06T07:40:34Z</time></trkpt><trkpt lat="45.38394956695054" lon="9.461625241369989"><ele>76.0</ele><time>2026-04-06T07:40:36Z</time></trkpt><trkpt lat="45.38387072487754" lon="9.461654946585378"><ele>75.83333333333333</ele><time>2026-04-06T07:40:37Z</time></trkpt><trkpt lat="45.38379750308458" lon="9.46167898635608"><ele>75.66666666666666</ele><time>2026-04-06T07:40:38Z</time></trkpt><trkpt lat="45.38374515983991" lon="9.46177103186422"><ele>75.5</ele><time>2026-04-06T07:40:40Z</time></trkpt><trkpt lat="45.3837387504315" lon="9.461860301156408"><ele>75.33333333333333</ele><time>2026-04-06T07:40:41Z</time></trkpt><trkpt lat="45.38374062063476" lon="9.461974443166401"><ele>75.16666666666667</ele><time>2026-04-06T07:40:42Z</time></trkpt><trkpt lat="45.38374096387855" lon="9.462133228056343"><ele>75.0</ele><time>2026-04-06T07:40:43Z</time></trkpt><trkpt lat="45.38372434874883" lon="9.462318775209654"><ele>75.0</ele><time>2026-04-06T07:40:44Z</time></trkpt><trkpt lat="45.38370819840791" lon="9.462475855004959"><ele>75.0</ele><time>2026-04-06T07:40:45Z</time></trkpt><trkpt lat="45.38370335311072" lon="9.46258888647445"><ele>75.0</ele><time>2026-04-06T07:40:46Z</time></trkpt><trkpt lat="45.3836974030436" lon="9.462707875107679"><ele>75.0</ele><time>2026-04-06T07:40:48Z</time></trkpt><trkpt lat="45.383642203549535" lon="9.462757674640645"><ele>75.0</ele><time>2026-04-06T07:40:50Z</time></trkpt><trkpt lat="45.38350278770068" lon="9.462747758124532"><ele>75.0</ele><time>2026-04-06T07:40:52Z</time></trkpt><trkpt lat="45.38341111060555" lon="9.462734093919279"><ele>75.0</ele><time>2026-04-06T07:40:53Z</time></trkpt><trkpt lat="45.38329492177566" lon="9.462716919910228"><ele>75.0</ele><time>2026-04-06T07:40:54Z</time></trkpt><trkpt lat="45.38317464617903" lon="9.462692162409333"><ele>75.0</ele><time>2026-04-06T07:40:55Z</time></trkpt><trkpt lat="45.383072092421784" lon="9.462673186620096"><ele>75.0</ele><time>2026-04-06T07:40:56Z</time></trkpt><trkpt lat="45.38297654670985" lon="9.462676567718605"><ele>75.0</ele><time>2026-04-06T07:40:57Z</time></trkpt><trkpt lat="45.38288994718991" lon="9.462658958712634"><ele>75.0</ele><time>2026-04-06T07:40:58Z</time></trkpt><trkpt lat="45.382819333875965" lon="9.462636089444967"><ele>75.0</ele><time>2026-04-06T07:40:59Z</time></trkpt><trkpt lat="45.38271887029308" lon="9.462597766165107"><ele>75.0</ele><time>2026-04-06T07:41:01Z</time></trkpt><trkpt lat="45.382629780266825" lon="9.46255500766267"><ele>75.0</ele><time>2026-04-06T07:41:03Z</time></trkpt><trkpt lat="45.38253439058783" lon="9.462479260063525"><ele>75.0</ele><time>2026-04-06T07:41:05Z</time></trkpt><trkpt lat="45.38243805349492" lon="9.462476096762838"><ele>75.0</ele><time>2026-04-06T07:41:07Z</time></trkpt><trkpt lat="45.38237222777062" lon="9.462468714642657"><ele>75.0</ele><time>2026-04-06T07:41:08Z</time></trkpt><trkpt lat="45.38227483004703" lon="9.462430169606508"><ele>75.0</ele><time>2026-04-06T07:41:10Z</time></trkpt><trkpt lat="45.38219518005057" lon="9.462367932543131"><ele>75.0</ele><time>2026-04-06T07:41:10.999Z</time></trkpt><trkpt lat="45.382097903549564" lon="9.462355677417719"><ele>74.8</ele><time>2026-04-06T07:41:12.999Z</time></trkpt><trkpt lat="45.3820222616049" lon="9.462277948816203"><ele>74.6</ele><time>2026-04-06T07:41:14.999Z</time></trkpt><trkpt lat="45.381922852583955" lon="9.462325196588068"><ele>74.4</ele><time>2026-04-06T07:41:16.999Z</time></trkpt><trkpt lat="45.38178823121171" lon="9.4623219316208"><ele>74.2</ele><time>2026-04-06T07:41:18.999Z</time></trkpt><trkpt lat="45.38169431728433" lon="9.462303902602281"><ele>74.0</ele><time>2026-04-06T07:41:19.999Z</time></trkpt><trkpt lat="45.381603045421265" lon="9.462292409319042"><ele>74.0</ele><time>2026-04-06T07:41:20.999Z</time></trkpt><trkpt lat="45.381507289853545" lon="9.46227826249183"><ele>74.0</ele><time>2026-04-06T07:41:21.999Z</time></trkpt><trkpt lat="45.38144195556909" lon="9.462264680506593"><ele>74.0</ele><time>2026-04-06T07:41:22.999Z</time></trkpt><trkpt lat="45.381386298830314" lon="9.462322281150783"><ele>74.0</ele><time>2026-04-06T07:41:25.999Z</time></trkpt><trkpt lat="45.38129133676632" lon="9.462326886393585"><ele>74.0</ele><time>2026-04-06T07:41:27.999Z</time></trkpt><trkpt lat="45.38119736905352" lon="9.4623535475767"><ele>74.0</ele><time>2026-04-06T07:41:31Z</time></trkpt><trkpt lat="45.381121271694084" lon="9.462425078198468"><ele>74.0</ele><time>2026-04-06T07:41:33Z</time></trkpt><trkpt lat="45.381022615023525" lon="9.462459671034054"><ele>74.0</ele><time>2026-04-06T07:41:35Z</time></trkpt><trkpt lat="45.38093358906492" lon="9.462481198196675"><ele>74.0</ele><time>2026-04-06T07:41:36Z</time></trkpt><trkpt lat="45.38083605616266" lon="9.462533876967315"><ele>74.0</ele><time>2026-04-06T07:41:37Z</time></trkpt><trkpt lat="45.380743130047115" lon="9.462595752742303"><ele>74.0</ele><time>2026-04-06T07:41:38Z</time></trkpt><trkpt lat="45.3806645206756" lon="9.462634192697829"><ele>74.0</ele><time>2026-04-06T07:41:39Z</time></trkpt><trkpt lat="45.38058779367734" lon="9.462659300775977"><ele>74.0</ele><time>2026-04-06T07:41:40Z</time></trkpt><trkpt lat="45.38051336881754" lon="9.462683552191136"><ele>74.0</ele><time>2026-04-06T07:41:41Z</time></trkpt><trkpt lat="45.38043562204562" lon="9.462699242418964"><ele>74.0</ele><time>2026-04-06T07:41:42Z</time></trkpt><trkpt lat="45.38036770159274" lon="9.462699513742665"><ele>74.0</ele><time>2026-04-06T07:41:43Z</time></trkpt><trkpt lat="45.38029883030726" lon="9.462715371528901"><ele>74.0</ele><time>2026-04-06T07:41:44Z</time></trkpt><trkpt lat="45.380227510057225" lon="9.462716853107574"><ele>74.0</ele><time>2026-04-06T07:41:45Z</time></trkpt><trkpt lat="45.38015731591733" lon="9.462722094051355"><ele>74.5</ele><time>2026-04-06T07:41:46Z</time></trkpt><trkpt lat="45.38007747700951" lon="9.462749887266366"><ele>75.0</ele><time>2026-04-06T07:41:47Z</time></trkpt><trkpt lat="45.37999042264074" lon="9.462765177026915"><ele>75.5</ele><time>2026-04-06T07:41:48Z</time></trkpt><trkpt lat="45.379927134073434" lon="9.462769896182058"><ele>76.0</ele><time>2026-04-06T07:41:49Z</time></trkpt><trkpt lat="45.37980324251943" lon="9.462779373095188"><ele>76.5</ele><time>2026-04-06T07:41:51Z</time></trkpt><trkpt lat="45.379725616939474" lon="9.462812529753021"><ele>77.0</ele><time>2026-04-06T07:41:52Z</time></trkpt><trkpt lat="45.379653926954376" lon="9.462838679329183"><ele>77.0</ele><time>2026-04-06T07:41:53Z</time></trkpt><trkpt lat="45.37957825878106" lon="9.462853892456582"><ele>77.0</ele><time>2026-04-06T07:41:54Z</time></trkpt><trkpt lat="45.37950454068343" lon="9.462853745468717"><ele>77.0</ele><time>2026-04-06T07:41:55Z</time></trkpt><trkpt lat="45.37942436133065" lon="9.462870563879424"><ele>77.0</ele><time>2026-04-06T07:41:56Z</time></trkpt><trkpt lat="45.379285686634724" lon="9.462927971884001"><ele>77.0</ele><time>2026-04-06T07:41:58Z</time></trkpt><trkpt lat="45.37919869207232" lon="9.462955738239062"><ele>77.0</ele><time>2026-04-06T07:41:59Z</time></trkpt><trkpt lat="45.379123692390344" lon="9.46300008931698"><ele>77.0</ele><time>2026-04-06T07:42:00Z</time></trkpt><trkpt lat="45.379049437224985" lon="9.463051348683846"><ele>77.0</ele><time>2026-04-06T07:42:01Z</time></trkpt><trkpt lat="45.37895840685813" lon="9.463101053807682"><ele>77.0</ele><time>2026-04-06T07:42:02Z</time></trkpt><trkpt lat="45.37887645772012" lon="9.463169236182175"><ele>77.0</ele><time>2026-04-06T07:42:03Z</time></trkpt><trkpt lat="45.37880909247704" lon="9.46323103707951"><ele>77.0</ele><time>2026-04-06T07:42:04Z</time></trkpt><trkpt lat="45.37872965136893" lon="9.463292369939074"><ele>78.0</ele><time>2026-04-06T07:42:05Z</time></trkpt><trkpt lat="45.37866224969244" lon="9.463355388384189"><ele>79.0</ele><time>2026-04-06T07:42:06Z</time></trkpt><trkpt lat="45.378601625582164" lon="9.463400747613905"><ele>80.0</ele><time>2026-04-06T07:42:07Z</time></trkpt><trkpt lat="45.37853722740374" lon="9.463453548185788"><ele>81.0</ele><time>2026-04-06T07:42:08Z</time></trkpt><trkpt lat="45.378421494291175" lon="9.463519324520313"><ele>82.0</ele><time>2026-04-06T07:42:10Z</time></trkpt><trkpt lat="45.378320554593046" lon="9.463657413673586"><ele>82.0</ele><time>2026-04-06T07:42:12Z</time></trkpt><trkpt lat="45.37825437783375" lon="9.46370544224636"><ele>82.0</ele><time>2026-04-06T07:42:13Z</time></trkpt><trkpt lat="45.378183527742785" lon="9.46376092558071"><ele>82.0</ele><time>2026-04-06T07:42:14Z</time></trkpt><trkpt lat="45.378123325335714" lon="9.463821278811277"><ele>82.0</ele><time>2026-04-06T07:42:15Z</time></trkpt><trkpt lat="45.378063063481456" lon="9.463896543286673"><ele>82.0</ele><time>2026-04-06T07:42:16Z</time></trkpt><trkpt lat="45.37800874495427" lon="9.463963967132708"><ele>82.0</ele><time>2026-04-06T07:42:17Z</time></trkpt><trkpt lat="45.377964565893755" lon="9.464042493009174"><ele>81.19999999999999</ele><time>2026-04-06T07:42:18Z</time></trkpt><trkpt lat="45.37790069101734" lon="9.464108465955945"><ele>80.39999999999999</ele><time>2026-04-06T07:42:19Z</time></trkpt><trkpt lat="45.377828896405084" lon="9.464216219626454"><ele>79.6</ele><time>2026-04-06T07:42:21Z</time></trkpt><trkpt lat="45.37777442886588" lon="9.464295418269156"><ele>78.8</ele><time>2026-04-06T07:42:23Z</time></trkpt><trkpt lat="45.377691444263455" lon="9.464327752823406"><ele>78.0</ele><time>2026-04-06T07:42:25Z</time></trkpt><trkpt lat="45.37762319378728" lon="9.464452836134399"><ele>78.0</ele><time>2026-04-06T07:42:27Z</time></trkpt><trkpt lat="45.3775179426311" lon="9.464531302877976"><ele>78.0</ele><time>2026-04-06T07:42:29Z</time></trkpt><trkpt lat="45.37744239080174" lon="9.464580538827665"><ele>78.0</ele><time>2026-04-06T07:42:30Z</time></trkpt><trkpt lat="45.37737771350215" lon="9.464619315154932"><ele>78.0</ele><time>2026-04-06T07:42:31Z</time></trkpt><trkpt lat="45.377272436473454" lon="9.464611351326676"><ele>78.0</ele><time>2026-04-06T07:42:33Z</time></trkpt><trkpt lat="45.37718814793294" lon="9.46464736087817"><ele>77.57142857142857</ele><time>2026-04-06T07:42:35Z</time></trkpt><trkpt lat="45.37713769802869" lon="9.464715889385898"><ele>77.14285714285714</ele><time>2026-04-06T07:42:43Z</time></trkpt><trkpt lat="45.37715781509476" lon="9.464827662622723"><ele>76.71428571428571</ele><time>2026-04-06T07:42:46Z</time></trkpt><trkpt lat="45.377110842605404" lon="9.464888106408532"><ele>76.28571428571428</ele><time>2026-04-06T07:42:50Z</time></trkpt><trkpt lat="45.37705168370462" lon="9.464850200820347"><ele>75.85714285714286</ele><time>2026-04-06T07:42:53Z</time></trkpt><trkpt lat="45.376996830287254" lon="9.464784217088788"><ele>75.42857142857142</ele><time>2026-04-06T07:43:05Z</time></trkpt><trkpt lat="45.37693262143196" lon="9.46483408394445"><ele>75.0</ele><time>2026-04-06T07:43:17Z</time></trkpt><trkpt lat="45.37687276678037" lon="9.464882057265143"><ele>75.0</ele><time>2026-04-06T07:43:21Z</time></trkpt><trkpt lat="45.37678363186361" lon="9.464865273166675"><ele>75.0</ele><time>2026-04-06T07:43:23Z</time></trkpt><trkpt lat="45.37670555774748" lon="9.464851483831447"><ele>75.0</ele><time>2026-04-06T07:43:24Z</time></trkpt><trkpt lat="45.37663638073066" lon="9.464820196664117"><ele>75.0</ele><time>2026-04-06T07:43:25Z</time></trkpt><trkpt lat="45.37657959181476" lon="9.464772342340929"><ele>75.0</ele><time>2026-04-06T07:43:25.999Z</time></trkpt><trkpt lat="45.376511451582054" lon="9.46472196225885"><ele>75.0</ele><time>2026-04-06T07:43:26.999Z</time></trkpt><trkpt lat="45.37643455049724" lon="9.464698268211253"><ele>75.2</ele><time>2026-04-06T07:43:27.999Z</time></trkpt><trkpt lat="45.37631293437139" lon="9.464702251914646"><ele>75.4</ele><time>2026-04-06T07:43:28.999Z</time></trkpt><trkpt lat="45.37619344258248" lon="9.464717810926619"><ele>75.6</ele><time>2026-04-06T07:43:29.999Z</time></trkpt><trkpt lat="45.37610132213135" lon="9.464733347894917"><ele>75.8</ele><time>2026-04-06T07:43:30.999Z</time></trkpt><trkpt lat="45.37599163820764" lon="9.464758038190395"><ele>76.0</ele><time>2026-04-06T07:43:31.999Z</time></trkpt><trkpt lat="45.3758605399347" lon="9.46479465171882"><ele>76.0</ele><time>2026-04-06T07:43:32.999Z</time></trkpt><trkpt lat="45.37574267733559" lon="9.464815458400109"><ele>76.0</ele><time>2026-04-06T07:43:33.999Z</time></trkpt><trkpt lat="45.37562779056761" lon="9.464830817876496"><ele>76.0</ele><time>2026-04-06T07:43:35Z</time></trkpt><trkpt lat="45.37551951492322" lon="9.464828202443535"><ele>76.0</ele><time>2026-04-06T07:43:36Z</time></trkpt><trkpt lat="45.375428359867996" lon="9.464809408540264"><ele>76.0</ele><time>2026-04-06T07:43:37Z</time></trkpt><trkpt lat="45.37534851975274" lon="9.464778892509674"><ele>76.0</ele><time>2026-04-06T07:43:38Z</time></trkpt><trkpt lat="45.375282906085886" lon="9.464728531065413"><ele>76.0</ele><time>2026-04-06T07:43:39Z</time></trkpt><trkpt lat="45.37520855089348" lon="9.464671218092539"><ele>76.0</ele><time>2026-04-06T07:43:40Z</time></trkpt><trkpt lat="45.37514981886874" lon="9.464622932048847"><ele>76.0</ele><time>2026-04-06T07:43:41Z</time></trkpt><trkpt lat="45.37502295585959" lon="9.464545884613912"><ele>76.0</ele><time>2026-04-06T07:43:43Z</time></trkpt><trkpt lat="45.374943444830485" lon="9.464520744613058"><ele>76.0</ele><time>2026-04-06T07:43:44Z</time></trkpt><trkpt lat="45.3748721879667" lon="9.464504396644994"><ele>76.0</ele><time>2026-04-06T07:43:45Z</time></trkpt><trkpt lat="45.37479667219289" lon="9.464504563303821"><ele>76.0</ele><time>2026-04-06T07:43:48Z</time></trkpt><trkpt lat="45.37474779760209" lon="9.464424836448435"><ele>76.0</ele><time>2026-04-06T07:43:50Z</time></trkpt><trkpt lat="45.37473220815609" lon="9.464323564726808"><ele>76.0</ele><time>2026-04-06T07:43:51Z</time></trkpt><trkpt lat="45.3747316122142" lon="9.464206882463529"><ele>76.0</ele><time>2026-04-06T07:43:52Z</time></trkpt><trkpt lat="45.374740952205144" lon="9.464062042466486"><ele>76.0</ele><time>2026-04-06T07:43:53Z</time></trkpt><trkpt lat="45.37475165482782" lon="9.463933014616549"><ele>76.0</ele><time>2026-04-06T07:43:54Z</time></trkpt><trkpt lat="45.37475092683451" lon="9.463820377956747"><ele>76.0</ele><time>2026-04-06T07:43:55Z</time></trkpt><trkpt lat="45.374729078999614" lon="9.463685070306425"><ele>76.0</ele><time>2026-04-06T07:43:57Z</time></trkpt><trkpt lat="45.3746505636206" lon="9.46364864075018"><ele>76.0</ele><time>2026-04-06T07:43:59Z</time></trkpt><trkpt lat="45.37456342819615" lon="9.463637382149306"><ele>76.0</ele><time>2026-04-06T07:44:00Z</time></trkpt><trkpt lat="45.3744486182502" lon="9.463617808245655"><ele>75.5</ele><time>2026-04-06T07:44:01Z</time></trkpt><trkpt lat="45.374322412103254" lon="9.463604608673668"><ele>75.0</ele><time>2026-04-06T07:44:02Z</time></trkpt><trkpt lat="45.37420364593931" lon="9.46360067612276"><ele>74.5</ele><time>2026-04-06T07:44:03Z</time></trkpt><trkpt lat="45.37407329945585" lon="9.463599873153427"><ele>74.0</ele><time>2026-04-06T07:44:04Z</time></trkpt><trkpt lat="45.373954196854754" lon="9.463583721244548"><ele>74.5</ele><time>2026-04-06T07:44:05Z</time></trkpt><trkpt lat="45.37382471058744" lon="9.463556628130748"><ele>75.0</ele><time>2026-04-06T07:44:06Z</time></trkpt><trkpt lat="45.37369005333072" lon="9.463523129093929"><ele>75.5</ele><time>2026-04-06T07:44:07Z</time></trkpt><trkpt lat="45.373544396539714" lon="9.463459628378486"><ele>76.0</ele><time>2026-04-06T07:44:08Z</time></trkpt><trkpt lat="45.37341292454768" lon="9.46340561209915"><ele>76.0</ele><time>2026-04-06T07:44:09Z</time></trkpt><trkpt lat="45.3732972753359" lon="9.463370357936329"><ele>76.0</ele><time>2026-04-06T07:44:10Z</time></trkpt><trkpt lat="45.37319149862901" lon="9.463354441758499"><ele>76.0</ele><time>2026-04-06T07:44:11Z</time></trkpt><trkpt lat="45.37309216671975" lon="9.463346520429388"><ele>76.0</ele><time>2026-04-06T07:44:12Z</time></trkpt><trkpt lat="45.37299413155642" lon="9.46334447224145"><ele>76.0</ele><time>2026-04-06T07:44:13Z</time></trkpt><trkpt lat="45.372889853054815" lon="9.46336145099598"><ele>76.0</ele><time>2026-04-06T07:44:14Z</time></trkpt><trkpt lat="45.37277335013064" lon="9.463397318443171"><ele>76.0</ele><time>2026-04-06T07:44:15Z</time></trkpt><trkpt lat="45.372643659166684" lon="9.463441622219438"><ele>76.0</ele><time>2026-04-06T07:44:16Z</time></trkpt><trkpt lat="45.37252031690021" lon="9.463487020001464"><ele>76.0</ele><time>2026-04-06T07:44:17Z</time></trkpt><trkpt lat="45.37239576810012" lon="9.4635349409683"><ele>76.0</ele><time>2026-04-06T07:44:18Z</time></trkpt><trkpt lat="45.372274159406665" lon="9.463559277783297"><ele>76.0</ele><time>2026-04-06T07:44:19Z</time></trkpt><trkpt lat="45.37215411188307" lon="9.463578300632797"><ele>76.0</ele><time>2026-04-06T07:44:20Z</time></trkpt><trkpt lat="45.37203264960848" lon="9.463577081008122"><ele>76.0</ele><time>2026-04-06T07:44:21Z</time></trkpt><trkpt lat="45.3719314118947" lon="9.463583349460604"><ele>75.8</ele><time>2026-04-06T07:44:22Z</time></trkpt><trkpt lat="45.37184647091856" lon="9.463614975779798"><ele>75.6</ele><time>2026-04-06T07:44:23Z</time></trkpt><trkpt lat="45.371753828578065" lon="9.463663375594942"><ele>75.4</ele><time>2026-04-06T07:44:24Z</time></trkpt><trkpt lat="45.37164353279186" lon="9.463735967012571"><ele>75.2</ele><time>2026-04-06T07:44:25Z</time></trkpt><trkpt lat="45.37154227756498" lon="9.463831343752714"><ele>75.0</ele><time>2026-04-06T07:44:26Z</time></trkpt><trkpt lat="45.37145111263497" lon="9.463902316865587"><ele>75.0</ele><time>2026-04-06T07:44:27Z</time></trkpt><trkpt lat="45.371350443050346" lon="9.463959649355727"><ele>75.0</ele><time>2026-04-06T07:44:28Z</time></trkpt><trkpt lat="45.37124208867748" lon="9.463989565881983"><ele>75.0</ele><time>2026-04-06T07:44:29Z</time></trkpt><trkpt lat="45.371117854697" lon="9.46400707956362"><ele>75.0</ele><time>2026-04-06T07:44:30Z</time></trkpt><trkpt lat="45.370983808021315" lon="9.464030567110703"><ele>75.0</ele><time>2026-04-06T07:44:31Z</time></trkpt><trkpt lat="45.37088158715627" lon="9.464050329455768"><ele>75.0</ele><time>2026-04-06T07:44:32Z</time></trkpt><trkpt lat="45.37079341607277" lon="9.46408658840178"><ele>75.0</ele><time>2026-04-06T07:44:33Z</time></trkpt><trkpt lat="45.37070714324715" lon="9.464140013443508"><ele>75.0</ele><time>2026-04-06T07:44:34Z</time></trkpt><trkpt lat="45.37062785511128" lon="9.464203737732843"><ele>75.0</ele><time>2026-04-06T07:44:35Z</time></trkpt><trkpt lat="45.37055016873463" lon="9.464258752125971"><ele>75.14285714285714</ele><time>2026-04-06T07:44:36Z</time></trkpt><trkpt lat="45.370485224826396" lon="9.464288246060038"><ele>75.28571428571428</ele><time>2026-04-06T07:44:37Z</time></trkpt><trkpt lat="45.37041661302076" lon="9.464311736490686"><ele>75.42857142857142</ele><time>2026-04-06T07:44:38Z</time></trkpt><trkpt lat="45.3703458286663" lon="9.464312741792467"><ele>75.57142857142857</ele><time>2026-04-06T07:44:39Z</time></trkpt><trkpt lat="45.370276012321874" lon="9.46429746746001"><ele>75.71428571428572</ele><time>2026-04-06T07:44:40Z</time></trkpt><trkpt lat="45.37019933201682" lon="9.46427117710632"><ele>75.85714285714285</ele><time>2026-04-06T07:44:41Z</time></trkpt><trkpt lat="45.37012526183169" lon="9.464247939265702"><ele>76.0</ele><time>2026-04-06T07:44:42Z</time></trkpt><trkpt lat="45.37005422375663" lon="9.464233869732142"><ele>76.0</ele><time>2026-04-06T07:44:43Z</time></trkpt><trkpt lat="45.369981677136074" lon="9.464230935337921"><ele>76.0</ele><time>2026-04-06T07:44:44Z</time></trkpt><trkpt lat="45.369907034823676" lon="9.464227618865431"><ele>76.0</ele><time>2026-04-06T07:44:45Z</time></trkpt><trkpt lat="45.36984030540861" lon="9.464226378619706"><ele>76.0</ele><time>2026-04-06T07:44:46Z</time></trkpt><trkpt lat="45.36977671764618" lon="9.464221161400216"><ele>76.0</ele><time>2026-04-06T07:44:47Z</time></trkpt><trkpt lat="45.36970265679776" lon="9.464236388782998"><ele>76.0</ele><time>2026-04-06T07:44:48Z</time></trkpt><trkpt lat="45.36962635330884" lon="9.464237031168249"><ele>76.0</ele><time>2026-04-06T07:44:49Z</time></trkpt><trkpt lat="45.369534835917186" lon="9.464240215931913"><ele>75.39999999999999</ele><time>2026-04-06T07:44:50Z</time></trkpt><trkpt lat="45.36941698846711" lon="9.464242990319121"><ele>74.8</ele><time>2026-04-06T07:44:51Z</time></trkpt><trkpt lat="45.369299390671195" lon="9.464254726917808"><ele>74.19999999999999</ele><time>2026-04-06T07:44:52Z</time></trkpt><trkpt lat="45.369201576347116" lon="9.464262158536197"><ele>73.6</ele><time>2026-04-06T07:44:53Z</time></trkpt><trkpt lat="45.36910018405754" lon="9.464273535976428"><ele>73.0</ele><time>2026-04-06T07:44:54Z</time></trkpt><trkpt lat="45.369001484337325" lon="9.464304312536338"><ele>73.0</ele><time>2026-04-06T07:44:55Z</time></trkpt><trkpt lat="45.36891204699483" lon="9.464332129031813"><ele>73.0</ele><time>2026-04-06T07:44:56Z</time></trkpt><trkpt lat="45.368813195889004" lon="9.464376632182992"><ele>73.0</ele><time>2026-04-06T07:44:57Z</time></trkpt><trkpt lat="45.368724712686124" lon="9.46442693374923"><ele>73.0</ele><time>2026-04-06T07:44:57.999Z</time></trkpt><trkpt lat="45.36862687931308" lon="9.464490824055487"><ele>73.0</ele><time>2026-04-06T07:44:58.999Z</time></trkpt><trkpt lat="45.36853033869083" lon="9.464565979888425"><ele>73.0</ele><time>2026-04-06T07:44:59.999Z</time></trkpt><trkpt lat="45.36843969199221" lon="9.46464121006908"><ele>73.0</ele><time>2026-04-06T07:45:00.999Z</time></trkpt><trkpt lat="45.36836779631256" lon="9.464705687322569"><ele>73.0</ele><time>2026-04-06T07:45:01.999Z</time></trkpt><trkpt lat="45.36830276232606" lon="9.464766090639635"><ele>73.0</ele><time>2026-04-06T07:45:02.999Z</time></trkpt><trkpt lat="45.36824892669839" lon="9.464820047139675"><ele>73.0</ele><time>2026-04-06T07:45:03.999Z</time></trkpt><trkpt lat="45.36820287076416" lon="9.464882737431372"><ele>73.0</ele><time>2026-04-06T07:45:34.999Z</time></trkpt><trkpt lat="45.36813801005733" lon="9.464961430782148"><ele>73.0</ele><time>2026-04-06T07:45:36.999Z</time></trkpt><trkpt lat="45.36810568117904" lon="9.46505995218063"><ele>73.0</ele><time>2026-04-06T07:45:40Z</time></trkpt><trkpt lat="45.36804398321427" lon="9.465095683776534"><ele>73.0</ele><time>2026-04-06T07:45:44Z</time></trkpt><trkpt lat="45.36795738798527" lon="9.465112473276083"><ele>73.0</ele><time>2026-04-06T07:45:47Z</time></trkpt><trkpt lat="45.36787430058756" lon="9.465083739239503"><ele>73.0</ele><time>2026-04-06T07:45:59Z</time></trkpt><trkpt lat="45.36781336370283" lon="9.465115010435728"><ele>73.0</ele><time>2026-04-06T07:46:01Z</time></trkpt><trkpt lat="45.367732464109906" lon="9.465145051347529"><ele>73.66666666666666</ele><time>2026-04-06T07:46:03Z</time></trkpt><trkpt lat="45.36765299221682" lon="9.46517388243466"><ele>74.33333333333333</ele><time>2026-04-06T07:46:05Z</time></trkpt><trkpt lat="45.36756976931617" lon="9.465207701111808"><ele>75.0</ele><time>2026-04-06T07:46:07Z</time></trkpt><trkpt lat="45.36745442222759" lon="9.465238167029938"><ele>75.66666666666667</ele><time>2026-04-06T07:46:09Z</time></trkpt><trkpt lat="45.36738239748196" lon="9.465261496395362"><ele>76.33333333333334</ele><time>2026-04-06T07:46:11Z</time></trkpt><trkpt lat="45.367316463201064" lon="9.465289374317804"><ele>77.0</ele><time>2026-04-06T07:46:14Z</time></trkpt><trkpt lat="45.36725078122816" lon="9.465312738738104"><ele>76.33333333333334</ele><time>2026-04-06T07:46:16Z</time></trkpt><trkpt lat="45.36718799938676" lon="9.465301824904962"><ele>75.66666666666667</ele><time>2026-04-06T07:46:18Z</time></trkpt><trkpt lat="45.367106025834424" lon="9.4653441895216"><ele>75.0</ele><time>2026-04-06T07:46:21Z</time></trkpt><trkpt lat="45.36703838946287" lon="9.465376369334473"><ele>74.33333333333333</ele><time>2026-04-06T07:46:23Z</time></trkpt><trkpt lat="45.366932561056515" lon="9.465398574763691"><ele>73.66666666666666</ele><time>2026-04-06T07:46:25Z</time></trkpt><trkpt lat="45.36685893613153" lon="9.465422154075641"><ele>73.0</ele><time>2026-04-06T07:46:27Z</time></trkpt><trkpt lat="45.36677972474752" lon="9.465435852220905"><ele>72.8</ele><time>2026-04-06T07:46:29Z</time></trkpt><trkpt lat="45.3666735099093" lon="9.465459441509891"><ele>72.6</ele><time>2026-04-06T07:46:31Z</time></trkpt><trkpt lat="45.36656596902013" lon="9.4655056814336"><ele>72.4</ele><time>2026-04-06T07:46:33Z</time></trkpt><trkpt lat="45.36648771802433" lon="9.465517599666338"><ele>72.2</ele><time>2026-04-06T07:46:35Z</time></trkpt><trkpt lat="45.36642440691252" lon="9.465552864062827"><ele>72.0</ele><time>2026-04-06T07:46:37Z</time></trkpt><trkpt lat="45.36632679084511" lon="9.465587709665012"><ele>72.0</ele><time>2026-04-06T07:46:38.999Z</time></trkpt><trkpt lat="45.366260094744526" lon="9.465609745424647"><ele>72.0</ele><time>2026-04-06T07:46:39.999Z</time></trkpt><trkpt lat="45.3661865812705" lon="9.465647126097315"><ele>72.0</ele><time>2026-04-06T07:46:40.999Z</time></trkpt><trkpt lat="45.366124377780224" lon="9.465670942937162"><ele>72.0</ele><time>2026-04-06T07:46:41.999Z</time></trkpt><trkpt lat="45.366047958866496" lon="9.465685294128978"><ele>72.0</ele><time>2026-04-06T07:46:44.999Z</time></trkpt><trkpt lat="45.36595639596122" lon="9.46570061239261"><ele>72.0</ele><time>2026-04-06T07:46:47.999Z</time></trkpt><trkpt lat="45.365875535739704" lon="9.46567762852537"><ele>72.0</ele><time>2026-04-06T07:46:49.999Z</time></trkpt><trkpt lat="45.36580822164048" lon="9.465691710526128"><ele>72.0</ele><time>2026-04-06T07:46:51.999Z</time></trkpt><trkpt lat="45.36570825615559" lon="9.465663846886988"><ele>72.0</ele><time>2026-04-06T07:46:54.999Z</time></trkpt><trkpt lat="45.365602374187866" lon="9.465624325020467"><ele>72.0</ele><time>2026-04-06T07:46:56.999Z</time></trkpt><trkpt lat="45.3655402663179" lon="9.46559605325815"><ele>72.0</ele><time>2026-04-06T07:46:57.999Z</time></trkpt><trkpt lat="45.36547212193549" lon="9.465576928597754"><ele>72.0</ele><time>2026-04-06T07:46:58.999Z</time></trkpt><trkpt lat="45.365395422412476" lon="9.465560582382427"><ele>72.14285714285715</ele><time>2026-04-06T07:46:59.999Z</time></trkpt><trkpt lat="45.36533325760341" lon="9.465539238064459"><ele>72.28571428571429</ele><time>2026-04-06T07:47:00.999Z</time></trkpt><trkpt lat="45.36526905794691" lon="9.465540974024947"><ele>72.42857142857143</ele><time>2026-04-06T07:47:01.999Z</time></trkpt><trkpt lat="45.36519535061099" lon="9.465538462459973"><ele>72.57142857142858</ele><time>2026-04-06T07:47:02.999Z</time></trkpt><trkpt lat="45.36512020664246" lon="9.465594236186634"><ele>72.71428571428572</ele><time>2026-04-06T07:47:04.999Z</time></trkpt><trkpt lat="45.36505744532517" lon="9.465602170676677"><ele>72.85714285714286</ele><time>2026-04-06T07:47:06.999Z</time></trkpt><trkpt lat="45.36499070199472" lon="9.46559384160302"><ele>73.0</ele><time>2026-04-06T07:47:09.999Z</time></trkpt><trkpt lat="45.36496582542168" lon="9.465504357044033"><ele>73.0</ele><time>2026-04-06T07:47:12.999Z</time></trkpt><trkpt lat="45.36490404864181" lon="9.46547220680458"><ele>73.0</ele><time>2026-04-06T07:47:15.999Z</time></trkpt><trkpt lat="45.36484098821809" lon="9.46551436775569"><ele>73.0</ele><time>2026-04-06T07:47:17.999Z</time></trkpt><trkpt lat="45.36476746861007" lon="9.465557204508833"><ele>73.0</ele><time>2026-04-06T07:47:22.999Z</time></trkpt><trkpt lat="45.36470386975818" lon="9.46548989711441"><ele>73.0</ele><time>2026-04-06T07:47:25.999Z</time></trkpt><trkpt lat="45.36462263232587" lon="9.465526793953847"><ele>73.0</ele><time>2026-04-06T07:47:27.999Z</time></trkpt><trkpt lat="45.364548328508995" lon="9.465515204679779"><ele>73.0</ele><time>2026-04-06T07:47:29.999Z</time></trkpt><trkpt lat="45.36449471747281" lon="9.465566189764171"><ele>73.0</ele><time>2026-04-06T07:47:32.999Z</time></trkpt><trkpt lat="45.36441909774964" lon="9.465497237819267"><ele>73.0</ele><time>2026-04-06T07:47:35.999Z</time></trkpt><trkpt lat="45.36436602453936" lon="9.465431212774481"><ele>73.0</ele><time>2026-04-06T07:47:37.999Z</time></trkpt><trkpt lat="45.36428217455124" lon="9.465394192422806"><ele>73.0</ele><time>2026-04-06T07:47:39.999Z</time></trkpt><trkpt lat="45.36421945884182" lon="9.46536527683343"><ele>73.0</ele><time>2026-04-06T07:47:40.999Z</time></trkpt><trkpt lat="45.36410594195414" lon="9.465343154312619"><ele>73.4</ele><time>2026-04-06T07:47:42.999Z</time></trkpt><trkpt lat="45.363992122226946" lon="9.465313013086808"><ele>73.8</ele><time>2026-04-06T07:47:44.999Z</time></trkpt><trkpt lat="45.363918847046094" lon="9.46531139956851"><ele>74.2</ele><time>2026-04-06T07:47:46Z</time></trkpt><trkpt lat="45.363819959163465" lon="9.46530492628621"><ele>74.6</ele><time>2026-04-06T07:47:48Z</time></trkpt><trkpt lat="45.363726700193936" lon="9.465310906611256"><ele>75.0</ele><time>2026-04-06T07:47:51Z</time></trkpt><trkpt lat="45.36363593664407" lon="9.465331689853867"><ele>75.0</ele><time>2026-04-06T07:47:53Z</time></trkpt><trkpt lat="45.363555405748656" lon="9.465333088877934"><ele>75.0</ele><time>2026-04-06T07:47:55Z</time></trkpt><trkpt lat="45.36348290213602" lon="9.465353681316671"><ele>75.0</ele><time>2026-04-06T07:47:58Z</time></trkpt><trkpt lat="45.36339994910979" lon="9.465381967198224"><ele>75.0</ele><time>2026-04-06T07:48:00Z</time></trkpt><trkpt lat="45.36329966857751" lon="9.465412243541511"><ele>75.0</ele><time>2026-04-06T07:48:02Z</time></trkpt><trkpt lat="45.3632371473866" lon="9.46544241757631"><ele>75.0</ele><time>2026-04-06T07:48:03Z</time></trkpt><trkpt lat="45.36315833984587" lon="9.465505342658238"><ele>74.66666666666667</ele><time>2026-04-06T07:48:05Z</time></trkpt><trkpt lat="45.36307239655589" lon="9.46558642979549"><ele>74.33333333333333</ele><time>2026-04-06T07:48:07Z</time></trkpt><trkpt lat="45.36301270803751" lon="9.465646357304411"><ele>74.0</ele><time>2026-04-06T07:48:09Z</time></trkpt><trkpt lat="45.36294576996263" lon="9.465758453956989"><ele>73.66666666666666</ele><time>2026-04-06T07:48:12Z</time></trkpt><trkpt lat="45.36290164338738" lon="9.465830890061124"><ele>73.33333333333333</ele><time>2026-04-06T07:48:13Z</time></trkpt><trkpt lat="45.362866819227335" lon="9.465913888470755"><ele>73.0</ele><time>2026-04-06T07:48:14Z</time></trkpt><trkpt lat="45.36283309583592" lon="9.466051066865026"><ele>73.0</ele><time>2026-04-06T07:48:16Z</time></trkpt><trkpt lat="45.36281695324488" lon="9.466138951554097"><ele>73.0</ele><time>2026-04-06T07:48:18Z</time></trkpt><trkpt lat="45.36274039922289" lon="9.466202780686698"><ele>73.0</ele><time>2026-04-06T07:48:21Z</time></trkpt><trkpt lat="45.36268681533265" lon="9.466256325569315"><ele>73.0</ele><time>2026-04-06T07:48:23Z</time></trkpt><trkpt lat="45.36258898514424" lon="9.466326738633205"><ele>73.0</ele><time>2026-04-06T07:48:25Z</time></trkpt><trkpt lat="45.36250340203345" lon="9.466367154869573"><ele>73.0</ele><time>2026-04-06T07:48:27Z</time></trkpt><trkpt lat="45.362441868249874" lon="9.466390533823011"><ele>73.0</ele><time>2026-04-06T07:48:29Z</time></trkpt><trkpt lat="45.362379294714415" lon="9.466403521799759"><ele>73.0</ele><time>2026-04-06T07:48:36.999Z</time></trkpt><trkpt lat="45.3623184315095" lon="9.46637351346499"><ele>73.0</ele><time>2026-04-06T07:48:38.999Z</time></trkpt><trkpt lat="45.36224436005735" lon="9.466341308367163"><ele>73.0</ele><time>2026-04-06T07:48:41.999Z</time></trkpt><trkpt lat="45.36218142546847" lon="9.466387867928114"><ele>73.0</ele><time>2026-04-06T07:48:51.999Z</time></trkpt><trkpt lat="45.36214651000578" lon="9.46647022255575"><ele>73.0</ele><time>2026-04-06T07:48:54.999Z</time></trkpt><trkpt lat="45.362106059635394" lon="9.466552135898851"><ele>73.0</ele><time>2026-04-06T07:48:57.999Z</time></trkpt><trkpt lat="45.36203511119686" lon="9.466561293967025"><ele>73.0</ele><time>2026-04-06T07:48:59.999Z</time></trkpt><trkpt lat="45.361965310150886" lon="9.466652359645266"><ele>73.0</ele><time>2026-04-06T07:49:01.999Z</time></trkpt><trkpt lat="45.361907534232905" lon="9.466734038327164"><ele>73.0</ele><time>2026-04-06T07:49:04.999Z</time></trkpt><trkpt lat="45.36184583542429" lon="9.46680895308013"><ele>73.0</ele><time>2026-04-06T07:49:06.999Z</time></trkpt><trkpt lat="45.36182117810983" lon="9.46691357872344"><ele>73.0</ele><time>2026-04-06T07:49:09.999Z</time></trkpt><trkpt lat="45.36176513227373" lon="9.466966664675896"><ele>73.0</ele><time>2026-04-06T07:49:12.999Z</time></trkpt><trkpt lat="45.36168166447084" lon="9.467004900902177"><ele>72.6</ele><time>2026-04-06T07:49:15.999Z</time></trkpt><trkpt lat="45.36162726609888" lon="9.467131959346098"><ele>72.19999999999999</ele><time>2026-04-06T07:49:17.999Z</time></trkpt><trkpt lat="45.36157382932239" lon="9.46720898374147"><ele>71.8</ele><time>2026-04-06T07:49:20.999Z</time></trkpt><trkpt lat="45.361484494986925" lon="9.467328789677937"><ele>71.39999999999999</ele><time>2026-04-06T07:49:22.999Z</time></trkpt><trkpt lat="45.36144747350944" lon="9.467426588340082"><ele>71.0</ele><time>2026-04-06T07:49:25.999Z</time></trkpt><trkpt lat="45.361367815301165" lon="9.46749101979181"><ele>71.39999999999999</ele><time>2026-04-06T07:49:28.999Z</time></trkpt><trkpt lat="45.36127927378159" lon="9.467506578198993"><ele>71.8</ele><time>2026-04-06T07:49:31.999Z</time></trkpt><trkpt lat="45.36119891801246" lon="9.467620051492824"><ele>72.19999999999999</ele><time>2026-04-06T07:49:33.999Z</time></trkpt><trkpt lat="45.361166700872296" lon="9.46770897983794"><ele>72.6</ele><time>2026-04-06T07:49:36.999Z</time></trkpt><trkpt lat="45.361119335003444" lon="9.467825364584296"><ele>73.0</ele><time>2026-04-06T07:49:39.999Z</time></trkpt><trkpt lat="45.361028003824046" lon="9.467914920190047"><ele>73.16666666666666</ele><time>2026-04-06T07:49:41.999Z</time></trkpt><trkpt lat="45.36097065735898" lon="9.468016510428184"><ele>73.33333333333333</ele><time>2026-04-06T07:49:43.999Z</time></trkpt><trkpt lat="45.36091121110734" lon="9.468127347114132"><ele>73.5</ele><time>2026-04-06T07:49:45.999Z</time></trkpt><trkpt lat="45.360844303492065" lon="9.46821564694114"><ele>73.66666666666667</ele><time>2026-04-06T07:49:47.999Z</time></trkpt><trkpt lat="45.36083067453458" lon="9.468323579843009"><ele>73.83333333333334</ele><time>2026-04-06T07:49:51Z</time></trkpt><trkpt lat="45.360822628084726" lon="9.468430169205812"><ele>74.0</ele><time>2026-04-06T07:49:53Z</time></trkpt><trkpt lat="45.36075741075219" lon="9.468468052025287"><ele>74.0</ele><time>2026-04-06T07:49:55Z</time></trkpt><trkpt lat="45.36068104534168" lon="9.468517081579849"><ele>74.0</ele><time>2026-04-06T07:49:57Z</time></trkpt><trkpt lat="45.36059649439255" lon="9.468546263813524"><ele>74.0</ele><time>2026-04-06T07:50:02Z</time></trkpt><trkpt lat="45.36052469087748" lon="9.468611254819917"><ele>74.0</ele><time>2026-04-06T07:50:05Z</time></trkpt><trkpt lat="45.36049346084689" lon="9.46869544065483"><ele>74.0</ele><time>2026-04-06T07:50:06.999Z</time></trkpt><trkpt lat="45.36048191824247" lon="9.468818776495281"><ele>74.0</ele><time>2026-04-06T07:50:08.999Z</time></trkpt><trkpt lat="45.360469967174076" lon="9.468908094527842"><ele>74.33333333333334</ele><time>2026-04-06T07:50:10.999Z</time></trkpt><trkpt lat="45.360445838892076" lon="9.468998880671151"><ele>74.66666666666667</ele><time>2026-04-06T07:50:12.999Z</time></trkpt><trkpt lat="45.3604159876219" lon="9.469085419096855"><ele>75.0</ele><time>2026-04-06T07:50:14.999Z</time></trkpt><trkpt lat="45.36040803245118" lon="9.469174879100203"><ele>75.33333333333333</ele><time>2026-04-06T07:50:16.999Z</time></trkpt><trkpt lat="45.36041253954595" lon="9.469324707436602"><ele>75.66666666666666</ele><time>2026-04-06T07:50:19.999Z</time></trkpt><trkpt lat="45.36040485778338" lon="9.46942375882145"><ele>76.0</ele><time>2026-04-06T07:50:21.999Z</time></trkpt><trkpt lat="45.36041862424981" lon="9.469540315383316"><ele>75.83333333333333</ele><time>2026-04-06T07:50:23.999Z</time></trkpt><trkpt lat="45.360423700398584" lon="9.469657182977402"><ele>75.66666666666666</ele><time>2026-04-06T07:50:25.999Z</time></trkpt><trkpt lat="45.360399558901335" lon="9.469748594789767"><ele>75.5</ele><time>2026-04-06T07:50:32.999Z</time></trkpt><trkpt lat="45.360392716041034" lon="9.469884845576642"><ele>75.33333333333333</ele><time>2026-04-06T07:50:34.999Z</time></trkpt><trkpt lat="45.36037281886123" lon="9.469974814990824"><ele>75.16666666666667</ele><time>2026-04-06T07:50:36.999Z</time></trkpt><trkpt lat="45.360336501071274" lon="9.470067538144018"><ele>75.0</ele><time>2026-04-06T07:50:39.999Z</time></trkpt><trkpt lat="45.36039846761062" lon="9.470152468318675"><ele>74.99999999999999</ele><time>2026-04-06T07:50:43.999Z</time></trkpt><trkpt lat="45.36042755177343" lon="9.470240762962494"><ele>75.0</ele><time>2026-04-06T07:50:45.999Z</time></trkpt><trkpt lat="45.360378438332425" lon="9.470309603654185"><ele>75.0</ele><time>2026-04-06T07:50:48.999Z</time></trkpt><trkpt lat="45.36034712339331" lon="9.4703920911486"><ele>75.0</ele><time>2026-04-06T07:50:52.999Z</time></trkpt><trkpt lat="45.36032398544035" lon="9.470497846174021"><ele>75.0</ele><time>2026-04-06T07:50:59.999Z</time></trkpt><trkpt lat="45.36029850621356" lon="9.470584835906681"><ele>74.99999999999999</ele><time>2026-04-06T07:51:04.999Z</time></trkpt><trkpt lat="45.3602073941203" lon="9.470586879406131"><ele>75.0</ele><time>2026-04-06T07:51:19.999Z</time></trkpt><trkpt lat="45.36014011171109" lon="9.470618496674774"><ele>74.83333333333333</ele><time>2026-04-06T07:51:22.999Z</time></trkpt><trkpt lat="45.36019579605017" lon="9.470698823735477"><ele>74.66666666666667</ele><time>2026-04-06T07:51:25.999Z</time></trkpt><trkpt lat="45.36022991822069" lon="9.470807002078635"><ele>74.5</ele><time>2026-04-06T07:51:28.999Z</time></trkpt><trkpt lat="45.3601505662067" lon="9.470853588688835"><ele>74.33333333333334</ele><time>2026-04-06T07:51:31.999Z</time></trkpt><trkpt lat="45.36015961099481" lon="9.470948248844406"><ele>74.16666666666667</ele><time>2026-04-06T07:51:36.999Z</time></trkpt><trkpt lat="45.360133696131385" lon="9.471086584541002"><ele>74.0</ele><time>2026-04-06T07:51:38.999Z</time></trkpt><trkpt lat="45.36008203832301" lon="9.4711850490406"><ele>74.0</ele><time>2026-04-06T07:51:41.999Z</time></trkpt><trkpt lat="45.360026343655825" lon="9.471239512380004"><ele>74.0</ele><time>2026-04-06T07:51:43.999Z</time></trkpt><trkpt lat="45.36007636129131" lon="9.47136745869124"><ele>74.0</ele><time>2026-04-06T07:51:47.999Z</time></trkpt><trkpt lat="45.360062637250074" lon="9.4714748294991"><ele>74.0</ele><time>2026-04-06T07:51:53.999Z</time></trkpt><trkpt lat="45.360083387315264" lon="9.471570618868514"><ele>74.0</ele><time>2026-04-06T07:52:01.999Z</time></trkpt><trkpt lat="45.36006666270456" lon="9.471662125387557"><ele>74.0</ele><time>2026-04-06T07:52:05.999Z</time></trkpt><trkpt lat="45.35999108696685" lon="9.47172036222785"><ele>74.16666666666667</ele><time>2026-04-06T07:52:07.999Z</time></trkpt><trkpt lat="45.35993997626297" lon="9.471786979515882"><ele>74.33333333333334</ele><time>2026-04-06T07:52:09.999Z</time></trkpt><trkpt lat="45.359859748375925" lon="9.471895538729855"><ele>74.5</ele><time>2026-04-06T07:52:11.999Z</time></trkpt><trkpt lat="45.35977842133776" lon="9.47190962475543"><ele>74.66666666666667</ele><time>2026-04-06T07:52:14.999Z</time></trkpt><trkpt lat="45.35970268430742" lon="9.47195069963595"><ele>74.83333333333333</ele><time>2026-04-06T07:52:16.999Z</time></trkpt><trkpt lat="45.35963563274249" lon="9.47199425010252"><ele>75.0</ele><time>2026-04-06T07:52:18.999Z</time></trkpt><trkpt lat="45.35957542063139" lon="9.472036155812827"><ele>75.0</ele><time>2026-04-06T07:52:20.999Z</time></trkpt><trkpt lat="45.35950302134472" lon="9.472049860352644"><ele>75.0</ele><time>2026-04-06T07:52:22.999Z</time></trkpt><trkpt lat="45.35944448027601" lon="9.472094359785725"><ele>75.0</ele><time>2026-04-06T07:52:25.999Z</time></trkpt><trkpt lat="45.35937930740692" lon="9.472115594996398"><ele>75.0</ele><time>2026-04-06T07:52:29.999Z</time></trkpt><trkpt lat="45.3592968097662" lon="9.472180156775508"><ele>75.0</ele><time>2026-04-06T07:52:33Z</time></trkpt><trkpt lat="45.35919825108755" lon="9.472214457017719"><ele>75.0</ele><time>2026-04-06T07:52:35Z</time></trkpt><trkpt lat="45.35913473740746" lon="9.472257398606871"><ele>74.5</ele><time>2026-04-06T07:52:37Z</time></trkpt><trkpt lat="45.35907446419699" lon="9.47233072683886"><ele>74.0</ele><time>2026-04-06T07:52:39Z</time></trkpt><trkpt lat="45.359016009451096" lon="9.472286878957606"><ele>73.5</ele><time>2026-04-06T07:52:41Z</time></trkpt><trkpt lat="45.35891541035837" lon="9.47229445545229"><ele>73.0</ele><time>2026-04-06T07:52:43Z</time></trkpt><trkpt lat="45.35883024998946" lon="9.472310844417786"><ele>72.5</ele><time>2026-04-06T07:52:45Z</time></trkpt><trkpt lat="45.35872928980633" lon="9.472303914825783"><ele>72.0</ele><time>2026-04-06T07:52:48Z</time></trkpt><trkpt lat="45.35863600814103" lon="9.472239530420937"><ele>72.0</ele><time>2026-04-06T07:53:15Z</time></trkpt><trkpt lat="45.35856349024827" lon="9.472211980065147"><ele>72.0</ele><time>2026-04-06T07:53:17Z</time></trkpt><trkpt lat="45.35852386950346" lon="9.472286791670783"><ele>72.0</ele><time>2026-04-06T07:53:20Z</time></trkpt><trkpt lat="45.35845856333351" lon="9.472343513974677"><ele>72.0</ele><time>2026-04-06T07:53:22Z</time></trkpt><trkpt lat="45.35839655054596" lon="9.472290033399164"><ele>72.0</ele><time>2026-04-06T07:53:24Z</time></trkpt><trkpt lat="45.35833688046679" lon="9.472211135497608"><ele>72.0</ele><time>2026-04-06T07:53:26Z</time></trkpt><trkpt lat="45.358253171219296" lon="9.47213624436709"><ele>72.14285714285715</ele><time>2026-04-06T07:53:28Z</time></trkpt><trkpt lat="45.358179313203976" lon="9.472089800707627"><ele>72.28571428571429</ele><time>2026-04-06T07:53:30Z</time></trkpt><trkpt lat="45.35811967421817" lon="9.472054669131552"><ele>72.42857142857143</ele><time>2026-04-06T07:53:32Z</time></trkpt><trkpt lat="45.35806849493995" lon="9.471992321899181"><ele>72.57142857142858</ele><time>2026-04-06T07:53:34Z</time></trkpt><trkpt lat="45.35801214928291" lon="9.471936808501965"><ele>72.71428571428572</ele><time>2026-04-06T07:53:46Z</time></trkpt><trkpt lat="45.357959655645985" lon="9.471851541442554"><ele>72.85714285714286</ele><time>2026-04-06T07:53:49Z</time></trkpt><trkpt lat="45.35789286291901" lon="9.471862794552754"><ele>73.0</ele><time>2026-04-06T07:53:52Z</time></trkpt><trkpt lat="45.357789275036964" lon="9.471864392156762"><ele>73.16666666666666</ele><time>2026-04-06T07:53:54Z</time></trkpt><trkpt lat="45.357713939009315" lon="9.471808903007911"><ele>73.33333333333333</ele><time>2026-04-06T07:54:02Z</time></trkpt><trkpt lat="45.35762397597201" lon="9.471752437293265"><ele>73.5</ele><time>2026-04-06T07:54:05.001Z</time></trkpt><trkpt lat="45.357557911191684" lon="9.471735633941318"><ele>73.66666666666667</ele><time>2026-04-06T07:54:07.001Z</time></trkpt><trkpt lat="45.357501933881714" lon="9.471690568868938"><ele>73.83333333333334</ele><time>2026-04-06T07:54:09.001Z</time></trkpt><trkpt lat="45.35743568492101" lon="9.471652197477255"><ele>74.0</ele><time>2026-04-06T07:54:11.001Z</time></trkpt><trkpt lat="45.35735474571829" lon="9.471649532796375"><ele>74.0</ele><time>2026-04-06T07:54:13.001Z</time></trkpt><trkpt lat="45.357285991780955" lon="9.47162219166075"><ele>74.0</ele><time>2026-04-06T07:54:15.001Z</time></trkpt><trkpt lat="45.35721771004408" lon="9.471588993476756"><ele>74.0</ele><time>2026-04-06T07:54:17.001Z</time></trkpt><trkpt lat="45.357142261197424" lon="9.47161737061518"><ele>74.0</ele><time>2026-04-06T07:54:21.001Z</time></trkpt><trkpt lat="45.357078463473066" lon="9.471719548776225"><ele>74.0</ele><time>2026-04-06T07:54:23.001Z</time></trkpt><trkpt lat="45.35701972992728" lon="9.471810621418873"><ele>74.0</ele><time>2026-04-06T07:54:25.001Z</time></trkpt><trkpt lat="45.35700213694844" lon="9.47190648572322"><ele>73.66666666666667</ele><time>2026-04-06T07:54:27.001Z</time></trkpt><trkpt lat="45.35701128870368" lon="9.472011432448951"><ele>73.33333333333334</ele><time>2026-04-06T07:54:29.001Z</time></trkpt><trkpt lat="45.356977516887405" lon="9.472091071684027"><ele>73.0</ele><time>2026-04-06T07:54:33.001Z</time></trkpt><trkpt lat="45.35693712458457" lon="9.472176214426757"><ele>72.66666666666667</ele><time>2026-04-06T07:54:35.001Z</time></trkpt><trkpt lat="45.35689101560014" lon="9.472238075539666"><ele>72.33333333333333</ele><time>2026-04-06T07:54:36.001Z</time></trkpt><trkpt lat="45.35682826729434" lon="9.47234225635209"><ele>72.0</ele><time>2026-04-06T07:54:38.001Z</time></trkpt><trkpt lat="45.356772193488254" lon="9.47247629014297"><ele>71.8</ele><time>2026-04-06T07:54:40.001Z</time></trkpt><trkpt lat="45.356717494614074" lon="9.472607288493316"><ele>71.6</ele><time>2026-04-06T07:54:42.001Z</time></trkpt><trkpt lat="45.35664328402143" lon="9.472738175997108"><ele>71.39999999999999</ele><time>2026-04-06T07:54:44.001Z</time></trkpt><trkpt lat="45.35657612167361" lon="9.472840552412757"><ele>71.2</ele><time>2026-04-06T07:54:46.001Z</time></trkpt><trkpt lat="45.35650994398878" lon="9.472950536584394"><ele>71.0</ele><time>2026-04-06T07:54:48.001Z</time></trkpt><trkpt lat="45.35642103066955" lon="9.472966484343386"><ele>70.66666666666667</ele><time>2026-04-06T07:54:51Z</time></trkpt><trkpt lat="45.356340295965055" lon="9.47298504398183"><ele>70.33333333333334</ele><time>2026-04-06T07:55:00Z</time></trkpt><trkpt lat="45.35625603177779" lon="9.47297265545103"><ele>70.0</ele><time>2026-04-06T07:55:02Z</time></trkpt><trkpt lat="45.3561746557791" lon="9.472964126845733"><ele>69.66666666666667</ele><time>2026-04-06T07:55:04Z</time></trkpt><trkpt lat="45.35610343153176" lon="9.472947203811465"><ele>69.33333333333333</ele><time>2026-04-06T07:55:06Z</time></trkpt><trkpt lat="45.35601351257422" lon="9.472901313294807"><ele>69.0</ele><time>2026-04-06T07:55:08Z</time></trkpt><trkpt lat="45.35592945570277" lon="9.47287070049504"><ele>69.0</ele><time>2026-04-06T07:55:10Z</time></trkpt><trkpt lat="45.35586204639132" lon="9.472855801715864"><ele>69.0</ele><time>2026-04-06T07:55:12Z</time></trkpt><trkpt lat="45.35577899920692" lon="9.47282461822079"><ele>69.0</ele><time>2026-04-06T07:55:14Z</time></trkpt><trkpt lat="45.355673387607204" lon="9.472767911940874"><ele>69.0</ele><time>2026-04-06T07:55:16Z</time></trkpt><trkpt lat="45.355569825751786" lon="9.472731354439295"><ele>69.0</ele><time>2026-04-06T07:55:18Z</time></trkpt><trkpt lat="45.355458186907114" lon="9.472662791373528"><ele>69.16666666666667</ele><time>2026-04-06T07:55:20Z</time></trkpt><trkpt lat="45.35536518020412" lon="9.472600020229326"><ele>69.33333333333333</ele><time>2026-04-06T07:55:22Z</time></trkpt><trkpt lat="45.35528118559508" lon="9.472567343370237"><ele>69.5</ele><time>2026-04-06T07:55:24Z</time></trkpt><trkpt lat="45.3552190797705" lon="9.472473238130062"><ele>69.66666666666666</ele><time>2026-04-06T07:55:28Z</time></trkpt><trkpt lat="45.355156852568435" lon="9.472535590015827"><ele>69.83333333333333</ele><time>2026-04-06T07:55:39Z</time></trkpt><trkpt lat="45.35507556296072" lon="9.472492536913473"><ele>70.0</ele><time>2026-04-06T07:55:41Z</time></trkpt><trkpt lat="45.35498630951593" lon="9.472492220099788"><ele>70.0</ele><time>2026-04-06T07:55:43Z</time></trkpt><trkpt lat="45.3549073139" lon="9.472549008248885"><ele>70.0</ele><time>2026-04-06T07:55:45Z</time></trkpt><trkpt lat="45.35483075633653" lon="9.472611964671403"><ele>70.0</ele><time>2026-04-06T07:55:46Z</time></trkpt><trkpt lat="45.35475616036895" lon="9.472662751623531"><ele>70.0</ele><time>2026-04-06T07:55:47Z</time></trkpt><trkpt lat="45.35469482556843" lon="9.472722835587692"><ele>70.0</ele><time>2026-04-06T07:55:48Z</time></trkpt><trkpt lat="45.35462648989445" lon="9.472787777222779"><ele>70.0</ele><time>2026-04-06T07:55:49Z</time></trkpt><trkpt lat="45.35455896359528" lon="9.472867077870816"><ele>70.4</ele><time>2026-04-06T07:55:51Z</time></trkpt><trkpt lat="45.3544739215618" lon="9.472930708791923"><ele>70.8</ele><time>2026-04-06T07:55:53Z</time></trkpt><trkpt lat="45.35436411147759" lon="9.472966843413666"><ele>71.2</ele><time>2026-04-06T07:55:55Z</time></trkpt><trkpt lat="45.35425266396752" lon="9.472987979942957"><ele>71.6</ele><time>2026-04-06T07:55:57Z</time></trkpt><trkpt lat="45.354186342943485" lon="9.473006505334794"><ele>72.0</ele><time>2026-04-06T07:55:58Z</time></trkpt><trkpt lat="45.354119056749305" lon="9.473030795005176"><ele>71.33333333333333</ele><time>2026-04-06T07:55:59Z</time></trkpt><trkpt lat="45.35405371102668" lon="9.47306074975411"><ele>70.66666666666667</ele><time>2026-04-06T07:56:00Z</time></trkpt><trkpt lat="45.35399165640427" lon="9.473082250948607"><ele>70.0</ele><time>2026-04-06T07:56:01Z</time></trkpt><trkpt lat="45.3539024668971" lon="9.47311211589489"><ele>69.33333333333334</ele><time>2026-04-06T07:56:03Z</time></trkpt><trkpt lat="45.3538381942615" lon="9.473133368275853"><ele>68.66666666666667</ele><time>2026-04-06T07:56:05Z</time></trkpt><trkpt lat="45.35374767426544" lon="9.47310393717546"><ele>68.0</ele><time>2026-04-06T07:56:07Z</time></trkpt><trkpt lat="45.353648431210104" lon="9.473063050931817"><ele>68.0</ele><time>2026-04-06T07:56:09.001Z</time></trkpt><trkpt lat="45.35356886170755" lon="9.473022249246062"><ele>68.0</ele><time>2026-04-06T07:56:11.001Z</time></trkpt><trkpt lat="45.353493175818066" lon="9.47297858249708"><ele>68.0</ele><time>2026-04-06T07:56:13.001Z</time></trkpt><trkpt lat="45.35341344030737" lon="9.472924698752722"><ele>68.0</ele><time>2026-04-06T07:56:15.001Z</time></trkpt><trkpt lat="45.353344075104395" lon="9.4729728859918"><ele>68.0</ele><time>2026-04-06T07:56:19.001Z</time></trkpt><trkpt lat="45.35328179706224" lon="9.473010425394602"><ele>68.0</ele><time>2026-04-06T07:56:22.001Z</time></trkpt><trkpt lat="45.35321453405802" lon="9.472992013557512"><ele>68.5</ele><time>2026-04-06T07:56:24.001Z</time></trkpt><trkpt lat="45.35317230082053" lon="9.472917047217758"><ele>69.0</ele><time>2026-04-06T07:56:27.001Z</time></trkpt><trkpt lat="45.353146480805954" lon="9.472812913835076"><ele>69.5</ele><time>2026-04-06T07:56:29.001Z</time></trkpt><trkpt lat="45.353030633525684" lon="9.472737465137028"><ele>70.0</ele><time>2026-04-06T07:56:32.001Z</time></trkpt><trkpt lat="45.35292558297353" lon="9.472682140011361"><ele>70.5</ele><time>2026-04-06T07:56:34.001Z</time></trkpt><trkpt lat="45.35286858356073" lon="9.47264381133015"><ele>71.0</ele><time>2026-04-06T07:56:35.001Z</time></trkpt><trkpt lat="45.35281529744439" lon="9.472585423282387"><ele>71.16666666666667</ele><time>2026-04-06T07:56:36.001Z</time></trkpt><trkpt lat="45.35272096719868" lon="9.472511480668622"><ele>71.33333333333334</ele><time>2026-04-06T07:56:38.001Z</time></trkpt><trkpt lat="45.35265659544" lon="9.472489919439363"><ele>71.5</ele><time>2026-04-06T07:56:39.001Z</time></trkpt><trkpt lat="45.35256387691371" lon="9.472507160711041"><ele>71.66666666666667</ele><time>2026-04-06T07:56:41.001Z</time></trkpt><trkpt lat="45.35249994066191" lon="9.47254659756403"><ele>71.83333333333333</ele><time>2026-04-06T07:56:42.001Z</time></trkpt><trkpt lat="45.35242545963408" lon="9.472582522705695"><ele>72.0</ele><time>2026-04-06T07:56:43.001Z</time></trkpt><trkpt lat="45.3523346793917" lon="9.472614312685508"><ele>72.0</ele><time>2026-04-06T07:56:44.001Z</time></trkpt><trkpt lat="45.35225737566097" lon="9.472655255762074"><ele>72.0</ele><time>2026-04-06T07:56:45Z</time></trkpt><trkpt lat="45.352134026868015" lon="9.472729709607897"><ele>72.0</ele><time>2026-04-06T07:56:47Z</time></trkpt><trkpt lat="45.35206101738893" lon="9.472748000568487"><ele>72.0</ele><time>2026-04-06T07:56:48Z</time></trkpt><trkpt lat="45.35198258735104" lon="9.472760356834758"><ele>72.0</ele><time>2026-04-06T07:56:49Z</time></trkpt><trkpt lat="45.35191720892426" lon="9.47276196227159"><ele>72.0</ele><time>2026-04-06T07:56:50Z</time></trkpt><trkpt lat="45.351852751061735" lon="9.47275573641871"><ele>72.0</ele><time>2026-04-06T07:56:51Z</time></trkpt><trkpt lat="45.35175399237006" lon="9.472745035770426"><ele>72.0</ele><time>2026-04-06T07:56:53Z</time></trkpt><trkpt lat="45.351693805393936" lon="9.472678059200021"><ele>72.0</ele><time>2026-04-06T07:57:00Z</time></trkpt><trkpt lat="45.35161032855381" lon="9.472737599875408"><ele>72.0</ele><time>2026-04-06T07:57:04Z</time></trkpt><trkpt lat="45.35152960406512" lon="9.472851600193911"><ele>72.0</ele><time>2026-04-06T07:57:05Z</time></trkpt><trkpt lat="45.35146246706116" lon="9.47294769976794"><ele>72.0</ele><time>2026-04-06T07:57:06Z</time></trkpt><trkpt lat="45.351376981430576" lon="9.47304634517806"><ele>72.0</ele><time>2026-04-06T07:57:07Z</time></trkpt><trkpt lat="45.35129422598202" lon="9.473134763005513"><ele>72.0</ele><time>2026-04-06T07:57:08Z</time></trkpt><trkpt lat="45.35121444208445" lon="9.473219789497334"><ele>72.0</ele><time>2026-04-06T07:57:09Z</time></trkpt><trkpt lat="45.3511415242185" lon="9.473296880617278"><ele>72.0</ele><time>2026-04-06T07:57:10Z</time></trkpt><trkpt lat="45.35107143975592" lon="9.47337305023763"><ele>72.0</ele><time>2026-04-06T07:57:11Z</time></trkpt><trkpt lat="45.35101667703518" lon="9.473443378483616"><ele>72.0</ele><time>2026-04-06T07:57:12Z</time></trkpt><trkpt lat="45.350962293425965" lon="9.473533876259037"><ele>72.0</ele><time>2026-04-06T07:57:13Z</time></trkpt><trkpt lat="45.35089495655921" lon="9.473660784473172"><ele>72.0</ele><time>2026-04-06T07:57:15Z</time></trkpt><trkpt lat="45.35084721333156" lon="9.473763058649459"><ele>72.0</ele><time>2026-04-06T07:57:17Z</time></trkpt><trkpt lat="45.35078627880844" lon="9.473835638743141"><ele>72.0</ele><time>2026-04-06T07:57:19Z</time></trkpt><trkpt lat="45.35068559995676" lon="9.473915436421201"><ele>72.0</ele><time>2026-04-06T07:57:21Z</time></trkpt><trkpt lat="45.35058203623451" lon="9.473985438119762"><ele>72.0</ele><time>2026-04-06T07:57:23Z</time></trkpt><trkpt lat="45.35052766637291" lon="9.474042688401429"><ele>72.0</ele><time>2026-04-06T07:57:24Z</time></trkpt><trkpt lat="45.35046057077024" lon="9.474103960625477"><ele>72.0</ele><time>2026-04-06T07:57:25Z</time></trkpt><trkpt lat="45.35038452197923" lon="9.47419600921855"><ele>72.0</ele><time>2026-04-06T07:57:26Z</time></trkpt><trkpt lat="45.35030720514353" lon="9.474302321606924"><ele>71.6</ele><time>2026-04-06T07:57:27Z</time></trkpt><trkpt lat="45.350226998592014" lon="9.47439550108574"><ele>71.2</ele><time>2026-04-06T07:57:28Z</time></trkpt><trkpt lat="45.35014586140816" lon="9.474481670653933"><ele>70.8</ele><time>2026-04-06T07:57:29Z</time></trkpt><trkpt lat="45.35007024332137" lon="9.47457010921296"><ele>70.4</ele><time>2026-04-06T07:57:30Z</time></trkpt><trkpt lat="45.35000020439818" lon="9.47466063207921"><ele>70.0</ele><time>2026-04-06T07:57:31Z</time></trkpt><trkpt lat="45.34993164747067" lon="9.474739970826892"><ele>69.83333333333333</ele><time>2026-04-06T07:57:32Z</time></trkpt><trkpt lat="45.349864868776855" lon="9.4748224708539"><ele>69.66666666666666</ele><time>2026-04-06T07:57:33Z</time></trkpt><trkpt lat="45.3497969006283" lon="9.4749174058237"><ele>69.5</ele><time>2026-04-06T07:57:34Z</time></trkpt><trkpt lat="45.34972256603038" lon="9.475006597104894"><ele>69.33333333333333</ele><time>2026-04-06T07:57:35Z</time></trkpt><trkpt lat="45.349649863072166" lon="9.475080754812142"><ele>69.16666666666667</ele><time>2026-04-06T07:57:36Z</time></trkpt><trkpt lat="45.34960197934027" lon="9.475158274642528"><ele>69.0</ele><time>2026-04-06T07:57:37Z</time></trkpt><trkpt lat="45.34955045730267" lon="9.475247704597912"><ele>69.0</ele><time>2026-04-06T07:57:38Z</time></trkpt><trkpt lat="45.34950318522597" lon="9.475341932783014"><ele>69.0</ele><time>2026-04-06T07:57:39Z</time></trkpt><trkpt lat="45.349422355287345" lon="9.475510789289945"><ele>69.0</ele><time>2026-04-06T07:57:41Z</time></trkpt><trkpt lat="45.349349319528294" lon="9.475598672667461"><ele>69.0</ele><time>2026-04-06T07:57:43Z</time></trkpt><trkpt lat="45.34928393189352" lon="9.475617876780316"><ele>69.0</ele><time>2026-04-06T07:57:46Z</time></trkpt><trkpt lat="45.34920683072567" lon="9.475559383871223"><ele>69.0</ele><time>2026-04-06T07:57:56Z</time></trkpt><trkpt lat="45.349168073543154" lon="9.475461908423265"><ele>69.0</ele><time>2026-04-06T07:57:57Z</time></trkpt><trkpt lat="45.349105923534" lon="9.475347752583508"><ele>69.0</ele><time>2026-04-06T07:57:58Z</time></trkpt><trkpt lat="45.34905152301554" lon="9.475201449960538"><ele>69.0</ele><time>2026-04-06T07:57:59Z</time></trkpt><trkpt lat="45.348979089370296" lon="9.475087190306825"><ele>69.0</ele><time>2026-04-06T07:58:00Z</time></trkpt><trkpt lat="45.34888482709099" lon="9.474934602380074"><ele>69.0</ele><time>2026-04-06T07:58:01Z</time></trkpt><trkpt lat="45.34877233217541" lon="9.474746361590153"><ele>69.0</ele><time>2026-04-06T07:58:02Z</time></trkpt><trkpt lat="45.34867999015181" lon="9.474572471707658"><ele>69.0</ele><time>2026-04-06T07:58:03Z</time></trkpt><trkpt lat="45.348595026849786" lon="9.47441132015912"><ele>69.0</ele><time>2026-04-06T07:58:04Z</time></trkpt><trkpt lat="45.34850259314814" lon="9.474235884018064"><ele>69.0</ele><time>2026-04-06T07:58:05Z</time></trkpt><trkpt lat="45.34839600553603" lon="9.474034713825345"><ele>69.0</ele><time>2026-04-06T07:58:06Z</time></trkpt><trkpt lat="45.34827327368728" lon="9.473807582087796"><ele>69.0</ele><time>2026-04-06T07:58:07Z</time></trkpt><trkpt lat="45.34814007633822" lon="9.473561082561066"><ele>69.0</ele><time>2026-04-06T07:58:08Z</time></trkpt><trkpt lat="45.34801282775331" lon="9.473330200846345"><ele>69.0</ele><time>2026-04-06T07:58:09Z</time></trkpt><trkpt lat="45.34788340611211" lon="9.47309645223239"><ele>69.33333333333333</ele><time>2026-04-06T07:58:10Z</time></trkpt><trkpt lat="45.34776326656303" lon="9.472873923140163"><ele>69.66666666666666</ele><time>2026-04-06T07:58:11Z</time></trkpt><trkpt lat="45.347658648822396" lon="9.472693873086222"><ele>70.0</ele><time>2026-04-06T07:58:12Z</time></trkpt><trkpt lat="45.34755309479659" lon="9.472553314663399"><ele>70.0</ele><time>2026-04-06T07:58:13Z</time></trkpt><trkpt lat="45.34743823249559" lon="9.472452432590998"><ele>70.0</ele><time>2026-04-06T07:58:14.001Z</time></trkpt><trkpt lat="45.34733657127033" lon="9.472347335460848"><ele>70.0</ele><time>2026-04-06T07:58:15.001Z</time></trkpt><trkpt lat="45.347252391126375" lon="9.472222377558497"><ele>70.0</ele><time>2026-04-06T07:58:16.001Z</time></trkpt><trkpt lat="45.34715639508712" lon="9.472137413961036"><ele>70.0</ele><time>2026-04-06T07:58:17.001Z</time></trkpt><trkpt lat="45.34707071651614" lon="9.472029418453484"><ele>70.0</ele><time>2026-04-06T07:58:18.001Z</time></trkpt><trkpt lat="45.34700641355673" lon="9.471911017517694"><ele>70.0</ele><time>2026-04-06T07:58:19.001Z</time></trkpt><trkpt lat="45.34693490171359" lon="9.47180760502726"><ele>70.0</ele><time>2026-04-06T07:58:20.001Z</time></trkpt><trkpt lat="45.34685680861278" lon="9.471705326083404"><ele>70.0</ele><time>2026-04-06T07:58:21.001Z</time></trkpt><trkpt lat="45.346771434061225" lon="9.47161964554644"><ele>70.0</ele><time>2026-04-06T07:58:22.001Z</time></trkpt><trkpt lat="45.346677794285945" lon="9.47155772588805"><ele>70.0</ele><time>2026-04-06T07:58:23.001Z</time></trkpt><trkpt lat="45.34657700825321" lon="9.471532629949488"><ele>70.0</ele><time>2026-04-06T07:58:24.001Z</time></trkpt><trkpt lat="45.34647746386921" lon="9.47151212123288"><ele>70.0</ele><time>2026-04-06T07:58:25.001Z</time></trkpt><trkpt lat="45.346373230138035" lon="9.471510251427832"><ele>70.0</ele><time>2026-04-06T07:58:26.001Z</time></trkpt><trkpt lat="45.34628471327489" lon="9.471528917026514"><ele>69.66666666666666</ele><time>2026-04-06T07:58:27.001Z</time></trkpt><trkpt lat="45.346196404828035" lon="9.471571919739905"><ele>69.33333333333333</ele><time>2026-04-06T07:58:28Z</time></trkpt><trkpt lat="45.34610675204797" lon="9.471604386242506"><ele>69.0</ele><time>2026-04-06T07:58:29Z</time></trkpt><trkpt lat="45.34603645131515" lon="9.471633002448511"><ele>68.66666666666667</ele><time>2026-04-06T07:58:30Z</time></trkpt><trkpt lat="45.34596716062448" lon="9.471651878583717"><ele>68.33333333333334</ele><time>2026-04-06T07:58:32Z</time></trkpt><trkpt lat="45.345970750330814" lon="9.471789760615488"><ele>68.0</ele><time>2026-04-06T07:58:36Z</time></trkpt><trkpt lat="45.34603488841668" lon="9.471920172020887"><ele>68.0</ele><time>2026-04-06T07:58:45Z</time></trkpt><trkpt lat="45.34608392856115" lon="9.471996057070921"><ele>68.0</ele><time>2026-04-06T07:58:46Z</time></trkpt><trkpt lat="45.34613820467199" lon="9.47209323759959"><ele>68.0</ele><time>2026-04-06T07:58:47Z</time></trkpt><trkpt lat="45.34618276870331" lon="9.472207503228718"><ele>68.0</ele><time>2026-04-06T07:58:48Z</time></trkpt><trkpt lat="45.34624379017147" lon="9.472303013817077"><ele>68.0</ele><time>2026-04-06T07:58:49Z</time></trkpt><trkpt lat="45.34629478900863" lon="9.472402315283508"><ele>68.0</ele><time>2026-04-06T07:58:50Z</time></trkpt><trkpt lat="45.346350327664574" lon="9.472505991313987"><ele>68.33333333333334</ele><time>2026-04-06T07:58:51Z</time></trkpt><trkpt lat="45.34639954419165" lon="9.472599426890977"><ele>68.66666666666667</ele><time>2026-04-06T07:58:52Z</time></trkpt><trkpt lat="45.346448291868406" lon="9.472691684093745"><ele>69.0</ele><time>2026-04-06T07:58:53Z</time></trkpt><trkpt lat="45.34649329935239" lon="9.472785687592467"><ele>69.33333333333333</ele><time>2026-04-06T07:58:54Z</time></trkpt><trkpt lat="45.34653396679258" lon="9.47287410653401"><ele>69.66666666666666</ele><time>2026-04-06T07:58:55Z</time></trkpt><trkpt lat="45.346571580544676" lon="9.472947436936817"><ele>70.0</ele><time>2026-04-06T07:58:56Z</time></trkpt><trkpt lat="45.34662433527241" lon="9.473038239271492"><ele>70.0</ele><time>2026-04-06T07:58:58Z</time></trkpt><trkpt lat="45.34667092307602" lon="9.473122271817449"><ele>70.0</ele><time>2026-04-06T07:59:01Z</time></trkpt><trkpt lat="45.346720634118924" lon="9.473216161728725"><ele>70.0</ele><time>2026-04-06T07:59:04Z</time></trkpt><trkpt lat="45.34677798904007" lon="9.473320230699521"><ele>70.0</ele><time>2026-04-06T07:59:06Z</time></trkpt><trkpt lat="45.34684257976035" lon="9.473475862438484"><ele>70.0</ele><time>2026-04-06T07:59:08Z</time></trkpt><trkpt lat="45.346892047369174" lon="9.473567677440496"><ele>70.0</ele><time>2026-04-06T07:59:09Z</time></trkpt><trkpt lat="45.346949611466215" lon="9.473644062903405"><ele>70.0</ele><time>2026-04-06T07:59:10Z</time></trkpt><trkpt lat="45.346990391350595" lon="9.473721968339069"><ele>70.0</ele><time>2026-04-06T07:59:11Z</time></trkpt><trkpt lat="45.347029775273796" lon="9.473796381455113"><ele>70.0</ele><time>2026-04-06T07:59:12Z</time></trkpt><trkpt lat="45.34706635591116" lon="9.473870491395802"><ele>70.0</ele><time>2026-04-06T07:59:13Z</time></trkpt><trkpt lat="45.347117842823664" lon="9.4739806490607"><ele>70.0</ele><time>2026-04-06T07:59:15Z</time></trkpt><trkpt lat="45.34707145994898" lon="9.473890854700471"><ele>70.0</ele><time>2026-04-06T07:59:29Z</time></trkpt><trkpt lat="45.347006342999855" lon="9.473791324008538"><ele>70.0</ele><time>2026-04-06T07:59:30Z</time></trkpt><trkpt lat="45.34694173466088" lon="9.473672724614522"><ele>70.0</ele><time>2026-04-06T07:59:31Z</time></trkpt><trkpt lat="45.346878839412646" lon="9.473524786738535"><ele>70.0</ele><time>2026-04-06T07:59:32Z</time></trkpt><trkpt lat="45.346831432764674" lon="9.473378932608037"><ele>70.0</ele><time>2026-04-06T07:59:33Z</time></trkpt><trkpt lat="45.34675793443309" lon="9.47324209421686"><ele>70.0</ele><time>2026-04-06T07:59:34Z</time></trkpt><trkpt lat="45.346678509007695" lon="9.473091252450855"><ele>70.0</ele><time>2026-04-06T07:59:35Z</time></trkpt><trkpt lat="45.34660559894432" lon="9.472951726062778"><ele>70.0</ele><time>2026-04-06T07:59:36Z</time></trkpt><trkpt lat="45.346535627031024" lon="9.472817452328119"><ele>70.0</ele><time>2026-04-06T07:59:37Z</time></trkpt><trkpt lat="45.346459720915696" lon="9.47267171461562"><ele>70.0</ele><time>2026-04-06T07:59:38Z</time></trkpt><trkpt lat="45.3463803782707" lon="9.472518105453883"><ele>70.0</ele><time>2026-04-06T07:59:39Z</time></trkpt><trkpt lat="45.34630366917061" lon="9.472365417763779"><ele>70.0</ele><time>2026-04-06T07:59:40Z</time></trkpt><trkpt lat="45.346230849641074" lon="9.472221508128554"><ele>70.0</ele><time>2026-04-06T07:59:41Z</time></trkpt><trkpt lat="45.34616901858891" lon="9.472100071296454"><ele>69.6</ele><time>2026-04-06T07:59:42Z</time></trkpt><trkpt lat="45.34611007398593" lon="9.471987863352496"><ele>69.2</ele><time>2026-04-06T07:59:43Z</time></trkpt><trkpt lat="45.34605814147547" lon="9.471890896136689"><ele>68.8</ele><time>2026-04-06T07:59:44Z</time></trkpt><trkpt lat="45.34601188633726" lon="9.471804016467251"><ele>68.4</ele><time>2026-04-06T07:59:45Z</time></trkpt><trkpt lat="45.345955436322754" lon="9.471692033784278"><ele>68.0</ele><time>2026-04-06T07:59:47Z</time></trkpt><trkpt lat="45.345849474127895" lon="9.471593219789483"><ele>68.0</ele><time>2026-04-06T07:59:50Z</time></trkpt><trkpt lat="45.34576294541251" lon="9.471578054358458"><ele>68.0</ele><time>2026-04-06T07:59:51Z</time></trkpt><trkpt lat="45.3456795733052" lon="9.47155256644516"><ele>68.0</ele><time>2026-04-06T07:59:52Z</time></trkpt><trkpt lat="45.34560911428311" lon="9.47153974606099"><ele>68.0</ele><time>2026-04-06T07:59:53Z</time></trkpt><trkpt lat="45.345549064718746" lon="9.47150168195647"><ele>68.0</ele><time>2026-04-06T07:59:54Z</time></trkpt><trkpt lat="45.34548010607588" lon="9.471506374160539"><ele>68.0</ele><time>2026-04-06T07:59:55Z</time></trkpt><trkpt lat="45.34540300667623" lon="9.471471558432345"><ele>68.16666666666667</ele><time>2026-04-06T07:59:56Z</time></trkpt><trkpt lat="45.34530397372397" lon="9.47145171356836"><ele>68.33333333333334</ele><time>2026-04-06T07:59:57Z</time></trkpt><trkpt lat="45.34518966396793" lon="9.471440913342827"><ele>68.5</ele><time>2026-04-06T07:59:58Z</time></trkpt><trkpt lat="45.3450973728632" lon="9.471388957332618"><ele>68.66666666666667</ele><time>2026-04-06T07:59:59Z</time></trkpt><trkpt lat="45.345032619354235" lon="9.471374393797582"><ele>68.83333333333333</ele><time>2026-04-06T08:00:00Z</time></trkpt><trkpt lat="45.34499645754487" lon="9.471289565985032"><ele>69.0</ele><time>2026-04-06T08:00:01Z</time></trkpt><trkpt lat="45.34498961137119" lon="9.471170784061837"><ele>69.2</ele><time>2026-04-06T08:00:02Z</time></trkpt><trkpt lat="45.344983257032254" lon="9.471068288234397"><ele>69.4</ele><time>2026-04-06T08:00:03Z</time></trkpt><trkpt lat="45.34495130711954" lon="9.470897315035268"><ele>69.6</ele><time>2026-04-06T08:00:05Z</time></trkpt><trkpt lat="45.34494076314258" lon="9.470780936744495"><ele>69.8</ele><time>2026-04-06T08:00:06Z</time></trkpt><trkpt lat="45.344937236037474" lon="9.470639528752208"><ele>70.0</ele><time>2026-04-06T08:00:07Z</time></trkpt><trkpt lat="45.3449182203809" lon="9.470491694062062"><ele>69.8</ele><time>2026-04-06T08:00:08Z</time></trkpt><trkpt lat="45.34490005533875" lon="9.470362294004465"><ele>69.6</ele><time>2026-04-06T08:00:09Z</time></trkpt><trkpt lat="45.34488282905877" lon="9.47024442472715"><ele>69.4</ele><time>2026-04-06T08:00:10Z</time></trkpt><trkpt lat="45.3448608691424" lon="9.470098453320727"><ele>69.2</ele><time>2026-04-06T08:00:11Z</time></trkpt><trkpt lat="45.344823366132594" lon="9.46993760850685"><ele>69.0</ele><time>2026-04-06T08:00:12Z</time></trkpt><trkpt lat="45.34480344043329" lon="9.46974456859409"><ele>68.75</ele><time>2026-04-06T08:00:13Z</time></trkpt><trkpt lat="45.344783416268996" lon="9.469539607478232"><ele>68.5</ele><time>2026-04-06T08:00:14Z</time></trkpt><trkpt lat="45.34474023950194" lon="9.469352853765235"><ele>68.25</ele><time>2026-04-06T08:00:15Z</time></trkpt><trkpt lat="45.344729274573126" lon="9.469176427677498"><ele>68.0</ele><time>2026-04-06T08:00:16Z</time></trkpt><trkpt lat="45.344703866196056" lon="9.469066243608856"><ele>68.4</ele><time>2026-04-06T08:00:17Z</time></trkpt><trkpt lat="45.344666346016936" lon="9.468904870724899"><ele>68.8</ele><time>2026-04-06T08:00:19Z</time></trkpt><trkpt lat="45.34458099310747" lon="9.468780730497192"><ele>69.2</ele><time>2026-04-06T08:00:21Z</time></trkpt><trkpt lat="45.34445213205394" lon="9.46880829026921"><ele>69.6</ele><time>2026-04-06T08:00:23Z</time></trkpt><trkpt lat="45.344391176411925" lon="9.468831987578504"><ele>70.0</ele><time>2026-04-06T08:00:24Z</time></trkpt><trkpt lat="45.344282859557566" lon="9.468869728656028"><ele>70.0</ele><time>2026-04-06T08:00:26Z</time></trkpt><trkpt lat="45.344216061526495" lon="9.468902452698446"><ele>70.0</ele><time>2026-04-06T08:00:28Z</time></trkpt><trkpt lat="45.34421172629696" lon="9.469062284700348"><ele>70.0</ele><time>2026-04-06T08:00:32Z</time></trkpt><trkpt lat="45.344238166753634" lon="9.46914966395869"><ele>70.0</ele><time>2026-04-06T08:00:34Z</time></trkpt><trkpt lat="45.34426941650162" lon="9.469260186974958"><ele>70.0</ele><time>2026-04-06T08:00:35Z</time></trkpt><trkpt lat="45.34428777997244" lon="9.469377942890432"><ele>70.0</ele><time>2026-04-06T08:00:36Z</time></trkpt><trkpt lat="45.34429917843369" lon="9.46951520357083"><ele>69.8</ele><time>2026-04-06T08:00:37Z</time></trkpt><trkpt lat="45.344315567034755" lon="9.469662839859282"><ele>69.6</ele><time>2026-04-06T08:00:38Z</time></trkpt><trkpt lat="45.34433151594987" lon="9.469800655565287"><ele>69.4</ele><time>2026-04-06T08:00:39Z</time></trkpt><trkpt lat="45.34434705209952" lon="9.469949528348705"><ele>69.2</ele><time>2026-04-06T08:00:40Z</time></trkpt><trkpt lat="45.34435382381024" lon="9.470085870317469"><ele>69.0</ele><time>2026-04-06T08:00:41Z</time></trkpt><trkpt lat="45.34435880114799" lon="9.470228456002346"><ele>69.0</ele><time>2026-04-06T08:00:42Z</time></trkpt><trkpt lat="45.34435832835415" lon="9.470372368545108"><ele>69.0</ele><time>2026-04-06T08:00:43Z</time></trkpt><trkpt lat="45.344354882012645" lon="9.470528725975717"><ele>69.0</ele><time>2026-04-06T08:00:44Z</time></trkpt><trkpt lat="45.34434474365576" lon="9.470677538089733"><ele>69.0</ele><time>2026-04-06T08:00:45Z</time></trkpt><trkpt lat="45.344335362640294" lon="9.470818325325206"><ele>69.0</ele><time>2026-04-06T08:00:46Z</time></trkpt><trkpt lat="45.34432002952077" lon="9.470969713893867"><ele>69.2</ele><time>2026-04-06T08:00:47Z</time></trkpt><trkpt lat="45.344296871187744" lon="9.47112287735195"><ele>69.4</ele><time>2026-04-06T08:00:48Z</time></trkpt><trkpt lat="45.344273830037345" lon="9.471280651533306"><ele>69.6</ele><time>2026-04-06T08:00:49Z</time></trkpt><trkpt lat="45.34424155318935" lon="9.471428513923401"><ele>69.8</ele><time>2026-04-06T08:00:50Z</time></trkpt><trkpt lat="45.34420608304129" lon="9.471571807342402"><ele>70.0</ele><time>2026-04-06T08:00:51Z</time></trkpt><trkpt lat="45.34416301222067" lon="9.471723497088595"><ele>70.0</ele><time>2026-04-06T08:00:52Z</time></trkpt><trkpt lat="45.344108711987204" lon="9.471875048283584"><ele>70.0</ele><time>2026-04-06T08:00:53Z</time></trkpt><trkpt lat="45.344051415418825" lon="9.472035496398187"><ele>70.0</ele><time>2026-04-06T08:00:54Z</time></trkpt><trkpt lat="45.343989609783414" lon="9.472197559536196"><ele>70.0</ele><time>2026-04-06T08:00:55Z</time></trkpt><trkpt lat="45.34392722029465" lon="9.472369153974272"><ele>70.25</ele><time>2026-04-06T08:00:56Z</time></trkpt><trkpt lat="45.34386231219174" lon="9.47254644510576"><ele>70.5</ele><time>2026-04-06T08:00:57Z</time></trkpt><trkpt lat="45.34380343294178" lon="9.472709890793988"><ele>70.75</ele><time>2026-04-06T08:00:58Z</time></trkpt><trkpt lat="45.343744477430356" lon="9.472864088653017"><ele>71.0</ele><time>2026-04-06T08:00:59Z</time></trkpt><trkpt lat="45.343692236455645" lon="9.472999025218913"><ele>71.5</ele><time>2026-04-06T08:01:00Z</time></trkpt><trkpt lat="45.34363990480849" lon="9.473145677089102"><ele>72.0</ele><time>2026-04-06T08:01:01Z</time></trkpt><trkpt lat="45.34357990962925" lon="9.473310848170314"><ele>72.5</ele><time>2026-04-06T08:01:02Z</time></trkpt><trkpt lat="45.34351385313277" lon="9.473484095835737"><ele>73.0</ele><time>2026-04-06T08:01:03Z</time></trkpt><trkpt lat="45.34344608419303" lon="9.47365942849396"><ele>72.25</ele><time>2026-04-06T08:01:04Z</time></trkpt><trkpt lat="45.3433875695615" lon="9.473819110193464"><ele>71.5</ele><time>2026-04-06T08:01:05Z</time></trkpt><trkpt lat="45.34332634073495" lon="9.47397910966178"><ele>70.75</ele><time>2026-04-06T08:01:06Z</time></trkpt><trkpt lat="45.3432686592392" lon="9.474136052008241"><ele>70.0</ele><time>2026-04-06T08:01:07Z</time></trkpt><trkpt lat="45.34321073885109" lon="9.474298820136074"><ele>70.0</ele><time>2026-04-06T08:01:08Z</time></trkpt><trkpt lat="45.34315165032907" lon="9.474460537037865"><ele>70.0</ele><time>2026-04-06T08:01:09Z</time></trkpt><trkpt lat="45.343095909211875" lon="9.474603837969783"><ele>70.0</ele><time>2026-04-06T08:01:10Z</time></trkpt><trkpt lat="45.34304237032048" lon="9.474761792115476"><ele>70.0</ele><time>2026-04-06T08:01:11Z</time></trkpt><trkpt lat="45.342980648801" lon="9.474936898151872"><ele>69.75</ele><time>2026-04-06T08:01:12Z</time></trkpt><trkpt lat="45.342916802587176" lon="9.475114732404643"><ele>69.5</ele><time>2026-04-06T08:01:13Z</time></trkpt><trkpt lat="45.3428498043592" lon="9.47528624875763"><ele>69.25</ele><time>2026-04-06T08:01:14Z</time></trkpt><trkpt lat="45.34278913490914" lon="9.475456728267394"><ele>69.0</ele><time>2026-04-06T08:01:15Z</time></trkpt><trkpt lat="45.34273023865132" lon="9.475622591497459"><ele>68.75</ele><time>2026-04-06T08:01:16Z</time></trkpt><trkpt lat="45.342661033459336" lon="9.475796004933468"><ele>68.5</ele><time>2026-04-06T08:01:17Z</time></trkpt><trkpt lat="45.34259577198306" lon="9.47598161284914"><ele>68.25</ele><time>2026-04-06T08:01:18Z</time></trkpt><trkpt lat="45.3425245090237" lon="9.476157660638522"><ele>68.0</ele><time>2026-04-06T08:01:19Z</time></trkpt><trkpt lat="45.34245260431861" lon="9.476333111116272"><ele>68.5</ele><time>2026-04-06T08:01:20Z</time></trkpt><trkpt lat="45.34238931826958" lon="9.476500885581743"><ele>69.0</ele><time>2026-04-06T08:01:21Z</time></trkpt><trkpt lat="45.34232766694195" lon="9.476673002146578"><ele>69.5</ele><time>2026-04-06T08:01:22Z</time></trkpt><trkpt lat="45.342255805162125" lon="9.476856782671755"><ele>70.0</ele><time>2026-04-06T08:01:23Z</time></trkpt><trkpt lat="45.34219460814247" lon="9.477034138933167"><ele>69.5</ele><time>2026-04-06T08:01:24Z</time></trkpt><trkpt lat="45.34212373548586" lon="9.47720580353659"><ele>69.0</ele><time>2026-04-06T08:01:25Z</time></trkpt><trkpt lat="45.342055058564924" lon="9.477394022033074"><ele>68.5</ele><time>2026-04-06T08:01:26Z</time></trkpt><trkpt lat="45.34199279044092" lon="9.477555685298483"><ele>68.0</ele><time>2026-04-06T08:01:27Z</time></trkpt><trkpt lat="45.341928476917666" lon="9.477734467158411"><ele>68.0</ele><time>2026-04-06T08:01:28Z</time></trkpt><trkpt lat="45.34186191982141" lon="9.477916167443754"><ele>68.0</ele><time>2026-04-06T08:01:29Z</time></trkpt><trkpt lat="45.3418065740301" lon="9.47804760468254"><ele>68.0</ele><time>2026-04-06T08:01:30Z</time></trkpt><trkpt lat="45.341751237872785" lon="9.478194617848176"><ele>68.0</ele><time>2026-04-06T08:01:31Z</time></trkpt><trkpt lat="45.341707018582184" lon="9.478306425670258"><ele>67.8</ele><time>2026-04-06T08:01:32Z</time></trkpt><trkpt lat="45.341669609521944" lon="9.47841222373059"><ele>67.6</ele><time>2026-04-06T08:01:33Z</time></trkpt><trkpt lat="45.34164828221222" lon="9.478497218049544"><ele>67.4</ele><time>2026-04-06T08:01:34Z</time></trkpt><trkpt lat="45.341626988861954" lon="9.478662285828447"><ele>67.2</ele><time>2026-04-06T08:01:36Z</time></trkpt><trkpt lat="45.341622441396886" lon="9.478791000738092"><ele>67.0</ele><time>2026-04-06T08:01:38Z</time></trkpt><trkpt lat="45.341544507560954" lon="9.478870852370317"><ele>67.0</ele><time>2026-04-06T08:01:41Z</time></trkpt><trkpt lat="45.34144523118489" lon="9.478897175476584"><ele>67.0</ele><time>2026-04-06T08:01:43Z</time></trkpt><trkpt lat="45.34142674060133" lon="9.47902874512156"><ele>67.0</ele><time>2026-04-06T08:01:44Z</time></trkpt><trkpt lat="45.34126124867785" lon="9.478989045693494"><ele>67.0</ele><time>2026-04-06T08:01:45Z</time></trkpt><trkpt lat="45.34117431093737" lon="9.479027142758023"><ele>67.0</ele><time>2026-04-06T08:01:46Z</time></trkpt><trkpt lat="45.34109388775725" lon="9.479060328303337"><ele>67.0</ele><time>2026-04-06T08:01:47Z</time></trkpt><trkpt lat="45.341009858663405" lon="9.479092467911984"><ele>67.0</ele><time>2026-04-06T08:01:48Z</time></trkpt><trkpt lat="45.34091427994112" lon="9.479137147945574"><ele>67.0</ele><time>2026-04-06T08:01:49Z</time></trkpt><trkpt lat="45.34081502598902" lon="9.479180925201206"><ele>67.0</ele><time>2026-04-06T08:01:50Z</time></trkpt><trkpt lat="45.340704088267564" lon="9.479221821266465"><ele>67.0</ele><time>2026-04-06T08:01:51Z</time></trkpt><trkpt lat="45.34060923077394" lon="9.47925439019237"><ele>67.0</ele><time>2026-04-06T08:01:52Z</time></trkpt><trkpt lat="45.34052722254958" lon="9.479284643583917"><ele>67.0</ele><time>2026-04-06T08:01:53Z</time></trkpt><trkpt lat="45.340456112262906" lon="9.479305652657171"><ele>67.0</ele><time>2026-04-06T08:01:54Z</time></trkpt><trkpt lat="45.3403922004235" lon="9.479338132497704"><ele>67.0</ele><time>2026-04-06T08:01:55Z</time></trkpt><trkpt lat="45.34030950577206" lon="9.479389631480315"><ele>67.0</ele><time>2026-04-06T08:01:56Z</time></trkpt><trkpt lat="45.34021539542345" lon="9.479453708227686"><ele>67.0</ele><time>2026-04-06T08:01:57Z</time></trkpt><trkpt lat="45.34013602158092" lon="9.479518577324837"><ele>67.0</ele><time>2026-04-06T08:01:58Z</time></trkpt><trkpt lat="45.34006598651637" lon="9.479578344334636"><ele>67.0</ele><time>2026-04-06T08:01:59Z</time></trkpt><trkpt lat="45.33998956746376" lon="9.479628128515776"><ele>67.0</ele><time>2026-04-06T08:02:00Z</time></trkpt><trkpt lat="45.33990602704878" lon="9.479679529613136"><ele>67.0</ele><time>2026-04-06T08:02:01Z</time></trkpt><trkpt lat="45.33981926483326" lon="9.479736805951054"><ele>67.0</ele><time>2026-04-06T08:02:02Z</time></trkpt><trkpt lat="45.33972658406899" lon="9.479793650082335"><ele>66.75</ele><time>2026-04-06T08:02:03Z</time></trkpt><trkpt lat="45.33955597563925" lon="9.479573474549769"><ele>66.5</ele><time>2026-04-06T08:02:04Z</time></trkpt><trkpt lat="45.33946611544378" lon="9.479626649988253"><ele>66.25</ele><time>2026-04-06T08:02:05Z</time></trkpt><trkpt lat="45.339383741415354" lon="9.47967345639145"><ele>66.0</ele><time>2026-04-06T08:02:06Z</time></trkpt><trkpt lat="45.33931725364422" lon="9.479702194379687"><ele>66.0</ele><time>2026-04-06T08:02:07Z</time></trkpt><trkpt lat="45.33924963885498" lon="9.47972724247799"><ele>66.0</ele><time>2026-04-06T08:02:08Z</time></trkpt><trkpt lat="45.339184569500475" lon="9.479745690474575"><ele>66.0</ele><time>2026-04-06T08:02:09Z</time></trkpt><trkpt lat="45.339105693299985" lon="9.479769013635872"><ele>66.0</ele><time>2026-04-06T08:02:10Z</time></trkpt><trkpt lat="45.33900023167014" lon="9.479797197363709"><ele>66.0</ele><time>2026-04-06T08:02:12Z</time></trkpt><trkpt lat="45.338889660366206" lon="9.479810096543934"><ele>66.0</ele><time>2026-04-06T08:02:14Z</time></trkpt><trkpt lat="45.3388100675449" lon="9.479815656520216"><ele>67.33333333333333</ele><time>2026-04-06T08:02:15Z</time></trkpt><trkpt lat="45.33871909577685" lon="9.479822271271908"><ele>68.66666666666666</ele><time>2026-04-06T08:02:17Z</time></trkpt><trkpt lat="45.33865786728993" lon="9.479845764781166"><ele>70.0</ele><time>2026-04-06T08:02:19Z</time></trkpt><trkpt lat="45.3385880517998" lon="9.480572578874725"><ele>70.16666666666666</ele><time>2026-04-06T08:02:21Z</time></trkpt><trkpt lat="45.338536813937985" lon="9.48065704148573"><ele>70.33333333333333</ele><time>2026-04-06T08:02:24Z</time></trkpt><trkpt lat="45.33846004224094" lon="9.480690557363907"><ele>70.5</ele><time>2026-04-06T08:02:26Z</time></trkpt><trkpt lat="45.33840389347174" lon="9.480752908918513"><ele>70.66666666666667</ele><time>2026-04-06T08:02:28Z</time></trkpt><trkpt lat="45.33837280173024" lon="9.480832463662708"><ele>70.83333333333334</ele><time>2026-04-06T08:02:30Z</time></trkpt><trkpt lat="45.33835146310115" lon="9.48095865360153"><ele>71.0</ele><time>2026-04-06T08:02:32Z</time></trkpt><trkpt lat="45.338289710263155" lon="9.481065058233236"><ele>71.0</ele><time>2026-04-06T08:02:34Z</time></trkpt><trkpt lat="45.338205110065225" lon="9.481138504050064"><ele>71.0</ele><time>2026-04-06T08:02:36Z</time></trkpt><trkpt lat="45.338144630415336" lon="9.481238717596929"><ele>71.0</ele><time>2026-04-06T08:02:38Z</time></trkpt><trkpt lat="45.33811363930471" lon="9.481320077068766"><ele>71.0</ele><time>2026-04-06T08:02:39Z</time></trkpt><trkpt lat="45.33802763453485" lon="9.481471363965857"><ele>71.0</ele><time>2026-04-06T08:02:41Z</time></trkpt><trkpt lat="45.33799618678678" lon="9.481549788697595"><ele>71.0</ele><time>2026-04-06T08:02:42Z</time></trkpt><trkpt lat="45.337965296752735" lon="9.48163868987067"><ele>71.0</ele><time>2026-04-06T08:02:43Z</time></trkpt><trkpt lat="45.33791879609615" lon="9.481752481658681"><ele>71.0</ele><time>2026-04-06T08:02:45Z</time></trkpt><trkpt lat="45.33790142570389" lon="9.481843373770143"><ele>71.0</ele><time>2026-04-06T08:02:47Z</time></trkpt><trkpt lat="45.337845818201856" lon="9.481964452990352"><ele>71.0</ele><time>2026-04-06T08:02:49Z</time></trkpt><trkpt lat="45.33779208408764" lon="9.482028343602995"><ele>71.0</ele><time>2026-04-06T08:02:50Z</time></trkpt><trkpt lat="45.337748868740874" lon="9.482116341310176"><ele>71.0</ele><time>2026-04-06T08:02:51Z</time></trkpt><trkpt lat="45.33770672220851" lon="9.48218846977251"><ele>71.0</ele><time>2026-04-06T08:02:52Z</time></trkpt><trkpt lat="45.33766429031904" lon="9.482276937409495"><ele>71.0</ele><time>2026-04-06T08:02:53Z</time></trkpt><trkpt lat="45.33763269346357" lon="9.482386833354361"><ele>71.0</ele><time>2026-04-06T08:02:54Z</time></trkpt><trkpt lat="45.33759823397422" lon="9.48248077431199"><ele>71.0</ele><time>2026-04-06T08:02:55Z</time></trkpt><trkpt lat="45.33754697467614" lon="9.482569971204102"><ele>71.0</ele><time>2026-04-06T08:02:56Z</time></trkpt><trkpt lat="45.337483853426704" lon="9.482677627041415"><ele>71.0</ele><time>2026-04-06T08:02:58Z</time></trkpt><trkpt lat="45.33744353182676" lon="9.482761247769536"><ele>71.0</ele><time>2026-04-06T08:03:00Z</time></trkpt><trkpt lat="45.33740710378244" lon="9.482863193604533"><ele>71.0</ele><time>2026-04-06T08:03:07Z</time></trkpt><trkpt lat="45.33736352530772" lon="9.482934588837896"><ele>71.0</ele><time>2026-04-06T08:03:09Z</time></trkpt><trkpt lat="45.33729983646802" lon="9.483078333611875"><ele>71.0</ele><time>2026-04-06T08:03:11Z</time></trkpt><trkpt lat="45.33726319878893" lon="9.483181167232383"><ele>71.0</ele><time>2026-04-06T08:03:12Z</time></trkpt><trkpt lat="45.337230953746925" lon="9.48327788730467"><ele>71.0</ele><time>2026-04-06T08:03:13Z</time></trkpt><trkpt lat="45.33720372396601" lon="9.483385803173098"><ele>71.0</ele><time>2026-04-06T08:03:22Z</time></trkpt><trkpt lat="45.33717487697836" lon="9.483487795667722"><ele>71.0</ele><time>2026-04-06T08:03:23Z</time></trkpt><trkpt lat="45.33714593813373" lon="9.48360603204007"><ele>71.0</ele><time>2026-04-06T08:03:24Z</time></trkpt><trkpt lat="45.33711726485454" lon="9.483745958863436"><ele>71.0</ele><time>2026-04-06T08:03:25Z</time></trkpt><trkpt lat="45.33708919362023" lon="9.483848271233013"><ele>71.0</ele><time>2026-04-06T08:03:26Z</time></trkpt><trkpt lat="45.33705792333711" lon="9.483932017557967"><ele>71.0</ele><time>2026-04-06T08:03:27Z</time></trkpt><trkpt lat="45.33700956857497" lon="9.484096497834988"><ele>71.0</ele><time>2026-04-06T08:03:29Z</time></trkpt><trkpt lat="45.33697181046327" lon="9.484237793673879"><ele>71.0</ele><time>2026-04-06T08:03:30Z</time></trkpt><trkpt lat="45.33692682092129" lon="9.484371701174869"><ele>71.0</ele><time>2026-04-06T08:03:31Z</time></trkpt><trkpt lat="45.33689432759594" lon="9.484484983018588"><ele>71.0</ele><time>2026-04-06T08:03:32Z</time></trkpt><trkpt lat="45.33686561149511" lon="9.484586750255877"><ele>71.0</ele><time>2026-04-06T08:03:33Z</time></trkpt><trkpt lat="45.33683113650886" lon="9.484688093653828"><ele>71.0</ele><time>2026-04-06T08:03:34Z</time></trkpt><trkpt lat="45.33680052184549" lon="9.484782534668225"><ele>71.0</ele><time>2026-04-06T08:03:35Z</time></trkpt><trkpt lat="45.33676389198753" lon="9.48492542865783"><ele>71.0</ele><time>2026-04-06T08:03:37Z</time></trkpt><trkpt lat="45.336696295199" lon="9.485101286143625"><ele>71.0</ele><time>2026-04-06T08:03:39Z</time></trkpt><trkpt lat="45.336650433262676" lon="9.485179534079524"><ele>71.0</ele><time>2026-04-06T08:03:40Z</time></trkpt><trkpt lat="45.33662264966356" lon="9.485284646813934"><ele>71.0</ele><time>2026-04-06T08:03:42Z</time></trkpt><trkpt lat="45.33656021571914" lon="9.485351355203864"><ele>71.0</ele><time>2026-04-06T08:03:45Z</time></trkpt><trkpt lat="45.33653605096342" lon="9.48545236838718"><ele>71.0</ele><time>2026-04-06T08:03:49Z</time></trkpt><trkpt lat="45.33651465687457" lon="9.485587592921187"><ele>71.0</ele><time>2026-04-06T08:03:51Z</time></trkpt><trkpt lat="45.33648930787972" lon="9.485694176172668"><ele>71.0</ele><time>2026-04-06T08:03:52Z</time></trkpt><trkpt lat="45.336519127219" lon="9.485847483687625"><ele>71.16666666666667</ele><time>2026-04-06T08:03:54Z</time></trkpt><trkpt lat="45.33651435361723" lon="9.485948107575684"><ele>71.33333333333334</ele><time>2026-04-06T08:03:56Z</time></trkpt><trkpt lat="45.336455840843776" lon="9.486034163939973"><ele>71.5</ele><time>2026-04-06T08:03:59Z</time></trkpt><trkpt lat="45.33640769452621" lon="9.486093999745428"><ele>71.66666666666667</ele><time>2026-04-06T08:04:01Z</time></trkpt><trkpt lat="45.336333364471464" lon="9.486179992250579"><ele>71.83333333333333</ele><time>2026-04-06T08:04:03Z</time></trkpt><trkpt lat="45.33627370250062" lon="9.486127105247471"><ele>72.0</ele><time>2026-04-06T08:04:06Z</time></trkpt><trkpt lat="45.336204195214705" lon="9.48606888834727"><ele>71.66666666666667</ele><time>2026-04-06T08:04:08Z</time></trkpt><trkpt lat="45.336136704650684" lon="9.486047779995193"><ele>71.33333333333333</ele><time>2026-04-06T08:04:10Z</time></trkpt><trkpt lat="45.33604963253139" lon="9.486023621053148"><ele>71.0</ele><time>2026-04-06T08:04:13Z</time></trkpt><trkpt lat="45.335985967541575" lon="9.486009968452946"><ele>70.66666666666666</ele><time>2026-04-06T08:04:15Z</time></trkpt><trkpt lat="45.33589956976612" lon="9.486003255005997"><ele>70.33333333333333</ele><time>2026-04-06T08:04:18Z</time></trkpt><trkpt lat="45.33582726673481" lon="9.486003676093686"><ele>70.0</ele><time>2026-04-06T08:04:20Z</time></trkpt><trkpt lat="45.335723815171804" lon="9.486004518087661"><ele>70.0</ele><time>2026-04-06T08:04:22Z</time></trkpt><trkpt lat="45.3356440596813" lon="9.48601093275743"><ele>70.0</ele><time>2026-04-06T08:04:23Z</time></trkpt><trkpt lat="45.33556317941445" lon="9.48602518742388"><ele>70.0</ele><time>2026-04-06T08:04:24Z</time></trkpt><trkpt lat="45.335474675751655" lon="9.486041815569509"><ele>70.0</ele><time>2026-04-06T08:04:25Z</time></trkpt><trkpt lat="45.33537405841355" lon="9.486053854265592"><ele>70.0</ele><time>2026-04-06T08:04:26Z</time></trkpt><trkpt lat="45.33527330932876" lon="9.48606127811737"><ele>70.33333333333333</ele><time>2026-04-06T08:04:27Z</time></trkpt><trkpt lat="45.335178267059945" lon="9.486066394034047"><ele>70.66666666666666</ele><time>2026-04-06T08:04:28Z</time></trkpt><trkpt lat="45.335090806693124" lon="9.486070353547857"><ele>71.0</ele><time>2026-04-06T08:04:29Z</time></trkpt><trkpt lat="45.33501298870037" lon="9.486080699214838"><ele>71.33333333333333</ele><time>2026-04-06T08:04:30Z</time></trkpt><trkpt lat="45.334944030523076" lon="9.486089644113342"><ele>71.66666666666667</ele><time>2026-04-06T08:04:31Z</time></trkpt><trkpt lat="45.33487588851674" lon="9.48610755539471"><ele>72.0</ele><time>2026-04-06T08:04:32Z</time></trkpt><trkpt lat="45.33479607101791" lon="9.486153139005374"><ele>72.33333333333333</ele><time>2026-04-06T08:04:33Z</time></trkpt><trkpt lat="45.33471079439915" lon="9.486218462110624"><ele>72.66666666666667</ele><time>2026-04-06T08:04:34Z</time></trkpt><trkpt lat="45.33462240240098" lon="9.486293085061668"><ele>73.0</ele><time>2026-04-06T08:04:35Z</time></trkpt><trkpt lat="45.33453242692953" lon="9.486349146546182"><ele>73.33333333333334</ele><time>2026-04-06T08:04:36Z</time></trkpt><trkpt lat="45.334452925026014" lon="9.486389950201144"><ele>73.66666666666667</ele><time>2026-04-06T08:04:37Z</time></trkpt><trkpt lat="45.33439122834506" lon="9.486420075253337"><ele>74.0</ele><time>2026-04-06T08:04:38Z</time></trkpt><trkpt lat="45.334322972726135" lon="9.486446804739952"><ele>73.4</ele><time>2026-04-06T08:04:39Z</time></trkpt><trkpt lat="45.33424512264467" lon="9.486462880098387"><ele>72.80000000000001</ele><time>2026-04-06T08:04:40Z</time></trkpt><trkpt lat="45.334180131630525" lon="9.486468972189375"><ele>72.19999999999999</ele><time>2026-04-06T08:04:41Z</time></trkpt><trkpt lat="45.33404955816428" lon="9.486408920885273"><ele>71.6</ele><time>2026-04-06T08:04:43Z</time></trkpt><trkpt lat="45.33398246838558" lon="9.486369502254568"><ele>71.0</ele><time>2026-04-06T08:04:44Z</time></trkpt><trkpt lat="45.33387524929628" lon="9.48636198070043"><ele>71.0</ele><time>2026-04-06T08:04:46Z</time></trkpt><trkpt lat="45.33380581690792" lon="9.486365261439994"><ele>71.0</ele><time>2026-04-06T08:04:47Z</time></trkpt><trkpt lat="45.33373369419589" lon="9.486388359122673"><ele>71.0</ele><time>2026-04-06T08:04:48Z</time></trkpt><trkpt lat="45.333671365224305" lon="9.486408433181788"><ele>71.0</ele><time>2026-04-06T08:04:49Z</time></trkpt><trkpt lat="45.33360795518248" lon="9.486428323685551"><ele>71.0</ele><time>2026-04-06T08:04:50Z</time></trkpt><trkpt lat="45.33354524278916" lon="9.486442673980546"><ele>71.0</ele><time>2026-04-06T08:04:51Z</time></trkpt><trkpt lat="45.33343089469191" lon="9.486486250166546"><ele>71.0</ele><time>2026-04-06T08:04:53Z</time></trkpt><trkpt lat="45.33331354974789" lon="9.486546235181288"><ele>71.0</ele><time>2026-04-06T08:04:55Z</time></trkpt><trkpt lat="45.33319140521515" lon="9.486580448933504"><ele>71.0</ele><time>2026-04-06T08:04:57Z</time></trkpt><trkpt lat="45.33306990937961" lon="9.486620791265194"><ele>71.0</ele><time>2026-04-06T08:04:59Z</time></trkpt><trkpt lat="45.33300529561545" lon="9.486632585984102"><ele>71.0</ele><time>2026-04-06T08:05:00Z</time></trkpt><trkpt lat="45.332886681476396" lon="9.4866840719402"><ele>70.8</ele><time>2026-04-06T08:05:02Z</time></trkpt><trkpt lat="45.33281935025156" lon="9.486714141445725"><ele>70.6</ele><time>2026-04-06T08:05:03Z</time></trkpt><trkpt lat="45.332750323669615" lon="9.486748417608316"><ele>70.4</ele><time>2026-04-06T08:05:04Z</time></trkpt><trkpt lat="45.3326361008399" lon="9.486834138895768"><ele>70.2</ele><time>2026-04-06T08:05:06Z</time></trkpt><trkpt lat="45.33251780027313" lon="9.486854397556392"><ele>70.0</ele><time>2026-04-06T08:05:08Z</time></trkpt><trkpt lat="45.33245414083018" lon="9.486827917417045"><ele>70.0</ele><time>2026-04-06T08:05:09Z</time></trkpt><trkpt lat="45.33238878492247" lon="9.486797226097618"><ele>70.0</ele><time>2026-04-06T08:05:10Z</time></trkpt><trkpt lat="45.3323016249678" lon="9.486825245034"><ele>70.0</ele><time>2026-04-06T08:05:12Z</time></trkpt><trkpt lat="45.33223439112995" lon="9.486896382939056"><ele>70.0</ele><time>2026-04-06T08:05:14Z</time></trkpt><trkpt lat="45.332143474849964" lon="9.486920596282221"><ele>70.0</ele><time>2026-04-06T08:05:16Z</time></trkpt><trkpt lat="45.33204183717646" lon="9.486862755310867"><ele>70.0</ele><time>2026-04-06T08:05:17Z</time></trkpt><trkpt lat="45.331941106832716" lon="9.486889584901942"><ele>70.16666666666666</ele><time>2026-04-06T08:05:18Z</time></trkpt><trkpt lat="45.33185949457438" lon="9.486944653410745"><ele>70.33333333333333</ele><time>2026-04-06T08:05:19Z</time></trkpt><trkpt lat="45.33180104285014" lon="9.486983835821333"><ele>70.5</ele><time>2026-04-06T08:05:20Z</time></trkpt><trkpt lat="45.33172416379676" lon="9.487059427248465"><ele>70.66666666666667</ele><time>2026-04-06T08:05:21Z</time></trkpt><trkpt lat="45.33166437167257" lon="9.487119119123651"><ele>70.83333333333334</ele><time>2026-04-06T08:05:22Z</time></trkpt><trkpt lat="45.33160685316836" lon="9.487169811094024"><ele>71.0</ele><time>2026-04-06T08:05:23Z</time></trkpt><trkpt lat="45.33155366144651" lon="9.487237882165436"><ele>71.0</ele><time>2026-04-06T08:05:24Z</time></trkpt><trkpt lat="45.33149619696969" lon="9.487284258130417"><ele>71.0</ele><time>2026-04-06T08:05:25Z</time></trkpt><trkpt lat="45.331422272773274" lon="9.48732377035192"><ele>71.0</ele><time>2026-04-06T08:05:26Z</time></trkpt><trkpt lat="45.33133635584252" lon="9.487307399395789"><ele>71.0</ele><time>2026-04-06T08:05:27Z</time></trkpt><trkpt lat="45.331217871033196" lon="9.487314292025413"><ele>71.0</ele><time>2026-04-06T08:05:28Z</time></trkpt><trkpt lat="45.3310945276275" lon="9.487326900960616"><ele>71.33333333333334</ele><time>2026-04-06T08:05:29Z</time></trkpt><trkpt lat="45.330949239791316" lon="9.487314492435523"><ele>71.66666666666667</ele><time>2026-04-06T08:05:30Z</time></trkpt><trkpt lat="45.330791860794406" lon="9.487315306877253"><ele>72.0</ele><time>2026-04-06T08:05:31Z</time></trkpt><trkpt lat="45.33064604866074" lon="9.487267140438304"><ele>71.8</ele><time>2026-04-06T08:05:32Z</time></trkpt><trkpt lat="45.33051709872605" lon="9.487250930443153"><ele>71.6</ele><time>2026-04-06T08:05:33Z</time></trkpt><trkpt lat="45.330427408883494" lon="9.487224683349464"><ele>71.39999999999999</ele><time>2026-04-06T08:05:34Z</time></trkpt><trkpt lat="45.3303558236618" lon="9.48723855738735"><ele>71.2</ele><time>2026-04-06T08:05:35Z</time></trkpt><trkpt lat="45.33028000360731" lon="9.487276676606237"><ele>71.0</ele><time>2026-04-06T08:05:36Z</time></trkpt><trkpt lat="45.330203331754035" lon="9.487337587703495"><ele>71.0</ele><time>2026-04-06T08:05:37Z</time></trkpt><trkpt lat="45.330109212169866" lon="9.48741455137351"><ele>71.0</ele><time>2026-04-06T08:05:38Z</time></trkpt><trkpt lat="45.33000737724591" lon="9.487521044185938"><ele>71.0</ele><time>2026-04-06T08:05:39Z</time></trkpt><trkpt lat="45.32990266513634" lon="9.487638869511914"><ele>71.0</ele><time>2026-04-06T08:05:40Z</time></trkpt><trkpt lat="45.329798610482335" lon="9.487740789898604"><ele>71.0</ele><time>2026-04-06T08:05:41Z</time></trkpt><trkpt lat="45.32968960068546" lon="9.487844241551107"><ele>71.0</ele><time>2026-04-06T08:05:42Z</time></trkpt><trkpt lat="45.32958318365802" lon="9.487938667587178"><ele>71.0</ele><time>2026-04-06T08:05:43Z</time></trkpt><trkpt lat="45.329485351982754" lon="9.488043684801143"><ele>71.0</ele><time>2026-04-06T08:05:44Z</time></trkpt><trkpt lat="45.32939880078135" lon="9.488141011599529"><ele>71.0</ele><time>2026-04-06T08:05:45Z</time></trkpt><trkpt lat="45.32932652062387" lon="9.488236867786007"><ele>71.0</ele><time>2026-04-06T08:05:46Z</time></trkpt><trkpt lat="45.32924122453096" lon="9.488323876690634"><ele>71.0</ele><time>2026-04-06T08:05:47Z</time></trkpt><trkpt lat="45.32914784894315" lon="9.488428200106995"><ele>71.0</ele><time>2026-04-06T08:05:48Z</time></trkpt><trkpt lat="45.32904361494082" lon="9.488528731009769"><ele>71.0</ele><time>2026-04-06T08:05:49Z</time></trkpt><trkpt lat="45.3289180809922" lon="9.488596189511005"><ele>70.33333333333334</ele><time>2026-04-06T08:05:50Z</time></trkpt><trkpt lat="45.328774957164924" lon="9.488652955470899"><ele>69.66666666666667</ele><time>2026-04-06T08:05:51Z</time></trkpt><trkpt lat="45.328620016773364" lon="9.488708904697905"><ele>69.0</ele><time>2026-04-06T08:05:52Z</time></trkpt><trkpt lat="45.32846469926501" lon="9.488761930710963"><ele>69.0</ele><time>2026-04-06T08:05:53Z</time></trkpt><trkpt lat="45.328318971666775" lon="9.488833635423232"><ele>69.0</ele><time>2026-04-06T08:05:54Z</time></trkpt><trkpt lat="45.32818028816987" lon="9.488902129425123"><ele>69.0</ele><time>2026-04-06T08:05:55Z</time></trkpt><trkpt lat="45.32805150555391" lon="9.488972654235333"><ele>69.0</ele><time>2026-04-06T08:05:56Z</time></trkpt><trkpt lat="45.32792850678438" lon="9.489051959765446"><ele>69.5</ele><time>2026-04-06T08:05:57Z</time></trkpt><trkpt lat="45.32781529159672" lon="9.489121427996606"><ele>70.0</ele><time>2026-04-06T08:05:58Z</time></trkpt><trkpt lat="45.32770249410352" lon="9.489191977480587"><ele>70.5</ele><time>2026-04-06T08:05:59Z</time></trkpt><trkpt lat="45.32759452499491" lon="9.489263412609931"><ele>71.0</ele><time>2026-04-06T08:06:00Z</time></trkpt><trkpt lat="45.32748413005111" lon="9.489339763169978"><ele>71.0</ele><time>2026-04-06T08:06:01Z</time></trkpt><trkpt lat="45.327382166341245" lon="9.489407190477195"><ele>71.0</ele><time>2026-04-06T08:06:02Z</time></trkpt><trkpt lat="45.3272899346723" lon="9.489469065527874"><ele>71.0</ele><time>2026-04-06T08:06:03Z</time></trkpt><trkpt lat="45.32719037664948" lon="9.489541535953778"><ele>71.0</ele><time>2026-04-06T08:06:04Z</time></trkpt><trkpt lat="45.32708174676402" lon="9.489632948304244"><ele>70.25</ele><time>2026-04-06T08:06:05Z</time></trkpt><trkpt lat="45.32696462440325" lon="9.489720313978289"><ele>69.5</ele><time>2026-04-06T08:06:06Z</time></trkpt><trkpt lat="45.32684636078101" lon="9.489827210062522"><ele>68.75</ele><time>2026-04-06T08:06:07Z</time></trkpt><trkpt lat="45.32673455094286" lon="9.489930204923171"><ele>68.0</ele><time>2026-04-06T08:06:08Z</time></trkpt><trkpt lat="45.3266149613326" lon="9.490039466763449"><ele>68.0</ele><time>2026-04-06T08:06:09Z</time></trkpt><trkpt lat="45.326503776320635" lon="9.49015233360943"><ele>68.0</ele><time>2026-04-06T08:06:10Z</time></trkpt><trkpt lat="45.326395017566874" lon="9.490254198655991"><ele>68.0</ele><time>2026-04-06T08:06:11Z</time></trkpt><trkpt lat="45.32628496512596" lon="9.490358029830745"><ele>68.0</ele><time>2026-04-06T08:06:12Z</time></trkpt><trkpt lat="45.326185839603134" lon="9.490465753676744"><ele>68.6</ele><time>2026-04-06T08:06:13Z</time></trkpt><trkpt lat="45.326100486529725" lon="9.490568084309094"><ele>69.19999999999999</ele><time>2026-04-06T08:06:14Z</time></trkpt><trkpt lat="45.326034134089255" lon="9.490638551366155"><ele>69.8</ele><time>2026-04-06T08:06:15Z</time></trkpt><trkpt lat="45.3259463398332" lon="9.490703244352222"><ele>70.39999999999999</ele><time>2026-04-06T08:06:17Z</time></trkpt><trkpt lat="45.325830058791475" lon="9.49077206811068"><ele>71.0</ele><time>2026-04-06T08:06:19Z</time></trkpt><trkpt lat="45.325776817189805" lon="9.4909323309308"><ele>71.0</ele><time>2026-04-06T08:06:20Z</time></trkpt><trkpt lat="45.32569917968666" lon="9.491063684553806"><ele>71.0</ele><time>2026-04-06T08:06:21Z</time></trkpt><trkpt lat="45.32561475836356" lon="9.491197912844791"><ele>71.0</ele><time>2026-04-06T08:06:22Z</time></trkpt><trkpt lat="45.32553314214916" lon="9.491337897847163"><ele>71.0</ele><time>2026-04-06T08:06:23Z</time></trkpt><trkpt lat="45.32545688793647" lon="9.491473262171912"><ele>70.5</ele><time>2026-04-06T08:06:24Z</time></trkpt><trkpt lat="45.32538417886314" lon="9.491608766894796"><ele>70.0</ele><time>2026-04-06T08:06:25Z</time></trkpt><trkpt lat="45.32530792672324" lon="9.491742001782969"><ele>69.5</ele><time>2026-04-06T08:06:26Z</time></trkpt><trkpt lat="45.325219231562016" lon="9.491903823407858"><ele>69.0</ele><time>2026-04-06T08:06:27Z</time></trkpt><trkpt lat="45.32512969633838" lon="9.492071387147094"><ele>68.75</ele><time>2026-04-06T08:06:28Z</time></trkpt><trkpt lat="45.32504769327912" lon="9.492229904156808"><ele>68.5</ele><time>2026-04-06T08:06:29Z</time></trkpt><trkpt lat="45.32498249134677" lon="9.492391623554429"><ele>68.25</ele><time>2026-04-06T08:06:30Z</time></trkpt><trkpt lat="45.32492768827504" lon="9.492553129853077"><ele>68.0</ele><time>2026-04-06T08:06:31Z</time></trkpt><trkpt lat="45.32487546172916" lon="9.492689907729675"><ele>68.0</ele><time>2026-04-06T08:06:32Z</time></trkpt><trkpt lat="45.32482285126709" lon="9.492836113854265"><ele>68.0</ele><time>2026-04-06T08:06:33Z</time></trkpt><trkpt lat="45.324765775006085" lon="9.493012255631234"><ele>68.0</ele><time>2026-04-06T08:06:34Z</time></trkpt><trkpt lat="45.32470812005202" lon="9.493186404267236"><ele>68.0</ele><time>2026-04-06T08:06:35Z</time></trkpt><trkpt lat="45.324653404352645" lon="9.49337785415578"><ele>68.0</ele><time>2026-04-06T08:06:36Z</time></trkpt><trkpt lat="45.32460042455539" lon="9.493598961243656"><ele>68.0</ele><time>2026-04-06T08:06:37Z</time></trkpt><trkpt lat="45.32454733859453" lon="9.493835454486609"><ele>68.0</ele><time>2026-04-06T08:06:38Z</time></trkpt><trkpt lat="45.324504991492255" lon="9.494056512220014"><ele>68.0</ele><time>2026-04-06T08:06:39Z</time></trkpt><trkpt lat="45.32447623546778" lon="9.494255152436898"><ele>68.0</ele><time>2026-04-06T08:06:40Z</time></trkpt><trkpt lat="45.32444176185648" lon="9.494440114066856"><ele>68.0</ele><time>2026-04-06T08:06:41Z</time></trkpt><trkpt lat="45.324413409612845" lon="9.494615201887607"><ele>68.0</ele><time>2026-04-06T08:06:42Z</time></trkpt><trkpt lat="45.324379771949125" lon="9.494788595438372"><ele>68.25</ele><time>2026-04-06T08:06:43Z</time></trkpt><trkpt lat="45.324348692234594" lon="9.494977984346688"><ele>68.5</ele><time>2026-04-06T08:06:44Z</time></trkpt><trkpt lat="45.32431597424571" lon="9.49518176083858"><ele>68.75</ele><time>2026-04-06T08:06:45Z</time></trkpt><trkpt lat="45.32427974479305" lon="9.495401553737196"><ele>69.0</ele><time>2026-04-06T08:06:46Z</time></trkpt><trkpt lat="45.32424965388944" lon="9.495618284725523"><ele>68.5</ele><time>2026-04-06T08:06:47Z</time></trkpt><trkpt lat="45.324232631095754" lon="9.495839021220132"><ele>68.0</ele><time>2026-04-06T08:06:48Z</time></trkpt><trkpt lat="45.32422949826619" lon="9.496046764979962"><ele>67.5</ele><time>2026-04-06T08:06:49Z</time></trkpt><trkpt lat="45.324233673804954" lon="9.496213941385536"><ele>67.0</ele><time>2026-04-06T08:06:50Z</time></trkpt><trkpt lat="45.324246131888714" lon="9.496339287337458"><ele>66.8</ele><time>2026-04-06T08:06:51Z</time></trkpt><trkpt lat="45.3242575128217" lon="9.49644132993893"><ele>66.6</ele><time>2026-04-06T08:06:52Z</time></trkpt><trkpt lat="45.324237096566904" lon="9.49660061326086"><ele>66.39999999999999</ele><time>2026-04-06T08:06:54Z</time></trkpt><trkpt lat="45.32419154398961" lon="9.496673657373702"><ele>66.2</ele><time>2026-04-06T08:06:55Z</time></trkpt><trkpt lat="45.32409013762332" lon="9.496792608017465"><ele>66.0</ele><time>2026-04-06T08:06:56Z</time></trkpt><trkpt lat="45.32399150650523" lon="9.496906405455574"><ele>66.0</ele><time>2026-04-06T08:06:57Z</time></trkpt><trkpt lat="45.323896035679034" lon="9.497019906158886"><ele>66.0</ele><time>2026-04-06T08:06:58Z</time></trkpt><trkpt lat="45.32378897760018" lon="9.497153721454417"><ele>66.0</ele><time>2026-04-06T08:06:59Z</time></trkpt><trkpt lat="45.32367796128366" lon="9.497294101961202"><ele>66.0</ele><time>2026-04-06T08:07:00Z</time></trkpt><trkpt lat="45.32356504764481" lon="9.497453258428376"><ele>66.0</ele><time>2026-04-06T08:07:01Z</time></trkpt><trkpt lat="45.323463615049114" lon="9.497591642592331"><ele>66.0</ele><time>2026-04-06T08:07:02Z</time></trkpt><trkpt lat="45.323385754797755" lon="9.49769150265578"><ele>66.0</ele><time>2026-04-06T08:07:03Z</time></trkpt><trkpt lat="45.323328832893345" lon="9.497773641261208"><ele>66.0</ele><time>2026-04-06T08:07:04Z</time></trkpt><trkpt lat="45.32328305710406" lon="9.497865107095851"><ele>66.0</ele><time>2026-04-06T08:07:05Z</time></trkpt><trkpt lat="45.32323728784456" lon="9.497966976951624"><ele>66.0</ele><time>2026-04-06T08:07:06Z</time></trkpt><trkpt lat="45.32317830199212" lon="9.49805873112539"><ele>66.0</ele><time>2026-04-06T08:07:07Z</time></trkpt><trkpt lat="45.323104318812184" lon="9.49815011559802"><ele>66.0</ele><time>2026-04-06T08:07:08Z</time></trkpt><trkpt lat="45.323028123546706" lon="9.498228051897211"><ele>66.0</ele><time>2026-04-06T08:07:09Z</time></trkpt><trkpt lat="45.32294542147211" lon="9.498331095190684"><ele>66.0</ele><time>2026-04-06T08:07:10Z</time></trkpt><trkpt lat="45.32285095967846" lon="9.498437991053986"><ele>66.5</ele><time>2026-04-06T08:07:11Z</time></trkpt><trkpt lat="45.3227545936769" lon="9.498535321357581"><ele>67.0</ele><time>2026-04-06T08:07:12Z</time></trkpt><trkpt lat="45.322641629865764" lon="9.49864424346508"><ele>67.5</ele><time>2026-04-06T08:07:13Z</time></trkpt><trkpt lat="45.322515343142456" lon="9.498767989125241"><ele>68.0</ele><time>2026-04-06T08:07:14Z</time></trkpt><trkpt lat="45.32241187054346" lon="9.498889242199665"><ele>68.0</ele><time>2026-04-06T08:07:15Z</time></trkpt><trkpt lat="45.32232500626017" lon="9.498993632244156"><ele>68.0</ele><time>2026-04-06T08:07:16Z</time></trkpt><trkpt lat="45.322240811541384" lon="9.499117904440537"><ele>68.0</ele><time>2026-04-06T08:07:17Z</time></trkpt><trkpt lat="45.3221557838125" lon="9.499258103551377"><ele>68.0</ele><time>2026-04-06T08:07:18Z</time></trkpt><trkpt lat="45.322093828671214" lon="9.499403019421665"><ele>68.0</ele><time>2026-04-06T08:07:19Z</time></trkpt><trkpt lat="45.32201839956768" lon="9.49956097065036"><ele>68.0</ele><time>2026-04-06T08:07:20Z</time></trkpt><trkpt lat="45.321945493986426" lon="9.499708652631334"><ele>68.0</ele><time>2026-04-06T08:07:21Z</time></trkpt><trkpt lat="45.32187356893017" lon="9.49984789017481"><ele>68.0</ele><time>2026-04-06T08:07:22Z</time></trkpt><trkpt lat="45.321801653994356" lon="9.499970338913517"><ele>68.0</ele><time>2026-04-06T08:07:23Z</time></trkpt><trkpt lat="45.321735379458964" lon="9.500096087713871"><ele>68.0</ele><time>2026-04-06T08:07:24Z</time></trkpt><trkpt lat="45.3216765096911" lon="9.50020192302464"><ele>68.0</ele><time>2026-04-06T08:07:25Z</time></trkpt><trkpt lat="45.32160195937115" lon="9.50032051103269"><ele>68.0</ele><time>2026-04-06T08:07:27Z</time></trkpt><trkpt lat="45.321509883215754" lon="9.50038508054266"><ele>68.0</ele><time>2026-04-06T08:07:29Z</time></trkpt><trkpt lat="45.32142855081804" lon="9.500412559748794"><ele>68.25</ele><time>2026-04-06T08:07:30Z</time></trkpt><trkpt lat="45.32130747670345" lon="9.50041623051689"><ele>68.5</ele><time>2026-04-06T08:07:31Z</time></trkpt><trkpt lat="45.321164378080944" lon="9.50041772657532"><ele>68.75</ele><time>2026-04-06T08:07:32Z</time></trkpt><trkpt lat="45.3210256269875" lon="9.500437011200294"><ele>69.0</ele><time>2026-04-06T08:07:33Z</time></trkpt><trkpt lat="45.320873813920684" lon="9.500467502641873"><ele>69.0</ele><time>2026-04-06T08:07:34Z</time></trkpt><trkpt lat="45.32073273773976" lon="9.500498276887372"><ele>69.0</ele><time>2026-04-06T08:07:35Z</time></trkpt><trkpt lat="45.32060513740901" lon="9.500518932810875"><ele>69.0</ele><time>2026-04-06T08:07:36Z</time></trkpt><trkpt lat="45.3204861841419" lon="9.500539250177413"><ele>69.0</ele><time>2026-04-06T08:07:37Z</time></trkpt><trkpt lat="45.3203635437545" lon="9.500554086302216"><ele>69.2</ele><time>2026-04-06T08:07:38Z</time></trkpt><trkpt lat="45.3202487031511" lon="9.500563163152693"><ele>69.4</ele><time>2026-04-06T08:07:39Z</time></trkpt><trkpt lat="45.32014967989114" lon="9.50059669725306"><ele>69.6</ele><time>2026-04-06T08:07:40Z</time></trkpt><trkpt lat="45.320037873549616" lon="9.50061642224425"><ele>69.8</ele><time>2026-04-06T08:07:41Z</time></trkpt><trkpt lat="45.31993072318342" lon="9.500628215197107"><ele>70.0</ele><time>2026-04-06T08:07:42Z</time></trkpt><trkpt lat="45.31982170153974" lon="9.50063051480315"><ele>70.0</ele><time>2026-04-06T08:07:43Z</time></trkpt><trkpt lat="45.31974471392081" lon="9.500648830227465"><ele>70.0</ele><time>2026-04-06T08:07:44Z</time></trkpt><trkpt lat="45.31962992665809" lon="9.500669779245873"><ele>70.0</ele><time>2026-04-06T08:07:46Z</time></trkpt><trkpt lat="45.319550884573864" lon="9.500680404182635"><ele>70.0</ele><time>2026-04-06T08:07:47Z</time></trkpt><trkpt lat="45.319437462861494" lon="9.50070081716165"><ele>70.0</ele><time>2026-04-06T08:07:48Z</time></trkpt><trkpt lat="45.319325512034375" lon="9.500719490135701"><ele>70.0</ele><time>2026-04-06T08:07:49Z</time></trkpt><trkpt lat="45.319238382498014" lon="9.500724321780952"><ele>70.0</ele><time>2026-04-06T08:07:50Z</time></trkpt><trkpt lat="45.319164222523796" lon="9.500723221862364"><ele>70.0</ele><time>2026-04-06T08:07:51Z</time></trkpt><trkpt lat="45.31908957477387" lon="9.50072737196697"><ele>70.0</ele><time>2026-04-06T08:07:53Z</time></trkpt><trkpt lat="45.31907285089201" lon="9.500878337644746"><ele>70.0</ele><time>2026-04-06T08:10:46Z</time></trkpt><trkpt lat="45.31911240310914" lon="9.500988439766111"><ele>70.0</ele><time>2026-04-06T08:10:47Z</time></trkpt><trkpt lat="45.31916508055151" lon="9.501105755892814"><ele>70.0</ele><time>2026-04-06T08:10:48Z</time></trkpt><trkpt lat="45.31922477580766" lon="9.501241948123377"><ele>70.0</ele><time>2026-04-06T08:10:49Z</time></trkpt><trkpt lat="45.31928862322483" lon="9.501382918809414"><ele>70.0</ele><time>2026-04-06T08:10:50Z</time></trkpt><trkpt lat="45.31935306064955" lon="9.501525593756215"><ele>70.0</ele><time>2026-04-06T08:10:51Z</time></trkpt><trkpt lat="45.31941263850777" lon="9.50165936324991"><ele>70.0</ele><time>2026-04-06T08:10:52Z</time></trkpt><trkpt lat="45.31947394308743" lon="9.501789669063873"><ele>70.0</ele><time>2026-04-06T08:10:53Z</time></trkpt><trkpt lat="45.319518218898075" lon="9.501927339728903"><ele>70.0</ele><time>2026-04-06T08:10:54Z</time></trkpt><trkpt lat="45.319542900762194" lon="9.5020720333703"><ele>70.0</ele><time>2026-04-06T08:10:55Z</time></trkpt><trkpt lat="45.319548914600794" lon="9.50222532872769"><ele>70.0</ele><time>2026-04-06T08:10:56Z</time></trkpt><trkpt lat="45.319526176200156" lon="9.502395118053666"><ele>70.0</ele><time>2026-04-06T08:10:57Z</time></trkpt><trkpt lat="45.31949400042279" lon="9.502570287112809"><ele>70.0</ele><time>2026-04-06T08:10:58Z</time></trkpt><trkpt lat="45.31945214612966" lon="9.502750816690767"><ele>70.0</ele><time>2026-04-06T08:10:59Z</time></trkpt><trkpt lat="45.319410716798885" lon="9.502925204750397"><ele>70.0</ele><time>2026-04-06T08:11:00Z</time></trkpt><trkpt lat="45.31937918793866" lon="9.503099746651989"><ele>70.25</ele><time>2026-04-06T08:11:01Z</time></trkpt><trkpt lat="45.319343803426584" lon="9.503252984102874"><ele>70.5</ele><time>2026-04-06T08:11:02Z</time></trkpt><trkpt lat="45.31931249100174" lon="9.503423191176477"><ele>70.75</ele><time>2026-04-06T08:11:03Z</time></trkpt><trkpt lat="45.31927733880905" lon="9.503596875363687"><ele>71.0</ele><time>2026-04-06T08:11:04Z</time></trkpt><trkpt lat="45.31923747637941" lon="9.503753020582158"><ele>71.0</ele><time>2026-04-06T08:11:05Z</time></trkpt><trkpt lat="45.31918403772983" lon="9.50391885768998"><ele>71.0</ele><time>2026-04-06T08:11:06Z</time></trkpt><trkpt lat="45.319126222126975" lon="9.504108832903215"><ele>71.0</ele><time>2026-04-06T08:11:07Z</time></trkpt><trkpt lat="45.31906367397576" lon="9.504307479442936"><ele>71.0</ele><time>2026-04-06T08:11:08Z</time></trkpt><trkpt lat="45.31899704518699" lon="9.50450860661278"><ele>70.75</ele><time>2026-04-06T08:11:09Z</time></trkpt><trkpt lat="45.31893441651952" lon="9.504706793449586"><ele>70.5</ele><time>2026-04-06T08:11:10Z</time></trkpt><trkpt lat="45.318877165555534" lon="9.504897957461248"><ele>70.25</ele><time>2026-04-06T08:11:11Z</time></trkpt><trkpt lat="45.31881963930895" lon="9.505094671798025"><ele>70.0</ele><time>2026-04-06T08:11:12Z</time></trkpt><trkpt lat="45.31875525906226" lon="9.505294389516624"><ele>70.25</ele><time>2026-04-06T08:11:13Z</time></trkpt><trkpt lat="45.318695402016274" lon="9.50549263306092"><ele>70.5</ele><time>2026-04-06T08:11:14Z</time></trkpt><trkpt lat="45.3186335157568" lon="9.505667072649823"><ele>70.75</ele><time>2026-04-06T08:11:15Z</time></trkpt><trkpt lat="45.31857156657466" lon="9.505820808134501"><ele>71.0</ele><time>2026-04-06T08:11:16Z</time></trkpt><trkpt lat="45.31849140152869" lon="9.505965196121068"><ele>71.0</ele><time>2026-04-06T08:11:17Z</time></trkpt><trkpt lat="45.318401376817754" lon="9.50611622518348"><ele>71.0</ele><time>2026-04-06T08:11:18Z</time></trkpt><trkpt lat="45.31831981482493" lon="9.506252842131834"><ele>71.0</ele><time>2026-04-06T08:11:19Z</time></trkpt><trkpt lat="45.3182466480847" lon="9.506377791980661"><ele>71.0</ele><time>2026-04-06T08:11:20Z</time></trkpt><trkpt lat="45.31817127463801" lon="9.506508024569198"><ele>71.0</ele><time>2026-04-06T08:11:21Z</time></trkpt><trkpt lat="45.31809828409453" lon="9.506636618687159"><ele>71.0</ele><time>2026-04-06T08:11:22Z</time></trkpt><trkpt lat="45.3180300000689" lon="9.506754926399289"><ele>71.0</ele><time>2026-04-06T08:11:23Z</time></trkpt><trkpt lat="45.31798318143871" lon="9.506830869074037"><ele>71.0</ele><time>2026-04-06T08:11:24Z</time></trkpt><trkpt lat="45.317939625397216" lon="9.506933238758819"><ele>71.0</ele><time>2026-04-06T08:11:26Z</time></trkpt><trkpt lat="45.31789297952791" lon="9.507026950247196"><ele>71.0</ele><time>2026-04-06T08:11:28Z</time></trkpt><trkpt lat="45.31782934528427" lon="9.5071269673494"><ele>71.0</ele><time>2026-04-06T08:11:35Z</time></trkpt><trkpt lat="45.31778755891779" lon="9.507200105978104"><ele>71.0</ele><time>2026-04-06T08:11:36Z</time></trkpt><trkpt lat="45.317694591724944" lon="9.507289310113428"><ele>71.0</ele><time>2026-04-06T08:11:38Z</time></trkpt><trkpt lat="45.3175991074669" lon="9.507307776838"><ele>71.0</ele><time>2026-04-06T08:11:40Z</time></trkpt><trkpt lat="45.3175024056056" lon="9.507219866033626"><ele>71.0</ele><time>2026-04-06T08:11:42Z</time></trkpt><trkpt lat="45.31743386235979" lon="9.507147572037772"><ele>71.0</ele><time>2026-04-06T08:11:43Z</time></trkpt><trkpt lat="45.31735684278544" lon="9.507092822090998"><ele>71.0</ele><time>2026-04-06T08:11:44Z</time></trkpt><trkpt lat="45.31728305142957" lon="9.507036058236277"><ele>71.0</ele><time>2026-04-06T08:11:45Z</time></trkpt><trkpt lat="45.31721157899262" lon="9.506983549783001"><ele>71.0</ele><time>2026-04-06T08:11:46Z</time></trkpt><trkpt lat="45.31713229601905" lon="9.506935104212669"><ele>71.0</ele><time>2026-04-06T08:11:47Z</time></trkpt><trkpt lat="45.31703721457848" lon="9.506893081193619"><ele>71.5</ele><time>2026-04-06T08:11:48Z</time></trkpt><trkpt lat="45.316929424502256" lon="9.506855607875124"><ele>72.0</ele><time>2026-04-06T08:11:49Z</time></trkpt><trkpt lat="45.31683053506188" lon="9.50681567606988"><ele>72.5</ele><time>2026-04-06T08:11:50Z</time></trkpt><trkpt lat="45.31676130102717" lon="9.506816277627617"><ele>73.0</ele><time>2026-04-06T08:11:51Z</time></trkpt><trkpt lat="45.31668310072624" lon="9.5067963550982"><ele>73.5</ele><time>2026-04-06T08:11:52Z</time></trkpt><trkpt lat="45.31661549877175" lon="9.506827916398526"><ele>74.0</ele><time>2026-04-06T08:11:53Z</time></trkpt><trkpt lat="45.31655969634974" lon="9.506891822295328"><ele>74.0</ele><time>2026-04-06T08:11:54Z</time></trkpt><trkpt lat="45.316503832617116" lon="9.50700203891762"><ele>74.0</ele><time>2026-04-06T08:11:55Z</time></trkpt><trkpt lat="45.31644728418425" lon="9.507159254479891"><ele>74.0</ele><time>2026-04-06T08:11:56Z</time></trkpt><trkpt lat="45.316372792958255" lon="9.507351167346782"><ele>74.0</ele><time>2026-04-06T08:11:57Z</time></trkpt><trkpt lat="45.316296047498845" lon="9.507551257964474"><ele>74.25</ele><time>2026-04-06T08:11:58Z</time></trkpt><trkpt lat="45.31622885913696" lon="9.507729813830315"><ele>74.5</ele><time>2026-04-06T08:11:59Z</time></trkpt><trkpt lat="45.31616960201227" lon="9.507889636309514"><ele>74.75</ele><time>2026-04-06T08:12:00Z</time></trkpt><trkpt lat="45.31611652360283" lon="9.508042158271454"><ele>75.0</ele><time>2026-04-06T08:12:01Z</time></trkpt><trkpt lat="45.31605840080696" lon="9.508180785268703"><ele>75.0</ele><time>2026-04-06T08:12:02Z</time></trkpt><trkpt lat="45.315999644554516" lon="9.508312019536229"><ele>75.0</ele><time>2026-04-06T08:12:03Z</time></trkpt><trkpt lat="45.31593758077906" lon="9.508447176025413"><ele>75.0</ele><time>2026-04-06T08:12:04Z</time></trkpt><trkpt lat="45.31587281397558" lon="9.508603545586631"><ele>75.0</ele><time>2026-04-06T08:12:05Z</time></trkpt><trkpt lat="45.31579999380317" lon="9.508774872186489"><ele>75.25</ele><time>2026-04-06T08:12:06Z</time></trkpt><trkpt lat="45.31572469899476" lon="9.508940784736183"><ele>75.5</ele><time>2026-04-06T08:12:07Z</time></trkpt><trkpt lat="45.31565085181803" lon="9.509090867278884"><ele>75.75</ele><time>2026-04-06T08:12:08Z</time></trkpt><trkpt lat="45.31557236690376" lon="9.509244938071959"><ele>76.0</ele><time>2026-04-06T08:12:09Z</time></trkpt><trkpt lat="45.31550566427138" lon="9.50937662954715"><ele>76.0</ele><time>2026-04-06T08:12:10Z</time></trkpt><trkpt lat="45.31546477436379" lon="9.509480856904826"><ele>76.0</ele><time>2026-04-06T08:12:11Z</time></trkpt><trkpt lat="45.31540663220903" lon="9.509559683932045"><ele>76.0</ele><time>2026-04-06T08:12:13Z</time></trkpt><trkpt lat="45.31533832242709" lon="9.509615310247181"><ele>76.0</ele><time>2026-04-06T08:12:15Z</time></trkpt><trkpt lat="45.315352830036495" lon="9.509732400480651"><ele>76.0</ele><time>2026-04-06T08:12:17Z</time></trkpt><trkpt lat="45.315392520408565" lon="9.509806828010387"><ele>76.0</ele><time>2026-04-06T08:12:18Z</time></trkpt><trkpt lat="45.31542942523313" lon="9.509936669330243"><ele>75.39999999999999</ele><time>2026-04-06T08:12:20Z</time></trkpt><trkpt lat="45.315391053559324" lon="9.510068514164372"><ele>74.8</ele><time>2026-04-06T08:12:22Z</time></trkpt><trkpt lat="45.31535139238433" lon="9.510216911773977"><ele>74.19999999999999</ele><time>2026-04-06T08:12:24Z</time></trkpt><trkpt lat="45.315296792817854" lon="9.51036751347032"><ele>73.6</ele><time>2026-04-06T08:12:26Z</time></trkpt><trkpt lat="45.31526150423623" lon="9.51046659878745"><ele>73.0</ele><time>2026-04-06T08:12:27Z</time></trkpt><trkpt lat="45.31522870765674" lon="9.510557864043204"><ele>72.66666666666666</ele><time>2026-04-06T08:12:28Z</time></trkpt><trkpt lat="45.31518629906854" lon="9.510668531541734"><ele>72.33333333333333</ele><time>2026-04-06T08:12:29Z</time></trkpt><trkpt lat="45.315149728548526" lon="9.51077399885411"><ele>72.0</ele><time>2026-04-06T08:12:30Z</time></trkpt><trkpt lat="45.31511487568188" lon="9.510864647070838"><ele>71.66666666666667</ele><time>2026-04-06T08:12:31Z</time></trkpt><trkpt lat="45.315079135485114" lon="9.510957890550964"><ele>71.33333333333334</ele><time>2026-04-06T08:12:32Z</time></trkpt><trkpt lat="45.31503652354361" lon="9.511068269572384"><ele>71.0</ele><time>2026-04-06T08:12:33Z</time></trkpt><trkpt lat="45.31501333664948" lon="9.511191672019176"><ele>70.6</ele><time>2026-04-06T08:12:34Z</time></trkpt><trkpt lat="45.31497392338636" lon="9.511304086495747"><ele>70.19999999999999</ele><time>2026-04-06T08:12:35Z</time></trkpt><trkpt lat="45.314942413995105" lon="9.511424813434228"><ele>69.80000000000001</ele><time>2026-04-06T08:12:36Z</time></trkpt><trkpt lat="45.31490782180639" lon="9.51153836696675"><ele>69.4</ele><time>2026-04-06T08:12:37Z</time></trkpt><trkpt lat="45.31486862051592" lon="9.511674864978515"><ele>69.0</ele><time>2026-04-06T08:12:38Z</time></trkpt><trkpt lat="45.31482262445268" lon="9.51181519282866"><ele>69.0</ele><time>2026-04-06T08:12:39Z</time></trkpt><trkpt lat="45.314771152389774" lon="9.51194046631296"><ele>69.0</ele><time>2026-04-06T08:12:40Z</time></trkpt><trkpt lat="45.31473131362227" lon="9.51203932837225"><ele>69.0</ele><time>2026-04-06T08:12:41Z</time></trkpt><trkpt lat="45.31469898504915" lon="9.512136540891962"><ele>69.0</ele><time>2026-04-06T08:12:42Z</time></trkpt><trkpt lat="45.314661061641594" lon="9.512246618792398"><ele>69.0</ele><time>2026-04-06T08:12:44Z</time></trkpt><trkpt lat="45.314570985969986" lon="9.512305423566707"><ele>69.0</ele><time>2026-04-06T08:12:47Z</time></trkpt><trkpt lat="45.31447488152697" lon="9.512273058064848"><ele>69.0</ele><time>2026-04-06T08:12:49Z</time></trkpt><trkpt lat="45.31441234456744" lon="9.512204334515244"><ele>69.0</ele><time>2026-04-06T08:12:51Z</time></trkpt><trkpt lat="45.314356036723" lon="9.512128202132919"><ele>69.0</ele><time>2026-04-06T08:12:53Z</time></trkpt><trkpt lat="45.31429182376421" lon="9.512028763194404"><ele>69.0</ele><time>2026-04-06T08:12:55Z</time></trkpt><trkpt lat="45.31418534757472" lon="9.51188557973935"><ele>69.0</ele><time>2026-04-06T08:14:11Z</time></trkpt><trkpt lat="45.31412589736968" lon="9.511803390487257"><ele>69.0</ele><time>2026-04-06T08:14:12Z</time></trkpt><trkpt lat="45.31407453810273" lon="9.511732386669841"><ele>69.0</ele><time>2026-04-06T08:14:13Z</time></trkpt><trkpt lat="45.31401336775885" lon="9.511647820949985"><ele>69.0</ele><time>2026-04-06T08:14:14Z</time></trkpt><trkpt lat="45.31395206426445" lon="9.511562960443076"><ele>69.0</ele><time>2026-04-06T08:14:15Z</time></trkpt><trkpt lat="45.313877718186426" lon="9.511462054042228"><ele>69.0</ele><time>2026-04-06T08:14:16Z</time></trkpt><trkpt lat="45.313798006243076" lon="9.511352587459095"><ele>69.25</ele><time>2026-04-06T08:14:17Z</time></trkpt><trkpt lat="45.313708301375456" lon="9.511229454281054"><ele>69.5</ele><time>2026-04-06T08:14:18Z</time></trkpt><trkpt lat="45.313624049348455" lon="9.511113816189093"><ele>69.75</ele><time>2026-04-06T08:14:19Z</time></trkpt><trkpt lat="45.3135392182377" lon="9.51099730724827"><ele>70.0</ele><time>2026-04-06T08:14:20Z</time></trkpt><trkpt lat="45.313464911474625" lon="9.510895461828872"><ele>70.0</ele><time>2026-04-06T08:14:21Z</time></trkpt><trkpt lat="45.31340567768956" lon="9.510814511674054"><ele>70.0</ele><time>2026-04-06T08:14:22Z</time></trkpt><trkpt lat="45.313270856527815" lon="9.510929705420246"><ele>70.0</ele><time>2026-04-06T08:14:27Z</time></trkpt><trkpt lat="45.31318082589728" lon="9.511113731279549"><ele>70.0</ele><time>2026-04-06T08:14:29Z</time></trkpt><trkpt lat="45.31311111540545" lon="9.511221166902343"><ele>69.66666666666666</ele><time>2026-04-06T08:14:30Z</time></trkpt><trkpt lat="45.3130478654637" lon="9.511325508412328"><ele>69.33333333333333</ele><time>2026-04-06T08:14:31Z</time></trkpt><trkpt lat="45.31298438446776" lon="9.511424692675714"><ele>69.0</ele><time>2026-04-06T08:14:32Z</time></trkpt><trkpt lat="45.31291685389154" lon="9.511511528602236"><ele>68.66666666666667</ele><time>2026-04-06T08:14:33Z</time></trkpt><trkpt lat="45.312856272526865" lon="9.511600178640292"><ele>68.33333333333334</ele><time>2026-04-06T08:14:34Z</time></trkpt><trkpt lat="45.312804442975725" lon="9.511679063784447"><ele>68.0</ele><time>2026-04-06T08:14:35Z</time></trkpt><trkpt lat="45.312756310176106" lon="9.511736959357776"><ele>68.0</ele><time>2026-04-06T08:14:36Z</time></trkpt><trkpt lat="45.312571619535795" lon="9.511532294000528"><ele>68.0</ele><time>2026-04-06T08:14:42Z</time></trkpt><trkpt lat="45.312510030430005" lon="9.5114308042773"><ele>68.0</ele><time>2026-04-06T08:14:43Z</time></trkpt><trkpt lat="45.31245623394983" lon="9.511339942369505"><ele>68.0</ele><time>2026-04-06T08:14:44Z</time></trkpt><trkpt lat="45.312415885108805" lon="9.511258145467057"><ele>68.0</ele><time>2026-04-06T08:14:45Z</time></trkpt><trkpt lat="45.31235945381265" lon="9.511180113439067"><ele>68.0</ele><time>2026-04-06T08:14:47Z</time></trkpt><trkpt lat="45.31217406108066" lon="9.5113359342773"><ele>68.0</ele><time>2026-04-06T08:14:52Z</time></trkpt><trkpt lat="45.31210771626393" lon="9.511435412170444"><ele>68.0</ele><time>2026-04-06T08:14:53Z</time></trkpt><trkpt lat="45.3120335887742" lon="9.511535938599561"><ele>67.8</ele><time>2026-04-06T08:14:54Z</time></trkpt><trkpt lat="45.311954329027046" lon="9.511628396387831"><ele>67.6</ele><time>2026-04-06T08:14:55Z</time></trkpt><trkpt lat="45.31187197201406" lon="9.511728062618985"><ele>67.4</ele><time>2026-04-06T08:14:56Z</time></trkpt><trkpt lat="45.311798750392974" lon="9.511807609699554"><ele>67.2</ele><time>2026-04-06T08:14:57Z</time></trkpt><trkpt lat="45.311709558752206" lon="9.511886736389894"><ele>67.0</ele><time>2026-04-06T08:14:59Z</time></trkpt><trkpt lat="45.311628252010124" lon="9.512030190965021"><ele>67.0</ele><time>2026-04-06T08:15:01Z</time></trkpt><trkpt lat="45.31155430963934" lon="9.512139763499516"><ele>67.0</ele><time>2026-04-06T08:15:02Z</time></trkpt><trkpt lat="45.31146474025181" lon="9.512242985283265"><ele>67.0</ele><time>2026-04-06T08:15:03Z</time></trkpt><trkpt lat="45.311369661705406" lon="9.51235550896652"><ele>67.0</ele><time>2026-04-06T08:15:04Z</time></trkpt><trkpt lat="45.311273814508" lon="9.5124773901851"><ele>67.0</ele><time>2026-04-06T08:15:05Z</time></trkpt><trkpt lat="45.31117554849241" lon="9.51259940675872"><ele>67.0</ele><time>2026-04-06T08:15:06Z</time></trkpt><trkpt lat="45.31106735168239" lon="9.51272907187535"><ele>67.0</ele><time>2026-04-06T08:15:07Z</time></trkpt><trkpt lat="45.31095158298549" lon="9.512866278606245"><ele>67.0</ele><time>2026-04-06T08:15:08Z</time></trkpt><trkpt lat="45.31084439121164" lon="9.513003695601203"><ele>67.0</ele><time>2026-04-06T08:15:09Z</time></trkpt><trkpt lat="45.31074477814786" lon="9.513127860658821"><ele>67.0</ele><time>2026-04-06T08:15:10Z</time></trkpt><trkpt lat="45.31065260050505" lon="9.513233210596262"><ele>67.0</ele><time>2026-04-06T08:15:11Z</time></trkpt><trkpt lat="45.31058040783918" lon="9.513315521264694"><ele>67.0</ele><time>2026-04-06T08:15:12Z</time></trkpt><trkpt lat="45.31052374160675" lon="9.513372216307943"><ele>67.0</ele><time>2026-04-06T08:15:13Z</time></trkpt><trkpt lat="45.310472824233734" lon="9.513463063004812"><ele>67.4</ele><time>2026-04-06T08:15:16Z</time></trkpt><trkpt lat="45.31044333305664" lon="9.513559833937451"><ele>67.80000000000001</ele><time>2026-04-06T08:15:17Z</time></trkpt><trkpt lat="45.31041557863427" lon="9.51368360043718"><ele>68.2</ele><time>2026-04-06T08:15:18Z</time></trkpt><trkpt lat="45.31037815954537" lon="9.513817209878765"><ele>68.60000000000001</ele><time>2026-04-06T08:15:19Z</time></trkpt><trkpt lat="45.31033233680742" lon="9.51398185100347"><ele>69.0</ele><time>2026-04-06T08:15:20Z</time></trkpt><trkpt lat="45.31027914928688" lon="9.514163667986978"><ele>69.0</ele><time>2026-04-06T08:15:21Z</time></trkpt><trkpt lat="45.310212577955205" lon="9.51436818438956"><ele>69.0</ele><time>2026-04-06T08:15:22Z</time></trkpt><trkpt lat="45.310148368797364" lon="9.514563254664298"><ele>69.0</ele><time>2026-04-06T08:15:23Z</time></trkpt><trkpt lat="45.31009209631417" lon="9.51473916038394"><ele>69.0</ele><time>2026-04-06T08:15:24Z</time></trkpt><trkpt lat="45.310042496654965" lon="9.514889280729381"><ele>68.5</ele><time>2026-04-06T08:15:25Z</time></trkpt><trkpt lat="45.309998504799665" lon="9.515016307185988"><ele>68.0</ele><time>2026-04-06T08:15:26Z</time></trkpt><trkpt lat="45.309961748159864" lon="9.515111213550783"><ele>67.5</ele><time>2026-04-06T08:15:27Z</time></trkpt><trkpt lat="45.309917307477214" lon="9.515183191499743"><ele>67.0</ele><time>2026-04-06T08:15:28Z</time></trkpt><trkpt lat="45.30986375634579" lon="9.515248504162894"><ele>66.5</ele><time>2026-04-06T08:15:29Z</time></trkpt><trkpt lat="45.309792211082836" lon="9.515287989712519"><ele>66.0</ele><time>2026-04-06T08:15:30Z</time></trkpt><trkpt lat="45.30975613797359" lon="9.515372363405648"><ele>65.39999999999999</ele><time>2026-04-06T08:15:31Z</time></trkpt><trkpt lat="45.30974958692968" lon="9.515487446114822"><ele>64.8</ele><time>2026-04-06T08:15:32Z</time></trkpt><trkpt lat="45.30977374429263" lon="9.515596765002153"><ele>64.19999999999999</ele><time>2026-04-06T08:15:33Z</time></trkpt><trkpt lat="45.309824200441206" lon="9.515690490190657"><ele>63.599999999999994</ele><time>2026-04-06T08:15:34Z</time></trkpt><trkpt lat="45.309900373986935" lon="9.515778640287579"><ele>63.0</ele><time>2026-04-06T08:15:35Z</time></trkpt><trkpt lat="45.310002771487916" lon="9.515883131320928"><ele>63.0</ele><time>2026-04-06T08:15:36Z</time></trkpt><trkpt lat="45.31011188884702" lon="9.515986208553077"><ele>63.0</ele><time>2026-04-06T08:15:37Z</time></trkpt><trkpt lat="45.3102244683013" lon="9.516101310909882"><ele>63.0</ele><time>2026-04-06T08:15:38Z</time></trkpt><trkpt lat="45.31034218108236" lon="9.516215770169534"><ele>63.0</ele><time>2026-04-06T08:15:39Z</time></trkpt><trkpt lat="45.31046682678533" lon="9.51634258560753"><ele>64.0</ele><time>2026-04-06T08:15:40Z</time></trkpt><trkpt lat="45.310600251989904" lon="9.516478566283897"><ele>65.0</ele><time>2026-04-06T08:15:41Z</time></trkpt><trkpt lat="45.31073729891677" lon="9.516603779912689"><ele>66.0</ele><time>2026-04-06T08:15:42Z</time></trkpt><trkpt lat="45.31087170391169" lon="9.51673216041041"><ele>66.0</ele><time>2026-04-06T08:15:43Z</time></trkpt><trkpt lat="45.311012774026416" lon="9.516875580163424"><ele>66.0</ele><time>2026-04-06T08:15:44Z</time></trkpt><trkpt lat="45.31115592230898" lon="9.517020071306334"><ele>66.0</ele><time>2026-04-06T08:15:45Z</time></trkpt><trkpt lat="45.31128567023103" lon="9.517143918962102"><ele>65.66666666666667</ele><time>2026-04-06T08:15:46Z</time></trkpt><trkpt lat="45.31141716181172" lon="9.517263486435102"><ele>65.33333333333334</ele><time>2026-04-06T08:15:47Z</time></trkpt><trkpt lat="45.311546936115676" lon="9.517383986752202"><ele>65.0</ele><time>2026-04-06T08:15:48Z</time></trkpt><trkpt lat="45.31166394012067" lon="9.517497636854547"><ele>65.0</ele><time>2026-04-06T08:15:49Z</time></trkpt><trkpt lat="45.31175931690384" lon="9.51759261572124"><ele>65.0</ele><time>2026-04-06T08:15:50Z</time></trkpt><trkpt lat="45.31183803593418" lon="9.517676252115596"><ele>65.0</ele><time>2026-04-06T08:15:51Z</time></trkpt><trkpt lat="45.31190418624669" lon="9.51775079156587"><ele>65.0</ele><time>2026-04-06T08:15:52Z</time></trkpt><trkpt lat="45.31196454364545" lon="9.517813611542492"><ele>65.0</ele><time>2026-04-06T08:15:53Z</time></trkpt><trkpt lat="45.31201168069003" lon="9.517883588282626"><ele>65.0</ele><time>2026-04-06T08:15:56Z</time></trkpt><trkpt lat="45.312070354703756" lon="9.517940870360286"><ele>64.8</ele><time>2026-04-06T08:16:05Z</time></trkpt><trkpt lat="45.31219547218972" lon="9.518025554591825"><ele>64.6</ele><time>2026-04-06T08:16:07Z</time></trkpt><trkpt lat="45.3122660104028" lon="9.518085117195566"><ele>64.4</ele><time>2026-04-06T08:16:08Z</time></trkpt><trkpt lat="45.312339667153665" lon="9.518149048468013"><ele>64.2</ele><time>2026-04-06T08:16:09Z</time></trkpt><trkpt lat="45.31240660990306" lon="9.518208539433274"><ele>64.0</ele><time>2026-04-06T08:16:10Z</time></trkpt><trkpt lat="45.312461858083445" lon="9.518259946566406"><ele>64.0</ele><time>2026-04-06T08:16:11Z</time></trkpt><trkpt lat="45.312547654966764" lon="9.518329226444292"><ele>64.0</ele><time>2026-04-06T08:16:13Z</time></trkpt><trkpt lat="45.31243581995445" lon="9.518175802305645"><ele>64.0</ele><time>2026-04-06T08:16:21Z</time></trkpt><trkpt lat="45.31234621107185" lon="9.518099225511234"><ele>64.0</ele><time>2026-04-06T08:16:22Z</time></trkpt><trkpt lat="45.312262876339624" lon="9.518016214438576"><ele>64.0</ele><time>2026-04-06T08:16:23Z</time></trkpt><trkpt lat="45.312189588812814" lon="9.517952136933987"><ele>64.0</ele><time>2026-04-06T08:16:24Z</time></trkpt><trkpt lat="45.31213110681508" lon="9.517888802741421"><ele>64.0</ele><time>2026-04-06T08:16:25Z</time></trkpt><trkpt lat="45.31204083209973" lon="9.51780546606744"><ele>64.0</ele><time>2026-04-06T08:16:27Z</time></trkpt><trkpt lat="45.31191127634052" lon="9.517941797900898"><ele>64.0</ele><time>2026-04-06T08:16:28Z</time></trkpt><trkpt lat="45.31181758617964" lon="9.517997612610104"><ele>64.0</ele><time>2026-04-06T08:16:29Z</time></trkpt><trkpt lat="45.31172290236649" lon="9.51806972426975"><ele>64.0</ele><time>2026-04-06T08:16:30Z</time></trkpt><trkpt lat="45.311632858286586" lon="9.51810744945203"><ele>64.0</ele><time>2026-04-06T08:16:31Z</time></trkpt><trkpt lat="45.31155270559232" lon="9.518155616045677"><ele>64.0</ele><time>2026-04-06T08:16:32Z</time></trkpt><trkpt lat="45.31146821556791" lon="9.518223837186879"><ele>64.0</ele><time>2026-04-06T08:16:33Z</time></trkpt><trkpt lat="45.311376666518946" lon="9.518272136296991"><ele>64.4</ele><time>2026-04-06T08:16:34Z</time></trkpt><trkpt lat="45.31126870338696" lon="9.518327281266362"><ele>64.80000000000001</ele><time>2026-04-06T08:16:35Z</time></trkpt><trkpt lat="45.31115853535116" lon="9.518386077438311"><ele>65.19999999999999</ele><time>2026-04-06T08:16:36Z</time></trkpt><trkpt lat="45.31106697417407" lon="9.518448234805033"><ele>65.6</ele><time>2026-04-06T08:16:37Z</time></trkpt><trkpt lat="45.31098293211941" lon="9.518532033994939"><ele>66.0</ele><time>2026-04-06T08:16:38Z</time></trkpt><trkpt lat="45.31090086462835" lon="9.518652354603406"><ele>65.66666666666667</ele><time>2026-04-06T08:16:39Z</time></trkpt><trkpt lat="45.310813770721666" lon="9.518803770725967"><ele>65.33333333333334</ele><time>2026-04-06T08:16:40Z</time></trkpt><trkpt lat="45.31071793622981" lon="9.518990027417543"><ele>65.0</ele><time>2026-04-06T08:16:41Z</time></trkpt><trkpt lat="45.310614410659745" lon="9.519156739856697"><ele>65.2</ele><time>2026-04-06T08:16:42Z</time></trkpt><trkpt lat="45.310524298261306" lon="9.519316824875059"><ele>65.4</ele><time>2026-04-06T08:16:43Z</time></trkpt><trkpt lat="45.3104606988567" lon="9.519416399702616"><ele>65.6</ele><time>2026-04-06T08:16:44Z</time></trkpt><trkpt lat="45.310409564511254" lon="9.519495883254846"><ele>65.8</ele><time>2026-04-06T08:16:45Z</time></trkpt><trkpt lat="45.31035371431654" lon="9.519586588398022"><ele>66.0</ele><time>2026-04-06T08:16:46Z</time></trkpt><trkpt lat="45.31029524935612" lon="9.519683060080345"><ele>65.6</ele><time>2026-04-06T08:16:47Z</time></trkpt><trkpt lat="45.31022806862764" lon="9.51978485180527"><ele>65.19999999999999</ele><time>2026-04-06T08:16:48Z</time></trkpt><trkpt lat="45.31015958259452" lon="9.51990486931726"><ele>64.80000000000001</ele><time>2026-04-06T08:16:49Z</time></trkpt><trkpt lat="45.31009062771777" lon="9.520014738891268"><ele>64.4</ele><time>2026-04-06T08:16:50Z</time></trkpt><trkpt lat="45.310056299643094" lon="9.520155644193242"><ele>64.0</ele><time>2026-04-06T08:16:51Z</time></trkpt><trkpt lat="45.31002463558664" lon="9.520294911754483"><ele>64.16666666666666</ele><time>2026-04-06T08:16:52Z</time></trkpt><trkpt lat="45.31000478632258" lon="9.520420912664681"><ele>64.33333333333333</ele><time>2026-04-06T08:16:53Z</time></trkpt><trkpt lat="45.30999586094957" lon="9.520549100280542"><ele>64.5</ele><time>2026-04-06T08:16:54Z</time></trkpt><trkpt lat="45.309990034334184" lon="9.520679349293511"><ele>64.66666666666667</ele><time>2026-04-06T08:16:55Z</time></trkpt><trkpt lat="45.30998729028626" lon="9.520792830001858"><ele>64.83333333333334</ele><time>2026-04-06T08:16:56Z</time></trkpt><trkpt lat="45.30998302780413" lon="9.52090811826376"><ele>65.0</ele><time>2026-04-06T08:16:57Z</time></trkpt><trkpt lat="45.309997813389444" lon="9.521128959856027"><ele>65.0</ele><time>2026-04-06T08:16:58Z</time></trkpt><trkpt lat="45.309994360682936" lon="9.521269062042265"><ele>65.0</ele><time>2026-04-06T08:16:59Z</time></trkpt><trkpt lat="45.309995547081535" lon="9.521429422579176"><ele>65.0</ele><time>2026-04-06T08:17:00Z</time></trkpt><trkpt lat="45.30999786601149" lon="9.521595857623801"><ele>65.0</ele><time>2026-04-06T08:17:01Z</time></trkpt><trkpt lat="45.309998499599295" lon="9.521717156680403"><ele>65.0</ele><time>2026-04-06T08:17:02Z</time></trkpt><trkpt lat="45.3099944451789" lon="9.521850231011983"><ele>65.0</ele><time>2026-04-06T08:17:04Z</time></trkpt><trkpt lat="45.31011127704553" lon="9.521908727091674"><ele>65.0</ele><time>2026-04-06T08:17:07Z</time></trkpt><trkpt lat="45.31022037422663" lon="9.521902586111747"><ele>65.0</ele><time>2026-04-06T08:17:08Z</time></trkpt><trkpt lat="45.31032718238187" lon="9.521872520898496"><ele>65.0</ele><time>2026-04-06T08:17:09Z</time></trkpt><trkpt lat="45.3104496123404" lon="9.521837448376514"><ele>65.0</ele><time>2026-04-06T08:17:10Z</time></trkpt><trkpt lat="45.31057384044997" lon="9.521822633701905"><ele>65.0</ele><time>2026-04-06T08:17:11Z</time></trkpt><trkpt lat="45.31069631043838" lon="9.521813020109258"><ele>65.0</ele><time>2026-04-06T08:17:12Z</time></trkpt><trkpt lat="45.31080274790823" lon="9.521794782076048"><ele>65.0</ele><time>2026-04-06T08:17:13Z</time></trkpt><trkpt lat="45.310900721767275" lon="9.521787723350721"><ele>65.5</ele><time>2026-04-06T08:17:14Z</time></trkpt><trkpt lat="45.311006843544924" lon="9.521795536279912"><ele>66.0</ele><time>2026-04-06T08:17:15Z</time></trkpt><trkpt lat="45.311117231136194" lon="9.521828879585124"><ele>66.5</ele><time>2026-04-06T08:17:16Z</time></trkpt><trkpt lat="45.31124410346906" lon="9.521871755391272"><ele>67.0</ele><time>2026-04-06T08:17:17Z</time></trkpt><trkpt lat="45.311383644884806" lon="9.521906760609028"><ele>66.75</ele><time>2026-04-06T08:17:18Z</time></trkpt><trkpt lat="45.31150631405325" lon="9.521938356376923"><ele>66.5</ele><time>2026-04-06T08:17:19Z</time></trkpt><trkpt lat="45.31160821405085" lon="9.52196488939345"><ele>66.25</ele><time>2026-04-06T08:17:20Z</time></trkpt><trkpt lat="45.31171744467925" lon="9.521836783578312"><ele>66.0</ele><time>2026-04-06T08:17:21Z</time></trkpt><trkpt lat="45.31180506536305" lon="9.521850320670852"><ele>66.0</ele><time>2026-04-06T08:17:22Z</time></trkpt><trkpt lat="45.311884317002324" lon="9.521860026382395"><ele>66.0</ele><time>2026-04-06T08:17:23Z</time></trkpt><trkpt lat="45.31195002487564" lon="9.521859767290097"><ele>66.0</ele><time>2026-04-06T08:17:24Z</time></trkpt><trkpt lat="45.31203394213548" lon="9.521841070399635"><ele>66.0</ele><time>2026-04-06T08:17:26Z</time></trkpt><trkpt lat="45.3122596259633" lon="9.522296205415707"><ele>65.66666666666667</ele><time>2026-04-06T08:17:34Z</time></trkpt><trkpt lat="45.31230354395302" lon="9.522372439138959"><ele>65.33333333333333</ele><time>2026-04-06T08:17:35Z</time></trkpt><trkpt lat="45.31234203970455" lon="9.5224575125884"><ele>65.0</ele><time>2026-04-06T08:17:36Z</time></trkpt><trkpt lat="45.312387661259905" lon="9.522549166429409"><ele>64.66666666666666</ele><time>2026-04-06T08:17:37Z</time></trkpt><trkpt lat="45.31244068848026" lon="9.522650678725409"><ele>64.33333333333333</ele><time>2026-04-06T08:17:38Z</time></trkpt><trkpt lat="45.31248220213329" lon="9.522734004162055"><ele>64.0</ele><time>2026-04-06T08:17:39Z</time></trkpt><trkpt lat="45.31254659582782" lon="9.522814523538287"><ele>63.99999999999999</ele><time>2026-04-06T08:17:41Z</time></trkpt><trkpt lat="45.31263254952119" lon="9.522797170996583"><ele>64.0</ele><time>2026-04-06T08:17:43Z</time></trkpt><trkpt lat="45.312690925109884" lon="9.522725930479606"><ele>64.0</ele><time>2026-04-06T08:17:45Z</time></trkpt><trkpt lat="45.31277415177382" lon="9.522624688731893"><ele>64.0</ele><time>2026-04-06T08:17:47Z</time></trkpt><trkpt lat="45.31283001518244" lon="9.522562919128188"><ele>63.99999999999999</ele><time>2026-04-06T08:17:48Z</time></trkpt><trkpt lat="45.312893427784644" lon="9.522497985921035"><ele>64.0</ele><time>2026-04-06T08:17:49Z</time></trkpt><trkpt lat="45.31296098740217" lon="9.522431733544227"><ele>64.0</ele><time>2026-04-06T08:17:50Z</time></trkpt><trkpt lat="45.31302791960688" lon="9.522365338699245"><ele>64.0</ele><time>2026-04-06T08:17:51Z</time></trkpt><trkpt lat="45.31309936359431" lon="9.52230436454328"><ele>64.0</ele><time>2026-04-06T08:17:52Z</time></trkpt><trkpt lat="45.31318727441123" lon="9.522227453709412"><ele>64.0</ele><time>2026-04-06T08:17:53Z</time></trkpt><trkpt lat="45.31327276440132" lon="9.522150715774735"><ele>64.0</ele><time>2026-04-06T08:17:54Z</time></trkpt><trkpt lat="45.3133616569747" lon="9.522078105850513"><ele>63.99999999999999</ele><time>2026-04-06T08:17:55Z</time></trkpt><trkpt lat="45.313449594436236" lon="9.522013290104688"><ele>64.0</ele><time>2026-04-06T08:17:56Z</time></trkpt><trkpt lat="45.31352145218589" lon="9.521961710761978"><ele>64.0</ele><time>2026-04-06T08:17:57Z</time></trkpt><trkpt lat="45.31358593956474" lon="9.52191251199899"><ele>64.0</ele><time>2026-04-06T08:17:58Z</time></trkpt><trkpt lat="45.31364164744387" lon="9.521863607039911"><ele>63.99999999999999</ele><time>2026-04-06T08:17:59Z</time></trkpt><trkpt lat="45.31372825862642" lon="9.521794049792266"><ele>64.0</ele><time>2026-04-06T08:18:01Z</time></trkpt><trkpt lat="45.31382763085534" lon="9.521785498922748"><ele>64.0</ele><time>2026-04-06T08:18:03Z</time></trkpt><trkpt lat="45.31392616967187" lon="9.521889880049248"><ele>64.0</ele><time>2026-04-06T08:18:05Z</time></trkpt><trkpt lat="45.31399658568188" lon="9.52197300538849"><ele>64.0</ele><time>2026-04-06T08:18:06Z</time></trkpt><trkpt lat="45.31405987771168" lon="9.52205689046977"><ele>64.0</ele><time>2026-04-06T08:18:07Z</time></trkpt><trkpt lat="45.31415034145994" lon="9.522128900530182"><ele>64.0</ele><time>2026-04-06T08:18:09Z</time></trkpt><trkpt lat="45.31421852089122" lon="9.522079026777753"><ele>63.800000000000004</ele><time>2026-04-06T08:18:11Z</time></trkpt><trkpt lat="45.3143000122164" lon="9.521927371457151"><ele>63.60000000000001</ele><time>2026-04-06T08:18:13Z</time></trkpt><trkpt lat="45.31434392038979" lon="9.521835461459185"><ele>63.4</ele><time>2026-04-06T08:18:14Z</time></trkpt><trkpt lat="45.31438475779138" lon="9.521760374433889"><ele>63.2</ele><time>2026-04-06T08:18:15Z</time></trkpt><trkpt lat="45.314466339496136" lon="9.521619736090987"><ele>63.0</ele><time>2026-04-06T08:18:17Z</time></trkpt><trkpt lat="45.314512299802914" lon="9.521535541687388"><ele>63.0</ele><time>2026-04-06T08:18:18Z</time></trkpt><trkpt lat="45.314551845414364" lon="9.52146140474316"><ele>63.0</ele><time>2026-04-06T08:18:19Z</time></trkpt><trkpt lat="45.31459369317407" lon="9.521386616659344"><ele>63.0</ele><time>2026-04-06T08:18:20Z</time></trkpt><trkpt lat="45.314651712202505" lon="9.521296284880481"><ele>63.0</ele><time>2026-04-06T08:18:21Z</time></trkpt><trkpt lat="45.31472042503933" lon="9.521186918818726"><ele>63.0</ele><time>2026-04-06T08:18:22Z</time></trkpt><trkpt lat="45.31478848559851" lon="9.521076088699052"><ele>63.0</ele><time>2026-04-06T08:18:23Z</time></trkpt><trkpt lat="45.31485209119832" lon="9.521051601523068"><ele>63.2</ele><time>2026-04-06T08:18:25Z</time></trkpt><trkpt lat="45.31497435665167" lon="9.521031777965545"><ele>63.4</ele><time>2026-04-06T08:18:27Z</time></trkpt><trkpt lat="45.31504569612892" lon="9.520812481742075"><ele>63.60000000000001</ele><time>2026-04-06T08:18:28Z</time></trkpt><trkpt lat="45.31511972249058" lon="9.520815722137307"><ele>63.800000000000004</ele><time>2026-04-06T08:18:31Z</time></trkpt><trkpt lat="45.315171384551334" lon="9.520750628245317"><ele>64.0</ele><time>2026-04-06T08:18:36Z</time></trkpt><trkpt lat="45.315223184552984" lon="9.52063479482639"><ele>64.0</ele><time>2026-04-06T08:18:38Z</time></trkpt><trkpt lat="45.315261351106045" lon="9.520404770678201"><ele>64.0</ele><time>2026-04-06T08:18:41Z</time></trkpt><trkpt lat="45.3153122238388" lon="9.520271227307653"><ele>64.0</ele><time>2026-04-06T08:18:54Z</time></trkpt><trkpt lat="45.31536260673553" lon="9.52014360345093"><ele>64.0</ele><time>2026-04-06T08:18:56Z</time></trkpt><trkpt lat="45.31543128322159" lon="9.520002716564681"><ele>63.800000000000004</ele><time>2026-04-06T08:18:58Z</time></trkpt><trkpt lat="45.315484155944745" lon="9.519882086646206"><ele>63.60000000000001</ele><time>2026-04-06T08:19:00Z</time></trkpt><trkpt lat="45.31554343861175" lon="9.51973199542922"><ele>63.4</ele><time>2026-04-06T08:19:02Z</time></trkpt><trkpt lat="45.31557771801147" lon="9.519645698523151"><ele>63.2</ele><time>2026-04-06T08:19:03Z</time></trkpt><trkpt lat="45.31564577689978" lon="9.519503344547239"><ele>63.0</ele><time>2026-04-06T08:19:05Z</time></trkpt><trkpt lat="45.31569748664821" lon="9.519385773904187"><ele>63.0</ele><time>2026-04-06T08:19:07Z</time></trkpt><trkpt lat="45.31575457627678" lon="9.519241006252745"><ele>63.0</ele><time>2026-04-06T08:19:09Z</time></trkpt><trkpt lat="45.31579217529368" lon="9.519155522942125"><ele>63.0</ele><time>2026-04-06T08:19:10Z</time></trkpt><trkpt lat="45.315846214479265" lon="9.519016228327375"><ele>63.0</ele><time>2026-04-06T08:19:12Z</time></trkpt><trkpt lat="45.3158889546597" lon="9.518903080306966"><ele>63.0</ele><time>2026-04-06T08:19:14Z</time></trkpt><trkpt lat="45.31595247149363" lon="9.51880141353941"><ele>63.333333333333336</ele><time>2026-04-06T08:19:16Z</time></trkpt><trkpt lat="45.31599904759714" lon="9.518692828442386"><ele>63.66666666666667</ele><time>2026-04-06T08:19:18Z</time></trkpt><trkpt lat="45.31602884570114" lon="9.518598941181475"><ele>64.0</ele><time>2026-04-06T08:19:20Z</time></trkpt><trkpt lat="45.31605988453838" lon="9.518489789282157"><ele>64.33333333333334</ele><time>2026-04-06T08:19:22Z</time></trkpt><trkpt lat="45.31609581937423" lon="9.518407092741212"><ele>64.66666666666667</ele><time>2026-04-06T08:19:24Z</time></trkpt><trkpt lat="45.31612774928257" lon="9.518312849606211"><ele>65.0</ele><time>2026-04-06T08:19:26Z</time></trkpt><trkpt lat="45.31615807805607" lon="9.518224910293817"><ele>65.00000000000001</ele><time>2026-04-06T08:19:28Z</time></trkpt><trkpt lat="45.3161928700453" lon="9.518139214359746"><ele>65.0</ele><time>2026-04-06T08:19:30Z</time></trkpt><trkpt lat="45.316222440031055" lon="9.518044365876767"><ele>65.0</ele><time>2026-04-06T08:19:33Z</time></trkpt><trkpt lat="45.31625649229044" lon="9.517936147526003"><ele>65.0</ele><time>2026-04-06T08:19:35Z</time></trkpt><trkpt lat="45.31629575854818" lon="9.517833094924082"><ele>65.0</ele><time>2026-04-06T08:19:37Z</time></trkpt><trkpt lat="45.31632941499346" lon="9.517748292785404"><ele>65.00000000000001</ele><time>2026-04-06T08:19:39Z</time></trkpt><trkpt lat="45.31635118759695" lon="9.517655315495494"><ele>65.0</ele><time>2026-04-06T08:19:41Z</time></trkpt><trkpt lat="45.31638054782373" lon="9.51756524773761"><ele>65.33333333333334</ele><time>2026-04-06T08:19:43Z</time></trkpt><trkpt lat="45.31640425359291" lon="9.517447252621764"><ele>65.66666666666667</ele><time>2026-04-06T08:19:46Z</time></trkpt><trkpt lat="45.316442189388155" lon="9.517347041043266"><ele>66.0</ele><time>2026-04-06T08:19:49Z</time></trkpt><trkpt lat="45.316481686096594" lon="9.517219943656501"><ele>66.33333333333333</ele><time>2026-04-06T08:19:51Z</time></trkpt><trkpt lat="45.316510070776914" lon="9.517127920285205"><ele>66.66666666666666</ele><time>2026-04-06T08:19:52Z</time></trkpt><trkpt lat="45.316547845732316" lon="9.517004223079127"><ele>67.0</ele><time>2026-04-06T08:19:53Z</time></trkpt><trkpt lat="45.3165886954076" lon="9.516853185881125"><ele>67.4</ele><time>2026-04-06T08:19:54Z</time></trkpt><trkpt lat="45.316625914959914" lon="9.516709099484858"><ele>67.80000000000001</ele><time>2026-04-06T08:19:55Z</time></trkpt><trkpt lat="45.31665674509049" lon="9.516585625301802"><ele>68.2</ele><time>2026-04-06T08:19:56Z</time></trkpt><trkpt lat="45.316688827044544" lon="9.516462861446493"><ele>68.60000000000001</ele><time>2026-04-06T08:19:57Z</time></trkpt><trkpt lat="45.31672547942636" lon="9.516327599861619"><ele>69.0</ele><time>2026-04-06T08:19:58Z</time></trkpt><trkpt lat="45.31676502157529" lon="9.516180683422292"><ele>69.0</ele><time>2026-04-06T08:19:59Z</time></trkpt><trkpt lat="45.31679578748899" lon="9.51604543295666"><ele>69.0</ele><time>2026-04-06T08:20:00Z</time></trkpt><trkpt lat="45.31681918761446" lon="9.515930905205598"><ele>69.0</ele><time>2026-04-06T08:20:01Z</time></trkpt><trkpt lat="45.316842827433824" lon="9.5158126275052"><ele>69.0</ele><time>2026-04-06T08:20:02Z</time></trkpt><trkpt lat="45.316866735756385" lon="9.515699435876273"><ele>69.0</ele><time>2026-04-06T08:20:03Z</time></trkpt><trkpt lat="45.31689067839944" lon="9.515596614887773"><ele>69.0</ele><time>2026-04-06T08:20:04Z</time></trkpt><trkpt lat="45.31691007444747" lon="9.515508331311203"><ele>69.0</ele><time>2026-04-06T08:20:05Z</time></trkpt><trkpt lat="45.316922712618165" lon="9.515410721505507"><ele>69.0</ele><time>2026-04-06T08:20:06Z</time></trkpt><trkpt lat="45.31694101928169" lon="9.515269093702843"><ele>69.0</ele><time>2026-04-06T08:20:08Z</time></trkpt><trkpt lat="45.316946258921625" lon="9.515165786434036"><ele>69.0</ele><time>2026-04-06T08:20:10Z</time></trkpt><trkpt lat="45.316923607683265" lon="9.51504993554554"><ele>69.0</ele><time>2026-04-06T08:20:13Z</time></trkpt><trkpt lat="45.316826548552264" lon="9.514988794010254"><ele>69.0</ele><time>2026-04-06T08:20:23Z</time></trkpt><trkpt lat="45.31673066788291" lon="9.514901493516236"><ele>68.75</ele><time>2026-04-06T08:20:25Z</time></trkpt><trkpt lat="45.31662738743032" lon="9.514844323884887"><ele>68.5</ele><time>2026-04-06T08:20:27Z</time></trkpt><trkpt lat="45.31652638110122" lon="9.514790792409942"><ele>68.25</ele><time>2026-04-06T08:20:29Z</time></trkpt><trkpt lat="45.316402086401816" lon="9.514748247395596"><ele>68.0</ele><time>2026-04-06T08:20:31Z</time></trkpt><trkpt lat="45.31629735071957" lon="9.514690281376122"><ele>68.0</ele><time>2026-04-06T08:20:33Z</time></trkpt><trkpt lat="45.31619909891135" lon="9.514629049588583"><ele>68.0</ele><time>2026-04-06T08:20:35Z</time></trkpt><trkpt lat="45.31610078274288" lon="9.514589371312033"><ele>68.0</ele><time>2026-04-06T08:20:37Z</time></trkpt><trkpt lat="45.316013450860176" lon="9.514539090165094"><ele>68.0</ele><time>2026-04-06T08:20:39Z</time></trkpt><trkpt lat="45.31592134812965" lon="9.514470134040847"><ele>68.0</ele><time>2026-04-06T08:20:41Z</time></trkpt><trkpt lat="45.31582875287735" lon="9.514419606018558"><ele>68.0</ele><time>2026-04-06T08:20:43Z</time></trkpt><trkpt lat="45.31573152519592" lon="9.51438355663387"><ele>68.0</ele><time>2026-04-06T08:20:45Z</time></trkpt><trkpt lat="45.31563283369956" lon="9.514331211835295"><ele>68.0</ele><time>2026-04-06T08:20:47Z</time></trkpt><trkpt lat="45.3155253799184" lon="9.514277898376685"><ele>68.0</ele><time>2026-04-06T08:20:49Z</time></trkpt><trkpt lat="45.315429112496695" lon="9.514205748496156"><ele>68.0</ele><time>2026-04-06T08:20:51Z</time></trkpt><trkpt lat="45.31534717891458" lon="9.51416421591694"><ele>67.71428571428571</ele><time>2026-04-06T08:20:53Z</time></trkpt><trkpt lat="45.31527199191694" lon="9.51414141315872"><ele>67.42857142857143</ele><time>2026-04-06T08:20:57Z</time></trkpt><trkpt lat="45.315215043416096" lon="9.51410272302307"><ele>67.14285714285714</ele><time>2026-04-06T08:20:58Z</time></trkpt><trkpt lat="45.315155864607604" lon="9.514067291745059"><ele>66.85714285714286</ele><time>2026-04-06T08:20:59Z</time></trkpt><trkpt lat="45.3150503757707" lon="9.513992890515917"><ele>66.57142857142857</ele><time>2026-04-06T08:21:01Z</time></trkpt><trkpt lat="45.31498887277946" lon="9.513969332557421"><ele>66.28571428571428</ele><time>2026-04-06T08:21:05Z</time></trkpt><trkpt lat="45.31493191871814" lon="9.514010380438341"><ele>66.0</ele><time>2026-04-06T08:21:07Z</time></trkpt><trkpt lat="45.31490680634523" lon="9.514097162016894"><ele>66.0</ele><time>2026-04-06T08:21:08Z</time></trkpt><trkpt lat="45.31489968382806" lon="9.51419153774766"><ele>66.0</ele><time>2026-04-06T08:21:09Z</time></trkpt><trkpt lat="45.31485715347616" lon="9.51430710428266"><ele>66.0</ele><time>2026-04-06T08:21:11Z</time></trkpt><trkpt lat="45.314832597436094" lon="9.514392234291904"><ele>66.0</ele><time>2026-04-06T08:21:14Z</time></trkpt><trkpt lat="45.31472270760913" lon="9.514322692716547"><ele>66.0</ele><time>2026-04-06T08:21:15Z</time></trkpt><trkpt lat="45.31465638462209" lon="9.51426962698647"><ele>66.0</ele><time>2026-04-06T08:21:16Z</time></trkpt><trkpt lat="45.314599492396134" lon="9.514211908845397"><ele>66.2</ele><time>2026-04-06T08:21:17Z</time></trkpt><trkpt lat="45.31455831817967" lon="9.514136009588578"><ele>66.39999999999999</ele><time>2026-04-06T08:21:18Z</time></trkpt><trkpt lat="45.314475690463055" lon="9.514056474877897"><ele>66.6</ele><time>2026-04-06T08:21:20Z</time></trkpt><trkpt lat="45.314375042653815" lon="9.514142133156366"><ele>66.8</ele><time>2026-04-06T08:21:22Z</time></trkpt><trkpt lat="45.31435462614153" lon="9.51423786204565"><ele>67.0</ele><time>2026-04-06T08:21:23Z</time></trkpt><trkpt lat="45.31434533902448" lon="9.51439666967893"><ele>67.0</ele><time>2026-04-06T08:21:24Z</time></trkpt><trkpt lat="45.31428233077853" lon="9.514551193692668"><ele>67.0</ele><time>2026-04-06T08:21:25Z</time></trkpt><trkpt lat="45.314226981929664" lon="9.514658495673"><ele>67.0</ele><time>2026-04-06T08:21:26Z</time></trkpt><trkpt lat="45.314177903562204" lon="9.514729474647673"><ele>67.0</ele><time>2026-04-06T08:21:27Z</time></trkpt><trkpt lat="45.314111912631766" lon="9.514898274534788"><ele>67.0</ele><time>2026-04-06T08:21:29Z</time></trkpt><trkpt lat="45.3141017189279" lon="9.515022596594543"><ele>66.8</ele><time>2026-04-06T08:21:30Z</time></trkpt><trkpt lat="45.314089323746686" lon="9.515136685703839"><ele>66.6</ele><time>2026-04-06T08:21:31Z</time></trkpt><trkpt lat="45.314091191762515" lon="9.515255387709693"><ele>66.39999999999999</ele><time>2026-04-06T08:21:32Z</time></trkpt><trkpt lat="45.31403169866117" lon="9.515394570321225"><ele>66.2</ele><time>2026-04-06T08:21:33Z</time></trkpt><trkpt lat="45.314001583018644" lon="9.515567998310182"><ele>66.0</ele><time>2026-04-06T08:21:34Z</time></trkpt><trkpt lat="45.31396823931042" lon="9.515760441295479"><ele>66.0</ele><time>2026-04-06T08:21:35Z</time></trkpt><trkpt lat="45.31394008644758" lon="9.515958680016485"><ele>66.0</ele><time>2026-04-06T08:21:36Z</time></trkpt><trkpt lat="45.31391801354075" lon="9.516167558117944"><ele>66.0</ele><time>2026-04-06T08:21:37Z</time></trkpt><trkpt lat="45.31390158913526" lon="9.516373932447713"><ele>66.0</ele><time>2026-04-06T08:21:38Z</time></trkpt><trkpt lat="45.313886831918246" lon="9.516592760061759"><ele>66.5</ele><time>2026-04-06T08:21:39Z</time></trkpt><trkpt lat="45.313865880514" lon="9.516813832897068"><ele>67.0</ele><time>2026-04-06T08:21:40Z</time></trkpt><trkpt lat="45.313842412087396" lon="9.517019563245862"><ele>67.5</ele><time>2026-04-06T08:21:41Z</time></trkpt><trkpt lat="45.31382693163919" lon="9.517204321199806"><ele>68.0</ele><time>2026-04-06T08:21:42Z</time></trkpt><trkpt lat="45.31381097391973" lon="9.517381400881188"><ele>68.0</ele><time>2026-04-06T08:21:43Z</time></trkpt><trkpt lat="45.3137965264598" lon="9.517545333820344"><ele>68.0</ele><time>2026-04-06T08:21:44Z</time></trkpt><trkpt lat="45.31377995124598" lon="9.517702761330394"><ele>68.0</ele><time>2026-04-06T08:21:45Z</time></trkpt><trkpt lat="45.3137615642201" lon="9.517828534454036"><ele>68.0</ele><time>2026-04-06T08:21:46Z</time></trkpt><trkpt lat="45.313749205066095" lon="9.517921872752598"><ele>68.0</ele><time>2026-04-06T08:21:47Z</time></trkpt><trkpt lat="45.31371354957456" lon="9.518019622861507"><ele>67.83333333333334</ele><time>2026-04-06T08:21:49Z</time></trkpt><trkpt lat="45.31366252869515" lon="9.518134185145923"><ele>67.66666666666667</ele><time>2026-04-06T08:21:51Z</time></trkpt><trkpt lat="45.31362484374354" lon="9.51822507667441"><ele>67.5</ele><time>2026-04-06T08:21:52Z</time></trkpt><trkpt lat="45.31359486396336" lon="9.51832602819619"><ele>67.33333333333333</ele><time>2026-04-06T08:21:53Z</time></trkpt><trkpt lat="45.31358543426902" lon="9.51843883394298"><ele>67.16666666666666</ele><time>2026-04-06T08:21:54Z</time></trkpt><trkpt lat="45.313610682494826" lon="9.518551457274919"><ele>67.0</ele><time>2026-04-06T08:21:55Z</time></trkpt><trkpt lat="45.313586701751284" lon="9.518656552969299"><ele>66.57142857142857</ele><time>2026-04-06T08:21:56Z</time></trkpt><trkpt lat="45.313568713814625" lon="9.518749628898963"><ele>66.14285714285714</ele><time>2026-04-06T08:21:57Z</time></trkpt><trkpt lat="45.31354207558421" lon="9.518847357390998"><ele>65.71428571428571</ele><time>2026-04-06T08:21:58Z</time></trkpt><trkpt lat="45.3135367131167" lon="9.51896331113804"><ele>65.28571428571428</ele><time>2026-04-06T08:21:59Z</time></trkpt><trkpt lat="45.31351978717518" lon="9.519060532375423"><ele>64.85714285714285</ele><time>2026-04-06T08:22:00Z</time></trkpt><trkpt lat="45.31348337158729" lon="9.519145350737983"><ele>64.42857142857143</ele><time>2026-04-06T08:22:12Z</time></trkpt><trkpt lat="45.31343163752302" lon="9.519203435915736"><ele>64.0</ele><time>2026-04-06T08:22:14Z</time></trkpt><trkpt lat="45.31338678632379" lon="9.51927480957729"><ele>64.0</ele><time>2026-04-06T08:22:15Z</time></trkpt><trkpt lat="45.313345194775245" lon="9.51938122589958"><ele>64.0</ele><time>2026-04-06T08:22:16Z</time></trkpt><trkpt lat="45.31330641584143" lon="9.519480225784177"><ele>64.0</ele><time>2026-04-06T08:22:17Z</time></trkpt><trkpt lat="45.31325313072497" lon="9.51961091246094"><ele>64.0</ele><time>2026-04-06T08:22:18Z</time></trkpt><trkpt lat="45.313201203025194" lon="9.519737336855018"><ele>64.0</ele><time>2026-04-06T08:22:19Z</time></trkpt><trkpt lat="45.31314436639575" lon="9.51987395421334"><ele>64.2</ele><time>2026-04-06T08:22:20Z</time></trkpt><trkpt lat="45.313085796139674" lon="9.52001473854745"><ele>64.4</ele><time>2026-04-06T08:22:21Z</time></trkpt><trkpt lat="45.31302798761593" lon="9.520153691915986"><ele>64.6</ele><time>2026-04-06T08:22:22Z</time></trkpt><trkpt lat="45.31298039316782" lon="9.520271585913905"><ele>64.8</ele><time>2026-04-06T08:22:23Z</time></trkpt><trkpt lat="45.31292534331071" lon="9.52038403905564"><ele>65.0</ele><time>2026-04-06T08:22:24Z</time></trkpt><trkpt lat="45.31282099897481" lon="9.520566856669808"><ele>65.0</ele><time>2026-04-06T08:22:26Z</time></trkpt><trkpt lat="45.31222092142863" lon="9.520339802476817"><ele>65.0</ele><time>2026-04-06T08:22:28Z</time></trkpt><trkpt lat="45.31211369475267" lon="9.520363559288851"><ele>65.0</ele><time>2026-04-06T08:22:29Z</time></trkpt><trkpt lat="45.31200212965145" lon="9.520377307412325"><ele>65.0</ele><time>2026-04-06T08:22:30Z</time></trkpt><trkpt lat="45.3118830706984" lon="9.520389171003208"><ele>65.0</ele><time>2026-04-06T08:22:31Z</time></trkpt><trkpt lat="45.31175432340747" lon="9.520399986516741"><ele>65.33333333333334</ele><time>2026-04-06T08:22:32Z</time></trkpt><trkpt lat="45.3116136553561" lon="9.52041134283102"><ele>65.66666666666667</ele><time>2026-04-06T08:22:33Z</time></trkpt><trkpt lat="45.311444871182374" lon="9.52043742200136"><ele>66.0</ele><time>2026-04-06T08:22:34Z</time></trkpt><trkpt lat="45.31125483456778" lon="9.520464403406134"><ele>66.0</ele><time>2026-04-06T08:22:35Z</time></trkpt><trkpt lat="45.31103164585152" lon="9.520497124446326"><ele>66.0</ele><time>2026-04-06T08:22:36Z</time></trkpt><trkpt lat="45.31081632997274" lon="9.520531499602756"><ele>66.0</ele><time>2026-04-06T08:22:37Z</time></trkpt><trkpt lat="45.3105880736224" lon="9.520568319303381"><ele>65.5</ele><time>2026-04-06T08:22:38Z</time></trkpt><trkpt lat="45.31036018841154" lon="9.520611761288922"><ele>65.0</ele><time>2026-04-06T08:22:39Z</time></trkpt><trkpt lat="45.310134555582636" lon="9.52065419823935"><ele>65.0</ele><time>2026-04-06T08:22:40Z</time></trkpt><trkpt lat="45.309919644986344" lon="9.520700240160009"><ele>65.0</ele><time>2026-04-06T08:22:41Z</time></trkpt><trkpt lat="45.30970807713836" lon="9.520752667152022"><ele>65.0</ele><time>2026-04-06T08:22:42Z</time></trkpt><trkpt lat="45.309493151560076" lon="9.520813397913283"><ele>64.66666666666667</ele><time>2026-04-06T08:22:43Z</time></trkpt><trkpt lat="45.30927969204798" lon="9.520875418058589"><ele>64.33333333333333</ele><time>2026-04-06T08:22:44Z</time></trkpt><trkpt lat="45.30906475455608" lon="9.520934271689839"><ele>64.0</ele><time>2026-04-06T08:22:45Z</time></trkpt><trkpt lat="45.30884894176961" lon="9.520994344511294"><ele>64.0</ele><time>2026-04-06T08:22:46Z</time></trkpt><trkpt lat="45.30863610306682" lon="9.52105854513979"><ele>64.0</ele><time>2026-04-06T08:22:47Z</time></trkpt><trkpt lat="45.308427166116154" lon="9.521116777643705"><ele>64.0</ele><time>2026-04-06T08:22:48Z</time></trkpt><trkpt lat="45.30822059488474" lon="9.521168200122226"><ele>64.0</ele><time>2026-04-06T08:22:49Z</time></trkpt><trkpt lat="45.30801748346315" lon="9.521222890213156"><ele>64.0</ele><time>2026-04-06T08:22:50Z</time></trkpt><trkpt lat="45.30781282737779" lon="9.52128468896398"><ele>64.0</ele><time>2026-04-06T08:22:51Z</time></trkpt><trkpt lat="45.30760800191147" lon="9.521347938832914"><ele>64.0</ele><time>2026-04-06T08:22:52Z</time></trkpt><trkpt lat="45.30740653875914" lon="9.521403251541688"><ele>64.0</ele><time>2026-04-06T08:22:53Z</time></trkpt><trkpt lat="45.307201909414665" lon="9.521457341110391"><ele>64.0</ele><time>2026-04-06T08:22:54Z</time></trkpt><trkpt lat="45.30698552988107" lon="9.521517473065858"><ele>65.0</ele><time>2026-04-06T08:22:55Z</time></trkpt><trkpt lat="45.3067628095006" lon="9.521581847761391"><ele>66.0</ele><time>2026-04-06T08:22:56Z</time></trkpt><trkpt lat="45.306540152724835" lon="9.521640702670433"><ele>66.0</ele><time>2026-04-06T08:22:57Z</time></trkpt><trkpt lat="45.306318783974405" lon="9.521700221840819"><ele>66.0</ele><time>2026-04-06T08:22:58Z</time></trkpt><trkpt lat="45.306094757179835" lon="9.521766329575069"><ele>66.0</ele><time>2026-04-06T08:22:59Z</time></trkpt><trkpt lat="45.30587018560178" lon="9.521832891731671"><ele>66.0</ele><time>2026-04-06T08:23:00Z</time></trkpt><trkpt lat="45.30564587883023" lon="9.521896716013142"><ele>66.0</ele><time>2026-04-06T08:23:01Z</time></trkpt><trkpt lat="45.305414041338516" lon="9.521962603485731"><ele>66.0</ele><time>2026-04-06T08:23:02Z</time></trkpt><trkpt lat="45.30516801430168" lon="9.522028707667435"><ele>65.5</ele><time>2026-04-06T08:23:03Z</time></trkpt><trkpt lat="45.30493606345013" lon="9.52209205812169"><ele>65.0</ele><time>2026-04-06T08:23:04Z</time></trkpt><trkpt lat="45.304714415880476" lon="9.52215349778808"><ele>66.0</ele><time>2026-04-06T08:23:05Z</time></trkpt><trkpt lat="45.304496169626574" lon="9.522212865364667"><ele>67.0</ele><time>2026-04-06T08:23:06Z</time></trkpt><trkpt lat="45.304278984999264" lon="9.522269527862287"><ele>68.0</ele><time>2026-04-06T08:23:07Z</time></trkpt><trkpt lat="45.30406217209863" lon="9.522329654247859"><ele>70.33333333333334</ele><time>2026-04-06T08:23:08Z</time></trkpt><trkpt lat="45.303850950748355" lon="9.522393997029615"><ele>72.66666666666667</ele><time>2026-04-06T08:23:09Z</time></trkpt><trkpt lat="45.30364392297826" lon="9.522456037704837"><ele>75.0</ele><time>2026-04-06T08:23:10Z</time></trkpt><trkpt lat="45.30343778183591" lon="9.522511187904824"><ele>75.0</ele><time>2026-04-06T08:23:11Z</time></trkpt><trkpt lat="45.30323249687473" lon="9.522561388689795"><ele>75.0</ele><time>2026-04-06T08:23:12Z</time></trkpt><trkpt lat="45.30302054565636" lon="9.522628590312731"><ele>75.0</ele><time>2026-04-06T08:23:13Z</time></trkpt><trkpt lat="45.302811440213034" lon="9.522685226693625"><ele>75.0</ele><time>2026-04-06T08:23:14Z</time></trkpt><trkpt lat="45.30260735400985" lon="9.522741114531128"><ele>75.0</ele><time>2026-04-06T08:23:15Z</time></trkpt><trkpt lat="45.30239614330814" lon="9.522795929163914"><ele>75.0</ele><time>2026-04-06T08:23:16Z</time></trkpt><trkpt lat="45.30218352329758" lon="9.522861751332405"><ele>74.5</ele><time>2026-04-06T08:23:17Z</time></trkpt><trkpt lat="45.30195902353487" lon="9.522926219543363"><ele>74.0</ele><time>2026-04-06T08:23:18Z</time></trkpt><trkpt lat="45.30173309138294" lon="9.522992836436368"><ele>74.0</ele><time>2026-04-06T08:23:19Z</time></trkpt><trkpt lat="45.3015058284782" lon="9.523058037503434"><ele>74.0</ele><time>2026-04-06T08:23:20Z</time></trkpt><trkpt lat="45.3012897377386" lon="9.523119585759396"><ele>74.33333333333334</ele><time>2026-04-06T08:23:21Z</time></trkpt><trkpt lat="45.30108612150514" lon="9.523172514154748"><ele>74.66666666666667</ele><time>2026-04-06T08:23:22Z</time></trkpt><trkpt lat="45.30088505917447" lon="9.523223594443111"><ele>75.0</ele><time>2026-04-06T08:23:23Z</time></trkpt><trkpt lat="45.300681663301255" lon="9.523280442063065"><ele>74.0</ele><time>2026-04-06T08:23:24Z</time></trkpt><trkpt lat="45.30046853999619" lon="9.52333982685714"><ele>73.0</ele><time>2026-04-06T08:23:25Z</time></trkpt><trkpt lat="45.300266637128544" lon="9.523400459902167"><ele>72.0</ele><time>2026-04-06T08:23:26Z</time></trkpt><trkpt lat="45.30006996840938" lon="9.52345978413092"><ele>72.0</ele><time>2026-04-06T08:23:27Z</time></trkpt><trkpt lat="45.29986996957534" lon="9.523512450330166"><ele>72.0</ele><time>2026-04-06T08:23:28Z</time></trkpt><trkpt lat="45.2996725952006" lon="9.523565000219499"><ele>72.0</ele><time>2026-04-06T08:23:29Z</time></trkpt><trkpt lat="45.299484698681525" lon="9.523619533618396"><ele>72.66666666666667</ele><time>2026-04-06T08:23:30Z</time></trkpt><trkpt lat="45.299292736071024" lon="9.523671498985486"><ele>73.33333333333334</ele><time>2026-04-06T08:23:31Z</time></trkpt><trkpt lat="45.29910126173616" lon="9.523723252171292"><ele>74.0</ele><time>2026-04-06T08:23:32Z</time></trkpt><trkpt lat="45.29891301848264" lon="9.523769840878721"><ele>74.66666666666667</ele><time>2026-04-06T08:23:33Z</time></trkpt><trkpt lat="45.29872476532167" lon="9.523829079350945"><ele>75.33333333333333</ele><time>2026-04-06T08:23:34Z</time></trkpt><trkpt lat="45.29852848888442" lon="9.523884419002664"><ele>76.0</ele><time>2026-04-06T08:23:35Z</time></trkpt><trkpt lat="45.298333884253296" lon="9.523930428165254"><ele>76.0</ele><time>2026-04-06T08:23:36Z</time></trkpt><trkpt lat="45.29814682330192" lon="9.5239655105908"><ele>76.0</ele><time>2026-04-06T08:23:37Z</time></trkpt><trkpt lat="45.29795425985708" lon="9.52399280141723"><ele>76.0</ele><time>2026-04-06T08:23:38Z</time></trkpt><trkpt lat="45.29776663009615" lon="9.524003674140019"><ele>75.0</ele><time>2026-04-06T08:23:39Z</time></trkpt><trkpt lat="45.297572094778566" lon="9.52400079004847"><ele>74.0</ele><time>2026-04-06T08:23:40Z</time></trkpt><trkpt lat="45.29737724247576" lon="9.523988062496063"><ele>73.0</ele><time>2026-04-06T08:23:41Z</time></trkpt><trkpt lat="45.29718066015059" lon="9.523957061133341"><ele>72.66666666666666</ele><time>2026-04-06T08:23:42Z</time></trkpt><trkpt lat="45.29698611661619" lon="9.523919037169211"><ele>72.33333333333333</ele><time>2026-04-06T08:23:43Z</time></trkpt><trkpt lat="45.296800675471886" lon="9.523867032280242"><ele>72.0</ele><time>2026-04-06T08:23:44Z</time></trkpt><trkpt lat="45.29662186763439" lon="9.52380568027485"><ele>72.0</ele><time>2026-04-06T08:23:45Z</time></trkpt><trkpt lat="45.29644895524365" lon="9.523739481764666"><ele>72.0</ele><time>2026-04-06T08:23:46Z</time></trkpt><trkpt lat="45.296277797483626" lon="9.523660333427472"><ele>72.0</ele><time>2026-04-06T08:23:47Z</time></trkpt><trkpt lat="45.296102290130946" lon="9.523564083643054"><ele>71.66666666666667</ele><time>2026-04-06T08:23:48Z</time></trkpt><trkpt lat="45.295936535707945" lon="9.52345543927345"><ele>71.33333333333334</ele><time>2026-04-06T08:23:49Z</time></trkpt><trkpt lat="45.295770706999114" lon="9.523330241768875"><ele>71.0</ele><time>2026-04-06T08:23:50Z</time></trkpt><trkpt lat="45.295612990732366" lon="9.523190612034501"><ele>71.0</ele><time>2026-04-06T08:23:51Z</time></trkpt><trkpt lat="45.29546846598923" lon="9.523042802755935"><ele>71.0</ele><time>2026-04-06T08:23:52Z</time></trkpt><trkpt lat="45.29532521389396" lon="9.522877323592194"><ele>71.0</ele><time>2026-04-06T08:23:53Z</time></trkpt><trkpt lat="45.29519520893894" lon="9.522696061952619"><ele>71.33333333333334</ele><time>2026-04-06T08:23:54Z</time></trkpt><trkpt lat="45.29507280054356" lon="9.522502390433633"><ele>71.66666666666667</ele><time>2026-04-06T08:23:55Z</time></trkpt><trkpt lat="45.29495925572346" lon="9.52229995148351"><ele>72.0</ele><time>2026-04-06T08:23:56Z</time></trkpt><trkpt lat="45.29485763953885" lon="9.52208827616493"><ele>72.0</ele><time>2026-04-06T08:23:57Z</time></trkpt><trkpt lat="45.29475760017481" lon="9.52184468512155"><ele>72.0</ele><time>2026-04-06T08:23:58Z</time></trkpt><trkpt lat="45.29466165905751" lon="9.521592719422845"><ele>72.0</ele><time>2026-04-06T08:23:59Z</time></trkpt><trkpt lat="45.294560623178434" lon="9.521357373862832"><ele>71.66666666666667</ele><time>2026-04-06T08:24:00Z</time></trkpt><trkpt lat="45.294472641117096" lon="9.521124606262553"><ele>71.33333333333334</ele><time>2026-04-06T08:24:01Z</time></trkpt><trkpt lat="45.29441177478258" lon="9.52093296991175"><ele>71.0</ele><time>2026-04-06T08:24:02Z</time></trkpt><trkpt lat="45.29440196788327" lon="9.520664112955615"><ele>72.0</ele><time>2026-04-06T08:24:03Z</time></trkpt><trkpt lat="45.29442259658155" lon="9.520384983580115"><ele>73.0</ele><time>2026-04-06T08:24:04Z</time></trkpt><trkpt lat="45.29442333557422" lon="9.520115926197022"><ele>74.0</ele><time>2026-04-06T08:24:05Z</time></trkpt><trkpt lat="45.29444078826617" lon="9.51984857921195"><ele>74.0</ele><time>2026-04-06T08:24:06Z</time></trkpt><trkpt lat="45.29445738291218" lon="9.5195912128666"><ele>74.0</ele><time>2026-04-06T08:24:07Z</time></trkpt><trkpt lat="45.29448431962216" lon="9.519346220766973"><ele>74.0</ele><time>2026-04-06T08:24:08Z</time></trkpt><trkpt lat="45.29452164166597" lon="9.519108224830108"><ele>74.0</ele><time>2026-04-06T08:24:09Z</time></trkpt><trkpt lat="45.29456370995731" lon="9.518869436878052"><ele>74.0</ele><time>2026-04-06T08:24:10Z</time></trkpt><trkpt lat="45.294600145375526" lon="9.51863019616361"><ele>74.0</ele><time>2026-04-06T08:24:11Z</time></trkpt><trkpt lat="45.29463420849666" lon="9.518385682821751"><ele>74.0</ele><time>2026-04-06T08:24:12Z</time></trkpt><trkpt lat="45.294670236519885" lon="9.518141339070993"><ele>74.0</ele><time>2026-04-06T08:24:13Z</time></trkpt><trkpt lat="45.29470262287676" lon="9.517878758057869"><ele>74.0</ele><time>2026-04-06T08:24:14Z</time></trkpt><trkpt lat="45.29473877706258" lon="9.517609231854967"><ele>75.0</ele><time>2026-04-06T08:24:15Z</time></trkpt><trkpt lat="45.29477208747467" lon="9.517343004124308"><ele>76.0</ele><time>2026-04-06T08:24:16Z</time></trkpt><trkpt lat="45.2948062158916" lon="9.517090925577346"><ele>77.0</ele><time>2026-04-06T08:24:17Z</time></trkpt><trkpt lat="45.29484277655561" lon="9.516839027567341"><ele>77.0</ele><time>2026-04-06T08:24:18Z</time></trkpt><trkpt lat="45.294877001137564" lon="9.516583148447824"><ele>77.0</ele><time>2026-04-06T08:24:19Z</time></trkpt><trkpt lat="45.2949116124454" lon="9.516335251948426"><ele>77.0</ele><time>2026-04-06T08:24:20Z</time></trkpt><trkpt lat="45.294950614481216" lon="9.516084415453545"><ele>77.0</ele><time>2026-04-06T08:24:21Z</time></trkpt><trkpt lat="45.29499454936813" lon="9.515833051479264"><ele>77.0</ele><time>2026-04-06T08:24:22Z</time></trkpt><trkpt lat="45.29504331670927" lon="9.515595918033824"><ele>77.0</ele><time>2026-04-06T08:24:23Z</time></trkpt><trkpt lat="45.29509108045134" lon="9.515345301197335"><ele>77.33333333333334</ele><time>2026-04-06T08:24:24Z</time></trkpt><trkpt lat="45.2951384407304" lon="9.515099261928059"><ele>77.66666666666667</ele><time>2026-04-06T08:24:25Z</time></trkpt><trkpt lat="45.29518381451793" lon="9.514854724476024"><ele>78.0</ele><time>2026-04-06T08:24:26Z</time></trkpt><trkpt lat="45.295229877462866" lon="9.514606594760904"><ele>77.66666666666667</ele><time>2026-04-06T08:24:27Z</time></trkpt><trkpt lat="45.29527685332147" lon="9.514352623966596"><ele>77.33333333333334</ele><time>2026-04-06T08:24:28Z</time></trkpt><trkpt lat="45.29532212193026" lon="9.51410564351245"><ele>77.0</ele><time>2026-04-06T08:24:29Z</time></trkpt><trkpt lat="45.29537235330389" lon="9.51385134754568"><ele>76.0</ele><time>2026-04-06T08:24:30Z</time></trkpt><trkpt lat="45.295423438405685" lon="9.51359034544071"><ele>75.0</ele><time>2026-04-06T08:24:31Z</time></trkpt><trkpt lat="45.29547418110302" lon="9.513321973853857"><ele>74.0</ele><time>2026-04-06T08:24:32Z</time></trkpt><trkpt lat="45.295523271223686" lon="9.513057099297438"><ele>74.33333333333334</ele><time>2026-04-06T08:24:33Z</time></trkpt><trkpt lat="45.29557267661937" lon="9.512786095618884"><ele>74.66666666666667</ele><time>2026-04-06T08:24:34Z</time></trkpt><trkpt lat="45.29562250630912" lon="9.512521110507917"><ele>75.0</ele><time>2026-04-06T08:24:35Z</time></trkpt><trkpt lat="45.29567642829069" lon="9.512243837015719"><ele>75.33333333333333</ele><time>2026-04-06T08:24:36Z</time></trkpt><trkpt lat="45.29573038731237" lon="9.511951683620612"><ele>75.66666666666666</ele><time>2026-04-06T08:24:37Z</time></trkpt><trkpt lat="45.29578832028755" lon="9.511647077866428"><ele>76.0</ele><time>2026-04-06T08:24:38Z</time></trkpt><trkpt lat="45.295845384695824" lon="9.51134849394949"><ele>75.66666666666666</ele><time>2026-04-06T08:24:39Z</time></trkpt><trkpt lat="45.295899207898714" lon="9.511058415169126"><ele>75.33333333333333</ele><time>2026-04-06T08:24:40Z</time></trkpt><trkpt lat="45.295953212258695" lon="9.510770762327374"><ele>75.0</ele><time>2026-04-06T08:24:41Z</time></trkpt><trkpt lat="45.296008791106104" lon="9.51048972627854"><ele>75.0</ele><time>2026-04-06T08:24:42Z</time></trkpt><trkpt lat="45.29606265199808" lon="9.510203639738549"><ele>75.0</ele><time>2026-04-06T08:24:43Z</time></trkpt><trkpt lat="45.296117377726155" lon="9.509914170091864"><ele>75.0</ele><time>2026-04-06T08:24:44Z</time></trkpt><trkpt lat="45.29617292413315" lon="9.509612793072195"><ele>75.0</ele><time>2026-04-06T08:24:45Z</time></trkpt><trkpt lat="45.296229308530584" lon="9.509310096494374"><ele>75.0</ele><time>2026-04-06T08:24:46Z</time></trkpt><trkpt lat="45.29628328310252" lon="9.509016554902612"><ele>75.0</ele><time>2026-04-06T08:24:47Z</time></trkpt><trkpt lat="45.29633705854233" lon="9.508729598815421"><ele>75.0</ele><time>2026-04-06T08:24:48Z</time></trkpt><trkpt lat="45.296395231652696" lon="9.508428365463617"><ele>75.0</ele><time>2026-04-06T08:24:49Z</time></trkpt><trkpt lat="45.29645153696196" lon="9.508139310329272"><ele>75.0</ele><time>2026-04-06T08:24:50Z</time></trkpt><trkpt lat="45.29650481656324" lon="9.507859590629256"><ele>75.0</ele><time>2026-04-06T08:24:51Z</time></trkpt><trkpt lat="45.296560023293516" lon="9.507575628338694"><ele>75.0</ele><time>2026-04-06T08:24:52Z</time></trkpt><trkpt lat="45.296615989242554" lon="9.5072912148895"><ele>75.0</ele><time>2026-04-06T08:24:53Z</time></trkpt><trkpt lat="45.29666869109166" lon="9.507007903452692"><ele>75.0</ele><time>2026-04-06T08:24:54Z</time></trkpt><trkpt lat="45.296716505649364" lon="9.506730982266372"><ele>75.0</ele><time>2026-04-06T08:24:55Z</time></trkpt><trkpt lat="45.29676217501209" lon="9.506478286892314"><ele>75.0</ele><time>2026-04-06T08:24:56Z</time></trkpt><trkpt lat="45.29680937204292" lon="9.506216827553862"><ele>75.0</ele><time>2026-04-06T08:24:57Z</time></trkpt><trkpt lat="45.29685633307451" lon="9.505959837950158"><ele>75.0</ele><time>2026-04-06T08:24:58Z</time></trkpt><trkpt lat="45.29690191511659" lon="9.50572597561534"><ele>75.0</ele><time>2026-04-06T08:24:59Z</time></trkpt><trkpt lat="45.29694831164448" lon="9.505478285789827"><ele>75.33333333333333</ele><time>2026-04-06T08:25:00Z</time></trkpt><trkpt lat="45.29699860990253" lon="9.50522810408513"><ele>75.66666666666666</ele><time>2026-04-06T08:25:01Z</time></trkpt><trkpt lat="45.29704538593173" lon="9.504992935330893"><ele>76.0</ele><time>2026-04-06T08:25:02Z</time></trkpt><trkpt lat="45.29708548872793" lon="9.504772001403031"><ele>76.0</ele><time>2026-04-06T08:25:03Z</time></trkpt><trkpt lat="45.2971226141696" lon="9.504559371539722"><ele>76.0</ele><time>2026-04-06T08:25:04Z</time></trkpt><trkpt lat="45.29715973073193" lon="9.504366668214406"><ele>76.0</ele><time>2026-04-06T08:25:05Z</time></trkpt><trkpt lat="45.297191512486954" lon="9.504180337987417"><ele>76.0</ele><time>2026-04-06T08:25:06Z</time></trkpt><trkpt lat="45.297221446922634" lon="9.504010521429306"><ele>76.0</ele><time>2026-04-06T08:25:07Z</time></trkpt><trkpt lat="45.2972517552952" lon="9.503873643839933"><ele>76.0</ele><time>2026-04-06T08:25:08Z</time></trkpt><trkpt lat="45.29727999148052" lon="9.503746252451641"><ele>76.0</ele><time>2026-04-06T08:25:09Z</time></trkpt><trkpt lat="45.297320376648" lon="9.503610359381993"><ele>76.0</ele><time>2026-04-06T08:25:10Z</time></trkpt><trkpt lat="45.297380765365965" lon="9.503483616439743"><ele>76.0</ele><time>2026-04-06T08:25:11Z</time></trkpt><trkpt lat="45.29743904395776" lon="9.5033742016961"><ele>76.0</ele><time>2026-04-06T08:25:12Z</time></trkpt><trkpt lat="45.297486187755474" lon="9.50327686863596"><ele>76.0</ele><time>2026-04-06T08:25:13Z</time></trkpt><trkpt lat="45.297523209253114" lon="9.503173377078367"><ele>76.0</ele><time>2026-04-06T08:25:14Z</time></trkpt><trkpt lat="45.29754038369944" lon="9.503075963018063"><ele>76.0</ele><time>2026-04-06T08:25:15Z</time></trkpt><trkpt lat="45.297531504489385" lon="9.502979621934701"><ele>76.0</ele><time>2026-04-06T08:25:16Z</time></trkpt><trkpt lat="45.29750009958304" lon="9.502895997695225"><ele>76.0</ele><time>2026-04-06T08:25:17Z</time></trkpt><trkpt lat="45.29745229476801" lon="9.502831469091422"><ele>76.0</ele><time>2026-04-06T08:25:18Z</time></trkpt><trkpt lat="45.29733029736987" lon="9.5027969909583"><ele>76.0</ele><time>2026-04-06T08:25:20Z</time></trkpt><trkpt lat="45.29726851550729" lon="9.502818136821249"><ele>76.0</ele><time>2026-04-06T08:25:21Z</time></trkpt><trkpt lat="45.29720590642537" lon="9.50286536882269"><ele>76.0</ele><time>2026-04-06T08:25:22Z</time></trkpt><trkpt lat="45.29715446132087" lon="9.502955461931634"><ele>76.0</ele><time>2026-04-06T08:25:23Z</time></trkpt><trkpt lat="45.297129892966524" lon="9.50306223320182"><ele>76.0</ele><time>2026-04-06T08:25:24Z</time></trkpt><trkpt lat="45.29712982387292" lon="9.50319341705204"><ele>76.0</ele><time>2026-04-06T08:25:25Z</time></trkpt><trkpt lat="45.297148311625044" lon="9.503343493176942"><ele>76.0</ele><time>2026-04-06T08:25:26Z</time></trkpt><trkpt lat="45.297172869204125" lon="9.503497503166919"><ele>76.0</ele><time>2026-04-06T08:25:27Z</time></trkpt><trkpt lat="45.297183307617196" lon="9.503654937988491"><ele>76.0</ele><time>2026-04-06T08:25:28Z</time></trkpt><trkpt lat="45.29717008191159" lon="9.503846963166113"><ele>76.0</ele><time>2026-04-06T08:25:29Z</time></trkpt><trkpt lat="45.29713089924728" lon="9.504078564052543"><ele>76.0</ele><time>2026-04-06T08:25:30Z</time></trkpt><trkpt lat="45.297073936034565" lon="9.504328491190465"><ele>76.0</ele><time>2026-04-06T08:25:31Z</time></trkpt><trkpt lat="45.29702180360882" lon="9.504586063048695"><ele>76.0</ele><time>2026-04-06T08:25:32Z</time></trkpt><trkpt lat="45.29696574458082" lon="9.504890334991954"><ele>76.0</ele><time>2026-04-06T08:25:33Z</time></trkpt><trkpt lat="45.29690565887738" lon="9.505216142840153"><ele>76.0</ele><time>2026-04-06T08:25:34Z</time></trkpt><trkpt lat="45.29684740604201" lon="9.505514109820064"><ele>75.66666666666666</ele><time>2026-04-06T08:25:35Z</time></trkpt><trkpt lat="45.29679553067587" lon="9.505797878496837"><ele>75.33333333333333</ele><time>2026-04-06T08:25:36Z</time></trkpt><trkpt lat="45.2967443034978" lon="9.506073243739799"><ele>75.0</ele><time>2026-04-06T08:25:37Z</time></trkpt><trkpt lat="45.29669430711365" lon="9.50635919210449"><ele>75.0</ele><time>2026-04-06T08:25:38Z</time></trkpt><trkpt lat="45.29664504085497" lon="9.506665889650293"><ele>75.0</ele><time>2026-04-06T08:25:39Z</time></trkpt><trkpt lat="45.296589545836184" lon="9.506992547039426"><ele>75.5</ele><time>2026-04-06T08:25:40Z</time></trkpt><trkpt lat="45.29653081636744" lon="9.507333810461665"><ele>76.0</ele><time>2026-04-06T08:25:41Z</time></trkpt><trkpt lat="45.296471024393355" lon="9.50767498769162"><ele>75.5</ele><time>2026-04-06T08:25:42Z</time></trkpt><trkpt lat="45.29640838065505" lon="9.50800572963584"><ele>75.0</ele><time>2026-04-06T08:25:43Z</time></trkpt><trkpt lat="45.296338152204584" lon="9.508322332869497"><ele>75.0</ele><time>2026-04-06T08:25:44Z</time></trkpt><trkpt lat="45.29626867471024" lon="9.508637553932735"><ele>75.0</ele><time>2026-04-06T08:25:45Z</time></trkpt><trkpt lat="45.29620432477776" lon="9.50895509716776"><ele>75.0</ele><time>2026-04-06T08:25:46Z</time></trkpt><trkpt lat="45.29614425193936" lon="9.509278069194963"><ele>75.0</ele><time>2026-04-06T08:25:47Z</time></trkpt><trkpt lat="45.29608346640713" lon="9.509597411722257"><ele>75.0</ele><time>2026-04-06T08:25:48Z</time></trkpt><trkpt lat="45.29602468514593" lon="9.509888083090063"><ele>75.0</ele><time>2026-04-06T08:25:49Z</time></trkpt><trkpt lat="45.29597109464524" lon="9.510159186743955"><ele>75.0</ele><time>2026-04-06T08:25:50Z</time></trkpt><trkpt lat="45.295909740887005" lon="9.510412893928997"><ele>75.0</ele><time>2026-04-06T08:25:51Z</time></trkpt><trkpt lat="45.29582972693754" lon="9.51066125753452"><ele>75.0</ele><time>2026-04-06T08:25:52Z</time></trkpt><trkpt lat="45.29573590346886" lon="9.510934001124369"><ele>75.0</ele><time>2026-04-06T08:25:53Z</time></trkpt><trkpt lat="45.295649615601185" lon="9.511220979212393"><ele>75.0</ele><time>2026-04-06T08:25:54Z</time></trkpt><trkpt lat="45.29555588862405" lon="9.511506710295595"><ele>75.0</ele><time>2026-04-06T08:25:55Z</time></trkpt><trkpt lat="45.29545917181918" lon="9.511793866576548"><ele>75.0</ele><time>2026-04-06T08:25:56Z</time></trkpt><trkpt lat="45.29538141127319" lon="9.51209222159321"><ele>75.0</ele><time>2026-04-06T08:25:57Z</time></trkpt><trkpt lat="45.295272316737815" lon="9.512366319987658"><ele>75.0</ele><time>2026-04-06T08:25:58Z</time></trkpt><trkpt lat="45.295179003552" lon="9.512637243369053"><ele>75.0</ele><time>2026-04-06T08:25:59Z</time></trkpt><trkpt lat="45.295063049928906" lon="9.512904340160937"><ele>74.66666666666667</ele><time>2026-04-06T08:26:00Z</time></trkpt><trkpt lat="45.294932941455336" lon="9.513161314987071"><ele>74.33333333333334</ele><time>2026-04-06T08:26:01Z</time></trkpt><trkpt lat="45.29479351119615" lon="9.513399477271031"><ele>74.0</ele><time>2026-04-06T08:26:02Z</time></trkpt><trkpt lat="45.29463682721722" lon="9.513612865112409"><ele>74.5</ele><time>2026-04-06T08:26:03Z</time></trkpt><trkpt lat="45.29446292496847" lon="9.513823766959803"><ele>75.0</ele><time>2026-04-06T08:26:04Z</time></trkpt><trkpt lat="45.29427390060236" lon="9.51402123905969"><ele>75.0</ele><time>2026-04-06T08:26:05Z</time></trkpt><trkpt lat="45.29407535759796" lon="9.51420313618858"><ele>75.0</ele><time>2026-04-06T08:26:06Z</time></trkpt><trkpt lat="45.293870697184786" lon="9.514370476753186"><ele>75.0</ele><time>2026-04-06T08:26:07Z</time></trkpt><trkpt lat="45.29366000524698" lon="9.514537805959241"><ele>75.0</ele><time>2026-04-06T08:26:08Z</time></trkpt><trkpt lat="45.29346241639221" lon="9.514704563333003"><ele>75.5</ele><time>2026-04-06T08:26:09Z</time></trkpt><trkpt lat="45.29326269307908" lon="9.514877397567533"><ele>76.0</ele><time>2026-04-06T08:26:10Z</time></trkpt><trkpt lat="45.293062456764815" lon="9.515041641176955"><ele>75.0</ele><time>2026-04-06T08:26:11Z</time></trkpt><trkpt lat="45.29286047023439" lon="9.515206614086555"><ele>74.0</ele><time>2026-04-06T08:26:12Z</time></trkpt><trkpt lat="45.29265869390771" lon="9.515375685485187"><ele>74.5</ele><time>2026-04-06T08:26:13Z</time></trkpt><trkpt lat="45.29246393262549" lon="9.51554676319594"><ele>75.0</ele><time>2026-04-06T08:26:14Z</time></trkpt><trkpt lat="45.29226012325387" lon="9.515718527461397"><ele>74.0</ele><time>2026-04-06T08:26:15Z</time></trkpt><trkpt lat="45.292061879711724" lon="9.515881492306262"><ele>73.0</ele><time>2026-04-06T08:26:16Z</time></trkpt><trkpt lat="45.291871624559256" lon="9.516043738592037"><ele>73.0</ele><time>2026-04-06T08:26:17Z</time></trkpt><trkpt lat="45.291679589376" lon="9.516205510812924"><ele>73.0</ele><time>2026-04-06T08:26:18Z</time></trkpt><trkpt lat="45.291488553895505" lon="9.516364949821561"><ele>73.0</ele><time>2026-04-06T08:26:19Z</time></trkpt><trkpt lat="45.29129297197998" lon="9.516523729703037"><ele>72.66666666666666</ele><time>2026-04-06T08:26:20Z</time></trkpt><trkpt lat="45.29110244968177" lon="9.516686526661648"><ele>72.33333333333333</ele><time>2026-04-06T08:26:21Z</time></trkpt><trkpt lat="45.290922393977986" lon="9.516829743474876"><ele>72.0</ele><time>2026-04-06T08:26:22Z</time></trkpt><trkpt lat="45.29074728440314" lon="9.516956185613811"><ele>72.66666666666667</ele><time>2026-04-06T08:26:23Z</time></trkpt><trkpt lat="45.290584424610145" lon="9.517083090039396"><ele>73.33333333333334</ele><time>2026-04-06T08:26:24Z</time></trkpt><trkpt lat="45.29041472556197" lon="9.517205106949312"><ele>74.0</ele><time>2026-04-06T08:26:25Z</time></trkpt><trkpt lat="45.29024066326489" lon="9.517324078199113"><ele>74.0</ele><time>2026-04-06T08:26:26Z</time></trkpt><trkpt lat="45.28999992478093" lon="9.517301544427925"><ele>74.0</ele><time>2026-04-06T08:26:27Z</time></trkpt><trkpt lat="45.28979738131185" lon="9.517380768803267"><ele>74.0</ele><time>2026-04-06T08:26:28Z</time></trkpt><trkpt lat="45.28960060043574" lon="9.517440562999523"><ele>74.0</ele><time>2026-04-06T08:26:29Z</time></trkpt><trkpt lat="45.28941362286556" lon="9.51749260501436"><ele>74.0</ele><time>2026-04-06T08:26:30Z</time></trkpt><trkpt lat="45.28921494314071" lon="9.517549154182923"><ele>74.0</ele><time>2026-04-06T08:26:31Z</time></trkpt><trkpt lat="45.28901166792301" lon="9.517610333943784"><ele>74.0</ele><time>2026-04-06T08:26:32Z</time></trkpt><trkpt lat="45.288798704060994" lon="9.517665159218407"><ele>74.0</ele><time>2026-04-06T08:26:33Z</time></trkpt><trkpt lat="45.288592428670945" lon="9.517715543855058"><ele>74.0</ele><time>2026-04-06T08:26:34Z</time></trkpt><trkpt lat="45.28839077516443" lon="9.517765708429536"><ele>74.0</ele><time>2026-04-06T08:26:35Z</time></trkpt><trkpt lat="45.288193223992984" lon="9.517815374664181"><ele>74.0</ele><time>2026-04-06T08:26:36Z</time></trkpt><trkpt lat="45.287993238008546" lon="9.517862109953636"><ele>73.0</ele><time>2026-04-06T08:26:37Z</time></trkpt><trkpt lat="45.287798295761405" lon="9.517907801586784"><ele>72.0</ele><time>2026-04-06T08:26:38Z</time></trkpt><trkpt lat="45.28759709659506" lon="9.517959649443528"><ele>71.0</ele><time>2026-04-06T08:26:39Z</time></trkpt><trkpt lat="45.28740557725188" lon="9.518009750193782"><ele>72.0</ele><time>2026-04-06T08:26:40Z</time></trkpt><trkpt lat="45.28722981071789" lon="9.518052352818284"><ele>73.0</ele><time>2026-04-06T08:26:41Z</time></trkpt><trkpt lat="45.287070634867774" lon="9.518089121517402"><ele>74.0</ele><time>2026-04-06T08:26:42Z</time></trkpt><trkpt lat="45.28692941260374" lon="9.518124724629075"><ele>74.0</ele><time>2026-04-06T08:26:43Z</time></trkpt><trkpt lat="45.28679983215601" lon="9.518158679693189"><ele>74.0</ele><time>2026-04-06T08:26:44Z</time></trkpt><trkpt lat="45.28668065868383" lon="9.518187599845499"><ele>74.0</ele><time>2026-04-06T08:26:45Z</time></trkpt><trkpt lat="45.28657676775355" lon="9.518213557525161"><ele>74.0</ele><time>2026-04-06T08:26:46Z</time></trkpt><trkpt lat="45.28648373224587" lon="9.518236303789912"><ele>74.5</ele><time>2026-04-06T08:26:47Z</time></trkpt><trkpt lat="45.28639336599906" lon="9.518262196220455"><ele>75.0</ele><time>2026-04-06T08:26:48Z</time></trkpt><trkpt lat="45.28630167005139" lon="9.518288145268796"><ele>75.5</ele><time>2026-04-06T08:26:49Z</time></trkpt><trkpt lat="45.2862196897864" lon="9.518313379609225"><ele>76.0</ele><time>2026-04-06T08:26:50Z</time></trkpt><trkpt lat="45.28614420273132" lon="9.518332117588013"><ele>76.5</ele><time>2026-04-06T08:26:51Z</time></trkpt><trkpt lat="45.28607665780008" lon="9.518346307280092"><ele>77.0</ele><time>2026-04-06T08:26:52Z</time></trkpt><trkpt lat="45.2859868387687" lon="9.5183739376874"><ele>77.0</ele><time>2026-04-06T08:26:54Z</time></trkpt><trkpt lat="45.28592851732835" lon="9.518415455484533"><ele>77.0</ele><time>2026-04-06T08:26:58Z</time></trkpt><trkpt lat="45.28586485631312" lon="9.518493380847659"><ele>77.0</ele><time>2026-04-06T08:27:21Z</time></trkpt><trkpt lat="45.28580399650663" lon="9.518571985630468"><ele>77.0</ele><time>2026-04-06T08:27:22Z</time></trkpt><trkpt lat="45.28571978525977" lon="9.518649664908361"><ele>77.0</ele><time>2026-04-06T08:27:23Z</time></trkpt><trkpt lat="45.28562010369064" lon="9.518750948415333"><ele>76.25</ele><time>2026-04-06T08:27:24Z</time></trkpt><trkpt lat="45.28552239534912" lon="9.51886609493308"><ele>75.5</ele><time>2026-04-06T08:27:25Z</time></trkpt><trkpt lat="45.2854274831887" lon="9.518983177036521"><ele>74.75</ele><time>2026-04-06T08:27:26Z</time></trkpt><trkpt lat="45.285337178258224" lon="9.519094307197625"><ele>74.0</ele><time>2026-04-06T08:27:27Z</time></trkpt><trkpt lat="45.285232600995286" lon="9.519223216558382"><ele>74.0</ele><time>2026-04-06T08:27:28Z</time></trkpt><trkpt lat="45.28512589014313" lon="9.519358318318721"><ele>74.0</ele><time>2026-04-06T08:27:29Z</time></trkpt><trkpt lat="45.28500295650586" lon="9.519482940625391"><ele>74.0</ele><time>2026-04-06T08:27:30Z</time></trkpt><trkpt lat="45.284864138656346" lon="9.51959201980851"><ele>73.66666666666667</ele><time>2026-04-06T08:27:31Z</time></trkpt><trkpt lat="45.28470399797844" lon="9.519685928418928"><ele>73.33333333333333</ele><time>2026-04-06T08:27:32Z</time></trkpt><trkpt lat="45.28453108131143" lon="9.519772103953088"><ele>73.0</ele><time>2026-04-06T08:27:33Z</time></trkpt><trkpt lat="45.284353599294505" lon="9.519852540535263"><ele>73.0</ele><time>2026-04-06T08:27:34Z</time></trkpt><trkpt lat="45.28417717516791" lon="9.519935338872049"><ele>73.0</ele><time>2026-04-06T08:27:35Z</time></trkpt><trkpt lat="45.28399403402329" lon="9.520017506287852"><ele>73.0</ele><time>2026-04-06T08:27:36Z</time></trkpt><trkpt lat="45.283813765127846" lon="9.520102330070875"><ele>73.33333333333333</ele><time>2026-04-06T08:27:37Z</time></trkpt><trkpt lat="45.28363273778982" lon="9.520188702450106"><ele>73.66666666666667</ele><time>2026-04-06T08:27:38Z</time></trkpt><trkpt lat="45.28344721145649" lon="9.520281873824107"><ele>74.0</ele><time>2026-04-06T08:27:39Z</time></trkpt><trkpt lat="45.28324440904963" lon="9.520375262198359"><ele>74.0</ele><time>2026-04-06T08:27:40Z</time></trkpt><trkpt lat="45.283040883337115" lon="9.520469604169167"><ele>74.0</ele><time>2026-04-06T08:27:41Z</time></trkpt><trkpt lat="45.28282225431089" lon="9.520574771534625"><ele>74.0</ele><time>2026-04-06T08:27:42Z</time></trkpt><trkpt lat="45.2826015258861" lon="9.52068393990709"><ele>74.0</ele><time>2026-04-06T08:27:43Z</time></trkpt><trkpt lat="45.28238278764201" lon="9.520784842360907"><ele>74.0</ele><time>2026-04-06T08:27:44Z</time></trkpt><trkpt lat="45.28216736872693" lon="9.520885528008447"><ele>74.0</ele><time>2026-04-06T08:27:45Z</time></trkpt><trkpt lat="45.28195053379668" lon="9.520988732114477"><ele>74.0</ele><time>2026-04-06T08:27:46Z</time></trkpt><trkpt lat="45.28174123600912" lon="9.521086004210316"><ele>74.0</ele><time>2026-04-06T08:27:47Z</time></trkpt><trkpt lat="45.281538234004074" lon="9.521182818043242"><ele>74.33333333333334</ele><time>2026-04-06T08:27:48Z</time></trkpt><trkpt lat="45.28133773650585" lon="9.521278636683135"><ele>74.66666666666667</ele><time>2026-04-06T08:27:49Z</time></trkpt><trkpt lat="45.281141019222865" lon="9.52137443764028"><ele>75.0</ele><time>2026-04-06T08:27:50Z</time></trkpt><trkpt lat="45.28094183633275" lon="9.521474776285471"><ele>75.0</ele><time>2026-04-06T08:27:51Z</time></trkpt><trkpt lat="45.280737169710044" lon="9.52158345269726"><ele>75.0</ele><time>2026-04-06T08:27:52Z</time></trkpt><trkpt lat="45.28054619280948" lon="9.521675311905792"><ele>75.0</ele><time>2026-04-06T08:27:53Z</time></trkpt><trkpt lat="45.28036938253302" lon="9.521757659286804"><ele>74.33333333333333</ele><time>2026-04-06T08:27:54Z</time></trkpt><trkpt lat="45.28019897558366" lon="9.521842694417558"><ele>73.66666666666666</ele><time>2026-04-06T08:27:55Z</time></trkpt><trkpt lat="45.280033317462596" lon="9.521923947062362"><ele>73.0</ele><time>2026-04-06T08:27:56Z</time></trkpt><trkpt lat="45.27986360197659" lon="9.521994298960253"><ele>73.33333333333333</ele><time>2026-04-06T08:27:57Z</time></trkpt><trkpt lat="45.27970210482818" lon="9.522058828241745"><ele>73.66666666666667</ele><time>2026-04-06T08:27:58Z</time></trkpt><trkpt lat="45.27953998674758" lon="9.52211907929376"><ele>74.0</ele><time>2026-04-06T08:27:59Z</time></trkpt><trkpt lat="45.279381012104736" lon="9.522173914955063"><ele>74.0</ele><time>2026-04-06T08:28:00Z</time></trkpt><trkpt lat="45.27921923694514" lon="9.522223232489054"><ele>74.0</ele><time>2026-04-06T08:28:01Z</time></trkpt><trkpt lat="45.27905823372147" lon="9.522280381241133"><ele>74.0</ele><time>2026-04-06T08:28:02Z</time></trkpt><trkpt lat="45.278904022125836" lon="9.522336688437038"><ele>74.33333333333334</ele><time>2026-04-06T08:28:03Z</time></trkpt><trkpt lat="45.27873978832801" lon="9.522392929838079"><ele>74.66666666666667</ele><time>2026-04-06T08:28:04Z</time></trkpt><trkpt lat="45.27857145398516" lon="9.522452561800643"><ele>75.0</ele><time>2026-04-06T08:28:05Z</time></trkpt><trkpt lat="45.27840227255804" lon="9.522511932087701"><ele>75.0</ele><time>2026-04-06T08:28:06Z</time></trkpt><trkpt lat="45.278229924965096" lon="9.5225690694043"><ele>75.0</ele><time>2026-04-06T08:28:07Z</time></trkpt><trkpt lat="45.27806257324096" lon="9.522628366889931"><ele>75.0</ele><time>2026-04-06T08:28:08Z</time></trkpt><trkpt lat="45.27790107957796" lon="9.522681871457735"><ele>75.0</ele><time>2026-04-06T08:28:09Z</time></trkpt><trkpt lat="45.27773869240871" lon="9.52273540592576"><ele>75.0</ele><time>2026-04-06T08:28:10Z</time></trkpt><trkpt lat="45.277597552414385" lon="9.522785974071576"><ele>75.0</ele><time>2026-04-06T08:28:11Z</time></trkpt><trkpt lat="45.27745413647538" lon="9.522843672011527"><ele>75.0</ele><time>2026-04-06T08:28:12Z</time></trkpt><trkpt lat="45.277325299064024" lon="9.522895064055005"><ele>75.0</ele><time>2026-04-06T08:28:13Z</time></trkpt><trkpt lat="45.27720002993515" lon="9.52294668962461"><ele>75.0</ele><time>2026-04-06T08:28:14Z</time></trkpt><trkpt lat="45.27708482164764" lon="9.523004001333907"><ele>75.0</ele><time>2026-04-06T08:28:15Z</time></trkpt><trkpt lat="45.27698839045942" lon="9.523057782909596"><ele>74.8</ele><time>2026-04-06T08:28:16Z</time></trkpt><trkpt lat="45.27691505829669" lon="9.523090066972326"><ele>74.6</ele><time>2026-04-06T08:28:17Z</time></trkpt><trkpt lat="45.27683649633995" lon="9.523117016980944"><ele>74.4</ele><time>2026-04-06T08:28:19Z</time></trkpt><trkpt lat="45.27676315940735" lon="9.523139266594457"><ele>74.2</ele><time>2026-04-06T08:28:20Z</time></trkpt><trkpt lat="45.2768189998236" lon="9.52288047408208"><ele>74.0</ele><time>2026-04-06T08:28:22Z</time></trkpt><trkpt lat="45.27688276278035" lon="9.522784915338997"><ele>74.0</ele><time>2026-04-06T08:28:24Z</time></trkpt><trkpt lat="45.276968067565214" lon="9.52272494770943"><ele>74.0</ele><time>2026-04-06T08:28:26Z</time></trkpt><trkpt lat="45.27704194631893" lon="9.522743544996555"><ele>74.0</ele><time>2026-04-06T08:28:27Z</time></trkpt><trkpt lat="45.27711447265876" lon="9.522761565050324"><ele>74.0</ele><time>2026-04-06T08:28:29Z</time></trkpt><trkpt lat="45.27708783480585" lon="9.522635001186606"><ele>74.0</ele><time>2026-04-06T08:30:37Z</time></trkpt><trkpt lat="45.27700725016584" lon="9.522687526683383"><ele>74.0</ele><time>2026-04-06T08:30:38Z</time></trkpt><trkpt lat="45.276927391463055" lon="9.522722311948387"><ele>74.0</ele><time>2026-04-06T08:30:39Z</time></trkpt><trkpt lat="45.27684782149542" lon="9.522762085052426"><ele>74.0</ele><time>2026-04-06T08:30:40Z</time></trkpt><trkpt lat="45.27678357521614" lon="9.522820471772603"><ele>74.0</ele><time>2026-04-06T08:30:41Z</time></trkpt><trkpt lat="45.27674227137366" lon="9.522903562857516"><ele>74.0</ele><time>2026-04-06T08:30:42Z</time></trkpt><trkpt lat="45.27671049490938" lon="9.522981004968562"><ele>74.0</ele><time>2026-04-06T08:30:43Z</time></trkpt><trkpt lat="45.27666492247678" lon="9.523060291606924"><ele>74.0</ele><time>2026-04-06T08:30:44Z</time></trkpt><trkpt lat="45.27660581532342" lon="9.523139822387165"><ele>74.0</ele><time>2026-04-06T08:30:45Z</time></trkpt><trkpt lat="45.27655499200437" lon="9.523212979327498"><ele>73.66666666666667</ele><time>2026-04-06T08:30:46Z</time></trkpt><trkpt lat="45.27652052473907" lon="9.523295179555173"><ele>73.33333333333334</ele><time>2026-04-06T08:30:47Z</time></trkpt><trkpt lat="45.2765081582092" lon="9.523387005710127"><ele>73.0</ele><time>2026-04-06T08:30:48Z</time></trkpt><trkpt lat="45.276518408841255" lon="9.523511915620368"><ele>72.66666666666667</ele><time>2026-04-06T08:30:49Z</time></trkpt><trkpt lat="45.276562781591714" lon="9.523636525550181"><ele>72.33333333333333</ele><time>2026-04-06T08:30:50Z</time></trkpt><trkpt lat="45.27662961586448" lon="9.523743987749292"><ele>72.0</ele><time>2026-04-06T08:30:51Z</time></trkpt><trkpt lat="45.276704100730605" lon="9.523845593716596"><ele>72.0</ele><time>2026-04-06T08:30:52Z</time></trkpt><trkpt lat="45.27677752358732" lon="9.523998091560513"><ele>72.0</ele><time>2026-04-06T08:30:53Z</time></trkpt><trkpt lat="45.27683395324114" lon="9.52417295962319"><ele>72.0</ele><time>2026-04-06T08:30:54Z</time></trkpt><trkpt lat="45.27688251598595" lon="9.524347696462375"><ele>72.0</ele><time>2026-04-06T08:30:55Z</time></trkpt><trkpt lat="45.276921035738084" lon="9.524516104304471"><ele>72.33333333333333</ele><time>2026-04-06T08:30:56Z</time></trkpt><trkpt lat="45.27695254872549" lon="9.524668718321674"><ele>72.66666666666667</ele><time>2026-04-06T08:30:57Z</time></trkpt><trkpt lat="45.2769746596594" lon="9.524794772208262"><ele>73.0</ele><time>2026-04-06T08:30:58Z</time></trkpt><trkpt lat="45.27699150907854" lon="9.524908937504232"><ele>73.33333333333334</ele><time>2026-04-06T08:30:59Z</time></trkpt><trkpt lat="45.27700117964183" lon="9.525016281426309"><ele>73.66666666666667</ele><time>2026-04-06T08:31:00Z</time></trkpt><trkpt lat="45.27700993389249" lon="9.525125084549162"><ele>74.0</ele><time>2026-04-06T08:31:00.999Z</time></trkpt><trkpt lat="45.27702135675146" lon="9.525230177245565"><ele>74.0</ele><time>2026-04-06T08:31:01.999Z</time></trkpt><trkpt lat="45.277039611445836" lon="9.525341964121143"><ele>74.0</ele><time>2026-04-06T08:31:02.999Z</time></trkpt><trkpt lat="45.27705657037473" lon="9.525473320194532"><ele>74.0</ele><time>2026-04-06T08:31:03.999Z</time></trkpt><trkpt lat="45.277076513607334" lon="9.525628638867353"><ele>74.0</ele><time>2026-04-06T08:31:04.999Z</time></trkpt><trkpt lat="45.277095762677384" lon="9.52580916604439"><ele>74.0</ele><time>2026-04-06T08:31:05.999Z</time></trkpt><trkpt lat="45.27711450111851" lon="9.525984637912622"><ele>74.0</ele><time>2026-04-06T08:31:06.999Z</time></trkpt><trkpt lat="45.27713597858166" lon="9.526149682752589"><ele>74.0</ele><time>2026-04-06T08:31:07.999Z</time></trkpt><trkpt lat="45.277158709814856" lon="9.526329590729318"><ele>74.0</ele><time>2026-04-06T08:31:08.999Z</time></trkpt><trkpt lat="45.27718692227525" lon="9.526546847574073"><ele>74.0</ele><time>2026-04-06T08:31:09.999Z</time></trkpt><trkpt lat="45.27722001054168" lon="9.526794353515951"><ele>74.0</ele><time>2026-04-06T08:31:10.999Z</time></trkpt><trkpt lat="45.2772565993868" lon="9.527067127336567"><ele>74.0</ele><time>2026-04-06T08:31:11.999Z</time></trkpt><trkpt lat="45.277290635663924" lon="9.527351075634561"><ele>74.0</ele><time>2026-04-06T08:31:12.999Z</time></trkpt><trkpt lat="45.2773212413814" lon="9.52763219501625"><ele>74.33333333333334</ele><time>2026-04-06T08:31:13.999Z</time></trkpt><trkpt lat="45.27735453311138" lon="9.52792757153455"><ele>74.66666666666667</ele><time>2026-04-06T08:31:14.999Z</time></trkpt><trkpt lat="45.27739000752492" lon="9.528230383170044"><ele>75.0</ele><time>2026-04-06T08:31:15.999Z</time></trkpt><trkpt lat="45.27742377237742" lon="9.528520312753294"><ele>75.0</ele><time>2026-04-06T08:31:16.999Z</time></trkpt><trkpt lat="45.27745475691329" lon="9.528811588201112"><ele>75.0</ele><time>2026-04-06T08:31:17.999Z</time></trkpt><trkpt lat="45.27748746872897" lon="9.529102361338795"><ele>75.0</ele><time>2026-04-06T08:31:18.999Z</time></trkpt><trkpt lat="45.2775226009208" lon="9.529394104640547"><ele>75.33333333333333</ele><time>2026-04-06T08:31:19.999Z</time></trkpt><trkpt lat="45.27755526799693" lon="9.529685942146548"><ele>75.66666666666666</ele><time>2026-04-06T08:31:20.999Z</time></trkpt><trkpt lat="45.27758554501692" lon="9.529975340602862"><ele>76.0</ele><time>2026-04-06T08:31:21.999Z</time></trkpt><trkpt lat="45.27762125903128" lon="9.530271508103608"><ele>76.0</ele><time>2026-04-06T08:31:22.999Z</time></trkpt><trkpt lat="45.27765678375645" lon="9.530565312444287"><ele>76.0</ele><time>2026-04-06T08:31:23.999Z</time></trkpt><trkpt lat="45.27769103480411" lon="9.530880729343473"><ele>76.0</ele><time>2026-04-06T08:31:24.999Z</time></trkpt><trkpt lat="45.27772697905612" lon="9.531202092678402"><ele>76.0</ele><time>2026-04-06T08:31:25.999Z</time></trkpt><trkpt lat="45.27776638055836" lon="9.5315385418055"><ele>76.0</ele><time>2026-04-06T08:31:26.999Z</time></trkpt><trkpt lat="45.27780808293795" lon="9.531891734016112"><ele>75.0</ele><time>2026-04-06T08:31:27.999Z</time></trkpt><trkpt lat="45.27784843978706" lon="9.532247697765056"><ele>74.0</ele><time>2026-04-06T08:31:28.999Z</time></trkpt><trkpt lat="45.27788818685104" lon="9.532598123224336"><ele>74.0</ele><time>2026-04-06T08:31:29.999Z</time></trkpt><trkpt lat="45.27792792547993" lon="9.532941859051796"><ele>74.0</ele><time>2026-04-06T08:31:30.999Z</time></trkpt><trkpt lat="45.277964138923615" lon="9.533276656366178"><ele>74.0</ele><time>2026-04-06T08:31:31.999Z</time></trkpt><trkpt lat="45.278000164948764" lon="9.533605489512144"><ele>74.0</ele><time>2026-04-06T08:31:32.999Z</time></trkpt><trkpt lat="45.278036526256194" lon="9.533930052123647"><ele>74.0</ele><time>2026-04-06T08:31:33.999Z</time></trkpt><trkpt lat="45.27807339403768" lon="9.534251170385541"><ele>74.0</ele><time>2026-04-06T08:31:34.999Z</time></trkpt><trkpt lat="45.27810953158933" lon="9.53457804215938"><ele>73.0</ele><time>2026-04-06T08:31:35.999Z</time></trkpt><trkpt lat="45.2781467183583" lon="9.534919058894793"><ele>72.0</ele><time>2026-04-06T08:31:36.999Z</time></trkpt><trkpt lat="45.278187809321814" lon="9.535266672499159"><ele>73.5</ele><time>2026-04-06T08:31:37.999Z</time></trkpt><trkpt lat="45.27823050944122" lon="9.535610977748073"><ele>75.0</ele><time>2026-04-06T08:31:38.999Z</time></trkpt><trkpt lat="45.27826871002328" lon="9.535948630703153"><ele>74.0</ele><time>2026-04-06T08:31:39.999Z</time></trkpt><trkpt lat="45.27830334124457" lon="9.53628250553803"><ele>73.0</ele><time>2026-04-06T08:31:40.999Z</time></trkpt><trkpt lat="45.2783401582254" lon="9.536617122134828"><ele>73.0</ele><time>2026-04-06T08:31:41.999Z</time></trkpt><trkpt lat="45.27837580176635" lon="9.53692707084706"><ele>73.0</ele><time>2026-04-06T08:31:42.999Z</time></trkpt><trkpt lat="45.278403708248135" lon="9.537208096009941"><ele>73.0</ele><time>2026-04-06T08:31:43.999Z</time></trkpt><trkpt lat="45.278428797333824" lon="9.537470586347244"><ele>73.0</ele><time>2026-04-06T08:31:44.999Z</time></trkpt><trkpt lat="45.27846062286083" lon="9.53774856054989"><ele>73.0</ele><time>2026-04-06T08:31:45.999Z</time></trkpt><trkpt lat="45.278496150334895" lon="9.538048725758813"><ele>73.0</ele><time>2026-04-06T08:31:46.999Z</time></trkpt><trkpt lat="45.2785295048964" lon="9.53836015780498"><ele>72.5</ele><time>2026-04-06T08:31:47.999Z</time></trkpt><trkpt lat="45.2785684063353" lon="9.538682737114591"><ele>72.0</ele><time>2026-04-06T08:31:49Z</time></trkpt><trkpt lat="45.27860921939683" lon="9.539017045959588"><ele>72.0</ele><time>2026-04-06T08:31:50Z</time></trkpt><trkpt lat="45.278647328629305" lon="9.539339729635385"><ele>72.0</ele><time>2026-04-06T08:31:51Z</time></trkpt><trkpt lat="45.27868353333033" lon="9.5396591520615"><ele>72.0</ele><time>2026-04-06T08:31:52Z</time></trkpt><trkpt lat="45.27871990211573" lon="9.53996913340975"><ele>72.0</ele><time>2026-04-06T08:31:53Z</time></trkpt><trkpt lat="45.27875443013602" lon="9.540261578026115"><ele>72.0</ele><time>2026-04-06T08:31:54Z</time></trkpt><trkpt lat="45.27878626098698" lon="9.540533248633116"><ele>72.0</ele><time>2026-04-06T08:31:55Z</time></trkpt><trkpt lat="45.278817583862924" lon="9.54079077847326"><ele>72.0</ele><time>2026-04-06T08:31:56Z</time></trkpt><trkpt lat="45.27884371065077" lon="9.541031001748024"><ele>72.0</ele><time>2026-04-06T08:31:57Z</time></trkpt><trkpt lat="45.27886520785979" lon="9.54124649263191"><ele>71.8</ele><time>2026-04-06T08:31:58Z</time></trkpt><trkpt lat="45.27888334889762" lon="9.541432249624428"><ele>71.6</ele><time>2026-04-06T08:31:59Z</time></trkpt><trkpt lat="45.278902605407325" lon="9.54158374935787"><ele>71.39999999999999</ele><time>2026-04-06T08:32:00Z</time></trkpt><trkpt lat="45.278918260115695" lon="9.541712245869228"><ele>71.2</ele><time>2026-04-06T08:32:01Z</time></trkpt><trkpt lat="45.278924308153954" lon="9.541828040015364"><ele>71.0</ele><time>2026-04-06T08:32:02Z</time></trkpt><trkpt lat="45.2789244658025" lon="9.541929440807815"><ele>71.0</ele><time>2026-04-06T08:32:03Z</time></trkpt><trkpt lat="45.27889436350778" lon="9.54202326165536"><ele>71.0</ele><time>2026-04-06T08:32:05Z</time></trkpt><trkpt lat="45.278851321556" lon="9.542118370502026"><ele>71.0</ele><time>2026-04-06T08:32:08Z</time></trkpt><trkpt lat="45.27879644233667" lon="9.542181663247302"><ele>71.0</ele><time>2026-04-06T08:32:09Z</time></trkpt><trkpt lat="45.278718563215016" lon="9.542256649460704"><ele>71.0</ele><time>2026-04-06T08:32:10Z</time></trkpt><trkpt lat="45.278640630650344" lon="9.542334366583646"><ele>71.0</ele><time>2026-04-06T08:32:11Z</time></trkpt><trkpt lat="45.27854715857351" lon="9.542433731360433"><ele>71.0</ele><time>2026-04-06T08:32:12Z</time></trkpt><trkpt lat="45.278437032952255" lon="9.542540662091415"><ele>71.0</ele><time>2026-04-06T08:32:13Z</time></trkpt><trkpt lat="45.2783365998308" lon="9.542638692003411"><ele>71.0</ele><time>2026-04-06T08:32:14Z</time></trkpt><trkpt lat="45.27822707673383" lon="9.542746105697297"><ele>71.0</ele><time>2026-04-06T08:32:15Z</time></trkpt><trkpt lat="45.27811843035529" lon="9.542859746934246"><ele>71.2</ele><time>2026-04-06T08:32:16Z</time></trkpt><trkpt lat="45.27801579056128" lon="9.542965110085328"><ele>71.39999999999999</ele><time>2026-04-06T08:32:17Z</time></trkpt><trkpt lat="45.27791918248459" lon="9.543055087550979"><ele>71.6</ele><time>2026-04-06T08:32:18Z</time></trkpt><trkpt lat="45.2778323317317" lon="9.543139344069447"><ele>71.8</ele><time>2026-04-06T08:32:19Z</time></trkpt><trkpt lat="45.2777562407099" lon="9.543219396641385"><ele>72.0</ele><time>2026-04-06T08:32:20Z</time></trkpt><trkpt lat="45.27770569998904" lon="9.543279104520218"><ele>72.0</ele><time>2026-04-06T08:32:21Z</time></trkpt><trkpt lat="45.277733394357384" lon="9.543428707968955"><ele>72.0</ele><time>2026-04-06T08:32:24Z</time></trkpt><trkpt lat="45.27776015804915" lon="9.54352014103021"><ele>72.0</ele><time>2026-04-06T08:32:25Z</time></trkpt><trkpt lat="45.27778487868465" lon="9.543650454568823"><ele>72.0</ele><time>2026-04-06T08:32:26Z</time></trkpt><trkpt lat="45.27781109764812" lon="9.543809223551138"><ele>72.0</ele><time>2026-04-06T08:32:27Z</time></trkpt><trkpt lat="45.27784426995011" lon="9.543981603263425"><ele>72.2</ele><time>2026-04-06T08:32:28Z</time></trkpt><trkpt lat="45.2778843277436" lon="9.544143995370296"><ele>72.4</ele><time>2026-04-06T08:32:29Z</time></trkpt><trkpt lat="45.27791267789564" lon="9.544271776319777"><ele>72.6</ele><time>2026-04-06T08:32:30Z</time></trkpt><trkpt lat="45.277927037127505" lon="9.544378294105261"><ele>72.8</ele><time>2026-04-06T08:32:31Z</time></trkpt><trkpt lat="45.27796773238781" lon="9.544508016820409"><ele>73.0</ele><time>2026-04-06T08:32:33Z</time></trkpt><trkpt lat="45.278093512312886" lon="9.544539016713372"><ele>72.6</ele><time>2026-04-06T08:32:35Z</time></trkpt><trkpt lat="45.27818596194882" lon="9.544499372571304"><ele>72.19999999999999</ele><time>2026-04-06T08:32:36Z</time></trkpt><trkpt lat="45.27830096979701" lon="9.544449560384772"><ele>71.8</ele><time>2026-04-06T08:32:37Z</time></trkpt><trkpt lat="45.27840116712425" lon="9.544416273337658"><ele>71.39999999999999</ele><time>2026-04-06T08:32:38Z</time></trkpt><trkpt lat="45.278488447230664" lon="9.544403218212071"><ele>71.0</ele><time>2026-04-06T08:32:39Z</time></trkpt><trkpt lat="45.27856667380332" lon="9.544423808821346"><ele>71.0</ele><time>2026-04-06T08:32:40Z</time></trkpt><trkpt lat="45.278666938189474" lon="9.54446032730954"><ele>71.0</ele><time>2026-04-06T08:32:41Z</time></trkpt><trkpt lat="45.278747678382715" lon="9.544486814716514"><ele>71.0</ele><time>2026-04-06T08:32:42Z</time></trkpt><trkpt lat="45.278820017209235" lon="9.544477867900431"><ele>71.0</ele><time>2026-04-06T08:32:43Z</time></trkpt><trkpt lat="45.27890668136646" lon="9.544490309876826"><ele>71.0</ele><time>2026-04-06T08:32:45Z</time></trkpt><trkpt lat="45.27897359209007" lon="9.544615009784815"><ele>71.2</ele><time>2026-04-06T08:32:47Z</time></trkpt><trkpt lat="45.27900858711902" lon="9.544716658329532"><ele>71.39999999999999</ele><time>2026-04-06T08:32:48Z</time></trkpt><trkpt lat="45.279059053281685" lon="9.544868851009761"><ele>71.6</ele><time>2026-04-06T08:32:49Z</time></trkpt><trkpt lat="45.27911283532119" lon="9.545013535834865"><ele>71.8</ele><time>2026-04-06T08:32:50Z</time></trkpt><trkpt lat="45.27917316533311" lon="9.545160957400357"><ele>72.0</ele><time>2026-04-06T08:32:51Z</time></trkpt><trkpt lat="45.27923311057615" lon="9.545286248283215"><ele>71.5</ele><time>2026-04-06T08:32:52Z</time></trkpt><trkpt lat="45.279294910908064" lon="9.545398172979423"><ele>71.0</ele><time>2026-04-06T08:32:53Z</time></trkpt><trkpt lat="45.279363171819085" lon="9.545555219009742"><ele>70.5</ele><time>2026-04-06T08:32:54Z</time></trkpt><trkpt lat="45.279431762775125" lon="9.545737775569089"><ele>70.0</ele><time>2026-04-06T08:32:55Z</time></trkpt><trkpt lat="45.27949153775279" lon="9.545897705832052"><ele>70.0</ele><time>2026-04-06T08:32:56Z</time></trkpt><trkpt lat="45.27955151761666" lon="9.546056905904745"><ele>70.0</ele><time>2026-04-06T08:32:57Z</time></trkpt><trkpt lat="45.27961882022022" lon="9.546238199003039"><ele>70.0</ele><time>2026-04-06T08:32:58Z</time></trkpt><trkpt lat="45.27967444553483" lon="9.546402376324622"><ele>70.0</ele><time>2026-04-06T08:32:59Z</time></trkpt><trkpt lat="45.27973079161096" lon="9.546558936175282"><ele>70.25</ele><time>2026-04-06T08:33:00Z</time></trkpt><trkpt lat="45.27978823615556" lon="9.546722406202742"><ele>70.5</ele><time>2026-04-06T08:33:01Z</time></trkpt><trkpt lat="45.27984671789519" lon="9.546877085163354"><ele>70.75</ele><time>2026-04-06T08:33:02Z</time></trkpt><trkpt lat="45.279901890880524" lon="9.547005730862097"><ele>71.0</ele><time>2026-04-06T08:33:03Z</time></trkpt><trkpt lat="45.27996256808792" lon="9.54711648361903"><ele>71.0</ele><time>2026-04-06T08:33:04Z</time></trkpt><trkpt lat="45.280037858345466" lon="9.547223824732324"><ele>71.0</ele><time>2026-04-06T08:33:05Z</time></trkpt><trkpt lat="45.280111978594704" lon="9.547316879423645"><ele>71.0</ele><time>2026-04-06T08:33:06Z</time></trkpt><trkpt lat="45.28017764945848" lon="9.547411507771859"><ele>71.0</ele><time>2026-04-06T08:33:07Z</time></trkpt><trkpt lat="45.28025200244451" lon="9.547506546294686"><ele>71.0</ele><time>2026-04-06T08:33:08Z</time></trkpt><trkpt lat="45.280339377120434" lon="9.547612207347123"><ele>71.0</ele><time>2026-04-06T08:33:09Z</time></trkpt><trkpt lat="45.280432449139646" lon="9.547721223587118"><ele>71.0</ele><time>2026-04-06T08:33:10Z</time></trkpt><trkpt lat="45.28051094438912" lon="9.547820587524956"><ele>71.0</ele><time>2026-04-06T08:33:11Z</time></trkpt><trkpt lat="45.28059537394567" lon="9.547922993629536"><ele>71.0</ele><time>2026-04-06T08:33:12Z</time></trkpt><trkpt lat="45.28067733238367" lon="9.548020064047133"><ele>71.0</ele><time>2026-04-06T08:33:13Z</time></trkpt><trkpt lat="45.280745170278024" lon="9.548108877698626"><ele>70.8</ele><time>2026-04-06T08:33:14Z</time></trkpt><trkpt lat="45.28081496844882" lon="9.548193850563173"><ele>70.6</ele><time>2026-04-06T08:33:15Z</time></trkpt><trkpt lat="45.280882453636266" lon="9.54827634571461"><ele>70.4</ele><time>2026-04-06T08:33:16Z</time></trkpt><trkpt lat="45.28094243165494" lon="9.548350380478965"><ele>70.2</ele><time>2026-04-06T08:33:17Z</time></trkpt><trkpt lat="45.281006239903164" lon="9.548423530241369"><ele>70.0</ele><time>2026-04-06T08:33:18Z</time></trkpt><trkpt lat="45.281094054006566" lon="9.548527587705832"><ele>70.0</ele><time>2026-04-06T08:33:19Z</time></trkpt><trkpt lat="45.28120052697082" lon="9.548643678767554"><ele>70.0</ele><time>2026-04-06T08:33:20Z</time></trkpt><trkpt lat="45.28130553420769" lon="9.548773380402631"><ele>70.0</ele><time>2026-04-06T08:33:21Z</time></trkpt><trkpt lat="45.28139381063445" lon="9.548884392839577"><ele>70.0</ele><time>2026-04-06T08:33:22Z</time></trkpt><trkpt lat="45.28147338739564" lon="9.548993415273722"><ele>70.2</ele><time>2026-04-06T08:33:23Z</time></trkpt><trkpt lat="45.28155612739364" lon="9.549094699962293"><ele>70.4</ele><time>2026-04-06T08:33:24Z</time></trkpt><trkpt lat="45.28163273472644" lon="9.549184150462484"><ele>70.6</ele><time>2026-04-06T08:33:25Z</time></trkpt><trkpt lat="45.28169105759629" lon="9.549268226915355"><ele>70.8</ele><time>2026-04-06T08:33:26Z</time></trkpt><trkpt lat="45.2817555740444" lon="9.549400580530687"><ele>71.0</ele><time>2026-04-06T08:33:27Z</time></trkpt><trkpt lat="45.28180146345927" lon="9.549552878656824"><ele>71.0</ele><time>2026-04-06T08:33:28Z</time></trkpt><trkpt lat="45.281841162527165" lon="9.54972421309993"><ele>71.0</ele><time>2026-04-06T08:33:29Z</time></trkpt><trkpt lat="45.281883380264205" lon="9.549910013535628"><ele>71.0</ele><time>2026-04-06T08:33:30Z</time></trkpt><trkpt lat="45.28193238691798" lon="9.550099005784693"><ele>71.0</ele><time>2026-04-06T08:33:30.999Z</time></trkpt><trkpt lat="45.2819859579021" lon="9.550285714939674"><ele>71.0</ele><time>2026-04-06T08:33:31.999Z</time></trkpt><trkpt lat="45.28204187775244" lon="9.550491714037763"><ele>71.0</ele><time>2026-04-06T08:33:32.999Z</time></trkpt><trkpt lat="45.28209902893536" lon="9.550702949093253"><ele>71.0</ele><time>2026-04-06T08:33:33.999Z</time></trkpt><trkpt lat="45.28216359444635" lon="9.550927275971919"><ele>71.0</ele><time>2026-04-06T08:33:34.999Z</time></trkpt><trkpt lat="45.282220974295534" lon="9.55114114810425"><ele>71.0</ele><time>2026-04-06T08:33:35.999Z</time></trkpt><trkpt lat="45.28227683344764" lon="9.551335538776819"><ele>71.0</ele><time>2026-04-06T08:33:36.999Z</time></trkpt><trkpt lat="45.28232476616629" lon="9.551510914076703"><ele>71.0</ele><time>2026-04-06T08:33:37.999Z</time></trkpt><trkpt lat="45.282374997307585" lon="9.551670031753485"><ele>71.0</ele><time>2026-04-06T08:33:38.999Z</time></trkpt><trkpt lat="45.282405724900165" lon="9.551800079671894"><ele>71.0</ele><time>2026-04-06T08:33:39.999Z</time></trkpt><trkpt lat="45.28244145359715" lon="9.551923211850605"><ele>71.0</ele><time>2026-04-06T08:33:40.999Z</time></trkpt><trkpt lat="45.28245632351125" lon="9.552011068935897"><ele>71.0</ele><time>2026-04-06T08:33:41.999Z</time></trkpt><trkpt lat="45.28250277156257" lon="9.552206659705213"><ele>71.0</ele><time>2026-04-06T08:33:43.999Z</time></trkpt><trkpt lat="45.28254732183237" lon="9.55235167043538"><ele>70.75</ele><time>2026-04-06T08:33:44.999Z</time></trkpt><trkpt lat="45.28256983652123" lon="9.552510709691113"><ele>70.5</ele><time>2026-04-06T08:33:45.999Z</time></trkpt><trkpt lat="45.28260160461836" lon="9.552719958728286"><ele>70.25</ele><time>2026-04-06T08:33:46.999Z</time></trkpt><trkpt lat="45.28262174488327" lon="9.552938562565796"><ele>70.0</ele><time>2026-04-06T08:33:47.999Z</time></trkpt><trkpt lat="45.2826553080019" lon="9.5531680565418"><ele>70.5</ele><time>2026-04-06T08:33:48.999Z</time></trkpt><trkpt lat="45.28268766203788" lon="9.55340294984326"><ele>71.0</ele><time>2026-04-06T08:33:49.999Z</time></trkpt><trkpt lat="45.28271439507314" lon="9.553601178724787"><ele>71.5</ele><time>2026-04-06T08:33:50.999Z</time></trkpt><trkpt lat="45.282738553826235" lon="9.55378822851485"><ele>72.0</ele><time>2026-04-06T08:33:51.999Z</time></trkpt><trkpt lat="45.282746545084926" lon="9.55393358059359"><ele>72.4</ele><time>2026-04-06T08:33:52.999Z</time></trkpt><trkpt lat="45.2827632219493" lon="9.55405238436657"><ele>72.80000000000001</ele><time>2026-04-06T08:33:53.999Z</time></trkpt><trkpt lat="45.28280293858639" lon="9.554223850943668"><ele>73.2</ele><time>2026-04-06T08:33:56Z</time></trkpt><trkpt lat="45.28288996007474" lon="9.554353428202784"><ele>73.60000000000001</ele><time>2026-04-06T08:33:58Z</time></trkpt><trkpt lat="45.28298089888572" lon="9.55433875861972"><ele>74.0</ele><time>2026-04-06T08:33:59Z</time></trkpt><trkpt lat="45.283076989918946" lon="9.554326157886209"><ele>73.60000000000001</ele><time>2026-04-06T08:34:00Z</time></trkpt><trkpt lat="45.283158556948415" lon="9.554339978226308"><ele>73.2</ele><time>2026-04-06T08:34:01Z</time></trkpt><trkpt lat="45.28324556053573" lon="9.554322997187967"><ele>72.80000000000001</ele><time>2026-04-06T08:34:03Z</time></trkpt><trkpt lat="45.28330345955515" lon="9.554401600999572"><ele>72.4</ele><time>2026-04-06T08:34:05Z</time></trkpt><trkpt lat="45.28329825734307" lon="9.554590432486767"><ele>72.0</ele><time>2026-04-06T08:34:07Z</time></trkpt><trkpt lat="45.28331084614593" lon="9.554725226022578"><ele>72.6</ele><time>2026-04-06T08:34:08Z</time></trkpt><trkpt lat="45.283302703045756" lon="9.554894209434668"><ele>73.2</ele><time>2026-04-06T08:34:09Z</time></trkpt><trkpt lat="45.2833020669873" lon="9.555084333293047"><ele>73.8</ele><time>2026-04-06T08:34:10Z</time></trkpt><trkpt lat="45.283284050994105" lon="9.555233197537294"><ele>74.4</ele><time>2026-04-06T08:34:11Z</time></trkpt><trkpt lat="45.28328124058277" lon="9.5553489080541"><ele>75.0</ele><time>2026-04-06T08:34:12Z</time></trkpt><trkpt lat="45.28329761693334" lon="9.555517359500739"><ele>75.0</ele><time>2026-04-06T08:34:14Z</time></trkpt><trkpt lat="45.28334538714343" lon="9.555658197808015"><ele>75.0</ele><time>2026-04-06T08:34:16Z</time></trkpt><trkpt lat="45.28344331230625" lon="9.555656182587287"><ele>75.0</ele><time>2026-04-06T08:34:17Z</time></trkpt><trkpt lat="45.283512927153446" lon="9.55566537432301"><ele>75.0</ele><time>2026-04-06T08:34:18Z</time></trkpt><trkpt lat="45.283583507753086" lon="9.555670161368386"><ele>75.0</ele><time>2026-04-06T08:34:19Z</time></trkpt><trkpt lat="45.28365778385679" lon="9.55567755907147"><ele>75.0</ele><time>2026-04-06T08:34:20Z</time></trkpt><trkpt lat="45.283777464182585" lon="9.55569234777827"><ele>75.0</ele><time>2026-04-06T08:34:22Z</time></trkpt><trkpt lat="45.28387597062655" lon="9.55570552212034"><ele>75.0</ele><time>2026-04-06T08:34:24Z</time></trkpt><trkpt lat="45.283961942384686" lon="9.555713303564458"><ele>75.0</ele><time>2026-04-06T08:34:26Z</time></trkpt><trkpt lat="45.28406676106063" lon="9.555733073668504"><ele>75.0</ele><time>2026-04-06T08:34:28Z</time></trkpt><trkpt lat="45.28416653482744" lon="9.555746753086176"><ele>75.0</ele><time>2026-04-06T08:34:30Z</time></trkpt><trkpt lat="45.2842516810977" lon="9.555760582216072"><ele>74.5</ele><time>2026-04-06T08:34:32Z</time></trkpt><trkpt lat="45.28434010770517" lon="9.555769055006776"><ele>74.0</ele><time>2026-04-06T08:34:34Z</time></trkpt><trkpt lat="45.28442961587333" lon="9.555780462073091"><ele>73.5</ele><time>2026-04-06T08:34:36Z</time></trkpt><trkpt lat="45.2845080982302" lon="9.555793677996839"><ele>73.0</ele><time>2026-04-06T08:34:38Z</time></trkpt><trkpt lat="45.28458754359583" lon="9.555818618247415"><ele>72.5</ele><time>2026-04-06T08:34:40Z</time></trkpt><trkpt lat="45.28467010136151" lon="9.555839583000804"><ele>72.0</ele><time>2026-04-06T08:34:42Z</time></trkpt><trkpt lat="45.28475444918836" lon="9.555839601509371"><ele>72.5</ele><time>2026-04-06T08:34:44Z</time></trkpt><trkpt lat="45.284818407423145" lon="9.555805676786449"><ele>73.0</ele><time>2026-04-06T08:34:45Z</time></trkpt><trkpt lat="45.284873285695554" lon="9.555721905333113"><ele>73.5</ele><time>2026-04-06T08:34:46Z</time></trkpt><trkpt lat="45.284939244802395" lon="9.555643283724752"><ele>74.0</ele><time>2026-04-06T08:34:47Z</time></trkpt><trkpt lat="45.28499273445303" lon="9.555578778034604"><ele>74.5</ele><time>2026-04-06T08:34:48Z</time></trkpt><trkpt lat="45.285052271804965" lon="9.555536747993713"><ele>75.0</ele><time>2026-04-06T08:34:50Z</time></trkpt><trkpt lat="45.28512587224777" lon="9.555585833666134"><ele>75.0</ele><time>2026-04-06T08:34:54Z</time></trkpt><trkpt lat="45.28508422632335" lon="9.555779762533945"><ele>75.0</ele><time>2026-04-06T08:34:56Z</time></trkpt><trkpt lat="45.285034754776994" lon="9.555904146426546"><ele>75.0</ele><time>2026-04-06T08:34:57Z</time></trkpt><trkpt lat="45.284987369439435" lon="9.556051968605974"><ele>75.0</ele><time>2026-04-06T08:34:58Z</time></trkpt><trkpt lat="45.2849362361618" lon="9.556207433535723"><ele>74.75</ele><time>2026-04-06T08:34:59Z</time></trkpt><trkpt lat="45.2848825480205" lon="9.55637331413557"><ele>74.5</ele><time>2026-04-06T08:35:00Z</time></trkpt><trkpt lat="45.28483267934459" lon="9.556545224374535"><ele>74.25</ele><time>2026-04-06T08:35:01Z</time></trkpt><trkpt lat="45.28477864612318" lon="9.556731381548197"><ele>74.0</ele><time>2026-04-06T08:35:02Z</time></trkpt><trkpt lat="45.28471847521728" lon="9.556945474604468"><ele>73.66666666666667</ele><time>2026-04-06T08:35:03Z</time></trkpt><trkpt lat="45.2846475828041" lon="9.55719899557544"><ele>73.33333333333333</ele><time>2026-04-06T08:35:04Z</time></trkpt><trkpt lat="45.28454659664605" lon="9.557477516712018"><ele>73.0</ele><time>2026-04-06T08:35:05Z</time></trkpt><trkpt lat="45.28445746466824" lon="9.557805975358828"><ele>72.5</ele><time>2026-04-06T08:35:06Z</time></trkpt><trkpt lat="45.284329952071275" lon="9.558157696467136"><ele>72.0</ele><time>2026-04-06T08:35:07Z</time></trkpt><trkpt lat="45.28419622546164" lon="9.558522194341469"><ele>73.5</ele><time>2026-04-06T08:35:08Z</time></trkpt><trkpt lat="45.284067573391006" lon="9.558873847213842"><ele>75.0</ele><time>2026-04-06T08:35:09Z</time></trkpt><trkpt lat="45.28394230939969" lon="9.559200335694223"><ele>74.5</ele><time>2026-04-06T08:35:10Z</time></trkpt><trkpt lat="45.28381188676544" lon="9.55950467327984"><ele>74.0</ele><time>2026-04-06T08:35:11Z</time></trkpt><trkpt lat="45.283672018021605" lon="9.559812330302563"><ele>74.0</ele><time>2026-04-06T08:35:12Z</time></trkpt><trkpt lat="45.28352445897231" lon="9.560113736386814"><ele>74.0</ele><time>2026-04-06T08:35:13Z</time></trkpt><trkpt lat="45.283365862520604" lon="9.560434463822146"><ele>73.5</ele><time>2026-04-06T08:35:14Z</time></trkpt><trkpt lat="45.283199766646334" lon="9.560768866150186"><ele>73.0</ele><time>2026-04-06T08:35:15Z</time></trkpt><trkpt lat="45.28302984091575" lon="9.561106249040698"><ele>73.0</ele><time>2026-04-06T08:35:16Z</time></trkpt><trkpt lat="45.28285523270282" lon="9.561444851351549"><ele>73.0</ele><time>2026-04-06T08:35:17Z</time></trkpt><trkpt lat="45.28268686134936" lon="9.561786060988556"><ele>73.5</ele><time>2026-04-06T08:35:18Z</time></trkpt><trkpt lat="45.28251659540687" lon="9.562133709371272"><ele>74.0</ele><time>2026-04-06T08:35:19Z</time></trkpt><trkpt lat="45.282345029357515" lon="9.562480537497454"><ele>73.0</ele><time>2026-04-06T08:35:19.999Z</time></trkpt><trkpt lat="45.2821761236936" lon="9.56281940781943"><ele>72.0</ele><time>2026-04-06T08:35:20.999Z</time></trkpt><trkpt lat="45.282004968411464" lon="9.563165479903052"><ele>72.0</ele><time>2026-04-06T08:35:21.999Z</time></trkpt><trkpt lat="45.28183827712782" lon="9.56350099943138"><ele>72.0</ele><time>2026-04-06T08:35:22.999Z</time></trkpt><trkpt lat="45.281690345556505" lon="9.563805577446464"><ele>72.5</ele><time>2026-04-06T08:35:23.999Z</time></trkpt><trkpt lat="45.281553545972095" lon="9.564085100224828"><ele>73.0</ele><time>2026-04-06T08:35:24.999Z</time></trkpt><trkpt lat="45.28142373668085" lon="9.56435019943637"><ele>73.0</ele><time>2026-04-06T08:35:25.999Z</time></trkpt><trkpt lat="45.28130135249724" lon="9.564596638044575"><ele>73.0</ele><time>2026-04-06T08:35:26.999Z</time></trkpt><trkpt lat="45.28118550698838" lon="9.564828607728437"><ele>73.0</ele><time>2026-04-06T08:35:27.999Z</time></trkpt><trkpt lat="45.2810783249107" lon="9.565034928822174"><ele>73.0</ele><time>2026-04-06T08:35:28.999Z</time></trkpt><trkpt lat="45.28097738354869" lon="9.565227769297298"><ele>73.0</ele><time>2026-04-06T08:35:29.999Z</time></trkpt><trkpt lat="45.280866746341424" lon="9.565421780456578"><ele>73.0</ele><time>2026-04-06T08:35:30.999Z</time></trkpt><trkpt lat="45.2807435163294" lon="9.565591968457474"><ele>73.0</ele><time>2026-04-06T08:35:31.999Z</time></trkpt><trkpt lat="45.280621307262365" lon="9.565737831346315"><ele>73.0</ele><time>2026-04-06T08:35:32.999Z</time></trkpt><trkpt lat="45.28050876262502" lon="9.565872718810944"><ele>73.0</ele><time>2026-04-06T08:35:33.999Z</time></trkpt><trkpt lat="45.28042195031865" lon="9.566020597600566"><ele>73.0</ele><time>2026-04-06T08:35:34.999Z</time></trkpt><trkpt lat="45.28035812669041" lon="9.566187696137316"><ele>73.33333333333333</ele><time>2026-04-06T08:35:35.999Z</time></trkpt><trkpt lat="45.28029569038033" lon="9.566392312787471"><ele>73.66666666666667</ele><time>2026-04-06T08:35:36.999Z</time></trkpt><trkpt lat="45.28022435944991" lon="9.566644561340249"><ele>74.0</ele><time>2026-04-06T08:35:37.999Z</time></trkpt><trkpt lat="45.28012949591191" lon="9.566924746114832"><ele>73.33333333333334</ele><time>2026-04-06T08:35:38.999Z</time></trkpt><trkpt lat="45.28004645384021" lon="9.567204955406456"><ele>72.66666666666667</ele><time>2026-04-06T08:35:39.999Z</time></trkpt><trkpt lat="45.27996467988715" lon="9.567455893817373"><ele>72.0</ele><time>2026-04-06T08:35:40.999Z</time></trkpt><trkpt lat="45.27980361837397" lon="9.567679038297202"><ele>71.66666666666667</ele><time>2026-04-06T08:35:41.999Z</time></trkpt><trkpt lat="45.27968478733155" lon="9.567937479616646"><ele>71.33333333333334</ele><time>2026-04-06T08:35:42.999Z</time></trkpt><trkpt lat="45.279559494712785" lon="9.56820338228756"><ele>71.0</ele><time>2026-04-06T08:35:43.999Z</time></trkpt><trkpt lat="45.279420090338554" lon="9.568479263206562"><ele>71.0</ele><time>2026-04-06T08:35:44.999Z</time></trkpt><trkpt lat="45.27927206261662" lon="9.568752738034375"><ele>71.0</ele><time>2026-04-06T08:35:45.999Z</time></trkpt><trkpt lat="45.27912085757734" lon="9.569036022148998"><ele>71.0</ele><time>2026-04-06T08:35:46.999Z</time></trkpt><trkpt lat="45.27897124919097" lon="9.569333289937044"><ele>71.0</ele><time>2026-04-06T08:35:47.999Z</time></trkpt><trkpt lat="45.27881018330859" lon="9.569658795021448"><ele>71.0</ele><time>2026-04-06T08:35:48.999Z</time></trkpt><trkpt lat="45.2786378068703" lon="9.570001255619399"><ele>71.0</ele><time>2026-04-06T08:35:49.999Z</time></trkpt><trkpt lat="45.2784530368568" lon="9.570369802163661"><ele>71.0</ele><time>2026-04-06T08:35:50.999Z</time></trkpt><trkpt lat="45.27826285470659" lon="9.570749154534818"><ele>71.0</ele><time>2026-04-06T08:35:51.999Z</time></trkpt><trkpt lat="45.27806722604681" lon="9.571138489456619"><ele>71.0</ele><time>2026-04-06T08:35:52.999Z</time></trkpt><trkpt lat="45.277886881069186" lon="9.571499998130134"><ele>71.0</ele><time>2026-04-06T08:35:53.999Z</time></trkpt><trkpt lat="45.277720155780095" lon="9.571849375160303"><ele>71.5</ele><time>2026-04-06T08:35:54.999Z</time></trkpt><trkpt lat="45.27755288577877" lon="9.572198001494343"><ele>72.0</ele><time>2026-04-06T08:35:55.999Z</time></trkpt><trkpt lat="45.27737949847709" lon="9.572543424907524"><ele>71.5</ele><time>2026-04-06T08:35:56.999Z</time></trkpt><trkpt lat="45.27720541367952" lon="9.57288448280014"><ele>71.0</ele><time>2026-04-06T08:35:57.999Z</time></trkpt><trkpt lat="45.27705045232013" lon="9.573203811402577"><ele>71.0</ele><time>2026-04-06T08:35:58.999Z</time></trkpt><trkpt lat="45.27691611771179" lon="9.573495174063966"><ele>71.0</ele><time>2026-04-06T08:35:59.999Z</time></trkpt><trkpt lat="45.27678954199795" lon="9.573763120394071"><ele>71.0</ele><time>2026-04-06T08:36:01Z</time></trkpt><trkpt lat="45.27666318800247" lon="9.574027402801274"><ele>71.0</ele><time>2026-04-06T08:36:02Z</time></trkpt><trkpt lat="45.2765368515062" lon="9.574301030279068"><ele>71.0</ele><time>2026-04-06T08:36:03Z</time></trkpt><trkpt lat="45.27640661436991" lon="9.5745793442283"><ele>71.0</ele><time>2026-04-06T08:36:04Z</time></trkpt><trkpt lat="45.27626882320988" lon="9.574860438206981"><ele>71.0</ele><time>2026-04-06T08:36:05Z</time></trkpt><trkpt lat="45.27611627709003" lon="9.575160392270444"><ele>71.0</ele><time>2026-04-06T08:36:06Z</time></trkpt><trkpt lat="45.275948944632404" lon="9.57546895134806"><ele>70.5</ele><time>2026-04-06T08:36:07Z</time></trkpt><trkpt lat="45.27578621945489" lon="9.575765794591124"><ele>70.0</ele><time>2026-04-06T08:36:08Z</time></trkpt><trkpt lat="45.275641549583874" lon="9.576051169100168"><ele>70.5</ele><time>2026-04-06T08:36:09Z</time></trkpt><trkpt lat="45.27550168255412" lon="9.576340757521027"><ele>71.0</ele><time>2026-04-06T08:36:10Z</time></trkpt><trkpt lat="45.27535853244558" lon="9.576632889334281"><ele>71.0</ele><time>2026-04-06T08:36:11Z</time></trkpt><trkpt lat="45.27521365912043" lon="9.576920637275794"><ele>71.0</ele><time>2026-04-06T08:36:12Z</time></trkpt><trkpt lat="45.27507283168647" lon="9.577196634240375"><ele>73.0</ele><time>2026-04-06T08:36:13Z</time></trkpt><trkpt lat="45.27492973986945" lon="9.577486207815403"><ele>75.0</ele><time>2026-04-06T08:36:14Z</time></trkpt><trkpt lat="45.274792879960124" lon="9.57777008637749"><ele>73.66666666666667</ele><time>2026-04-06T08:36:15Z</time></trkpt><trkpt lat="45.27466901355859" lon="9.578025108750616"><ele>72.33333333333334</ele><time>2026-04-06T08:36:16Z</time></trkpt><trkpt lat="45.27455724150239" lon="9.578248550400692"><ele>71.0</ele><time>2026-04-06T08:36:17Z</time></trkpt><trkpt lat="45.274460675189374" lon="9.578442246271262"><ele>71.0</ele><time>2026-04-06T08:36:18Z</time></trkpt><trkpt lat="45.27436800526678" lon="9.578617814537521"><ele>71.0</ele><time>2026-04-06T08:36:19Z</time></trkpt><trkpt lat="45.27426761022718" lon="9.578768609605968"><ele>71.0</ele><time>2026-04-06T08:36:20Z</time></trkpt><trkpt lat="45.27414574685636" lon="9.578912392826064"><ele>70.75</ele><time>2026-04-06T08:36:21Z</time></trkpt><trkpt lat="45.27402581744965" lon="9.579043699639282"><ele>70.5</ele><time>2026-04-06T08:36:22Z</time></trkpt><trkpt lat="45.27391559934686" lon="9.579171244789558"><ele>70.25</ele><time>2026-04-06T08:36:23Z</time></trkpt><trkpt lat="45.27382261510798" lon="9.579294264332665"><ele>70.0</ele><time>2026-04-06T08:36:24Z</time></trkpt><trkpt lat="45.27374989872427" lon="9.579417720640668"><ele>69.75</ele><time>2026-04-06T08:36:25Z</time></trkpt><trkpt lat="45.27366660807733" lon="9.579571584973447"><ele>69.5</ele><time>2026-04-06T08:36:26Z</time></trkpt><trkpt lat="45.27359476561904" lon="9.579724365326165"><ele>69.25</ele><time>2026-04-06T08:36:27Z</time></trkpt><trkpt lat="45.27353959631462" lon="9.579865523429081"><ele>69.0</ele><time>2026-04-06T08:36:28Z</time></trkpt><trkpt lat="45.27350929685047" lon="9.579976866294544"><ele>69.0</ele><time>2026-04-06T08:36:29Z</time></trkpt><trkpt lat="45.273500922381686" lon="9.58007458757769"><ele>69.0</ele><time>2026-04-06T08:36:30Z</time></trkpt><trkpt lat="45.27352000631491" lon="9.580162984313844"><ele>69.0</ele><time>2026-04-06T08:36:31Z</time></trkpt><trkpt lat="45.27356259513141" lon="9.580256241193366"><ele>69.0</ele><time>2026-04-06T08:36:32Z</time></trkpt><trkpt lat="45.273628976658145" lon="9.580322927959322"><ele>69.0</ele><time>2026-04-06T08:36:33Z</time></trkpt><trkpt lat="45.273724683589194" lon="9.58037742870209"><ele>69.0</ele><time>2026-04-06T08:36:34Z</time></trkpt><trkpt lat="45.27383772004797" lon="9.580424825774973"><ele>69.0</ele><time>2026-04-06T08:36:35Z</time></trkpt><trkpt lat="45.2739280833146" lon="9.580471204783388"><ele>69.0</ele><time>2026-04-06T08:36:36Z</time></trkpt><trkpt lat="45.27399888154586" lon="9.580554501938227"><ele>69.0</ele><time>2026-04-06T08:36:37Z</time></trkpt><trkpt lat="45.27404599337857" lon="9.58067483204911"><ele>69.0</ele><time>2026-04-06T08:36:38Z</time></trkpt><trkpt lat="45.27410118883205" lon="9.580858801307345"><ele>69.0</ele><time>2026-04-06T08:36:39Z</time></trkpt><trkpt lat="45.274153192039265" lon="9.581094272047002"><ele>69.66666666666667</ele><time>2026-04-06T08:36:40Z</time></trkpt><trkpt lat="45.274220321994555" lon="9.581376052371903"><ele>70.33333333333334</ele><time>2026-04-06T08:36:41Z</time></trkpt><trkpt lat="45.274299447632856" lon="9.581667480620464"><ele>71.0</ele><time>2026-04-06T08:36:42Z</time></trkpt><trkpt lat="45.27438274546384" lon="9.581975032969636"><ele>70.0</ele><time>2026-04-06T08:36:43Z</time></trkpt><trkpt lat="45.2744623024735" lon="9.582292692848345"><ele>69.0</ele><time>2026-04-06T08:36:44Z</time></trkpt><trkpt lat="45.274540235379426" lon="9.5826034195591"><ele>69.66666666666667</ele><time>2026-04-06T08:36:45Z</time></trkpt><trkpt lat="45.2746211481089" lon="9.58290462499363"><ele>70.33333333333334</ele><time>2026-04-06T08:36:46Z</time></trkpt><trkpt lat="45.27470135094588" lon="9.583190518891978"><ele>71.0</ele><time>2026-04-06T08:36:47Z</time></trkpt><trkpt lat="45.274775897138674" lon="9.583479059239517"><ele>71.5</ele><time>2026-04-06T08:36:48Z</time></trkpt><trkpt lat="45.274848445235776" lon="9.583776391807849"><ele>72.0</ele><time>2026-04-06T08:36:49Z</time></trkpt><trkpt lat="45.27493145433864" lon="9.584080605756421"><ele>72.0</ele><time>2026-04-06T08:36:50Z</time></trkpt><trkpt lat="45.2750191788158" lon="9.584384132629388"><ele>72.0</ele><time>2026-04-06T08:36:51Z</time></trkpt><trkpt lat="45.2751025006392" lon="9.584698216033418"><ele>72.0</ele><time>2026-04-06T08:36:52Z</time></trkpt><trkpt lat="45.27518802526961" lon="9.58502414787204"><ele>72.0</ele><time>2026-04-06T08:36:53Z</time></trkpt><trkpt lat="45.275276459293515" lon="9.585347454842305"><ele>70.5</ele><time>2026-04-06T08:36:54Z</time></trkpt><trkpt lat="45.27536272319546" lon="9.58565406056541"><ele>69.0</ele><time>2026-04-06T08:36:55Z</time></trkpt><trkpt lat="45.275441624193135" lon="9.585951123601161"><ele>69.0</ele><time>2026-04-06T08:36:56Z</time></trkpt><trkpt lat="45.27552051683999" lon="9.58625002177171"><ele>69.0</ele><time>2026-04-06T08:36:57Z</time></trkpt><trkpt lat="45.275603496411186" lon="9.586536639271404"><ele>69.0</ele><time>2026-04-06T08:36:58Z</time></trkpt><trkpt lat="45.27569792711458" lon="9.58680432457537"><ele>70.0</ele><time>2026-04-06T08:36:59Z</time></trkpt><trkpt lat="45.275805991012604" lon="9.58705987567036"><ele>71.0</ele><time>2026-04-06T08:37:00Z</time></trkpt><trkpt lat="45.27593778275952" lon="9.587299254303817"><ele>72.0</ele><time>2026-04-06T08:37:01Z</time></trkpt><trkpt lat="45.27609088627998" lon="9.587538521299543"><ele>72.0</ele><time>2026-04-06T08:37:02Z</time></trkpt><trkpt lat="45.276250989221154" lon="9.587754856845816"><ele>72.0</ele><time>2026-04-06T08:37:03Z</time></trkpt><trkpt lat="45.27641156295651" lon="9.587952496997818"><ele>72.0</ele><time>2026-04-06T08:37:04Z</time></trkpt><trkpt lat="45.27656341391749" lon="9.58814475447179"><ele>72.0</ele><time>2026-04-06T08:37:05Z</time></trkpt><trkpt lat="45.276712171497444" lon="9.588345041105741"><ele>72.0</ele><time>2026-04-06T08:37:06Z</time></trkpt><trkpt lat="45.27686304285456" lon="9.588545632499697"><ele>72.0</ele><time>2026-04-06T08:37:07Z</time></trkpt><trkpt lat="45.27701735825151" lon="9.588747050837869"><ele>71.66666666666667</ele><time>2026-04-06T08:37:08Z</time></trkpt><trkpt lat="45.27717239590011" lon="9.58894861450921"><ele>71.33333333333334</ele><time>2026-04-06T08:37:09Z</time></trkpt><trkpt lat="45.277327023418025" lon="9.589157249559213"><ele>71.0</ele><time>2026-04-06T08:37:10Z</time></trkpt><trkpt lat="45.277485333518364" lon="9.58936780610792"><ele>71.0</ele><time>2026-04-06T08:37:11Z</time></trkpt><trkpt lat="45.277646526383734" lon="9.589573828087097"><ele>71.0</ele><time>2026-04-06T08:37:12Z</time></trkpt><trkpt lat="45.277808517651515" lon="9.589781250783695"><ele>71.0</ele><time>2026-04-06T08:37:13Z</time></trkpt><trkpt lat="45.27796131062757" lon="9.58998597854913"><ele>71.33333333333334</ele><time>2026-04-06T08:37:14Z</time></trkpt><trkpt lat="45.27811106564576" lon="9.59017808420515"><ele>71.66666666666667</ele><time>2026-04-06T08:37:15Z</time></trkpt><trkpt lat="45.27826533628427" lon="9.590377078914036"><ele>72.0</ele><time>2026-04-06T08:37:16Z</time></trkpt><trkpt lat="45.27841982224873" lon="9.59058096847844"><ele>71.33333333333333</ele><time>2026-04-06T08:37:16.999Z</time></trkpt><trkpt lat="45.278570474099205" lon="9.590778994082301"><ele>70.66666666666666</ele><time>2026-04-06T08:37:17.999Z</time></trkpt><trkpt lat="45.27871978271584" lon="9.590974698590497"><ele>70.0</ele><time>2026-04-06T08:37:18.999Z</time></trkpt><trkpt lat="45.27886455996339" lon="9.591168444294645"><ele>70.0</ele><time>2026-04-06T08:37:19.999Z</time></trkpt><trkpt lat="45.27900691908008" lon="9.591363084115429"><ele>70.0</ele><time>2026-04-06T08:37:20.999Z</time></trkpt><trkpt lat="45.27915165769264" lon="9.591555344103957"><ele>70.0</ele><time>2026-04-06T08:37:21.999Z</time></trkpt><trkpt lat="45.27929931800128" lon="9.591740724865057"><ele>70.0</ele><time>2026-04-06T08:37:22.999Z</time></trkpt><trkpt lat="45.27944935952965" lon="9.591914118750113"><ele>70.0</ele><time>2026-04-06T08:37:23.999Z</time></trkpt><trkpt lat="45.279599362591846" lon="9.592071968286366"><ele>70.0</ele><time>2026-04-06T08:37:24.999Z</time></trkpt><trkpt lat="45.27974865637318" lon="9.592206781408873"><ele>69.66666666666666</ele><time>2026-04-06T08:37:25.999Z</time></trkpt><trkpt lat="45.27990903821225" lon="9.592343188347419"><ele>69.33333333333333</ele><time>2026-04-06T08:37:26.999Z</time></trkpt><trkpt lat="45.28007966215457" lon="9.592466316738687"><ele>69.0</ele><time>2026-04-06T08:37:27.999Z</time></trkpt><trkpt lat="45.28025887694087" lon="9.592571708532336"><ele>69.0</ele><time>2026-04-06T08:37:28.999Z</time></trkpt><trkpt lat="45.28043845643617" lon="9.592658837804002"><ele>69.0</ele><time>2026-04-06T08:37:29.999Z</time></trkpt><trkpt lat="45.2806240327574" lon="9.592731748911984"><ele>69.0</ele><time>2026-04-06T08:37:30.999Z</time></trkpt><trkpt lat="45.280816923929756" lon="9.59278856833126"><ele>69.0</ele><time>2026-04-06T08:37:31.999Z</time></trkpt><trkpt lat="45.281003669740876" lon="9.592890169441475"><ele>69.0</ele><time>2026-04-06T08:37:32.999Z</time></trkpt><trkpt lat="45.28121218685201" lon="9.592858094389653"><ele>69.0</ele><time>2026-04-06T08:37:33.999Z</time></trkpt><trkpt lat="45.281410132502685" lon="9.592891575201511"><ele>69.66666666666667</ele><time>2026-04-06T08:37:34.999Z</time></trkpt><trkpt lat="45.28160692430901" lon="9.592926383659334"><ele>70.33333333333334</ele><time>2026-04-06T08:37:35.999Z</time></trkpt><trkpt lat="45.28180993589955" lon="9.592963691108734"><ele>71.0</ele><time>2026-04-06T08:37:36.999Z</time></trkpt><trkpt lat="45.282016041030154" lon="9.593005748065764"><ele>71.0</ele><time>2026-04-06T08:37:37.999Z</time></trkpt><trkpt lat="45.28222434106554" lon="9.593045121757891"><ele>71.0</ele><time>2026-04-06T08:37:38.999Z</time></trkpt><trkpt lat="45.28244118858358" lon="9.593089353871838"><ele>71.0</ele><time>2026-04-06T08:37:39.999Z</time></trkpt><trkpt lat="45.28266706656605" lon="9.593132288625654"><ele>71.0</ele><time>2026-04-06T08:37:40.999Z</time></trkpt><trkpt lat="45.28289260835233" lon="9.593171872840681"><ele>71.0</ele><time>2026-04-06T08:37:41.999Z</time></trkpt><trkpt lat="45.2831287953239" lon="9.593213343709579"><ele>71.0</ele><time>2026-04-06T08:37:42.999Z</time></trkpt><trkpt lat="45.28336838556228" lon="9.59325563367228"><ele>71.0</ele><time>2026-04-06T08:37:43.999Z</time></trkpt><trkpt lat="45.28360215045956" lon="9.59329975759852"><ele>71.0</ele><time>2026-04-06T08:37:44.999Z</time></trkpt><trkpt lat="45.28382573174854" lon="9.593341705931607"><ele>71.0</ele><time>2026-04-06T08:37:45.999Z</time></trkpt><trkpt lat="45.284045897516066" lon="9.593388775475292"><ele>71.0</ele><time>2026-04-06T08:37:46.999Z</time></trkpt><trkpt lat="45.28427842028242" lon="9.593437379047218"><ele>70.5</ele><time>2026-04-06T08:37:47.999Z</time></trkpt><trkpt lat="45.284507182384075" lon="9.593478493269675"><ele>70.0</ele><time>2026-04-06T08:37:48.999Z</time></trkpt><trkpt lat="45.284732911071536" lon="9.593523044346291"><ele>69.5</ele><time>2026-04-06T08:37:49.999Z</time></trkpt><trkpt lat="45.284963085910164" lon="9.593572781376675"><ele>69.0</ele><time>2026-04-06T08:37:50.999Z</time></trkpt><trkpt lat="45.285191603019975" lon="9.593643129209624"><ele>69.0</ele><time>2026-04-06T08:37:51.999Z</time></trkpt><trkpt lat="45.28541451463706" lon="9.59374470667037"><ele>69.0</ele><time>2026-04-06T08:37:52.999Z</time></trkpt><trkpt lat="45.28564450518757" lon="9.593868372469334"><ele>69.0</ele><time>2026-04-06T08:37:53.999Z</time></trkpt><trkpt lat="45.28585691988689" lon="9.594005425530016"><ele>69.0</ele><time>2026-04-06T08:37:54.999Z</time></trkpt><trkpt lat="45.286054524507215" lon="9.594156394742413"><ele>69.0</ele><time>2026-04-06T08:37:55.999Z</time></trkpt><trkpt lat="45.28624481519165" lon="9.594330033397389"><ele>69.0</ele><time>2026-04-06T08:37:56.999Z</time></trkpt><trkpt lat="45.28642611832011" lon="9.594526293563078"><ele>70.0</ele><time>2026-04-06T08:37:57.999Z</time></trkpt><trkpt lat="45.286598687308675" lon="9.594737815129875"><ele>71.0</ele><time>2026-04-06T08:37:58.999Z</time></trkpt><trkpt lat="45.28676106426565" lon="9.594965635276619"><ele>71.0</ele><time>2026-04-06T08:37:59.999Z</time></trkpt><trkpt lat="45.28691263956186" lon="9.595214102569102"><ele>71.0</ele><time>2026-04-06T08:38:00.999Z</time></trkpt><trkpt lat="45.28705491786239" lon="9.595476589248944"><ele>72.0</ele><time>2026-04-06T08:38:01.999Z</time></trkpt><trkpt lat="45.28718239025292" lon="9.59574487823432"><ele>73.0</ele><time>2026-04-06T08:38:02.999Z</time></trkpt><trkpt lat="45.287306809639034" lon="9.596013795935743"><ele>73.0</ele><time>2026-04-06T08:38:03.999Z</time></trkpt><trkpt lat="45.287429735145906" lon="9.596295493720675"><ele>73.0</ele><time>2026-04-06T08:38:04.999Z</time></trkpt><trkpt lat="45.28755905467081" lon="9.59659613923477"><ele>73.0</ele><time>2026-04-06T08:38:05.999Z</time></trkpt><trkpt lat="45.287692021030956" lon="9.596904335984702"><ele>73.0</ele><time>2026-04-06T08:38:07Z</time></trkpt><trkpt lat="45.28781431177092" lon="9.597183962240091"><ele>72.33333333333333</ele><time>2026-04-06T08:38:08Z</time></trkpt><trkpt lat="45.28793242614466" lon="9.59745311983971"><ele>71.66666666666667</ele><time>2026-04-06T08:38:09Z</time></trkpt><trkpt lat="45.28804747782474" lon="9.597725099112969"><ele>71.0</ele><time>2026-04-06T08:38:10Z</time></trkpt><trkpt lat="45.28816360153803" lon="9.598001589118867"><ele>70.0</ele><time>2026-04-06T08:38:11Z</time></trkpt><trkpt lat="45.28828424670054" lon="9.598269225985165"><ele>69.0</ele><time>2026-04-06T08:38:12Z</time></trkpt><trkpt lat="45.28840534780828" lon="9.598542444683435"><ele>66.0</ele><time>2026-04-06T08:38:13Z</time></trkpt><trkpt lat="45.288528492139555" lon="9.59881607025447"><ele>63.0</ele><time>2026-04-06T08:38:14Z</time></trkpt><trkpt lat="45.28865184152795" lon="9.599089918666941"><ele>63.0</ele><time>2026-04-06T08:38:15Z</time></trkpt><trkpt lat="45.288770877200726" lon="9.599366703628796"><ele>63.0</ele><time>2026-04-06T08:38:16Z</time></trkpt><trkpt lat="45.28889187543878" lon="9.59966177975891"><ele>62.66666666666667</ele><time>2026-04-06T08:38:17Z</time></trkpt><trkpt lat="45.28900913746599" lon="9.599939719739854"><ele>62.333333333333336</ele><time>2026-04-06T08:38:18Z</time></trkpt><trkpt lat="45.28911243404959" lon="9.600174430005525"><ele>62.0</ele><time>2026-04-06T08:38:19Z</time></trkpt><trkpt lat="45.28920685477077" lon="9.600393587293189"><ele>61.66666666666667</ele><time>2026-04-06T08:38:20Z</time></trkpt><trkpt lat="45.289303413446966" lon="9.600614720666423"><ele>61.33333333333333</ele><time>2026-04-06T08:38:21Z</time></trkpt><trkpt lat="45.28940432141372" lon="9.600856340806306"><ele>61.0</ele><time>2026-04-06T08:38:22Z</time></trkpt><trkpt lat="45.28950433574594" lon="9.601115204749354"><ele>60.5</ele><time>2026-04-06T08:38:23Z</time></trkpt><trkpt lat="45.28961253447167" lon="9.60139147317448"><ele>60.0</ele><time>2026-04-06T08:38:24Z</time></trkpt><trkpt lat="45.28971943813356" lon="9.601679708205062"><ele>60.0</ele><time>2026-04-06T08:38:25Z</time></trkpt><trkpt lat="45.28981930248737" lon="9.601945686308934"><ele>60.0</ele><time>2026-04-06T08:38:26Z</time></trkpt><trkpt lat="45.28991124532497" lon="9.602186704175326"><ele>60.0</ele><time>2026-04-06T08:38:27Z</time></trkpt><trkpt lat="45.290008266327476" lon="9.602417204818527"><ele>60.0</ele><time>2026-04-06T08:38:28Z</time></trkpt><trkpt lat="45.29010576199808" lon="9.602650405049708"><ele>60.0</ele><time>2026-04-06T08:38:29Z</time></trkpt><trkpt lat="45.290211672949866" lon="9.602893541411566"><ele>60.0</ele><time>2026-04-06T08:38:30Z</time></trkpt><trkpt lat="45.290332642332366" lon="9.603145150711104"><ele>59.5</ele><time>2026-04-06T08:38:31Z</time></trkpt><trkpt lat="45.29046444156934" lon="9.603408837333147"><ele>59.0</ele><time>2026-04-06T08:38:32Z</time></trkpt><trkpt lat="45.29059744509911" lon="9.603682940783992"><ele>58.5</ele><time>2026-04-06T08:38:33Z</time></trkpt><trkpt lat="45.29071885776927" lon="9.603956240470515"><ele>58.0</ele><time>2026-04-06T08:38:34Z</time></trkpt><trkpt lat="45.290845079290825" lon="9.604228222919083"><ele>57.0</ele><time>2026-04-06T08:38:35Z</time></trkpt><trkpt lat="45.290972485904554" lon="9.604500323426821"><ele>56.0</ele><time>2026-04-06T08:38:36Z</time></trkpt><trkpt lat="45.29110124290044" lon="9.604777453281267"><ele>56.0</ele><time>2026-04-06T08:38:37Z</time></trkpt><trkpt lat="45.291242472013664" lon="9.60506137932712"><ele>56.0</ele><time>2026-04-06T08:38:38Z</time></trkpt><trkpt lat="45.29138450208837" lon="9.605356315864288"><ele>56.5</ele><time>2026-04-06T08:38:39Z</time></trkpt><trkpt lat="45.29152572856949" lon="9.605658300362744"><ele>57.0</ele><time>2026-04-06T08:38:40Z</time></trkpt><trkpt lat="45.291659253305994" lon="9.605954634028134"><ele>57.0</ele><time>2026-04-06T08:38:41Z</time></trkpt><trkpt lat="45.29178809033364" lon="9.606248389737575"><ele>57.0</ele><time>2026-04-06T08:38:42Z</time></trkpt><trkpt lat="45.29190668080071" lon="9.60654686791285"><ele>57.0</ele><time>2026-04-06T08:38:43Z</time></trkpt><trkpt lat="45.292022974426416" lon="9.606850096351616"><ele>57.0</ele><time>2026-04-06T08:38:44Z</time></trkpt><trkpt lat="45.292142176859315" lon="9.607158694424715"><ele>56.5</ele><time>2026-04-06T08:38:45Z</time></trkpt><trkpt lat="45.292258406039544" lon="9.607466510787512"><ele>56.0</ele><time>2026-04-06T08:38:46Z</time></trkpt><trkpt lat="45.29237330361269" lon="9.60777141506386"><ele>56.5</ele><time>2026-04-06T08:38:47Z</time></trkpt><trkpt lat="45.292488641784864" lon="9.608078429240939"><ele>57.0</ele><time>2026-04-06T08:38:48Z</time></trkpt><trkpt lat="45.292604223038175" lon="9.608382346321177"><ele>57.5</ele><time>2026-04-06T08:38:49Z</time></trkpt><trkpt lat="45.29272068116615" lon="9.608687757235943"><ele>58.0</ele><time>2026-04-06T08:38:50Z</time></trkpt><trkpt lat="45.292836529451534" lon="9.608990984860421"><ele>58.0</ele><time>2026-04-06T08:38:51Z</time></trkpt><trkpt lat="45.292947474444276" lon="9.609288024172892"><ele>58.0</ele><time>2026-04-06T08:38:52Z</time></trkpt><trkpt lat="45.293069338780214" lon="9.609609203713246"><ele>59.0</ele><time>2026-04-06T08:38:53Z</time></trkpt><trkpt lat="45.29318999952782" lon="9.609922784691186"><ele>60.0</ele><time>2026-04-06T08:38:54Z</time></trkpt><trkpt lat="45.29330696174253" lon="9.61021934580996"><ele>60.0</ele><time>2026-04-06T08:38:55Z</time></trkpt><trkpt lat="45.29342062230534" lon="9.610490698868999"><ele>60.0</ele><time>2026-04-06T08:38:56Z</time></trkpt><trkpt lat="45.29353452202379" lon="9.610759988378929"><ele>60.0</ele><time>2026-04-06T08:38:57Z</time></trkpt><trkpt lat="45.29365928977678" lon="9.611036015585437"><ele>60.0</ele><time>2026-04-06T08:38:58Z</time></trkpt><trkpt lat="45.29379611087593" lon="9.611307970289024"><ele>60.0</ele><time>2026-04-06T08:38:59Z</time></trkpt><trkpt lat="45.2939434319877" lon="9.611576001549707"><ele>59.0</ele><time>2026-04-06T08:39:00Z</time></trkpt><trkpt lat="45.29408277217313" lon="9.61182562792773"><ele>58.0</ele><time>2026-04-06T08:39:01Z</time></trkpt><trkpt lat="45.29420761649627" lon="9.612058006230187"><ele>57.0</ele><time>2026-04-06T08:39:02Z</time></trkpt><trkpt lat="45.294317544292305" lon="9.612286405898216"><ele>57.0</ele><time>2026-04-06T08:39:03Z</time></trkpt><trkpt lat="45.29441370531164" lon="9.612543530086848"><ele>57.0</ele><time>2026-04-06T08:39:04Z</time></trkpt><trkpt lat="45.29448821341126" lon="9.612819019934781"><ele>57.0</ele><time>2026-04-06T08:39:05Z</time></trkpt><trkpt lat="45.29453982975508" lon="9.613115168048155"><ele>56.5</ele><time>2026-04-06T08:39:06Z</time></trkpt><trkpt lat="45.29456657599191" lon="9.613423511385019"><ele>56.0</ele><time>2026-04-06T08:39:07Z</time></trkpt><trkpt lat="45.29457978103325" lon="9.613751576231529"><ele>56.0</ele><time>2026-04-06T08:39:08Z</time></trkpt><trkpt lat="45.29459308998885" lon="9.614085467093846"><ele>56.0</ele><time>2026-04-06T08:39:09Z</time></trkpt><trkpt lat="45.2946061776331" lon="9.614414766357328"><ele>55.5</ele><time>2026-04-06T08:39:10Z</time></trkpt><trkpt lat="45.2946218611881" lon="9.6147446793576"><ele>55.0</ele><time>2026-04-06T08:39:11Z</time></trkpt><trkpt lat="45.29463707157193" lon="9.615071027462545"><ele>56.0</ele><time>2026-04-06T08:39:12Z</time></trkpt><trkpt lat="45.29465289926904" lon="9.615401969811929"><ele>57.0</ele><time>2026-04-06T08:39:13Z</time></trkpt><trkpt lat="45.2946667948609" lon="9.615730735273587"><ele>57.0</ele><time>2026-04-06T08:39:14Z</time></trkpt><trkpt lat="45.294679832377106" lon="9.61605272346992"><ele>57.0</ele><time>2026-04-06T08:39:15Z</time></trkpt><trkpt lat="45.29469539036364" lon="9.61637748959651"><ele>57.0</ele><time>2026-04-06T08:39:16Z</time></trkpt><trkpt lat="45.29471244302087" lon="9.616705327949918"><ele>57.0</ele><time>2026-04-06T08:39:17Z</time></trkpt><trkpt lat="45.29473192800361" lon="9.61703156595017"><ele>56.0</ele><time>2026-04-06T08:39:17.999Z</time></trkpt><trkpt lat="45.2947472929872" lon="9.617362014060754"><ele>55.0</ele><time>2026-04-06T08:39:18.999Z</time></trkpt><trkpt lat="45.294761556359056" lon="9.617696743585642"><ele>56.5</ele><time>2026-04-06T08:39:19.999Z</time></trkpt><trkpt lat="45.294779413297206" lon="9.618031547928409"><ele>58.0</ele><time>2026-04-06T08:39:20.999Z</time></trkpt><trkpt lat="45.29479653440571" lon="9.618364109232514"><ele>57.33333333333333</ele><time>2026-04-06T08:39:21.999Z</time></trkpt><trkpt lat="45.29481199070522" lon="9.618679215958414"><ele>56.66666666666667</ele><time>2026-04-06T08:39:22.999Z</time></trkpt><trkpt lat="45.29482749178019" lon="9.618973770940427"><ele>56.0</ele><time>2026-04-06T08:39:23.999Z</time></trkpt><trkpt lat="45.294840428287735" lon="9.619253645418642"><ele>56.66666666666667</ele><time>2026-04-06T08:39:24.999Z</time></trkpt><trkpt lat="45.29485244125243" lon="9.61952613064626"><ele>57.33333333333333</ele><time>2026-04-06T08:39:25.999Z</time></trkpt><trkpt lat="45.29486342117006" lon="9.619783820842729"><ele>58.0</ele><time>2026-04-06T08:39:26.999Z</time></trkpt><trkpt lat="45.29487551499031" lon="9.620019300747646"><ele>58.0</ele><time>2026-04-06T08:39:27.999Z</time></trkpt><trkpt lat="45.29489146542557" lon="9.620234458120215"><ele>58.0</ele><time>2026-04-06T08:39:28.999Z</time></trkpt><trkpt lat="45.294909046621264" lon="9.620432559034523"><ele>58.0</ele><time>2026-04-06T08:39:29.999Z</time></trkpt><trkpt lat="45.294922459888504" lon="9.620611986081956"><ele>58.0</ele><time>2026-04-06T08:39:30.999Z</time></trkpt><trkpt lat="45.29493453806001" lon="9.620784465224117"><ele>57.599999999999994</ele><time>2026-04-06T08:39:31.999Z</time></trkpt><trkpt lat="45.294945540243226" lon="9.620930815813324"><ele>57.199999999999996</ele><time>2026-04-06T08:39:32.999Z</time></trkpt><trkpt lat="45.294943351126506" lon="9.62105942042635"><ele>56.8</ele><time>2026-04-06T08:39:33.999Z</time></trkpt><trkpt lat="45.29494923239676" lon="9.621168598905335"><ele>56.4</ele><time>2026-04-06T08:39:34.999Z</time></trkpt><trkpt lat="45.294955148756124" lon="9.621278428065454"><ele>56.0</ele><time>2026-04-06T08:39:36.999Z</time></trkpt><trkpt lat="45.295119417554815" lon="9.62122685761889"><ele>55.8</ele><time>2026-04-06T08:39:38.999Z</time></trkpt><trkpt lat="45.29524292716431" lon="9.621189464951952"><ele>55.599999999999994</ele><time>2026-04-06T08:39:40.999Z</time></trkpt><trkpt lat="45.29531004123404" lon="9.621233521215922"><ele>55.4</ele><time>2026-04-06T08:39:41.999Z</time></trkpt><trkpt lat="45.295364845667905" lon="9.621331018417415"><ele>55.2</ele><time>2026-04-06T08:39:42.999Z</time></trkpt><trkpt lat="45.295404500495316" lon="9.621442267725099"><ele>55.0</ele><time>2026-04-06T08:39:43.999Z</time></trkpt><trkpt lat="45.295442211408904" lon="9.621549239624482"><ele>54.99999999999999</ele><time>2026-04-06T08:39:44.999Z</time></trkpt><trkpt lat="45.29547742168166" lon="9.62164988867348"><ele>55.0</ele><time>2026-04-06T08:39:45.999Z</time></trkpt><trkpt lat="45.29551009100967" lon="9.621749164057945"><ele>55.0</ele><time>2026-04-06T08:39:46.999Z</time></trkpt><trkpt lat="45.29554200428589" lon="9.621849866412973"><ele>55.0</ele><time>2026-04-06T08:39:47.999Z</time></trkpt><trkpt lat="45.295570032503605" lon="9.621937665813787"><ele>54.99999999999999</ele><time>2026-04-06T08:39:48.999Z</time></trkpt><trkpt lat="45.29560843222706" lon="9.62203652152026"><ele>55.0</ele><time>2026-04-06T08:39:49.999Z</time></trkpt><trkpt lat="45.29563656027569" lon="9.622144756836683"><ele>55.49999999999999</ele><time>2026-04-06T08:39:50.999Z</time></trkpt><trkpt lat="45.295658021009054" lon="9.622252188977795"><ele>56.0</ele><time>2026-04-06T08:39:51.999Z</time></trkpt><trkpt lat="45.29568736369686" lon="9.62235035367819"><ele>56.5</ele><time>2026-04-06T08:39:52.999Z</time></trkpt><trkpt lat="45.29572455698615" lon="9.62249606805549"><ele>57.0</ele><time>2026-04-06T08:39:54.999Z</time></trkpt><trkpt lat="45.29574183431001" lon="9.622597613226718"><ele>57.49999999999999</ele><time>2026-04-06T08:39:56.999Z</time></trkpt><trkpt lat="45.295761327855516" lon="9.622736984974228"><ele>58.0</ele><time>2026-04-06T08:39:58.999Z</time></trkpt><trkpt lat="45.295794017781276" lon="9.622939112945541"><ele>58.166666666666664</ele><time>2026-04-06T08:40:00.999Z</time></trkpt><trkpt lat="45.29581647700735" lon="9.623041491745134"><ele>58.33333333333333</ele><time>2026-04-06T08:40:01.999Z</time></trkpt><trkpt lat="45.29584875219426" lon="9.623121677146717"><ele>58.5</ele><time>2026-04-06T08:40:02.999Z</time></trkpt><trkpt lat="45.295899362285375" lon="9.623193420970336"><ele>58.66666666666667</ele><time>2026-04-06T08:40:03.999Z</time></trkpt><trkpt lat="45.29595832747329" lon="9.62322863115198"><ele>58.833333333333336</ele><time>2026-04-06T08:40:04.999Z</time></trkpt><trkpt lat="45.29608017909048" lon="9.62322336612893"><ele>59.0</ele><time>2026-04-06T08:40:06.999Z</time></trkpt><trkpt lat="45.29615626178996" lon="9.623187343057811"><ele>59.0</ele><time>2026-04-06T08:40:07.999Z</time></trkpt><trkpt lat="45.296242816548016" lon="9.6231206535882"><ele>59.0</ele><time>2026-04-06T08:40:08.999Z</time></trkpt><trkpt lat="45.29635518465131" lon="9.62307498819166"><ele>59.0</ele><time>2026-04-06T08:40:09.999Z</time></trkpt><trkpt lat="45.29648115066523" lon="9.623016433085224"><ele>59.0</ele><time>2026-04-06T08:40:10.999Z</time></trkpt><trkpt lat="45.296607228480205" lon="9.622988123655825"><ele>59.0</ele><time>2026-04-06T08:40:11.999Z</time></trkpt><trkpt lat="45.296717047328045" lon="9.622943101613108"><ele>59.0</ele><time>2026-04-06T08:40:13Z</time></trkpt><trkpt lat="45.29682878123113" lon="9.622876838924356"><ele>59.0</ele><time>2026-04-06T08:40:14Z</time></trkpt><trkpt lat="45.29695000464771" lon="9.622830992321969"><ele>59.0</ele><time>2026-04-06T08:40:15Z</time></trkpt><trkpt lat="45.297063713635474" lon="9.622788001718572"><ele>59.0</ele><time>2026-04-06T08:40:16Z</time></trkpt><trkpt lat="45.29717624068069" lon="9.622771321088365"><ele>59.0</ele><time>2026-04-06T08:40:17Z</time></trkpt><trkpt lat="45.29730086798129" lon="9.622727321296328"><ele>59.0</ele><time>2026-04-06T08:40:18Z</time></trkpt><trkpt lat="45.29743469954054" lon="9.62268007194584"><ele>59.0</ele><time>2026-04-06T08:40:19Z</time></trkpt><trkpt lat="45.297587786212524" lon="9.622627316366934"><ele>58.75</ele><time>2026-04-06T08:40:20Z</time></trkpt><trkpt lat="45.2977386918587" lon="9.622577657036482"><ele>58.5</ele><time>2026-04-06T08:40:21Z</time></trkpt><trkpt lat="45.297869045365516" lon="9.622537448814343"><ele>58.25</ele><time>2026-04-06T08:40:22Z</time></trkpt><trkpt lat="45.297958314871636" lon="9.62251460540113"><ele>58.0</ele><time>2026-04-06T08:40:23Z</time></trkpt><trkpt lat="45.29804930091158" lon="9.622501226076881"><ele>58.25</ele><time>2026-04-06T08:40:24Z</time></trkpt><trkpt lat="45.2981503080473" lon="9.622488507508887"><ele>58.5</ele><time>2026-04-06T08:40:25Z</time></trkpt><trkpt lat="45.29826843481596" lon="9.622465164835942"><ele>58.75</ele><time>2026-04-06T08:40:26Z</time></trkpt><trkpt lat="45.29839731943758" lon="9.622457434523321"><ele>59.0</ele><time>2026-04-06T08:40:27Z</time></trkpt><trkpt lat="45.298531575515604" lon="9.622464660039089"><ele>59.0</ele><time>2026-04-06T08:40:28Z</time></trkpt><trkpt lat="45.2986760861354" lon="9.622478129470288"><ele>59.0</ele><time>2026-04-06T08:40:29Z</time></trkpt><trkpt lat="45.29882629622004" lon="9.622498849366144"><ele>59.0</ele><time>2026-04-06T08:40:30Z</time></trkpt><trkpt lat="45.29897188427131" lon="9.62251914181936"><ele>59.0</ele><time>2026-04-06T08:40:31Z</time></trkpt><trkpt lat="45.29910610190384" lon="9.62253319614576"><ele>58.400000000000006</ele><time>2026-04-06T08:40:32Z</time></trkpt><trkpt lat="45.29922957890692" lon="9.622546309597743"><ele>57.800000000000004</ele><time>2026-04-06T08:40:33Z</time></trkpt><trkpt lat="45.299347219730734" lon="9.622560429149544"><ele>57.199999999999996</ele><time>2026-04-06T08:40:34Z</time></trkpt><trkpt lat="45.299449607687784" lon="9.622574427890381"><ele>56.599999999999994</ele><time>2026-04-06T08:40:35Z</time></trkpt><trkpt lat="45.299521620001" lon="9.622583839493638"><ele>56.0</ele><time>2026-04-06T08:40:36Z</time></trkpt><trkpt lat="45.29962465196318" lon="9.622635502457738"><ele>56.0</ele><time>2026-04-06T08:40:38Z</time></trkpt><trkpt lat="45.299666970314945" lon="9.622707508540557"><ele>55.99999999999999</ele><time>2026-04-06T08:40:39Z</time></trkpt><trkpt lat="45.29970247580745" lon="9.622796990787315"><ele>55.99999999999999</ele><time>2026-04-06T08:40:40Z</time></trkpt><trkpt lat="45.29974113902051" lon="9.62292734267413"><ele>56.0</ele><time>2026-04-06T08:40:41Z</time></trkpt><trkpt lat="45.299769730938046" lon="9.623088975845404"><ele>56.0</ele><time>2026-04-06T08:40:42Z</time></trkpt><trkpt lat="45.299793795837864" lon="9.62324905583428"><ele>56.25</ele><time>2026-04-06T08:40:43Z</time></trkpt><trkpt lat="45.29982779344283" lon="9.623415609095371"><ele>56.5</ele><time>2026-04-06T08:40:44Z</time></trkpt><trkpt lat="45.29986921147549" lon="9.623606981664091"><ele>56.75</ele><time>2026-04-06T08:40:45Z</time></trkpt><trkpt lat="45.29990943132703" lon="9.623809218999261"><ele>57.0</ele><time>2026-04-06T08:40:46Z</time></trkpt><trkpt lat="45.29995042542301" lon="9.62400632076855"><ele>57.0</ele><time>2026-04-06T08:40:47Z</time></trkpt><trkpt lat="45.29999084632611" lon="9.624198200423843"><ele>57.0</ele><time>2026-04-06T08:40:48Z</time></trkpt><trkpt lat="45.30002495437411" lon="9.624385802461834"><ele>57.0</ele><time>2026-04-06T08:40:49Z</time></trkpt><trkpt lat="45.300061006865626" lon="9.624565225321474"><ele>57.0</ele><time>2026-04-06T08:40:50Z</time></trkpt><trkpt lat="45.30009394426588" lon="9.624715629955165"><ele>57.333333333333336</ele><time>2026-04-06T08:40:51Z</time></trkpt><trkpt lat="45.300120993868006" lon="9.624843222670561"><ele>57.66666666666667</ele><time>2026-04-06T08:40:52Z</time></trkpt><trkpt lat="45.300137252467756" lon="9.624937301676972"><ele>58.0</ele><time>2026-04-06T08:40:53Z</time></trkpt><trkpt lat="45.30016256836301" lon="9.62505661349989"><ele>58.333333333333336</ele><time>2026-04-06T08:40:54Z</time></trkpt><trkpt lat="45.30018815333595" lon="9.625170393369388"><ele>58.66666666666667</ele><time>2026-04-06T08:40:55Z</time></trkpt><trkpt lat="45.30021295589181" lon="9.625277919778664"><ele>59.0</ele><time>2026-04-06T08:40:56Z</time></trkpt><trkpt lat="45.30023436489712" lon="9.625389033259665"><ele>59.16666666666667</ele><time>2026-04-06T08:40:57Z</time></trkpt><trkpt lat="45.300251227451625" lon="9.625492616925126"><ele>59.333333333333336</ele><time>2026-04-06T08:40:58Z</time></trkpt><trkpt lat="45.30027162058329" lon="9.625585722841603"><ele>59.5</ele><time>2026-04-06T08:40:59Z</time></trkpt><trkpt lat="45.30029462841062" lon="9.625673218641925"><ele>59.66666666666667</ele><time>2026-04-06T08:41:00Z</time></trkpt><trkpt lat="45.3003327941243" lon="9.625849793601747"><ele>59.833333333333336</ele><time>2026-04-06T08:41:02Z</time></trkpt><trkpt lat="45.30034975868955" lon="9.62594332748126"><ele>60.0</ele><time>2026-04-06T08:41:03Z</time></trkpt><trkpt lat="45.300363548026354" lon="9.62603244420777"><ele>60.0</ele><time>2026-04-06T08:41:04Z</time></trkpt><trkpt lat="45.30037809973537" lon="9.626123813426904"><ele>60.0</ele><time>2026-04-06T08:41:05Z</time></trkpt><trkpt lat="45.30039839475334" lon="9.626280795042282"><ele>60.0</ele><time>2026-04-06T08:41:07Z</time></trkpt><trkpt lat="45.30040888675775" lon="9.626412136411897"><ele>60.0</ele><time>2026-04-06T08:41:09Z</time></trkpt><trkpt lat="45.300461259650326" lon="9.626540531215936"><ele>60.0</ele><time>2026-04-06T08:41:16.999Z</time></trkpt><trkpt lat="45.300479081703784" lon="9.626657725874228"><ele>60.0</ele><time>2026-04-06T08:41:18.999Z</time></trkpt><trkpt lat="45.30050927808273" lon="9.626773252241241"><ele>60.0</ele><time>2026-04-06T08:41:21.999Z</time></trkpt><trkpt lat="45.30055167327775" lon="9.626920546578502"><ele>60.0</ele><time>2026-04-06T08:41:23.999Z</time></trkpt><trkpt lat="45.3005795216233" lon="9.627043369327186"><ele>60.0</ele><time>2026-04-06T08:41:25.999Z</time></trkpt><trkpt lat="45.30058956381289" lon="9.627159517264674"><ele>60.0</ele><time>2026-04-06T08:41:28.999Z</time></trkpt><trkpt lat="45.30061244083738" lon="9.627057051500142"><ele>60.0</ele><time>2026-04-06T08:41:39.999Z</time></trkpt><trkpt lat="45.30057323267412" lon="9.626965884593254"><ele>60.0</ele><time>2026-04-06T08:41:40.999Z</time></trkpt><trkpt lat="45.300533625211806" lon="9.62683258351127"><ele>60.0</ele><time>2026-04-06T08:41:42.999Z</time></trkpt><trkpt lat="45.30049506140412" lon="9.626680148515165"><ele>60.0</ele><time>2026-04-06T08:41:44.999Z</time></trkpt><trkpt lat="45.30047339600988" lon="9.626591633716346"><ele>60.0</ele><time>2026-04-06T08:41:45.999Z</time></trkpt><trkpt lat="45.30043426165474" lon="9.62643869518583"><ele>60.0</ele><time>2026-04-06T08:41:47.999Z</time></trkpt><trkpt lat="45.300415188260104" lon="9.62634389198404"><ele>60.0</ele><time>2026-04-06T08:41:48.999Z</time></trkpt><trkpt lat="45.300399057090324" lon="9.626249567284923"><ele>60.0</ele><time>2026-04-06T08:41:49.999Z</time></trkpt><trkpt lat="45.30038251226444" lon="9.626136147369797"><ele>60.0</ele><time>2026-04-06T08:41:50.999Z</time></trkpt><trkpt lat="45.30036788533934" lon="9.626025037234884"><ele>60.0</ele><time>2026-04-06T08:41:51.999Z</time></trkpt><trkpt lat="45.300355349711865" lon="9.625928750083792"><ele>60.0</ele><time>2026-04-06T08:41:52.999Z</time></trkpt><trkpt lat="45.30033550926898" lon="9.625834417420727"><ele>60.0</ele><time>2026-04-06T08:41:53.999Z</time></trkpt><trkpt lat="45.3003116360145" lon="9.625740856141496"><ele>60.0</ele><time>2026-04-06T08:41:54.999Z</time></trkpt><trkpt lat="45.3002784619881" lon="9.625581922485985"><ele>60.0</ele><time>2026-04-06T08:41:56.999Z</time></trkpt><trkpt lat="45.30023846239534" lon="9.625429173883777"><ele>60.0</ele><time>2026-04-06T08:41:58.999Z</time></trkpt><trkpt lat="45.30020344145421" lon="9.625263168830395"><ele>60.0</ele><time>2026-04-06T08:42:00.999Z</time></trkpt><trkpt lat="45.30018362890822" lon="9.625168004762179"><ele>60.0</ele><time>2026-04-06T08:42:01.999Z</time></trkpt><trkpt lat="45.30016292761358" lon="9.62506864032021"><ele>60.0</ele><time>2026-04-06T08:42:02.999Z</time></trkpt><trkpt lat="45.30017315209614" lon="9.624960556711821"><ele>59.8</ele><time>2026-04-06T08:42:03.999Z</time></trkpt><trkpt lat="45.300152515891845" lon="9.624855014707896"><ele>59.6</ele><time>2026-04-06T08:42:04.999Z</time></trkpt><trkpt lat="45.300132298893686" lon="9.624754905348698"><ele>59.400000000000006</ele><time>2026-04-06T08:42:05.999Z</time></trkpt><trkpt lat="45.30010709439664" lon="9.624632043023956"><ele>59.2</ele><time>2026-04-06T08:42:06.999Z</time></trkpt><trkpt lat="45.30007522660094" lon="9.624476699583711"><ele>59.0</ele><time>2026-04-06T08:42:07.999Z</time></trkpt><trkpt lat="45.30003438625249" lon="9.624277618231101"><ele>59.333333333333336</ele><time>2026-04-06T08:42:08.999Z</time></trkpt><trkpt lat="45.299988268374285" lon="9.62405281106063"><ele>59.66666666666667</ele><time>2026-04-06T08:42:09.999Z</time></trkpt><trkpt lat="45.29993659818951" lon="9.62380008087138"><ele>60.0</ele><time>2026-04-06T08:42:10.999Z</time></trkpt><trkpt lat="45.29988483066213" lon="9.623546731364268"><ele>60.0</ele><time>2026-04-06T08:42:11.999Z</time></trkpt><trkpt lat="45.29983730677376" lon="9.623313121208671"><ele>60.0</ele><time>2026-04-06T08:42:12.999Z</time></trkpt><trkpt lat="45.29979835726667" lon="9.62311732631973"><ele>60.0</ele><time>2026-04-06T08:42:13.999Z</time></trkpt><trkpt lat="45.29976569302915" lon="9.622957847568125"><ele>60.0</ele><time>2026-04-06T08:42:14.999Z</time></trkpt><trkpt lat="45.29973138695488" lon="9.622815778987789"><ele>59.8</ele><time>2026-04-06T08:42:15.999Z</time></trkpt><trkpt lat="45.299703630148834" lon="9.622718841076065"><ele>59.6</ele><time>2026-04-06T08:42:16.999Z</time></trkpt><trkpt lat="45.299658137769036" lon="9.622646223442306"><ele>59.400000000000006</ele><time>2026-04-06T08:42:20Z</time></trkpt><trkpt lat="45.299717837558944" lon="9.622681922509672"><ele>59.2</ele><time>2026-04-06T08:42:24Z</time></trkpt><trkpt lat="45.29988514134385" lon="9.622630256161036"><ele>59.0</ele><time>2026-04-06T08:42:25Z</time></trkpt><trkpt lat="45.29998687052394" lon="9.622656244208864"><ele>59.0</ele><time>2026-04-06T08:42:27Z</time></trkpt><trkpt lat="45.300050301322194" lon="9.622661867015278"><ele>59.0</ele><time>2026-04-06T08:42:28Z</time></trkpt><trkpt lat="45.300117901900514" lon="9.62266648592676"><ele>59.0</ele><time>2026-04-06T08:42:29Z</time></trkpt><trkpt lat="45.3001848756514" lon="9.622680237453784"><ele>59.0</ele><time>2026-04-06T08:42:30Z</time></trkpt><trkpt lat="45.30025044779379" lon="9.622688410629838"><ele>59.0</ele><time>2026-04-06T08:42:31Z</time></trkpt><trkpt lat="45.30032080366748" lon="9.622693367514959"><ele>59.0</ele><time>2026-04-06T08:42:32Z</time></trkpt><trkpt lat="45.300405075235766" lon="9.622648098511329"><ele>59.0</ele><time>2026-04-06T08:42:34Z</time></trkpt><trkpt lat="45.30047474813865" lon="9.622527497003459"><ele>59.00000000000001</ele><time>2026-04-06T08:42:36Z</time></trkpt><trkpt lat="45.30049204337951" lon="9.62242383259378"><ele>59.0</ele><time>2026-04-06T08:42:37Z</time></trkpt><trkpt lat="45.300512579054995" lon="9.622300665205943"><ele>59.0</ele><time>2026-04-06T08:42:38Z</time></trkpt><trkpt lat="45.30053602467778" lon="9.622175129466054"><ele>59.0</ele><time>2026-04-06T08:42:39Z</time></trkpt><trkpt lat="45.30056874635366" lon="9.622039849683567"><ele>59.00000000000001</ele><time>2026-04-06T08:42:40Z</time></trkpt><trkpt lat="45.30058623056799" lon="9.621929538673932"><ele>59.0</ele><time>2026-04-06T08:42:41Z</time></trkpt><trkpt lat="45.30060790009814" lon="9.6218034474449"><ele>59.16666666666667</ele><time>2026-04-06T08:42:42Z</time></trkpt><trkpt lat="45.30062889566045" lon="9.62169465054542"><ele>59.333333333333336</ele><time>2026-04-06T08:42:43Z</time></trkpt><trkpt lat="45.30064634415963" lon="9.621589219005896"><ele>59.5</ele><time>2026-04-06T08:42:44Z</time></trkpt><trkpt lat="45.30066603462955" lon="9.621444979113368"><ele>59.66666666666667</ele><time>2026-04-06T08:42:46Z</time></trkpt><trkpt lat="45.30068399010548" lon="9.621335671667167"><ele>59.833333333333336</ele><time>2026-04-06T08:42:48Z</time></trkpt><trkpt lat="45.30074438797493" lon="9.621260905045924"><ele>60.0</ele><time>2026-04-06T08:42:51Z</time></trkpt><trkpt lat="45.30081884085787" lon="9.621257691568749"><ele>60.0</ele><time>2026-04-06T08:42:53Z</time></trkpt><trkpt lat="45.300901408784156" lon="9.621259478758544"><ele>60.0</ele><time>2026-04-06T08:42:55Z</time></trkpt><trkpt lat="45.30099721562612" lon="9.62125134771299"><ele>60.0</ele><time>2026-04-06T08:42:57Z</time></trkpt><trkpt lat="45.30110404019302" lon="9.621247120857305"><ele>60.0</ele><time>2026-04-06T08:42:59Z</time></trkpt><trkpt lat="45.3012452370534" lon="9.62123991438631"><ele>60.0</ele><time>2026-04-06T08:43:01Z</time></trkpt><trkpt lat="45.30133696297773" lon="9.621232310545457"><ele>60.2</ele><time>2026-04-06T08:43:01.999Z</time></trkpt><trkpt lat="45.30143257451628" lon="9.621223904286285"><ele>60.4</ele><time>2026-04-06T08:43:02.999Z</time></trkpt><trkpt lat="45.3015308949218" lon="9.621219000232601"><ele>60.599999999999994</ele><time>2026-04-06T08:43:03.999Z</time></trkpt><trkpt lat="45.301622145574086" lon="9.621213995089546"><ele>60.8</ele><time>2026-04-06T08:43:04.999Z</time></trkpt><trkpt lat="45.301707023340164" lon="9.621206287864785"><ele>61.0</ele><time>2026-04-06T08:43:05.999Z</time></trkpt><trkpt lat="45.301800210694715" lon="9.621198790263772"><ele>61.0</ele><time>2026-04-06T08:43:06.999Z</time></trkpt><trkpt lat="45.30189885158768" lon="9.62119319938789"><ele>60.99999999999999</ele><time>2026-04-06T08:43:07.999Z</time></trkpt><trkpt lat="45.30199192779502" lon="9.621186418026806"><ele>60.99999999999999</ele><time>2026-04-06T08:43:08.999Z</time></trkpt><trkpt lat="45.30208456521849" lon="9.621182108928268"><ele>61.0</ele><time>2026-04-06T08:43:09.999Z</time></trkpt><trkpt lat="45.302182066081755" lon="9.621175609744194"><ele>61.0</ele><time>2026-04-06T08:43:10.999Z</time></trkpt><trkpt lat="45.30228999819132" lon="9.621166994623655"><ele>60.8</ele><time>2026-04-06T08:43:11.999Z</time></trkpt><trkpt lat="45.30239891402496" lon="9.621157341177238"><ele>60.599999999999994</ele><time>2026-04-06T08:43:12.999Z</time></trkpt><trkpt lat="45.30249831932984" lon="9.621154589723421"><ele>60.4</ele><time>2026-04-06T08:43:13.999Z</time></trkpt><trkpt lat="45.30260633153977" lon="9.621144630043975"><ele>60.2</ele><time>2026-04-06T08:43:14.999Z</time></trkpt><trkpt lat="45.302715586730294" lon="9.621140642404717"><ele>60.0</ele><time>2026-04-06T08:43:15.999Z</time></trkpt><trkpt lat="45.30283327676014" lon="9.621147647095912"><ele>60.0</ele><time>2026-04-06T08:43:16.999Z</time></trkpt><trkpt lat="45.302956194143974" lon="9.621152718391048"><ele>60.0</ele><time>2026-04-06T08:43:17.999Z</time></trkpt><trkpt lat="45.30306263474056" lon="9.621162585740901"><ele>60.0</ele><time>2026-04-06T08:43:18.999Z</time></trkpt><trkpt lat="45.30317435401127" lon="9.621177836029652"><ele>60.0</ele><time>2026-04-06T08:43:19.999Z</time></trkpt><trkpt lat="45.30328600355657" lon="9.621194431639939"><ele>59.833333333333336</ele><time>2026-04-06T08:43:20.999Z</time></trkpt><trkpt lat="45.30337738010682" lon="9.621211286559872"><ele>59.66666666666667</ele><time>2026-04-06T08:43:21.999Z</time></trkpt><trkpt lat="45.30347861022484" lon="9.62122114815317"><ele>59.5</ele><time>2026-04-06T08:43:22.999Z</time></trkpt><trkpt lat="45.30356093491533" lon="9.621230999909798"><ele>59.333333333333336</ele><time>2026-04-06T08:43:23.999Z</time></trkpt><trkpt lat="45.303638617965824" lon="9.621243733793362"><ele>59.16666666666667</ele><time>2026-04-06T08:43:24.999Z</time></trkpt><trkpt lat="45.303720146318604" lon="9.621253852399969"><ele>59.0</ele><time>2026-04-06T08:43:25.999Z</time></trkpt><trkpt lat="45.30379215249615" lon="9.62126145040036"><ele>59.00000000000001</ele><time>2026-04-06T08:43:26.999Z</time></trkpt><trkpt lat="45.30385506822146" lon="9.621270308436873"><ele>59.0</ele><time>2026-04-06T08:43:27.999Z</time></trkpt><trkpt lat="45.30393768539145" lon="9.621313507724764"><ele>59.0</ele><time>2026-04-06T08:43:30.999Z</time></trkpt><trkpt lat="45.30399272233358" lon="9.621404685321624"><ele>59.0</ele><time>2026-04-06T08:43:32.999Z</time></trkpt><trkpt lat="45.304104346249545" lon="9.621436051566961"><ele>59.00000000000001</ele><time>2026-04-06T08:43:34.999Z</time></trkpt><trkpt lat="45.304184056191396" lon="9.62141338861054"><ele>59.0</ele><time>2026-04-06T08:43:35.999Z</time></trkpt><trkpt lat="45.30425535361666" lon="9.62139243329124"><ele>58.800000000000004</ele><time>2026-04-06T08:43:36.999Z</time></trkpt><trkpt lat="45.30433456630441" lon="9.621372214356333"><ele>58.60000000000001</ele><time>2026-04-06T08:43:37.999Z</time></trkpt><trkpt lat="45.30442505279027" lon="9.621340412889273"><ele>58.4</ele><time>2026-04-06T08:43:38.999Z</time></trkpt><trkpt lat="45.30451442746889" lon="9.621305673212685"><ele>58.2</ele><time>2026-04-06T08:43:39.999Z</time></trkpt><trkpt lat="45.30462143236129" lon="9.621263207093914"><ele>58.0</ele><time>2026-04-06T08:43:40.999Z</time></trkpt><trkpt lat="45.30474745060943" lon="9.621215186570563"><ele>58.0</ele><time>2026-04-06T08:43:41.999Z</time></trkpt><trkpt lat="45.30486715997751" lon="9.621166815008257"><ele>58.0</ele><time>2026-04-06T08:43:42.999Z</time></trkpt><trkpt lat="45.304967102998205" lon="9.621128400864912"><ele>58.0</ele><time>2026-04-06T08:43:43.999Z</time></trkpt><trkpt lat="45.30507119936533" lon="9.621090743932161"><ele>58.0</ele><time>2026-04-06T08:43:44.999Z</time></trkpt><trkpt lat="45.305150481391685" lon="9.621060304656945"><ele>58.0</ele><time>2026-04-06T08:43:45.999Z</time></trkpt><trkpt lat="45.30521912126328" lon="9.62102163390673"><ele>57.8</ele><time>2026-04-06T08:43:46.999Z</time></trkpt><trkpt lat="45.305300294683605" lon="9.620952708927161"><ele>57.599999999999994</ele><time>2026-04-06T08:43:47.999Z</time></trkpt><trkpt lat="45.30539100586056" lon="9.620861735529628"><ele>57.400000000000006</ele><time>2026-04-06T08:43:48.999Z</time></trkpt><trkpt lat="45.30548437036162" lon="9.620764956030804"><ele>57.2</ele><time>2026-04-06T08:43:49.999Z</time></trkpt><trkpt lat="45.30557201509172" lon="9.620666819803972"><ele>57.0</ele><time>2026-04-06T08:43:50.999Z</time></trkpt><trkpt lat="45.30566085531548" lon="9.620570832599315"><ele>57.75</ele><time>2026-04-06T08:43:51.999Z</time></trkpt><trkpt lat="45.30575642962006" lon="9.620475397789548"><ele>58.5</ele><time>2026-04-06T08:43:52.999Z</time></trkpt><trkpt lat="45.3058511922567" lon="9.620373350708324"><ele>59.25</ele><time>2026-04-06T08:43:53.999Z</time></trkpt><trkpt lat="45.30594724253527" lon="9.620269347007335"><ele>60.0</ele><time>2026-04-06T08:43:54.999Z</time></trkpt><trkpt lat="45.30604130802251" lon="9.620163644626178"><ele>60.2</ele><time>2026-04-06T08:43:55.999Z</time></trkpt><trkpt lat="45.30613790293506" lon="9.620068359287668"><ele>60.4</ele><time>2026-04-06T08:43:56.999Z</time></trkpt><trkpt lat="45.30622965323261" lon="9.619971383608643"><ele>60.599999999999994</ele><time>2026-04-06T08:43:57.999Z</time></trkpt><trkpt lat="45.306311882781706" lon="9.619886700790913"><ele>60.8</ele><time>2026-04-06T08:43:58.999Z</time></trkpt><trkpt lat="45.306389927370326" lon="9.619803639273508"><ele>61.0</ele><time>2026-04-06T08:43:59.999Z</time></trkpt><trkpt lat="45.306470373314305" lon="9.619709344011167"><ele>61.0</ele><time>2026-04-06T08:44:00.999Z</time></trkpt><trkpt lat="45.30656403015828" lon="9.619605181520052"><ele>61.0</ele><time>2026-04-06T08:44:01.999Z</time></trkpt><trkpt lat="45.30666035438525" lon="9.619497521532749"><ele>61.0</ele><time>2026-04-06T08:44:02.999Z</time></trkpt><trkpt lat="45.306751252868565" lon="9.619394541756819"><ele>61.0</ele><time>2026-04-06T08:44:03.999Z</time></trkpt><trkpt lat="45.30683000257335" lon="9.619300845809008"><ele>60.8</ele><time>2026-04-06T08:44:04.999Z</time></trkpt><trkpt lat="45.30690535775246" lon="9.619201472227454"><ele>60.599999999999994</ele><time>2026-04-06T08:44:05.999Z</time></trkpt><trkpt lat="45.3069808334534" lon="9.619093834363017"><ele>60.4</ele><time>2026-04-06T08:44:06.999Z</time></trkpt><trkpt lat="45.307051207152725" lon="9.61899699355867"><ele>60.2</ele><time>2026-04-06T08:44:07.999Z</time></trkpt><trkpt lat="45.3071248791092" lon="9.618895027148303"><ele>60.0</ele><time>2026-04-06T08:44:08.999Z</time></trkpt><trkpt lat="45.307185508318874" lon="9.618796789766705"><ele>59.8</ele><time>2026-04-06T08:44:09.999Z</time></trkpt><trkpt lat="45.30725885623119" lon="9.618685319483005"><ele>59.6</ele><time>2026-04-06T08:44:10.999Z</time></trkpt><trkpt lat="45.30732670775062" lon="9.618577365219737"><ele>59.400000000000006</ele><time>2026-04-06T08:44:11.999Z</time></trkpt><trkpt lat="45.30739753353478" lon="9.61847220363449"><ele>59.2</ele><time>2026-04-06T08:44:12.999Z</time></trkpt><trkpt lat="45.307466595880236" lon="9.618359387472905"><ele>59.0</ele><time>2026-04-06T08:44:13.999Z</time></trkpt><trkpt lat="45.307524778455765" lon="9.618251202147567"><ele>59.0</ele><time>2026-04-06T08:44:14.999Z</time></trkpt><trkpt lat="45.30758627536032" lon="9.618145363996392"><ele>59.00000000000001</ele><time>2026-04-06T08:44:15.999Z</time></trkpt><trkpt lat="45.3076463799624" lon="9.618041452775955"><ele>59.00000000000001</ele><time>2026-04-06T08:44:16.999Z</time></trkpt><trkpt lat="45.307712284933096" lon="9.617943548444822"><ele>59.0</ele><time>2026-04-06T08:44:17.999Z</time></trkpt><trkpt lat="45.30777747346986" lon="9.617855775910842"><ele>59.0</ele><time>2026-04-06T08:44:18.999Z</time></trkpt><trkpt lat="45.30783554562847" lon="9.617759665301724"><ele>59.00000000000001</ele><time>2026-04-06T08:44:19.999Z</time></trkpt><trkpt lat="45.30789783833375" lon="9.617659593509266"><ele>59.0</ele><time>2026-04-06T08:44:20.999Z</time></trkpt><trkpt lat="45.30795793341475" lon="9.61756391848351"><ele>59.0</ele><time>2026-04-06T08:44:21.999Z</time></trkpt><trkpt lat="45.308016296090564" lon="9.617479078536542"><ele>59.0</ele><time>2026-04-06T08:44:22.999Z</time></trkpt><trkpt lat="45.30807803117439" lon="9.617390772370145"><ele>59.00000000000001</ele><time>2026-04-06T08:44:23.999Z</time></trkpt><trkpt lat="45.30812059969014" lon="9.617322254124442"><ele>59.0</ele><time>2026-04-06T08:44:25Z</time></trkpt><trkpt lat="45.3081703679899" lon="9.617239104987258"><ele>59.0</ele><time>2026-04-06T08:44:26Z</time></trkpt><trkpt lat="45.30821541737495" lon="9.61716303448208"><ele>59.00000000000001</ele><time>2026-04-06T08:44:27Z</time></trkpt><trkpt lat="45.308290133071864" lon="9.617046200270474"><ele>59.00000000000001</ele><time>2026-04-06T08:44:29Z</time></trkpt><trkpt lat="45.30835231858986" lon="9.616931430120607"><ele>59.0</ele><time>2026-04-06T08:44:31Z</time></trkpt><trkpt lat="45.30841248703582" lon="9.616821432531161"><ele>59.0</ele><time>2026-04-06T08:44:33Z</time></trkpt><trkpt lat="45.30846545136825" lon="9.616725425866806"><ele>58.800000000000004</ele><time>2026-04-06T08:44:35Z</time></trkpt><trkpt lat="45.308540226919966" lon="9.616581552793388"><ele>58.60000000000001</ele><time>2026-04-06T08:44:37Z</time></trkpt><trkpt lat="45.30858796622466" lon="9.616482657572451"><ele>58.4</ele><time>2026-04-06T08:44:38Z</time></trkpt><trkpt lat="45.30863716724417" lon="9.616386404874815"><ele>58.2</ele><time>2026-04-06T08:44:39Z</time></trkpt><trkpt lat="45.30869126088706" lon="9.61626473020637"><ele>58.0</ele><time>2026-04-06T08:44:40Z</time></trkpt><trkpt lat="45.30874241243572" lon="9.616189594301334"><ele>58.2</ele><time>2026-04-06T08:44:41Z</time></trkpt><trkpt lat="45.308786690396424" lon="9.61611945905868"><ele>58.4</ele><time>2026-04-06T08:44:42Z</time></trkpt><trkpt lat="45.30888765946975" lon="9.61603043625834"><ele>58.60000000000001</ele><time>2026-04-06T08:44:44Z</time></trkpt><trkpt lat="45.308962367780126" lon="9.616018525835981"><ele>58.800000000000004</ele><time>2026-04-06T08:44:45Z</time></trkpt><trkpt lat="45.30905800129471" lon="9.616065786835849"><ele>59.0</ele><time>2026-04-06T08:44:46Z</time></trkpt><trkpt lat="45.30916771661096" lon="9.616089073443879"><ele>59.0</ele><time>2026-04-06T08:44:47Z</time></trkpt><trkpt lat="45.30929689040739" lon="9.616116490032754"><ele>59.0</ele><time>2026-04-06T08:44:48Z</time></trkpt><trkpt lat="45.309461741873335" lon="9.61614959816453"><ele>59.0</ele><time>2026-04-06T08:44:49Z</time></trkpt><trkpt lat="45.30962612303655" lon="9.616165543132643"><ele>59.0</ele><time>2026-04-06T08:44:50Z</time></trkpt><trkpt lat="45.309772986477185" lon="9.616197861452852"><ele>59.0</ele><time>2026-04-06T08:44:51Z</time></trkpt><trkpt lat="45.3099192521202" lon="9.61622476348263"><ele>59.0</ele><time>2026-04-06T08:44:52Z</time></trkpt><trkpt lat="45.31008006887249" lon="9.616255881959285"><ele>59.0</ele><time>2026-04-06T08:44:53Z</time></trkpt><trkpt lat="45.31024026614621" lon="9.616297240168906"><ele>59.0</ele><time>2026-04-06T08:44:54Z</time></trkpt><trkpt lat="45.310385599524345" lon="9.616329813231248"><ele>59.0</ele><time>2026-04-06T08:44:55Z</time></trkpt><trkpt lat="45.31053487156645" lon="9.616360471735373"><ele>58.5</ele><time>2026-04-06T08:44:56Z</time></trkpt><trkpt lat="45.31067430585563" lon="9.616392028999027"><ele>58.0</ele><time>2026-04-06T08:44:57Z</time></trkpt><trkpt lat="45.31081249829962" lon="9.616427857192166"><ele>57.5</ele><time>2026-04-06T08:44:58Z</time></trkpt><trkpt lat="45.31094638410606" lon="9.616455301547415"><ele>57.0</ele><time>2026-04-06T08:44:58.999Z</time></trkpt><trkpt lat="45.31110041905894" lon="9.616485658768738"><ele>57.0</ele><time>2026-04-06T08:44:59.999Z</time></trkpt><trkpt lat="45.311241941755284" lon="9.616515598140756"><ele>57.0</ele><time>2026-04-06T08:45:00.999Z</time></trkpt><trkpt lat="45.31138751648911" lon="9.616548805000233"><ele>57.0</ele><time>2026-04-06T08:45:01.999Z</time></trkpt><trkpt lat="45.31153070529198" lon="9.616584880473438"><ele>57.0</ele><time>2026-04-06T08:45:02.999Z</time></trkpt><trkpt lat="45.31165796714494" lon="9.61661122972352"><ele>57.75</ele><time>2026-04-06T08:45:03.999Z</time></trkpt><trkpt lat="45.31178702900942" lon="9.616647447553323"><ele>58.5</ele><time>2026-04-06T08:45:04.999Z</time></trkpt><trkpt lat="45.31194010720367" lon="9.616678960702004"><ele>59.25</ele><time>2026-04-06T08:45:05.999Z</time></trkpt><trkpt lat="45.31209364788453" lon="9.61670593079639"><ele>60.0</ele><time>2026-04-06T08:45:06.999Z</time></trkpt><trkpt lat="45.312260902157064" lon="9.61674355031322"><ele>60.33333333333333</ele><time>2026-04-06T08:45:07.999Z</time></trkpt><trkpt lat="45.31242133870152" lon="9.616780546254123"><ele>60.666666666666664</ele><time>2026-04-06T08:45:08.999Z</time></trkpt><trkpt lat="45.31257544920386" lon="9.616822490929843"><ele>61.0</ele><time>2026-04-06T08:45:09.999Z</time></trkpt><trkpt lat="45.31271861342156" lon="9.616853156523785"><ele>61.0</ele><time>2026-04-06T08:45:10.999Z</time></trkpt><trkpt lat="45.31286731038146" lon="9.616879265315207"><ele>61.0</ele><time>2026-04-06T08:45:11.999Z</time></trkpt><trkpt lat="45.313013833967254" lon="9.61690967250416"><ele>61.0</ele><time>2026-04-06T08:45:12.999Z</time></trkpt><trkpt lat="45.31317486347365" lon="9.616950185678638"><ele>61.0</ele><time>2026-04-06T08:45:13.999Z</time></trkpt><trkpt lat="45.31331298568242" lon="9.616978455859892"><ele>61.0</ele><time>2026-04-06T08:45:14.999Z</time></trkpt><trkpt lat="45.313450402880484" lon="9.61702978313626"><ele>61.0</ele><time>2026-04-06T08:45:15.999Z</time></trkpt><trkpt lat="45.31358617976325" lon="9.61706193717278"><ele>61.0</ele><time>2026-04-06T08:45:16.999Z</time></trkpt><trkpt lat="45.31371637487821" lon="9.617090806233563"><ele>61.0</ele><time>2026-04-06T08:45:17.999Z</time></trkpt><trkpt lat="45.31383262129656" lon="9.61708937445425"><ele>60.99999999999999</ele><time>2026-04-06T08:45:18.999Z</time></trkpt><trkpt lat="45.31393932114131" lon="9.617127174970094"><ele>60.99999999999999</ele><time>2026-04-06T08:45:19.999Z</time></trkpt><trkpt lat="45.31403888824843" lon="9.617119814481736"><ele>61.0</ele><time>2026-04-06T08:45:20.999Z</time></trkpt><trkpt lat="45.31413874279014" lon="9.617154750092972"><ele>61.0</ele><time>2026-04-06T08:45:21.999Z</time></trkpt><trkpt lat="45.31423312488273" lon="9.6171675072937"><ele>61.0</ele><time>2026-04-06T08:45:22.999Z</time></trkpt><trkpt lat="45.31434020983252" lon="9.617187763907532"><ele>61.0</ele><time>2026-04-06T08:45:23.999Z</time></trkpt><trkpt lat="45.31445853975696" lon="9.61721594623984"><ele>61.0</ele><time>2026-04-06T08:45:24.999Z</time></trkpt><trkpt lat="45.314581791059425" lon="9.617246770784034"><ele>61.0</ele><time>2026-04-06T08:45:25.999Z</time></trkpt><trkpt lat="45.31469973864263" lon="9.617275935774177"><ele>61.0</ele><time>2026-04-06T08:45:26.999Z</time></trkpt><trkpt lat="45.31482351915192" lon="9.61730565352013"><ele>61.0</ele><time>2026-04-06T08:45:27.999Z</time></trkpt><trkpt lat="45.31495420217583" lon="9.617314854545336"><ele>61.0</ele><time>2026-04-06T08:45:28.999Z</time></trkpt><trkpt lat="45.31509747488675" lon="9.617373766241746"><ele>61.0</ele><time>2026-04-06T08:45:29.999Z</time></trkpt><trkpt lat="45.31523476237564" lon="9.617406999030004"><ele>61.0</ele><time>2026-04-06T08:45:30.999Z</time></trkpt><trkpt lat="45.31537483922481" lon="9.617440511006352"><ele>61.0</ele><time>2026-04-06T08:45:31.999Z</time></trkpt><trkpt lat="45.31550412960152" lon="9.617477737520808"><ele>61.0</ele><time>2026-04-06T08:45:32.999Z</time></trkpt><trkpt lat="45.31563475403062" lon="9.617488003758291"><ele>61.0</ele><time>2026-04-06T08:45:33.999Z</time></trkpt><trkpt lat="45.31575398631303" lon="9.617557443584213"><ele>61.25</ele><time>2026-04-06T08:45:34.999Z</time></trkpt><trkpt lat="45.31587578386557" lon="9.61761746555072"><ele>61.5</ele><time>2026-04-06T08:45:35.999Z</time></trkpt><trkpt lat="45.31598992575466" lon="9.61764704811702"><ele>61.75</ele><time>2026-04-06T08:45:36.999Z</time></trkpt><trkpt lat="45.31609949417878" lon="9.617700940204097"><ele>62.0</ele><time>2026-04-06T08:45:37.999Z</time></trkpt><trkpt lat="45.31620143044239" lon="9.617750413448261"><ele>62.00000000000001</ele><time>2026-04-06T08:45:38.999Z</time></trkpt><trkpt lat="45.31628911680559" lon="9.617794401284835"><ele>62.0</ele><time>2026-04-06T08:45:39.999Z</time></trkpt><trkpt lat="45.31638128488506" lon="9.61784366724593"><ele>62.0</ele><time>2026-04-06T08:45:40.999Z</time></trkpt><trkpt lat="45.31646427805143" lon="9.617885198879758"><ele>62.0</ele><time>2026-04-06T08:45:41.999Z</time></trkpt><trkpt lat="45.3165421976492" lon="9.617930539576651"><ele>62.00000000000001</ele><time>2026-04-06T08:45:42.999Z</time></trkpt><trkpt lat="45.31660640785172" lon="9.617978357833005"><ele>62.0</ele><time>2026-04-06T08:45:43.999Z</time></trkpt><trkpt lat="45.31668548835383" lon="9.618061729583395"><ele>62.16666666666667</ele><time>2026-04-06T08:45:45.999Z</time></trkpt><trkpt lat="45.316739152173" lon="9.618156226468203"><ele>62.333333333333336</ele><time>2026-04-06T08:45:51.999Z</time></trkpt><trkpt lat="45.3168050522456" lon="9.61814885410925"><ele>62.5</ele><time>2026-04-06T08:45:52.999Z</time></trkpt><trkpt lat="45.316916971327274" lon="9.618149077651774"><ele>62.66666666666667</ele><time>2026-04-06T08:45:54.999Z</time></trkpt><trkpt lat="45.31699676827382" lon="9.61812116377624"><ele>62.833333333333336</ele><time>2026-04-06T08:45:55.999Z</time></trkpt><trkpt lat="45.317097744139026" lon="9.618124361679726"><ele>63.0</ele><time>2026-04-06T08:45:56.999Z</time></trkpt><trkpt lat="45.317199450919475" lon="9.618151797926643"><ele>63.75</ele><time>2026-04-06T08:45:57.999Z</time></trkpt><trkpt lat="45.31729910998369" lon="9.61817394748825"><ele>64.5</ele><time>2026-04-06T08:45:58.999Z</time></trkpt><trkpt lat="45.317426170074725" lon="9.618199300448394"><ele>65.25</ele><time>2026-04-06T08:45:59.999Z</time></trkpt><trkpt lat="45.31756096852872" lon="9.618204373629856"><ele>66.0</ele><time>2026-04-06T08:46:00.999Z</time></trkpt><trkpt lat="45.317687105305424" lon="9.618234713037205"><ele>66.0</ele><time>2026-04-06T08:46:01.999Z</time></trkpt><trkpt lat="45.317805710154936" lon="9.618217798888951"><ele>66.0</ele><time>2026-04-06T08:46:02.999Z</time></trkpt><trkpt lat="45.317919085101074" lon="9.618201972547086"><ele>66.0</ele><time>2026-04-06T08:46:03.999Z</time></trkpt><trkpt lat="45.31802217284971" lon="9.618188144851711"><ele>66.0</ele><time>2026-04-06T08:46:04.999Z</time></trkpt><trkpt lat="45.31811706233457" lon="9.618198864620593"><ele>66.0</ele><time>2026-04-06T08:46:05.999Z</time></trkpt><trkpt lat="45.31819825092294" lon="9.618189961179064"><ele>66.16666666666667</ele><time>2026-04-06T08:46:06.999Z</time></trkpt><trkpt lat="45.31825930818133" lon="9.618243387207134"><ele>66.33333333333333</ele><time>2026-04-06T08:46:11.999Z</time></trkpt><trkpt lat="45.3182461402512" lon="9.61838416873763"><ele>66.5</ele><time>2026-04-06T08:46:13.999Z</time></trkpt><trkpt lat="45.31822122505022" lon="9.61848147036478"><ele>66.66666666666666</ele><time>2026-04-06T08:46:14.999Z</time></trkpt><trkpt lat="45.31820699939578" lon="9.618598644420613"><ele>66.83333333333333</ele><time>2026-04-06T08:46:15.999Z</time></trkpt><trkpt lat="45.31819934431968" lon="9.618739614876768"><ele>67.0</ele><time>2026-04-06T08:46:16.999Z</time></trkpt><trkpt lat="45.31819721682464" lon="9.618866288484307"><ele>67.0</ele><time>2026-04-06T08:46:17.999Z</time></trkpt><trkpt lat="45.318183078748255" lon="9.618966113225992"><ele>67.0</ele><time>2026-04-06T08:46:18.999Z</time></trkpt><trkpt lat="45.318161118579305" lon="9.619092947460857"><ele>67.0</ele><time>2026-04-06T08:46:20.999Z</time></trkpt><trkpt lat="45.31809852928924" lon="9.619233753165874"><ele>67.0</ele><time>2026-04-06T08:46:22.999Z</time></trkpt><trkpt lat="45.318070359701494" lon="9.619365061017586"><ele>67.0</ele><time>2026-04-06T08:46:23.999Z</time></trkpt><trkpt lat="45.31804905456367" lon="9.619518491237868"><ele>67.0</ele><time>2026-04-06T08:46:24.999Z</time></trkpt><trkpt lat="45.318025655754916" lon="9.619659828009869"><ele>67.0</ele><time>2026-04-06T08:46:25.999Z</time></trkpt><trkpt lat="45.31800634104551" lon="9.619793618925389"><ele>67.0</ele><time>2026-04-06T08:46:26.999Z</time></trkpt><trkpt lat="45.31798850289417" lon="9.619929328697163"><ele>67.0</ele><time>2026-04-06T08:46:27.999Z</time></trkpt><trkpt lat="45.317972169834334" lon="9.620054348724388"><ele>67.0</ele><time>2026-04-06T08:46:28.999Z</time></trkpt><trkpt lat="45.31795109100153" lon="9.620179174135414"><ele>67.0</ele><time>2026-04-06T08:46:29.999Z</time></trkpt><trkpt lat="45.31793235534615" lon="9.62030197594321"><ele>67.0</ele><time>2026-04-06T08:46:31Z</time></trkpt><trkpt lat="45.317920677567564" lon="9.620424951609685"><ele>67.0</ele><time>2026-04-06T08:46:32Z</time></trkpt><trkpt lat="45.317924932765656" lon="9.620538279408132"><ele>67.0</ele><time>2026-04-06T08:46:33Z</time></trkpt><trkpt lat="45.31794566840939" lon="9.620667116492205"><ele>67.0</ele><time>2026-04-06T08:46:34Z</time></trkpt><trkpt lat="45.31798979461961" lon="9.620799930890882"><ele>67.75</ele><time>2026-04-06T08:46:35Z</time></trkpt><trkpt lat="45.318047112399334" lon="9.620954439272943"><ele>68.5</ele><time>2026-04-06T08:46:36Z</time></trkpt><trkpt lat="45.31810610161896" lon="9.621117690748974"><ele>69.25</ele><time>2026-04-06T08:46:37Z</time></trkpt><trkpt lat="45.318163525682564" lon="9.621305854590172"><ele>70.0</ele><time>2026-04-06T08:46:38Z</time></trkpt><trkpt lat="45.31821950382405" lon="9.621497124597221"><ele>71.0</ele><time>2026-04-06T08:46:39Z</time></trkpt><trkpt lat="45.31826974132762" lon="9.621691109521514"><ele>72.0</ele><time>2026-04-06T08:46:40Z</time></trkpt><trkpt lat="45.31831581739299" lon="9.621903843595778"><ele>73.0</ele><time>2026-04-06T08:46:41Z</time></trkpt><trkpt lat="45.318362120872735" lon="9.622116414549447"><ele>73.0</ele><time>2026-04-06T08:46:42Z</time></trkpt><trkpt lat="45.318399944293304" lon="9.622305945073377"><ele>73.0</ele><time>2026-04-06T08:46:43Z</time></trkpt><trkpt lat="45.3184328331578" lon="9.622493170956249"><ele>73.0</ele><time>2026-04-06T08:46:44Z</time></trkpt><trkpt lat="45.3184668573235" lon="9.622674769239026"><ele>73.0</ele><time>2026-04-06T08:46:45Z</time></trkpt><trkpt lat="45.31849676512061" lon="9.622829303222277"><ele>73.0</ele><time>2026-04-06T08:46:46Z</time></trkpt><trkpt lat="45.31853326623092" lon="9.62299337873183"><ele>73.0</ele><time>2026-04-06T08:46:47Z</time></trkpt><trkpt lat="45.3185855008728" lon="9.623188603781227"><ele>73.0</ele><time>2026-04-06T08:46:48Z</time></trkpt><trkpt lat="45.318647832014975" lon="9.623402615259499"><ele>73.0</ele><time>2026-04-06T08:46:49Z</time></trkpt><trkpt lat="45.31872326492603" lon="9.623661271274392"><ele>73.0</ele><time>2026-04-06T08:46:50Z</time></trkpt><trkpt lat="45.31879493996908" lon="9.623925662444265"><ele>73.0</ele><time>2026-04-06T08:46:51Z</time></trkpt><trkpt lat="45.31885880495052" lon="9.62418964412538"><ele>73.0</ele><time>2026-04-06T08:46:52Z</time></trkpt><trkpt lat="45.318911741962935" lon="9.624460027236735"><ele>73.0</ele><time>2026-04-06T08:46:53Z</time></trkpt><trkpt lat="45.31896193347183" lon="9.624713759762837"><ele>73.0</ele><time>2026-04-06T08:46:54Z</time></trkpt><trkpt lat="45.31900852205475" lon="9.624980358788665"><ele>73.0</ele><time>2026-04-06T08:46:55Z</time></trkpt><trkpt lat="45.31905321935555" lon="9.625256709464942"><ele>73.0</ele><time>2026-04-06T08:46:56Z</time></trkpt><trkpt lat="45.31909838903747" lon="9.625547324928462"><ele>73.0</ele><time>2026-04-06T08:46:57Z</time></trkpt><trkpt lat="45.319147639255654" lon="9.625836871795604"><ele>73.0</ele><time>2026-04-06T08:46:58Z</time></trkpt><trkpt lat="45.319195679936854" lon="9.626103655163064"><ele>73.0</ele><time>2026-04-06T08:46:59Z</time></trkpt><trkpt lat="45.3192420750603" lon="9.62636716568162"><ele>73.0</ele><time>2026-04-06T08:47:00Z</time></trkpt><trkpt lat="45.31928551806917" lon="9.62663451259768"><ele>73.0</ele><time>2026-04-06T08:47:01Z</time></trkpt><trkpt lat="45.319327287021764" lon="9.626883668557365"><ele>73.5</ele><time>2026-04-06T08:47:02Z</time></trkpt><trkpt lat="45.319368074094854" lon="9.627115344171187"><ele>74.0</ele><time>2026-04-06T08:47:03Z</time></trkpt><trkpt lat="45.31941046473157" lon="9.627313716841828"><ele>74.5</ele><time>2026-04-06T08:47:04Z</time></trkpt><trkpt lat="45.319463172277096" lon="9.62748764016868"><ele>75.0</ele><time>2026-04-06T08:47:04.999Z</time></trkpt><trkpt lat="45.31951941400689" lon="9.627638853922587"><ele>75.0</ele><time>2026-04-06T08:47:05.999Z</time></trkpt><trkpt lat="45.31956106023082" lon="9.627761008653879"><ele>75.0</ele><time>2026-04-06T08:47:06.999Z</time></trkpt><trkpt lat="45.31958395827006" lon="9.627867367158021"><ele>75.0</ele><time>2026-04-06T08:47:07.999Z</time></trkpt><trkpt lat="45.31959526855825" lon="9.62798680952868"><ele>75.0</ele><time>2026-04-06T08:47:08.999Z</time></trkpt><trkpt lat="45.319609475194355" lon="9.628097990066562"><ele>75.0</ele><time>2026-04-06T08:47:09.999Z</time></trkpt><trkpt lat="45.31964795620588" lon="9.628184363008398"><ele>75.0</ele><time>2026-04-06T08:47:10.999Z</time></trkpt><trkpt lat="45.3197106787106" lon="9.628231538734"><ele>74.5</ele><time>2026-04-06T08:47:11.999Z</time></trkpt><trkpt lat="45.31978324743739" lon="9.628232323606053"><ele>74.0</ele><time>2026-04-06T08:47:12.999Z</time></trkpt><trkpt lat="45.3198508886798" lon="9.628188179940807"><ele>73.5</ele><time>2026-04-06T08:47:13.999Z</time></trkpt><trkpt lat="45.31990091837143" lon="9.6281087422866"><ele>73.0</ele><time>2026-04-06T08:47:14.999Z</time></trkpt><trkpt lat="45.31993272378894" lon="9.627997779909693"><ele>72.5</ele><time>2026-04-06T08:47:15.999Z</time></trkpt><trkpt lat="45.31994543696126" lon="9.627866995908978"><ele>72.0</ele><time>2026-04-06T08:47:16.999Z</time></trkpt><trkpt lat="45.31994131279735" lon="9.627707753138019"><ele>72.0</ele><time>2026-04-06T08:47:17.999Z</time></trkpt><trkpt lat="45.319966513961255" lon="9.627550436175065"><ele>72.0</ele><time>2026-04-06T08:47:18.999Z</time></trkpt><trkpt lat="45.32004476084323" lon="9.627406934092633"><ele>72.0</ele><time>2026-04-06T08:47:19.999Z</time></trkpt><trkpt lat="45.320103822426574" lon="9.627230335693591"><ele>72.0</ele><time>2026-04-06T08:47:20.999Z</time></trkpt><trkpt lat="45.320184353793934" lon="9.627052286106183"><ele>72.33333333333333</ele><time>2026-04-06T08:47:21.999Z</time></trkpt><trkpt lat="45.32026998577922" lon="9.626861334555828"><ele>72.66666666666666</ele><time>2026-04-06T08:47:22.999Z</time></trkpt><trkpt lat="45.320365819453905" lon="9.626661018715904"><ele>73.0</ele><time>2026-04-06T08:47:23.999Z</time></trkpt><trkpt lat="45.32048052636998" lon="9.62647367035335"><ele>73.0</ele><time>2026-04-06T08:47:24.999Z</time></trkpt><trkpt lat="45.320595294340976" lon="9.62627181088989"><ele>73.0</ele><time>2026-04-06T08:47:25.999Z</time></trkpt><trkpt lat="45.32070712890704" lon="9.626058297140395"><ele>73.0</ele><time>2026-04-06T08:47:26.999Z</time></trkpt><trkpt lat="45.320839981085406" lon="9.625864535302487"><ele>72.66666666666666</ele><time>2026-04-06T08:47:27.999Z</time></trkpt><trkpt lat="45.32097475683549" lon="9.62567792878383"><ele>72.33333333333333</ele><time>2026-04-06T08:47:28.999Z</time></trkpt><trkpt lat="45.32111878589463" lon="9.62549798715017"><ele>72.0</ele><time>2026-04-06T08:47:29.999Z</time></trkpt><trkpt lat="45.321274100578144" lon="9.62532134403374"><ele>72.33333333333333</ele><time>2026-04-06T08:47:30.999Z</time></trkpt><trkpt lat="45.32143568298095" lon="9.625146983009232"><ele>72.66666666666666</ele><time>2026-04-06T08:47:31.999Z</time></trkpt><trkpt lat="45.321604847936484" lon="9.624988827118809"><ele>73.0</ele><time>2026-04-06T08:47:32.999Z</time></trkpt><trkpt lat="45.321780475797006" lon="9.624833239395334"><ele>73.0</ele><time>2026-04-06T08:47:33.999Z</time></trkpt><trkpt lat="45.321966049999354" lon="9.62468588317003"><ele>73.0</ele><time>2026-04-06T08:47:34.999Z</time></trkpt><trkpt lat="45.32216121468228" lon="9.624551156902434"><ele>73.0</ele><time>2026-04-06T08:47:35.999Z</time></trkpt><trkpt lat="45.32236366116837" lon="9.624425597951278"><ele>73.5</ele><time>2026-04-06T08:47:36.999Z</time></trkpt><trkpt lat="45.32258717207922" lon="9.624309446921286"><ele>74.0</ele><time>2026-04-06T08:47:37.999Z</time></trkpt><trkpt lat="45.32282037808574" lon="9.6242070358805"><ele>74.0</ele><time>2026-04-06T08:47:38.999Z</time></trkpt><trkpt lat="45.32305402971089" lon="9.62412297488866"><ele>74.0</ele><time>2026-04-06T08:47:39.999Z</time></trkpt><trkpt lat="45.32329074965833" lon="9.624050181648984"><ele>74.5</ele><time>2026-04-06T08:47:40.999Z</time></trkpt><trkpt lat="45.3235293738616" lon="9.62399467434905"><ele>75.0</ele><time>2026-04-06T08:47:41.999Z</time></trkpt><trkpt lat="45.32376842362653" lon="9.623945428959798"><ele>74.5</ele><time>2026-04-06T08:47:42.999Z</time></trkpt><trkpt lat="45.32399933010235" lon="9.623896251303792"><ele>74.0</ele><time>2026-04-06T08:47:43.999Z</time></trkpt><trkpt lat="45.32423535982483" lon="9.623847113612815"><ele>74.0</ele><time>2026-04-06T08:47:44.999Z</time></trkpt><trkpt lat="45.324471586405416" lon="9.623797377243502"><ele>74.0</ele><time>2026-04-06T08:47:45.999Z</time></trkpt><trkpt lat="45.32470276634411" lon="9.623741059800338"><ele>74.0</ele><time>2026-04-06T08:47:46.999Z</time></trkpt><trkpt lat="45.32494062257932" lon="9.623683501433822"><ele>74.0</ele><time>2026-04-06T08:47:47.999Z</time></trkpt><trkpt lat="45.32517767502637" lon="9.623628787347785"><ele>74.5</ele><time>2026-04-06T08:47:48.999Z</time></trkpt><trkpt lat="45.32541883867465" lon="9.623571740230167"><ele>75.0</ele><time>2026-04-06T08:47:49.999Z</time></trkpt><trkpt lat="45.325662213840204" lon="9.62351669948101"><ele>75.0</ele><time>2026-04-06T08:47:50.999Z</time></trkpt><trkpt lat="45.32616072034693" lon="9.623406216127997"><ele>75.0</ele><time>2026-04-06T08:47:52.999Z</time></trkpt><trkpt lat="45.32641213012981" lon="9.6233444955612"><ele>75.0</ele><time>2026-04-06T08:47:53.999Z</time></trkpt><trkpt lat="45.32664000204582" lon="9.623283897232605"><ele>75.0</ele><time>2026-04-06T08:47:54.999Z</time></trkpt><trkpt lat="45.32686725053699" lon="9.623229998388037"><ele>75.0</ele><time>2026-04-06T08:47:55.999Z</time></trkpt><trkpt lat="45.327092811009514" lon="9.623182231530386"><ele>74.66666666666667</ele><time>2026-04-06T08:47:56.999Z</time></trkpt><trkpt lat="45.327315626810424" lon="9.623134486637195"><ele>74.33333333333334</ele><time>2026-04-06T08:47:57.999Z</time></trkpt><trkpt lat="45.32751763657942" lon="9.623088084650144"><ele>74.0</ele><time>2026-04-06T08:47:58.999Z</time></trkpt><trkpt lat="45.327691899945975" lon="9.623055189266069"><ele>74.0</ele><time>2026-04-06T08:47:59.999Z</time></trkpt><trkpt lat="45.32784843854403" lon="9.623021668915953"><ele>74.0</ele><time>2026-04-06T08:48:00.999Z</time></trkpt><trkpt lat="45.32798793263985" lon="9.622988010796504"><ele>74.0</ele><time>2026-04-06T08:48:01.999Z</time></trkpt><trkpt lat="45.32812134706128" lon="9.622953909434191"><ele>74.0</ele><time>2026-04-06T08:48:02.999Z</time></trkpt><trkpt lat="45.32824352311234" lon="9.62292845732182"><ele>74.0</ele><time>2026-04-06T08:48:03.999Z</time></trkpt><trkpt lat="45.32835797393908" lon="9.622904107048367"><ele>74.0</ele><time>2026-04-06T08:48:04.999Z</time></trkpt><trkpt lat="45.32846638596238" lon="9.622878574894077"><ele>74.0</ele><time>2026-04-06T08:48:05.999Z</time></trkpt><trkpt lat="45.32856844609482" lon="9.622854558665471"><ele>74.0</ele><time>2026-04-06T08:48:06.999Z</time></trkpt><trkpt lat="45.3286605958383" lon="9.62283552152135"><ele>74.0</ele><time>2026-04-06T08:48:07.999Z</time></trkpt><trkpt lat="45.32874254424691" lon="9.622820220322456"><ele>74.0</ele><time>2026-04-06T08:48:08.999Z</time></trkpt><trkpt lat="45.32883793405861" lon="9.622799639772115"><ele>74.0</ele><time>2026-04-06T08:48:10.999Z</time></trkpt><trkpt lat="45.32873034136614" lon="9.622820399942487"><ele>74.0</ele><time>2026-04-06T08:48:24.999Z</time></trkpt><trkpt lat="45.328643463865575" lon="9.622841086591825"><ele>74.0</ele><time>2026-04-06T08:48:25.999Z</time></trkpt><trkpt lat="45.328557347822446" lon="9.622860578622321"><ele>74.0</ele><time>2026-04-06T08:48:26.999Z</time></trkpt><trkpt lat="45.32843347181645" lon="9.622888617388712"><ele>74.0</ele><time>2026-04-06T08:48:27.999Z</time></trkpt><trkpt lat="45.328289283116874" lon="9.622921253814633"><ele>74.0</ele><time>2026-04-06T08:48:28.999Z</time></trkpt><trkpt lat="45.32812770324702" lon="9.622957826678126"><ele>74.0</ele><time>2026-04-06T08:48:29.999Z</time></trkpt><trkpt lat="45.327951049848245" lon="9.622997811535994"><ele>74.0</ele><time>2026-04-06T08:48:30.999Z</time></trkpt><trkpt lat="45.32778852101611" lon="9.623034599092364"><ele>74.0</ele><time>2026-04-06T08:48:31.999Z</time></trkpt><trkpt lat="45.32761866824202" lon="9.623073044546445"><ele>74.0</ele><time>2026-04-06T08:48:32.999Z</time></trkpt><trkpt lat="45.32745873908681" lon="9.623109243805931"><ele>74.0</ele><time>2026-04-06T08:48:33.999Z</time></trkpt><trkpt lat="45.32729220693405" lon="9.623146937669947"><ele>74.0</ele><time>2026-04-06T08:48:34.999Z</time></trkpt><trkpt lat="45.32712710448258" lon="9.623184170709653"><ele>74.0</ele><time>2026-04-06T08:48:36Z</time></trkpt><trkpt lat="45.32697154068157" lon="9.623219322940525"><ele>74.33333333333334</ele><time>2026-04-06T08:48:37Z</time></trkpt><trkpt lat="45.326812954825925" lon="9.62325515789029"><ele>74.66666666666667</ele><time>2026-04-06T08:48:38Z</time></trkpt><trkpt lat="45.32666256156343" lon="9.623289141707057"><ele>75.0</ele><time>2026-04-06T08:48:39Z</time></trkpt><trkpt lat="45.326515683029314" lon="9.623322331296702"><ele>75.0</ele><time>2026-04-06T08:48:40Z</time></trkpt><trkpt lat="45.326373723600284" lon="9.623354409352205"><ele>75.0</ele><time>2026-04-06T08:48:40.999Z</time></trkpt><trkpt lat="45.3262299084547" lon="9.623387673262727"><ele>75.0</ele><time>2026-04-06T08:48:41.999Z</time></trkpt><trkpt lat="45.32606936257827" lon="9.623424302228333"><ele>75.0</ele><time>2026-04-06T08:48:42.999Z</time></trkpt><trkpt lat="45.32589238121884" lon="9.623464680971782"><ele>75.0</ele><time>2026-04-06T08:48:43.999Z</time></trkpt><trkpt lat="45.32570458461568" lon="9.623512874623986"><ele>75.0</ele><time>2026-04-06T08:48:44.999Z</time></trkpt><trkpt lat="45.32550731705638" lon="9.62356021295246"><ele>75.33333333333333</ele><time>2026-04-06T08:48:45.999Z</time></trkpt><trkpt lat="45.32530267013436" lon="9.623609321852069"><ele>75.66666666666666</ele><time>2026-04-06T08:48:46.999Z</time></trkpt><trkpt lat="45.32512422113692" lon="9.623652144054395"><ele>76.0</ele><time>2026-04-06T08:48:47.999Z</time></trkpt><trkpt lat="45.32491599558896" lon="9.623693519256626"><ele>75.33333333333333</ele><time>2026-04-06T08:48:48.999Z</time></trkpt><trkpt lat="45.32472076872942" lon="9.623735815624745"><ele>74.66666666666667</ele><time>2026-04-06T08:48:49.999Z</time></trkpt><trkpt lat="45.32451182452129" lon="9.62378463494133"><ele>74.0</ele><time>2026-04-06T08:48:50.999Z</time></trkpt><trkpt lat="45.32432135962615" lon="9.62382627660628"><ele>74.0</ele><time>2026-04-06T08:48:51.999Z</time></trkpt><trkpt lat="45.32414656142322" lon="9.623864275276535"><ele>74.0</ele><time>2026-04-06T08:48:52.999Z</time></trkpt><trkpt lat="45.32398061728406" lon="9.623900496669874"><ele>74.0</ele><time>2026-04-06T08:48:53.999Z</time></trkpt><trkpt lat="45.32382645818829" lon="9.623936173402136"><ele>74.25</ele><time>2026-04-06T08:48:54.999Z</time></trkpt><trkpt lat="45.323678933693564" lon="9.623959033791248"><ele>74.5</ele><time>2026-04-06T08:48:55.999Z</time></trkpt><trkpt lat="45.32354249713483" lon="9.623994607541825"><ele>74.75</ele><time>2026-04-06T08:48:56.999Z</time></trkpt><trkpt lat="45.32343873358987" lon="9.62402836603701"><ele>75.0</ele><time>2026-04-06T08:48:57.999Z</time></trkpt><trkpt lat="45.32335360496119" lon="9.624060099626874"><ele>75.0</ele><time>2026-04-06T08:48:58.999Z</time></trkpt><trkpt lat="45.323284254741175" lon="9.62409542548792"><ele>75.0</ele><time>2026-04-06T08:48:59.999Z</time></trkpt><trkpt lat="45.32324647150738" lon="9.62417597136401"><ele>75.0</ele><time>2026-04-06T08:49:01.999Z</time></trkpt><trkpt lat="45.32331428681077" lon="9.624267797867274"><ele>75.0</ele><time>2026-04-06T08:49:03.999Z</time></trkpt><trkpt lat="45.32337530867116" lon="9.62424374670069"><ele>75.0</ele><time>2026-04-06T08:49:04.999Z</time></trkpt><trkpt lat="45.323453580920834" lon="9.624237512162525"><ele>75.0</ele><time>2026-04-06T08:49:05.999Z</time></trkpt><trkpt lat="45.32354299354999" lon="9.624211997038772"><ele>75.0</ele><time>2026-04-06T08:49:06.999Z</time></trkpt><trkpt lat="45.32364787524894" lon="9.624208226967777"><ele>75.0</ele><time>2026-04-06T08:49:07.999Z</time></trkpt><trkpt lat="45.32374531873857" lon="9.62423480968644"><ele>75.0</ele><time>2026-04-06T08:49:08.999Z</time></trkpt><trkpt lat="45.32383961902687" lon="9.624288171687937"><ele>75.0</ele><time>2026-04-06T08:49:09.999Z</time></trkpt><trkpt lat="45.323953368290624" lon="9.624368957174367"><ele>75.0</ele><time>2026-04-06T08:49:10.999Z</time></trkpt><trkpt lat="45.32408587275738" lon="9.624456376644584"><ele>74.75</ele><time>2026-04-06T08:49:11.999Z</time></trkpt><trkpt lat="45.32421173099469" lon="9.624554415626704"><ele>74.5</ele><time>2026-04-06T08:49:12.999Z</time></trkpt><trkpt lat="45.32434350992346" lon="9.624644350594043"><ele>74.25</ele><time>2026-04-06T08:49:13.999Z</time></trkpt><trkpt lat="45.32447903952945" lon="9.62473200801169"><ele>74.0</ele><time>2026-04-06T08:49:14.999Z</time></trkpt><trkpt lat="45.32461366180036" lon="9.624826335267604"><ele>74.0</ele><time>2026-04-06T08:49:15.999Z</time></trkpt><trkpt lat="45.324744591539236" lon="9.62491638285566"><ele>74.0</ele><time>2026-04-06T08:49:16.999Z</time></trkpt><trkpt lat="45.32486056652188" lon="9.624998140789408"><ele>74.0</ele><time>2026-04-06T08:49:17.999Z</time></trkpt><trkpt lat="45.32493834185068" lon="9.625067534128975"><ele>74.0</ele><time>2026-04-06T08:49:18.999Z</time></trkpt><trkpt lat="45.32500724128659" lon="9.625124041450889"><ele>74.0</ele><time>2026-04-06T08:49:19.999Z</time></trkpt><trkpt lat="45.325081587101394" lon="9.625222903964813"><ele>74.5</ele><time>2026-04-06T08:49:20.999Z</time></trkpt><trkpt lat="45.325158018178946" lon="9.625370753724214"><ele>75.0</ele><time>2026-04-06T08:49:21.999Z</time></trkpt><trkpt lat="45.32526099044073" lon="9.625525465906525"><ele>75.5</ele><time>2026-04-06T08:49:22.999Z</time></trkpt><trkpt lat="45.32537131583443" lon="9.625678810403095"><ele>76.0</ele><time>2026-04-06T08:49:23.999Z</time></trkpt><trkpt lat="45.32548558805646" lon="9.625822016825238"><ele>75.66666666666666</ele><time>2026-04-06T08:49:24.999Z</time></trkpt><trkpt lat="45.325602217900716" lon="9.62597525224177"><ele>75.33333333333333</ele><time>2026-04-06T08:49:25.999Z</time></trkpt><trkpt lat="45.325741640225786" lon="9.626121754482867"><ele>75.0</ele><time>2026-04-06T08:49:26.999Z</time></trkpt><trkpt lat="45.325877548624184" lon="9.626274688420605"><ele>74.66666666666667</ele><time>2026-04-06T08:49:27.999Z</time></trkpt><trkpt lat="45.32600026195082" lon="9.62642215777209"><ele>74.33333333333334</ele><time>2026-04-06T08:49:28.999Z</time></trkpt><trkpt lat="45.326123123815414" lon="9.626580531868418"><ele>74.0</ele><time>2026-04-06T08:49:29.999Z</time></trkpt><trkpt lat="45.32624476853732" lon="9.626747876105776"><ele>74.0</ele><time>2026-04-06T08:49:30.999Z</time></trkpt><trkpt lat="45.32636227189524" lon="9.62690365886927"><ele>74.0</ele><time>2026-04-06T08:49:31.999Z</time></trkpt><trkpt lat="45.326476500069674" lon="9.627046794087217"><ele>74.0</ele><time>2026-04-06T08:49:32.999Z</time></trkpt><trkpt lat="45.326581604701005" lon="9.627174724948432"><ele>74.0</ele><time>2026-04-06T08:49:33.999Z</time></trkpt><trkpt lat="45.326673405539744" lon="9.627321096810345"><ele>74.0</ele><time>2026-04-06T08:49:34.999Z</time></trkpt><trkpt lat="45.326770462698015" lon="9.627421869044161"><ele>74.0</ele><time>2026-04-06T08:49:35.999Z</time></trkpt><trkpt lat="45.32684259376244" lon="9.627521111793866"><ele>74.0</ele><time>2026-04-06T08:49:36.999Z</time></trkpt><trkpt lat="45.32690533180416" lon="9.62759763702851"><ele>74.0</ele><time>2026-04-06T08:49:37.999Z</time></trkpt><trkpt lat="45.32698399964275" lon="9.627702868022014"><ele>74.0</ele><time>2026-04-06T08:49:39.999Z</time></trkpt><trkpt lat="45.327044601136386" lon="9.627791083337772"><ele>74.0</ele><time>2026-04-06T08:52:02Z</time></trkpt><trkpt lat="45.32715060629473" lon="9.62789289607153"><ele>74.0</ele><time>2026-04-06T08:52:04Z</time></trkpt><trkpt lat="45.32726405140872" lon="9.628041130641144"><ele>74.0</ele><time>2026-04-06T08:52:06Z</time></trkpt><trkpt lat="45.3273503001466" lon="9.628154607528577"><ele>73.75</ele><time>2026-04-06T08:52:07Z</time></trkpt><trkpt lat="45.327451677332604" lon="9.628283511762493"><ele>73.5</ele><time>2026-04-06T08:52:08Z</time></trkpt><trkpt lat="45.32754407196235" lon="9.628402187286866"><ele>73.25</ele><time>2026-04-06T08:52:09Z</time></trkpt><trkpt lat="45.327630003817056" lon="9.62851241006748"><ele>73.0</ele><time>2026-04-06T08:52:10Z</time></trkpt><trkpt lat="45.32771698698943" lon="9.62862370503403"><ele>73.25</ele><time>2026-04-06T08:52:11Z</time></trkpt><trkpt lat="45.327816808754974" lon="9.628750151577009"><ele>73.5</ele><time>2026-04-06T08:52:12Z</time></trkpt><trkpt lat="45.327917724793004" lon="9.628880273997671"><ele>73.75</ele><time>2026-04-06T08:52:13Z</time></trkpt><trkpt lat="45.32800545524082" lon="9.628990552301136"><ele>74.0</ele><time>2026-04-06T08:52:14Z</time></trkpt><trkpt lat="45.328087034358006" lon="9.629095480389543"><ele>74.2</ele><time>2026-04-06T08:52:15Z</time></trkpt><trkpt lat="45.32816395164923" lon="9.629197020087107"><ele>74.4</ele><time>2026-04-06T08:52:16Z</time></trkpt><trkpt lat="45.328243784265425" lon="9.629296633417882"><ele>74.6</ele><time>2026-04-06T08:52:17Z</time></trkpt><trkpt lat="45.32831529915279" lon="9.62938199417851"><ele>74.8</ele><time>2026-04-06T08:52:18Z</time></trkpt><trkpt lat="45.328390993952574" lon="9.62947649604825"><ele>75.0</ele><time>2026-04-06T08:52:19Z</time></trkpt><trkpt lat="45.32847775462274" lon="9.629584667287563"><ele>75.25</ele><time>2026-04-06T08:52:20Z</time></trkpt><trkpt lat="45.3285730442736" lon="9.62970052192952"><ele>75.5</ele><time>2026-04-06T08:52:21Z</time></trkpt><trkpt lat="45.32864308360612" lon="9.629842545028689"><ele>75.75</ele><time>2026-04-06T08:52:22Z</time></trkpt><trkpt lat="45.328726643742016" lon="9.629995528639814"><ele>76.0</ele><time>2026-04-06T08:52:23Z</time></trkpt><trkpt lat="45.32882172492822" lon="9.630142117922531"><ele>76.0</ele><time>2026-04-06T08:52:24Z</time></trkpt><trkpt lat="45.32891601204778" lon="9.630295072049192"><ele>76.0</ele><time>2026-04-06T08:52:25Z</time></trkpt><trkpt lat="45.32899744012308" lon="9.630436725851752"><ele>76.0</ele><time>2026-04-06T08:52:26Z</time></trkpt><trkpt lat="45.32907746189029" lon="9.630581176576943"><ele>76.0</ele><time>2026-04-06T08:52:27Z</time></trkpt><trkpt lat="45.329163750157626" lon="9.630712334712895"><ele>75.75</ele><time>2026-04-06T08:52:28Z</time></trkpt><trkpt lat="45.32924306963858" lon="9.63084093372319"><ele>75.5</ele><time>2026-04-06T08:52:29Z</time></trkpt><trkpt lat="45.32929553632447" lon="9.630978774069893"><ele>75.25</ele><time>2026-04-06T08:52:30Z</time></trkpt><trkpt lat="45.32936964163639" lon="9.631124005104956"><ele>75.0</ele><time>2026-04-06T08:52:31Z</time></trkpt><trkpt lat="45.32940432321614" lon="9.63129741324153"><ele>74.6</ele><time>2026-04-06T08:52:32Z</time></trkpt><trkpt lat="45.32946344904304" lon="9.63144432868017"><ele>74.2</ele><time>2026-04-06T08:52:33Z</time></trkpt><trkpt lat="45.329496889904284" lon="9.631597856712226"><ele>73.8</ele><time>2026-04-06T08:52:34Z</time></trkpt><trkpt lat="45.32956171619944" lon="9.631700408151003"><ele>73.4</ele><time>2026-04-06T08:52:35Z</time></trkpt><trkpt lat="45.329615085314074" lon="9.63182221028533"><ele>73.0</ele><time>2026-04-06T08:52:36Z</time></trkpt><trkpt lat="45.329708937768295" lon="9.631912457969426"><ele>73.0</ele><time>2026-04-06T08:52:37Z</time></trkpt><trkpt lat="45.329803909555984" lon="9.63202709762238"><ele>73.0</ele><time>2026-04-06T08:52:38Z</time></trkpt><trkpt lat="45.32991435353459" lon="9.632128156471703"><ele>73.0</ele><time>2026-04-06T08:52:39Z</time></trkpt><trkpt lat="45.3300066203598" lon="9.632232542111476"><ele>73.0</ele><time>2026-04-06T08:52:40Z</time></trkpt><trkpt lat="45.33010883304341" lon="9.632347957500116"><ele>73.0</ele><time>2026-04-06T08:52:41Z</time></trkpt><trkpt lat="45.3302126181939" lon="9.632465958012215"><ele>73.0</ele><time>2026-04-06T08:52:42Z</time></trkpt><trkpt lat="45.33031898605789" lon="9.632570931625658"><ele>73.0</ele><time>2026-04-06T08:52:43Z</time></trkpt><trkpt lat="45.33040178688463" lon="9.63267090103046"><ele>73.0</ele><time>2026-04-06T08:52:44Z</time></trkpt><trkpt lat="45.33048574763061" lon="9.632756928611709"><ele>73.4</ele><time>2026-04-06T08:52:45Z</time></trkpt><trkpt lat="45.33057345378438" lon="9.632828320422465"><ele>73.8</ele><time>2026-04-06T08:52:46Z</time></trkpt><trkpt lat="45.33066600260865" lon="9.632925294060508"><ele>74.2</ele><time>2026-04-06T08:52:47Z</time></trkpt><trkpt lat="45.33074484661673" lon="9.633018849491783"><ele>74.6</ele><time>2026-04-06T08:52:48Z</time></trkpt><trkpt lat="45.33080833276278" lon="9.633129705661963"><ele>75.0</ele><time>2026-04-06T08:52:49Z</time></trkpt><trkpt lat="45.330882113011285" lon="9.633244341461893"><ele>75.0</ele><time>2026-04-06T08:52:50Z</time></trkpt><trkpt lat="45.33095251437528" lon="9.633386274472638"><ele>75.0</ele><time>2026-04-06T08:52:51Z</time></trkpt><trkpt lat="45.33100929747929" lon="9.633550614330302"><ele>75.0</ele><time>2026-04-06T08:52:52Z</time></trkpt><trkpt lat="45.33104323065297" lon="9.633705468032757"><ele>75.0</ele><time>2026-04-06T08:52:53Z</time></trkpt><trkpt lat="45.331092127662984" lon="9.633874801834688"><ele>74.66666666666667</ele><time>2026-04-06T08:52:54Z</time></trkpt><trkpt lat="45.33112934633585" lon="9.634099129850378"><ele>74.33333333333334</ele><time>2026-04-06T08:52:55Z</time></trkpt><trkpt lat="45.331175160208176" lon="9.634318962416824"><ele>74.0</ele><time>2026-04-06T08:52:56Z</time></trkpt><trkpt lat="45.33122998299425" lon="9.634518725402472"><ele>74.0</ele><time>2026-04-06T08:52:57Z</time></trkpt><trkpt lat="45.331295183177296" lon="9.634727503723964"><ele>74.0</ele><time>2026-04-06T08:52:58Z</time></trkpt><trkpt lat="45.33134955241034" lon="9.634943932383392"><ele>74.0</ele><time>2026-04-06T08:52:59Z</time></trkpt><trkpt lat="45.331402337339824" lon="9.635186976190537"><ele>74.33333333333334</ele><time>2026-04-06T08:53:00Z</time></trkpt><trkpt lat="45.331463564894484" lon="9.635416816844007"><ele>74.66666666666667</ele><time>2026-04-06T08:53:01Z</time></trkpt><trkpt lat="45.33152386521649" lon="9.635658300822245"><ele>75.0</ele><time>2026-04-06T08:53:02Z</time></trkpt><trkpt lat="45.33157401985196" lon="9.635876484316594"><ele>75.0</ele><time>2026-04-06T08:53:03Z</time></trkpt><trkpt lat="45.33161029177086" lon="9.636032027431579"><ele>75.0</ele><time>2026-04-06T08:53:04Z</time></trkpt><trkpt lat="45.33164037913957" lon="9.636158275258351"><ele>75.0</ele><time>2026-04-06T08:53:05Z</time></trkpt><trkpt lat="45.3316639482295" lon="9.63627106204174"><ele>75.0</ele><time>2026-04-06T08:53:06Z</time></trkpt><trkpt lat="45.33171836509813" lon="9.636425064019491"><ele>75.0</ele><time>2026-04-06T08:53:08Z</time></trkpt><trkpt lat="45.331773753798856" lon="9.636486492150937"><ele>75.0</ele><time>2026-04-06T08:53:09Z</time></trkpt><trkpt lat="45.331842927642285" lon="9.636524204028325"><ele>75.0</ele><time>2026-04-06T08:53:10Z</time></trkpt><trkpt lat="45.3319284918511" lon="9.636531523048742"><ele>75.0</ele><time>2026-04-06T08:53:11Z</time></trkpt><trkpt lat="45.33203989881793" lon="9.636519869283674"><ele>75.0</ele><time>2026-04-06T08:53:12Z</time></trkpt><trkpt lat="45.332172553937994" lon="9.63649623062974"><ele>75.0</ele><time>2026-04-06T08:53:13Z</time></trkpt><trkpt lat="45.332326635716" lon="9.636451755296093"><ele>75.0</ele><time>2026-04-06T08:53:14Z</time></trkpt><trkpt lat="45.33246229299033" lon="9.636412275272196"><ele>75.0</ele><time>2026-04-06T08:53:15Z</time></trkpt><trkpt lat="45.33262746456809" lon="9.636393124322948"><ele>75.0</ele><time>2026-04-06T08:53:16Z</time></trkpt><trkpt lat="45.332795504670116" lon="9.636354508241698"><ele>75.0</ele><time>2026-04-06T08:53:17Z</time></trkpt><trkpt lat="45.33298337078542" lon="9.636287855857212"><ele>75.0</ele><time>2026-04-06T08:53:18Z</time></trkpt><trkpt lat="45.3331404511133" lon="9.636251354364765"><ele>75.0</ele><time>2026-04-06T08:53:19Z</time></trkpt><trkpt lat="45.33328600206632" lon="9.636240487140395"><ele>74.8</ele><time>2026-04-06T08:53:20Z</time></trkpt><trkpt lat="45.33340978371308" lon="9.636209629327773"><ele>74.6</ele><time>2026-04-06T08:53:21Z</time></trkpt><trkpt lat="45.33351061946371" lon="9.63618409271688"><ele>74.4</ele><time>2026-04-06T08:53:22Z</time></trkpt><trkpt lat="45.33359214966596" lon="9.636164107208312"><ele>74.2</ele><time>2026-04-06T08:53:23Z</time></trkpt><trkpt lat="45.33365924304842" lon="9.636148468439659"><ele>74.0</ele><time>2026-04-06T08:53:24Z</time></trkpt><trkpt lat="45.333762979251745" lon="9.636140138364388"><ele>74.0</ele><time>2026-04-06T08:53:26Z</time></trkpt><trkpt lat="45.33383195370516" lon="9.636267815786063"><ele>74.0</ele><time>2026-04-06T08:53:28Z</time></trkpt><trkpt lat="45.3338335084061" lon="9.636385095158499"><ele>74.0</ele><time>2026-04-06T08:53:29Z</time></trkpt><trkpt lat="45.33387422503371" lon="9.636528809968874"><ele>74.0</ele><time>2026-04-06T08:53:30Z</time></trkpt><trkpt lat="45.33390344717387" lon="9.636665123926239"><ele>74.0</ele><time>2026-04-06T08:53:31Z</time></trkpt><trkpt lat="45.33395091073603" lon="9.636761001385256"><ele>74.0</ele><time>2026-04-06T08:53:32Z</time></trkpt><trkpt lat="45.3340225619262" lon="9.636835100655693"><ele>74.0</ele><time>2026-04-06T08:53:33Z</time></trkpt><trkpt lat="45.334125066938924" lon="9.636915310305252"><ele>74.0</ele><time>2026-04-06T08:53:34Z</time></trkpt><trkpt lat="45.33426589530599" lon="9.637002513723283"><ele>74.0</ele><time>2026-04-06T08:53:35Z</time></trkpt><trkpt lat="45.33440389722084" lon="9.637083946458445"><ele>74.0</ele><time>2026-04-06T08:53:36Z</time></trkpt><trkpt lat="45.33452450802197" lon="9.637154250942048"><ele>74.0</ele><time>2026-04-06T08:53:37Z</time></trkpt><trkpt lat="45.33464442344845" lon="9.637242496807406"><ele>74.0</ele><time>2026-04-06T08:53:38Z</time></trkpt><trkpt lat="45.33474062791364" lon="9.637338166931029"><ele>74.0</ele><time>2026-04-06T08:53:39Z</time></trkpt><trkpt lat="45.33482210599718" lon="9.637399269058706"><ele>74.0</ele><time>2026-04-06T08:53:40Z</time></trkpt><trkpt lat="45.33489765198263" lon="9.637427190260725"><ele>74.0</ele><time>2026-04-06T08:53:41Z</time></trkpt><trkpt lat="45.33507248805781" lon="9.637384224430246"><ele>74.0</ele><time>2026-04-06T08:53:43Z</time></trkpt><trkpt lat="45.335199836466444" lon="9.637341655881123"><ele>74.0</ele><time>2026-04-06T08:53:44Z</time></trkpt><trkpt lat="45.33532074847114" lon="9.637319652671286"><ele>74.0</ele><time>2026-04-06T08:53:45Z</time></trkpt><trkpt lat="45.33543911663289" lon="9.637260559906444"><ele>74.0</ele><time>2026-04-06T08:53:46Z</time></trkpt><trkpt lat="45.33559328351641" lon="9.637249548229057"><ele>74.0</ele><time>2026-04-06T08:53:47Z</time></trkpt><trkpt lat="45.33576940213312" lon="9.63722155710442"><ele>74.33333333333334</ele><time>2026-04-06T08:53:48Z</time></trkpt><trkpt lat="45.335945708388365" lon="9.637173196252121"><ele>74.66666666666667</ele><time>2026-04-06T08:53:49Z</time></trkpt><trkpt lat="45.33613116848699" lon="9.637148790190734"><ele>75.0</ele><time>2026-04-06T08:53:50Z</time></trkpt><trkpt lat="45.33630289761868" lon="9.637127602345599"><ele>75.2</ele><time>2026-04-06T08:53:51Z</time></trkpt><trkpt lat="45.33643138440155" lon="9.637115412912792"><ele>75.4</ele><time>2026-04-06T08:53:52Z</time></trkpt><trkpt lat="45.336524843729734" lon="9.637101277829293"><ele>75.6</ele><time>2026-04-06T08:53:53Z</time></trkpt><trkpt lat="45.33659941377812" lon="9.637091074885591"><ele>75.8</ele><time>2026-04-06T08:53:54Z</time></trkpt><trkpt lat="45.336669160554635" lon="9.637096349164262"><ele>76.0</ele><time>2026-04-06T08:53:55Z</time></trkpt><trkpt lat="45.33676378148377" lon="9.637064443044137"><ele>76.0</ele><time>2026-04-06T08:53:57Z</time></trkpt><trkpt lat="45.33683058282313" lon="9.637082358824623"><ele>76.0</ele><time>2026-04-06T08:54:07Z</time></trkpt><trkpt lat="45.336899479141934" lon="9.637260680557077"><ele>76.0</ele><time>2026-04-06T08:54:09Z</time></trkpt><trkpt lat="45.33692401658136" lon="9.637398968246492"><ele>76.0</ele><time>2026-04-06T08:54:10Z</time></trkpt><trkpt lat="45.3369503665867" lon="9.637562383784081"><ele>76.0</ele><time>2026-04-06T08:54:11Z</time></trkpt><trkpt lat="45.33698033916861" lon="9.637742618588032"><ele>75.66666666666666</ele><time>2026-04-06T08:54:12Z</time></trkpt><trkpt lat="45.33700955735739" lon="9.63793463278509"><ele>75.33333333333333</ele><time>2026-04-06T08:54:13Z</time></trkpt><trkpt lat="45.33704097279787" lon="9.638164143719864"><ele>75.0</ele><time>2026-04-06T08:54:14Z</time></trkpt><trkpt lat="45.33707401822395" lon="9.63842865780117"><ele>75.33333333333333</ele><time>2026-04-06T08:54:15Z</time></trkpt><trkpt lat="45.337103418859066" lon="9.638685354913944"><ele>75.66666666666666</ele><time>2026-04-06T08:54:16Z</time></trkpt><trkpt lat="45.33713480584439" lon="9.638949210941863"><ele>76.0</ele><time>2026-04-06T08:54:17Z</time></trkpt><trkpt lat="45.33716975978661" lon="9.639218426865215"><ele>76.0</ele><time>2026-04-06T08:54:18Z</time></trkpt><trkpt lat="45.33719999461557" lon="9.639481179282397"><ele>76.0</ele><time>2026-04-06T08:54:19Z</time></trkpt><trkpt lat="45.337229672307345" lon="9.639720000218158"><ele>76.0</ele><time>2026-04-06T08:54:20Z</time></trkpt><trkpt lat="45.33725577311134" lon="9.639939570878363"><ele>76.0</ele><time>2026-04-06T08:54:21Z</time></trkpt><trkpt lat="45.33727889098551" lon="9.640130252297288"><ele>76.0</ele><time>2026-04-06T08:54:22Z</time></trkpt><trkpt lat="45.33729831052089" lon="9.640299772929362"><ele>76.0</ele><time>2026-04-06T08:54:23Z</time></trkpt><trkpt lat="45.33732015735682" lon="9.640464889825386"><ele>76.0</ele><time>2026-04-06T08:54:24Z</time></trkpt><trkpt lat="45.33733870335142" lon="9.640622155487332"><ele>76.0</ele><time>2026-04-06T08:54:25Z</time></trkpt><trkpt lat="45.337358967277005" lon="9.64078069700287"><ele>76.0</ele><time>2026-04-06T08:54:26Z</time></trkpt><trkpt lat="45.33738395900682" lon="9.640934674251438"><ele>76.0</ele><time>2026-04-06T08:54:27Z</time></trkpt><trkpt lat="45.33740931669237" lon="9.641086098898429"><ele>76.0</ele><time>2026-04-06T08:54:28Z</time></trkpt><trkpt lat="45.33743381576343" lon="9.641231294732476"><ele>76.0</ele><time>2026-04-06T08:54:29Z</time></trkpt><trkpt lat="45.337460337378126" lon="9.641372864683316"><ele>76.2</ele><time>2026-04-06T08:54:30Z</time></trkpt><trkpt lat="45.33748776397533" lon="9.641515680527235"><ele>76.39999999999999</ele><time>2026-04-06T08:54:31Z</time></trkpt><trkpt lat="45.337518147851895" lon="9.641662366260555"><ele>76.6</ele><time>2026-04-06T08:54:32Z</time></trkpt><trkpt lat="45.33755425823515" lon="9.641816275890466"><ele>76.8</ele><time>2026-04-06T08:54:33Z</time></trkpt><trkpt lat="45.33758318292528" lon="9.641959030561337"><ele>77.0</ele><time>2026-04-06T08:54:34Z</time></trkpt><trkpt lat="45.337609627182275" lon="9.642105694601838"><ele>77.0</ele><time>2026-04-06T08:54:35Z</time></trkpt><trkpt lat="45.33763242741052" lon="9.642256124694402"><ele>77.0</ele><time>2026-04-06T08:54:36Z</time></trkpt><trkpt lat="45.33765543584613" lon="9.642411192633936"><ele>77.0</ele><time>2026-04-06T08:54:37Z</time></trkpt><trkpt lat="45.33767979709293" lon="9.642556989893937"><ele>77.0</ele><time>2026-04-06T08:54:38Z</time></trkpt><trkpt lat="45.33770704611338" lon="9.642699202135422"><ele>77.0</ele><time>2026-04-06T08:54:39Z</time></trkpt><trkpt lat="45.33772919390787" lon="9.642836428235857"><ele>77.2</ele><time>2026-04-06T08:54:40Z</time></trkpt><trkpt lat="45.33775124836012" lon="9.642982366507978"><ele>77.4</ele><time>2026-04-06T08:54:41Z</time></trkpt><trkpt lat="45.33777204487425" lon="9.643116218639534"><ele>77.6</ele><time>2026-04-06T08:54:42Z</time></trkpt><trkpt lat="45.337798877891196" lon="9.643265009290529"><ele>77.8</ele><time>2026-04-06T08:54:43Z</time></trkpt><trkpt lat="45.337814386580604" lon="9.643396110524522"><ele>78.0</ele><time>2026-04-06T08:54:44Z</time></trkpt><trkpt lat="45.3378271263098" lon="9.64354655652767"><ele>78.0</ele><time>2026-04-06T08:54:45Z</time></trkpt><trkpt lat="45.33783838384565" lon="9.643697596413707"><ele>78.0</ele><time>2026-04-06T08:54:46Z</time></trkpt><trkpt lat="45.33785419475377" lon="9.643841504327266"><ele>78.0</ele><time>2026-04-06T08:54:47Z</time></trkpt><trkpt lat="45.337863924335785" lon="9.643944339002042"><ele>78.0</ele><time>2026-04-06T08:54:48Z</time></trkpt><trkpt lat="45.33789520215854" lon="9.644109609705835"><ele>78.0</ele><time>2026-04-06T08:54:50Z</time></trkpt><trkpt lat="45.33792199427325" lon="9.644195041526231"><ele>78.0</ele><time>2026-04-06T08:54:51Z</time></trkpt><trkpt lat="45.33794105648852" lon="9.644298500681463"><ele>78.0</ele><time>2026-04-06T08:54:52Z</time></trkpt><trkpt lat="45.33796190251526" lon="9.64443332231844"><ele>78.0</ele><time>2026-04-06T08:54:53Z</time></trkpt><trkpt lat="45.33798577239885" lon="9.644589538383643"><ele>78.0</ele><time>2026-04-06T08:54:54Z</time></trkpt><trkpt lat="45.33801542178031" lon="9.644745529881748"><ele>78.0</ele><time>2026-04-06T08:54:55Z</time></trkpt><trkpt lat="45.338038148592176" lon="9.644891647789963"><ele>77.75</ele><time>2026-04-06T08:54:56Z</time></trkpt><trkpt lat="45.338062562750956" lon="9.645057306473579"><ele>77.5</ele><time>2026-04-06T08:54:57Z</time></trkpt><trkpt lat="45.33808896826017" lon="9.645246298762949"><ele>77.25</ele><time>2026-04-06T08:54:58Z</time></trkpt><trkpt lat="45.33811662170422" lon="9.645432435524684"><ele>77.0</ele><time>2026-04-06T08:54:59Z</time></trkpt><trkpt lat="45.338147105622255" lon="9.645634337696366"><ele>77.0</ele><time>2026-04-06T08:55:00Z</time></trkpt><trkpt lat="45.3381719189026" lon="9.645827352658904"><ele>77.0</ele><time>2026-04-06T08:55:01Z</time></trkpt><trkpt lat="45.33820087062388" lon="9.645992985474736"><ele>77.0</ele><time>2026-04-06T08:55:02Z</time></trkpt><trkpt lat="45.33822499692288" lon="9.646128729710767"><ele>77.0</ele><time>2026-04-06T08:55:03Z</time></trkpt><trkpt lat="45.33824064228818" lon="9.646222481884168"><ele>77.0</ele><time>2026-04-06T08:55:04Z</time></trkpt><trkpt lat="45.338239276955186" lon="9.646354153515516"><ele>77.0</ele><time>2026-04-06T08:55:06Z</time></trkpt><trkpt lat="45.33816088465197" lon="9.646396277953766"><ele>77.0</ele><time>2026-04-06T08:55:08Z</time></trkpt><trkpt lat="45.3380203261006" lon="9.646371826731377"><ele>77.0</ele><time>2026-04-06T08:55:10Z</time></trkpt><trkpt lat="45.33795156253975" lon="9.646346616253604"><ele>77.0</ele><time>2026-04-06T08:55:11Z</time></trkpt><trkpt lat="45.3378381459973" lon="9.64621129943135"><ele>77.0</ele><time>2026-04-06T08:55:13Z</time></trkpt><trkpt lat="45.33777181186842" lon="9.646163773577243"><ele>76.6</ele><time>2026-04-06T08:55:14Z</time></trkpt><trkpt lat="45.33767914503618" lon="9.646153409326494"><ele>76.2</ele><time>2026-04-06T08:55:15Z</time></trkpt><trkpt lat="45.33756877710008" lon="9.64616893339692"><ele>75.8</ele><time>2026-04-06T08:55:16Z</time></trkpt><trkpt lat="45.337447405539635" lon="9.646199652822174"><ele>75.4</ele><time>2026-04-06T08:55:17Z</time></trkpt><trkpt lat="45.337330229935915" lon="9.646241504970229"><ele>75.0</ele><time>2026-04-06T08:55:18Z</time></trkpt><trkpt lat="45.3372077321547" lon="9.646277662086288"><ele>74.75</ele><time>2026-04-06T08:55:19Z</time></trkpt><trkpt lat="45.337075723102856" lon="9.646318209699531"><ele>74.5</ele><time>2026-04-06T08:55:20Z</time></trkpt><trkpt lat="45.3369487375494" lon="9.646363291929227"><ele>74.25</ele><time>2026-04-06T08:55:21Z</time></trkpt><trkpt lat="45.3368212312139" lon="9.646407175660698"><ele>74.0</ele><time>2026-04-06T08:55:22Z</time></trkpt><trkpt lat="45.33669470694066" lon="9.646455101187275"><ele>74.0</ele><time>2026-04-06T08:55:23Z</time></trkpt><trkpt lat="45.336582002984294" lon="9.646495627978227"><ele>74.0</ele><time>2026-04-06T08:55:24Z</time></trkpt><trkpt lat="45.33649957742379" lon="9.646523317770656"><ele>74.0</ele><time>2026-04-06T08:55:25Z</time></trkpt><trkpt lat="45.3364384355337" lon="9.646548435309517"><ele>74.0</ele><time>2026-04-06T08:55:26Z</time></trkpt><trkpt lat="45.3363814159829" lon="9.64663728687129"><ele>74.0</ele><time>2026-04-06T08:55:28Z</time></trkpt><trkpt lat="45.33632206229503" lon="9.646815065919505"><ele>74.0</ele><time>2026-04-06T08:55:30Z</time></trkpt><trkpt lat="45.33627216793021" lon="9.646925664804032"><ele>74.0</ele><time>2026-04-06T08:55:31Z</time></trkpt><trkpt lat="45.3362102549149" lon="9.647035683587603"><ele>74.0</ele><time>2026-04-06T08:55:32Z</time></trkpt><trkpt lat="45.33613557363759" lon="9.64713343239689"><ele>74.0</ele><time>2026-04-06T08:55:33Z</time></trkpt><trkpt lat="45.33605694865799" lon="9.64724756907227"><ele>74.0</ele><time>2026-04-06T08:55:34Z</time></trkpt><trkpt lat="45.335989015004415" lon="9.64737063854311"><ele>74.0</ele><time>2026-04-06T08:55:35Z</time></trkpt><trkpt lat="45.33591158699075" lon="9.647476461839958"><ele>74.0</ele><time>2026-04-06T08:55:36Z</time></trkpt><trkpt lat="45.3358336674441" lon="9.647588937091465"><ele>74.0</ele><time>2026-04-06T08:55:37Z</time></trkpt><trkpt lat="45.33575322548459" lon="9.64770996178565"><ele>74.0</ele><time>2026-04-06T08:55:38Z</time></trkpt><trkpt lat="45.33566620487716" lon="9.647832147370279"><ele>74.25</ele><time>2026-04-06T08:55:39Z</time></trkpt><trkpt lat="45.33557328324748" lon="9.647966380404785"><ele>74.5</ele><time>2026-04-06T08:55:40Z</time></trkpt><trkpt lat="45.33548031429394" lon="9.648098228817085"><ele>74.75</ele><time>2026-04-06T08:55:41Z</time></trkpt><trkpt lat="45.33539397402363" lon="9.648223786782676"><ele>75.0</ele><time>2026-04-06T08:55:42Z</time></trkpt><trkpt lat="45.33531354753162" lon="9.648335215460198"><ele>75.16666666666667</ele><time>2026-04-06T08:55:43Z</time></trkpt><trkpt lat="45.33524592102557" lon="9.648440733301076"><ele>75.33333333333333</ele><time>2026-04-06T08:55:44Z</time></trkpt><trkpt lat="45.335189342096584" lon="9.64852438670296"><ele>75.5</ele><time>2026-04-06T08:55:45Z</time></trkpt><trkpt lat="45.335133338576355" lon="9.648609644862274"><ele>75.66666666666666</ele><time>2026-04-06T08:55:46Z</time></trkpt><trkpt lat="45.33507551270491" lon="9.648673874673166"><ele>75.83333333333333</ele><time>2026-04-06T08:55:47Z</time></trkpt><trkpt lat="45.33502317850297" lon="9.648735499779377"><ele>76.0</ele><time>2026-04-06T08:55:48Z</time></trkpt><trkpt lat="45.3349583136525" lon="9.64881270446438"><ele>76.0</ele><time>2026-04-06T08:55:49Z</time></trkpt><trkpt lat="45.3349927862778" lon="9.649010144157808"><ele>76.0</ele><time>2026-04-06T08:55:50Z</time></trkpt><trkpt lat="45.33477999393103" lon="9.649011265103862"><ele>76.0</ele><time>2026-04-06T08:55:51Z</time></trkpt><trkpt lat="45.33468998777222" lon="9.649064457678982"><ele>75.75</ele><time>2026-04-06T08:55:52Z</time></trkpt><trkpt lat="45.33459677080217" lon="9.64911954862561"><ele>75.5</ele><time>2026-04-06T08:55:53Z</time></trkpt><trkpt lat="45.334496923215625" lon="9.649178557320885"><ele>75.25</ele><time>2026-04-06T08:55:54Z</time></trkpt><trkpt lat="45.33438149883948" lon="9.649246771709329"><ele>75.0</ele><time>2026-04-06T08:55:55Z</time></trkpt><trkpt lat="45.334265314658815" lon="9.649315435132602"><ele>75.0</ele><time>2026-04-06T08:55:56Z</time></trkpt><trkpt lat="45.334140093679984" lon="9.649305601759357"><ele>75.0</ele><time>2026-04-06T08:55:57Z</time></trkpt><trkpt lat="45.33404051136988" lon="9.649375107803731"><ele>75.0</ele><time>2026-04-06T08:55:58Z</time></trkpt><trkpt lat="45.33392153095019" lon="9.649449868800385"><ele>75.0</ele><time>2026-04-06T08:55:59Z</time></trkpt><trkpt lat="45.333815163926936" lon="9.649506238542994"><ele>75.0</ele><time>2026-04-06T08:56:00Z</time></trkpt><trkpt lat="45.33371709138438" lon="9.649565884240149"><ele>75.0</ele><time>2026-04-06T08:56:01Z</time></trkpt><trkpt lat="45.33362075540945" lon="9.649634098074205"><ele>75.0</ele><time>2026-04-06T08:56:02Z</time></trkpt><trkpt lat="45.33352573546621" lon="9.649712878713814"><ele>75.0</ele><time>2026-04-06T08:56:03Z</time></trkpt><trkpt lat="45.33342490013857" lon="9.649795483267352"><ele>75.0</ele><time>2026-04-06T08:56:04Z</time></trkpt><trkpt lat="45.333328986723" lon="9.649873269171929"><ele>75.0</ele><time>2026-04-06T08:56:05Z</time></trkpt><trkpt lat="45.33323551979609" lon="9.64994214009964"><ele>75.0</ele><time>2026-04-06T08:56:06Z</time></trkpt><trkpt lat="45.33312771577349" lon="9.649999301727718"><ele>75.0</ele><time>2026-04-06T08:56:07Z</time></trkpt><trkpt lat="45.33300126755721" lon="9.650047973530452"><ele>75.0</ele><time>2026-04-06T08:56:08Z</time></trkpt><trkpt lat="45.33285280370919" lon="9.650105606024216"><ele>74.75</ele><time>2026-04-06T08:56:09Z</time></trkpt><trkpt lat="45.33271285639625" lon="9.650160453953585"><ele>74.5</ele><time>2026-04-06T08:56:10Z</time></trkpt><trkpt lat="45.332584866078705" lon="9.650200517027354"><ele>74.25</ele><time>2026-04-06T08:56:11Z</time></trkpt><trkpt lat="45.33245529745746" lon="9.650243276315988"><ele>74.0</ele><time>2026-04-06T08:56:12Z</time></trkpt><trkpt lat="45.33232363667029" lon="9.650289674542686"><ele>74.0</ele><time>2026-04-06T08:56:13Z</time></trkpt><trkpt lat="45.33220042972661" lon="9.65033906618359"><ele>74.0</ele><time>2026-04-06T08:56:14Z</time></trkpt><trkpt lat="45.33208841474" lon="9.650389268805974"><ele>74.0</ele><time>2026-04-06T08:56:15Z</time></trkpt><trkpt lat="45.331966329233396" lon="9.650434462148379"><ele>74.0</ele><time>2026-04-06T08:56:16Z</time></trkpt><trkpt lat="45.33185325231935" lon="9.650477538648095"><ele>74.0</ele><time>2026-04-06T08:56:17Z</time></trkpt><trkpt lat="45.331750709760115" lon="9.650524274460142"><ele>74.0</ele><time>2026-04-06T08:56:18Z</time></trkpt><trkpt lat="45.33166427793545" lon="9.65059110016897"><ele>74.0</ele><time>2026-04-06T08:56:19Z</time></trkpt><trkpt lat="45.3315675613819" lon="9.650672847128382"><ele>74.0</ele><time>2026-04-06T08:56:20Z</time></trkpt><trkpt lat="45.331466950473356" lon="9.65075958848286"><ele>74.0</ele><time>2026-04-06T08:56:21Z</time></trkpt><trkpt lat="45.33134999198164" lon="9.65084087755065"><ele>74.0</ele><time>2026-04-06T08:56:22Z</time></trkpt><trkpt lat="45.33123204941006" lon="9.65090798674473"><ele>74.0</ele><time>2026-04-06T08:56:23Z</time></trkpt><trkpt lat="45.33113599801796" lon="9.650961173449609"><ele>74.0</ele><time>2026-04-06T08:56:24Z</time></trkpt><trkpt lat="45.331040181662765" lon="9.651008359819565"><ele>74.0</ele><time>2026-04-06T08:56:25Z</time></trkpt><trkpt lat="45.330933060855266" lon="9.651082004658532"><ele>74.0</ele><time>2026-04-06T08:56:26Z</time></trkpt><trkpt lat="45.330827281492404" lon="9.651132748592463"><ele>74.0</ele><time>2026-04-06T08:56:27Z</time></trkpt><trkpt lat="45.33072525966112" lon="9.651185168363606"><ele>74.0</ele><time>2026-04-06T08:56:28Z</time></trkpt><trkpt lat="45.330621085540486" lon="9.651252290860564"><ele>74.0</ele><time>2026-04-06T08:56:29Z</time></trkpt><trkpt lat="45.33051304093629" lon="9.651325511251867"><ele>74.0</ele><time>2026-04-06T08:56:30Z</time></trkpt><trkpt lat="45.330394179424786" lon="9.651420721376091"><ele>74.0</ele><time>2026-04-06T08:56:31Z</time></trkpt><trkpt lat="45.330264477855664" lon="9.651506993915135"><ele>74.0</ele><time>2026-04-06T08:56:32Z</time></trkpt><trkpt lat="45.33014349495842" lon="9.651592327106096"><ele>74.0</ele><time>2026-04-06T08:56:33Z</time></trkpt><trkpt lat="45.330016530945485" lon="9.651676221660834"><ele>74.0</ele><time>2026-04-06T08:56:34Z</time></trkpt><trkpt lat="45.32988631238451" lon="9.651752432435917"><ele>74.0</ele><time>2026-04-06T08:56:35Z</time></trkpt><trkpt lat="45.32975887058164" lon="9.651839318114007"><ele>74.0</ele><time>2026-04-06T08:56:36Z</time></trkpt><trkpt lat="45.32962729057455" lon="9.651936435707382"><ele>74.0</ele><time>2026-04-06T08:56:37Z</time></trkpt><trkpt lat="45.32949987574193" lon="9.652025197852254"><ele>73.5</ele><time>2026-04-06T08:56:38Z</time></trkpt><trkpt lat="45.329366546544556" lon="9.652121277964758"><ele>73.0</ele><time>2026-04-06T08:56:39Z</time></trkpt><trkpt lat="45.32923942098373" lon="9.652211620438681"><ele>72.5</ele><time>2026-04-06T08:56:40Z</time></trkpt><trkpt lat="45.32910692975745" lon="9.652299306301092"><ele>72.0</ele><time>2026-04-06T08:56:41Z</time></trkpt><trkpt lat="45.32896632013895" lon="9.652389814416354"><ele>72.0</ele><time>2026-04-06T08:56:42Z</time></trkpt><trkpt lat="45.32885202602236" lon="9.652470125428726"><ele>72.0</ele><time>2026-04-06T08:56:43Z</time></trkpt><trkpt lat="45.328764799809534" lon="9.652526605919538"><ele>72.0</ele><time>2026-04-06T08:56:44Z</time></trkpt><trkpt lat="45.32867490751985" lon="9.652572010729363"><ele>72.0</ele><time>2026-04-06T08:56:45Z</time></trkpt><trkpt lat="45.328578315233315" lon="9.652602219350825"><ele>72.0</ele><time>2026-04-06T08:56:46Z</time></trkpt><trkpt lat="45.328473138083254" lon="9.652625988125525"><ele>72.0</ele><time>2026-04-06T08:56:47Z</time></trkpt><trkpt lat="45.32837615885485" lon="9.652637900221931"><ele>72.0</ele><time>2026-04-06T08:56:48Z</time></trkpt><trkpt lat="45.3282550345107" lon="9.652647439461665"><ele>72.0</ele><time>2026-04-06T08:56:49Z</time></trkpt><trkpt lat="45.328122694602285" lon="9.652654282039817"><ele>72.0</ele><time>2026-04-06T08:56:50Z</time></trkpt><trkpt lat="45.3279773341262" lon="9.652667059633433"><ele>72.5</ele><time>2026-04-06T08:56:51Z</time></trkpt><trkpt lat="45.32784559775138" lon="9.652673162216587"><ele>73.0</ele><time>2026-04-06T08:56:52Z</time></trkpt><trkpt lat="45.32773194135157" lon="9.652679602400394"><ele>73.5</ele><time>2026-04-06T08:56:53Z</time></trkpt><trkpt lat="45.32761384943327" lon="9.652698391930592"><ele>74.0</ele><time>2026-04-06T08:56:54Z</time></trkpt><trkpt lat="45.32746160500943" lon="9.652733665276564"><ele>74.0</ele><time>2026-04-06T08:56:55Z</time></trkpt><trkpt lat="45.32730677084983" lon="9.652775640586073"><ele>74.0</ele><time>2026-04-06T08:56:56Z</time></trkpt><trkpt lat="45.32714330310187" lon="9.652815487708375"><ele>74.0</ele><time>2026-04-06T08:56:57Z</time></trkpt><trkpt lat="45.32700164632991" lon="9.652848578900436"><ele>74.0</ele><time>2026-04-06T08:56:58Z</time></trkpt><trkpt lat="45.32686623557029" lon="9.652875136376837"><ele>74.0</ele><time>2026-04-06T08:56:59Z</time></trkpt><trkpt lat="45.326744324173376" lon="9.652910276055401"><ele>74.0</ele><time>2026-04-06T08:57:00Z</time></trkpt><trkpt lat="45.32661373870635" lon="9.65294097714271"><ele>74.0</ele><time>2026-04-06T08:57:01Z</time></trkpt><trkpt lat="45.32648616439053" lon="9.652975973957007"><ele>74.2</ele><time>2026-04-06T08:57:02Z</time></trkpt><trkpt lat="45.32636488776411" lon="9.653014830798634"><ele>74.4</ele><time>2026-04-06T08:57:03Z</time></trkpt><trkpt lat="45.32626024568104" lon="9.65304595738125"><ele>74.6</ele><time>2026-04-06T08:57:04Z</time></trkpt><trkpt lat="45.32618797661802" lon="9.653068445334654"><ele>74.8</ele><time>2026-04-06T08:57:05Z</time></trkpt><trkpt lat="45.326109975286236" lon="9.653105502327394"><ele>75.0</ele><time>2026-04-06T08:57:07Z</time></trkpt><trkpt lat="45.32603652508766" lon="9.653121391637253"><ele>75.0</ele><time>2026-04-06T08:57:09Z</time></trkpt><trkpt lat="45.32593826035523" lon="9.65314349723846"><ele>75.0</ele><time>2026-04-06T08:57:11Z</time></trkpt><trkpt lat="45.3258415238013" lon="9.653174913405563"><ele>75.0</ele><time>2026-04-06T08:57:13Z</time></trkpt><trkpt lat="45.325762152549174" lon="9.653192817266865"><ele>75.0</ele><time>2026-04-06T08:57:23Z</time></trkpt><trkpt lat="45.32566167008576" lon="9.653233548076498"><ele>75.0</ele><time>2026-04-06T08:57:25Z</time></trkpt><trkpt lat="45.32553757203896" lon="9.653269238919272"><ele>74.83333333333333</ele><time>2026-04-06T08:57:27Z</time></trkpt><trkpt lat="45.32541970995085" lon="9.653310530189977"><ele>74.66666666666667</ele><time>2026-04-06T08:57:29Z</time></trkpt><trkpt lat="45.32534290541011" lon="9.653333464287805"><ele>74.5</ele><time>2026-04-06T08:57:30Z</time></trkpt><trkpt lat="45.3252639147918" lon="9.653355795682792"><ele>74.33333333333334</ele><time>2026-04-06T08:57:31Z</time></trkpt><trkpt lat="45.32519418623155" lon="9.653375691119894"><ele>74.16666666666667</ele><time>2026-04-06T08:57:32Z</time></trkpt><trkpt lat="45.32511291052152" lon="9.65340491401715"><ele>74.0</ele><time>2026-04-06T08:57:33Z</time></trkpt><trkpt lat="45.325032345706546" lon="9.653431898467629"><ele>74.0</ele><time>2026-04-06T08:57:34Z</time></trkpt><trkpt lat="45.324965497221434" lon="9.653456402713092"><ele>74.0</ele><time>2026-04-06T08:57:35Z</time></trkpt><trkpt lat="45.324897757778174" lon="9.653477160079474"><ele>74.0</ele><time>2026-04-06T08:57:36Z</time></trkpt><trkpt lat="45.324825123267225" lon="9.653504823187976"><ele>74.0</ele><time>2026-04-06T08:57:37Z</time></trkpt><trkpt lat="45.32469699660283" lon="9.65353850354941"><ele>74.0</ele><time>2026-04-06T08:57:39Z</time></trkpt><trkpt lat="45.32462169996979" lon="9.65357166860196"><ele>74.0</ele><time>2026-04-06T08:57:40Z</time></trkpt><trkpt lat="45.324501136730895" lon="9.653610234149854"><ele>73.60000000000001</ele><time>2026-04-06T08:57:42Z</time></trkpt><trkpt lat="45.3243937070703" lon="9.653643829255074"><ele>73.2</ele><time>2026-04-06T08:57:44Z</time></trkpt><trkpt lat="45.32430606778132" lon="9.653675286880034"><ele>72.80000000000001</ele><time>2026-04-06T08:57:46Z</time></trkpt><trkpt lat="45.324211040763736" lon="9.653708406220487"><ele>72.4</ele><time>2026-04-06T08:57:48Z</time></trkpt><trkpt lat="45.3240900461948" lon="9.653747924703506"><ele>72.0</ele><time>2026-04-06T08:57:50Z</time></trkpt><trkpt lat="45.32397645245338" lon="9.653777970223468"><ele>72.0</ele><time>2026-04-06T08:57:52Z</time></trkpt><trkpt lat="45.32390071448276" lon="9.653802089467469"><ele>72.0</ele><time>2026-04-06T08:57:53Z</time></trkpt><trkpt lat="45.32383484727004" lon="9.653821346537377"><ele>72.0</ele><time>2026-04-06T08:57:54Z</time></trkpt><trkpt lat="45.323744854131256" lon="9.653849912042817"><ele>72.0</ele><time>2026-04-06T08:57:55Z</time></trkpt><trkpt lat="45.323670315815704" lon="9.653873661254762"><ele>72.0</ele><time>2026-04-06T08:57:56Z</time></trkpt><trkpt lat="45.32359281370755" lon="9.65390179365789"><ele>72.0</ele><time>2026-04-06T08:57:57Z</time></trkpt><trkpt lat="45.323446906631716" lon="9.653945682874962"><ele>71.83333333333333</ele><time>2026-04-06T08:57:59Z</time></trkpt><trkpt lat="45.323362141445116" lon="9.653973233590412"><ele>71.66666666666667</ele><time>2026-04-06T08:58:00Z</time></trkpt><trkpt lat="45.32327953403113" lon="9.654001228325809"><ele>71.5</ele><time>2026-04-06T08:58:01Z</time></trkpt><trkpt lat="45.32320055348455" lon="9.654026223452906"><ele>71.33333333333334</ele><time>2026-04-06T08:58:02Z</time></trkpt><trkpt lat="45.32313554565337" lon="9.654040870510178"><ele>71.16666666666667</ele><time>2026-04-06T08:58:03Z</time></trkpt><trkpt lat="45.32305826857481" lon="9.654075582738152"><ele>71.0</ele><time>2026-04-06T08:58:04Z</time></trkpt><trkpt lat="45.32298424769135" lon="9.654098947717513"><ele>71.0</ele><time>2026-04-06T08:58:05Z</time></trkpt><trkpt lat="45.322917364883374" lon="9.654125644958508"><ele>71.0</ele><time>2026-04-06T08:58:06Z</time></trkpt><trkpt lat="45.322806080534484" lon="9.654148300857965"><ele>71.0</ele><time>2026-04-06T08:58:08Z</time></trkpt><trkpt lat="45.32269463276556" lon="9.654181877414883"><ele>71.0</ele><time>2026-04-06T08:58:10Z</time></trkpt><trkpt lat="45.32262711133414" lon="9.654206058993053"><ele>71.0</ele><time>2026-04-06T08:58:11Z</time></trkpt><trkpt lat="45.32255905973425" lon="9.654225989362278"><ele>71.0</ele><time>2026-04-06T08:58:12Z</time></trkpt><trkpt lat="45.32249323248884" lon="9.654242239610149"><ele>71.0</ele><time>2026-04-06T08:58:13Z</time></trkpt><trkpt lat="45.32241950331933" lon="9.65426357842601"><ele>71.0</ele><time>2026-04-06T08:58:14Z</time></trkpt><trkpt lat="45.32235772765684" lon="9.654285842812852"><ele>71.0</ele><time>2026-04-06T08:58:15Z</time></trkpt><trkpt lat="45.322286135760606" lon="9.654316044431116"><ele>71.0</ele><time>2026-04-06T08:58:16Z</time></trkpt><trkpt lat="45.3222103496698" lon="9.65435112074864"><ele>71.0</ele><time>2026-04-06T08:58:17Z</time></trkpt><trkpt lat="45.322146426489304" lon="9.654377403143265"><ele>71.0</ele><time>2026-04-06T08:58:18Z</time></trkpt><trkpt lat="45.32207989533117" lon="9.654404859145304"><ele>71.0</ele><time>2026-04-06T08:58:19Z</time></trkpt><trkpt lat="45.32201203611303" lon="9.654424600419137"><ele>71.2</ele><time>2026-04-06T08:58:20Z</time></trkpt><trkpt lat="45.321884381681016" lon="9.654457366820186"><ele>71.39999999999999</ele><time>2026-04-06T08:58:22Z</time></trkpt><trkpt lat="45.32176466013" lon="9.654476816209003"><ele>71.6</ele><time>2026-04-06T08:58:24Z</time></trkpt><trkpt lat="45.32164967868379" lon="9.65446933697542"><ele>71.8</ele><time>2026-04-06T08:58:26Z</time></trkpt><trkpt lat="45.321572241930305" lon="9.654423565444963"><ele>72.0</ele><time>2026-04-06T08:58:28Z</time></trkpt><trkpt lat="45.321499906912955" lon="9.654343345671853"><ele>72.0</ele><time>2026-04-06T08:58:30Z</time></trkpt><trkpt lat="45.321453831622684" lon="9.654250872345047"><ele>72.0</ele><time>2026-04-06T08:58:32Z</time></trkpt><trkpt lat="45.32139801094797" lon="9.6541663173084"><ele>72.0</ele><time>2026-04-06T08:58:34Z</time></trkpt><trkpt lat="45.321300686211686" lon="9.654084299307835"><ele>72.0</ele><time>2026-04-06T08:58:36Z</time></trkpt><trkpt lat="45.321216448760254" lon="9.654024798891932"><ele>72.0</ele><time>2026-04-06T08:58:38Z</time></trkpt><trkpt lat="45.32113759764167" lon="9.65398463397871"><ele>72.0</ele><time>2026-04-06T08:58:40Z</time></trkpt><trkpt lat="45.321010157812516" lon="9.653932419684656"><ele>72.0</ele><time>2026-04-06T08:58:42Z</time></trkpt><trkpt lat="45.320926206572" lon="9.65389713360905"><ele>72.0</ele><time>2026-04-06T08:58:44Z</time></trkpt><trkpt lat="45.32082374358098" lon="9.653855630265669"><ele>72.0</ele><time>2026-04-06T08:58:46Z</time></trkpt><trkpt lat="45.32073296124797" lon="9.653828899534364"><ele>72.0</ele><time>2026-04-06T08:58:48Z</time></trkpt><trkpt lat="45.32064560145505" lon="9.653808607051765"><ele>72.16666666666667</ele><time>2026-04-06T08:58:50Z</time></trkpt><trkpt lat="45.32055496425688" lon="9.653780175233742"><ele>72.33333333333333</ele><time>2026-04-06T08:58:52Z</time></trkpt><trkpt lat="45.320480343794614" lon="9.65375361489489"><ele>72.5</ele><time>2026-04-06T08:58:54Z</time></trkpt><trkpt lat="45.3203985866194" lon="9.653722970427951"><ele>72.66666666666666</ele><time>2026-04-06T08:58:56Z</time></trkpt><trkpt lat="45.32031707014769" lon="9.653689595635033"><ele>72.83333333333333</ele><time>2026-04-06T08:58:58Z</time></trkpt><trkpt lat="45.32023935541667" lon="9.653653423642018"><ele>73.0</ele><time>2026-04-06T08:59:00Z</time></trkpt><trkpt lat="45.320164180245186" lon="9.653617203098225"><ele>73.0</ele><time>2026-04-06T08:59:02Z</time></trkpt><trkpt lat="45.320064610539895" lon="9.653574371693582"><ele>73.0</ele><time>2026-04-06T08:59:04Z</time></trkpt><trkpt lat="45.3199914922578" lon="9.653542215158126"><ele>73.0</ele><time>2026-04-06T08:59:06Z</time></trkpt><trkpt lat="45.31990520264707" lon="9.65350241979877"><ele>73.0</ele><time>2026-04-06T08:59:08Z</time></trkpt><trkpt lat="45.31982518850324" lon="9.653476328148747"><ele>73.0</ele><time>2026-04-06T08:59:11Z</time></trkpt><trkpt lat="45.319786015038375" lon="9.653568580434001"><ele>73.0</ele><time>2026-04-06T08:59:40Z</time></trkpt><trkpt lat="45.319811001283796" lon="9.653662198116578"><ele>73.0</ele><time>2026-04-06T08:59:41Z</time></trkpt><trkpt lat="45.319840846659645" lon="9.653752195843943"><ele>73.0</ele><time>2026-04-06T08:59:42Z</time></trkpt><trkpt lat="45.319863765583236" lon="9.653871213239503"><ele>73.0</ele><time>2026-04-06T08:59:43Z</time></trkpt><trkpt lat="45.31986886817252" lon="9.654016042156094"><ele>73.0</ele><time>2026-04-06T08:59:44Z</time></trkpt><trkpt lat="45.319899488119276" lon="9.654194717362252"><ele>73.0</ele><time>2026-04-06T08:59:45Z</time></trkpt><trkpt lat="45.31993003592683" lon="9.654395026687308"><ele>73.0</ele><time>2026-04-06T08:59:46Z</time></trkpt><trkpt lat="45.31995393994031" lon="9.654594456141742"><ele>73.0</ele><time>2026-04-06T08:59:47Z</time></trkpt><trkpt lat="45.31997757676994" lon="9.65479821565773"><ele>73.0</ele><time>2026-04-06T08:59:48Z</time></trkpt><trkpt lat="45.31999606457884" lon="9.654967876502814"><ele>73.0</ele><time>2026-04-06T08:59:49Z</time></trkpt><trkpt lat="45.320007484818774" lon="9.655090370092811"><ele>73.0</ele><time>2026-04-06T08:59:50Z</time></trkpt><trkpt lat="45.320035613700774" lon="9.65524245296442"><ele>73.0</ele><time>2026-04-06T09:00:05Z</time></trkpt><trkpt lat="45.32004567474589" lon="9.655388959800838"><ele>73.0</ele><time>2026-04-06T09:00:07Z</time></trkpt><trkpt lat="45.32006080327916" lon="9.655505803348541"><ele>73.0</ele><time>2026-04-06T09:00:08Z</time></trkpt><trkpt lat="45.320077146809936" lon="9.655666319997707"><ele>73.0</ele><time>2026-04-06T09:00:09Z</time></trkpt><trkpt lat="45.3201006358925" lon="9.655871722179846"><ele>72.66666666666666</ele><time>2026-04-06T09:00:10Z</time></trkpt><trkpt lat="45.320128079839655" lon="9.656091539167369"><ele>72.33333333333333</ele><time>2026-04-06T09:00:11Z</time></trkpt><trkpt lat="45.32015350588859" lon="9.65633300986345"><ele>72.0</ele><time>2026-04-06T09:00:12Z</time></trkpt><trkpt lat="45.32017790884823" lon="9.65656391140358"><ele>72.0</ele><time>2026-04-06T09:00:13Z</time></trkpt><trkpt lat="45.320212525494405" lon="9.65678715350767"><ele>72.0</ele><time>2026-04-06T09:00:14Z</time></trkpt><trkpt lat="45.32024733447843" lon="9.657005501579977"><ele>72.0</ele><time>2026-04-06T09:00:15Z</time></trkpt><trkpt lat="45.32027997488333" lon="9.657230758299535"><ele>72.0</ele><time>2026-04-06T09:00:16Z</time></trkpt><trkpt lat="45.32031496056558" lon="9.65747587780053"><ele>72.0</ele><time>2026-04-06T09:00:17Z</time></trkpt><trkpt lat="45.320341677986946" lon="9.657709166090278"><ele>72.0</ele><time>2026-04-06T09:00:18Z</time></trkpt><trkpt lat="45.32035676787251" lon="9.657916292730011"><ele>72.0</ele><time>2026-04-06T09:00:19Z</time></trkpt><trkpt lat="45.320362211243534" lon="9.658034643955082"><ele>72.0</ele><time>2026-04-06T09:00:20Z</time></trkpt><trkpt lat="45.320371478753636" lon="9.658150221174184"><ele>72.0</ele><time>2026-04-06T09:00:33Z</time></trkpt><trkpt lat="45.3203853078446" lon="9.658367523363449"><ele>72.0</ele><time>2026-04-06T09:00:35Z</time></trkpt><trkpt lat="45.320394270933846" lon="9.658539169411169"><ele>72.0</ele><time>2026-04-06T09:00:36Z</time></trkpt><trkpt lat="45.3204051584895" lon="9.658750493871143"><ele>72.0</ele><time>2026-04-06T09:00:37Z</time></trkpt><trkpt lat="45.32041157534209" lon="9.658968843503486"><ele>72.0</ele><time>2026-04-06T09:00:38Z</time></trkpt><trkpt lat="45.32041792012552" lon="9.659186662899371"><ele>72.0</ele><time>2026-04-06T09:00:39Z</time></trkpt><trkpt lat="45.32043482278157" lon="9.65939630775403"><ele>72.0</ele><time>2026-04-06T09:00:40Z</time></trkpt><trkpt lat="45.320464633437346" lon="9.659607221983643"><ele>72.0</ele><time>2026-04-06T09:00:41Z</time></trkpt><trkpt lat="45.32049625243524" lon="9.659819758716317"><ele>72.0</ele><time>2026-04-06T09:00:42Z</time></trkpt><trkpt lat="45.320525308377995" lon="9.660022245478215"><ele>72.0</ele><time>2026-04-06T09:00:43Z</time></trkpt><trkpt lat="45.32055156363968" lon="9.66019537102213"><ele>71.75</ele><time>2026-04-06T09:00:44Z</time></trkpt><trkpt lat="45.320583533775334" lon="9.660341269087727"><ele>71.5</ele><time>2026-04-06T09:00:45Z</time></trkpt><trkpt lat="45.32061542927831" lon="9.66050068410978"><ele>71.25</ele><time>2026-04-06T09:00:46Z</time></trkpt><trkpt lat="45.3206519782451" lon="9.660690021476958"><ele>71.0</ele><time>2026-04-06T09:00:47Z</time></trkpt><trkpt lat="45.32068191433991" lon="9.660869689966137"><ele>71.0</ele><time>2026-04-06T09:00:48Z</time></trkpt><trkpt lat="45.32070825084129" lon="9.661049667260068"><ele>71.0</ele><time>2026-04-06T09:00:49Z</time></trkpt><trkpt lat="45.32072614104296" lon="9.661212331613255"><ele>71.0</ele><time>2026-04-06T09:00:50Z</time></trkpt><trkpt lat="45.32074677999058" lon="9.661375901721076"><ele>71.0</ele><time>2026-04-06T09:00:51Z</time></trkpt><trkpt lat="45.32076557853267" lon="9.661546710962408"><ele>71.5</ele><time>2026-04-06T09:00:52Z</time></trkpt><trkpt lat="45.320796438973275" lon="9.661699107905163"><ele>72.0</ele><time>2026-04-06T09:00:53Z</time></trkpt><trkpt lat="45.320820342556054" lon="9.66184316469879"><ele>72.5</ele><time>2026-04-06T09:00:54Z</time></trkpt><trkpt lat="45.320838782410725" lon="9.662018645933612"><ele>73.0</ele><time>2026-04-06T09:00:55Z</time></trkpt><trkpt lat="45.320856591539076" lon="9.662190913095689"><ele>73.0</ele><time>2026-04-06T09:00:56Z</time></trkpt><trkpt lat="45.32087567820874" lon="9.662359915141591"><ele>73.0</ele><time>2026-04-06T09:00:57Z</time></trkpt><trkpt lat="45.32090183980357" lon="9.662535770996"><ele>73.0</ele><time>2026-04-06T09:00:58Z</time></trkpt><trkpt lat="45.32091698254515" lon="9.66268804483787"><ele>73.0</ele><time>2026-04-06T09:00:59Z</time></trkpt><trkpt lat="45.320939168421916" lon="9.662833524446308"><ele>73.0</ele><time>2026-04-06T09:01:00Z</time></trkpt><trkpt lat="45.32095989583742" lon="9.662973228057348"><ele>73.0</ele><time>2026-04-06T09:01:01Z</time></trkpt><trkpt lat="45.32098668111172" lon="9.663093703286847"><ele>73.0</ele><time>2026-04-06T09:01:02Z</time></trkpt><trkpt lat="45.32100420973549" lon="9.663244026618866"><ele>73.0</ele><time>2026-04-06T09:01:04Z</time></trkpt><trkpt lat="45.32101642676389" lon="9.663332824579095"><ele>73.0</ele><time>2026-04-06T09:01:05Z</time></trkpt><trkpt lat="45.32104472081528" lon="9.663419629595172"><ele>73.0</ele><time>2026-04-06T09:01:08Z</time></trkpt><trkpt lat="45.321043566860475" lon="9.663530089169564"><ele>72.75</ele><time>2026-04-06T09:01:09Z</time></trkpt><trkpt lat="45.32108287867589" lon="9.663675518451505"><ele>72.5</ele><time>2026-04-06T09:01:10Z</time></trkpt><trkpt lat="45.32111206280088" lon="9.663807560828818"><ele>72.25</ele><time>2026-04-06T09:01:11Z</time></trkpt><trkpt lat="45.321142762158836" lon="9.663963126150062"><ele>72.0</ele><time>2026-04-06T09:01:12Z</time></trkpt><trkpt lat="45.3211880131261" lon="9.664135378291915"><ele>72.0</ele><time>2026-04-06T09:01:13Z</time></trkpt><trkpt lat="45.3212019411602" lon="9.664311390532088"><ele>72.0</ele><time>2026-04-06T09:01:14Z</time></trkpt><trkpt lat="45.321238872153714" lon="9.664522891237995"><ele>72.0</ele><time>2026-04-06T09:01:15Z</time></trkpt><trkpt lat="45.321283933149196" lon="9.66478183665944"><ele>72.33333333333333</ele><time>2026-04-06T09:01:16Z</time></trkpt><trkpt lat="45.32134768531709" lon="9.665050247494401"><ele>72.66666666666666</ele><time>2026-04-06T09:01:17Z</time></trkpt><trkpt lat="45.3213926709851" lon="9.665318736659996"><ele>73.0</ele><time>2026-04-06T09:01:18Z</time></trkpt><trkpt lat="45.321434627911636" lon="9.665577090363874"><ele>73.0</ele><time>2026-04-06T09:01:19Z</time></trkpt><trkpt lat="45.32147263981589" lon="9.665815937056962"><ele>73.0</ele><time>2026-04-06T09:01:20Z</time></trkpt><trkpt lat="45.321508145087215" lon="9.666034300953077"><ele>73.0</ele><time>2026-04-06T09:01:21Z</time></trkpt><trkpt lat="45.321543630601894" lon="9.666244154004271"><ele>73.0</ele><time>2026-04-06T09:01:22Z</time></trkpt><trkpt lat="45.32158035654339" lon="9.666450786148856"><ele>73.0</ele><time>2026-04-06T09:01:23Z</time></trkpt><trkpt lat="45.32162627318353" lon="9.666673625733475"><ele>73.0</ele><time>2026-04-06T09:01:24Z</time></trkpt><trkpt lat="45.32166818356287" lon="9.666907620831855"><ele>72.66666666666666</ele><time>2026-04-06T09:01:25Z</time></trkpt><trkpt lat="45.32169939875388" lon="9.667159309672668"><ele>72.33333333333333</ele><time>2026-04-06T09:01:26Z</time></trkpt><trkpt lat="45.32172155216977" lon="9.66742598593342"><ele>72.0</ele><time>2026-04-06T09:01:27Z</time></trkpt><trkpt lat="45.32173713758714" lon="9.667699526496504"><ele>72.0</ele><time>2026-04-06T09:01:28Z</time></trkpt><trkpt lat="45.321752252165375" lon="9.66796168823728"><ele>72.0</ele><time>2026-04-06T09:01:29Z</time></trkpt><trkpt lat="45.32176704913484" lon="9.668194193322835"><ele>72.0</ele><time>2026-04-06T09:01:30Z</time></trkpt><trkpt lat="45.321778589306746" lon="9.668415036398425"><ele>72.0</ele><time>2026-04-06T09:01:31Z</time></trkpt><trkpt lat="45.321789830962715" lon="9.668580648131176"><ele>72.0</ele><time>2026-04-06T09:01:32Z</time></trkpt><trkpt lat="45.32180320202254" lon="9.668698013845846"><ele>72.0</ele><time>2026-04-06T09:01:33Z</time></trkpt><trkpt lat="45.32179635900798" lon="9.66882247142166"><ele>72.0</ele><time>2026-04-06T09:01:35Z</time></trkpt><trkpt lat="45.321690098988746" lon="9.668790888209974"><ele>72.0</ele><time>2026-04-06T09:01:38Z</time></trkpt><trkpt lat="45.32162655693292" lon="9.668780677902143"><ele>72.00000000000001</ele><time>2026-04-06T09:01:39Z</time></trkpt><trkpt lat="45.32155352054926" lon="9.668768613080996"><ele>72.0</ele><time>2026-04-06T09:01:40Z</time></trkpt><trkpt lat="45.321480406451755" lon="9.668774643101875"><ele>72.0</ele><time>2026-04-06T09:01:41Z</time></trkpt><trkpt lat="45.32140215446585" lon="9.668761033172196"><ele>72.0</ele><time>2026-04-06T09:01:42Z</time></trkpt><trkpt lat="45.32133024408991" lon="9.668728269926394"><ele>72.0</ele><time>2026-04-06T09:01:43Z</time></trkpt><trkpt lat="45.32126288700888" lon="9.668711511869068"><ele>72.00000000000001</ele><time>2026-04-06T09:01:44Z</time></trkpt><trkpt lat="45.32119249709478" lon="9.668683988396637"><ele>72.0</ele><time>2026-04-06T09:01:45Z</time></trkpt><trkpt lat="45.32106369781377" lon="9.668691909743584"><ele>72.0</ele><time>2026-04-06T09:01:47Z</time></trkpt><trkpt lat="45.32093050295022" lon="9.66872697780668"><ele>72.0</ele><time>2026-04-06T09:01:49Z</time></trkpt><trkpt lat="45.32084508914882" lon="9.668751175520326"><ele>72.0</ele><time>2026-04-06T09:01:50Z</time></trkpt><trkpt lat="45.320760781409724" lon="9.668775059885363"><ele>72.0</ele><time>2026-04-06T09:01:51Z</time></trkpt><trkpt lat="45.32067914851945" lon="9.668798186466711"><ele>72.0</ele><time>2026-04-06T09:01:52Z</time></trkpt><trkpt lat="45.32059813494914" lon="9.668821137594398"><ele>72.2</ele><time>2026-04-06T09:01:53Z</time></trkpt><trkpt lat="45.320505364295826" lon="9.66884741950254"><ele>72.4</ele><time>2026-04-06T09:01:54Z</time></trkpt><trkpt lat="45.3204013671603" lon="9.668871632604308"><ele>72.6</ele><time>2026-04-06T09:01:55Z</time></trkpt><trkpt lat="45.3203042757499" lon="9.668887296381152"><ele>72.8</ele><time>2026-04-06T09:01:56Z</time></trkpt><trkpt lat="45.32020872401642" lon="9.668892535811116"><ele>73.0</ele><time>2026-04-06T09:01:57Z</time></trkpt><trkpt lat="45.32010483165954" lon="9.66889207503644"><ele>73.0</ele><time>2026-04-06T09:01:58Z</time></trkpt><trkpt lat="45.320002773879644" lon="9.66888935274456"><ele>73.0</ele><time>2026-04-06T09:01:59Z</time></trkpt><trkpt lat="45.319905125413825" lon="9.668886767887951"><ele>73.0</ele><time>2026-04-06T09:02:00Z</time></trkpt><trkpt lat="45.3198025075563" lon="9.66888405148787"><ele>73.0</ele><time>2026-04-06T09:02:01Z</time></trkpt><trkpt lat="45.31967803483891" lon="9.668880756565988"><ele>73.0</ele><time>2026-04-06T09:02:02Z</time></trkpt><trkpt lat="45.31956339015875" lon="9.668877721802389"><ele>73.0</ele><time>2026-04-06T09:02:03Z</time></trkpt><trkpt lat="45.3194591554552" lon="9.668874962601537"><ele>73.0</ele><time>2026-04-06T09:02:04Z</time></trkpt><trkpt lat="45.319356674649185" lon="9.668873471087053"><ele>73.0</ele><time>2026-04-06T09:02:05Z</time></trkpt><trkpt lat="45.319275816626615" lon="9.668869111730663"><ele>73.0</ele><time>2026-04-06T09:02:06Z</time></trkpt><trkpt lat="45.319184225586014" lon="9.668848143392935"><ele>73.0</ele><time>2026-04-06T09:02:07Z</time></trkpt><trkpt lat="45.319095134776624" lon="9.668792658496512"><ele>73.0</ele><time>2026-04-06T09:02:08Z</time></trkpt><trkpt lat="45.31899241739872" lon="9.668738747096972"><ele>73.0</ele><time>2026-04-06T09:02:09Z</time></trkpt><trkpt lat="45.31888410680075" lon="9.668687603643276"><ele>73.0</ele><time>2026-04-06T09:02:10Z</time></trkpt><trkpt lat="45.31879180787139" lon="9.668660653160819"><ele>73.0</ele><time>2026-04-06T09:02:11Z</time></trkpt><trkpt lat="45.318684970425494" lon="9.668676093828278"><ele>73.0</ele><time>2026-04-06T09:02:12Z</time></trkpt><trkpt lat="45.31857459600967" lon="9.66868535824792"><ele>72.8</ele><time>2026-04-06T09:02:13Z</time></trkpt><trkpt lat="45.31845284907532" lon="9.668694339383464"><ele>72.6</ele><time>2026-04-06T09:02:14Z</time></trkpt><trkpt lat="45.318345201488576" lon="9.668706670412806"><ele>72.4</ele><time>2026-04-06T09:02:15Z</time></trkpt><trkpt lat="45.31825606811192" lon="9.66871688063788"><ele>72.2</ele><time>2026-04-06T09:02:16Z</time></trkpt><trkpt lat="45.31818822946176" lon="9.668724940361523"><ele>72.0</ele><time>2026-04-06T09:02:17Z</time></trkpt><trkpt lat="45.3180888820271" lon="9.668738580280088"><ele>72.0</ele><time>2026-04-06T09:02:18Z</time></trkpt><trkpt lat="45.317990316222016" lon="9.668752676408477"><ele>72.0</ele><time>2026-04-06T09:02:19Z</time></trkpt><trkpt lat="45.317885076854445" lon="9.668771062424328"><ele>72.0</ele><time>2026-04-06T09:02:20Z</time></trkpt><trkpt lat="45.31777255891629" lon="9.668790755302945"><ele>72.0</ele><time>2026-04-06T09:02:21Z</time></trkpt><trkpt lat="45.317659845907244" lon="9.668812087700625"><ele>72.0</ele><time>2026-04-06T09:02:22Z</time></trkpt><trkpt lat="45.31752525340904" lon="9.668838034856003"><ele>72.0</ele><time>2026-04-06T09:02:23Z</time></trkpt><trkpt lat="45.317372764309326" lon="9.668871393594872"><ele>72.0</ele><time>2026-04-06T09:02:24Z</time></trkpt><trkpt lat="45.31723120610231" lon="9.668912775733839"><ele>72.0</ele><time>2026-04-06T09:02:25Z</time></trkpt><trkpt lat="45.31709909216092" lon="9.668973611972396"><ele>72.0</ele><time>2026-04-06T09:02:26Z</time></trkpt><trkpt lat="45.31696620879525" lon="9.669008289105328"><ele>72.0</ele><time>2026-04-06T09:02:27Z</time></trkpt><trkpt lat="45.31683607321399" lon="9.669042722218995"><ele>72.0</ele><time>2026-04-06T09:02:28Z</time></trkpt><trkpt lat="45.31670878929857" lon="9.669083115265828"><ele>72.0</ele><time>2026-04-06T09:02:29Z</time></trkpt><trkpt lat="45.31656506296961" lon="9.669131783204726"><ele>72.0</ele><time>2026-04-06T09:02:30Z</time></trkpt><trkpt lat="45.31643093073459" lon="9.66917920335299"><ele>71.66666666666667</ele><time>2026-04-06T09:02:31Z</time></trkpt><trkpt lat="45.316277087639016" lon="9.66920387445304"><ele>71.33333333333334</ele><time>2026-04-06T09:02:32Z</time></trkpt><trkpt lat="45.31611422425127" lon="9.66925212983863"><ele>71.0</ele><time>2026-04-06T09:02:33Z</time></trkpt><trkpt lat="45.315948281239336" lon="9.669302025125619"><ele>71.0</ele><time>2026-04-06T09:02:34Z</time></trkpt><trkpt lat="45.315792934657985" lon="9.669348734310963"><ele>71.0</ele><time>2026-04-06T09:02:35Z</time></trkpt><trkpt lat="45.315637916927784" lon="9.669395346588049"><ele>71.0</ele><time>2026-04-06T09:02:36Z</time></trkpt><trkpt lat="45.31550212932679" lon="9.669436174861998"><ele>71.25</ele><time>2026-04-06T09:02:37Z</time></trkpt><trkpt lat="45.31537842577326" lon="9.669473369707218"><ele>71.5</ele><time>2026-04-06T09:02:38Z</time></trkpt><trkpt lat="45.31525375349174" lon="9.669510365182498"><ele>71.75</ele><time>2026-04-06T09:02:39Z</time></trkpt><trkpt lat="45.31512136385156" lon="9.669549404179664"><ele>72.0</ele><time>2026-04-06T09:02:40Z</time></trkpt><trkpt lat="45.31500621047119" lon="9.669583360554729"><ele>72.0</ele><time>2026-04-06T09:02:41Z</time></trkpt><trkpt lat="45.31490235963922" lon="9.669615156721713"><ele>72.0</ele><time>2026-04-06T09:02:42Z</time></trkpt><trkpt lat="45.314797366874345" lon="9.669647300960227"><ele>72.0</ele><time>2026-04-06T09:02:43Z</time></trkpt><trkpt lat="45.31469102256455" lon="9.669703636145908"><ele>72.0</ele><time>2026-04-06T09:02:44Z</time></trkpt><trkpt lat="45.314581497015794" lon="9.66973055648535"><ele>72.0</ele><time>2026-04-06T09:02:45Z</time></trkpt><trkpt lat="45.31446425864462" lon="9.669767091369181"><ele>72.0</ele><time>2026-04-06T09:02:46Z</time></trkpt><trkpt lat="45.314332809821416" lon="9.669805096019523"><ele>72.0</ele><time>2026-04-06T09:02:47Z</time></trkpt><trkpt lat="45.31421975052544" lon="9.669842704424008"><ele>72.0</ele><time>2026-04-06T09:02:48Z</time></trkpt><trkpt lat="45.31411620651056" lon="9.669855391895744"><ele>72.0</ele><time>2026-04-06T09:02:49Z</time></trkpt><trkpt lat="45.31402573790222" lon="9.669882950712314"><ele>72.0</ele><time>2026-04-06T09:02:50Z</time></trkpt><trkpt lat="45.31392041428112" lon="9.669915034718397"><ele>72.25</ele><time>2026-04-06T09:02:51Z</time></trkpt><trkpt lat="45.31379803585441" lon="9.66995231400072"><ele>72.5</ele><time>2026-04-06T09:02:52Z</time></trkpt><trkpt lat="45.313648106980956" lon="9.669997985790296"><ele>72.75</ele><time>2026-04-06T09:02:53Z</time></trkpt><trkpt lat="45.31348921777685" lon="9.670044656322029"><ele>73.0</ele><time>2026-04-06T09:02:54Z</time></trkpt><trkpt lat="45.31335411173373" lon="9.670082523166048"><ele>73.0</ele><time>2026-04-06T09:02:55Z</time></trkpt><trkpt lat="45.313219645120796" lon="9.67014165534591"><ele>73.0</ele><time>2026-04-06T09:02:56Z</time></trkpt><trkpt lat="45.31307494450579" lon="9.670196995251235"><ele>73.0</ele><time>2026-04-06T09:02:57Z</time></trkpt><trkpt lat="45.312922757548904" lon="9.670249990216847"><ele>73.0</ele><time>2026-04-06T09:02:58Z</time></trkpt><trkpt lat="45.31275677190337" lon="9.670307219214154"><ele>72.66666666666666</ele><time>2026-04-06T09:02:59Z</time></trkpt><trkpt lat="45.312595393809914" lon="9.670374939551415"><ele>72.33333333333333</ele><time>2026-04-06T09:03:00Z</time></trkpt><trkpt lat="45.31243976520872" lon="9.67040342148891"><ele>72.0</ele><time>2026-04-06T09:03:01Z</time></trkpt><trkpt lat="45.31229219422558" lon="9.670453195170305"><ele>71.33333333333333</ele><time>2026-04-06T09:03:02Z</time></trkpt><trkpt lat="45.31213842164537" lon="9.670526889994884"><ele>70.66666666666666</ele><time>2026-04-06T09:03:03Z</time></trkpt><trkpt lat="45.311974481461554" lon="9.670575761330023"><ele>70.0</ele><time>2026-04-06T09:03:04Z</time></trkpt><trkpt lat="45.31181624631881" lon="9.670632152658309"><ele>70.0</ele><time>2026-04-06T09:03:05Z</time></trkpt><trkpt lat="45.31165205374906" lon="9.67068456255305"><ele>70.0</ele><time>2026-04-06T09:03:06Z</time></trkpt><trkpt lat="45.31147230115798" lon="9.670736772780197"><ele>70.0</ele><time>2026-04-06T09:03:07Z</time></trkpt><trkpt lat="45.31128493885189" lon="9.670790355350086"><ele>70.0</ele><time>2026-04-06T09:03:08Z</time></trkpt><trkpt lat="45.31110678803673" lon="9.670841303577959"><ele>70.0</ele><time>2026-04-06T09:03:09Z</time></trkpt><trkpt lat="45.31093584783227" lon="9.670891332675652"><ele>70.0</ele><time>2026-04-06T09:03:10Z</time></trkpt><trkpt lat="45.31076921974334" lon="9.67094020390676"><ele>70.0</ele><time>2026-04-06T09:03:11Z</time></trkpt><trkpt lat="45.31060731610494" lon="9.67098768947331"><ele>70.0</ele><time>2026-04-06T09:03:12Z</time></trkpt><trkpt lat="45.310447296916706" lon="9.671034624313446"><ele>70.0</ele><time>2026-04-06T09:03:13Z</time></trkpt><trkpt lat="45.31029708411128" lon="9.671079458699136"><ele>70.0</ele><time>2026-04-06T09:03:14Z</time></trkpt><trkpt lat="45.31015084815614" lon="9.671129123299197"><ele>70.0</ele><time>2026-04-06T09:03:15Z</time></trkpt><trkpt lat="45.31000531780328" lon="9.671179633120516"><ele>70.0</ele><time>2026-04-06T09:03:16Z</time></trkpt><trkpt lat="45.30985625339866" lon="9.671247708550418"><ele>70.25</ele><time>2026-04-06T09:03:17Z</time></trkpt><trkpt lat="45.30971432992602" lon="9.671275341627615"><ele>70.5</ele><time>2026-04-06T09:03:18Z</time></trkpt><trkpt lat="45.30958573501669" lon="9.671315666347152"><ele>70.75</ele><time>2026-04-06T09:03:19Z</time></trkpt><trkpt lat="45.30947136693676" lon="9.671350475736007"><ele>71.0</ele><time>2026-04-06T09:03:20Z</time></trkpt><trkpt lat="45.30934808924159" lon="9.671399625332166"><ele>71.0</ele><time>2026-04-06T09:03:21Z</time></trkpt><trkpt lat="45.3092166249087" lon="9.671436706817447"><ele>71.0</ele><time>2026-04-06T09:03:22Z</time></trkpt><trkpt lat="45.309073200911136" lon="9.671453095135575"><ele>71.0</ele><time>2026-04-06T09:03:23Z</time></trkpt><trkpt lat="45.30894617596762" lon="9.67147456655868"><ele>71.0</ele><time>2026-04-06T09:03:24Z</time></trkpt><trkpt lat="45.308830376150354" lon="9.671482768795622"><ele>70.8</ele><time>2026-04-06T09:03:25Z</time></trkpt><trkpt lat="45.30870041254498" lon="9.67148312386242"><ele>70.6</ele><time>2026-04-06T09:03:26Z</time></trkpt><trkpt lat="45.30857751869856" lon="9.671477190176113"><ele>70.4</ele><time>2026-04-06T09:03:27Z</time></trkpt><trkpt lat="45.308476497874146" lon="9.671468280935773"><ele>70.2</ele><time>2026-04-06T09:03:28Z</time></trkpt><trkpt lat="45.308382549371025" lon="9.671465907235488"><ele>70.0</ele><time>2026-04-06T09:03:29Z</time></trkpt><trkpt lat="45.308313028009636" lon="9.67139710915761"><ele>70.0</ele><time>2026-04-06T09:03:30Z</time></trkpt><trkpt lat="45.308227111427264" lon="9.671335542462865"><ele>70.0</ele><time>2026-04-06T09:03:31Z</time></trkpt><trkpt lat="45.3081459464348" lon="9.671290183708122"><ele>70.0</ele><time>2026-04-06T09:03:32Z</time></trkpt><trkpt lat="45.30804787198979" lon="9.671272643046759"><ele>70.0</ele><time>2026-04-06T09:03:33Z</time></trkpt><trkpt lat="45.307939388705556" lon="9.671296975115835"><ele>70.0</ele><time>2026-04-06T09:03:34Z</time></trkpt><trkpt lat="45.307800735979676" lon="9.67129521144169"><ele>70.0</ele><time>2026-04-06T09:03:35Z</time></trkpt><trkpt lat="45.30766304846142" lon="9.671309685906154"><ele>70.0</ele><time>2026-04-06T09:03:36Z</time></trkpt><trkpt lat="45.30750903333766" lon="9.671325876815567"><ele>70.0</ele><time>2026-04-06T09:03:37Z</time></trkpt><trkpt lat="45.307351434093654" lon="9.671342312080887"><ele>69.33333333333333</ele><time>2026-04-06T09:03:38Z</time></trkpt><trkpt lat="45.30718595992904" lon="9.671357752115465"><ele>68.66666666666667</ele><time>2026-04-06T09:03:39Z</time></trkpt><trkpt lat="45.30701225871988" lon="9.671373959774733"><ele>68.0</ele><time>2026-04-06T09:03:40Z</time></trkpt><trkpt lat="45.306853273285" lon="9.671389333085378"><ele>68.0</ele><time>2026-04-06T09:03:41Z</time></trkpt><trkpt lat="45.306689978929235" lon="9.671405520733797"><ele>68.0</ele><time>2026-04-06T09:03:42Z</time></trkpt><trkpt lat="45.30652859998285" lon="9.67142151852458"><ele>68.0</ele><time>2026-04-06T09:03:43Z</time></trkpt><trkpt lat="45.30635598927134" lon="9.67143862973196"><ele>68.0</ele><time>2026-04-06T09:03:44Z</time></trkpt><trkpt lat="45.30621108995656" lon="9.671475710715537"><ele>68.0</ele><time>2026-04-06T09:03:45Z</time></trkpt><trkpt lat="45.30606159730521" lon="9.671466383036542"><ele>68.0</ele><time>2026-04-06T09:03:46Z</time></trkpt><trkpt lat="45.305900628529756" lon="9.671480295909776"><ele>68.0</ele><time>2026-04-06T09:03:47Z</time></trkpt><trkpt lat="45.30573387878711" lon="9.671493948009884"><ele>68.0</ele><time>2026-04-06T09:03:48Z</time></trkpt><trkpt lat="45.305578738229826" lon="9.671505619266993"><ele>68.0</ele><time>2026-04-06T09:03:49Z</time></trkpt><trkpt lat="45.30543301452951" lon="9.671516582079036"><ele>67.75</ele><time>2026-04-06T09:03:50Z</time></trkpt><trkpt lat="45.30529875309084" lon="9.671530013242783"><ele>67.5</ele><time>2026-04-06T09:03:51Z</time></trkpt><trkpt lat="45.305175579508756" lon="9.671549033808743"><ele>67.25</ele><time>2026-04-06T09:03:52Z</time></trkpt><trkpt lat="45.305020950458555" lon="9.67156578425753"><ele>67.0</ele><time>2026-04-06T09:03:53Z</time></trkpt><trkpt lat="45.30487600759381" lon="9.671581485380012"><ele>67.0</ele><time>2026-04-06T09:03:54Z</time></trkpt><trkpt lat="45.304736805680356" lon="9.671596564633285"><ele>67.0</ele><time>2026-04-06T09:03:55Z</time></trkpt><trkpt lat="45.30458953976228" lon="9.67161251742764"><ele>67.0</ele><time>2026-04-06T09:03:56Z</time></trkpt><trkpt lat="45.30442172273786" lon="9.671626958788124"><ele>67.0</ele><time>2026-04-06T09:03:57Z</time></trkpt><trkpt lat="45.30426509304641" lon="9.671640224108364"><ele>67.0</ele><time>2026-04-06T09:03:58Z</time></trkpt><trkpt lat="45.30409093705944" lon="9.671654973768014"><ele>67.0</ele><time>2026-04-06T09:03:59Z</time></trkpt><trkpt lat="45.303920635181385" lon="9.671669397026085"><ele>67.0</ele><time>2026-04-06T09:04:00Z</time></trkpt><trkpt lat="45.30378335399544" lon="9.671681579050755"><ele>67.0</ele><time>2026-04-06T09:04:01Z</time></trkpt><trkpt lat="45.30364455126066" lon="9.671695466240152"><ele>67.0</ele><time>2026-04-06T09:04:02Z</time></trkpt><trkpt lat="45.30354577796166" lon="9.671709401743623"><ele>67.0</ele><time>2026-04-06T09:04:03Z</time></trkpt><trkpt lat="45.30345442478423" lon="9.671732807132432"><ele>67.0</ele><time>2026-04-06T09:04:04Z</time></trkpt><trkpt lat="45.30337058000501" lon="9.671792112556854"><ele>67.0</ele><time>2026-04-06T09:04:05Z</time></trkpt><trkpt lat="45.30329098874383" lon="9.671834930085614"><ele>67.0</ele><time>2026-04-06T09:04:06Z</time></trkpt><trkpt lat="45.303197149674595" lon="9.671871734111395"><ele>67.0</ele><time>2026-04-06T09:04:07Z</time></trkpt><trkpt lat="45.30310705988646" lon="9.671917059992987"><ele>67.0</ele><time>2026-04-06T09:04:08Z</time></trkpt><trkpt lat="45.30301555155728" lon="9.67193606762276"><ele>66.75</ele><time>2026-04-06T09:04:09Z</time></trkpt><trkpt lat="45.30289658413944" lon="9.671938897910975"><ele>66.5</ele><time>2026-04-06T09:04:10Z</time></trkpt><trkpt lat="45.302744412678706" lon="9.67194062640409"><ele>66.25</ele><time>2026-04-06T09:04:11Z</time></trkpt><trkpt lat="45.3025963620536" lon="9.671938009569008"><ele>66.0</ele><time>2026-04-06T09:04:12Z</time></trkpt><trkpt lat="45.30245671167912" lon="9.671932851480713"><ele>66.0</ele><time>2026-04-06T09:04:13Z</time></trkpt><trkpt lat="45.302328964038054" lon="9.671925449519486"><ele>66.0</ele><time>2026-04-06T09:04:14Z</time></trkpt><trkpt lat="45.30221417368862" lon="9.67191873137029"><ele>66.0</ele><time>2026-04-06T09:04:15Z</time></trkpt><trkpt lat="45.302110421341304" lon="9.671912659229115"><ele>66.0</ele><time>2026-04-06T09:04:16Z</time></trkpt><trkpt lat="45.30200951865841" lon="9.671928818770292"><ele>66.0</ele><time>2026-04-06T09:04:17Z</time></trkpt><trkpt lat="45.30192537791554" lon="9.67191281380443"><ele>66.0</ele><time>2026-04-06T09:04:18Z</time></trkpt><trkpt lat="45.301833454841756" lon="9.671878682067748"><ele>66.0</ele><time>2026-04-06T09:04:19Z</time></trkpt><trkpt lat="45.30171747002627" lon="9.671831626912676"><ele>66.0</ele><time>2026-04-06T09:04:20Z</time></trkpt><trkpt lat="45.30160417362286" lon="9.671798941696022"><ele>66.0</ele><time>2026-04-06T09:04:21Z</time></trkpt><trkpt lat="45.301485481608694" lon="9.671731910546104"><ele>65.75</ele><time>2026-04-06T09:04:22Z</time></trkpt><trkpt lat="45.301352044198495" lon="9.671662686797644"><ele>65.5</ele><time>2026-04-06T09:04:23Z</time></trkpt><trkpt lat="45.301227524251814" lon="9.671608076597094"><ele>65.25</ele><time>2026-04-06T09:04:24Z</time></trkpt><trkpt lat="45.30110891754204" lon="9.671577438557865"><ele>65.0</ele><time>2026-04-06T09:04:25Z</time></trkpt><trkpt lat="45.301002381371596" lon="9.67156044875117"><ele>65.0</ele><time>2026-04-06T09:04:26Z</time></trkpt><trkpt lat="45.30089427556595" lon="9.671549068989199"><ele>65.0</ele><time>2026-04-06T09:04:27Z</time></trkpt><trkpt lat="45.30077795385108" lon="9.671508419801215"><ele>65.0</ele><time>2026-04-06T09:04:28Z</time></trkpt><trkpt lat="45.30065440675405" lon="9.671502870199406"><ele>65.0</ele><time>2026-04-06T09:04:29Z</time></trkpt><trkpt lat="45.300549172586884" lon="9.671463456992647"><ele>65.4</ele><time>2026-04-06T09:04:30Z</time></trkpt><trkpt lat="45.30044719446434" lon="9.671419124863444"><ele>65.8</ele><time>2026-04-06T09:04:31Z</time></trkpt><trkpt lat="45.300345590741685" lon="9.671372478026305"><ele>66.2</ele><time>2026-04-06T09:04:32Z</time></trkpt><trkpt lat="45.30024604104757" lon="9.67132026045331"><ele>66.6</ele><time>2026-04-06T09:04:33Z</time></trkpt><trkpt lat="45.300155900740414" lon="9.67126393690522"><ele>67.0</ele><time>2026-04-06T09:04:34Z</time></trkpt><trkpt lat="45.30006505017476" lon="9.671178145971583"><ele>67.25</ele><time>2026-04-06T09:04:35Z</time></trkpt><trkpt lat="45.299963433235156" lon="9.671078949820542"><ele>67.5</ele><time>2026-04-06T09:04:36Z</time></trkpt><trkpt lat="45.299865753816384" lon="9.67093277461137"><ele>67.75</ele><time>2026-04-06T09:04:37Z</time></trkpt><trkpt lat="45.299753855918965" lon="9.670800037373029"><ele>68.0</ele><time>2026-04-06T09:04:38Z</time></trkpt><trkpt lat="45.29966013074752" lon="9.670689570993437"><ele>68.0</ele><time>2026-04-06T09:04:39Z</time></trkpt><trkpt lat="45.29955895744674" lon="9.670576387940052"><ele>68.0</ele><time>2026-04-06T09:04:40Z</time></trkpt><trkpt lat="45.29942969036337" lon="9.670462136248254"><ele>68.0</ele><time>2026-04-06T09:04:41Z</time></trkpt><trkpt lat="45.29932099067412" lon="9.670322823065174"><ele>68.0</ele><time>2026-04-06T09:04:42Z</time></trkpt><trkpt lat="45.29921694673289" lon="9.670224267806267"><ele>68.0</ele><time>2026-04-06T09:04:43Z</time></trkpt><trkpt lat="45.29909797576134" lon="9.670120662705227"><ele>68.0</ele><time>2026-04-06T09:04:44Z</time></trkpt><trkpt lat="45.298964848217274" lon="9.670004438143765"><ele>68.0</ele><time>2026-04-06T09:04:45Z</time></trkpt><trkpt lat="45.298834484967095" lon="9.66988958093265"><ele>68.0</ele><time>2026-04-06T09:04:46Z</time></trkpt><trkpt lat="45.29871373998391" lon="9.669786371925143"><ele>67.5</ele><time>2026-04-06T09:04:47Z</time></trkpt><trkpt lat="45.298596400867915" lon="9.66969252777923"><ele>67.0</ele><time>2026-04-06T09:04:48Z</time></trkpt><trkpt lat="45.29848303779577" lon="9.669614183121984"><ele>66.5</ele><time>2026-04-06T09:04:49Z</time></trkpt><trkpt lat="45.2983843219247" lon="9.669553893487013"><ele>66.0</ele><time>2026-04-06T09:04:50Z</time></trkpt><trkpt lat="45.298288285945404" lon="9.669498409105207"><ele>66.0</ele><time>2026-04-06T09:04:51Z</time></trkpt><trkpt lat="45.29819590787011" lon="9.669452385086261"><ele>66.0</ele><time>2026-04-06T09:04:52Z</time></trkpt><trkpt lat="45.298106312593454" lon="9.669437681919705"><ele>66.0</ele><time>2026-04-06T09:04:53Z</time></trkpt><trkpt lat="45.298037542945835" lon="9.669393336903521"><ele>66.0</ele><time>2026-04-06T09:04:54Z</time></trkpt><trkpt lat="45.297958447479516" lon="9.66936070025596"><ele>66.0</ele><time>2026-04-06T09:04:55Z</time></trkpt><trkpt lat="45.29789270546757" lon="9.669330563432242"><ele>66.0</ele><time>2026-04-06T09:04:56Z</time></trkpt><trkpt lat="45.297826809289624" lon="9.66929332272781"><ele>66.2</ele><time>2026-04-06T09:04:57Z</time></trkpt><trkpt lat="45.29776266182295" lon="9.669270547542476"><ele>66.39999999999999</ele><time>2026-04-06T09:04:58Z</time></trkpt><trkpt lat="45.29771710679787" lon="9.669196238821069"><ele>66.6</ele><time>2026-04-06T09:04:59Z</time></trkpt><trkpt lat="45.297740490547014" lon="9.669010692212547"><ele>66.8</ele><time>2026-04-06T09:05:00Z</time></trkpt><trkpt lat="45.297720077167654" lon="9.6688412609102"><ele>67.0</ele><time>2026-04-06T09:05:01Z</time></trkpt><trkpt lat="45.29770508432543" lon="9.668689446797481"><ele>66.8</ele><time>2026-04-06T09:05:02Z</time></trkpt><trkpt lat="45.29768906722198" lon="9.668528691692304"><ele>66.6</ele><time>2026-04-06T09:05:03Z</time></trkpt><trkpt lat="45.297668328772176" lon="9.668364305167191"><ele>66.39999999999999</ele><time>2026-04-06T09:05:04Z</time></trkpt><trkpt lat="45.297646457965655" lon="9.668221131615175"><ele>66.2</ele><time>2026-04-06T09:05:05Z</time></trkpt><trkpt lat="45.29762480304047" lon="9.668111005156343"><ele>66.0</ele><time>2026-04-06T09:05:06Z</time></trkpt><trkpt lat="45.29759947971265" lon="9.668022334984213"><ele>66.0</ele><time>2026-04-06T09:05:07Z</time></trkpt><trkpt lat="45.2975651440831" lon="9.667925533220684"><ele>66.0</ele><time>2026-04-06T09:05:09Z</time></trkpt><trkpt lat="45.29751595093084" lon="9.66782140049487"><ele>66.0</ele><time>2026-04-06T09:05:15Z</time></trkpt><trkpt lat="45.29748628358933" lon="9.667704606521799"><ele>66.0</ele><time>2026-04-06T09:05:16Z</time></trkpt><trkpt lat="45.29743482669481" lon="9.667570512832508"><ele>66.0</ele><time>2026-04-06T09:05:17Z</time></trkpt><trkpt lat="45.29737446510919" lon="9.667424737163058"><ele>66.25</ele><time>2026-04-06T09:05:18Z</time></trkpt><trkpt lat="45.29732638705564" lon="9.667272805882474"><ele>66.5</ele><time>2026-04-06T09:05:19Z</time></trkpt><trkpt lat="45.297281475941176" lon="9.667116964961425"><ele>66.75</ele><time>2026-04-06T09:05:20Z</time></trkpt><trkpt lat="45.29723323771731" lon="9.666960382484952"><ele>67.0</ele><time>2026-04-06T09:05:21Z</time></trkpt><trkpt lat="45.29717244918302" lon="9.666801379601216"><ele>67.5</ele><time>2026-04-06T09:05:22Z</time></trkpt><trkpt lat="45.29710380856615" lon="9.666641239570016"><ele>68.0</ele><time>2026-04-06T09:05:23Z</time></trkpt><trkpt lat="45.29705676237047" lon="9.666485992577197"><ele>68.5</ele><time>2026-04-06T09:05:24Z</time></trkpt><trkpt lat="45.29698532174484" lon="9.666365566966027"><ele>69.0</ele><time>2026-04-06T09:05:25Z</time></trkpt><trkpt lat="45.29693228986984" lon="9.666240615980808"><ele>69.2</ele><time>2026-04-06T09:05:26Z</time></trkpt><trkpt lat="45.296876914588836" lon="9.66609563797932"><ele>69.4</ele><time>2026-04-06T09:05:27Z</time></trkpt><trkpt lat="45.29684561651066" lon="9.665941415568819"><ele>69.6</ele><time>2026-04-06T09:05:28Z</time></trkpt><trkpt lat="45.29681000291905" lon="9.665793492074224"><ele>69.8</ele><time>2026-04-06T09:05:29Z</time></trkpt><trkpt lat="45.296770459692944" lon="9.66565078301793"><ele>70.0</ele><time>2026-04-06T09:05:30Z</time></trkpt><trkpt lat="45.29674586816299" lon="9.665513255476407"><ele>70.0</ele><time>2026-04-06T09:05:31Z</time></trkpt><trkpt lat="45.29672419978488" lon="9.665393616377566"><ele>70.0</ele><time>2026-04-06T09:05:32Z</time></trkpt><trkpt lat="45.29670480677213" lon="9.66527485338096"><ele>70.0</ele><time>2026-04-06T09:05:33Z</time></trkpt><trkpt lat="45.296681804694394" lon="9.665174525327405"><ele>70.0</ele><time>2026-04-06T09:05:34Z</time></trkpt><trkpt lat="45.29664029383686" lon="9.665089532583968"><ele>70.0</ele><time>2026-04-06T09:05:35Z</time></trkpt><trkpt lat="45.29657849112709" lon="9.66504158495846"><ele>70.0</ele><time>2026-04-06T09:05:36Z</time></trkpt><trkpt lat="45.29651495408987" lon="9.665034517962054"><ele>69.6</ele><time>2026-04-06T09:05:37Z</time></trkpt><trkpt lat="45.29642514691871" lon="9.665031302481232"><ele>69.2</ele><time>2026-04-06T09:05:39Z</time></trkpt><trkpt lat="45.29637849699138" lon="9.664933948608333"><ele>68.8</ele><time>2026-04-06T09:05:41Z</time></trkpt><trkpt lat="45.29636453491101" lon="9.664840231542486"><ele>68.4</ele><time>2026-04-06T09:05:42Z</time></trkpt><trkpt lat="45.29634963280904" lon="9.664712996529826"><ele>68.0</ele><time>2026-04-06T09:05:44Z</time></trkpt><trkpt lat="45.296210186520774" lon="9.664717691607665"><ele>68.0</ele><time>2026-04-06T09:05:55Z</time></trkpt><trkpt lat="45.29612900476702" lon="9.664646461782391"><ele>68.0</ele><time>2026-04-06T09:05:57Z</time></trkpt><trkpt lat="45.296045202987706" lon="9.664630952950532"><ele>68.0</ele><time>2026-04-06T09:05:58Z</time></trkpt><trkpt lat="45.29597347640346" lon="9.664607507904085"><ele>68.0</ele><time>2026-04-06T09:05:59Z</time></trkpt><trkpt lat="45.29588384520324" lon="9.664578332521897"><ele>68.0</ele><time>2026-04-06T09:06:00Z</time></trkpt><trkpt lat="45.295792402740474" lon="9.664549724364452"><ele>68.0</ele><time>2026-04-06T09:06:01Z</time></trkpt><trkpt lat="45.29571306716737" lon="9.664528995478893"><ele>68.0</ele><time>2026-04-06T09:06:02Z</time></trkpt><trkpt lat="45.29562831766575" lon="9.664501435178401"><ele>68.0</ele><time>2026-04-06T09:06:03Z</time></trkpt><trkpt lat="45.29554585760356" lon="9.664466930554951"><ele>68.0</ele><time>2026-04-06T09:06:04Z</time></trkpt><trkpt lat="45.29547213399142" lon="9.664433851131758"><ele>68.0</ele><time>2026-04-06T09:06:05Z</time></trkpt><trkpt lat="45.2953909538966" lon="9.664422713474023"><ele>68.0</ele><time>2026-04-06T09:06:06Z</time></trkpt><trkpt lat="45.295298929180674" lon="9.66443734579401"><ele>68.0</ele><time>2026-04-06T09:06:07Z</time></trkpt><trkpt lat="45.29520933109743" lon="9.664412215310232"><ele>68.16666666666667</ele><time>2026-04-06T09:06:08Z</time></trkpt><trkpt lat="45.29512376156306" lon="9.664412446603112"><ele>68.33333333333334</ele><time>2026-04-06T09:06:09Z</time></trkpt><trkpt lat="45.295047703295396" lon="9.664415650261107"><ele>68.5</ele><time>2026-04-06T09:06:10Z</time></trkpt><trkpt lat="45.29498710359661" lon="9.664452945095142"><ele>68.66666666666667</ele><time>2026-04-06T09:06:11Z</time></trkpt><trkpt lat="45.294922921032885" lon="9.664469361950966"><ele>68.83333333333333</ele><time>2026-04-06T09:06:12Z</time></trkpt><trkpt lat="45.29484544929194" lon="9.66447818212733"><ele>69.0</ele><time>2026-04-06T09:06:13Z</time></trkpt><trkpt lat="45.29475942692125" lon="9.664489641525602"><ele>68.0</ele><time>2026-04-06T09:06:14Z</time></trkpt><trkpt lat="45.29465521149837" lon="9.664493220947532"><ele>67.0</ele><time>2026-04-06T09:06:15Z</time></trkpt><trkpt lat="45.29453471840104" lon="9.66448503466234"><ele>66.0</ele><time>2026-04-06T09:06:16Z</time></trkpt><trkpt lat="45.294415857582585" lon="9.66446170695764"><ele>65.0</ele><time>2026-04-06T09:06:17Z</time></trkpt><trkpt lat="45.29430129682172" lon="9.664436729060284"><ele>65.0</ele><time>2026-04-06T09:06:18Z</time></trkpt><trkpt lat="45.29419345322338" lon="9.664437408432189"><ele>65.0</ele><time>2026-04-06T09:06:19Z</time></trkpt><trkpt lat="45.29407343587485" lon="9.664389291067522"><ele>65.0</ele><time>2026-04-06T09:06:20Z</time></trkpt><trkpt lat="45.293931663348054" lon="9.664359188589808"><ele>65.0</ele><time>2026-04-06T09:06:21Z</time></trkpt><trkpt lat="45.29379221949638" lon="9.664327723531454"><ele>64.5</ele><time>2026-04-06T09:06:22Z</time></trkpt><trkpt lat="45.29366179031991" lon="9.664310740587723"><ele>64.0</ele><time>2026-04-06T09:06:23Z</time></trkpt><trkpt lat="45.29354684624013" lon="9.664256687850909"><ele>63.5</ele><time>2026-04-06T09:06:24Z</time></trkpt><trkpt lat="45.29343960772497" lon="9.664233343820605"><ele>63.0</ele><time>2026-04-06T09:06:25Z</time></trkpt><trkpt lat="45.29334625765646" lon="9.664247186917976"><ele>63.0</ele><time>2026-04-06T09:06:26Z</time></trkpt><trkpt lat="45.29326398967102" lon="9.664249795973964"><ele>63.0</ele><time>2026-04-06T09:06:27Z</time></trkpt><trkpt lat="45.29318636132646" lon="9.66427139214684"><ele>63.0</ele><time>2026-04-06T09:06:28Z</time></trkpt><trkpt lat="45.29309202407771" lon="9.664293026214311"><ele>63.0</ele><time>2026-04-06T09:06:29Z</time></trkpt><trkpt lat="45.29299893389081" lon="9.664347481255433"><ele>63.0</ele><time>2026-04-06T09:06:30Z</time></trkpt><trkpt lat="45.292899192383395" lon="9.664412776707886"><ele>61.75</ele><time>2026-04-06T09:06:31Z</time></trkpt><trkpt lat="45.292772964789656" lon="9.664499312276778"><ele>60.5</ele><time>2026-04-06T09:06:32Z</time></trkpt><trkpt lat="45.29266046002757" lon="9.664570008790774"><ele>59.25</ele><time>2026-04-06T09:06:33Z</time></trkpt><trkpt lat="45.292559223074385" lon="9.664646158692792"><ele>58.0</ele><time>2026-04-06T09:06:34Z</time></trkpt><trkpt lat="45.29246981066589" lon="9.664713350882163"><ele>58.0</ele><time>2026-04-06T09:06:35Z</time></trkpt><trkpt lat="45.29238095211702" lon="9.66478012067069"><ele>58.0</ele><time>2026-04-06T09:06:36Z</time></trkpt><trkpt lat="45.292286052695985" lon="9.664834135555159"><ele>58.0</ele><time>2026-04-06T09:06:37Z</time></trkpt><trkpt lat="45.292170979220586" lon="9.664863729825521"><ele>58.0</ele><time>2026-04-06T09:06:38Z</time></trkpt><trkpt lat="45.292069426112946" lon="9.66492577378612"><ele>58.0</ele><time>2026-04-06T09:06:39Z</time></trkpt><trkpt lat="45.29196167377813" lon="9.664963487297213"><ele>57.4</ele><time>2026-04-06T09:06:40Z</time></trkpt><trkpt lat="45.29186071289801" lon="9.664973751476422"><ele>56.8</ele><time>2026-04-06T09:06:41Z</time></trkpt><trkpt lat="45.29178254340418" lon="9.664993248118279"><ele>56.2</ele><time>2026-04-06T09:06:42Z</time></trkpt><trkpt lat="45.2916818712468" lon="9.66500514395189"><ele>55.6</ele><time>2026-04-06T09:06:44Z</time></trkpt><trkpt lat="45.29161372727927" lon="9.664993339034025"><ele>55.0</ele><time>2026-04-06T09:06:47Z</time></trkpt><trkpt lat="45.291549281192374" lon="9.66488091523775"><ele>54.99999999999999</ele><time>2026-04-06T09:06:55Z</time></trkpt><trkpt lat="45.29151831575388" lon="9.664715506385527"><ele>55.0</ele><time>2026-04-06T09:06:57Z</time></trkpt><trkpt lat="45.29150670817626" lon="9.664619051352902"><ele>55.0</ele><time>2026-04-06T09:06:58Z</time></trkpt><trkpt lat="45.29149228336119" lon="9.66449726526339"><ele>55.0</ele><time>2026-04-06T09:06:59Z</time></trkpt><trkpt lat="45.2914845619657" lon="9.664375633980836"><ele>54.99999999999999</ele><time>2026-04-06T09:07:00Z</time></trkpt><trkpt lat="45.29147962744282" lon="9.664276290421826"><ele>55.0</ele><time>2026-04-06T09:07:01Z</time></trkpt><trkpt lat="45.29145738121551" lon="9.664086709584225"><ele>55.0</ele><time>2026-04-06T09:07:03Z</time></trkpt><trkpt lat="45.29143314311667" lon="9.663977783435259"><ele>55.0</ele><time>2026-04-06T09:07:04Z</time></trkpt><trkpt lat="45.29140161705175" lon="9.663880466945022"><ele>55.0</ele><time>2026-04-06T09:07:05Z</time></trkpt><trkpt lat="45.29130938618067" lon="9.663746740713172"><ele>55.0</ele><time>2026-04-06T09:07:07Z</time></trkpt><trkpt lat="45.291257854892365" lon="9.66360635753969"><ele>55.0</ele><time>2026-04-06T09:07:09Z</time></trkpt><trkpt lat="45.29104818789046" lon="9.663623170303824"><ele>55.0</ele><time>2026-04-06T09:07:11Z</time></trkpt><trkpt lat="45.29093502262982" lon="9.66360408599803"><ele>55.0</ele><time>2026-04-06T09:07:12Z</time></trkpt><trkpt lat="45.29082527559568" lon="9.663577621286725"><ele>55.0</ele><time>2026-04-06T09:07:13Z</time></trkpt><trkpt lat="45.29071009441202" lon="9.663526181007292"><ele>55.0</ele><time>2026-04-06T09:07:14Z</time></trkpt><trkpt lat="45.290608012628496" lon="9.663474430942381"><ele>54.75</ele><time>2026-04-06T09:07:15Z</time></trkpt><trkpt lat="45.29051529707811" lon="9.66341714313109"><ele>54.5</ele><time>2026-04-06T09:07:16Z</time></trkpt><trkpt lat="45.290413143442464" lon="9.663348258003852"><ele>54.25</ele><time>2026-04-06T09:07:17Z</time></trkpt><trkpt lat="45.29029337621806" lon="9.663277367865353"><ele>54.0</ele><time>2026-04-06T09:07:18Z</time></trkpt><trkpt lat="45.29016676257093" lon="9.66320065600915"><ele>54.0</ele><time>2026-04-06T09:07:19Z</time></trkpt><trkpt lat="45.290032658923884" lon="9.66313324955875"><ele>54.0</ele><time>2026-04-06T09:07:20Z</time></trkpt><trkpt lat="45.289920158955184" lon="9.663070981029827"><ele>54.0</ele><time>2026-04-06T09:07:21Z</time></trkpt><trkpt lat="45.289816883512124" lon="9.663016700439933"><ele>54.0</ele><time>2026-04-06T09:07:22Z</time></trkpt><trkpt lat="45.28971703168582" lon="9.662960679968705"><ele>54.25</ele><time>2026-04-06T09:07:23Z</time></trkpt><trkpt lat="45.289618721950475" lon="9.662928824793518"><ele>54.5</ele><time>2026-04-06T09:07:24Z</time></trkpt><trkpt lat="45.289522915134846" lon="9.66290551351305"><ele>54.75</ele><time>2026-04-06T09:07:25Z</time></trkpt><trkpt lat="45.28939800349336" lon="9.662896227236017"><ele>55.0</ele><time>2026-04-06T09:07:26Z</time></trkpt><trkpt lat="45.289267889829475" lon="9.662909395419309"><ele>55.0</ele><time>2026-04-06T09:07:27Z</time></trkpt><trkpt lat="45.289138752134036" lon="9.662906418673161"><ele>55.0</ele><time>2026-04-06T09:07:28Z</time></trkpt><trkpt lat="45.288992249337895" lon="9.662878514344497"><ele>55.0</ele><time>2026-04-06T09:07:29Z</time></trkpt><trkpt lat="45.28884859602769" lon="9.662840907015175"><ele>55.0</ele><time>2026-04-06T09:07:30Z</time></trkpt><trkpt lat="45.28872308110373" lon="9.662806033154785"><ele>55.0</ele><time>2026-04-06T09:07:31Z</time></trkpt><trkpt lat="45.28858425873448" lon="9.662794865603775"><ele>55.0</ele><time>2026-04-06T09:07:32Z</time></trkpt><trkpt lat="45.288432142977555" lon="9.662777215707969"><ele>55.0</ele><time>2026-04-06T09:07:33Z</time></trkpt><trkpt lat="45.28829550083504" lon="9.66276925864267"><ele>55.0</ele><time>2026-04-06T09:07:34Z</time></trkpt><trkpt lat="45.28816861436817" lon="9.662764582775122"><ele>55.0</ele><time>2026-04-06T09:07:35Z</time></trkpt><trkpt lat="45.28802438998446" lon="9.662770575072528"><ele>55.0</ele><time>2026-04-06T09:07:36Z</time></trkpt><trkpt lat="45.28787319034823" lon="9.662799791319253"><ele>55.0</ele><time>2026-04-06T09:07:37Z</time></trkpt><trkpt lat="45.287747055731906" lon="9.662833111444376"><ele>55.0</ele><time>2026-04-06T09:07:38Z</time></trkpt><trkpt lat="45.28760768755623" lon="9.662877734310307"><ele>54.666666666666664</ele><time>2026-04-06T09:07:39Z</time></trkpt><trkpt lat="45.287446514040035" lon="9.662925523280325"><ele>54.33333333333333</ele><time>2026-04-06T09:07:40Z</time></trkpt><trkpt lat="45.287293625292335" lon="9.662976996087028"><ele>54.0</ele><time>2026-04-06T09:07:41Z</time></trkpt><trkpt lat="45.287130016266936" lon="9.66302183338184"><ele>53.33333333333333</ele><time>2026-04-06T09:07:42Z</time></trkpt><trkpt lat="45.28696901762803" lon="9.663050108045217"><ele>52.666666666666664</ele><time>2026-04-06T09:07:43Z</time></trkpt><trkpt lat="45.28681969722771" lon="9.663080411439484"><ele>52.0</ele><time>2026-04-06T09:07:44Z</time></trkpt><trkpt lat="45.286668849605775" lon="9.663122487103752"><ele>52.0</ele><time>2026-04-06T09:07:45Z</time></trkpt><trkpt lat="45.286534540815104" lon="9.663164108769147"><ele>52.0</ele><time>2026-04-06T09:07:46Z</time></trkpt><trkpt lat="45.2863792207373" lon="9.663219648599002"><ele>52.0</ele><time>2026-04-06T09:07:47Z</time></trkpt><trkpt lat="45.28623778294184" lon="9.663274573182388"><ele>52.0</ele><time>2026-04-06T09:07:48Z</time></trkpt><trkpt lat="45.28608802739566" lon="9.663325865510458"><ele>52.666666666666664</ele><time>2026-04-06T09:07:49Z</time></trkpt><trkpt lat="45.285918000008145" lon="9.663369702006484"><ele>53.33333333333333</ele><time>2026-04-06T09:07:50Z</time></trkpt><trkpt lat="45.28574402995671" lon="9.663412758086222"><ele>54.0</ele><time>2026-04-06T09:07:51Z</time></trkpt><trkpt lat="45.28559707912325" lon="9.663450205320885"><ele>54.0</ele><time>2026-04-06T09:07:52Z</time></trkpt><trkpt lat="45.285481513071986" lon="9.663485816397943"><ele>54.00000000000001</ele><time>2026-04-06T09:07:53Z</time></trkpt><trkpt lat="45.285392974976894" lon="9.663506297806482"><ele>54.00000000000001</ele><time>2026-04-06T09:07:54Z</time></trkpt><trkpt lat="45.28532718100764" lon="9.663507736038508"><ele>54.0</ele><time>2026-04-06T09:07:55Z</time></trkpt><trkpt lat="45.285214431035904" lon="9.663435585965933"><ele>54.0</ele><time>2026-04-06T09:07:57Z</time></trkpt><trkpt lat="45.28515836984553" lon="9.663343203422002"><ele>54.0</ele><time>2026-04-06T09:07:58Z</time></trkpt><trkpt lat="45.28509060827536" lon="9.663213255621542"><ele>54.0</ele><time>2026-04-06T09:07:59Z</time></trkpt><trkpt lat="45.28500889156858" lon="9.663065269036721"><ele>54.0</ele><time>2026-04-06T09:08:00Z</time></trkpt><trkpt lat="45.28493194787421" lon="9.662953785317214"><ele>54.0</ele><time>2026-04-06T09:08:01Z</time></trkpt><trkpt lat="45.284861415800805" lon="9.662847702502601"><ele>54.0</ele><time>2026-04-06T09:08:02Z</time></trkpt><trkpt lat="45.28480760813732" lon="9.66277754574172"><ele>54.0</ele><time>2026-04-06T09:08:03Z</time></trkpt><trkpt lat="45.284673844641844" lon="9.662765705320297"><ele>54.0</ele><time>2026-04-06T09:08:05Z</time></trkpt><trkpt lat="45.284558549174925" lon="9.662789764398953"><ele>54.0</ele><time>2026-04-06T09:08:06Z</time></trkpt><trkpt lat="45.28441927616759" lon="9.662815823085097"><ele>53.5</ele><time>2026-04-06T09:08:07Z</time></trkpt><trkpt lat="45.28427671520936" lon="9.662839653891846"><ele>53.0</ele><time>2026-04-06T09:08:08Z</time></trkpt><trkpt lat="45.28413594686855" lon="9.66286768351168"><ele>52.5</ele><time>2026-04-06T09:08:09Z</time></trkpt><trkpt lat="45.284000933729544" lon="9.662901292267863"><ele>52.0</ele><time>2026-04-06T09:08:10Z</time></trkpt><trkpt lat="45.28386682534587" lon="9.662950507544728"><ele>51.5</ele><time>2026-04-06T09:08:11Z</time></trkpt><trkpt lat="45.283743960664566" lon="9.66300779218208"><ele>51.0</ele><time>2026-04-06T09:08:12Z</time></trkpt><trkpt lat="45.28363473566998" lon="9.66306034111349"><ele>50.5</ele><time>2026-04-06T09:08:13Z</time></trkpt><trkpt lat="45.283533386913014" lon="9.663090474636286"><ele>50.0</ele><time>2026-04-06T09:08:14Z</time></trkpt><trkpt lat="45.28341122146449" lon="9.663135838205442"><ele>50.0</ele><time>2026-04-06T09:08:15Z</time></trkpt><trkpt lat="45.28331119016668" lon="9.663175875509074"><ele>50.0</ele><time>2026-04-06T09:08:16Z</time></trkpt><trkpt lat="45.28319071902873" lon="9.66322402421556"><ele>50.0</ele><time>2026-04-06T09:08:17Z</time></trkpt><trkpt lat="45.28308247984754" lon="9.663273969230511"><ele>50.0</ele><time>2026-04-06T09:08:18Z</time></trkpt><trkpt lat="45.282959482280745" lon="9.663332434669712"><ele>50.25</ele><time>2026-04-06T09:08:19Z</time></trkpt><trkpt lat="45.282840794799014" lon="9.663378387997188"><ele>50.5</ele><time>2026-04-06T09:08:20Z</time></trkpt><trkpt lat="45.282708391872376" lon="9.663438484626113"><ele>50.75</ele><time>2026-04-06T09:08:21Z</time></trkpt><trkpt lat="45.28257763941035" lon="9.663498523001472"><ele>51.0</ele><time>2026-04-06T09:08:22Z</time></trkpt><trkpt lat="45.28245257283258" lon="9.663543533278038"><ele>51.0</ele><time>2026-04-06T09:08:23Z</time></trkpt><trkpt lat="45.282328189114594" lon="9.663594824155359"><ele>51.0</ele><time>2026-04-06T09:08:24Z</time></trkpt><trkpt lat="45.282212568567054" lon="9.663639600261913"><ele>51.0</ele><time>2026-04-06T09:08:25Z</time></trkpt><trkpt lat="45.282080839498796" lon="9.663686529183101"><ele>51.0</ele><time>2026-04-06T09:08:26Z</time></trkpt><trkpt lat="45.281938547588666" lon="9.663755355842993"><ele>50.75</ele><time>2026-04-06T09:08:27Z</time></trkpt><trkpt lat="45.281800817418656" lon="9.663808634191435"><ele>50.5</ele><time>2026-04-06T09:08:28Z</time></trkpt><trkpt lat="45.28166263119241" lon="9.663862786591872"><ele>50.25</ele><time>2026-04-06T09:08:29Z</time></trkpt><trkpt lat="45.281514342411036" lon="9.663927390411652"><ele>50.0</ele><time>2026-04-06T09:08:30Z</time></trkpt><trkpt lat="45.281363903586744" lon="9.663979126365822"><ele>50.0</ele><time>2026-04-06T09:08:31Z</time></trkpt><trkpt lat="45.28121732684793" lon="9.664051514401297"><ele>50.0</ele><time>2026-04-06T09:08:32Z</time></trkpt><trkpt lat="45.28106767909947" lon="9.664103062718574"><ele>50.0</ele><time>2026-04-06T09:08:33Z</time></trkpt><trkpt lat="45.28090998406769" lon="9.664164186300452"><ele>50.0</ele><time>2026-04-06T09:08:34Z</time></trkpt><trkpt lat="45.28075762528691" lon="9.664230325410161"><ele>50.0</ele><time>2026-04-06T09:08:35Z</time></trkpt><trkpt lat="45.280601372875054" lon="9.664294747190436"><ele>50.0</ele><time>2026-04-06T09:08:36Z</time></trkpt><trkpt lat="45.28046888661899" lon="9.664355132394252"><ele>50.0</ele><time>2026-04-06T09:08:37Z</time></trkpt><trkpt lat="45.28036800816351" lon="9.664389010941756"><ele>50.0</ele><time>2026-04-06T09:08:38Z</time></trkpt><trkpt lat="45.28028059027429" lon="9.664430391478845"><ele>50.0</ele><time>2026-04-06T09:08:39Z</time></trkpt><trkpt lat="45.28021059401629" lon="9.664451340371963"><ele>50.0</ele><time>2026-04-06T09:08:40Z</time></trkpt><trkpt lat="45.28014411067656" lon="9.664460072868922"><ele>50.0</ele><time>2026-04-06T09:08:45Z</time></trkpt><trkpt lat="45.28017136987705" lon="9.664629128224076"><ele>50.0</ele><time>2026-04-06T09:08:48Z</time></trkpt><trkpt lat="45.28024856745238" lon="9.664746866758357"><ele>50.0</ele><time>2026-04-06T09:08:49Z</time></trkpt><trkpt lat="45.280333175702935" lon="9.664890885208129"><ele>50.0</ele><time>2026-04-06T09:08:50Z</time></trkpt><trkpt lat="45.280401072781245" lon="9.665038417338252"><ele>50.0</ele><time>2026-04-06T09:08:51Z</time></trkpt><trkpt lat="45.28047765846584" lon="9.66519990059344"><ele>50.0</ele><time>2026-04-06T09:08:52Z</time></trkpt><trkpt lat="45.2805532437138" lon="9.665345111366765"><ele>50.0</ele><time>2026-04-06T09:08:53Z</time></trkpt><trkpt lat="45.28061745059062" lon="9.665472957079547"><ele>50.0</ele><time>2026-04-06T09:08:54Z</time></trkpt><trkpt lat="45.280668142631505" lon="9.665576948360977"><ele>50.0</ele><time>2026-04-06T09:08:55Z</time></trkpt><trkpt lat="45.28073071977969" lon="9.665680156453389"><ele>50.0</ele><time>2026-04-06T09:08:56Z</time></trkpt><trkpt lat="45.28078930181295" lon="9.665777418937543"><ele>50.0</ele><time>2026-04-06T09:08:57Z</time></trkpt><trkpt lat="45.28086562418243" lon="9.665882816665539"><ele>50.0</ele><time>2026-04-06T09:08:58Z</time></trkpt><trkpt lat="45.28095691902036" lon="9.665987486981445"><ele>50.0</ele><time>2026-04-06T09:08:59Z</time></trkpt><trkpt lat="45.28105668501875" lon="9.666076659630182"><ele>50.0</ele><time>2026-04-06T09:09:00Z</time></trkpt><trkpt lat="45.281159160124346" lon="9.666162337026961"><ele>50.2</ele><time>2026-04-06T09:09:01Z</time></trkpt><trkpt lat="45.28125378304454" lon="9.666230789444745"><ele>50.4</ele><time>2026-04-06T09:09:02Z</time></trkpt><trkpt lat="45.28133377518896" lon="9.66628777541818"><ele>50.599999999999994</ele><time>2026-04-06T09:09:03Z</time></trkpt><trkpt lat="45.281397670244374" lon="9.666323183466243"><ele>50.8</ele><time>2026-04-06T09:09:04Z</time></trkpt><trkpt lat="45.28149257618681" lon="9.666413760694285"><ele>51.0</ele><time>2026-04-06T09:09:06Z</time></trkpt><trkpt lat="45.28154812852188" lon="9.666568293188654"><ele>51.0</ele><time>2026-04-06T09:09:08Z</time></trkpt><trkpt lat="45.28154879217511" lon="9.666660563182534"><ele>51.0</ele><time>2026-04-06T09:09:09Z</time></trkpt><trkpt lat="45.28154553005118" lon="9.66676029327335"><ele>51.0</ele><time>2026-04-06T09:09:10Z</time></trkpt><trkpt lat="45.28153462633834" lon="9.66689007784828"><ele>51.0</ele><time>2026-04-06T09:09:11Z</time></trkpt><trkpt lat="45.281519986994994" lon="9.667055765793153"><ele>51.0</ele><time>2026-04-06T09:09:12Z</time></trkpt><trkpt lat="45.281508578516416" lon="9.667207981675626"><ele>51.199999999999996</ele><time>2026-04-06T09:09:13Z</time></trkpt><trkpt lat="45.281501679650646" lon="9.667365457626305"><ele>51.4</ele><time>2026-04-06T09:09:14Z</time></trkpt><trkpt lat="45.28149270000717" lon="9.667523158419138"><ele>51.6</ele><time>2026-04-06T09:09:15Z</time></trkpt><trkpt lat="45.28148250278688" lon="9.667667065931106"><ele>51.8</ele><time>2026-04-06T09:09:16Z</time></trkpt><trkpt lat="45.28147561246667" lon="9.667841754517813"><ele>52.0</ele><time>2026-04-06T09:09:17Z</time></trkpt><trkpt lat="45.281460246491896" lon="9.668038192050679"><ele>52.0</ele><time>2026-04-06T09:09:18Z</time></trkpt><trkpt lat="45.28145554291865" lon="9.668227954678642"><ele>52.0</ele><time>2026-04-06T09:09:19Z</time></trkpt><trkpt lat="45.28145689010532" lon="9.668406046390437"><ele>52.0</ele><time>2026-04-06T09:09:20Z</time></trkpt><trkpt lat="45.28144740115593" lon="9.668568706994249"><ele>52.0</ele><time>2026-04-06T09:09:21Z</time></trkpt><trkpt lat="45.28143983292078" lon="9.668713074083781"><ele>51.75</ele><time>2026-04-06T09:09:22Z</time></trkpt><trkpt lat="45.28143275263454" lon="9.66884473506746"><ele>51.5</ele><time>2026-04-06T09:09:23Z</time></trkpt><trkpt lat="45.28141925197699" lon="9.669014149664644"><ele>51.25</ele><time>2026-04-06T09:09:24Z</time></trkpt><trkpt lat="45.28141155924487" lon="9.669202341748088"><ele>51.0</ele><time>2026-04-06T09:09:25Z</time></trkpt><trkpt lat="45.28140008384908" lon="9.66937927690662"><ele>50.75</ele><time>2026-04-06T09:09:26Z</time></trkpt><trkpt lat="45.28139189372107" lon="9.66957277656502"><ele>50.5</ele><time>2026-04-06T09:09:27Z</time></trkpt><trkpt lat="45.28138076470553" lon="9.669752911275173"><ele>50.25</ele><time>2026-04-06T09:09:28Z</time></trkpt><trkpt lat="45.2813697196387" lon="9.669913512797267"><ele>50.0</ele><time>2026-04-06T09:09:29Z</time></trkpt><trkpt lat="45.281362924208295" lon="9.670046023292208"><ele>50.00000000000001</ele><time>2026-04-06T09:09:30Z</time></trkpt><trkpt lat="45.28136469187621" lon="9.670137185790542"><ele>50.0</ele><time>2026-04-06T09:09:31Z</time></trkpt><trkpt lat="45.28135783051627" lon="9.67023526496966"><ele>50.0</ele><time>2026-04-06T09:09:33Z</time></trkpt><trkpt lat="45.2812774488058" lon="9.670266109578785"><ele>50.0</ele><time>2026-04-06T09:09:35Z</time></trkpt><trkpt lat="45.28119931893617" lon="9.670248038659743"><ele>50.00000000000001</ele><time>2026-04-06T09:09:36Z</time></trkpt><trkpt lat="45.281104438190056" lon="9.670232013311008"><ele>50.0</ele><time>2026-04-06T09:09:37Z</time></trkpt><trkpt lat="45.28100451842817" lon="9.67022476323745"><ele>50.0</ele><time>2026-04-06T09:09:38Z</time></trkpt><trkpt lat="45.28092217381358" lon="9.670234152149675"><ele>50.0</ele><time>2026-04-06T09:09:39Z</time></trkpt><trkpt lat="45.28082863685339" lon="9.670264102556214"><ele>50.0</ele><time>2026-04-06T09:09:40Z</time></trkpt><trkpt lat="45.28073072199461" lon="9.670332567329593"><ele>50.0</ele><time>2026-04-06T09:09:41Z</time></trkpt><trkpt lat="45.28062455199645" lon="9.670429994601918"><ele>50.0</ele><time>2026-04-06T09:09:42Z</time></trkpt><trkpt lat="45.28053226827524" lon="9.67050916828182"><ele>50.2</ele><time>2026-04-06T09:09:43Z</time></trkpt><trkpt lat="45.280431269273286" lon="9.670587808517334"><ele>50.4</ele><time>2026-04-06T09:09:44Z</time></trkpt><trkpt lat="45.28034111368268" lon="9.670663774043174"><ele>50.599999999999994</ele><time>2026-04-06T09:09:45Z</time></trkpt><trkpt lat="45.280257854061205" lon="9.670731720975988"><ele>50.8</ele><time>2026-04-06T09:09:46Z</time></trkpt><trkpt lat="45.28015981337257" lon="9.670778136442808"><ele>51.0</ele><time>2026-04-06T09:09:47Z</time></trkpt><trkpt lat="45.28006196159753" lon="9.670837986377494"><ele>51.0</ele><time>2026-04-06T09:09:48Z</time></trkpt><trkpt lat="45.279978583211985" lon="9.670872714933555"><ele>51.0</ele><time>2026-04-06T09:09:49Z</time></trkpt><trkpt lat="45.27988396749128" lon="9.670924257588117"><ele>51.0</ele><time>2026-04-06T09:09:50Z</time></trkpt><trkpt lat="45.27978967025429" lon="9.670996935896161"><ele>51.0</ele><time>2026-04-06T09:09:51Z</time></trkpt><trkpt lat="45.27968730250422" lon="9.671031267031552"><ele>51.0</ele><time>2026-04-06T09:09:52Z</time></trkpt><trkpt lat="45.279589949394754" lon="9.671053955061407"><ele>51.0</ele><time>2026-04-06T09:09:53Z</time></trkpt><trkpt lat="45.279498461650086" lon="9.671102910048074"><ele>51.0</ele><time>2026-04-06T09:09:54Z</time></trkpt><trkpt lat="45.279404122713615" lon="9.671133766565575"><ele>51.0</ele><time>2026-04-06T09:09:55Z</time></trkpt><trkpt lat="45.27932747524936" lon="9.67116670383169"><ele>51.0</ele><time>2026-04-06T09:09:56Z</time></trkpt><trkpt lat="45.27925028049216" lon="9.671204717581148"><ele>51.0</ele><time>2026-04-06T09:09:57Z</time></trkpt><trkpt lat="45.279181182164024" lon="9.671245113977347"><ele>51.0</ele><time>2026-04-06T09:09:58Z</time></trkpt><trkpt lat="45.279111170665054" lon="9.671286329803289"><ele>51.166666666666664</ele><time>2026-04-06T09:09:59Z</time></trkpt><trkpt lat="45.279046090875184" lon="9.671326898508662"><ele>51.33333333333333</ele><time>2026-04-06T09:10:00Z</time></trkpt><trkpt lat="45.27898459523751" lon="9.671373479508217"><ele>51.5</ele><time>2026-04-06T09:10:01Z</time></trkpt><trkpt lat="45.278912636386316" lon="9.671393140235478"><ele>51.666666666666664</ele><time>2026-04-06T09:10:02Z</time></trkpt><trkpt lat="45.27884708384647" lon="9.671424480667127"><ele>51.83333333333333</ele><time>2026-04-06T09:10:03Z</time></trkpt><trkpt lat="45.27871743551354" lon="9.671500122820321"><ele>52.0</ele><time>2026-04-06T09:10:05Z</time></trkpt><trkpt lat="45.27864452852939" lon="9.671526531793848"><ele>52.2</ele><time>2026-04-06T09:10:06Z</time></trkpt><trkpt lat="45.27853286587406" lon="9.671590928502821"><ele>52.400000000000006</ele><time>2026-04-06T09:10:08Z</time></trkpt><trkpt lat="45.278429682456455" lon="9.671649639500234"><ele>52.599999999999994</ele><time>2026-04-06T09:10:10Z</time></trkpt><trkpt lat="45.2783167931107" lon="9.671708655348539"><ele>52.8</ele><time>2026-04-06T09:10:12Z</time></trkpt><trkpt lat="45.27825321142572" lon="9.671742210239493"><ele>53.0</ele><time>2026-04-06T09:10:13Z</time></trkpt><trkpt lat="45.27817092485361" lon="9.671784910527464"><ele>52.8</ele><time>2026-04-06T09:10:14Z</time></trkpt><trkpt lat="45.278054906553585" lon="9.671834127060414"><ele>52.599999999999994</ele><time>2026-04-06T09:10:15Z</time></trkpt><trkpt lat="45.277950954066135" lon="9.67187607077851"><ele>52.400000000000006</ele><time>2026-04-06T09:10:16Z</time></trkpt><trkpt lat="45.27785893120515" lon="9.671915659790788"><ele>52.2</ele><time>2026-04-06T09:10:17Z</time></trkpt><trkpt lat="45.27776860811493" lon="9.671976462809615"><ele>52.0</ele><time>2026-04-06T09:10:18Z</time></trkpt><trkpt lat="45.277689394077385" lon="9.672060378801024"><ele>52.0</ele><time>2026-04-06T09:10:19Z</time></trkpt><trkpt lat="45.27760373727733" lon="9.672101110448105"><ele>52.0</ele><time>2026-04-06T09:10:20Z</time></trkpt><trkpt lat="45.27752106758531" lon="9.67214271146682"><ele>52.0</ele><time>2026-04-06T09:10:21Z</time></trkpt><trkpt lat="45.27742192971144" lon="9.67216781689003"><ele>52.0</ele><time>2026-04-06T09:10:22Z</time></trkpt><trkpt lat="45.27728974996569" lon="9.672203059337109"><ele>52.0</ele><time>2026-04-06T09:10:23Z</time></trkpt><trkpt lat="45.277120168307135" lon="9.672249412090837"><ele>50.33333333333333</ele><time>2026-04-06T09:10:24Z</time></trkpt><trkpt lat="45.27695244866255" lon="9.672304160832676"><ele>48.666666666666664</ele><time>2026-04-06T09:10:25Z</time></trkpt><trkpt lat="45.2767777392966" lon="9.672386380346174"><ele>47.0</ele><time>2026-04-06T09:10:26Z</time></trkpt><trkpt lat="45.27660696186166" lon="9.672418799507371"><ele>47.0</ele><time>2026-04-06T09:10:27Z</time></trkpt><trkpt lat="45.276476970861026" lon="9.67245038202976"><ele>47.0</ele><time>2026-04-06T09:10:28Z</time></trkpt><trkpt lat="45.27637803110204" lon="9.672472819622037"><ele>47.0</ele><time>2026-04-06T09:10:29Z</time></trkpt><trkpt lat="45.27630173528074" lon="9.672511216609411"><ele>47.0</ele><time>2026-04-06T09:10:30Z</time></trkpt><trkpt lat="45.276199201064685" lon="9.672565544755319"><ele>47.0</ele><time>2026-04-06T09:10:32Z</time></trkpt><trkpt lat="45.276190231704874" lon="9.672664577319967"><ele>47.5</ele><time>2026-04-06T09:10:33Z</time></trkpt><trkpt lat="45.276208999836804" lon="9.672875805154316"><ele>48.0</ele><time>2026-04-06T09:10:35Z</time></trkpt><trkpt lat="45.276225000581846" lon="9.673014873463863"><ele>48.5</ele><time>2026-04-06T09:10:36Z</time></trkpt><trkpt lat="45.27624521357859" lon="9.673194553970704"><ele>49.0</ele><time>2026-04-06T09:10:37Z</time></trkpt><trkpt lat="45.27626121630188" lon="9.673431097633017"><ele>50.0</ele><time>2026-04-06T09:10:38Z</time></trkpt><trkpt lat="45.276278926212754" lon="9.673711345589723"><ele>51.0</ele><time>2026-04-06T09:10:39Z</time></trkpt><trkpt lat="45.27629842591583" lon="9.673995161321981"><ele>52.0</ele><time>2026-04-06T09:10:40Z</time></trkpt><trkpt lat="45.27632011426675" lon="9.674284197499569"><ele>51.33333333333333</ele><time>2026-04-06T09:10:41Z</time></trkpt><trkpt lat="45.27634097004131" lon="9.674569195961007"><ele>50.66666666666667</ele><time>2026-04-06T09:10:42Z</time></trkpt><trkpt lat="45.27636143148824" lon="9.674856256118904"><ele>50.0</ele><time>2026-04-06T09:10:43Z</time></trkpt><trkpt lat="45.27638586982881" lon="9.67514663348628"><ele>50.0</ele><time>2026-04-06T09:10:44Z</time></trkpt><trkpt lat="45.27641150059419" lon="9.675444960578595"><ele>50.0</ele><time>2026-04-06T09:10:45Z</time></trkpt><trkpt lat="45.27642970076121" lon="9.675728104219516"><ele>50.0</ele><time>2026-04-06T09:10:46Z</time></trkpt><trkpt lat="45.27644791701012" lon="9.676022716061922"><ele>50.333333333333336</ele><time>2026-04-06T09:10:47Z</time></trkpt><trkpt lat="45.27647185301712" lon="9.67631800049443"><ele>50.66666666666667</ele><time>2026-04-06T09:10:48Z</time></trkpt><trkpt lat="45.2764938098448" lon="9.676632629552941"><ele>51.0</ele><time>2026-04-06T09:10:49Z</time></trkpt><trkpt lat="45.27651379564561" lon="9.676933159376324"><ele>51.0</ele><time>2026-04-06T09:10:50Z</time></trkpt><trkpt lat="45.27653574396308" lon="9.677224880258766"><ele>51.0</ele><time>2026-04-06T09:10:51Z</time></trkpt><trkpt lat="45.27655927106635" lon="9.677533965763313"><ele>51.0</ele><time>2026-04-06T09:10:52Z</time></trkpt><trkpt lat="45.27657841684041" lon="9.677850646214578"><ele>51.33333333333333</ele><time>2026-04-06T09:10:53Z</time></trkpt><trkpt lat="45.276594886468" lon="9.678151144391311"><ele>51.666666666666664</ele><time>2026-04-06T09:10:54Z</time></trkpt><trkpt lat="45.27661045920593" lon="9.678444956718229"><ele>52.0</ele><time>2026-04-06T09:10:55Z</time></trkpt><trkpt lat="45.27662169857178" lon="9.678712198169624"><ele>52.0</ele><time>2026-04-06T09:10:56Z</time></trkpt><trkpt lat="45.27663286108107" lon="9.678965567685472"><ele>52.0</ele><time>2026-04-06T09:10:57Z</time></trkpt><trkpt lat="45.27664386074384" lon="9.679177775998838"><ele>52.0</ele><time>2026-04-06T09:10:58Z</time></trkpt><trkpt lat="45.27665154158356" lon="9.679341035259743"><ele>52.0</ele><time>2026-04-06T09:10:59Z</time></trkpt><trkpt lat="45.276661473408446" lon="9.679465677536525"><ele>52.0</ele><time>2026-04-06T09:11:00Z</time></trkpt><trkpt lat="45.276645773185905" lon="9.679615563039327"><ele>52.0</ele><time>2026-04-06T09:11:02Z</time></trkpt><trkpt lat="45.276637256195116" lon="9.679723835798995"><ele>52.0</ele><time>2026-04-06T09:11:05Z</time></trkpt><trkpt lat="45.276702131166715" lon="9.67977494039063"><ele>52.0</ele><time>2026-04-06T09:11:07Z</time></trkpt><trkpt lat="45.27681624359862" lon="9.679780820940099"><ele>52.0</ele><time>2026-04-06T09:11:09Z</time></trkpt><trkpt lat="45.27689800958417" lon="9.679767383518984"><ele>51.99999999999999</ele><time>2026-04-06T09:11:10Z</time></trkpt><trkpt lat="45.2769841770723" lon="9.679765320580788"><ele>52.0</ele><time>2026-04-06T09:11:11Z</time></trkpt><trkpt lat="45.27707262467106" lon="9.679772383850075"><ele>52.0</ele><time>2026-04-06T09:11:12Z</time></trkpt><trkpt lat="45.27715324827201" lon="9.679781740009988"><ele>52.0</ele><time>2026-04-06T09:11:13Z</time></trkpt><trkpt lat="45.27722367963758" lon="9.679782750068314"><ele>51.99999999999999</ele><time>2026-04-06T09:11:14Z</time></trkpt><trkpt lat="45.277315293824266" lon="9.679792396608596"><ele>52.0</ele><time>2026-04-06T09:11:16Z</time></trkpt><trkpt lat="45.277359361245345" lon="9.67988123372589"><ele>52.25</ele><time>2026-04-06T09:11:18Z</time></trkpt><trkpt lat="45.27739831093125" lon="9.68008015174491"><ele>52.5</ele><time>2026-04-06T09:11:20Z</time></trkpt><trkpt lat="45.27742686068483" lon="9.680216816807865"><ele>52.75</ele><time>2026-04-06T09:11:21Z</time></trkpt><trkpt lat="45.27746524407804" lon="9.680358491468334"><ele>53.0</ele><time>2026-04-06T09:11:22Z</time></trkpt><trkpt lat="45.27751060030741" lon="9.680527852633292"><ele>53.0</ele><time>2026-04-06T09:11:23Z</time></trkpt><trkpt lat="45.277554316119065" lon="9.680692821158198"><ele>53.0</ele><time>2026-04-06T09:11:24Z</time></trkpt><trkpt lat="45.27760015375986" lon="9.680839267463199"><ele>53.0</ele><time>2026-04-06T09:11:25Z</time></trkpt><trkpt lat="45.27764956947386" lon="9.680978125059276"><ele>53.0</ele><time>2026-04-06T09:11:26Z</time></trkpt><trkpt lat="45.27769689035072" lon="9.681113793153019"><ele>52.599999999999994</ele><time>2026-04-06T09:11:27Z</time></trkpt><trkpt lat="45.27774789763377" lon="9.681240774490739"><ele>52.199999999999996</ele><time>2026-04-06T09:11:28Z</time></trkpt><trkpt lat="45.27779375531473" lon="9.681360247084887"><ele>51.8</ele><time>2026-04-06T09:11:29Z</time></trkpt><trkpt lat="45.2778359193612" lon="9.681472492752036"><ele>51.4</ele><time>2026-04-06T09:11:30Z</time></trkpt><trkpt lat="45.277883831254705" lon="9.68157705907494"><ele>51.0</ele><time>2026-04-06T09:11:31Z</time></trkpt><trkpt lat="45.27792699200466" lon="9.68168463464608"><ele>51.0</ele><time>2026-04-06T09:11:32Z</time></trkpt><trkpt lat="45.27800359264539" lon="9.681784019251854"><ele>51.0</ele><time>2026-04-06T09:11:33Z</time></trkpt><trkpt lat="45.278092577495286" lon="9.681871000088842"><ele>51.0</ele><time>2026-04-06T09:11:34Z</time></trkpt><trkpt lat="45.2781683693627" lon="9.681957963060974"><ele>51.0</ele><time>2026-04-06T09:11:35Z</time></trkpt><trkpt lat="45.27823558504487" lon="9.682047713707602"><ele>51.0</ele><time>2026-04-06T09:11:36Z</time></trkpt><trkpt lat="45.27830501268721" lon="9.682165026299284"><ele>51.199999999999996</ele><time>2026-04-06T09:11:37Z</time></trkpt><trkpt lat="45.27835584884077" lon="9.682291638216919"><ele>51.4</ele><time>2026-04-06T09:11:38Z</time></trkpt><trkpt lat="45.27839931675881" lon="9.68241429403631"><ele>51.6</ele><time>2026-04-06T09:11:39Z</time></trkpt><trkpt lat="45.27842419092424" lon="9.682550556045028"><ele>51.8</ele><time>2026-04-06T09:11:40Z</time></trkpt><trkpt lat="45.278438709434894" lon="9.68272816231369"><ele>52.0</ele><time>2026-04-06T09:11:41Z</time></trkpt><trkpt lat="45.278436642192084" lon="9.68289723029948"><ele>52.2</ele><time>2026-04-06T09:11:42Z</time></trkpt><trkpt lat="45.27843228556333" lon="9.683053865203254"><ele>52.400000000000006</ele><time>2026-04-06T09:11:43Z</time></trkpt><trkpt lat="45.27844353828068" lon="9.683214274573219"><ele>52.599999999999994</ele><time>2026-04-06T09:11:44Z</time></trkpt><trkpt lat="45.27846419557338" lon="9.683371740349372"><ele>52.8</ele><time>2026-04-06T09:11:45Z</time></trkpt><trkpt lat="45.27848461847296" lon="9.683512407229145"><ele>53.0</ele><time>2026-04-06T09:11:46Z</time></trkpt><trkpt lat="45.27850694866496" lon="9.683638514346004"><ele>53.00000000000001</ele><time>2026-04-06T09:11:47Z</time></trkpt><trkpt lat="45.278525214050056" lon="9.683745669548811"><ele>53.0</ele><time>2026-04-06T09:11:48Z</time></trkpt><trkpt lat="45.27852696334888" lon="9.683895421092492"><ele>53.0</ele><time>2026-04-06T09:11:50Z</time></trkpt><trkpt lat="45.27845052207599" lon="9.68397196935963"><ele>53.0</ele><time>2026-04-06T09:11:53Z</time></trkpt><trkpt lat="45.278383856697864" lon="9.683975400633992"><ele>53.00000000000001</ele><time>2026-04-06T09:11:54Z</time></trkpt><trkpt lat="45.27830599507584" lon="9.683902250971355"><ele>53.0</ele><time>2026-04-06T09:11:55Z</time></trkpt><trkpt lat="45.27821400097589" lon="9.68388670802005"><ele>53.0</ele><time>2026-04-06T09:11:56Z</time></trkpt><trkpt lat="45.278116102856394" lon="9.683869340451936"><ele>53.0</ele><time>2026-04-06T09:11:57Z</time></trkpt><trkpt lat="45.27802221742141" lon="9.683877206176598"><ele>53.0</ele><time>2026-04-06T09:11:58Z</time></trkpt><trkpt lat="45.27791232985192" lon="9.683864440833565"><ele>53.0</ele><time>2026-04-06T09:11:59Z</time></trkpt><trkpt lat="45.277828568399215" lon="9.683830821161493"><ele>53.0</ele><time>2026-04-06T09:12:00Z</time></trkpt><trkpt lat="45.2777427422415" lon="9.683819665779282"><ele>52.66666666666667</ele><time>2026-04-06T09:12:01Z</time></trkpt><trkpt lat="45.2776524105428" lon="9.683839622427355"><ele>52.333333333333336</ele><time>2026-04-06T09:12:02Z</time></trkpt><trkpt lat="45.277570606757614" lon="9.683819663243623"><ele>52.0</ele><time>2026-04-06T09:12:03Z</time></trkpt><trkpt lat="45.27749689583227" lon="9.683808654714703"><ele>51.66666666666667</ele><time>2026-04-06T09:12:04Z</time></trkpt><trkpt lat="45.27741495248259" lon="9.683799884367925"><ele>51.333333333333336</ele><time>2026-04-06T09:12:05Z</time></trkpt><trkpt lat="45.27731932182976" lon="9.68378787447837"><ele>51.0</ele><time>2026-04-06T09:12:06Z</time></trkpt><trkpt lat="45.27722536090712" lon="9.68373641669245"><ele>50.8</ele><time>2026-04-06T09:12:07Z</time></trkpt><trkpt lat="45.27713033517043" lon="9.683743315284964"><ele>50.599999999999994</ele><time>2026-04-06T09:12:08Z</time></trkpt><trkpt lat="45.2770109194714" lon="9.683729171566723"><ele>50.4</ele><time>2026-04-06T09:12:09Z</time></trkpt><trkpt lat="45.27690084577983" lon="9.683720188446117"><ele>50.2</ele><time>2026-04-06T09:12:10Z</time></trkpt><trkpt lat="45.27681096722681" lon="9.683720273352206"><ele>50.0</ele><time>2026-04-06T09:12:11Z</time></trkpt><trkpt lat="45.27671838437031" lon="9.683698922844663"><ele>50.0</ele><time>2026-04-06T09:12:12Z</time></trkpt><trkpt lat="45.276621721030565" lon="9.683670537175683"><ele>50.0</ele><time>2026-04-06T09:12:13Z</time></trkpt><trkpt lat="45.276520452142286" lon="9.683644786826784"><ele>50.0</ele><time>2026-04-06T09:12:14Z</time></trkpt><trkpt lat="45.276411488474785" lon="9.683621662356508"><ele>50.0</ele><time>2026-04-06T09:12:15Z</time></trkpt><trkpt lat="45.27630934440307" lon="9.683602048963651"><ele>50.0</ele><time>2026-04-06T09:12:16Z</time></trkpt><trkpt lat="45.27620084831619" lon="9.683575793352011"><ele>50.2</ele><time>2026-04-06T09:12:17Z</time></trkpt><trkpt lat="45.276092311185295" lon="9.683543699351588"><ele>50.4</ele><time>2026-04-06T09:12:18Z</time></trkpt><trkpt lat="45.275986545586214" lon="9.683515052097741"><ele>50.599999999999994</ele><time>2026-04-06T09:12:19Z</time></trkpt><trkpt lat="45.27588181732966" lon="9.683492876913641"><ele>50.8</ele><time>2026-04-06T09:12:20Z</time></trkpt><trkpt lat="45.275771228199325" lon="9.68346578840649"><ele>51.0</ele><time>2026-04-06T09:12:21Z</time></trkpt><trkpt lat="45.275646793741714" lon="9.683441476283036"><ele>50.75</ele><time>2026-04-06T09:12:22Z</time></trkpt><trkpt lat="45.27550937891411" lon="9.683415476486937"><ele>50.5</ele><time>2026-04-06T09:12:23Z</time></trkpt><trkpt lat="45.27537694459565" lon="9.683384807461739"><ele>50.25</ele><time>2026-04-06T09:12:24Z</time></trkpt><trkpt lat="45.275230526371665" lon="9.68335547511669"><ele>50.0</ele><time>2026-04-06T09:12:25Z</time></trkpt><trkpt lat="45.275068739664576" lon="9.68331762974854"><ele>50.0</ele><time>2026-04-06T09:12:26Z</time></trkpt><trkpt lat="45.27492624698604" lon="9.683288377937988"><ele>50.0</ele><time>2026-04-06T09:12:27Z</time></trkpt><trkpt lat="45.27479912621703" lon="9.683254912295235"><ele>50.0</ele><time>2026-04-06T09:12:28Z</time></trkpt><trkpt lat="45.27468475299068" lon="9.68322668693436"><ele>50.0</ele><time>2026-04-06T09:12:29Z</time></trkpt><trkpt lat="45.2745750118646" lon="9.683207672096383"><ele>50.2</ele><time>2026-04-06T09:12:30Z</time></trkpt><trkpt lat="45.27446087973153" lon="9.683191504518053"><ele>50.4</ele><time>2026-04-06T09:12:31Z</time></trkpt><trkpt lat="45.27435791175537" lon="9.683156639205427"><ele>50.599999999999994</ele><time>2026-04-06T09:12:32Z</time></trkpt><trkpt lat="45.27426473398168" lon="9.683120898695538"><ele>50.8</ele><time>2026-04-06T09:12:33Z</time></trkpt><trkpt lat="45.27418400949211" lon="9.68307595869564"><ele>51.0</ele><time>2026-04-06T09:12:34Z</time></trkpt><trkpt lat="45.27408067332456" lon="9.683032950325757"><ele>51.0</ele><time>2026-04-06T09:12:35Z</time></trkpt><trkpt lat="45.27395520156779" lon="9.682967747136455"><ele>51.0</ele><time>2026-04-06T09:12:36Z</time></trkpt><trkpt lat="45.27381311721338" lon="9.68289108014266"><ele>51.0</ele><time>2026-04-06T09:12:37Z</time></trkpt><trkpt lat="45.27365681738483" lon="9.68281384480538"><ele>51.0</ele><time>2026-04-06T09:12:38Z</time></trkpt><trkpt lat="45.27351551513911" lon="9.682742668018063"><ele>51.0</ele><time>2026-04-06T09:12:39Z</time></trkpt><trkpt lat="45.27338134831217" lon="9.682679155817294"><ele>51.0</ele><time>2026-04-06T09:12:40Z</time></trkpt><trkpt lat="45.27325805069948" lon="9.68262342369724"><ele>51.0</ele><time>2026-04-06T09:12:41Z</time></trkpt><trkpt lat="45.27314450494443" lon="9.68257236783239"><ele>51.25</ele><time>2026-04-06T09:12:42Z</time></trkpt><trkpt lat="45.273037148453284" lon="9.682511525198645"><ele>51.5</ele><time>2026-04-06T09:12:43Z</time></trkpt><trkpt lat="45.272921126376175" lon="9.68245206242633"><ele>51.75</ele><time>2026-04-06T09:12:44Z</time></trkpt><trkpt lat="45.27279860424049" lon="9.682392189160455"><ele>52.0</ele><time>2026-04-06T09:12:45Z</time></trkpt><trkpt lat="45.27268823669839" lon="9.682331311428834"><ele>52.0</ele><time>2026-04-06T09:12:46Z</time></trkpt><trkpt lat="45.27258663157772" lon="9.682287598203875"><ele>52.0</ele><time>2026-04-06T09:12:47Z</time></trkpt><trkpt lat="45.27247583668287" lon="9.68223590828716"><ele>52.0</ele><time>2026-04-06T09:12:48Z</time></trkpt><trkpt lat="45.27235758287528" lon="9.682180848774701"><ele>52.0</ele><time>2026-04-06T09:12:49Z</time></trkpt><trkpt lat="45.272226509521" lon="9.682113554707428"><ele>52.0</ele><time>2026-04-06T09:12:50Z</time></trkpt><trkpt lat="45.27210942364121" lon="9.682049481148319"><ele>52.0</ele><time>2026-04-06T09:12:51Z</time></trkpt><trkpt lat="45.271986561965626" lon="9.68198594329055"><ele>52.0</ele><time>2026-04-06T09:12:52Z</time></trkpt><trkpt lat="45.2718459920412" lon="9.681910588354178"><ele>52.0</ele><time>2026-04-06T09:12:53Z</time></trkpt><trkpt lat="45.27169323989005" lon="9.68184022791716"><ele>51.5</ele><time>2026-04-06T09:12:54Z</time></trkpt><trkpt lat="45.27157536699871" lon="9.68177657792682"><ele>51.0</ele><time>2026-04-06T09:12:55Z</time></trkpt><trkpt lat="45.2714585223882" lon="9.68173075964677"><ele>50.5</ele><time>2026-04-06T09:12:56Z</time></trkpt><trkpt lat="45.27136222948598" lon="9.68169078745265"><ele>50.0</ele><time>2026-04-06T09:12:57Z</time></trkpt><trkpt lat="45.27126064579857" lon="9.681673013762552"><ele>50.0</ele><time>2026-04-06T09:12:58Z</time></trkpt><trkpt lat="45.27116831159833" lon="9.681650183719801"><ele>50.0</ele><time>2026-04-06T09:12:59Z</time></trkpt><trkpt lat="45.2710972679383" lon="9.681630458882918"><ele>50.0</ele><time>2026-04-06T09:13:00Z</time></trkpt><trkpt lat="45.27095403962883" lon="9.681597284932858"><ele>50.0</ele><time>2026-04-06T09:13:02Z</time></trkpt><trkpt lat="45.270851572454575" lon="9.681565010738863"><ele>50.0</ele><time>2026-04-06T09:13:03Z</time></trkpt><trkpt lat="45.27075262231157" lon="9.681543697904036"><ele>50.0</ele><time>2026-04-06T09:13:04Z</time></trkpt><trkpt lat="45.270656458857836" lon="9.68151426436777"><ele>50.0</ele><time>2026-04-06T09:13:05Z</time></trkpt><trkpt lat="45.270544838867735" lon="9.681481482965982"><ele>50.0</ele><time>2026-04-06T09:13:06Z</time></trkpt><trkpt lat="45.2704133367988" lon="9.68144522739911"><ele>50.0</ele><time>2026-04-06T09:13:07Z</time></trkpt><trkpt lat="45.27028839393773" lon="9.681412360485778"><ele>50.4</ele><time>2026-04-06T09:13:08Z</time></trkpt><trkpt lat="45.27017867383385" lon="9.681379770651048"><ele>50.8</ele><time>2026-04-06T09:13:09Z</time></trkpt><trkpt lat="45.27007680381574" lon="9.681354911444588"><ele>51.2</ele><time>2026-04-06T09:13:10Z</time></trkpt><trkpt lat="45.26997669312939" lon="9.681328162126228"><ele>51.6</ele><time>2026-04-06T09:13:11Z</time></trkpt><trkpt lat="45.26988176978524" lon="9.681296833296159"><ele>52.0</ele><time>2026-04-06T09:13:12Z</time></trkpt><trkpt lat="45.26979960719903" lon="9.681262472948305"><ele>51.6</ele><time>2026-04-06T09:13:13Z</time></trkpt><trkpt lat="45.26971582491936" lon="9.681198630216405"><ele>51.2</ele><time>2026-04-06T09:13:14Z</time></trkpt><trkpt lat="45.26962405606661" lon="9.681112450538235"><ele>50.8</ele><time>2026-04-06T09:13:15Z</time></trkpt><trkpt lat="45.269546356536736" lon="9.68101495005876"><ele>50.4</ele><time>2026-04-06T09:13:16Z</time></trkpt><trkpt lat="45.269484937625386" lon="9.680912887400083"><ele>50.0</ele><time>2026-04-06T09:13:17Z</time></trkpt><trkpt lat="45.26942686950458" lon="9.680834443827775"><ele>50.0</ele><time>2026-04-06T09:13:18Z</time></trkpt><trkpt lat="45.26937750172328" lon="9.6807650153373"><ele>50.0</ele><time>2026-04-06T09:13:19Z</time></trkpt><trkpt lat="45.26929851080583" lon="9.680738598941144"><ele>50.0</ele><time>2026-04-06T09:13:21Z</time></trkpt><trkpt lat="45.26924116368548" lon="9.680813881965864"><ele>50.0</ele><time>2026-04-06T09:13:23Z</time></trkpt><trkpt lat="45.269168063705145" lon="9.680990104422651"><ele>50.0</ele><time>2026-04-06T09:13:25Z</time></trkpt><trkpt lat="45.26909056206115" lon="9.681124826328103"><ele>50.0</ele><time>2026-04-06T09:13:26Z</time></trkpt><trkpt lat="45.2690000904458" lon="9.681250679822808"><ele>50.0</ele><time>2026-04-06T09:13:27Z</time></trkpt><trkpt lat="45.26891512830658" lon="9.681359752931266"><ele>50.0</ele><time>2026-04-06T09:13:28Z</time></trkpt><trkpt lat="45.26882865408569" lon="9.681474783407644"><ele>50.0</ele><time>2026-04-06T09:13:29Z</time></trkpt><trkpt lat="45.268734990178956" lon="9.681598245309992"><ele>50.25</ele><time>2026-04-06T09:13:30Z</time></trkpt><trkpt lat="45.26863234471161" lon="9.681738793927813"><ele>50.5</ele><time>2026-04-06T09:13:31Z</time></trkpt><trkpt lat="45.268530903529765" lon="9.681871248081645"><ele>50.75</ele><time>2026-04-06T09:13:32Z</time></trkpt><trkpt lat="45.268442597962434" lon="9.681994321782517"><ele>51.0</ele><time>2026-04-06T09:13:33Z</time></trkpt><trkpt lat="45.268363661852426" lon="9.682104193277336"><ele>51.0</ele><time>2026-04-06T09:13:34Z</time></trkpt><trkpt lat="45.268283983324906" lon="9.682206567361284"><ele>51.0</ele><time>2026-04-06T09:13:35Z</time></trkpt><trkpt lat="45.26821463888594" lon="9.682290178505928"><ele>51.0</ele><time>2026-04-06T09:13:36Z</time></trkpt><trkpt lat="45.268160233190024" lon="9.682351318791193"><ele>51.0</ele><time>2026-04-06T09:13:37Z</time></trkpt><trkpt lat="45.26809133783473" lon="9.68241825345811"><ele>51.0</ele><time>2026-04-06T09:13:38Z</time></trkpt><trkpt lat="45.2680166949529" lon="9.682472176254223"><ele>51.0</ele><time>2026-04-06T09:13:39Z</time></trkpt><trkpt lat="45.267923590897766" lon="9.682546623948301"><ele>51.25</ele><time>2026-04-06T09:13:40Z</time></trkpt><trkpt lat="45.2678182929338" lon="9.682627275424302"><ele>51.5</ele><time>2026-04-06T09:13:41Z</time></trkpt><trkpt lat="45.26772618681467" lon="9.682684241704377"><ele>51.75</ele><time>2026-04-06T09:13:42Z</time></trkpt><trkpt lat="45.267631435089235" lon="9.682741057642811"><ele>52.0</ele><time>2026-04-06T09:13:43Z</time></trkpt><trkpt lat="45.26751369522604" lon="9.682809142878352"><ele>51.400000000000006</ele><time>2026-04-06T09:13:44Z</time></trkpt><trkpt lat="45.26740545867535" lon="9.682858188194617"><ele>50.800000000000004</ele><time>2026-04-06T09:13:45Z</time></trkpt><trkpt lat="45.26729672598486" lon="9.682902627759226"><ele>50.2</ele><time>2026-04-06T09:13:46Z</time></trkpt><trkpt lat="45.267200886153056" lon="9.682920825422816"><ele>49.6</ele><time>2026-04-06T09:13:47Z</time></trkpt><trkpt lat="45.26709434300797" lon="9.682940416092078"><ele>49.0</ele><time>2026-04-06T09:13:48Z</time></trkpt><trkpt lat="45.26699118671525" lon="9.682970367570144"><ele>49.0</ele><time>2026-04-06T09:13:49Z</time></trkpt><trkpt lat="45.266909114889515" lon="9.682989841767895"><ele>49.0</ele><time>2026-04-06T09:13:50Z</time></trkpt><trkpt lat="45.26681713685091" lon="9.683018986986824"><ele>49.0</ele><time>2026-04-06T09:13:51Z</time></trkpt><trkpt lat="45.26671665409482" lon="9.683039785067173"><ele>49.0</ele><time>2026-04-06T09:13:52Z</time></trkpt><trkpt lat="45.26660581292195" lon="9.683065409474207"><ele>49.0</ele><time>2026-04-06T09:13:53Z</time></trkpt><trkpt lat="45.26650640212234" lon="9.68307105446777"><ele>49.0</ele><time>2026-04-06T09:13:54Z</time></trkpt><trkpt lat="45.26640770285178" lon="9.683064751863416"><ele>49.0</ele><time>2026-04-06T09:13:55Z</time></trkpt><trkpt lat="45.26628925578617" lon="9.68305201840497"><ele>49.0</ele><time>2026-04-06T09:13:56Z</time></trkpt><trkpt lat="45.26617732574204" lon="9.683022601842724"><ele>49.0</ele><time>2026-04-06T09:13:57Z</time></trkpt><trkpt lat="45.26606931808238" lon="9.683008647396214"><ele>49.0</ele><time>2026-04-06T09:13:58Z</time></trkpt><trkpt lat="45.265967097352316" lon="9.682998033905589"><ele>49.0</ele><time>2026-04-06T09:13:59Z</time></trkpt><trkpt lat="45.265849841565704" lon="9.6829885395592"><ele>49.0</ele><time>2026-04-06T09:14:00Z</time></trkpt><trkpt lat="45.26572354901911" lon="9.682973036723459"><ele>49.0</ele><time>2026-04-06T09:14:01Z</time></trkpt><trkpt lat="45.265623564065905" lon="9.682951053298721"><ele>49.0</ele><time>2026-04-06T09:14:02Z</time></trkpt><trkpt lat="45.26555122006244" lon="9.682921928993407"><ele>49.0</ele><time>2026-04-06T09:14:03Z</time></trkpt><trkpt lat="45.265468115821236" lon="9.68287638359257"><ele>49.0</ele><time>2026-04-06T09:14:04Z</time></trkpt><trkpt lat="45.26537681310733" lon="9.682824443123016"><ele>49.0</ele><time>2026-04-06T09:14:05Z</time></trkpt><trkpt lat="45.265288532946464" lon="9.682776744029011"><ele>49.0</ele><time>2026-04-06T09:14:06Z</time></trkpt><trkpt lat="45.26518648119527" lon="9.68271636456349"><ele>49.0</ele><time>2026-04-06T09:14:07Z</time></trkpt><trkpt lat="45.26505234238904" lon="9.682639202974963"><ele>49.0</ele><time>2026-04-06T09:14:08Z</time></trkpt><trkpt lat="45.2649164165336" lon="9.68256018647704"><ele>49.0</ele><time>2026-04-06T09:14:09Z</time></trkpt><trkpt lat="45.264803095398946" lon="9.682487205359456"><ele>49.0</ele><time>2026-04-06T09:14:10Z</time></trkpt><trkpt lat="45.2646971707794" lon="9.682415385194856"><ele>49.0</ele><time>2026-04-06T09:14:11Z</time></trkpt><trkpt lat="45.264595120414484" lon="9.682347930958786"><ele>49.0</ele><time>2026-04-06T09:14:12Z</time></trkpt><trkpt lat="45.26450044554667" lon="9.682266421129421"><ele>49.0</ele><time>2026-04-06T09:14:13Z</time></trkpt><trkpt lat="45.264385461736985" lon="9.68216798087755"><ele>49.0</ele><time>2026-04-06T09:14:14Z</time></trkpt><trkpt lat="45.264275631407685" lon="9.682057644272101"><ele>49.0</ele><time>2026-04-06T09:14:15Z</time></trkpt><trkpt lat="45.264184253189356" lon="9.681960141973228"><ele>49.0</ele><time>2026-04-06T09:14:16Z</time></trkpt><trkpt lat="45.26410024414309" lon="9.681857786071179"><ele>49.0</ele><time>2026-04-06T09:14:17Z</time></trkpt><trkpt lat="45.264019364998376" lon="9.681756562658006"><ele>49.0</ele><time>2026-04-06T09:14:18Z</time></trkpt><trkpt lat="45.26395244051895" lon="9.681664171775715"><ele>49.0</ele><time>2026-04-06T09:14:19Z</time></trkpt><trkpt lat="45.26388568766779" lon="9.68155280131715"><ele>49.0</ele><time>2026-04-06T09:14:20Z</time></trkpt><trkpt lat="45.26381746109495" lon="9.68142107587868"><ele>49.0</ele><time>2026-04-06T09:14:21Z</time></trkpt><trkpt lat="45.2637464157239" lon="9.681262590510899"><ele>49.25</ele><time>2026-04-06T09:14:22Z</time></trkpt><trkpt lat="45.263678826429164" lon="9.681115147823359"><ele>49.5</ele><time>2026-04-06T09:14:23Z</time></trkpt><trkpt lat="45.263622204020265" lon="9.680972597400569"><ele>49.75</ele><time>2026-04-06T09:14:24Z</time></trkpt><trkpt lat="45.26355688692154" lon="9.680824590427697"><ele>50.0</ele><time>2026-04-06T09:14:25Z</time></trkpt><trkpt lat="45.26349476686266" lon="9.680689469230273"><ele>50.0</ele><time>2026-04-06T09:14:26Z</time></trkpt><trkpt lat="45.26344165950788" lon="9.68056826912651"><ele>50.0</ele><time>2026-04-06T09:14:27Z</time></trkpt><trkpt lat="45.263390570777496" lon="9.680451331403853"><ele>50.0</ele><time>2026-04-06T09:14:28Z</time></trkpt><trkpt lat="45.263346672599155" lon="9.680316001476706"><ele>50.0</ele><time>2026-04-06T09:14:29Z</time></trkpt><trkpt lat="45.263314622295994" lon="9.680187620535964"><ele>50.0</ele><time>2026-04-06T09:14:30Z</time></trkpt><trkpt lat="45.26326906584906" lon="9.680046780459973"><ele>49.5</ele><time>2026-04-06T09:14:31Z</time></trkpt><trkpt lat="45.26322266989344" lon="9.679906064565108"><ele>49.0</ele><time>2026-04-06T09:14:32Z</time></trkpt><trkpt lat="45.2631562256607" lon="9.679736024924928"><ele>48.5</ele><time>2026-04-06T09:14:33Z</time></trkpt><trkpt lat="45.26309125149871" lon="9.679529221565831"><ele>48.0</ele><time>2026-04-06T09:14:34Z</time></trkpt><trkpt lat="45.26302201109064" lon="9.679348475512965"><ele>47.75</ele><time>2026-04-06T09:14:35Z</time></trkpt><trkpt lat="45.262957194191" lon="9.67917600483166"><ele>47.5</ele><time>2026-04-06T09:14:36Z</time></trkpt><trkpt lat="45.26289787003643" lon="9.67900503080941"><ele>47.25</ele><time>2026-04-06T09:14:37Z</time></trkpt><trkpt lat="45.262835370298134" lon="9.678843079540986"><ele>47.0</ele><time>2026-04-06T09:14:38Z</time></trkpt><trkpt lat="45.26278335397198" lon="9.678689602659631"><ele>47.25</ele><time>2026-04-06T09:14:39Z</time></trkpt><trkpt lat="45.26273533077648" lon="9.678544481090274"><ele>47.5</ele><time>2026-04-06T09:14:40Z</time></trkpt><trkpt lat="45.262681601775654" lon="9.678386588564782"><ele>47.75</ele><time>2026-04-06T09:14:41Z</time></trkpt><trkpt lat="45.26263616061638" lon="9.67823170686728"><ele>48.0</ele><time>2026-04-06T09:14:42Z</time></trkpt><trkpt lat="45.26259497116116" lon="9.678062914774506"><ele>48.0</ele><time>2026-04-06T09:14:43Z</time></trkpt><trkpt lat="45.26255613287233" lon="9.677891764503164"><ele>48.0</ele><time>2026-04-06T09:14:44Z</time></trkpt><trkpt lat="45.26252038291911" lon="9.67776811086681"><ele>48.0</ele><time>2026-04-06T09:14:45Z</time></trkpt><trkpt lat="45.26247962245239" lon="9.67765469254957"><ele>48.0</ele><time>2026-04-06T09:14:46Z</time></trkpt><trkpt lat="45.26242846661849" lon="9.677558277111586"><ele>48.0</ele><time>2026-04-06T09:14:47Z</time></trkpt><trkpt lat="45.26237610865892" lon="9.677482932652854"><ele>48.166666666666664</ele><time>2026-04-06T09:14:48Z</time></trkpt><trkpt lat="45.26231941096629" lon="9.677422085072106"><ele>48.33333333333333</ele><time>2026-04-06T09:14:49Z</time></trkpt><trkpt lat="45.262259396191254" lon="9.67737648004246"><ele>48.5</ele><time>2026-04-06T09:14:50Z</time></trkpt><trkpt lat="45.26214836482412" lon="9.677312340716036"><ele>48.666666666666664</ele><time>2026-04-06T09:14:52Z</time></trkpt><trkpt lat="45.262050364046985" lon="9.677245264417994"><ele>48.83333333333333</ele><time>2026-04-06T09:14:54Z</time></trkpt><trkpt lat="45.26198932366039" lon="9.677192002985366"><ele>49.0</ele><time>2026-04-06T09:14:56Z</time></trkpt><trkpt lat="45.2618912230318" lon="9.677095160324779"><ele>49.0</ele><time>2026-04-06T09:14:58Z</time></trkpt><trkpt lat="45.261837803843804" lon="9.677038544535902"><ele>49.0</ele><time>2026-04-06T09:14:59Z</time></trkpt><trkpt lat="45.26179106823057" lon="9.676967613774488"><ele>49.0</ele><time>2026-04-06T09:15:00Z</time></trkpt><trkpt lat="45.26173367122872" lon="9.676865420650348"><ele>49.0</ele><time>2026-04-06T09:15:01Z</time></trkpt><trkpt lat="45.26167077855303" lon="9.676713983597844"><ele>49.0</ele><time>2026-04-06T09:15:02Z</time></trkpt><trkpt lat="45.26161488828181" lon="9.676578212820983"><ele>49.0</ele><time>2026-04-06T09:15:03Z</time></trkpt><trkpt lat="45.26158091234389" lon="9.676453555350543"><ele>49.0</ele><time>2026-04-06T09:15:04Z</time></trkpt><trkpt lat="45.261552726714044" lon="9.676303752956004"><ele>49.0</ele><time>2026-04-06T09:15:05Z</time></trkpt><trkpt lat="45.261518700519986" lon="9.676112810068032"><ele>49.0</ele><time>2026-04-06T09:15:06Z</time></trkpt><trkpt lat="45.2614912209194" lon="9.675950864255752"><ele>49.0</ele><time>2026-04-06T09:15:07Z</time></trkpt><trkpt lat="45.26145988855354" lon="9.675805262384621"><ele>49.0</ele><time>2026-04-06T09:15:08Z</time></trkpt><trkpt lat="45.26142810706499" lon="9.675711381432281"><ele>49.0</ele><time>2026-04-06T09:15:09Z</time></trkpt><trkpt lat="45.261363499934895" lon="9.67553485425453"><ele>49.0</ele><time>2026-04-06T09:15:11Z</time></trkpt><trkpt lat="45.26131117944087" lon="9.675404604319857"><ele>49.0</ele><time>2026-04-06T09:15:12Z</time></trkpt><trkpt lat="45.261247347374514" lon="9.675243037828654"><ele>49.25</ele><time>2026-04-06T09:15:13Z</time></trkpt><trkpt lat="45.26117985588769" lon="9.675044889978702"><ele>49.5</ele><time>2026-04-06T09:15:14Z</time></trkpt><trkpt lat="45.26111693846142" lon="9.674848028258413"><ele>49.75</ele><time>2026-04-06T09:15:15Z</time></trkpt><trkpt lat="45.26106973891206" lon="9.674688804003685"><ele>50.0</ele><time>2026-04-06T09:15:16Z</time></trkpt><trkpt lat="45.2610156678158" lon="9.674542056242583"><ele>50.4</ele><time>2026-04-06T09:15:17Z</time></trkpt><trkpt lat="45.260968586011415" lon="9.67440485545762"><ele>50.8</ele><time>2026-04-06T09:15:18Z</time></trkpt><trkpt lat="45.26092967819912" lon="9.67427897820157"><ele>51.2</ele><time>2026-04-06T09:15:19Z</time></trkpt><trkpt lat="45.2608926564899" lon="9.674186984245594"><ele>51.6</ele><time>2026-04-06T09:15:20Z</time></trkpt><trkpt lat="45.26078342423959" lon="9.674125894147599"><ele>52.0</ele><time>2026-04-06T09:15:22Z</time></trkpt><trkpt lat="45.26070933818887" lon="9.674121980753354"><ele>51.99999999999999</ele><time>2026-04-06T09:15:23Z</time></trkpt><trkpt lat="45.26062416259962" lon="9.674113203929759"><ele>52.0</ele><time>2026-04-06T09:15:24Z</time></trkpt><trkpt lat="45.260535895542105" lon="9.674097522996163"><ele>52.0</ele><time>2026-04-06T09:15:25Z</time></trkpt><trkpt lat="45.26045705404311" lon="9.674083710110443"><ele>52.0</ele><time>2026-04-06T09:15:26Z</time></trkpt><trkpt lat="45.260380244390795" lon="9.674074306988379"><ele>51.99999999999999</ele><time>2026-04-06T09:15:27Z</time></trkpt><trkpt lat="45.26028751759489" lon="9.67407009131348"><ele>52.0</ele><time>2026-04-06T09:15:28Z</time></trkpt><trkpt lat="45.26021179141538" lon="9.674052203345806"><ele>51.49999999999999</ele><time>2026-04-06T09:15:29Z</time></trkpt><trkpt lat="45.260136601335276" lon="9.674037907560287"><ele>51.0</ele><time>2026-04-06T09:15:30Z</time></trkpt><trkpt lat="45.26006650765703" lon="9.674029471234372"><ele>50.5</ele><time>2026-04-06T09:15:31Z</time></trkpt><trkpt lat="45.2599492543749" lon="9.674007493794779"><ele>50.0</ele><time>2026-04-06T09:15:33Z</time></trkpt><trkpt lat="45.259860018550356" lon="9.673993988550565"><ele>49.49999999999999</ele><time>2026-04-06T09:15:35Z</time></trkpt><trkpt lat="45.25978115962867" lon="9.67402171974082"><ele>49.0</ele><time>2026-04-06T09:15:37Z</time></trkpt><trkpt lat="45.25974250260254" lon="9.674150846237401"><ele>48.5</ele><time>2026-04-06T09:15:39Z</time></trkpt><trkpt lat="45.25972083232951" lon="9.67434810136678"><ele>48.0</ele><time>2026-04-06T09:15:41Z</time></trkpt><trkpt lat="45.2596997891648" lon="9.674507494164517"><ele>47.5</ele><time>2026-04-06T09:15:42Z</time></trkpt><trkpt lat="45.259672562288635" lon="9.674691392569661"><ele>47.0</ele><time>2026-04-06T09:15:43Z</time></trkpt><trkpt lat="45.25964130433737" lon="9.674885952096096"><ele>46.75</ele><time>2026-04-06T09:15:44Z</time></trkpt><trkpt lat="45.25961095155037" lon="9.67505327411127"><ele>46.5</ele><time>2026-04-06T09:15:45Z</time></trkpt><trkpt lat="45.259569614041645" lon="9.67521760404539"><ele>46.25</ele><time>2026-04-06T09:15:46Z</time></trkpt><trkpt lat="45.25953022876428" lon="9.675364550108421"><ele>46.0</ele><time>2026-04-06T09:15:47Z</time></trkpt><trkpt lat="45.259488197439694" lon="9.675493813650752"><ele>46.4</ele><time>2026-04-06T09:15:48Z</time></trkpt><trkpt lat="45.25944712895929" lon="9.67562077126424"><ele>46.8</ele><time>2026-04-06T09:15:49Z</time></trkpt><trkpt lat="45.259414792216255" lon="9.675749754250447"><ele>47.199999999999996</ele><time>2026-04-06T09:15:50Z</time></trkpt><trkpt lat="45.2593774854893" lon="9.67588272706085"><ele>47.599999999999994</ele><time>2026-04-06T09:15:51Z</time></trkpt><trkpt lat="45.25933621288782" lon="9.676011855703397"><ele>48.0</ele><time>2026-04-06T09:15:52Z</time></trkpt><trkpt lat="45.2592931044302" lon="9.676110949434706"><ele>48.0</ele><time>2026-04-06T09:15:53Z</time></trkpt><trkpt lat="45.25924409027197" lon="9.676197792027947"><ele>48.0</ele><time>2026-04-06T09:15:54Z</time></trkpt><trkpt lat="45.2591942798168" lon="9.676293578966392"><ele>48.0</ele><time>2026-04-06T09:15:55Z</time></trkpt><trkpt lat="45.25915021554121" lon="9.676376499030807"><ele>48.0</ele><time>2026-04-06T09:15:56Z</time></trkpt><trkpt lat="45.259069527703474" lon="9.676523699801681"><ele>48.0</ele><time>2026-04-06T09:15:58Z</time></trkpt><trkpt lat="45.25902509254154" lon="9.67661871961139"><ele>48.0</ele><time>2026-04-06T09:15:59Z</time></trkpt><trkpt lat="45.258980750296764" lon="9.676716484091575"><ele>48.0</ele><time>2026-04-06T09:16:00Z</time></trkpt><trkpt lat="45.25893179056621" lon="9.676791270936137"><ele>48.0</ele><time>2026-04-06T09:16:04Z</time></trkpt><trkpt lat="45.258985731770196" lon="9.676742108790398"><ele>48.0</ele><time>2026-04-06T09:16:09Z</time></trkpt><trkpt lat="45.25900332692061" lon="9.676648359476216"><ele>48.0</ele><time>2026-04-06T09:16:10Z</time></trkpt><trkpt lat="45.25901062902222" lon="9.676558938500525"><ele>48.0</ele><time>2026-04-06T09:16:12Z</time></trkpt><trkpt lat="45.25897021785567" lon="9.676716397038193"><ele>48.0</ele><time>2026-04-06T09:16:27Z</time></trkpt><trkpt lat="45.258914234794965" lon="9.676801861386977"><ele>48.2</ele><time>2026-04-06T09:16:28Z</time></trkpt><trkpt lat="45.258856703576804" lon="9.676871111462127"><ele>48.4</ele><time>2026-04-06T09:16:30Z</time></trkpt><trkpt lat="45.25879772220641" lon="9.676946214556434"><ele>48.6</ele><time>2026-04-06T09:16:31Z</time></trkpt><trkpt lat="45.258730708574866" lon="9.677080351534547"><ele>48.800000000000004</ele><time>2026-04-06T09:16:33Z</time></trkpt><trkpt lat="45.2586552842385" lon="9.677174433089775"><ele>49.0</ele><time>2026-04-06T09:16:35Z</time></trkpt><trkpt lat="45.25858264078732" lon="9.677253674607766"><ele>49.0</ele><time>2026-04-06T09:16:37Z</time></trkpt><trkpt lat="45.25851567162816" lon="9.677359238188982"><ele>49.0</ele><time>2026-04-06T09:16:39Z</time></trkpt><trkpt lat="45.258430958266835" lon="9.677484706435317"><ele>49.0</ele><time>2026-04-06T09:16:41Z</time></trkpt><trkpt lat="45.258372877947686" lon="9.677538090442015"><ele>49.0</ele><time>2026-04-06T09:16:42Z</time></trkpt><trkpt lat="45.25829319391174" lon="9.677573469984644"><ele>49.0</ele><time>2026-04-06T09:16:43Z</time></trkpt><trkpt lat="45.25818696658879" lon="9.677655878758916"><ele>49.0</ele><time>2026-04-06T09:16:45Z</time></trkpt><trkpt lat="45.25813172188958" lon="9.677716658411608"><ele>49.0</ele><time>2026-04-06T09:16:46Z</time></trkpt><trkpt lat="45.258082594178425" lon="9.677782420621387"><ele>49.0</ele><time>2026-04-06T09:16:47Z</time></trkpt><trkpt lat="45.25804087521131" lon="9.677858056386857"><ele>49.0</ele><time>2026-04-06T09:16:48Z</time></trkpt><trkpt lat="45.2579903308915" lon="9.677979319063773"><ele>49.0</ele><time>2026-04-06T09:16:50Z</time></trkpt><trkpt lat="45.25795820066039" lon="9.678059704638043"><ele>49.0</ele><time>2026-04-06T09:16:51Z</time></trkpt><trkpt lat="45.25792040922388" lon="9.678139843476993"><ele>49.0</ele><time>2026-04-06T09:16:52Z</time></trkpt><trkpt lat="45.25785537087433" lon="9.678200384141684"><ele>49.0</ele><time>2026-04-06T09:16:54Z</time></trkpt><trkpt lat="45.25777262205777" lon="9.678249244997144"><ele>49.0</ele><time>2026-04-06T09:16:56Z</time></trkpt><trkpt lat="45.25770521884646" lon="9.678301369473152"><ele>49.0</ele><time>2026-04-06T09:16:57Z</time></trkpt><trkpt lat="45.25762326564784" lon="9.678374922248603"><ele>49.0</ele><time>2026-04-06T09:16:58Z</time></trkpt><trkpt lat="45.25752875835912" lon="9.678463071927206"><ele>49.0</ele><time>2026-04-06T09:16:59Z</time></trkpt><trkpt lat="45.25743022673644" lon="9.678548974870012"><ele>49.166666666666664</ele><time>2026-04-06T09:17:00Z</time></trkpt><trkpt lat="45.257345196365705" lon="9.678619815679559"><ele>49.33333333333333</ele><time>2026-04-06T09:17:01Z</time></trkpt><trkpt lat="45.257279847476966" lon="9.678667207418494"><ele>49.5</ele><time>2026-04-06T09:17:02Z</time></trkpt><trkpt lat="45.25725963188115" lon="9.678770482792494"><ele>49.66666666666667</ele><time>2026-04-06T09:17:06Z</time></trkpt><trkpt lat="45.25719698121701" lon="9.678851402678466"><ele>49.833333333333336</ele><time>2026-04-06T09:17:08Z</time></trkpt><trkpt lat="45.257108524120575" lon="9.67885713341362"><ele>50.0</ele><time>2026-04-06T09:17:09Z</time></trkpt><trkpt lat="45.25700754797891" lon="9.67885750930107"><ele>50.00000000000001</ele><time>2026-04-06T09:17:10Z</time></trkpt><trkpt lat="45.25692586173928" lon="9.678895898797553"><ele>50.0</ele><time>2026-04-06T09:17:11Z</time></trkpt><trkpt lat="45.25686328304224" lon="9.67895788868581"><ele>50.0</ele><time>2026-04-06T09:17:12Z</time></trkpt><trkpt lat="45.256807086758315" lon="9.67902810193163"><ele>50.0</ele><time>2026-04-06T09:17:13Z</time></trkpt><trkpt lat="45.256743995808236" lon="9.679113074654271"><ele>50.00000000000001</ele><time>2026-04-06T09:17:14Z</time></trkpt><trkpt lat="45.25669562679675" lon="9.679170806282968"><ele>50.0</ele><time>2026-04-06T09:17:15Z</time></trkpt><trkpt lat="45.25664444126434" lon="9.679250427998287"><ele>50.0</ele><time>2026-04-06T09:17:16Z</time></trkpt><trkpt lat="45.256580661020855" lon="9.679389831155776"><ele>50.0</ele><time>2026-04-06T09:17:17Z</time></trkpt><trkpt lat="45.256516631872515" lon="9.679528078042816"><ele>50.0</ele><time>2026-04-06T09:17:18Z</time></trkpt><trkpt lat="45.256464138041196" lon="9.679658781079084"><ele>50.0</ele><time>2026-04-06T09:17:19Z</time></trkpt><trkpt lat="45.25641222602382" lon="9.679792194744588"><ele>50.0</ele><time>2026-04-06T09:17:20Z</time></trkpt><trkpt lat="45.25637029448977" lon="9.679870545656694"><ele>49.50000000000001</ele><time>2026-04-06T09:17:21Z</time></trkpt><trkpt lat="45.25633631976173" lon="9.679951391754761"><ele>49.0</ele><time>2026-04-06T09:17:23Z</time></trkpt><trkpt lat="45.256272160644706" lon="9.680115117855097"><ele>48.5</ele><time>2026-04-06T09:17:25Z</time></trkpt><trkpt lat="45.256231982750585" lon="9.680216846297602"><ele>48.0</ele><time>2026-04-06T09:17:26Z</time></trkpt><trkpt lat="45.25619962599777" lon="9.680307413865219"><ele>47.5</ele><time>2026-04-06T09:17:27Z</time></trkpt><trkpt lat="45.25616699014231" lon="9.680391845965655"><ele>47.0</ele><time>2026-04-06T09:17:28Z</time></trkpt><trkpt lat="45.25613025949134" lon="9.680495334470969"><ele>46.8</ele><time>2026-04-06T09:17:29Z</time></trkpt><trkpt lat="45.25608446439879" lon="9.680639973272621"><ele>46.6</ele><time>2026-04-06T09:17:30Z</time></trkpt><trkpt lat="45.256039907686855" lon="9.680780263143411"><ele>46.4</ele><time>2026-04-06T09:17:31Z</time></trkpt><trkpt lat="45.25600823275003" lon="9.680896182453468"><ele>46.199999999999996</ele><time>2026-04-06T09:17:32Z</time></trkpt><trkpt lat="45.255995348835064" lon="9.681001759053641"><ele>46.0</ele><time>2026-04-06T09:17:33Z</time></trkpt><trkpt lat="45.2559796530157" lon="9.68109745523416"><ele>46.16666666666667</ele><time>2026-04-06T09:17:34Z</time></trkpt><trkpt lat="45.25597227573092" lon="9.681209256283722"><ele>46.333333333333336</ele><time>2026-04-06T09:17:36Z</time></trkpt><trkpt lat="45.25592742796079" lon="9.681273859223804"><ele>46.5</ele><time>2026-04-06T09:17:42Z</time></trkpt><trkpt lat="45.255816185201525" lon="9.681289880708912"><ele>46.666666666666664</ele><time>2026-04-06T09:17:45Z</time></trkpt><trkpt lat="45.25574675889896" lon="9.681304174519376"><ele>46.83333333333333</ele><time>2026-04-06T09:17:47Z</time></trkpt><trkpt lat="45.25581759126684" lon="9.68129475399907"><ele>47.0</ele><time>2026-04-06T09:18:36Z</time></trkpt><trkpt lat="45.25591205456344" lon="9.681277219722451"><ele>47.0</ele><time>2026-04-06T09:18:39Z</time></trkpt><trkpt lat="45.25599073717958" lon="9.681248310633135"><ele>47.0</ele><time>2026-04-06T09:18:42Z</time></trkpt><trkpt lat="45.256087927992574" lon="9.681278227182814"><ele>47.0</ele><time>2026-04-06T09:18:45Z</time></trkpt><trkpt lat="45.25623237325441" lon="9.681264261318134"><ele>47.0</ele><time>2026-04-06T09:18:47Z</time></trkpt><trkpt lat="45.2563360821997" lon="9.681256910595934"><ele>47.0</ele><time>2026-04-06T09:18:48Z</time></trkpt><trkpt lat="45.25643031280445" lon="9.6812480801928"><ele>47.8</ele><time>2026-04-06T09:18:49Z</time></trkpt><trkpt lat="45.25651779029457" lon="9.681234749091368"><ele>48.6</ele><time>2026-04-06T09:18:50Z</time></trkpt><trkpt lat="45.256610513494465" lon="9.68121877219694"><ele>49.4</ele><time>2026-04-06T09:18:51Z</time></trkpt><trkpt lat="45.25670439756524" lon="9.68120957445238"><ele>50.199999999999996</ele><time>2026-04-06T09:18:52Z</time></trkpt><trkpt lat="45.25680198181169" lon="9.681203589736988"><ele>51.0</ele><time>2026-04-06T09:18:53Z</time></trkpt><trkpt lat="45.25689369713152" lon="9.68119424470674"><ele>51.0</ele><time>2026-04-06T09:18:54Z</time></trkpt><trkpt lat="45.256987848182874" lon="9.681189933940537"><ele>51.0</ele><time>2026-04-06T09:18:55Z</time></trkpt><trkpt lat="45.25708605565036" lon="9.68118435689138"><ele>51.0</ele><time>2026-04-06T09:18:56Z</time></trkpt><trkpt lat="45.25719834347891" lon="9.681167597456069"><ele>51.0</ele><time>2026-04-06T09:18:57Z</time></trkpt><trkpt lat="45.25730818350185" lon="9.6811583517117"><ele>51.0</ele><time>2026-04-06T09:18:58Z</time></trkpt><trkpt lat="45.25740170067221" lon="9.681159480310574"><ele>51.0</ele><time>2026-04-06T09:18:59Z</time></trkpt><trkpt lat="45.25749182950827" lon="9.681157518410501"><ele>51.0</ele><time>2026-04-06T09:19:00Z</time></trkpt><trkpt lat="45.25756445051369" lon="9.681147477799339"><ele>51.0</ele><time>2026-04-06T09:19:01Z</time></trkpt><trkpt lat="45.25763038793758" lon="9.681145689099758"><ele>51.0</ele><time>2026-04-06T09:19:02Z</time></trkpt><trkpt lat="45.257695228492324" lon="9.681141317936145"><ele>51.0</ele><time>2026-04-06T09:19:03Z</time></trkpt><trkpt lat="45.25779480216258" lon="9.681137391634929"><ele>51.0</ele><time>2026-04-06T09:19:04Z</time></trkpt><trkpt lat="45.25789740858474" lon="9.681134327701395"><ele>51.0</ele><time>2026-04-06T09:19:05Z</time></trkpt><trkpt lat="45.25799674831912" lon="9.681131412506112"><ele>51.0</ele><time>2026-04-06T09:19:06Z</time></trkpt><trkpt lat="45.2581147885584" lon="9.681126332242473"><ele>51.0</ele><time>2026-04-06T09:19:07Z</time></trkpt><trkpt lat="45.258238864897706" lon="9.681118697467085"><ele>51.0</ele><time>2026-04-06T09:19:08Z</time></trkpt><trkpt lat="45.258359744303945" lon="9.681112719746315"><ele>51.0</ele><time>2026-04-06T09:19:09Z</time></trkpt><trkpt lat="45.25847171310563" lon="9.681102367844671"><ele>51.0</ele><time>2026-04-06T09:19:10Z</time></trkpt><trkpt lat="45.25857056183998" lon="9.681089727707711"><ele>51.0</ele><time>2026-04-06T09:19:11Z</time></trkpt><trkpt lat="45.25867080537591" lon="9.681084501943868"><ele>51.0</ele><time>2026-04-06T09:19:12Z</time></trkpt><trkpt lat="45.258761485262205" lon="9.68107573417299"><ele>51.0</ele><time>2026-04-06T09:19:13Z</time></trkpt><trkpt lat="45.25883559243384" lon="9.681064804747942"><ele>51.0</ele><time>2026-04-06T09:19:14Z</time></trkpt><trkpt lat="45.25890740596725" lon="9.681051437073759"><ele>51.0</ele><time>2026-04-06T09:19:15Z</time></trkpt><trkpt lat="45.259000373486685" lon="9.681046974099017"><ele>51.0</ele><time>2026-04-06T09:19:16Z</time></trkpt><trkpt lat="45.259093491406816" lon="9.681039331547995"><ele>51.0</ele><time>2026-04-06T09:19:17Z</time></trkpt><trkpt lat="45.25919631459691" lon="9.681036678717808"><ele>51.0</ele><time>2026-04-06T09:19:18Z</time></trkpt><trkpt lat="45.25929529998571" lon="9.68102593798093"><ele>51.0</ele><time>2026-04-06T09:19:19Z</time></trkpt><trkpt lat="45.25938388532453" lon="9.681012622235288"><ele>51.0</ele><time>2026-04-06T09:19:20Z</time></trkpt><trkpt lat="45.25947941952644" lon="9.68101283704813"><ele>51.0</ele><time>2026-04-06T09:19:21Z</time></trkpt><trkpt lat="45.259569854421635" lon="9.68100037253275"><ele>51.0</ele><time>2026-04-06T09:19:22Z</time></trkpt><trkpt lat="45.259658838966395" lon="9.68099649281774"><ele>51.0</ele><time>2026-04-06T09:19:23Z</time></trkpt><trkpt lat="45.25975818618842" lon="9.68099180031319"><ele>50.666666666666664</ele><time>2026-04-06T09:19:25Z</time></trkpt><trkpt lat="45.25984222577761" lon="9.681028503793144"><ele>50.33333333333333</ele><time>2026-04-06T09:19:28Z</time></trkpt><trkpt lat="45.25987466753806" lon="9.68114530431523"><ele>50.0</ele><time>2026-04-06T09:19:31Z</time></trkpt><trkpt lat="45.25988830026771" lon="9.681267513097815"><ele>49.666666666666664</ele><time>2026-04-06T09:19:32Z</time></trkpt><trkpt lat="45.25990396737785" lon="9.681382609519622"><ele>49.33333333333333</ele><time>2026-04-06T09:19:33Z</time></trkpt><trkpt lat="45.25993344199966" lon="9.68149420625261"><ele>49.0</ele><time>2026-04-06T09:19:34Z</time></trkpt><trkpt lat="45.25997483215369" lon="9.681611756430572"><ele>49.0</ele><time>2026-04-06T09:19:35Z</time></trkpt><trkpt lat="45.26001744757802" lon="9.681708276949218"><ele>49.0</ele><time>2026-04-06T09:19:36Z</time></trkpt><trkpt lat="45.26006899229912" lon="9.681815304227452"><ele>49.0</ele><time>2026-04-06T09:19:37Z</time></trkpt><trkpt lat="45.26013557582033" lon="9.681935737681657"><ele>49.0</ele><time>2026-04-06T09:19:38Z</time></trkpt><trkpt lat="45.26019722015599" lon="9.682045699202446"><ele>49.0</ele><time>2026-04-06T09:19:39Z</time></trkpt><trkpt lat="45.26024597278178" lon="9.682139086971493"><ele>49.400000000000006</ele><time>2026-04-06T09:19:40Z</time></trkpt><trkpt lat="45.26030508832516" lon="9.682240017031"><ele>49.8</ele><time>2026-04-06T09:19:41Z</time></trkpt><trkpt lat="45.26036587458031" lon="9.682353303294077"><ele>50.2</ele><time>2026-04-06T09:19:42Z</time></trkpt><trkpt lat="45.26042779907296" lon="9.682467345898994"><ele>50.599999999999994</ele><time>2026-04-06T09:19:43Z</time></trkpt><trkpt lat="45.26050135241058" lon="9.682599322182899"><ele>51.0</ele><time>2026-04-06T09:19:44Z</time></trkpt><trkpt lat="45.260563869712186" lon="9.682711600668767"><ele>50.599999999999994</ele><time>2026-04-06T09:19:45Z</time></trkpt><trkpt lat="45.26062097953699" lon="9.68279359055118"><ele>50.2</ele><time>2026-04-06T09:19:46Z</time></trkpt><trkpt lat="45.26068419298726" lon="9.682883343041127"><ele>49.8</ele><time>2026-04-06T09:19:47Z</time></trkpt><trkpt lat="45.260755956761706" lon="9.682971615455612"><ele>49.400000000000006</ele><time>2026-04-06T09:19:48Z</time></trkpt><trkpt lat="45.26084531635359" lon="9.68307209878723"><ele>49.0</ele><time>2026-04-06T09:19:49Z</time></trkpt><trkpt lat="45.260954389905734" lon="9.683160878240864"><ele>49.0</ele><time>2026-04-06T09:19:50Z</time></trkpt><trkpt lat="45.261077632379234" lon="9.683265596697815"><ele>49.0</ele><time>2026-04-06T09:19:51Z</time></trkpt><trkpt lat="45.261185300110135" lon="9.683343210142633"><ele>49.0</ele><time>2026-04-06T09:19:52Z</time></trkpt><trkpt lat="45.261285310286624" lon="9.683418899561174"><ele>49.0</ele><time>2026-04-06T09:19:53Z</time></trkpt><trkpt lat="45.261393409459345" lon="9.683490698615078"><ele>49.0</ele><time>2026-04-06T09:19:54Z</time></trkpt><trkpt lat="45.26150312710783" lon="9.68354971595812"><ele>49.0</ele><time>2026-04-06T09:19:55Z</time></trkpt><trkpt lat="45.26164172880049" lon="9.68361241382554"><ele>49.0</ele><time>2026-04-06T09:19:56Z</time></trkpt><trkpt lat="45.26179163090203" lon="9.683671301837006"><ele>49.0</ele><time>2026-04-06T09:19:57Z</time></trkpt><trkpt lat="45.26191781621825" lon="9.683719935137944"><ele>49.25</ele><time>2026-04-06T09:19:58Z</time></trkpt><trkpt lat="45.26204432562216" lon="9.683769259399464"><ele>49.5</ele><time>2026-04-06T09:19:59Z</time></trkpt><trkpt lat="45.262150010657805" lon="9.683824831653792"><ele>49.75</ele><time>2026-04-06T09:20:00Z</time></trkpt><trkpt lat="45.26226545652124" lon="9.6838586605532"><ele>50.0</ele><time>2026-04-06T09:20:01Z</time></trkpt><trkpt lat="45.26236510425053" lon="9.683890246372291"><ele>50.25</ele><time>2026-04-06T09:20:02Z</time></trkpt><trkpt lat="45.26247415138543" lon="9.683917881642701"><ele>50.5</ele><time>2026-04-06T09:20:03Z</time></trkpt><trkpt lat="45.26259680164711" lon="9.683949124712392"><ele>50.75</ele><time>2026-04-06T09:20:04Z</time></trkpt><trkpt lat="45.262714673546945" lon="9.683984044324793"><ele>51.0</ele><time>2026-04-06T09:20:05Z</time></trkpt><trkpt lat="45.26284936043626" lon="9.684029818704524"><ele>51.0</ele><time>2026-04-06T09:20:06Z</time></trkpt><trkpt lat="45.262987772463056" lon="9.68409712796471"><ele>51.0</ele><time>2026-04-06T09:20:07Z</time></trkpt><trkpt lat="45.26312711552402" lon="9.684154345792063"><ele>51.0</ele><time>2026-04-06T09:20:08Z</time></trkpt><trkpt lat="45.26325577865743" lon="9.684201131645644"><ele>51.0</ele><time>2026-04-06T09:20:09Z</time></trkpt><trkpt lat="45.26337422142141" lon="9.68424677033084"><ele>51.25</ele><time>2026-04-06T09:20:10Z</time></trkpt><trkpt lat="45.26349815166" lon="9.684291289109655"><ele>51.5</ele><time>2026-04-06T09:20:11Z</time></trkpt><trkpt lat="45.26360876615447" lon="9.684326387695231"><ele>51.75</ele><time>2026-04-06T09:20:12Z</time></trkpt><trkpt lat="45.263715627653994" lon="9.684357624404067"><ele>52.0</ele><time>2026-04-06T09:20:13Z</time></trkpt><trkpt lat="45.26382739660585" lon="9.684403322841286"><ele>51.75</ele><time>2026-04-06T09:20:14Z</time></trkpt><trkpt lat="45.26393701142723" lon="9.68445856553632"><ele>51.5</ele><time>2026-04-06T09:20:15Z</time></trkpt><trkpt lat="45.264039713753405" lon="9.68451217355122"><ele>51.25</ele><time>2026-04-06T09:20:16Z</time></trkpt><trkpt lat="45.264141374809654" lon="9.68456243244235"><ele>51.0</ele><time>2026-04-06T09:20:17Z</time></trkpt><trkpt lat="45.26425159735618" lon="9.684617427052283"><ele>51.0</ele><time>2026-04-06T09:20:18Z</time></trkpt><trkpt lat="45.26435137418273" lon="9.684665098995438"><ele>51.0</ele><time>2026-04-06T09:20:19Z</time></trkpt><trkpt lat="45.26443499129764" lon="9.684717957700546"><ele>51.0</ele><time>2026-04-06T09:20:20Z</time></trkpt><trkpt lat="45.26451592828052" lon="9.684782232431717"><ele>51.0</ele><time>2026-04-06T09:20:21Z</time></trkpt><trkpt lat="45.264591742014446" lon="9.684853517062807"><ele>51.0</ele><time>2026-04-06T09:20:22Z</time></trkpt><trkpt lat="45.26469040532766" lon="9.684962836953277"><ele>50.5</ele><time>2026-04-06T09:20:23Z</time></trkpt><trkpt lat="45.26479510571642" lon="9.68507952183507"><ele>50.0</ele><time>2026-04-06T09:20:24Z</time></trkpt><trkpt lat="45.2648839528533" lon="9.68518557681852"><ele>49.5</ele><time>2026-04-06T09:20:25Z</time></trkpt><trkpt lat="45.26496019932671" lon="9.68529037205504"><ele>49.0</ele><time>2026-04-06T09:20:26Z</time></trkpt><trkpt lat="45.265039836385526" lon="9.685416203946021"><ele>49.0</ele><time>2026-04-06T09:20:27Z</time></trkpt><trkpt lat="45.26512033545649" lon="9.685568826349163"><ele>49.0</ele><time>2026-04-06T09:20:28Z</time></trkpt><trkpt lat="45.265202968180255" lon="9.685756898628922"><ele>49.0</ele><time>2026-04-06T09:20:29Z</time></trkpt><trkpt lat="45.26528075806284" lon="9.685930816096448"><ele>49.0</ele><time>2026-04-06T09:20:30Z</time></trkpt><trkpt lat="45.26534477949548" lon="9.686087444580394"><ele>48.75</ele><time>2026-04-06T09:20:31Z</time></trkpt><trkpt lat="45.26540603411836" lon="9.686238612717856"><ele>48.5</ele><time>2026-04-06T09:20:32Z</time></trkpt><trkpt lat="45.265461026080715" lon="9.686387463897406"><ele>48.25</ele><time>2026-04-06T09:20:33Z</time></trkpt><trkpt lat="45.26550809137947" lon="9.686536359025531"><ele>48.0</ele><time>2026-04-06T09:20:34Z</time></trkpt><trkpt lat="45.265547510855264" lon="9.686682625251542"><ele>48.0</ele><time>2026-04-06T09:20:35Z</time></trkpt><trkpt lat="45.26558925718153" lon="9.68683900777472"><ele>48.0</ele><time>2026-04-06T09:20:36Z</time></trkpt><trkpt lat="45.26561789696159" lon="9.68697612618588"><ele>48.0</ele><time>2026-04-06T09:20:37Z</time></trkpt><trkpt lat="45.26563148252692" lon="9.687122182459944"><ele>48.0</ele><time>2026-04-06T09:20:38Z</time></trkpt><trkpt lat="45.26564058904778" lon="9.687341577315815"><ele>48.4</ele><time>2026-04-06T09:20:39Z</time></trkpt><trkpt lat="45.265640259823854" lon="9.68754439565794"><ele>48.8</ele><time>2026-04-06T09:20:40Z</time></trkpt><trkpt lat="45.26564298566571" lon="9.687700518752933"><ele>49.2</ele><time>2026-04-06T09:20:41Z</time></trkpt><trkpt lat="45.265640898408115" lon="9.687820566644712"><ele>49.6</ele><time>2026-04-06T09:20:42Z</time></trkpt><trkpt lat="45.265647510703786" lon="9.687953368455855"><ele>50.0</ele><time>2026-04-06T09:20:43Z</time></trkpt><trkpt lat="45.26565658564465" lon="9.688091070193952"><ele>50.00000000000001</ele><time>2026-04-06T09:20:44Z</time></trkpt><trkpt lat="45.26566471244903" lon="9.68820023651037"><ele>50.0</ele><time>2026-04-06T09:20:45Z</time></trkpt><trkpt lat="45.26567629795445" lon="9.68829189633213"><ele>50.0</ele><time>2026-04-06T09:20:46Z</time></trkpt><trkpt lat="45.265731720807636" lon="9.688401051541478"><ele>50.0</ele><time>2026-04-06T09:20:48Z</time></trkpt><trkpt lat="45.26585518337472" lon="9.688458604859981"><ele>50.00000000000001</ele><time>2026-04-06T09:20:50Z</time></trkpt><trkpt lat="45.26592156828863" lon="9.688484512871726"><ele>50.0</ele><time>2026-04-06T09:20:51Z</time></trkpt><trkpt lat="45.26605726135122" lon="9.688540033614876"><ele>50.00000000000001</ele><time>2026-04-06T09:20:53Z</time></trkpt><trkpt lat="45.266147500393366" lon="9.688584318924287"><ele>50.0</ele><time>2026-04-06T09:20:54Z</time></trkpt><trkpt lat="45.266222635914296" lon="9.688603416499168"><ele>50.0</ele><time>2026-04-06T09:20:55Z</time></trkpt><trkpt lat="45.26629138164843" lon="9.688596491934385"><ele>50.0</ele><time>2026-04-06T09:20:56Z</time></trkpt><trkpt lat="45.266360251345766" lon="9.688568343510337"><ele>50.00000000000001</ele><time>2026-04-06T09:20:57Z</time></trkpt><trkpt lat="45.266439812721934" lon="9.688509869910243"><ele>50.0</ele><time>2026-04-06T09:20:58Z</time></trkpt><trkpt lat="45.26650612456709" lon="9.688429474814894"><ele>50.0</ele><time>2026-04-06T09:20:59Z</time></trkpt><trkpt lat="45.266577171394005" lon="9.688335752159198"><ele>50.0</ele><time>2026-04-06T09:21:00Z</time></trkpt><trkpt lat="45.266650532048715" lon="9.68825557621751"><ele>50.0</ele><time>2026-04-06T09:21:01Z</time></trkpt><trkpt lat="45.26670531643472" lon="9.688190699272184"><ele>50.0</ele><time>2026-04-06T09:21:02Z</time></trkpt><trkpt lat="45.266855446258326" lon="9.68802004585876"><ele>50.0</ele><time>2026-04-06T09:21:04Z</time></trkpt><trkpt lat="45.26692656852872" lon="9.687948815850106"><ele>50.0</ele><time>2026-04-06T09:21:05Z</time></trkpt><trkpt lat="45.26701061003857" lon="9.687884350797546"><ele>50.0</ele><time>2026-04-06T09:21:06Z</time></trkpt><trkpt lat="45.26708714798731" lon="9.687828487527451"><ele>50.0</ele><time>2026-04-06T09:21:07Z</time></trkpt><trkpt lat="45.267180262742386" lon="9.687775803478527"><ele>50.0</ele><time>2026-04-06T09:21:08Z</time></trkpt><trkpt lat="45.26727885556237" lon="9.687740926403256"><ele>50.2</ele><time>2026-04-06T09:21:09Z</time></trkpt><trkpt lat="45.26738675452747" lon="9.687711461846256"><ele>50.4</ele><time>2026-04-06T09:21:10Z</time></trkpt><trkpt lat="45.26749396886407" lon="9.687674133133632"><ele>50.599999999999994</ele><time>2026-04-06T09:21:11Z</time></trkpt><trkpt lat="45.26759890693396" lon="9.687638706193821"><ele>50.8</ele><time>2026-04-06T09:21:12Z</time></trkpt><trkpt lat="45.267690844464084" lon="9.687602839642725"><ele>51.0</ele><time>2026-04-06T09:21:13Z</time></trkpt><trkpt lat="45.26778519902524" lon="9.687560764547337"><ele>51.0</ele><time>2026-04-06T09:21:14Z</time></trkpt><trkpt lat="45.26788185586186" lon="9.687524211286966"><ele>51.0</ele><time>2026-04-06T09:21:15Z</time></trkpt><trkpt lat="45.26797925674372" lon="9.687483432049122"><ele>51.0</ele><time>2026-04-06T09:21:16Z</time></trkpt><trkpt lat="45.268075970625205" lon="9.68744216457992"><ele>51.0</ele><time>2026-04-06T09:21:17Z</time></trkpt><trkpt lat="45.26816450735537" lon="9.687402039772621"><ele>51.0</ele><time>2026-04-06T09:21:18Z</time></trkpt><trkpt lat="45.268250381007185" lon="9.687363118239453"><ele>51.0</ele><time>2026-04-06T09:21:19Z</time></trkpt><trkpt lat="45.268343849205685" lon="9.687328047384977"><ele>51.0</ele><time>2026-04-06T09:21:20Z</time></trkpt><trkpt lat="45.26842921318774" lon="9.687293719079538"><ele>51.0</ele><time>2026-04-06T09:21:21Z</time></trkpt><trkpt lat="45.268528477795606" lon="9.687256515266085"><ele>51.0</ele><time>2026-04-06T09:21:22Z</time></trkpt><trkpt lat="45.268605561142564" lon="9.687212535780445"><ele>51.0</ele><time>2026-04-06T09:21:23Z</time></trkpt><trkpt lat="45.268625655051096" lon="9.68699605839301"><ele>51.0</ele><time>2026-04-06T09:21:24Z</time></trkpt><trkpt lat="45.268728572402985" lon="9.687156179369675"><ele>51.0</ele><time>2026-04-06T09:21:25Z</time></trkpt><trkpt lat="45.26882681205306" lon="9.687110005035901"><ele>51.0</ele><time>2026-04-06T09:21:27Z</time></trkpt><trkpt lat="45.26890453021635" lon="9.687076384851945"><ele>51.0</ele><time>2026-04-06T09:21:28Z</time></trkpt><trkpt lat="45.26899744054314" lon="9.687075448775419"><ele>51.0</ele><time>2026-04-06T09:21:29Z</time></trkpt><trkpt lat="45.26906042132013" lon="9.687029205007722"><ele>51.199999999999996</ele><time>2026-04-06T09:21:30Z</time></trkpt><trkpt lat="45.26914594340448" lon="9.687016068183075"><ele>51.4</ele><time>2026-04-06T09:21:32Z</time></trkpt><trkpt lat="45.269216290459106" lon="9.687230957816583"><ele>51.6</ele><time>2026-04-06T09:21:36Z</time></trkpt><trkpt lat="45.269233260682796" lon="9.687327196950786"><ele>51.8</ele><time>2026-04-06T09:21:38Z</time></trkpt><trkpt lat="45.26924913213824" lon="9.687426319523464"><ele>52.0</ele><time>2026-04-06T09:21:40Z</time></trkpt><trkpt lat="45.26927464404111" lon="9.687520910987582"><ele>52.0</ele><time>2026-04-06T09:21:42Z</time></trkpt><trkpt lat="45.26932418596144" lon="9.687683812443789"><ele>52.0</ele><time>2026-04-06T09:21:44Z</time></trkpt><trkpt lat="45.26936072201447" lon="9.687820134980464"><ele>52.0</ele><time>2026-04-06T09:21:45Z</time></trkpt><trkpt lat="45.269404738033415" lon="9.68796699759862"><ele>52.0</ele><time>2026-04-06T09:21:46Z</time></trkpt><trkpt lat="45.26946530865093" lon="9.68812077541567"><ele>52.0</ele><time>2026-04-06T09:21:47Z</time></trkpt><trkpt lat="45.2695265019913" lon="9.688262265381036"><ele>52.0</ele><time>2026-04-06T09:21:48Z</time></trkpt><trkpt lat="45.26961201305894" lon="9.688417057987172"><ele>52.0</ele><time>2026-04-06T09:21:49Z</time></trkpt><trkpt lat="45.26970335883298" lon="9.688614355014577"><ele>52.0</ele><time>2026-04-06T09:21:50Z</time></trkpt><trkpt lat="45.26979873613282" lon="9.688763276915177"><ele>52.0</ele><time>2026-04-06T09:21:51Z</time></trkpt><trkpt lat="45.26987563835012" lon="9.688908119111128"><ele>52.0</ele><time>2026-04-06T09:21:52Z</time></trkpt><trkpt lat="45.26993490090822" lon="9.689057334434318"><ele>52.0</ele><time>2026-04-06T09:21:53Z</time></trkpt><trkpt lat="45.27002377051406" lon="9.689193552019027"><ele>52.0</ele><time>2026-04-06T09:21:54Z</time></trkpt><trkpt lat="45.27007831406368" lon="9.689361768980119"><ele>51.75</ele><time>2026-04-06T09:21:55Z</time></trkpt><trkpt lat="45.27014814067088" lon="9.689500429032725"><ele>51.5</ele><time>2026-04-06T09:21:56Z</time></trkpt><trkpt lat="45.27018892599851" lon="9.689675000101136"><ele>51.25</ele><time>2026-04-06T09:21:57Z</time></trkpt><trkpt lat="45.27025048501755" lon="9.689840521414999"><ele>51.0</ele><time>2026-04-06T09:21:58Z</time></trkpt><trkpt lat="45.270279431352364" lon="9.690007169941733"><ele>51.0</ele><time>2026-04-06T09:21:59Z</time></trkpt><trkpt lat="45.27033226532672" lon="9.690140019349673"><ele>51.0</ele><time>2026-04-06T09:22:00Z</time></trkpt><trkpt lat="45.27038884509517" lon="9.690261507831046"><ele>51.0</ele><time>2026-04-06T09:22:01Z</time></trkpt><trkpt lat="45.27046607322033" lon="9.690390878868806"><ele>51.0</ele><time>2026-04-06T09:22:02Z</time></trkpt><trkpt lat="45.270558284449194" lon="9.690537195107252"><ele>51.25</ele><time>2026-04-06T09:22:03Z</time></trkpt><trkpt lat="45.27064424391967" lon="9.690680479005977"><ele>51.5</ele><time>2026-04-06T09:22:04Z</time></trkpt><trkpt lat="45.27071327190165" lon="9.690814492903861"><ele>51.75</ele><time>2026-04-06T09:22:05Z</time></trkpt><trkpt lat="45.27076831092848" lon="9.690969476910178"><ele>52.0</ele><time>2026-04-06T09:22:06Z</time></trkpt><trkpt lat="45.270819846998606" lon="9.69111142755042"><ele>52.0</ele><time>2026-04-06T09:22:07Z</time></trkpt><trkpt lat="45.270874896004784" lon="9.691280912113971"><ele>52.0</ele><time>2026-04-06T09:22:08Z</time></trkpt><trkpt lat="45.27093812908803" lon="9.691463059582587"><ele>52.0</ele><time>2026-04-06T09:22:09Z</time></trkpt><trkpt lat="45.27096390924311" lon="9.691643143507946"><ele>52.0</ele><time>2026-04-06T09:22:10Z</time></trkpt><trkpt lat="45.270996146028736" lon="9.691804817881959"><ele>52.0</ele><time>2026-04-06T09:22:11Z</time></trkpt><trkpt lat="45.271022098589235" lon="9.692021337141743"><ele>52.0</ele><time>2026-04-06T09:22:12Z</time></trkpt><trkpt lat="45.271034345492794" lon="9.692215704659937"><ele>52.0</ele><time>2026-04-06T09:22:13Z</time></trkpt><trkpt lat="45.2710355743879" lon="9.69238777708109"><ele>52.0</ele><time>2026-04-06T09:22:14Z</time></trkpt><trkpt lat="45.2710340186462" lon="9.692539465924142"><ele>52.0</ele><time>2026-04-06T09:22:15Z</time></trkpt><trkpt lat="45.27105071230733" lon="9.692650691502733"><ele>52.0</ele><time>2026-04-06T09:22:16Z</time></trkpt><trkpt lat="45.27108638548053" lon="9.69278027668276"><ele>52.0</ele><time>2026-04-06T09:22:18Z</time></trkpt><trkpt lat="45.27120137573875" lon="9.692885224445796"><ele>52.0</ele><time>2026-04-06T09:22:20Z</time></trkpt><trkpt lat="45.27128276160445" lon="9.692938737247692"><ele>52.0</ele><time>2026-04-06T09:22:21Z</time></trkpt><trkpt lat="45.27137775806485" lon="9.692981418544383"><ele>52.400000000000006</ele><time>2026-04-06T09:22:22Z</time></trkpt><trkpt lat="45.271478616290906" lon="9.693019223827067"><ele>52.800000000000004</ele><time>2026-04-06T09:22:23Z</time></trkpt><trkpt lat="45.271560472834665" lon="9.693041889091694"><ele>53.2</ele><time>2026-04-06T09:22:24Z</time></trkpt><trkpt lat="45.2716516309002" lon="9.693058021905712"><ele>53.6</ele><time>2026-04-06T09:22:25Z</time></trkpt><trkpt lat="45.27176122555499" lon="9.693059089391875"><ele>54.0</ele><time>2026-04-06T09:22:26Z</time></trkpt><trkpt lat="45.271889425092525" lon="9.693090418421066"><ele>54.0</ele><time>2026-04-06T09:22:27Z</time></trkpt><trkpt lat="45.27200472977586" lon="9.693102635733228"><ele>54.00000000000001</ele><time>2026-04-06T09:22:28Z</time></trkpt><trkpt lat="45.27211178359949" lon="9.693093110503415"><ele>54.00000000000001</ele><time>2026-04-06T09:22:29Z</time></trkpt><trkpt lat="45.2722221515396" lon="9.69311449355177"><ele>54.0</ele><time>2026-04-06T09:22:30Z</time></trkpt><trkpt lat="45.27231850241257" lon="9.693139627556656"><ele>54.0</ele><time>2026-04-06T09:22:31Z</time></trkpt><trkpt lat="45.27240893327432" lon="9.693160270410628"><ele>53.833333333333336</ele><time>2026-04-06T09:22:32Z</time></trkpt><trkpt lat="45.27248805261772" lon="9.69317871926121"><ele>53.66666666666667</ele><time>2026-04-06T09:22:33Z</time></trkpt><trkpt lat="45.27258178731942" lon="9.693199502322374"><ele>53.5</ele><time>2026-04-06T09:22:35Z</time></trkpt><trkpt lat="45.27266294898964" lon="9.693229453989767"><ele>53.333333333333336</ele><time>2026-04-06T09:24:14Z</time></trkpt><trkpt lat="45.27276553488266" lon="9.69323025388468"><ele>53.16666666666667</ele><time>2026-04-06T09:24:16Z</time></trkpt><trkpt lat="45.272830048787725" lon="9.693265049496297"><ele>53.0</ele><time>2026-04-06T09:24:17Z</time></trkpt><trkpt lat="45.27291407427695" lon="9.69325901475545"><ele>53.0</ele><time>2026-04-06T09:24:18Z</time></trkpt><trkpt lat="45.27302369321731" lon="9.69328240091638"><ele>53.0</ele><time>2026-04-06T09:24:19Z</time></trkpt><trkpt lat="45.27313276041743" lon="9.693326813710813"><ele>53.0</ele><time>2026-04-06T09:24:20Z</time></trkpt><trkpt lat="45.27324663050009" lon="9.69334983055247"><ele>53.0</ele><time>2026-04-06T09:24:21Z</time></trkpt><trkpt lat="45.273372114800445" lon="9.693352671063055"><ele>53.25</ele><time>2026-04-06T09:24:22Z</time></trkpt><trkpt lat="45.27348844953812" lon="9.693393499934366"><ele>53.5</ele><time>2026-04-06T09:24:23Z</time></trkpt><trkpt lat="45.273600866681726" lon="9.693412092860255"><ele>53.75</ele><time>2026-04-06T09:24:24Z</time></trkpt><trkpt lat="45.273721464129025" lon="9.693408435139267"><ele>54.0</ele><time>2026-04-06T09:24:25Z</time></trkpt><trkpt lat="45.273840978234865" lon="9.693431943001626"><ele>54.5</ele><time>2026-04-06T09:24:26Z</time></trkpt><trkpt lat="45.2739654367647" lon="9.693472389895236"><ele>55.0</ele><time>2026-04-06T09:24:27Z</time></trkpt><trkpt lat="45.274096844352" lon="9.693472954485653"><ele>55.5</ele><time>2026-04-06T09:24:28Z</time></trkpt><trkpt lat="45.27421977425354" lon="9.69349453293806"><ele>56.0</ele><time>2026-04-06T09:24:29Z</time></trkpt><trkpt lat="45.27434896038471" lon="9.69353739207921"><ele>56.0</ele><time>2026-04-06T09:24:30Z</time></trkpt><trkpt lat="45.274472037532966" lon="9.693559291034093"><ele>56.0</ele><time>2026-04-06T09:24:31Z</time></trkpt><trkpt lat="45.27459971524283" lon="9.693583624452161"><ele>56.0</ele><time>2026-04-06T09:24:32Z</time></trkpt><trkpt lat="45.27473235490545" lon="9.693586239094138"><ele>56.0</ele><time>2026-04-06T09:24:33Z</time></trkpt><trkpt lat="45.27486583020013" lon="9.693636237025077"><ele>55.5</ele><time>2026-04-06T09:24:34Z</time></trkpt><trkpt lat="45.27500497943421" lon="9.693663869563217"><ele>55.0</ele><time>2026-04-06T09:24:35Z</time></trkpt><trkpt lat="45.275143838988924" lon="9.693691462948298"><ele>54.5</ele><time>2026-04-06T09:24:36Z</time></trkpt><trkpt lat="45.275287796225804" lon="9.693696298430948"><ele>54.0</ele><time>2026-04-06T09:24:37Z</time></trkpt><trkpt lat="45.275430087539206" lon="9.693721808580007"><ele>54.0</ele><time>2026-04-06T09:24:38Z</time></trkpt><trkpt lat="45.27556311486086" lon="9.693750246095577"><ele>54.0</ele><time>2026-04-06T09:24:39Z</time></trkpt><trkpt lat="45.275700043019356" lon="9.6937780614577"><ele>54.0</ele><time>2026-04-06T09:24:40Z</time></trkpt><trkpt lat="45.27582905656092" lon="9.693790447203487"><ele>54.0</ele><time>2026-04-06T09:24:41Z</time></trkpt><trkpt lat="45.27595839451359" lon="9.693839058558028"><ele>54.0</ele><time>2026-04-06T09:24:42Z</time></trkpt><trkpt lat="45.276093240283835" lon="9.693843709914034"><ele>54.0</ele><time>2026-04-06T09:24:43Z</time></trkpt><trkpt lat="45.27623118563942" lon="9.693873600452608"><ele>54.0</ele><time>2026-04-06T09:24:44Z</time></trkpt><trkpt lat="45.27636200143469" lon="9.693908256509252"><ele>54.0</ele><time>2026-04-06T09:24:45Z</time></trkpt><trkpt lat="45.27650135213552" lon="9.693902098334195"><ele>54.0</ele><time>2026-04-06T09:24:46Z</time></trkpt><trkpt lat="45.27664404932121" lon="9.693886501930265"><ele>54.0</ele><time>2026-04-06T09:24:47Z</time></trkpt><trkpt lat="45.276792708719874" lon="9.69388566801164"><ele>54.0</ele><time>2026-04-06T09:24:48Z</time></trkpt><trkpt lat="45.276933481904486" lon="9.69388763985743"><ele>54.0</ele><time>2026-04-06T09:24:49Z</time></trkpt><trkpt lat="45.2770633345148" lon="9.693887372479452"><ele>54.0</ele><time>2026-04-06T09:24:50Z</time></trkpt><trkpt lat="45.27719259148094" lon="9.693889356723043"><ele>54.0</ele><time>2026-04-06T09:24:51Z</time></trkpt><trkpt lat="45.277332467072256" lon="9.693837265546144"><ele>54.0</ele><time>2026-04-06T09:24:52Z</time></trkpt><trkpt lat="45.277481572212" lon="9.69384704980967"><ele>54.0</ele><time>2026-04-06T09:24:53Z</time></trkpt><trkpt lat="45.27762732007138" lon="9.693819821763485"><ele>53.33333333333333</ele><time>2026-04-06T09:24:54Z</time></trkpt><trkpt lat="45.27779508142391" lon="9.693805833455468"><ele>52.666666666666664</ele><time>2026-04-06T09:24:55Z</time></trkpt><trkpt lat="45.27794361534117" lon="9.693786853979724"><ele>52.0</ele><time>2026-04-06T09:24:56Z</time></trkpt><trkpt lat="45.27808643429392" lon="9.693773057606636"><ele>52.5</ele><time>2026-04-06T09:24:57Z</time></trkpt><trkpt lat="45.27822868021064" lon="9.693761120861641"><ele>53.0</ele><time>2026-04-06T09:24:58Z</time></trkpt><trkpt lat="45.278378905456705" lon="9.693752725531596"><ele>53.5</ele><time>2026-04-06T09:24:59Z</time></trkpt><trkpt lat="45.278525478169705" lon="9.693743729124996"><ele>54.0</ele><time>2026-04-06T09:25:00Z</time></trkpt><trkpt lat="45.27866985806802" lon="9.693732909865295"><ele>54.0</ele><time>2026-04-06T09:25:01Z</time></trkpt><trkpt lat="45.278810348773725" lon="9.693720692878934"><ele>54.0</ele><time>2026-04-06T09:25:02Z</time></trkpt><trkpt lat="45.278950217364326" lon="9.693707647706637"><ele>54.0</ele><time>2026-04-06T09:25:03Z</time></trkpt><trkpt lat="45.279071118149794" lon="9.693699357232848"><ele>54.0</ele><time>2026-04-06T09:25:04Z</time></trkpt><trkpt lat="45.2791888671614" lon="9.693689583245133"><ele>53.800000000000004</ele><time>2026-04-06T09:25:05Z</time></trkpt><trkpt lat="45.27928590573613" lon="9.693689422743219"><ele>53.60000000000001</ele><time>2026-04-06T09:25:06Z</time></trkpt><trkpt lat="45.27936655895959" lon="9.693684819701158"><ele>53.4</ele><time>2026-04-06T09:25:07Z</time></trkpt><trkpt lat="45.279461531367495" lon="9.693678416258532"><ele>53.2</ele><time>2026-04-06T09:25:09Z</time></trkpt><trkpt lat="45.27952409511737" lon="9.693800127530118"><ele>53.0</ele><time>2026-04-06T09:25:12Z</time></trkpt><trkpt lat="45.27954890627897" lon="9.69390810943312"><ele>53.0</ele><time>2026-04-06T09:25:13Z</time></trkpt><trkpt lat="45.27958413590011" lon="9.694047087557912"><ele>53.0</ele><time>2026-04-06T09:25:14Z</time></trkpt><trkpt lat="45.27962240187353" lon="9.694235520967444"><ele>53.0</ele><time>2026-04-06T09:25:15Z</time></trkpt><trkpt lat="45.279674108972785" lon="9.694447346750703"><ele>53.0</ele><time>2026-04-06T09:25:16Z</time></trkpt><trkpt lat="45.279728638793564" lon="9.694671165769364"><ele>53.333333333333336</ele><time>2026-04-06T09:25:17Z</time></trkpt><trkpt lat="45.27978321415851" lon="9.694903556863572"><ele>53.66666666666667</ele><time>2026-04-06T09:25:18Z</time></trkpt><trkpt lat="45.27983512550879" lon="9.69513977851539"><ele>54.0</ele><time>2026-04-06T09:25:19Z</time></trkpt><trkpt lat="45.2798814301691" lon="9.695406837751396"><ele>54.0</ele><time>2026-04-06T09:25:20Z</time></trkpt><trkpt lat="45.2799240997638" lon="9.695700102634628"><ele>54.0</ele><time>2026-04-06T09:25:21Z</time></trkpt><trkpt lat="45.27996748468591" lon="9.695985904076293"><ele>54.0</ele><time>2026-04-06T09:25:22Z</time></trkpt><trkpt lat="45.28001757752583" lon="9.69629146676647"><ele>54.0</ele><time>2026-04-06T09:25:23Z</time></trkpt><trkpt lat="45.28006533443454" lon="9.69659045031608"><ele>54.0</ele><time>2026-04-06T09:25:24Z</time></trkpt><trkpt lat="45.280116586443704" lon="9.69688278017038"><ele>54.0</ele><time>2026-04-06T09:25:25Z</time></trkpt><trkpt lat="45.280163847160104" lon="9.697168207464488"><ele>54.0</ele><time>2026-04-06T09:25:26Z</time></trkpt><trkpt lat="45.28020847319905" lon="9.697448035495652"><ele>54.0</ele><time>2026-04-06T09:25:27Z</time></trkpt><trkpt lat="45.280249780916485" lon="9.69771996111634"><ele>54.0</ele><time>2026-04-06T09:25:28Z</time></trkpt><trkpt lat="45.28028856750951" lon="9.69797683895708"><ele>54.25</ele><time>2026-04-06T09:25:29Z</time></trkpt><trkpt lat="45.28032508834805" lon="9.698205612860084"><ele>54.5</ele><time>2026-04-06T09:25:30Z</time></trkpt><trkpt lat="45.28035786664609" lon="9.698401500664657"><ele>54.75</ele><time>2026-04-06T09:25:31Z</time></trkpt><trkpt lat="45.280387940943676" lon="9.698589305995846"><ele>55.0</ele><time>2026-04-06T09:25:32Z</time></trkpt><trkpt lat="45.280419148552184" lon="9.69879808611591"><ele>56.0</ele><time>2026-04-06T09:25:33Z</time></trkpt><trkpt lat="45.280453217671685" lon="9.699010264220426"><ele>57.0</ele><time>2026-04-06T09:25:34Z</time></trkpt><trkpt lat="45.28049327313603" lon="9.699225234660581"><ele>58.0</ele><time>2026-04-06T09:25:35Z</time></trkpt><trkpt lat="45.28053025303874" lon="9.699430409318289"><ele>58.0</ele><time>2026-04-06T09:25:36Z</time></trkpt><trkpt lat="45.28055811174623" lon="9.69960970953115"><ele>58.0</ele><time>2026-04-06T09:25:37Z</time></trkpt><trkpt lat="45.28058030883942" lon="9.699752664326464"><ele>58.0</ele><time>2026-04-06T09:25:38Z</time></trkpt><trkpt lat="45.280598835170125" lon="9.699863230041561"><ele>58.0</ele><time>2026-04-06T09:25:39Z</time></trkpt><trkpt lat="45.28066213317565" lon="9.699987220041853"><ele>58.0</ele><time>2026-04-06T09:25:41Z</time></trkpt><trkpt lat="45.28078271810198" lon="9.700023126610013"><ele>57.25</ele><time>2026-04-06T09:25:43Z</time></trkpt><trkpt lat="45.2808732020445" lon="9.700016563107788"><ele>56.5</ele><time>2026-04-06T09:25:44Z</time></trkpt><trkpt lat="45.280989527664524" lon="9.700005884660882"><ele>55.75</ele><time>2026-04-06T09:25:45Z</time></trkpt><trkpt lat="45.281114106626475" lon="9.699998217381788"><ele>55.0</ele><time>2026-04-06T09:25:46Z</time></trkpt><trkpt lat="45.28125229839686" lon="9.699996660648523"><ele>55.0</ele><time>2026-04-06T09:25:47Z</time></trkpt><trkpt lat="45.2813947402592" lon="9.69999693356032"><ele>55.0</ele><time>2026-04-06T09:25:48Z</time></trkpt><trkpt lat="45.28154908166377" lon="9.699996894164592"><ele>55.0</ele><time>2026-04-06T09:25:49Z</time></trkpt><trkpt lat="45.28171977318898" lon="9.70000318203103"><ele>54.666666666666664</ele><time>2026-04-06T09:25:50Z</time></trkpt><trkpt lat="45.2819119574803" lon="9.699999996170298"><ele>54.33333333333333</ele><time>2026-04-06T09:25:51Z</time></trkpt><trkpt lat="45.28211370335557" lon="9.699991528721785"><ele>54.0</ele><time>2026-04-06T09:25:52Z</time></trkpt><trkpt lat="45.282306320782006" lon="9.699989150062162"><ele>54.0</ele><time>2026-04-06T09:25:53Z</time></trkpt><trkpt lat="45.28250914854397" lon="9.699989845304904"><ele>54.0</ele><time>2026-04-06T09:25:54Z</time></trkpt><trkpt lat="45.282714239812584" lon="9.699994566399177"><ele>54.0</ele><time>2026-04-06T09:25:55Z</time></trkpt><trkpt lat="45.28291386340092" lon="9.700000172505257"><ele>54.33333333333333</ele><time>2026-04-06T09:25:56Z</time></trkpt><trkpt lat="45.28309782891757" lon="9.70000176371935"><ele>54.666666666666664</ele><time>2026-04-06T09:25:57Z</time></trkpt><trkpt lat="45.283268990855696" lon="9.70000646101291"><ele>55.0</ele><time>2026-04-06T09:25:58Z</time></trkpt><trkpt lat="45.28344132876842" lon="9.700027037572422"><ele>55.0</ele><time>2026-04-06T09:25:59Z</time></trkpt><trkpt lat="45.283594153503266" lon="9.700040206274963"><ele>55.0</ele><time>2026-04-06T09:26:00Z</time></trkpt><trkpt lat="45.28371925325855" lon="9.700043405621516"><ele>55.0</ele><time>2026-04-06T09:26:01Z</time></trkpt><trkpt lat="45.28381641671377" lon="9.700037625595202"><ele>55.0</ele><time>2026-04-06T09:26:02Z</time></trkpt><trkpt lat="45.283900877940766" lon="9.700031559408705"><ele>54.99999999999999</ele><time>2026-04-06T09:26:03Z</time></trkpt><trkpt lat="45.283970285452" lon="9.700027441469139"><ele>55.0</ele><time>2026-04-06T09:26:04Z</time></trkpt><trkpt lat="45.28406918976024" lon="9.700025745803986"><ele>55.0</ele><time>2026-04-06T09:26:06Z</time></trkpt><trkpt lat="45.284132048262755" lon="9.700012844515093"><ele>55.0</ele><time>2026-04-06T09:26:10Z</time></trkpt><trkpt lat="45.28402761198427" lon="9.700017415813148"><ele>54.99999999999999</ele><time>2026-04-06T09:26:14Z</time></trkpt><trkpt lat="45.28393772613554" lon="9.700004931916169"><ele>55.0</ele><time>2026-04-06T09:26:15Z</time></trkpt><trkpt lat="45.28384123119768" lon="9.700017618056043"><ele>54.99999999999999</ele><time>2026-04-06T09:26:16Z</time></trkpt><trkpt lat="45.28373665643771" lon="9.700018365891555"><ele>55.0</ele><time>2026-04-06T09:26:17Z</time></trkpt><trkpt lat="45.28364754417755" lon="9.700019152383893"><ele>55.0</ele><time>2026-04-06T09:26:18Z</time></trkpt><trkpt lat="45.28356147056928" lon="9.700024247766205"><ele>55.0</ele><time>2026-04-06T09:26:19Z</time></trkpt><trkpt lat="45.283478863906346" lon="9.700023004087289"><ele>54.99999999999999</ele><time>2026-04-06T09:26:20Z</time></trkpt><trkpt lat="45.28339982185121" lon="9.700024543573672"><ele>55.0</ele><time>2026-04-06T09:26:21Z</time></trkpt><trkpt lat="45.283296540379524" lon="9.700042945123577"><ele>55.0</ele><time>2026-04-06T09:26:23Z</time></trkpt><trkpt lat="45.28325889076185" lon="9.700122947175691"><ele>55.0</ele><time>2026-04-06T09:26:25Z</time></trkpt><trkpt lat="45.283261964361095" lon="9.70023510958188"><ele>55.0</ele><time>2026-04-06T09:26:27Z</time></trkpt><trkpt lat="45.2832576691641" lon="9.70037452462757"><ele>55.0</ele><time>2026-04-06T09:26:29Z</time></trkpt><trkpt lat="45.28325371927627" lon="9.700531342929764"><ele>55.0</ele><time>2026-04-06T09:26:31Z</time></trkpt><trkpt lat="45.28324990583843" lon="9.70069529664107"><ele>55.2</ele><time>2026-04-06T09:26:33Z</time></trkpt><trkpt lat="45.2832419731151" lon="9.700861290808657"><ele>55.4</ele><time>2026-04-06T09:26:35Z</time></trkpt><trkpt lat="45.283239603773026" lon="9.701023820825638"><ele>55.599999999999994</ele><time>2026-04-06T09:26:37Z</time></trkpt><trkpt lat="45.28323717291515" lon="9.701121335492024"><ele>55.8</ele><time>2026-04-06T09:26:38Z</time></trkpt><trkpt lat="45.283230775887716" lon="9.701242493989003"><ele>56.0</ele><time>2026-04-06T09:26:39Z</time></trkpt><trkpt lat="45.283227234298245" lon="9.701375916302585"><ele>55.4</ele><time>2026-04-06T09:26:40Z</time></trkpt><trkpt lat="45.28322300932482" lon="9.701506161033778"><ele>54.8</ele><time>2026-04-06T09:26:41Z</time></trkpt><trkpt lat="45.2832168559324" lon="9.701643348530402"><ele>54.199999999999996</ele><time>2026-04-06T09:26:42Z</time></trkpt><trkpt lat="45.28321253043134" lon="9.70178127098497"><ele>53.599999999999994</ele><time>2026-04-06T09:26:43Z</time></trkpt><trkpt lat="45.28320710553325" lon="9.701917894129837"><ele>53.0</ele><time>2026-04-06T09:26:44Z</time></trkpt><trkpt lat="45.28320054308818" lon="9.7020450616685"><ele>53.0</ele><time>2026-04-06T09:26:45Z</time></trkpt><trkpt lat="45.283197794571" lon="9.70217353060355"><ele>53.0</ele><time>2026-04-06T09:26:46Z</time></trkpt><trkpt lat="45.283198285243344" lon="9.702302534941362"><ele>53.0</ele><time>2026-04-06T09:26:47Z</time></trkpt><trkpt lat="45.283195785492026" lon="9.70243430492413"><ele>53.0</ele><time>2026-04-06T09:26:48Z</time></trkpt><trkpt lat="45.283186965225134" lon="9.702578076428257"><ele>53.0</ele><time>2026-04-06T09:26:49Z</time></trkpt><trkpt lat="45.28318293137614" lon="9.702723901924685"><ele>53.599999999999994</ele><time>2026-04-06T09:26:50Z</time></trkpt><trkpt lat="45.28318492969512" lon="9.702873342833804"><ele>54.199999999999996</ele><time>2026-04-06T09:26:51Z</time></trkpt><trkpt lat="45.28318841304917" lon="9.703032813419492"><ele>54.8</ele><time>2026-04-06T09:26:52Z</time></trkpt><trkpt lat="45.28319020873189" lon="9.703181606733375"><ele>55.4</ele><time>2026-04-06T09:26:53Z</time></trkpt><trkpt lat="45.283191594881536" lon="9.70331493003619"><ele>56.0</ele><time>2026-04-06T09:26:54Z</time></trkpt><trkpt lat="45.283191134393405" lon="9.70342325064183"><ele>55.599999999999994</ele><time>2026-04-06T09:26:55Z</time></trkpt><trkpt lat="45.2831937784375" lon="9.703586384212349"><ele>55.199999999999996</ele><time>2026-04-06T09:26:57Z</time></trkpt><trkpt lat="45.28322479715876" lon="9.703746629349146"><ele>54.800000000000004</ele><time>2026-04-06T09:26:59Z</time></trkpt><trkpt lat="45.28326209414779" lon="9.703824110530956"><ele>54.400000000000006</ele><time>2026-04-06T09:27:00Z</time></trkpt><trkpt lat="45.28331427606008" lon="9.703890047674868"><ele>54.0</ele><time>2026-04-06T09:27:01Z</time></trkpt><trkpt lat="45.2833837754229" lon="9.703959667407416"><ele>54.0</ele><time>2026-04-06T09:27:02Z</time></trkpt><trkpt lat="45.28345897809613" lon="9.70401681143496"><ele>54.0</ele><time>2026-04-06T09:27:03Z</time></trkpt><trkpt lat="45.28352835683946" lon="9.704077447899381"><ele>54.0</ele><time>2026-04-06T09:27:04Z</time></trkpt><trkpt lat="45.2836006011141" lon="9.704150467623249"><ele>54.0</ele><time>2026-04-06T09:27:05Z</time></trkpt><trkpt lat="45.28367626294232" lon="9.704228451011929"><ele>54.0</ele><time>2026-04-06T09:27:06Z</time></trkpt><trkpt lat="45.28373816939582" lon="9.704306918124747"><ele>54.0</ele><time>2026-04-06T09:27:07Z</time></trkpt><trkpt lat="45.2837863829034" lon="9.70439582915904"><ele>54.166666666666664</ele><time>2026-04-06T09:27:08Z</time></trkpt><trkpt lat="45.28382902536943" lon="9.704495573224065"><ele>54.33333333333333</ele><time>2026-04-06T09:27:09Z</time></trkpt><trkpt lat="45.28385501544034" lon="9.704598660359487"><ele>54.5</ele><time>2026-04-06T09:27:10Z</time></trkpt><trkpt lat="45.283871752537806" lon="9.70471536613003"><ele>54.666666666666664</ele><time>2026-04-06T09:27:11Z</time></trkpt><trkpt lat="45.28387687518185" lon="9.704845435463898"><ele>54.83333333333333</ele><time>2026-04-06T09:27:12Z</time></trkpt><trkpt lat="45.283886214447946" lon="9.704976123917577"><ele>55.0</ele><time>2026-04-06T09:27:13Z</time></trkpt><trkpt lat="45.28390060774751" lon="9.70510103022927"><ele>54.99999999999999</ele><time>2026-04-06T09:27:14Z</time></trkpt><trkpt lat="45.28391185419555" lon="9.70523024873387"><ele>55.0</ele><time>2026-04-06T09:27:15Z</time></trkpt><trkpt lat="45.28391547637669" lon="9.705366145966867"><ele>55.0</ele><time>2026-04-06T09:27:16Z</time></trkpt><trkpt lat="45.28392191720468" lon="9.705500800253468"><ele>55.0</ele><time>2026-04-06T09:27:17Z</time></trkpt><trkpt lat="45.28393329697716" lon="9.70562079581112"><ele>54.99999999999999</ele><time>2026-04-06T09:27:18Z</time></trkpt><trkpt lat="45.28396574647009" lon="9.705716444392973"><ele>55.0</ele><time>2026-04-06T09:27:19Z</time></trkpt><trkpt lat="45.28402011146264" lon="9.705793831467894"><ele>55.0</ele><time>2026-04-06T09:27:20Z</time></trkpt><trkpt lat="45.28409231012625" lon="9.705871032511254"><ele>55.0</ele><time>2026-04-06T09:27:21Z</time></trkpt><trkpt lat="45.28418242549078" lon="9.705931251257113"><ele>55.0</ele><time>2026-04-06T09:27:22Z</time></trkpt><trkpt lat="45.284272857345925" lon="9.705971082906395"><ele>55.0</ele><time>2026-04-06T09:27:23Z</time></trkpt><trkpt lat="45.28436337412355" lon="9.706024271886967"><ele>55.0</ele><time>2026-04-06T09:27:24Z</time></trkpt><trkpt lat="45.284448368721684" lon="9.7061011608996"><ele>55.0</ele><time>2026-04-06T09:27:25Z</time></trkpt><trkpt lat="45.28452590236191" lon="9.70619221558149"><ele>55.0</ele><time>2026-04-06T09:27:26Z</time></trkpt><trkpt lat="45.28460661881943" lon="9.706276847210495"><ele>55.0</ele><time>2026-04-06T09:27:27Z</time></trkpt><trkpt lat="45.2846894094904" lon="9.706362263752274"><ele>55.0</ele><time>2026-04-06T09:27:28Z</time></trkpt><trkpt lat="45.28477340713714" lon="9.706456785672511"><ele>55.0</ele><time>2026-04-06T09:27:29Z</time></trkpt><trkpt lat="45.284849971940254" lon="9.706539625521138"><ele>55.2</ele><time>2026-04-06T09:27:30Z</time></trkpt><trkpt lat="45.28493473969465" lon="9.706594370492429"><ele>55.4</ele><time>2026-04-06T09:27:31Z</time></trkpt><trkpt lat="45.285018040667396" lon="9.706630453092572"><ele>55.599999999999994</ele><time>2026-04-06T09:27:32Z</time></trkpt><trkpt lat="45.28509425014443" lon="9.706643234071223"><ele>55.8</ele><time>2026-04-06T09:27:33Z</time></trkpt><trkpt lat="45.28516577321137" lon="9.706642546439182"><ele>56.0</ele><time>2026-04-06T09:27:34Z</time></trkpt><trkpt lat="45.28530159389909" lon="9.7066682972723"><ele>56.0</ele><time>2026-04-06T09:27:36Z</time></trkpt><trkpt lat="45.285390072767555" lon="9.706692006588721"><ele>55.99999999999999</ele><time>2026-04-06T09:27:37Z</time></trkpt><trkpt lat="45.28549189996814" lon="9.70671656127655"><ele>55.99999999999999</ele><time>2026-04-06T09:27:38Z</time></trkpt><trkpt lat="45.28561882075428" lon="9.706738416704601"><ele>56.0</ele><time>2026-04-06T09:27:39Z</time></trkpt><trkpt lat="45.28574127227898" lon="9.706744814105623"><ele>56.0</ele><time>2026-04-06T09:27:40Z</time></trkpt><trkpt lat="45.28584735322622" lon="9.70674297047377"><ele>56.16666666666667</ele><time>2026-04-06T09:27:41Z</time></trkpt><trkpt lat="45.28593433804815" lon="9.706742498830058"><ele>56.333333333333336</ele><time>2026-04-06T09:27:42Z</time></trkpt><trkpt lat="45.28600486908627" lon="9.706751257132781"><ele>56.5</ele><time>2026-04-06T09:27:43Z</time></trkpt><trkpt lat="45.28606946819396" lon="9.706745547959756"><ele>56.66666666666667</ele><time>2026-04-06T09:27:46Z</time></trkpt><trkpt lat="45.28612898273177" lon="9.706904889599144"><ele>56.833333333333336</ele><time>2026-04-06T09:27:49Z</time></trkpt><trkpt lat="45.28612164156478" lon="9.70703244126489"><ele>57.0</ele><time>2026-04-06T09:27:50Z</time></trkpt><trkpt lat="45.28611848767295" lon="9.707150610717505"><ele>57.2</ele><time>2026-04-06T09:27:51Z</time></trkpt><trkpt lat="45.28611969218779" lon="9.707272292667598"><ele>57.400000000000006</ele><time>2026-04-06T09:27:52Z</time></trkpt><trkpt lat="45.28612344721679" lon="9.707382656339623"><ele>57.599999999999994</ele><time>2026-04-06T09:27:53Z</time></trkpt><trkpt lat="45.286119613913115" lon="9.707505581208983"><ele>57.8</ele><time>2026-04-06T09:27:54Z</time></trkpt><trkpt lat="45.28612135321056" lon="9.707651538508356"><ele>58.0</ele><time>2026-04-06T09:27:55Z</time></trkpt><trkpt lat="45.28611854646014" lon="9.707807526350912"><ele>58.2</ele><time>2026-04-06T09:27:56Z</time></trkpt><trkpt lat="45.286116769755004" lon="9.707958649246985"><ele>58.4</ele><time>2026-04-06T09:27:57Z</time></trkpt><trkpt lat="45.28612831051553" lon="9.708099844197116"><ele>58.60000000000001</ele><time>2026-04-06T09:27:58Z</time></trkpt><trkpt lat="45.286137355940056" lon="9.708257726364915"><ele>58.800000000000004</ele><time>2026-04-06T09:27:59Z</time></trkpt><trkpt lat="45.286126349872376" lon="9.708431347820651"><ele>59.0</ele><time>2026-04-06T09:28:00Z</time></trkpt><trkpt lat="45.28611428499269" lon="9.708614721465636"><ele>60.0</ele><time>2026-04-06T09:28:01Z</time></trkpt><trkpt lat="45.28610131267311" lon="9.708794699389374"><ele>61.0</ele><time>2026-04-06T09:28:02Z</time></trkpt><trkpt lat="45.2860893815479" lon="9.708961316151742"><ele>62.0</ele><time>2026-04-06T09:28:03Z</time></trkpt><trkpt lat="45.286081816675434" lon="9.709115420011988"><ele>63.0</ele><time>2026-04-06T09:28:04Z</time></trkpt><trkpt lat="45.286078077443946" lon="9.709259592218961"><ele>63.0</ele><time>2026-04-06T09:28:05Z</time></trkpt><trkpt lat="45.2860696583526" lon="9.709393411491508"><ele>63.0</ele><time>2026-04-06T09:28:06Z</time></trkpt><trkpt lat="45.28605426182576" lon="9.709523065403342"><ele>63.0</ele><time>2026-04-06T09:28:07Z</time></trkpt><trkpt lat="45.28604066336002" lon="9.709640855318128"><ele>63.0</ele><time>2026-04-06T09:28:08Z</time></trkpt><trkpt lat="45.28602541114803" lon="9.709746549587733"><ele>63.0</ele><time>2026-04-06T09:28:09Z</time></trkpt><trkpt lat="45.285994071523255" lon="9.709878580749292"><ele>63.0</ele><time>2026-04-06T09:28:11Z</time></trkpt><trkpt lat="45.2858909616331" lon="9.709897012753451"><ele>63.166666666666664</ele><time>2026-04-06T09:28:13Z</time></trkpt><trkpt lat="45.28582713061379" lon="9.70985670586063"><ele>63.33333333333333</ele><time>2026-04-06T09:28:14Z</time></trkpt><trkpt lat="45.28575121783741" lon="9.709818424514129"><ele>63.5</ele><time>2026-04-06T09:28:15Z</time></trkpt><trkpt lat="45.28568023505633" lon="9.709793814797333"><ele>63.666666666666664</ele><time>2026-04-06T09:28:16Z</time></trkpt><trkpt lat="45.2855586452301" lon="9.70977397184024"><ele>63.83333333333333</ele><time>2026-04-06T09:28:18Z</time></trkpt><trkpt lat="45.28549004396384" lon="9.709783200094172"><ele>64.0</ele><time>2026-04-06T09:28:19Z</time></trkpt><trkpt lat="45.28541612123537" lon="9.709803395064034"><ele>63.99999999999999</ele><time>2026-04-06T09:28:20Z</time></trkpt><trkpt lat="45.2853436553555" lon="9.709828588850835"><ele>64.0</ele><time>2026-04-06T09:28:21Z</time></trkpt><trkpt lat="45.28527782862509" lon="9.709871999130316"><ele>64.0</ele><time>2026-04-06T09:28:22Z</time></trkpt><trkpt lat="45.28520821823617" lon="9.709953570761623"><ele>64.0</ele><time>2026-04-06T09:28:23Z</time></trkpt><trkpt lat="45.28514031322183" lon="9.710056405341025"><ele>63.99999999999999</ele><time>2026-04-06T09:28:24Z</time></trkpt><trkpt lat="45.2850912608264" lon="9.710166372321288"><ele>64.0</ele><time>2026-04-06T09:28:25Z</time></trkpt><trkpt lat="45.285041346408" lon="9.710266098866752"><ele>63.99999999999999</ele><time>2026-04-06T09:28:26Z</time></trkpt><trkpt lat="45.28499305871104" lon="9.710361312898602"><ele>64.0</ele><time>2026-04-06T09:28:27Z</time></trkpt><trkpt lat="45.284948947585235" lon="9.710453006845968"><ele>64.0</ele><time>2026-04-06T09:28:28Z</time></trkpt><trkpt lat="45.284906872390884" lon="9.710545707469247"><ele>64.0</ele><time>2026-04-06T09:28:29Z</time></trkpt><trkpt lat="45.28486612689351" lon="9.710635292018273"><ele>63.99999999999999</ele><time>2026-04-06T09:28:30Z</time></trkpt><trkpt lat="45.28482817808936" lon="9.710720940202135"><ele>64.0</ele><time>2026-04-06T09:28:31Z</time></trkpt><trkpt lat="45.28479084238891" lon="9.710805234770682"><ele>62.800000000000004</ele><time>2026-04-06T09:28:32Z</time></trkpt><trkpt lat="45.28474727367141" lon="9.710882647075024"><ele>61.60000000000001</ele><time>2026-04-06T09:28:33Z</time></trkpt><trkpt lat="45.28466833416467" lon="9.711019576183995"><ele>60.4</ele><time>2026-04-06T09:28:35Z</time></trkpt><trkpt lat="45.28458117444383" lon="9.7111132322423"><ele>59.2</ele><time>2026-04-06T09:28:37Z</time></trkpt><trkpt lat="45.284517811663605" lon="9.711197358861693"><ele>58.0</ele><time>2026-04-06T09:28:39Z</time></trkpt><trkpt lat="45.28440988450476" lon="9.711177962027998"><ele>57.599999999999994</ele><time>2026-04-06T09:28:41Z</time></trkpt><trkpt lat="45.28432051010239" lon="9.711165639544754"><ele>57.199999999999996</ele><time>2026-04-06T09:28:42Z</time></trkpt><trkpt lat="45.28421758379323" lon="9.711124870354281"><ele>56.8</ele><time>2026-04-06T09:28:43Z</time></trkpt><trkpt lat="45.28411259320205" lon="9.711096386895143"><ele>56.4</ele><time>2026-04-06T09:28:44Z</time></trkpt><trkpt lat="45.28401077509557" lon="9.711084231817287"><ele>56.0</ele><time>2026-04-06T09:28:45Z</time></trkpt><trkpt lat="45.28388661108876" lon="9.711081557596213"><ele>55.75</ele><time>2026-04-06T09:28:46Z</time></trkpt><trkpt lat="45.28375847996562" lon="9.711093320088372"><ele>55.5</ele><time>2026-04-06T09:28:47Z</time></trkpt><trkpt lat="45.283632704873696" lon="9.711103268734519"><ele>55.25</ele><time>2026-04-06T09:28:48Z</time></trkpt><trkpt lat="45.28350994727318" lon="9.711106349374296"><ele>55.0</ele><time>2026-04-06T09:28:49Z</time></trkpt><trkpt lat="45.28340443089009" lon="9.711112767901007"><ele>55.0</ele><time>2026-04-06T09:28:50Z</time></trkpt><trkpt lat="45.28330434039401" lon="9.711117796754815"><ele>55.0</ele><time>2026-04-06T09:28:51Z</time></trkpt><trkpt lat="45.28321690809801" lon="9.711124762072652"><ele>55.0</ele><time>2026-04-06T09:28:52Z</time></trkpt><trkpt lat="45.2831413339268" lon="9.711130423045711"><ele>55.0</ele><time>2026-04-06T09:28:53Z</time></trkpt><trkpt lat="45.283047456313795" lon="9.711141235450235"><ele>55.0</ele><time>2026-04-06T09:28:55Z</time></trkpt><trkpt lat="45.28295247574967" lon="9.711138540083757"><ele>55.8</ele><time>2026-04-06T09:29:00Z</time></trkpt><trkpt lat="45.28285458258631" lon="9.711150245409161"><ele>56.6</ele><time>2026-04-06T09:29:02Z</time></trkpt><trkpt lat="45.28277216619003" lon="9.711162636663211"><ele>57.400000000000006</ele><time>2026-04-06T09:29:04Z</time></trkpt><trkpt lat="45.28269354135995" lon="9.711145587754606"><ele>58.2</ele><time>2026-04-06T09:29:06Z</time></trkpt><trkpt lat="45.282698086817526" lon="9.71134920192403"><ele>59.0</ele><time>2026-04-06T09:29:07Z</time></trkpt><trkpt lat="45.28272283260561" lon="9.711433052813888"><ele>59.00000000000001</ele><time>2026-04-06T09:29:08Z</time></trkpt><trkpt lat="45.28275619482947" lon="9.711508926984775"><ele>59.0</ele><time>2026-04-06T09:29:09Z</time></trkpt><trkpt lat="45.28281160841971" lon="9.711615838065448"><ele>59.0</ele><time>2026-04-06T09:29:11Z</time></trkpt><trkpt lat="45.28285774601364" lon="9.711722249650919"><ele>59.0</ele><time>2026-04-06T09:29:13Z</time></trkpt><trkpt lat="45.28289647363354" lon="9.711800272191358"><ele>59.00000000000001</ele><time>2026-04-06T09:29:16Z</time></trkpt><trkpt lat="45.28285302197265" lon="9.711672890251732"><ele>59.0</ele><time>2026-04-06T09:29:38Z</time></trkpt><trkpt lat="45.2828285277036" lon="9.711558336819955"><ele>59.0</ele><time>2026-04-06T09:29:40Z</time></trkpt><trkpt lat="45.282776196479546" lon="9.711492179724326"><ele>59.00000000000001</ele><time>2026-04-06T09:29:42Z</time></trkpt><trkpt lat="45.282727740366205" lon="9.71136688611669"><ele>59.00000000000001</ele><time>2026-04-06T09:30:05Z</time></trkpt><trkpt lat="45.28276585715074" lon="9.711232624711705"><ele>59.0</ele><time>2026-04-06T09:30:07Z</time></trkpt><trkpt lat="45.28287230720612" lon="9.711176073667563"><ele>59.0</ele><time>2026-04-06T09:30:09Z</time></trkpt><trkpt lat="45.28295410499684" lon="9.71116694224415"><ele>59.0</ele><time>2026-04-06T09:30:10Z</time></trkpt><trkpt lat="45.283055867269795" lon="9.711168132817335"><ele>59.00000000000001</ele><time>2026-04-06T09:30:11Z</time></trkpt><trkpt lat="45.283166950373484" lon="9.711163850683834"><ele>59.00000000000001</ele><time>2026-04-06T09:30:12Z</time></trkpt><trkpt lat="45.283278705498816" lon="9.711155900477403"><ele>59.0</ele><time>2026-04-06T09:30:13Z</time></trkpt><trkpt lat="45.283391719101054" lon="9.711153229796631"><ele>59.0</ele><time>2026-04-06T09:30:14Z</time></trkpt><trkpt lat="45.283500868757365" lon="9.711150847867279"><ele>58.400000000000006</ele><time>2026-04-06T09:30:15Z</time></trkpt><trkpt lat="45.2836085098646" lon="9.711141023716971"><ele>57.800000000000004</ele><time>2026-04-06T09:30:16Z</time></trkpt><trkpt lat="45.283713466566134" lon="9.711130225949022"><ele>57.199999999999996</ele><time>2026-04-06T09:30:17Z</time></trkpt><trkpt lat="45.283810325754054" lon="9.711123086590645"><ele>56.599999999999994</ele><time>2026-04-06T09:30:18Z</time></trkpt><trkpt lat="45.283903217299944" lon="9.71111844976588"><ele>56.0</ele><time>2026-04-06T09:30:19Z</time></trkpt><trkpt lat="45.2839997432114" lon="9.711119641610214"><ele>56.0</ele><time>2026-04-06T09:30:20Z</time></trkpt><trkpt lat="45.284095446714986" lon="9.711137041511218"><ele>55.99999999999999</ele><time>2026-04-06T09:30:21Z</time></trkpt><trkpt lat="45.28419177358588" lon="9.711155174171928"><ele>55.99999999999999</ele><time>2026-04-06T09:30:21.999Z</time></trkpt><trkpt lat="45.284291461382196" lon="9.711185191471769"><ele>56.0</ele><time>2026-04-06T09:30:22.999Z</time></trkpt><trkpt lat="45.28439326769493" lon="9.711231306558757"><ele>56.0</ele><time>2026-04-06T09:30:23.999Z</time></trkpt><trkpt lat="45.284502200181095" lon="9.71129550706082"><ele>56.0</ele><time>2026-04-06T09:30:24.999Z</time></trkpt><trkpt lat="45.284610761740204" lon="9.711375512027287"><ele>56.0</ele><time>2026-04-06T09:30:25.999Z</time></trkpt><trkpt lat="45.28471746239631" lon="9.71146737019144"><ele>56.0</ele><time>2026-04-06T09:30:26.999Z</time></trkpt><trkpt lat="45.28480871116397" lon="9.711575370019569"><ele>56.0</ele><time>2026-04-06T09:30:27.999Z</time></trkpt><trkpt lat="45.28488886683481" lon="9.711690446518423"><ele>56.0</ele><time>2026-04-06T09:30:28.999Z</time></trkpt><trkpt lat="45.28496516318944" lon="9.711807199108934"><ele>56.0</ele><time>2026-04-06T09:30:29.999Z</time></trkpt><trkpt lat="45.285045603556284" lon="9.711939567412298"><ele>56.0</ele><time>2026-04-06T09:30:30.999Z</time></trkpt><trkpt lat="45.285139369038696" lon="9.712086545558787"><ele>56.0</ele><time>2026-04-06T09:30:31.999Z</time></trkpt><trkpt lat="45.28523328795266" lon="9.712237256450727"><ele>56.0</ele><time>2026-04-06T09:30:33Z</time></trkpt><trkpt lat="45.285327510247065" lon="9.712383794790817"><ele>56.0</ele><time>2026-04-06T09:30:34Z</time></trkpt><trkpt lat="45.28541714183081" lon="9.712516575013412"><ele>56.0</ele><time>2026-04-06T09:30:35Z</time></trkpt><trkpt lat="45.285508221577" lon="9.712651928491223"><ele>56.0</ele><time>2026-04-06T09:30:36Z</time></trkpt><trkpt lat="45.28560338786633" lon="9.712784300627165"><ele>56.75</ele><time>2026-04-06T09:30:37Z</time></trkpt><trkpt lat="45.285698497058114" lon="9.712909889671023"><ele>57.5</ele><time>2026-04-06T09:30:38Z</time></trkpt><trkpt lat="45.28579444672902" lon="9.71302632592121"><ele>58.25</ele><time>2026-04-06T09:30:39Z</time></trkpt><trkpt lat="45.2858958672284" lon="9.713138413944181"><ele>59.0</ele><time>2026-04-06T09:30:40Z</time></trkpt><trkpt lat="45.28600360855271" lon="9.713231806628045"><ele>59.0</ele><time>2026-04-06T09:30:41Z</time></trkpt><trkpt lat="45.286106306622656" lon="9.713304226520576"><ele>59.00000000000001</ele><time>2026-04-06T09:30:42Z</time></trkpt><trkpt lat="45.28620468460338" lon="9.713364512878204"><ele>59.00000000000001</ele><time>2026-04-06T09:30:43Z</time></trkpt><trkpt lat="45.28629745061332" lon="9.713419111653925"><ele>59.0</ele><time>2026-04-06T09:30:44Z</time></trkpt><trkpt lat="45.28636816822404" lon="9.713460341991379"><ele>59.0</ele><time>2026-04-06T09:30:45Z</time></trkpt><trkpt lat="45.28642279739568" lon="9.713526808454061"><ele>59.400000000000006</ele><time>2026-04-06T09:30:48Z</time></trkpt><trkpt lat="45.286524105160794" lon="9.713506401234943"><ele>59.800000000000004</ele><time>2026-04-06T09:31:24Z</time></trkpt><trkpt lat="45.286620854507525" lon="9.713530123954337"><ele>60.199999999999996</ele><time>2026-04-06T09:31:25Z</time></trkpt><trkpt lat="45.286719283292136" lon="9.71355452172588"><ele>60.599999999999994</ele><time>2026-04-06T09:31:26Z</time></trkpt><trkpt lat="45.28681228779107" lon="9.713572999423578"><ele>61.0</ele><time>2026-04-06T09:31:27Z</time></trkpt><trkpt lat="45.28692814859454" lon="9.713588529141651"><ele>61.0</ele><time>2026-04-06T09:31:28Z</time></trkpt><trkpt lat="45.28704541313053" lon="9.71358259187051"><ele>61.0</ele><time>2026-04-06T09:31:29Z</time></trkpt><trkpt lat="45.28716255038514" lon="9.713558358938906"><ele>61.0</ele><time>2026-04-06T09:31:30Z</time></trkpt><trkpt lat="45.287311765205715" lon="9.713519269480653"><ele>61.0</ele><time>2026-04-06T09:31:31Z</time></trkpt><trkpt lat="45.287472362082966" lon="9.713460190836205"><ele>61.33333333333333</ele><time>2026-04-06T09:31:32Z</time></trkpt><trkpt lat="45.2876244907769" lon="9.713383432754318"><ele>61.66666666666667</ele><time>2026-04-06T09:31:33Z</time></trkpt><trkpt lat="45.28779355942473" lon="9.713273799337811"><ele>62.0</ele><time>2026-04-06T09:31:34Z</time></trkpt><trkpt lat="45.287953976713155" lon="9.713141057945132"><ele>62.0</ele><time>2026-04-06T09:31:35Z</time></trkpt><trkpt lat="45.28811356898875" lon="9.712985304885473"><ele>62.0</ele><time>2026-04-06T09:31:36Z</time></trkpt><trkpt lat="45.28827859052913" lon="9.712798673033545"><ele>62.0</ele><time>2026-04-06T09:31:37Z</time></trkpt><trkpt lat="45.288433668016026" lon="9.71261013502446"><ele>62.0</ele><time>2026-04-06T09:31:38Z</time></trkpt><trkpt lat="45.288588441514" lon="9.712417912956552"><ele>62.0</ele><time>2026-04-06T09:31:39Z</time></trkpt><trkpt lat="45.28872588096988" lon="9.71223626362789"><ele>62.0</ele><time>2026-04-06T09:31:40Z</time></trkpt><trkpt lat="45.288853621457086" lon="9.71205943434937"><ele>62.66666666666667</ele><time>2026-04-06T09:31:41Z</time></trkpt><trkpt lat="45.28896892200834" lon="9.711883935630715"><ele>63.33333333333333</ele><time>2026-04-06T09:31:42Z</time></trkpt><trkpt lat="45.28908941554909" lon="9.71169271128647"><ele>64.0</ele><time>2026-04-06T09:31:43Z</time></trkpt><trkpt lat="45.28918904316689" lon="9.711478210750073"><ele>64.0</ele><time>2026-04-06T09:31:44Z</time></trkpt><trkpt lat="45.28929168561977" lon="9.711273165187155"><ele>64.0</ele><time>2026-04-06T09:31:45Z</time></trkpt><trkpt lat="45.289385371572195" lon="9.711081459165303"><ele>64.0</ele><time>2026-04-06T09:31:46Z</time></trkpt><trkpt lat="45.28946754350402" lon="9.710905367746337"><ele>64.0</ele><time>2026-04-06T09:31:47Z</time></trkpt><trkpt lat="45.28955361402526" lon="9.710729687847355"><ele>64.0</ele><time>2026-04-06T09:31:48Z</time></trkpt><trkpt lat="45.28962784738762" lon="9.710576218393253"><ele>64.0</ele><time>2026-04-06T09:31:49Z</time></trkpt><trkpt lat="45.28970536096835" lon="9.71041960983393"><ele>64.0</ele><time>2026-04-06T09:31:50Z</time></trkpt><trkpt lat="45.28978551571345" lon="9.71027228362335"><ele>64.0</ele><time>2026-04-06T09:31:51Z</time></trkpt><trkpt lat="45.28987335569788" lon="9.710121104653549"><ele>64.0</ele><time>2026-04-06T09:31:52Z</time></trkpt><trkpt lat="45.28996374782621" lon="9.709976603318356"><ele>64.0</ele><time>2026-04-06T09:31:53Z</time></trkpt><trkpt lat="45.290065012179504" lon="9.70983024928906"><ele>64.0</ele><time>2026-04-06T09:31:54Z</time></trkpt><trkpt lat="45.29016986928934" lon="9.709683299140787"><ele>64.0</ele><time>2026-04-06T09:31:55Z</time></trkpt><trkpt lat="45.290283598049506" lon="9.70952484666687"><ele>64.0</ele><time>2026-04-06T09:31:56Z</time></trkpt><trkpt lat="45.290403759432785" lon="9.709372894148384"><ele>64.0</ele><time>2026-04-06T09:31:57Z</time></trkpt><trkpt lat="45.2905204569236" lon="9.709226914598894"><ele>63.75</ele><time>2026-04-06T09:31:58Z</time></trkpt><trkpt lat="45.29062540300594" lon="9.709099195329442"><ele>63.5</ele><time>2026-04-06T09:31:59Z</time></trkpt><trkpt lat="45.29072475554332" lon="9.708973293536015"><ele>63.25</ele><time>2026-04-06T09:32:00Z</time></trkpt><trkpt lat="45.290822271697486" lon="9.708855392249404"><ele>63.0</ele><time>2026-04-06T09:32:01Z</time></trkpt><trkpt lat="45.29093229868579" lon="9.708720142107051"><ele>61.66666666666667</ele><time>2026-04-06T09:32:02Z</time></trkpt><trkpt lat="45.291046548538894" lon="9.708574556445596"><ele>60.333333333333336</ele><time>2026-04-06T09:32:03Z</time></trkpt><trkpt lat="45.29116157465389" lon="9.708429465895756"><ele>59.0</ele><time>2026-04-06T09:32:04Z</time></trkpt><trkpt lat="45.29128539964266" lon="9.708278318622352"><ele>59.0</ele><time>2026-04-06T09:32:05Z</time></trkpt><trkpt lat="45.29141214723474" lon="9.708119537493161"><ele>59.0</ele><time>2026-04-06T09:32:06Z</time></trkpt><trkpt lat="45.291540442779315" lon="9.707957654678225"><ele>59.0</ele><time>2026-04-06T09:32:07Z</time></trkpt><trkpt lat="45.291667284835654" lon="9.707801323591925"><ele>59.0</ele><time>2026-04-06T09:32:08Z</time></trkpt><trkpt lat="45.29179879384184" lon="9.707634888976678"><ele>59.0</ele><time>2026-04-06T09:32:09Z</time></trkpt><trkpt lat="45.2919342564135" lon="9.70746463911015"><ele>59.0</ele><time>2026-04-06T09:32:10Z</time></trkpt><trkpt lat="45.292069843158984" lon="9.7072857589616"><ele>59.0</ele><time>2026-04-06T09:32:10.999Z</time></trkpt><trkpt lat="45.29219727893332" lon="9.707115254835507"><ele>59.0</ele><time>2026-04-06T09:32:11.999Z</time></trkpt><trkpt lat="45.29231832522481" lon="9.706939161256344"><ele>59.0</ele><time>2026-04-06T09:32:12.999Z</time></trkpt><trkpt lat="45.29243332364191" lon="9.706754090290783"><ele>61.0</ele><time>2026-04-06T09:32:13.999Z</time></trkpt><trkpt lat="45.29254670296005" lon="9.70656553561045"><ele>63.0</ele><time>2026-04-06T09:32:14.999Z</time></trkpt><trkpt lat="45.29266481160326" lon="9.706366238305918"><ele>65.0</ele><time>2026-04-06T09:32:15.999Z</time></trkpt><trkpt lat="45.2927822797502" lon="9.706171188457452"><ele>65.0</ele><time>2026-04-06T09:32:16.999Z</time></trkpt><trkpt lat="45.29289656082559" lon="9.705971854816536"><ele>65.0</ele><time>2026-04-06T09:32:17.999Z</time></trkpt><trkpt lat="45.293010605874514" lon="9.705769912967519"><ele>65.0</ele><time>2026-04-06T09:32:18.999Z</time></trkpt><trkpt lat="45.293123827536576" lon="9.705578084998974"><ele>65.0</ele><time>2026-04-06T09:32:19.999Z</time></trkpt><trkpt lat="45.29323239619132" lon="9.705391726281382"><ele>65.0</ele><time>2026-04-06T09:32:20.999Z</time></trkpt><trkpt lat="45.293335980237934" lon="9.705208294569236"><ele>65.0</ele><time>2026-04-06T09:32:21.999Z</time></trkpt><trkpt lat="45.29344483420662" lon="9.705026065305532"><ele>64.33333333333334</ele><time>2026-04-06T09:32:22.999Z</time></trkpt><trkpt lat="45.29355012478194" lon="9.704840172440065"><ele>63.66666666666667</ele><time>2026-04-06T09:32:23.999Z</time></trkpt><trkpt lat="45.29365811118498" lon="9.704649395040995"><ele>63.0</ele><time>2026-04-06T09:32:24.999Z</time></trkpt><trkpt lat="45.29377012477681" lon="9.704453115914053"><ele>63.33333333333333</ele><time>2026-04-06T09:32:25.999Z</time></trkpt><trkpt lat="45.29387681959522" lon="9.704266997955118"><ele>63.666666666666664</ele><time>2026-04-06T09:32:26.999Z</time></trkpt><trkpt lat="45.29397993497641" lon="9.704096574164769"><ele>64.0</ele><time>2026-04-06T09:32:27.999Z</time></trkpt><trkpt lat="45.294084463219754" lon="9.703925365886866"><ele>64.33333333333333</ele><time>2026-04-06T09:32:28.999Z</time></trkpt><trkpt lat="45.2941885849822" lon="9.703742862543653"><ele>64.66666666666667</ele><time>2026-04-06T09:32:29.999Z</time></trkpt><trkpt lat="45.294279980403644" lon="9.703578998705149"><ele>65.0</ele><time>2026-04-06T09:32:30.999Z</time></trkpt><trkpt lat="45.2943666613427" lon="9.703427934920981"><ele>65.25</ele><time>2026-04-06T09:32:31.999Z</time></trkpt><trkpt lat="45.29444993344415" lon="9.703281039671214"><ele>65.5</ele><time>2026-04-06T09:32:32.999Z</time></trkpt><trkpt lat="45.294525661860376" lon="9.703145762455843"><ele>65.75</ele><time>2026-04-06T09:32:33.999Z</time></trkpt><trkpt lat="45.29460220423245" lon="9.703015108011796"><ele>66.0</ele><time>2026-04-06T09:32:34.999Z</time></trkpt><trkpt lat="45.29468572081024" lon="9.702873686328246"><ele>65.75</ele><time>2026-04-06T09:32:35.999Z</time></trkpt><trkpt lat="45.29476720080385" lon="9.702734866211038"><ele>65.5</ele><time>2026-04-06T09:32:36.999Z</time></trkpt><trkpt lat="45.29484890768296" lon="9.702605366769152"><ele>65.25</ele><time>2026-04-06T09:32:37.999Z</time></trkpt><trkpt lat="45.29493577836677" lon="9.702480964660557"><ele>65.0</ele><time>2026-04-06T09:32:39Z</time></trkpt><trkpt lat="45.29502897456675" lon="9.702368208018367"><ele>65.0</ele><time>2026-04-06T09:32:40Z</time></trkpt><trkpt lat="45.29513639547466" lon="9.70227497806989"><ele>65.0</ele><time>2026-04-06T09:32:41Z</time></trkpt><trkpt lat="45.29524667551369" lon="9.70220486548419"><ele>65.0</ele><time>2026-04-06T09:32:42Z</time></trkpt><trkpt lat="45.295370823119235" lon="9.702134714698945"><ele>65.0</ele><time>2026-04-06T09:32:43Z</time></trkpt><trkpt lat="45.29549717716877" lon="9.70208660385484"><ele>65.0</ele><time>2026-04-06T09:32:44Z</time></trkpt><trkpt lat="45.29563213683944" lon="9.702048385117443"><ele>65.0</ele><time>2026-04-06T09:32:45Z</time></trkpt><trkpt lat="45.29576664837458" lon="9.702005476718954"><ele>65.0</ele><time>2026-04-06T09:32:46Z</time></trkpt><trkpt lat="45.29591711247967" lon="9.701959266845664"><ele>65.0</ele><time>2026-04-06T09:32:47Z</time></trkpt><trkpt lat="45.29608442951845" lon="9.701906448322177"><ele>65.33333333333334</ele><time>2026-04-06T09:32:48Z</time></trkpt><trkpt lat="45.29625674307836" lon="9.701846933727447"><ele>65.66666666666667</ele><time>2026-04-06T09:32:49Z</time></trkpt><trkpt lat="45.29643162566862" lon="9.701787925572205"><ele>66.0</ele><time>2026-04-06T09:32:50Z</time></trkpt><trkpt lat="45.29660604117708" lon="9.701731755776274"><ele>66.0</ele><time>2026-04-06T09:32:51Z</time></trkpt><trkpt lat="45.29678251625939" lon="9.701671331578337"><ele>66.0</ele><time>2026-04-06T09:32:52Z</time></trkpt><trkpt lat="45.29697602256012" lon="9.701608243371066"><ele>66.0</ele><time>2026-04-06T09:32:53Z</time></trkpt><trkpt lat="45.29718390274447" lon="9.70154190690139"><ele>65.66666666666667</ele><time>2026-04-06T09:32:54Z</time></trkpt><trkpt lat="45.29739241218048" lon="9.70147043029241"><ele>65.33333333333334</ele><time>2026-04-06T09:32:55Z</time></trkpt><trkpt lat="45.297598783705624" lon="9.701401080210134"><ele>65.0</ele><time>2026-04-06T09:32:56Z</time></trkpt><trkpt lat="45.29780651223024" lon="9.701339897597942"><ele>65.0</ele><time>2026-04-06T09:32:57Z</time></trkpt><trkpt lat="45.29800181624114" lon="9.70128919530073"><ele>65.0</ele><time>2026-04-06T09:32:58Z</time></trkpt><trkpt lat="45.298186791085335" lon="9.701241819874141"><ele>65.0</ele><time>2026-04-06T09:32:59Z</time></trkpt><trkpt lat="45.29837444901825" lon="9.701193282070928"><ele>65.0</ele><time>2026-04-06T09:33:00Z</time></trkpt><trkpt lat="45.29855985859986" lon="9.701148283838696"><ele>65.0</ele><time>2026-04-06T09:33:01Z</time></trkpt><trkpt lat="45.298745139479315" lon="9.701100779623564"><ele>65.0</ele><time>2026-04-06T09:33:02Z</time></trkpt><trkpt lat="45.29893372693968" lon="9.701049470624085"><ele>66.0</ele><time>2026-04-06T09:33:03Z</time></trkpt><trkpt lat="45.299122581704864" lon="9.700998865773688"><ele>67.0</ele><time>2026-04-06T09:33:04Z</time></trkpt><trkpt lat="45.29930955455548" lon="9.700952288307116"><ele>68.0</ele><time>2026-04-06T09:33:05Z</time></trkpt><trkpt lat="45.29949552033397" lon="9.700903421713276"><ele>68.0</ele><time>2026-04-06T09:33:06Z</time></trkpt><trkpt lat="45.29967781300734" lon="9.70085567831043"><ele>68.0</ele><time>2026-04-06T09:33:07Z</time></trkpt><trkpt lat="45.299859624241265" lon="9.700812711917283"><ele>68.0</ele><time>2026-04-06T09:33:08Z</time></trkpt><trkpt lat="45.30004641938467" lon="9.700764567845004"><ele>67.66666666666667</ele><time>2026-04-06T09:33:09Z</time></trkpt><trkpt lat="45.30023877238923" lon="9.70071339516527"><ele>67.33333333333333</ele><time>2026-04-06T09:33:10Z</time></trkpt><trkpt lat="45.30042795593223" lon="9.700665259078603"><ele>67.0</ele><time>2026-04-06T09:33:11Z</time></trkpt><trkpt lat="45.300613021284235" lon="9.700618105507635"><ele>66.66666666666666</ele><time>2026-04-06T09:33:12Z</time></trkpt><trkpt lat="45.30078338380436" lon="9.700573876133577"><ele>66.33333333333333</ele><time>2026-04-06T09:33:13Z</time></trkpt><trkpt lat="45.30094300057535" lon="9.7005320730278"><ele>66.0</ele><time>2026-04-06T09:33:14Z</time></trkpt><trkpt lat="45.301111700636454" lon="9.700489071036719"><ele>66.0</ele><time>2026-04-06T09:33:15Z</time></trkpt><trkpt lat="45.301285494741265" lon="9.700442308100897"><ele>66.0</ele><time>2026-04-06T09:33:16Z</time></trkpt><trkpt lat="45.30144791679873" lon="9.700401246705031"><ele>66.0</ele><time>2026-04-06T09:33:17Z</time></trkpt><trkpt lat="45.30162348414353" lon="9.700365756289436"><ele>66.66666666666667</ele><time>2026-04-06T09:33:18Z</time></trkpt><trkpt lat="45.30180081882564" lon="9.700339219445363"><ele>67.33333333333334</ele><time>2026-04-06T09:33:19Z</time></trkpt><trkpt lat="45.30196496790115" lon="9.700317628484955"><ele>68.0</ele><time>2026-04-06T09:33:20Z</time></trkpt><trkpt lat="45.30212764030429" lon="9.700300624074163"><ele>68.0</ele><time>2026-04-06T09:33:21Z</time></trkpt><trkpt lat="45.30228468741056" lon="9.700277511981298"><ele>68.0</ele><time>2026-04-06T09:33:22Z</time></trkpt><trkpt lat="45.302445886791446" lon="9.700254929207588"><ele>68.0</ele><time>2026-04-06T09:33:23Z</time></trkpt><trkpt lat="45.30260471085303" lon="9.700232659661424"><ele>68.0</ele><time>2026-04-06T09:33:24Z</time></trkpt><trkpt lat="45.30276933459517" lon="9.700203864775819"><ele>68.0</ele><time>2026-04-06T09:33:25Z</time></trkpt><trkpt lat="45.30293313729212" lon="9.700182097399614"><ele>68.0</ele><time>2026-04-06T09:33:26Z</time></trkpt><trkpt lat="45.30309872663473" lon="9.700162360320457"><ele>67.33333333333334</ele><time>2026-04-06T09:33:27Z</time></trkpt><trkpt lat="45.30327384994953" lon="9.700132116509518"><ele>66.66666666666667</ele><time>2026-04-06T09:33:28Z</time></trkpt><trkpt lat="45.30344331170252" lon="9.7001028091407"><ele>66.0</ele><time>2026-04-06T09:33:29Z</time></trkpt><trkpt lat="45.30360189698374" lon="9.700083470799092"><ele>66.0</ele><time>2026-04-06T09:33:30Z</time></trkpt><trkpt lat="45.30375738140216" lon="9.70006706919476"><ele>66.0</ele><time>2026-04-06T09:33:31Z</time></trkpt><trkpt lat="45.30391845411762" lon="9.700043899407184"><ele>66.0</ele><time>2026-04-06T09:33:32Z</time></trkpt><trkpt lat="45.30408166982113" lon="9.700012990440728"><ele>66.66666666666667</ele><time>2026-04-06T09:33:33Z</time></trkpt><trkpt lat="45.304235004069" lon="9.699989987219197"><ele>67.33333333333334</ele><time>2026-04-06T09:33:34Z</time></trkpt><trkpt lat="45.30438566723358" lon="9.699971586994764"><ele>68.0</ele><time>2026-04-06T09:33:35Z</time></trkpt><trkpt lat="45.30454377212356" lon="9.69995043391576"><ele>68.0</ele><time>2026-04-06T09:33:36Z</time></trkpt><trkpt lat="45.30469329227463" lon="9.699924744599958"><ele>68.0</ele><time>2026-04-06T09:33:37Z</time></trkpt><trkpt lat="45.3048367406336" lon="9.699903379938204"><ele>68.0</ele><time>2026-04-06T09:33:38Z</time></trkpt><trkpt lat="45.30498219562276" lon="9.699885859593088"><ele>68.0</ele><time>2026-04-06T09:33:39Z</time></trkpt><trkpt lat="45.30513458029845" lon="9.699868712840782"><ele>68.0</ele><time>2026-04-06T09:33:40Z</time></trkpt><trkpt lat="45.30526803043702" lon="9.699850719042965"><ele>68.0</ele><time>2026-04-06T09:33:41Z</time></trkpt><trkpt lat="45.305405705020526" lon="9.699833235597088"><ele>68.0</ele><time>2026-04-06T09:33:42Z</time></trkpt><trkpt lat="45.30555334325147" lon="9.6998128703956"><ele>68.0</ele><time>2026-04-06T09:33:43Z</time></trkpt><trkpt lat="45.30569010214468" lon="9.699789829233442"><ele>68.25</ele><time>2026-04-06T09:33:44Z</time></trkpt><trkpt lat="45.30581704827038" lon="9.699768913872477"><ele>68.5</ele><time>2026-04-06T09:33:45Z</time></trkpt><trkpt lat="45.30592957081006" lon="9.6997526076972"><ele>68.75</ele><time>2026-04-06T09:33:46Z</time></trkpt><trkpt lat="45.30605099797851" lon="9.699733665990133"><ele>69.0</ele><time>2026-04-06T09:33:47Z</time></trkpt><trkpt lat="45.306178693215855" lon="9.699713588530097"><ele>69.0</ele><time>2026-04-06T09:33:48Z</time></trkpt><trkpt lat="45.306288141935134" lon="9.699702212763615"><ele>69.0</ele><time>2026-04-06T09:33:49Z</time></trkpt><trkpt lat="45.30639280881836" lon="9.699695896583835"><ele>69.0</ele><time>2026-04-06T09:33:50Z</time></trkpt><trkpt lat="45.306491592078224" lon="9.699710203831724"><ele>69.0</ele><time>2026-04-06T09:33:51Z</time></trkpt><trkpt lat="45.306591013762684" lon="9.699747668506468"><ele>69.0</ele><time>2026-04-06T09:33:52Z</time></trkpt><trkpt lat="45.306676565355275" lon="9.699782563418161"><ele>68.8</ele><time>2026-04-06T09:33:53Z</time></trkpt><trkpt lat="45.30675669106651" lon="9.699777496033319"><ele>68.60000000000001</ele><time>2026-04-06T09:33:54Z</time></trkpt><trkpt lat="45.306833022219806" lon="9.699723306150043"><ele>68.4</ele><time>2026-04-06T09:33:55Z</time></trkpt><trkpt lat="45.306896730628026" lon="9.699635793417004"><ele>68.2</ele><time>2026-04-06T09:33:56Z</time></trkpt><trkpt lat="45.306968144468286" lon="9.699533429814595"><ele>68.0</ele><time>2026-04-06T09:33:57Z</time></trkpt><trkpt lat="45.307073587931065" lon="9.699458086861245"><ele>68.0</ele><time>2026-04-06T09:33:58Z</time></trkpt><trkpt lat="45.307204279639684" lon="9.699416595064669"><ele>68.0</ele><time>2026-04-06T09:33:59Z</time></trkpt><trkpt lat="45.30732902395155" lon="9.699386424130324"><ele>68.0</ele><time>2026-04-06T09:34:00Z</time></trkpt><trkpt lat="45.307474088167204" lon="9.699328118025258"><ele>68.0</ele><time>2026-04-06T09:34:01Z</time></trkpt><trkpt lat="45.30764938216157" lon="9.69929406104337"><ele>68.0</ele><time>2026-04-06T09:34:02Z</time></trkpt><trkpt lat="45.30782506850902" lon="9.69925357103399"><ele>68.0</ele><time>2026-04-06T09:34:03Z</time></trkpt><trkpt lat="45.30801223004858" lon="9.699238870822875"><ele>68.0</ele><time>2026-04-06T09:34:04Z</time></trkpt><trkpt lat="45.308221431104855" lon="9.69924036112563"><ele>68.5</ele><time>2026-04-06T09:34:05Z</time></trkpt><trkpt lat="45.30846462603673" lon="9.699250679656762"><ele>69.0</ele><time>2026-04-06T09:34:06Z</time></trkpt><trkpt lat="45.30870528354178" lon="9.699250982318418"><ele>69.0</ele><time>2026-04-06T09:34:07Z</time></trkpt><trkpt lat="45.30895540252337" lon="9.699261154809905"><ele>69.0</ele><time>2026-04-06T09:34:07.999Z</time></trkpt><trkpt lat="45.30918202304322" lon="9.699266114886385"><ele>69.0</ele><time>2026-04-06T09:34:08.999Z</time></trkpt><trkpt lat="45.30939035547557" lon="9.699276339165891"><ele>69.0</ele><time>2026-04-06T09:34:09.999Z</time></trkpt><trkpt lat="45.309585954778" lon="9.699286189493154"><ele>69.0</ele><time>2026-04-06T09:34:10.999Z</time></trkpt><trkpt lat="45.30977511292281" lon="9.699296708954476"><ele>69.66666666666667</ele><time>2026-04-06T09:34:11.999Z</time></trkpt><trkpt lat="45.309971358243835" lon="9.699310230486523"><ele>70.33333333333334</ele><time>2026-04-06T09:34:12.999Z</time></trkpt><trkpt lat="45.31016517125947" lon="9.699318658971507"><ele>71.0</ele><time>2026-04-06T09:34:13.999Z</time></trkpt><trkpt lat="45.3103522662342" lon="9.6993200439889"><ele>71.0</ele><time>2026-04-06T09:34:14.999Z</time></trkpt><trkpt lat="45.31054492870468" lon="9.69931566282629"><ele>71.0</ele><time>2026-04-06T09:34:15.999Z</time></trkpt><trkpt lat="45.310745700698426" lon="9.699302027034122"><ele>71.0</ele><time>2026-04-06T09:34:16.999Z</time></trkpt><trkpt lat="45.310958544833795" lon="9.699287881096847"><ele>71.0</ele><time>2026-04-06T09:34:17.999Z</time></trkpt><trkpt lat="45.311174030846786" lon="9.69927751593699"><ele>71.0</ele><time>2026-04-06T09:34:18.999Z</time></trkpt><trkpt lat="45.311389570577255" lon="9.699263870919083"><ele>71.0</ele><time>2026-04-06T09:34:19.999Z</time></trkpt><trkpt lat="45.31160380891035" lon="9.699256182023383"><ele>71.0</ele><time>2026-04-06T09:34:20.999Z</time></trkpt><trkpt lat="45.311807725261744" lon="9.69924967778045"><ele>71.0</ele><time>2026-04-06T09:34:21.999Z</time></trkpt><trkpt lat="45.31200011164308" lon="9.699239685119288"><ele>71.0</ele><time>2026-04-06T09:34:22.999Z</time></trkpt><trkpt lat="45.312190537104556" lon="9.699226871940786"><ele>71.0</ele><time>2026-04-06T09:34:23.999Z</time></trkpt><trkpt lat="45.31238047408344" lon="9.699205809727689"><ele>71.0</ele><time>2026-04-06T09:34:24.999Z</time></trkpt><trkpt lat="45.3125734933184" lon="9.699158232708417"><ele>71.0</ele><time>2026-04-06T09:34:25.999Z</time></trkpt><trkpt lat="45.31275651438854" lon="9.699084967500115"><ele>71.0</ele><time>2026-04-06T09:34:26.999Z</time></trkpt><trkpt lat="45.31293378867806" lon="9.698992781247252"><ele>71.0</ele><time>2026-04-06T09:34:27.999Z</time></trkpt><trkpt lat="45.31311615616622" lon="9.698908473866254"><ele>71.0</ele><time>2026-04-06T09:34:28.999Z</time></trkpt><trkpt lat="45.3133105025808" lon="9.698855494870827"><ele>70.66666666666667</ele><time>2026-04-06T09:34:29.999Z</time></trkpt><trkpt lat="45.31351195294127" lon="9.698840357441334"><ele>70.33333333333333</ele><time>2026-04-06T09:34:30.999Z</time></trkpt><trkpt lat="45.31372606307298" lon="9.698883351207764"><ele>70.0</ele><time>2026-04-06T09:34:31.999Z</time></trkpt><trkpt lat="45.31395164436244" lon="9.69891699122904"><ele>69.5</ele><time>2026-04-06T09:34:32.999Z</time></trkpt><trkpt lat="45.314187324835345" lon="9.69893055676939"><ele>69.0</ele><time>2026-04-06T09:34:33.999Z</time></trkpt><trkpt lat="45.314404461406276" lon="9.698963782881453"><ele>69.0</ele><time>2026-04-06T09:34:34.999Z</time></trkpt><trkpt lat="45.31460453274606" lon="9.698985048353906"><ele>69.0</ele><time>2026-04-06T09:34:35.999Z</time></trkpt><trkpt lat="45.31479668867462" lon="9.698992246701856"><ele>69.0</ele><time>2026-04-06T09:34:36.999Z</time></trkpt><trkpt lat="45.31500565934652" lon="9.699007803983825"><ele>69.5</ele><time>2026-04-06T09:34:37.999Z</time></trkpt><trkpt lat="45.315222016195044" lon="9.698948564527713"><ele>70.0</ele><time>2026-04-06T09:34:38.999Z</time></trkpt><trkpt lat="45.315456971176175" lon="9.698888434546301"><ele>70.0</ele><time>2026-04-06T09:34:39.999Z</time></trkpt><trkpt lat="45.31570865784122" lon="9.698812481740177"><ele>70.0</ele><time>2026-04-06T09:34:40.999Z</time></trkpt><trkpt lat="45.31597658969586" lon="9.69873330599599"><ele>70.0</ele><time>2026-04-06T09:34:41.999Z</time></trkpt><trkpt lat="45.31624653574939" lon="9.698652174480326"><ele>70.0</ele><time>2026-04-06T09:34:42.999Z</time></trkpt><trkpt lat="45.316497365780336" lon="9.698575808467549"><ele>71.0</ele><time>2026-04-06T09:34:44Z</time></trkpt><trkpt lat="45.316736781818314" lon="9.698509971233689"><ele>72.0</ele><time>2026-04-06T09:34:45Z</time></trkpt><trkpt lat="45.31697606666646" lon="9.698436805970463"><ele>72.0</ele><time>2026-04-06T09:34:46Z</time></trkpt><trkpt lat="45.3172152377679" lon="9.698366536558575"><ele>72.0</ele><time>2026-04-06T09:34:47Z</time></trkpt><trkpt lat="45.31745840005903" lon="9.698296143568461"><ele>71.0</ele><time>2026-04-06T09:34:48Z</time></trkpt><trkpt lat="45.317703487355615" lon="9.698222153939403"><ele>70.0</ele><time>2026-04-06T09:34:49Z</time></trkpt><trkpt lat="45.31794764455986" lon="9.69814615122407"><ele>70.5</ele><time>2026-04-06T09:34:50Z</time></trkpt><trkpt lat="45.318190153662286" lon="9.698077783832977"><ele>71.0</ele><time>2026-04-06T09:34:51Z</time></trkpt><trkpt lat="45.31843201607301" lon="9.69801037738664"><ele>71.0</ele><time>2026-04-06T09:34:52Z</time></trkpt><trkpt lat="45.31867298532321" lon="9.697941977493436"><ele>71.0</ele><time>2026-04-06T09:34:53Z</time></trkpt><trkpt lat="45.318917106470636" lon="9.697883372052889"><ele>71.5</ele><time>2026-04-06T09:34:54Z</time></trkpt><trkpt lat="45.3191632707439" lon="9.697831017821148"><ele>72.0</ele><time>2026-04-06T09:34:55Z</time></trkpt><trkpt lat="45.31941069767829" lon="9.697784263709583"><ele>71.5</ele><time>2026-04-06T09:34:56Z</time></trkpt><trkpt lat="45.319662884730775" lon="9.697744179484728"><ele>71.0</ele><time>2026-04-06T09:34:57Z</time></trkpt><trkpt lat="45.31991584358101" lon="9.697706749583777"><ele>71.0</ele><time>2026-04-06T09:34:58Z</time></trkpt><trkpt lat="45.32017172292015" lon="9.697661618258872"><ele>71.0</ele><time>2026-04-06T09:34:59Z</time></trkpt><trkpt lat="45.32042488821612" lon="9.69761058924399"><ele>71.0</ele><time>2026-04-06T09:35:00Z</time></trkpt><trkpt lat="45.32067828855223" lon="9.697564158025703"><ele>71.0</ele><time>2026-04-06T09:35:01Z</time></trkpt><trkpt lat="45.320931244909474" lon="9.69751938453726"><ele>71.0</ele><time>2026-04-06T09:35:02Z</time></trkpt><trkpt lat="45.32118180427942" lon="9.697475007140534"><ele>71.0</ele><time>2026-04-06T09:35:03Z</time></trkpt><trkpt lat="45.32143439123107" lon="9.69742882542041"><ele>70.5</ele><time>2026-04-06T09:35:04Z</time></trkpt><trkpt lat="45.321686211981906" lon="9.697386206582875"><ele>70.0</ele><time>2026-04-06T09:35:05Z</time></trkpt><trkpt lat="45.32193571129186" lon="9.69734254957589"><ele>70.0</ele><time>2026-04-06T09:35:06Z</time></trkpt><trkpt lat="45.32218485703883" lon="9.697295138605039"><ele>70.0</ele><time>2026-04-06T09:35:07Z</time></trkpt><trkpt lat="45.322435381902984" lon="9.697248593501506"><ele>71.0</ele><time>2026-04-06T09:35:08Z</time></trkpt><trkpt lat="45.322685450321224" lon="9.697208066696819"><ele>72.0</ele><time>2026-04-06T09:35:09Z</time></trkpt><trkpt lat="45.32293341449804" lon="9.69716543540682"><ele>72.5</ele><time>2026-04-06T09:35:10Z</time></trkpt><trkpt lat="45.32317511313489" lon="9.697124125046667"><ele>73.0</ele><time>2026-04-06T09:35:11Z</time></trkpt><trkpt lat="45.32341959356803" lon="9.697089008886445"><ele>73.0</ele><time>2026-04-06T09:35:12Z</time></trkpt><trkpt lat="45.32367906076781" lon="9.69704373742389"><ele>73.0</ele><time>2026-04-06T09:35:13Z</time></trkpt><trkpt lat="45.323923412167446" lon="9.696993569886711"><ele>73.0</ele><time>2026-04-06T09:35:14Z</time></trkpt><trkpt lat="45.32414279636509" lon="9.696951901060096"><ele>73.0</ele><time>2026-04-06T09:35:15Z</time></trkpt><trkpt lat="45.32433974717231" lon="9.696908329675967"><ele>73.0</ele><time>2026-04-06T09:35:16Z</time></trkpt><trkpt lat="45.32452267666862" lon="9.696849571574"><ele>73.0</ele><time>2026-04-06T09:35:17Z</time></trkpt><trkpt lat="45.32469275667626" lon="9.69676790969949"><ele>73.0</ele><time>2026-04-06T09:35:18Z</time></trkpt><trkpt lat="45.32485414307034" lon="9.696656515257411"><ele>73.0</ele><time>2026-04-06T09:35:19Z</time></trkpt><trkpt lat="45.325019689130144" lon="9.69650108058557"><ele>73.0</ele><time>2026-04-06T09:35:20Z</time></trkpt><trkpt lat="45.32519648540202" lon="9.696327998124174"><ele>73.0</ele><time>2026-04-06T09:35:21Z</time></trkpt><trkpt lat="45.325365755614975" lon="9.696154402591528"><ele>73.0</ele><time>2026-04-06T09:35:22Z</time></trkpt><trkpt lat="45.32551933244262" lon="9.695997050595443"><ele>73.33333333333333</ele><time>2026-04-06T09:35:23Z</time></trkpt><trkpt lat="45.32567847754985" lon="9.695849455756527"><ele>73.66666666666667</ele><time>2026-04-06T09:35:24Z</time></trkpt><trkpt lat="45.325832779152016" lon="9.695722566942328"><ele>74.0</ele><time>2026-04-06T09:35:25Z</time></trkpt><trkpt lat="45.32598850635743" lon="9.695623064574582"><ele>74.0</ele><time>2026-04-06T09:35:26Z</time></trkpt><trkpt lat="45.32615340008897" lon="9.695569798019344"><ele>74.0</ele><time>2026-04-06T09:35:27Z</time></trkpt><trkpt lat="45.32634401613742" lon="9.695527992847547"><ele>74.0</ele><time>2026-04-06T09:35:28Z</time></trkpt><trkpt lat="45.326537239353826" lon="9.695489850098587"><ele>73.66666666666667</ele><time>2026-04-06T09:35:29Z</time></trkpt><trkpt lat="45.32671550038532" lon="9.69544645597908"><ele>73.33333333333333</ele><time>2026-04-06T09:35:30Z</time></trkpt><trkpt lat="45.326887891475046" lon="9.695401129218098"><ele>73.0</ele><time>2026-04-06T09:35:31Z</time></trkpt><trkpt lat="45.327059370954636" lon="9.695355894608456"><ele>73.0</ele><time>2026-04-06T09:35:32Z</time></trkpt><trkpt lat="45.327229203873166" lon="9.69531203370227"><ele>73.0</ele><time>2026-04-06T09:35:33Z</time></trkpt><trkpt lat="45.32739845242114" lon="9.695270676928027"><ele>73.0</ele><time>2026-04-06T09:35:34Z</time></trkpt><trkpt lat="45.32755866031613" lon="9.695234352937117"><ele>72.75</ele><time>2026-04-06T09:35:35Z</time></trkpt><trkpt lat="45.32770927672104" lon="9.695194639608355"><ele>72.5</ele><time>2026-04-06T09:35:36Z</time></trkpt><trkpt lat="45.327848003142975" lon="9.695158474213107"><ele>72.25</ele><time>2026-04-06T09:35:37Z</time></trkpt><trkpt lat="45.327979221046405" lon="9.695126554746604"><ele>72.0</ele><time>2026-04-06T09:35:38Z</time></trkpt><trkpt lat="45.32810787166856" lon="9.695095860406242"><ele>72.75</ele><time>2026-04-06T09:35:39Z</time></trkpt><trkpt lat="45.328236258995034" lon="9.695057779961555"><ele>73.5</ele><time>2026-04-06T09:35:40Z</time></trkpt><trkpt lat="45.328377342504396" lon="9.695021535812534"><ele>74.25</ele><time>2026-04-06T09:35:41Z</time></trkpt><trkpt lat="45.32851976462244" lon="9.694992364965268"><ele>75.0</ele><time>2026-04-06T09:35:42Z</time></trkpt><trkpt lat="45.328661046862464" lon="9.694960536188685"><ele>75.0</ele><time>2026-04-06T09:35:43Z</time></trkpt><trkpt lat="45.3288013682467" lon="9.694921417371457"><ele>75.0</ele><time>2026-04-06T09:35:44Z</time></trkpt><trkpt lat="45.32893350172572" lon="9.694884853371438"><ele>75.0</ele><time>2026-04-06T09:35:45Z</time></trkpt><trkpt lat="45.329066696945134" lon="9.69484756813758"><ele>75.0</ele><time>2026-04-06T09:35:46Z</time></trkpt><trkpt lat="45.32920238277135" lon="9.694803629762646"><ele>75.0</ele><time>2026-04-06T09:35:47Z</time></trkpt><trkpt lat="45.32933701816372" lon="9.694761058932546"><ele>75.0</ele><time>2026-04-06T09:35:48Z</time></trkpt><trkpt lat="45.32947792283016" lon="9.694729700196424"><ele>75.0</ele><time>2026-04-06T09:35:49Z</time></trkpt><trkpt lat="45.3296135603773" lon="9.694691673559573"><ele>75.0</ele><time>2026-04-06T09:35:50Z</time></trkpt><trkpt lat="45.3297521329582" lon="9.694655590222117"><ele>75.0</ele><time>2026-04-06T09:35:51Z</time></trkpt><trkpt lat="45.32989097486294" lon="9.694620742928015"><ele>75.0</ele><time>2026-04-06T09:35:52Z</time></trkpt><trkpt lat="45.33002371160317" lon="9.694600293486408"><ele>75.0</ele><time>2026-04-06T09:35:53Z</time></trkpt><trkpt lat="45.330149291004474" lon="9.694597706153829"><ele>75.0</ele><time>2026-04-06T09:35:54Z</time></trkpt><trkpt lat="45.330266371350476" lon="9.694595351373376"><ele>75.0</ele><time>2026-04-06T09:35:55Z</time></trkpt><trkpt lat="45.330377761877465" lon="9.694582089236714"><ele>75.0</ele><time>2026-04-06T09:35:56Z</time></trkpt><trkpt lat="45.33049050710815" lon="9.694573419104781"><ele>75.0</ele><time>2026-04-06T09:35:57Z</time></trkpt><trkpt lat="45.33060281598092" lon="9.694555661328032"><ele>75.0</ele><time>2026-04-06T09:35:58Z</time></trkpt><trkpt lat="45.33071893528647" lon="9.694526392670804"><ele>75.25</ele><time>2026-04-06T09:35:59Z</time></trkpt><trkpt lat="45.33083334229618" lon="9.694484065994287"><ele>75.5</ele><time>2026-04-06T09:35:59.999Z</time></trkpt><trkpt lat="45.3309430465414" lon="9.69443201730067"><ele>75.75</ele><time>2026-04-06T09:36:00.999Z</time></trkpt><trkpt lat="45.33104683637216" lon="9.694368926984216"><ele>76.0</ele><time>2026-04-06T09:36:01.999Z</time></trkpt><trkpt lat="45.33116516361256" lon="9.694306668360277"><ele>76.0</ele><time>2026-04-06T09:36:02.999Z</time></trkpt><trkpt lat="45.33128982066" lon="9.694242534615032"><ele>76.0</ele><time>2026-04-06T09:36:03.999Z</time></trkpt><trkpt lat="45.33142504857856" lon="9.694167259969637"><ele>76.0</ele><time>2026-04-06T09:36:04.999Z</time></trkpt><trkpt lat="45.331562852985996" lon="9.69408717320444"><ele>76.0</ele><time>2026-04-06T09:36:05.999Z</time></trkpt><trkpt lat="45.33168456406099" lon="9.694007844218559"><ele>76.5</ele><time>2026-04-06T09:36:06.999Z</time></trkpt><trkpt lat="45.33181401178561" lon="9.693936503816586"><ele>77.0</ele><time>2026-04-06T09:36:07.999Z</time></trkpt><trkpt lat="45.331944069748104" lon="9.693878476382345"><ele>77.5</ele><time>2026-04-06T09:36:08.999Z</time></trkpt><trkpt lat="45.33207711982275" lon="9.693844648184195"><ele>78.0</ele><time>2026-04-06T09:36:09.999Z</time></trkpt><trkpt lat="45.33221497399945" lon="9.693809892970238"><ele>78.0</ele><time>2026-04-06T09:36:10.999Z</time></trkpt><trkpt lat="45.33234586392287" lon="9.693792977196756"><ele>78.0</ele><time>2026-04-06T09:36:11.999Z</time></trkpt><trkpt lat="45.332466088586806" lon="9.693775831737597"><ele>78.0</ele><time>2026-04-06T09:36:12.999Z</time></trkpt><trkpt lat="45.332579911601314" lon="9.693752587154153"><ele>78.0</ele><time>2026-04-06T09:36:13.999Z</time></trkpt><trkpt lat="45.3326966138942" lon="9.693732480819854"><ele>78.0</ele><time>2026-04-06T09:36:14.999Z</time></trkpt><trkpt lat="45.33280192767347" lon="9.693716216415643"><ele>78.0</ele><time>2026-04-06T09:36:15.999Z</time></trkpt><trkpt lat="45.33290555334972" lon="9.693693731945741"><ele>78.0</ele><time>2026-04-06T09:36:16.999Z</time></trkpt><trkpt lat="45.33301337358971" lon="9.693674566707376"><ele>78.0</ele><time>2026-04-06T09:36:17.999Z</time></trkpt><trkpt lat="45.33312525525253" lon="9.693616800195414"><ele>78.0</ele><time>2026-04-06T09:36:18.999Z</time></trkpt><trkpt lat="45.33323806614269" lon="9.693528509953023"><ele>77.5</ele><time>2026-04-06T09:36:19.999Z</time></trkpt><trkpt lat="45.33334518658661" lon="9.693421825037337"><ele>77.0</ele><time>2026-04-06T09:36:20.999Z</time></trkpt><trkpt lat="45.333444192624036" lon="9.693322476358146"><ele>76.5</ele><time>2026-04-06T09:36:21.999Z</time></trkpt><trkpt lat="45.33354909904396" lon="9.693241148671124"><ele>76.0</ele><time>2026-04-06T09:36:22.999Z</time></trkpt><trkpt lat="45.33367473437535" lon="9.693200226324397"><ele>76.0</ele><time>2026-04-06T09:36:23.999Z</time></trkpt><trkpt lat="45.333797326197484" lon="9.69317867801505"><ele>76.0</ele><time>2026-04-06T09:36:24.999Z</time></trkpt><trkpt lat="45.333947458901854" lon="9.693132720628347"><ele>76.0</ele><time>2026-04-06T09:36:25.999Z</time></trkpt><trkpt lat="45.33410560233397" lon="9.693117779342275"><ele>76.0</ele><time>2026-04-06T09:36:26.999Z</time></trkpt><trkpt lat="45.334259450255104" lon="9.69309382657337"><ele>76.0</ele><time>2026-04-06T09:36:27.999Z</time></trkpt><trkpt lat="45.33442191463865" lon="9.693065077528757"><ele>76.0</ele><time>2026-04-06T09:36:28.999Z</time></trkpt><trkpt lat="45.334575165551115" lon="9.693039354268485"><ele>76.0</ele><time>2026-04-06T09:36:29.999Z</time></trkpt><trkpt lat="45.33471882745071" lon="9.69300426471248"><ele>76.0</ele><time>2026-04-06T09:36:30.999Z</time></trkpt><trkpt lat="45.33485057539526" lon="9.692970801211873"><ele>76.0</ele><time>2026-04-06T09:36:31.999Z</time></trkpt><trkpt lat="45.3349777970858" lon="9.692922627764588"><ele>76.0</ele><time>2026-04-06T09:36:32.999Z</time></trkpt><trkpt lat="45.335094673570566" lon="9.692881008269728"><ele>76.0</ele><time>2026-04-06T09:36:33.999Z</time></trkpt><trkpt lat="45.3352170739985" lon="9.692843077746957"><ele>76.0</ele><time>2026-04-06T09:36:34.999Z</time></trkpt><trkpt lat="45.33534898533693" lon="9.692801289495304"><ele>76.0</ele><time>2026-04-06T09:36:35.999Z</time></trkpt><trkpt lat="45.335476559598604" lon="9.692759799580516"><ele>76.0</ele><time>2026-04-06T09:36:36.999Z</time></trkpt><trkpt lat="45.335589018904216" lon="9.692722205360154"><ele>76.0</ele><time>2026-04-06T09:36:37.999Z</time></trkpt><trkpt lat="45.335707862424414" lon="9.692679983899534"><ele>75.8</ele><time>2026-04-06T09:36:38.999Z</time></trkpt><trkpt lat="45.33582543096043" lon="9.692640248848225"><ele>75.6</ele><time>2026-04-06T09:36:39.999Z</time></trkpt><trkpt lat="45.33593468346063" lon="9.692602763848374"><ele>75.4</ele><time>2026-04-06T09:36:40.999Z</time></trkpt><trkpt lat="45.33603350447919" lon="9.69257467425038"><ele>75.2</ele><time>2026-04-06T09:36:41.999Z</time></trkpt><trkpt lat="45.336113352701865" lon="9.692567649726875"><ele>75.0</ele><time>2026-04-06T09:36:42.999Z</time></trkpt><trkpt lat="45.3362367181524" lon="9.692592494265854"><ele>75.0</ele><time>2026-04-06T09:36:44.999Z</time></trkpt><trkpt lat="45.3363089581683" lon="9.692627643169175"><ele>75.0</ele><time>2026-04-06T09:36:45.999Z</time></trkpt><trkpt lat="45.3363913544381" lon="9.692646431997131"><ele>75.0</ele><time>2026-04-06T09:36:46.999Z</time></trkpt><trkpt lat="45.336473607949216" lon="9.692611399415599"><ele>75.0</ele><time>2026-04-06T09:36:47.999Z</time></trkpt><trkpt lat="45.336542823496174" lon="9.692527737622335"><ele>75.0</ele><time>2026-04-06T09:36:48.999Z</time></trkpt><trkpt lat="45.336613903251575" lon="9.692413406947637"><ele>75.0</ele><time>2026-04-06T09:36:50Z</time></trkpt><trkpt lat="45.33671046401489" lon="9.69231242360996"><ele>75.33333333333333</ele><time>2026-04-06T09:36:51Z</time></trkpt><trkpt lat="45.33684603300399" lon="9.692237726097293"><ele>75.66666666666666</ele><time>2026-04-06T09:36:52Z</time></trkpt><trkpt lat="45.33701489956546" lon="9.692159621724128"><ele>76.0</ele><time>2026-04-06T09:36:53Z</time></trkpt><trkpt lat="45.33717237788121" lon="9.692057683016722"><ele>75.0</ele><time>2026-04-06T09:36:54Z</time></trkpt><trkpt lat="45.33732045679677" lon="9.69193934964869"><ele>74.0</ele><time>2026-04-06T09:36:55Z</time></trkpt><trkpt lat="45.33748235672208" lon="9.691806665058644"><ele>73.0</ele><time>2026-04-06T09:36:56Z</time></trkpt><trkpt lat="45.33765178631572" lon="9.691678534782021"><ele>73.0</ele><time>2026-04-06T09:36:57Z</time></trkpt><trkpt lat="45.33782771932268" lon="9.69155283127634"><ele>73.0</ele><time>2026-04-06T09:36:58Z</time></trkpt><trkpt lat="45.3380045065635" lon="9.691420783819535"><ele>73.0</ele><time>2026-04-06T09:36:59Z</time></trkpt><trkpt lat="45.3381812513196" lon="9.691283886928646"><ele>73.0</ele><time>2026-04-06T09:37:00Z</time></trkpt><trkpt lat="45.33836190930948" lon="9.691143867521555"><ele>73.0</ele><time>2026-04-06T09:37:01Z</time></trkpt><trkpt lat="45.33854296058562" lon="9.691006600255768"><ele>73.0</ele><time>2026-04-06T09:37:02Z</time></trkpt><trkpt lat="45.33871553009301" lon="9.690879330562366"><ele>73.0</ele><time>2026-04-06T09:37:03Z</time></trkpt><trkpt lat="45.33887971253386" lon="9.69074911261627"><ele>73.0</ele><time>2026-04-06T09:37:04Z</time></trkpt><trkpt lat="45.33905430709731" lon="9.690613429833663"><ele>73.0</ele><time>2026-04-06T09:37:05Z</time></trkpt><trkpt lat="45.339235599496654" lon="9.690480986658882"><ele>73.0</ele><time>2026-04-06T09:37:06Z</time></trkpt><trkpt lat="45.33942685626938" lon="9.690346490421003"><ele>73.0</ele><time>2026-04-06T09:37:07Z</time></trkpt><trkpt lat="45.339623353523464" lon="9.690237345476062"><ele>73.0</ele><time>2026-04-06T09:37:08Z</time></trkpt><trkpt lat="45.33982915753753" lon="9.690149686032571"><ele>72.66666666666666</ele><time>2026-04-06T09:37:09Z</time></trkpt><trkpt lat="45.34003248112766" lon="9.690082369228996"><ele>72.33333333333333</ele><time>2026-04-06T09:37:10Z</time></trkpt><trkpt lat="45.34022778643958" lon="9.690020588296512"><ele>72.0</ele><time>2026-04-06T09:37:11Z</time></trkpt><trkpt lat="45.34039219903035" lon="9.689964503919605"><ele>72.0</ele><time>2026-04-06T09:37:12Z</time></trkpt><trkpt lat="45.34053511865173" lon="9.689914143857514"><ele>72.0</ele><time>2026-04-06T09:37:13Z</time></trkpt><trkpt lat="45.340676135394894" lon="9.68986031148145"><ele>72.0</ele><time>2026-04-06T09:37:14Z</time></trkpt><trkpt lat="45.340824025703505" lon="9.68981059725592"><ele>72.0</ele><time>2026-04-06T09:37:15Z</time></trkpt><trkpt lat="45.34097485720281" lon="9.689760384832121"><ele>72.5</ele><time>2026-04-06T09:37:16Z</time></trkpt><trkpt lat="45.34111825321462" lon="9.689708417036579"><ele>73.0</ele><time>2026-04-06T09:37:17Z</time></trkpt><trkpt lat="45.34124906411614" lon="9.689659205121885"><ele>73.5</ele><time>2026-04-06T09:37:18Z</time></trkpt><trkpt lat="45.34136990296093" lon="9.689615885500931"><ele>74.0</ele><time>2026-04-06T09:37:19Z</time></trkpt><trkpt lat="45.341488239666276" lon="9.68957261712799"><ele>74.0</ele><time>2026-04-06T09:37:20Z</time></trkpt><trkpt lat="45.34159793511595" lon="9.689531667035604"><ele>74.0</ele><time>2026-04-06T09:37:21Z</time></trkpt><trkpt lat="45.34170069331366" lon="9.689497143847996"><ele>74.0</ele><time>2026-04-06T09:37:22Z</time></trkpt><trkpt lat="45.34179933838193" lon="9.689460922149857"><ele>74.0</ele><time>2026-04-06T09:37:23Z</time></trkpt><trkpt lat="45.34190156736602" lon="9.689423537149587"><ele>74.0</ele><time>2026-04-06T09:37:24Z</time></trkpt><trkpt lat="45.342010747518444" lon="9.689387090427404"><ele>74.0</ele><time>2026-04-06T09:37:25Z</time></trkpt><trkpt lat="45.34212691483502" lon="9.689344830238142"><ele>74.0</ele><time>2026-04-06T09:37:26Z</time></trkpt><trkpt lat="45.34224053418439" lon="9.689303299302123"><ele>74.0</ele><time>2026-04-06T09:37:27Z</time></trkpt><trkpt lat="45.34235221476506" lon="9.689266394231351"><ele>74.0</ele><time>2026-04-06T09:37:28Z</time></trkpt><trkpt lat="45.34247644543418" lon="9.68922107994192"><ele>73.5</ele><time>2026-04-06T09:37:29Z</time></trkpt><trkpt lat="45.34260705258642" lon="9.689176239654026"><ele>73.0</ele><time>2026-04-06T09:37:30Z</time></trkpt><trkpt lat="45.34273914497481" lon="9.689128040284821"><ele>72.5</ele><time>2026-04-06T09:37:31Z</time></trkpt><trkpt lat="45.34286108339967" lon="9.689089102195389"><ele>72.0</ele><time>2026-04-06T09:37:32Z</time></trkpt><trkpt lat="45.34297258067753" lon="9.689051205238185"><ele>72.0</ele><time>2026-04-06T09:37:33Z</time></trkpt><trkpt lat="45.343082693919136" lon="9.689010486690615"><ele>72.0</ele><time>2026-04-06T09:37:34Z</time></trkpt><trkpt lat="45.34320040156706" lon="9.688966704037247"><ele>72.0</ele><time>2026-04-06T09:37:35Z</time></trkpt><trkpt lat="45.34331592296162" lon="9.688927573112418"><ele>72.0</ele><time>2026-04-06T09:37:36Z</time></trkpt><trkpt lat="45.34342459255748" lon="9.68888945022664"><ele>72.0</ele><time>2026-04-06T09:37:37Z</time></trkpt><trkpt lat="45.34352958035022" lon="9.688849864871068"><ele>72.0</ele><time>2026-04-06T09:37:38Z</time></trkpt><trkpt lat="45.34364227874206" lon="9.688811056210922"><ele>72.0</ele><time>2026-04-06T09:37:39Z</time></trkpt><trkpt lat="45.34375600066262" lon="9.6887706906628"><ele>72.0</ele><time>2026-04-06T09:37:40Z</time></trkpt><trkpt lat="45.34386802307061" lon="9.688730299922057"><ele>71.8</ele><time>2026-04-06T09:37:41Z</time></trkpt><trkpt lat="45.34398094262074" lon="9.688690830627545"><ele>71.6</ele><time>2026-04-06T09:37:42Z</time></trkpt><trkpt lat="45.34408687026696" lon="9.688650423752538"><ele>71.39999999999999</ele><time>2026-04-06T09:37:43Z</time></trkpt><trkpt lat="45.344190040395105" lon="9.688611404521506"><ele>71.2</ele><time>2026-04-06T09:37:44Z</time></trkpt><trkpt lat="45.344298779641605" lon="9.688577559661768"><ele>71.0</ele><time>2026-04-06T09:37:45Z</time></trkpt><trkpt lat="45.34440837504966" lon="9.688541235080509"><ele>71.0</ele><time>2026-04-06T09:37:46Z</time></trkpt><trkpt lat="45.344520764575215" lon="9.688498934248734"><ele>71.0</ele><time>2026-04-06T09:37:46.999Z</time></trkpt><trkpt lat="45.344627928629606" lon="9.688458625357155"><ele>71.0</ele><time>2026-04-06T09:37:47.999Z</time></trkpt><trkpt lat="45.344743267425265" lon="9.688414730793875"><ele>71.0</ele><time>2026-04-06T09:37:48.999Z</time></trkpt><trkpt lat="45.34486537251129" lon="9.688375331796408"><ele>71.25</ele><time>2026-04-06T09:37:49.999Z</time></trkpt><trkpt lat="45.34499503334642" lon="9.688341269178075"><ele>71.5</ele><time>2026-04-06T09:37:50.999Z</time></trkpt><trkpt lat="45.345115333233046" lon="9.688316264095999"><ele>71.75</ele><time>2026-04-06T09:37:51.999Z</time></trkpt><trkpt lat="45.345239573050954" lon="9.688298335235107"><ele>72.0</ele><time>2026-04-06T09:37:52.999Z</time></trkpt><trkpt lat="45.34536354999254" lon="9.688286371066912"><ele>72.0</ele><time>2026-04-06T09:37:53.999Z</time></trkpt><trkpt lat="45.34548045839443" lon="9.688279276934743"><ele>72.0</ele><time>2026-04-06T09:37:54.999Z</time></trkpt><trkpt lat="45.345594622033694" lon="9.688273086167584"><ele>72.0</ele><time>2026-04-06T09:37:55.999Z</time></trkpt><trkpt lat="45.34570332596768" lon="9.688269317776314"><ele>72.0</ele><time>2026-04-06T09:37:56.999Z</time></trkpt><trkpt lat="45.34581814537009" lon="9.688263336132692"><ele>72.0</ele><time>2026-04-06T09:37:57.999Z</time></trkpt><trkpt lat="45.345928337408" lon="9.688262286777345"><ele>72.0</ele><time>2026-04-06T09:37:58.999Z</time></trkpt><trkpt lat="45.346048632703415" lon="9.688269046818352"><ele>72.0</ele><time>2026-04-06T09:37:59.999Z</time></trkpt><trkpt lat="45.34617602260324" lon="9.688280201203817"><ele>72.0</ele><time>2026-04-06T09:38:00.999Z</time></trkpt><trkpt lat="45.34630623435969" lon="9.68829181167863"><ele>71.5</ele><time>2026-04-06T09:38:01.999Z</time></trkpt><trkpt lat="45.346449434243105" lon="9.688301182125905"><ele>71.0</ele><time>2026-04-06T09:38:02.999Z</time></trkpt><trkpt lat="45.34658954440467" lon="9.688312875389387"><ele>70.5</ele><time>2026-04-06T09:38:03.999Z</time></trkpt><trkpt lat="45.34672669208121" lon="9.688330327225907"><ele>70.0</ele><time>2026-04-06T09:38:04.999Z</time></trkpt><trkpt lat="45.34686688057042" lon="9.688353720323235"><ele>70.0</ele><time>2026-04-06T09:38:05.999Z</time></trkpt><trkpt lat="45.34701315333448" lon="9.688371653100322"><ele>70.0</ele><time>2026-04-06T09:38:06.999Z</time></trkpt><trkpt lat="45.34715713245612" lon="9.68838454501785"><ele>70.0</ele><time>2026-04-06T09:38:07.999Z</time></trkpt><trkpt lat="45.34730319734677" lon="9.688426223036446"><ele>70.0</ele><time>2026-04-06T09:38:08.999Z</time></trkpt><trkpt lat="45.347411694380966" lon="9.688448527530689"><ele>70.0</ele><time>2026-04-06T09:38:09.999Z</time></trkpt><trkpt lat="45.347519563832584" lon="9.688473728244832"><ele>70.0</ele><time>2026-04-06T09:38:10.999Z</time></trkpt><trkpt lat="45.34761417522677" lon="9.68850069859432"><ele>70.0</ele><time>2026-04-06T09:38:11.999Z</time></trkpt><trkpt lat="45.347695705633" lon="9.688526366869057"><ele>70.0</ele><time>2026-04-06T09:38:12.999Z</time></trkpt><trkpt lat="45.34777633646348" lon="9.688553721127503"><ele>70.0</ele><time>2026-04-06T09:38:13.999Z</time></trkpt><trkpt lat="45.347845149340664" lon="9.68857748483573"><ele>70.0</ele><time>2026-04-06T09:38:14.999Z</time></trkpt><trkpt lat="45.34791616678065" lon="9.688582848084867"><ele>70.0</ele><time>2026-04-06T09:38:16.999Z</time></trkpt><trkpt lat="45.34794502542954" lon="9.688324658126273"><ele>70.0</ele><time>2026-04-06T09:38:17.999Z</time></trkpt><trkpt lat="45.34793916671897" lon="9.688210993960984"><ele>70.0</ele><time>2026-04-06T09:38:18.999Z</time></trkpt><trkpt lat="45.34796528569419" lon="9.688071519400765"><ele>70.0</ele><time>2026-04-06T09:38:19.999Z</time></trkpt><trkpt lat="45.347988780103826" lon="9.687916349488809"><ele>70.25</ele><time>2026-04-06T09:38:20.999Z</time></trkpt><trkpt lat="45.34801448587229" lon="9.687746574593648"><ele>70.5</ele><time>2026-04-06T09:38:21.999Z</time></trkpt><trkpt lat="45.34804411315925" lon="9.687544431594334"><ele>70.75</ele><time>2026-04-06T09:38:22.999Z</time></trkpt><trkpt lat="45.34807096404521" lon="9.687359383079807"><ele>71.0</ele><time>2026-04-06T09:38:23.999Z</time></trkpt><trkpt lat="45.348081525767995" lon="9.687192591690271"><ele>71.25</ele><time>2026-04-06T09:38:24.999Z</time></trkpt><trkpt lat="45.34805751251968" lon="9.687040008471689"><ele>71.5</ele><time>2026-04-06T09:38:25.999Z</time></trkpt><trkpt lat="45.347983675512445" lon="9.686918377982579"><ele>71.75</ele><time>2026-04-06T09:38:26.999Z</time></trkpt><trkpt lat="45.347863611298315" lon="9.686849095310555"><ele>72.0</ele><time>2026-04-06T09:38:27.999Z</time></trkpt><trkpt lat="45.347815062387426" lon="9.686711222658248"><ele>72.0</ele><time>2026-04-06T09:38:28.999Z</time></trkpt><trkpt lat="45.34773584979879" lon="9.686619608338932"><ele>72.0</ele><time>2026-04-06T09:38:29.999Z</time></trkpt><trkpt lat="45.34768215300373" lon="9.6864846542362"><ele>72.0</ele><time>2026-04-06T09:38:30.999Z</time></trkpt><trkpt lat="45.34766597507522" lon="9.686319223849619"><ele>72.0</ele><time>2026-04-06T09:38:31.999Z</time></trkpt><trkpt lat="45.34767880209857" lon="9.686134116614044"><ele>72.33333333333333</ele><time>2026-04-06T09:38:32.999Z</time></trkpt><trkpt lat="45.34767446260694" lon="9.685944271435302"><ele>72.66666666666666</ele><time>2026-04-06T09:38:33.999Z</time></trkpt><trkpt lat="45.34776595953549" lon="9.685711011676506"><ele>73.0</ele><time>2026-04-06T09:38:34.999Z</time></trkpt><trkpt lat="45.34781831057915" lon="9.685447997839754"><ele>73.0</ele><time>2026-04-06T09:38:35.999Z</time></trkpt><trkpt lat="45.347867927874624" lon="9.68515118267032"><ele>73.0</ele><time>2026-04-06T09:38:36.999Z</time></trkpt><trkpt lat="45.34790771063169" lon="9.68485967876266"><ele>73.0</ele><time>2026-04-06T09:38:37.999Z</time></trkpt><trkpt lat="45.34794968819207" lon="9.68455743524632"><ele>73.0</ele><time>2026-04-06T09:38:38.999Z</time></trkpt><trkpt lat="45.34799215866973" lon="9.684261269089195"><ele>73.0</ele><time>2026-04-06T09:38:39.999Z</time></trkpt><trkpt lat="45.34803167331314" lon="9.68396974697603"><ele>73.0</ele><time>2026-04-06T09:38:40.999Z</time></trkpt><trkpt lat="45.348067704716385" lon="9.683681526884389"><ele>73.66666666666666</ele><time>2026-04-06T09:38:41.999Z</time></trkpt><trkpt lat="45.348103573537614" lon="9.683401627862883"><ele>74.33333333333333</ele><time>2026-04-06T09:38:42.999Z</time></trkpt><trkpt lat="45.34813910639664" lon="9.683120476023804"><ele>75.0</ele><time>2026-04-06T09:38:43.999Z</time></trkpt><trkpt lat="45.348168891651156" lon="9.682843588242195"><ele>76.0</ele><time>2026-04-06T09:38:44.999Z</time></trkpt><trkpt lat="45.34819616857728" lon="9.682570206560015"><ele>77.0</ele><time>2026-04-06T09:38:45.999Z</time></trkpt><trkpt lat="45.34821554456199" lon="9.68228872553913"><ele>78.0</ele><time>2026-04-06T09:38:46.999Z</time></trkpt><trkpt lat="45.348231428447896" lon="9.681981873455964"><ele>77.66666666666667</ele><time>2026-04-06T09:38:47.999Z</time></trkpt><trkpt lat="45.348243309216144" lon="9.681673419132885"><ele>77.33333333333334</ele><time>2026-04-06T09:38:48.999Z</time></trkpt><trkpt lat="45.34825349619929" lon="9.681346894699102"><ele>77.0</ele><time>2026-04-06T09:38:49.999Z</time></trkpt><trkpt lat="45.34826429412685" lon="9.68100616022404"><ele>76.5</ele><time>2026-04-06T09:38:50.999Z</time></trkpt><trkpt lat="45.34827365372772" lon="9.68067987440888"><ele>76.0</ele><time>2026-04-06T09:38:51.999Z</time></trkpt><trkpt lat="45.34827754498544" lon="9.68036573468624"><ele>75.66666666666666</ele><time>2026-04-06T09:38:52.999Z</time></trkpt><trkpt lat="45.348280547159305" lon="9.68004748260702"><ele>75.33333333333333</ele><time>2026-04-06T09:38:53.999Z</time></trkpt><trkpt lat="45.34828429721144" lon="9.679729020994948"><ele>75.0</ele><time>2026-04-06T09:38:54.999Z</time></trkpt><trkpt lat="45.34828790847075" lon="9.679412592340482"><ele>75.0</ele><time>2026-04-06T09:38:56Z</time></trkpt><trkpt lat="45.34828868992305" lon="9.679094342640175"><ele>75.0</ele><time>2026-04-06T09:38:57Z</time></trkpt><trkpt lat="45.34829268789514" lon="9.678779417409455"><ele>75.0</ele><time>2026-04-06T09:38:58Z</time></trkpt><trkpt lat="45.348295980636884" lon="9.67845328863803"><ele>75.0</ele><time>2026-04-06T09:38:59Z</time></trkpt><trkpt lat="45.34830247843698" lon="9.678117088168529"><ele>75.0</ele><time>2026-04-06T09:39:00Z</time></trkpt><trkpt lat="45.34830466083898" lon="9.677784031645807"><ele>75.5</ele><time>2026-04-06T09:39:01Z</time></trkpt><trkpt lat="45.348306444039004" lon="9.677455432497492"><ele>76.0</ele><time>2026-04-06T09:39:02Z</time></trkpt><trkpt lat="45.34830973677967" lon="9.677128236616241"><ele>75.5</ele><time>2026-04-06T09:39:03Z</time></trkpt><trkpt lat="45.34831501363857" lon="9.676801932964496"><ele>75.0</ele><time>2026-04-06T09:39:04Z</time></trkpt><trkpt lat="45.34831922335638" lon="9.676463535366635"><ele>75.0</ele><time>2026-04-06T09:39:05Z</time></trkpt><trkpt lat="45.34832001686361" lon="9.676115672507443"><ele>75.0</ele><time>2026-04-06T09:39:06Z</time></trkpt><trkpt lat="45.348322050404235" lon="9.675758046236629"><ele>75.5</ele><time>2026-04-06T09:39:07Z</time></trkpt><trkpt lat="45.34832644240198" lon="9.675382055390024"><ele>76.0</ele><time>2026-04-06T09:39:08Z</time></trkpt><trkpt lat="45.34833255881961" lon="9.674991339503888"><ele>76.5</ele><time>2026-04-06T09:39:09Z</time></trkpt><trkpt lat="45.34833757965303" lon="9.67461093174004"><ele>77.0</ele><time>2026-04-06T09:39:10Z</time></trkpt><trkpt lat="45.34834211749259" lon="9.67423955298956"><ele>75.5</ele><time>2026-04-06T09:39:11Z</time></trkpt><trkpt lat="45.34834394894987" lon="9.673869211589045"><ele>74.0</ele><time>2026-04-06T09:39:12Z</time></trkpt><trkpt lat="45.34834658134932" lon="9.673496710310278"><ele>74.5</ele><time>2026-04-06T09:39:13Z</time></trkpt><trkpt lat="45.348345046593415" lon="9.673130277346162"><ele>75.0</ele><time>2026-04-06T09:39:14Z</time></trkpt><trkpt lat="45.34834214172877" lon="9.672757875649914"><ele>75.0</ele><time>2026-04-06T09:39:15Z</time></trkpt><trkpt lat="45.34833316224241" lon="9.672392137493961"><ele>75.0</ele><time>2026-04-06T09:39:16Z</time></trkpt><trkpt lat="45.34831998177225" lon="9.67202368947794"><ele>76.5</ele><time>2026-04-06T09:39:17Z</time></trkpt><trkpt lat="45.34830633157456" lon="9.671657867772193"><ele>78.0</ele><time>2026-04-06T09:39:18Z</time></trkpt><trkpt lat="45.348288114153924" lon="9.67129244711748"><ele>77.0</ele><time>2026-04-06T09:39:19Z</time></trkpt><trkpt lat="45.34826788973066" lon="9.670930077430635"><ele>76.0</ele><time>2026-04-06T09:39:20Z</time></trkpt><trkpt lat="45.34824775217607" lon="9.670562253266887"><ele>75.5</ele><time>2026-04-06T09:39:21Z</time></trkpt><trkpt lat="45.348223046716306" lon="9.670213765796998"><ele>75.0</ele><time>2026-04-06T09:39:22Z</time></trkpt><trkpt lat="45.348198898256165" lon="9.66985711984874"><ele>75.0</ele><time>2026-04-06T09:39:23Z</time></trkpt><trkpt lat="45.348165854959106" lon="9.669544070978942"><ele>75.0</ele><time>2026-04-06T09:39:24Z</time></trkpt><trkpt lat="45.34813936455195" lon="9.669203003266672"><ele>76.0</ele><time>2026-04-06T09:39:25Z</time></trkpt><trkpt lat="45.34811409158983" lon="9.668873366663094"><ele>77.0</ele><time>2026-04-06T09:39:26Z</time></trkpt><trkpt lat="45.34807810815382" lon="9.668531061430025"><ele>77.0</ele><time>2026-04-06T09:39:27Z</time></trkpt><trkpt lat="45.34804317912683" lon="9.668190855112433"><ele>77.0</ele><time>2026-04-06T09:39:28Z</time></trkpt><trkpt lat="45.34801548016766" lon="9.667862122081367"><ele>78.0</ele><time>2026-04-06T09:39:29Z</time></trkpt><trkpt lat="45.34798811587812" lon="9.667518577825764"><ele>79.0</ele><time>2026-04-06T09:39:30Z</time></trkpt><trkpt lat="45.34795516573188" lon="9.667178342505045"><ele>79.0</ele><time>2026-04-06T09:39:31Z</time></trkpt><trkpt lat="45.34792144964649" lon="9.666835842748753"><ele>79.0</ele><time>2026-04-06T09:39:32Z</time></trkpt><trkpt lat="45.34789248097916" lon="9.666517073390978"><ele>79.0</ele><time>2026-04-06T09:39:33Z</time></trkpt><trkpt lat="45.34786677876599" lon="9.666227007380193"><ele>79.0</ele><time>2026-04-06T09:39:34Z</time></trkpt><trkpt lat="45.34784088980909" lon="9.665952490782002"><ele>79.0</ele><time>2026-04-06T09:39:35Z</time></trkpt><trkpt lat="45.34781935687301" lon="9.665704228423337"><ele>78.66666666666666</ele><time>2026-04-06T09:39:36Z</time></trkpt><trkpt lat="45.34779720361389" lon="9.665473395571363"><ele>78.33333333333333</ele><time>2026-04-06T09:39:37Z</time></trkpt><trkpt lat="45.347775061387175" lon="9.665251122643117"><ele>78.0</ele><time>2026-04-06T09:39:38Z</time></trkpt><trkpt lat="45.34775553279616" lon="9.665061045197017"><ele>77.75</ele><time>2026-04-06T09:39:39Z</time></trkpt><trkpt lat="45.34774505855297" lon="9.66487733567401"><ele>77.5</ele><time>2026-04-06T09:39:40Z</time></trkpt><trkpt lat="45.34772674638706" lon="9.664673653468093"><ele>77.25</ele><time>2026-04-06T09:39:41Z</time></trkpt><trkpt lat="45.34770787199279" lon="9.664475508634952"><ele>77.0</ele><time>2026-04-06T09:39:42Z</time></trkpt><trkpt lat="45.34769347052164" lon="9.664266215833043"><ele>76.66666666666667</ele><time>2026-04-06T09:39:43Z</time></trkpt><trkpt lat="45.347672328918684" lon="9.664055148087655"><ele>76.33333333333333</ele><time>2026-04-06T09:39:44Z</time></trkpt><trkpt lat="45.347649174416766" lon="9.663816721274406"><ele>76.0</ele><time>2026-04-06T09:39:45Z</time></trkpt><trkpt lat="45.34762313996516" lon="9.663554438127429"><ele>76.0</ele><time>2026-04-06T09:39:46Z</time></trkpt><trkpt lat="45.34760012159165" lon="9.663283592121507"><ele>76.0</ele><time>2026-04-06T09:39:47Z</time></trkpt><trkpt lat="45.34757474385634" lon="9.663010401455901"><ele>76.0</ele><time>2026-04-06T09:39:48Z</time></trkpt><trkpt lat="45.347545662295005" lon="9.662723365619387"><ele>76.0</ele><time>2026-04-06T09:39:49Z</time></trkpt><trkpt lat="45.34751974080953" lon="9.662440788580948"><ele>76.0</ele><time>2026-04-06T09:39:50Z</time></trkpt><trkpt lat="45.347496379248575" lon="9.662157958190786"><ele>76.0</ele><time>2026-04-06T09:39:51Z</time></trkpt><trkpt lat="45.347470885347505" lon="9.661870655560971"><ele>76.0</ele><time>2026-04-06T09:39:52Z</time></trkpt><trkpt lat="45.34744362526203" lon="9.661578879700132"><ele>76.0</ele><time>2026-04-06T09:39:53Z</time></trkpt><trkpt lat="45.347415581698336" lon="9.661285678216762"><ele>76.0</ele><time>2026-04-06T09:39:54Z</time></trkpt><trkpt lat="45.347390465670244" lon="9.660988797224215"><ele>76.33333333333333</ele><time>2026-04-06T09:39:55Z</time></trkpt><trkpt lat="45.347362264480246" lon="9.660684675864026"><ele>76.66666666666667</ele><time>2026-04-06T09:39:56Z</time></trkpt><trkpt lat="45.34733423854493" lon="9.660374566954848"><ele>77.0</ele><time>2026-04-06T09:39:57Z</time></trkpt><trkpt lat="45.34730564051642" lon="9.66005184653624"><ele>77.0</ele><time>2026-04-06T09:39:58Z</time></trkpt><trkpt lat="45.347274623580645" lon="9.659716897090625"><ele>77.0</ele><time>2026-04-06T09:39:59Z</time></trkpt><trkpt lat="45.34724262624359" lon="9.659382135246249"><ele>77.0</ele><time>2026-04-06T09:40:00Z</time></trkpt><trkpt lat="45.34721309826716" lon="9.65904813258913"><ele>77.0</ele><time>2026-04-06T09:40:01Z</time></trkpt><trkpt lat="45.34718338718425" lon="9.658713347146943"><ele>76.5</ele><time>2026-04-06T09:40:02Z</time></trkpt><trkpt lat="45.3471511501466" lon="9.658381213175756"><ele>76.0</ele><time>2026-04-06T09:40:02.999Z</time></trkpt><trkpt lat="45.34711877551969" lon="9.658053046981971"><ele>76.0</ele><time>2026-04-06T09:40:03.999Z</time></trkpt><trkpt lat="45.34708980651688" lon="9.657719263566658"><ele>76.0</ele><time>2026-04-06T09:40:04.999Z</time></trkpt><trkpt lat="45.34705977018421" lon="9.657388416967887"><ele>76.0</ele><time>2026-04-06T09:40:05.999Z</time></trkpt><trkpt lat="45.3470287495494" lon="9.657056733987462"><ele>76.0</ele><time>2026-04-06T09:40:06.999Z</time></trkpt><trkpt lat="45.3469968659344" lon="9.656734560873454"><ele>76.0</ele><time>2026-04-06T09:40:07.999Z</time></trkpt><trkpt lat="45.34696997175996" lon="9.656413882795832"><ele>76.0</ele><time>2026-04-06T09:40:08.999Z</time></trkpt><trkpt lat="45.346942065502624" lon="9.656097864088894"><ele>76.0</ele><time>2026-04-06T09:40:09.999Z</time></trkpt><trkpt lat="45.346913835213385" lon="9.655780946637067"><ele>76.0</ele><time>2026-04-06T09:40:10.999Z</time></trkpt><trkpt lat="45.34688412534118" lon="9.655474219707163"><ele>76.0</ele><time>2026-04-06T09:40:11.999Z</time></trkpt><trkpt lat="45.346856639320606" lon="9.655177974960583"><ele>76.0</ele><time>2026-04-06T09:40:12.999Z</time></trkpt><trkpt lat="45.346830582295304" lon="9.654878188478827"><ele>76.0</ele><time>2026-04-06T09:40:13.999Z</time></trkpt><trkpt lat="45.34680470632279" lon="9.654585004862435"><ele>76.0</ele><time>2026-04-06T09:40:14.999Z</time></trkpt><trkpt lat="45.346777489629886" lon="9.654277970490403"><ele>75.66666666666666</ele><time>2026-04-06T09:40:15.999Z</time></trkpt><trkpt lat="45.346756561473235" lon="9.653975236118429"><ele>75.33333333333333</ele><time>2026-04-06T09:40:16.999Z</time></trkpt><trkpt lat="45.34673925528314" lon="9.653692097137087"><ele>75.0</ele><time>2026-04-06T09:40:17.999Z</time></trkpt><trkpt lat="45.34673050905998" lon="9.65342804776778"><ele>76.0</ele><time>2026-04-06T09:40:18.999Z</time></trkpt><trkpt lat="45.34672031600205" lon="9.65315951284418"><ele>77.0</ele><time>2026-04-06T09:40:19.999Z</time></trkpt><trkpt lat="45.346705839804635" lon="9.652903520253144"><ele>78.0</ele><time>2026-04-06T09:40:20.999Z</time></trkpt><trkpt lat="45.34670112946014" lon="9.652652859940446"><ele>78.0</ele><time>2026-04-06T09:40:21.999Z</time></trkpt><trkpt lat="45.34669993831547" lon="9.652402953496146"><ele>78.0</ele><time>2026-04-06T09:40:22.999Z</time></trkpt><trkpt lat="45.34670653482026" lon="9.652159648530777"><ele>78.0</ele><time>2026-04-06T09:40:23.999Z</time></trkpt><trkpt lat="45.34670682302859" lon="9.651925488192335"><ele>77.66666666666667</ele><time>2026-04-06T09:40:24.999Z</time></trkpt><trkpt lat="45.34670996033129" lon="9.651698303190209"><ele>77.33333333333334</ele><time>2026-04-06T09:40:25.999Z</time></trkpt><trkpt lat="45.3467157464796" lon="9.651469572460329"><ele>77.0</ele><time>2026-04-06T09:40:26.999Z</time></trkpt><trkpt lat="45.346725640369975" lon="9.651237876278545"><ele>76.66666666666667</ele><time>2026-04-06T09:40:27.999Z</time></trkpt><trkpt lat="45.34673370094772" lon="9.651005361995557"><ele>76.33333333333333</ele><time>2026-04-06T09:40:28.999Z</time></trkpt><trkpt lat="45.3467424018001" lon="9.650768303691143"><ele>76.0</ele><time>2026-04-06T09:40:29.999Z</time></trkpt><trkpt lat="45.34675258760784" lon="9.650517839351187"><ele>76.33333333333333</ele><time>2026-04-06T09:40:30.999Z</time></trkpt><trkpt lat="45.346770031010514" lon="9.650270610810749"><ele>76.66666666666667</ele><time>2026-04-06T09:40:31.999Z</time></trkpt><trkpt lat="45.346788929116194" lon="9.65001656368785"><ele>77.0</ele><time>2026-04-06T09:40:32.999Z</time></trkpt><trkpt lat="45.34680659321229" lon="9.64974021184967"><ele>78.0</ele><time>2026-04-06T09:40:33.999Z</time></trkpt><trkpt lat="45.346836663431155" lon="9.649448953302207"><ele>79.0</ele><time>2026-04-06T09:40:34.999Z</time></trkpt><trkpt lat="45.346872519747045" lon="9.649145784275026"><ele>80.0</ele><time>2026-04-06T09:40:35.999Z</time></trkpt><trkpt lat="45.346909459752176" lon="9.648844617067018"><ele>79.33333333333334</ele><time>2026-04-06T09:40:36.999Z</time></trkpt><trkpt lat="45.346939591746356" lon="9.648533156260138"><ele>78.66666666666667</ele><time>2026-04-06T09:40:37.999Z</time></trkpt><trkpt lat="45.346985709581396" lon="9.648222380666557"><ele>78.0</ele><time>2026-04-06T09:40:38.999Z</time></trkpt><trkpt lat="45.34701687431449" lon="9.647918982902533"><ele>77.66666666666667</ele><time>2026-04-06T09:40:39.999Z</time></trkpt><trkpt lat="45.34703856305017" lon="9.647603360765318"><ele>77.33333333333334</ele><time>2026-04-06T09:40:40.999Z</time></trkpt><trkpt lat="45.347076315665596" lon="9.647300906277515"><ele>77.0</ele><time>2026-04-06T09:40:41.999Z</time></trkpt><trkpt lat="45.347118897996815" lon="9.64700856827174"><ele>77.0</ele><time>2026-04-06T09:40:42.999Z</time></trkpt><trkpt lat="45.34719225788729" lon="9.646720976983142"><ele>77.0</ele><time>2026-04-06T09:40:43.999Z</time></trkpt><trkpt lat="45.34725679107215" lon="9.646436739309976"><ele>77.0</ele><time>2026-04-06T09:40:44.999Z</time></trkpt><trkpt lat="45.34733330902731" lon="9.646148255366636"><ele>76.66666666666667</ele><time>2026-04-06T09:40:45.999Z</time></trkpt><trkpt lat="45.347404478359834" lon="9.645861734970229"><ele>76.33333333333333</ele><time>2026-04-06T09:40:46.999Z</time></trkpt><trkpt lat="45.34750555067245" lon="9.645582291699938"><ele>76.0</ele><time>2026-04-06T09:40:47.999Z</time></trkpt><trkpt lat="45.347600233153564" lon="9.645325291520534"><ele>75.66666666666666</ele><time>2026-04-06T09:40:48.999Z</time></trkpt><trkpt lat="45.34770804583621" lon="9.645077349443966"><ele>75.33333333333333</ele><time>2026-04-06T09:40:49.999Z</time></trkpt><trkpt lat="45.347821910442654" lon="9.644842705779544"><ele>75.0</ele><time>2026-04-06T09:40:50.999Z</time></trkpt><trkpt lat="45.34793685026525" lon="9.644622759671181"><ele>75.66666666666667</ele><time>2026-04-06T09:40:51.999Z</time></trkpt><trkpt lat="45.34805306653981" lon="9.644419818444698"><ele>76.33333333333334</ele><time>2026-04-06T09:40:52.999Z</time></trkpt><trkpt lat="45.34817182312955" lon="9.644230927524324"><ele>77.0</ele><time>2026-04-06T09:40:53.999Z</time></trkpt><trkpt lat="45.34829012532651" lon="9.644054195204456"><ele>77.0</ele><time>2026-04-06T09:40:54.999Z</time></trkpt><trkpt lat="45.34840596106423" lon="9.643888772448063"><ele>77.0</ele><time>2026-04-06T09:40:55.999Z</time></trkpt><trkpt lat="45.34851999058562" lon="9.643744294693258"><ele>77.0</ele><time>2026-04-06T09:40:56.999Z</time></trkpt><trkpt lat="45.34863075425578" lon="9.643611469887766"><ele>77.0</ele><time>2026-04-06T09:40:57.999Z</time></trkpt><trkpt lat="45.34874038302972" lon="9.643487091555684"><ele>77.0</ele><time>2026-04-06T09:40:58.999Z</time></trkpt><trkpt lat="45.3488559844766" lon="9.643365200301227"><ele>77.0</ele><time>2026-04-06T09:40:59.999Z</time></trkpt><trkpt lat="45.348976895523215" lon="9.643239896526552"><ele>77.0</ele><time>2026-04-06T09:41:00.999Z</time></trkpt><trkpt lat="45.34911595730632" lon="9.643109569848738"><ele>77.66666666666667</ele><time>2026-04-06T09:41:02Z</time></trkpt><trkpt lat="45.34926165609194" lon="9.642987290398386"><ele>78.33333333333333</ele><time>2026-04-06T09:41:03Z</time></trkpt><trkpt lat="45.349405833905124" lon="9.642875184492029"><ele>79.0</ele><time>2026-04-06T09:41:04Z</time></trkpt><trkpt lat="45.34956059701599" lon="9.642765543064124"><ele>79.33333333333333</ele><time>2026-04-06T09:41:05Z</time></trkpt><trkpt lat="45.34970871860853" lon="9.64266811893917"><ele>79.66666666666667</ele><time>2026-04-06T09:41:06Z</time></trkpt><trkpt lat="45.349866267452335" lon="9.642569963843313"><ele>80.0</ele><time>2026-04-06T09:41:07Z</time></trkpt><trkpt lat="45.3500355886718" lon="9.642477163649884"><ele>80.0</ele><time>2026-04-06T09:41:08Z</time></trkpt><trkpt lat="45.35020662925484" lon="9.64240024286384"><ele>80.0</ele><time>2026-04-06T09:41:09Z</time></trkpt><trkpt lat="45.35038212251893" lon="9.642333726747003"><ele>80.0</ele><time>2026-04-06T09:41:10Z</time></trkpt><trkpt lat="45.35056329572316" lon="9.642272290924954"><ele>79.33333333333334</ele><time>2026-04-06T09:41:11Z</time></trkpt><trkpt lat="45.350743992132" lon="9.642222592112619"><ele>78.66666666666667</ele><time>2026-04-06T09:41:12Z</time></trkpt><trkpt lat="45.350922727160054" lon="9.642189359243384"><ele>78.0</ele><time>2026-04-06T09:41:13Z</time></trkpt><trkpt lat="45.35110195191997" lon="9.642163878627425"><ele>78.0</ele><time>2026-04-06T09:41:14Z</time></trkpt><trkpt lat="45.35127719930086" lon="9.642128264815096"><ele>78.0</ele><time>2026-04-06T09:41:15Z</time></trkpt><trkpt lat="45.35145536165964" lon="9.642096354871317"><ele>78.0</ele><time>2026-04-06T09:41:16Z</time></trkpt><trkpt lat="45.35163281673828" lon="9.642057655995373"><ele>78.0</ele><time>2026-04-06T09:41:17Z</time></trkpt><trkpt lat="45.35181467259013" lon="9.642023533121849"><ele>78.0</ele><time>2026-04-06T09:41:18Z</time></trkpt><trkpt lat="45.35199962490014" lon="9.641994089705394"><ele>78.0</ele><time>2026-04-06T09:41:19Z</time></trkpt><trkpt lat="45.35218234624851" lon="9.641959942484572"><ele>77.66666666666667</ele><time>2026-04-06T09:41:20Z</time></trkpt><trkpt lat="45.35236606561761" lon="9.641918703153523"><ele>77.33333333333334</ele><time>2026-04-06T09:41:21Z</time></trkpt><trkpt lat="45.35254993476131" lon="9.641876787204524"><ele>77.0</ele><time>2026-04-06T09:41:22Z</time></trkpt><trkpt lat="45.35273470543275" lon="9.641828426912669"><ele>77.0</ele><time>2026-04-06T09:41:23Z</time></trkpt><trkpt lat="45.352919755191685" lon="9.641772375127825"><ele>77.0</ele><time>2026-04-06T09:41:24Z</time></trkpt><trkpt lat="45.35310255344186" lon="9.641708036675277"><ele>77.0</ele><time>2026-04-06T09:41:25Z</time></trkpt><trkpt lat="45.35328720672473" lon="9.641640720588459"><ele>77.33333333333334</ele><time>2026-04-06T09:41:26Z</time></trkpt><trkpt lat="45.35346765426623" lon="9.641573479306643"><ele>77.66666666666667</ele><time>2026-04-06T09:41:27Z</time></trkpt><trkpt lat="45.35365147461682" lon="9.641499597222458"><ele>78.0</ele><time>2026-04-06T09:41:28Z</time></trkpt><trkpt lat="45.353833847813235" lon="9.641419627473987"><ele>78.66666666666667</ele><time>2026-04-06T09:41:29Z</time></trkpt><trkpt lat="45.35401472926044" lon="9.641334571765555"><ele>79.33333333333334</ele><time>2026-04-06T09:41:30Z</time></trkpt><trkpt lat="45.35419257222311" lon="9.641240600220137"><ele>80.0</ele><time>2026-04-06T09:41:31Z</time></trkpt><trkpt lat="45.354378011846265" lon="9.641147644640613"><ele>80.0</ele><time>2026-04-06T09:41:32Z</time></trkpt><trkpt lat="45.35456222804023" lon="9.641050216601563"><ele>80.0</ele><time>2026-04-06T09:41:33Z</time></trkpt><trkpt lat="45.354746795768136" lon="9.64095320725783"><ele>80.0</ele><time>2026-04-06T09:41:34Z</time></trkpt><trkpt lat="45.35493627014614" lon="9.64085662544703"><ele>80.0</ele><time>2026-04-06T09:41:35Z</time></trkpt><trkpt lat="45.355126500063605" lon="9.64076674847293"><ele>80.0</ele><time>2026-04-06T09:41:36Z</time></trkpt><trkpt lat="45.355313967493714" lon="9.6406715132954"><ele>80.0</ele><time>2026-04-06T09:41:37Z</time></trkpt><trkpt lat="45.35550010515294" lon="9.640572843656162"><ele>79.66666666666667</ele><time>2026-04-06T09:41:38Z</time></trkpt><trkpt lat="45.35568649066572" lon="9.640481328606239"><ele>79.33333333333333</ele><time>2026-04-06T09:41:39Z</time></trkpt><trkpt lat="45.355871797357096" lon="9.64039428693386"><ele>79.0</ele><time>2026-04-06T09:41:40Z</time></trkpt><trkpt lat="45.35605716258122" lon="9.640303895525356"><ele>79.33333333333333</ele><time>2026-04-06T09:41:41Z</time></trkpt><trkpt lat="45.35623616388611" lon="9.640213947374107"><ele>79.66666666666667</ele><time>2026-04-06T09:41:42Z</time></trkpt><trkpt lat="45.35641984296843" lon="9.640118105957658"><ele>80.0</ele><time>2026-04-06T09:41:43Z</time></trkpt><trkpt lat="45.35660520743084" lon="9.640024412360956"><ele>80.0</ele><time>2026-04-06T09:41:44Z</time></trkpt><trkpt lat="45.35679210129017" lon="9.639921408684277"><ele>80.0</ele><time>2026-04-06T09:41:45Z</time></trkpt><trkpt lat="45.35699387095766" lon="9.639807667907071"><ele>80.0</ele><time>2026-04-06T09:41:46Z</time></trkpt><trkpt lat="45.35719840893927" lon="9.639686228606536"><ele>80.0</ele><time>2026-04-06T09:41:47Z</time></trkpt><trkpt lat="45.3573898784449" lon="9.639564315797939"><ele>80.0</ele><time>2026-04-06T09:41:48Z</time></trkpt><trkpt lat="45.35758802461724" lon="9.639422915012213"><ele>80.0</ele><time>2026-04-06T09:41:49Z</time></trkpt><trkpt lat="45.357786302459026" lon="9.639283500891619"><ele>80.0</ele><time>2026-04-06T09:41:50Z</time></trkpt><trkpt lat="45.35797935799646" lon="9.639149595275391"><ele>80.0</ele><time>2026-04-06T09:41:51Z</time></trkpt><trkpt lat="45.35816796600497" lon="9.639020620816"><ele>80.0</ele><time>2026-04-06T09:41:52Z</time></trkpt><trkpt lat="45.35835541388506" lon="9.63889348567975"><ele>80.0</ele><time>2026-04-06T09:41:53Z</time></trkpt><trkpt lat="45.35854159258931" lon="9.638758158235115"><ele>80.0</ele><time>2026-04-06T09:41:54Z</time></trkpt><trkpt lat="45.35872983607382" lon="9.638623639096393"><ele>80.0</ele><time>2026-04-06T09:41:55Z</time></trkpt><trkpt lat="45.358919893623934" lon="9.638488031413551"><ele>79.66666666666667</ele><time>2026-04-06T09:41:56Z</time></trkpt><trkpt lat="45.35911276020284" lon="9.638351815798922"><ele>79.33333333333333</ele><time>2026-04-06T09:41:57Z</time></trkpt><trkpt lat="45.35930775687401" lon="9.638214788607643"><ele>79.0</ele><time>2026-04-06T09:41:58Z</time></trkpt><trkpt lat="45.35950322285954" lon="9.638076400412997"><ele>79.0</ele><time>2026-04-06T09:41:59Z</time></trkpt><trkpt lat="45.35969857890734" lon="9.637937528275259"><ele>79.0</ele><time>2026-04-06T09:42:00Z</time></trkpt><trkpt lat="45.359890733321805" lon="9.637802096349244"><ele>79.0</ele><time>2026-04-06T09:42:01Z</time></trkpt><trkpt lat="45.36007826678119" lon="9.637672483060399"><ele>79.33333333333333</ele><time>2026-04-06T09:42:01.999Z</time></trkpt><trkpt lat="45.36028385968523" lon="9.637522768958393"><ele>79.66666666666667</ele><time>2026-04-06T09:42:02.999Z</time></trkpt><trkpt lat="45.36046584297708" lon="9.637391830687797"><ele>80.0</ele><time>2026-04-06T09:42:03.999Z</time></trkpt><trkpt lat="45.36064954689858" lon="9.637250954589081"><ele>80.33333333333334</ele><time>2026-04-06T09:42:04.999Z</time></trkpt><trkpt lat="45.360825937069826" lon="9.637103977742427"><ele>80.66666666666667</ele><time>2026-04-06T09:42:05.999Z</time></trkpt><trkpt lat="45.361002251930145" lon="9.636946739676924"><ele>81.0</ele><time>2026-04-06T09:42:06.999Z</time></trkpt><trkpt lat="45.36117362077057" lon="9.636778416664589"><ele>80.66666666666667</ele><time>2026-04-06T09:42:07.999Z</time></trkpt><trkpt lat="45.36134997772202" lon="9.636603505966733"><ele>80.33333333333334</ele><time>2026-04-06T09:42:08.999Z</time></trkpt><trkpt lat="45.36152381108451" lon="9.636429452935758"><ele>80.0</ele><time>2026-04-06T09:42:09.999Z</time></trkpt><trkpt lat="45.36169961936208" lon="9.636240306016804"><ele>80.5</ele><time>2026-04-06T09:42:10.999Z</time></trkpt><trkpt lat="45.3618884316036" lon="9.636031142420107"><ele>81.0</ele><time>2026-04-06T09:42:11.999Z</time></trkpt><trkpt lat="45.36206866840309" lon="9.63582358314354"><ele>80.66666666666667</ele><time>2026-04-06T09:42:12.999Z</time></trkpt><trkpt lat="45.36222906372921" lon="9.635619888881214"><ele>80.33333333333334</ele><time>2026-04-06T09:42:13.999Z</time></trkpt><trkpt lat="45.362387569835796" lon="9.635402612774195"><ele>80.0</ele><time>2026-04-06T09:42:14.999Z</time></trkpt><trkpt lat="45.36254410680988" lon="9.635188624401238"><ele>81.5</ele><time>2026-04-06T09:42:15.999Z</time></trkpt><trkpt lat="45.36270340846146" lon="9.634963719091054"><ele>83.0</ele><time>2026-04-06T09:42:16.999Z</time></trkpt><trkpt lat="45.36286034290765" lon="9.634726920642716"><ele>83.0</ele><time>2026-04-06T09:42:17.999Z</time></trkpt><trkpt lat="45.3630136550061" lon="9.634482670843724"><ele>83.0</ele><time>2026-04-06T09:42:18.999Z</time></trkpt><trkpt lat="45.36317312937492" lon="9.634249742967832"><ele>83.5</ele><time>2026-04-06T09:42:19.999Z</time></trkpt><trkpt lat="45.3633139626743" lon="9.633969535922471"><ele>84.0</ele><time>2026-04-06T09:42:20.999Z</time></trkpt><trkpt lat="45.36346608219285" lon="9.63369162606736"><ele>83.0</ele><time>2026-04-06T09:42:21.999Z</time></trkpt><trkpt lat="45.36360830519859" lon="9.63339944348788"><ele>82.0</ele><time>2026-04-06T09:42:22.999Z</time></trkpt><trkpt lat="45.36373892639836" lon="9.633104591424148"><ele>82.0</ele><time>2026-04-06T09:42:23.999Z</time></trkpt><trkpt lat="45.3638656130473" lon="9.632799976527293"><ele>82.0</ele><time>2026-04-06T09:42:24.999Z</time></trkpt><trkpt lat="45.36399779221042" lon="9.632484290437883"><ele>82.0</ele><time>2026-04-06T09:42:25.999Z</time></trkpt><trkpt lat="45.36412901415077" lon="9.63216307787774"><ele>82.0</ele><time>2026-04-06T09:42:26.999Z</time></trkpt><trkpt lat="45.364260177142185" lon="9.631839105063632"><ele>82.0</ele><time>2026-04-06T09:42:27.999Z</time></trkpt><trkpt lat="45.36439787725356" lon="9.631510451277956"><ele>82.0</ele><time>2026-04-06T09:42:28.999Z</time></trkpt><trkpt lat="45.3645308270569" lon="9.631197877831534"><ele>81.5</ele><time>2026-04-06T09:42:29.999Z</time></trkpt><trkpt lat="45.364661649698554" lon="9.630884670246532"><ele>81.0</ele><time>2026-04-06T09:42:30.999Z</time></trkpt><trkpt lat="45.364789739732124" lon="9.630581090081012"><ele>81.5</ele><time>2026-04-06T09:42:31.999Z</time></trkpt><trkpt lat="45.364920124266725" lon="9.63027632868175"><ele>82.0</ele><time>2026-04-06T09:42:32.999Z</time></trkpt><trkpt lat="45.365046643841595" lon="9.629973796815753"><ele>82.0</ele><time>2026-04-06T09:42:33.999Z</time></trkpt><trkpt lat="45.36517099184601" lon="9.629671468005803"><ele>82.0</ele><time>2026-04-06T09:42:34.999Z</time></trkpt><trkpt lat="45.3652953588386" lon="9.629366088694386"><ele>82.0</ele><time>2026-04-06T09:42:35.999Z</time></trkpt><trkpt lat="45.3654211331004" lon="9.629060473685474"><ele>82.0</ele><time>2026-04-06T09:42:36.999Z</time></trkpt><trkpt lat="45.365547124866595" lon="9.62875482820578"><ele>82.0</ele><time>2026-04-06T09:42:37.999Z</time></trkpt><trkpt lat="45.36567195158825" lon="9.62844010625023"><ele>82.0</ele><time>2026-04-06T09:42:38.999Z</time></trkpt><trkpt lat="45.365791595994764" lon="9.628119512961314"><ele>81.0</ele><time>2026-04-06T09:42:39.999Z</time></trkpt><trkpt lat="45.36591573815296" lon="9.62779446621809"><ele>80.0</ele><time>2026-04-06T09:42:40.999Z</time></trkpt><trkpt lat="45.36604410741381" lon="9.627467659236013"><ele>80.0</ele><time>2026-04-06T09:42:41.999Z</time></trkpt><trkpt lat="45.36617517260091" lon="9.62715049510292"><ele>80.0</ele><time>2026-04-06T09:42:42.999Z</time></trkpt><trkpt lat="45.36630675225695" lon="9.626837603062679"><ele>80.5</ele><time>2026-04-06T09:42:43.999Z</time></trkpt><trkpt lat="45.36643959502574" lon="9.626529403671936"><ele>81.0</ele><time>2026-04-06T09:42:44.999Z</time></trkpt><trkpt lat="45.36657226077382" lon="9.62622202364931"><ele>81.5</ele><time>2026-04-06T09:42:45.999Z</time></trkpt><trkpt lat="45.36669588148316" lon="9.625907637348286"><ele>82.0</ele><time>2026-04-06T09:42:46.999Z</time></trkpt><trkpt lat="45.36682245569247" lon="9.625595330330109"><ele>82.0</ele><time>2026-04-06T09:42:47.999Z</time></trkpt><trkpt lat="45.36694793601856" lon="9.625284319692007"><ele>82.0</ele><time>2026-04-06T09:42:48.999Z</time></trkpt><trkpt lat="45.36707331409838" lon="9.624969736369426"><ele>81.5</ele><time>2026-04-06T09:42:49.999Z</time></trkpt><trkpt lat="45.36719768811648" lon="9.624660891453138"><ele>81.0</ele><time>2026-04-06T09:42:50.999Z</time></trkpt><trkpt lat="45.367321962841594" lon="9.62434311081379"><ele>81.0</ele><time>2026-04-06T09:42:51.999Z</time></trkpt><trkpt lat="45.367443771167906" lon="9.62403238627997"><ele>81.0</ele><time>2026-04-06T09:42:52.999Z</time></trkpt><trkpt lat="45.36756838987256" lon="9.623716215826535"><ele>81.5</ele><time>2026-04-06T09:42:53.999Z</time></trkpt><trkpt lat="45.36769797070409" lon="9.623403104954223"><ele>82.0</ele><time>2026-04-06T09:42:54.999Z</time></trkpt><trkpt lat="45.36782562096647" lon="9.623091929193839"><ele>82.5</ele><time>2026-04-06T09:42:55.999Z</time></trkpt><trkpt lat="45.367952393154305" lon="9.622776190838868"><ele>83.0</ele><time>2026-04-06T09:42:56.999Z</time></trkpt><trkpt lat="45.36807823592257" lon="9.622455325534602"><ele>83.0</ele><time>2026-04-06T09:42:57.999Z</time></trkpt><trkpt lat="45.36820581285815" lon="9.622135792204373"><ele>83.0</ele><time>2026-04-06T09:42:58.999Z</time></trkpt><trkpt lat="45.36833345905263" lon="9.621816598831522"><ele>82.5</ele><time>2026-04-06T09:42:59.999Z</time></trkpt><trkpt lat="45.3684605382886" lon="9.621495909199874"><ele>82.0</ele><time>2026-04-06T09:43:00.999Z</time></trkpt><trkpt lat="45.36858959619316" lon="9.621172263222173"><ele>81.5</ele><time>2026-04-06T09:43:01.999Z</time></trkpt><trkpt lat="45.36871892604995" lon="9.620850692162357"><ele>81.0</ele><time>2026-04-06T09:43:02.999Z</time></trkpt><trkpt lat="45.36884884017713" lon="9.620528030442905"><ele>82.0</ele><time>2026-04-06T09:43:03.999Z</time></trkpt><trkpt lat="45.36897883441785" lon="9.620204403766838"><ele>83.0</ele><time>2026-04-06T09:43:04.999Z</time></trkpt><trkpt lat="45.369109996337144" lon="9.619880304132229"><ele>83.0</ele><time>2026-04-06T09:43:05.999Z</time></trkpt><trkpt lat="45.369238479397765" lon="9.619555915979378"><ele>83.0</ele><time>2026-04-06T09:43:07Z</time></trkpt><trkpt lat="45.36936569127534" lon="9.619234115436418"><ele>83.5</ele><time>2026-04-06T09:43:08Z</time></trkpt><trkpt lat="45.36949188298863" lon="9.6189057934597"><ele>84.0</ele><time>2026-04-06T09:43:09Z</time></trkpt><trkpt lat="45.369616177593095" lon="9.618582215702409"><ele>82.5</ele><time>2026-04-06T09:43:10Z</time></trkpt><trkpt lat="45.36974095044001" lon="9.618256974917221"><ele>81.0</ele><time>2026-04-06T09:43:11Z</time></trkpt><trkpt lat="45.369866097348016" lon="9.617934274181097"><ele>81.0</ele><time>2026-04-06T09:43:12Z</time></trkpt><trkpt lat="45.36999217639346" lon="9.617616498784207"><ele>81.0</ele><time>2026-04-06T09:43:13Z</time></trkpt><trkpt lat="45.37012311053238" lon="9.617300632050547"><ele>81.0</ele><time>2026-04-06T09:43:14Z</time></trkpt><trkpt lat="45.370257487329134" lon="9.616994117426561"><ele>81.0</ele><time>2026-04-06T09:43:15Z</time></trkpt><trkpt lat="45.37039494070059" lon="9.616685609339756"><ele>81.5</ele><time>2026-04-06T09:43:16Z</time></trkpt><trkpt lat="45.37053838637796" lon="9.616379018015893"><ele>82.0</ele><time>2026-04-06T09:43:17Z</time></trkpt><trkpt lat="45.37068216738596" lon="9.616070201033775"><ele>82.5</ele><time>2026-04-06T09:43:18Z</time></trkpt><trkpt lat="45.3708205498014" lon="9.615756702812936"><ele>83.0</ele><time>2026-04-06T09:43:19Z</time></trkpt><trkpt lat="45.37095546064202" lon="9.615439359112225"><ele>82.0</ele><time>2026-04-06T09:43:20Z</time></trkpt><trkpt lat="45.37108867945721" lon="9.615118327069716"><ele>81.0</ele><time>2026-04-06T09:43:21Z</time></trkpt><trkpt lat="45.371221786299195" lon="9.614801849452398"><ele>82.0</ele><time>2026-04-06T09:43:22Z</time></trkpt><trkpt lat="45.37135872549186" lon="9.614484091280696"><ele>83.0</ele><time>2026-04-06T09:43:23Z</time></trkpt><trkpt lat="45.37149435495163" lon="9.614170336403038"><ele>83.0</ele><time>2026-04-06T09:43:24Z</time></trkpt><trkpt lat="45.37162812610889" lon="9.613853293285503"><ele>83.0</ele><time>2026-04-06T09:43:25Z</time></trkpt><trkpt lat="45.37176413310891" lon="9.613544597048946"><ele>82.5</ele><time>2026-04-06T09:43:26Z</time></trkpt><trkpt lat="45.371897815631" lon="9.613227618997675"><ele>82.0</ele><time>2026-04-06T09:43:27Z</time></trkpt><trkpt lat="45.37202910962766" lon="9.61291358762774"><ele>82.5</ele><time>2026-04-06T09:43:28Z</time></trkpt><trkpt lat="45.37215857088886" lon="9.612602901797967"><ele>83.0</ele><time>2026-04-06T09:43:29Z</time></trkpt><trkpt lat="45.37229036361508" lon="9.61229217166358"><ele>82.0</ele><time>2026-04-06T09:43:30Z</time></trkpt><trkpt lat="45.372422230883096" lon="9.611980559036695"><ele>81.0</ele><time>2026-04-06T09:43:31Z</time></trkpt><trkpt lat="45.37255746960241" lon="9.611666948075996"><ele>81.0</ele><time>2026-04-06T09:43:32Z</time></trkpt><trkpt lat="45.37269127411873" lon="9.611352435001297"><ele>81.0</ele><time>2026-04-06T09:43:33Z</time></trkpt><trkpt lat="45.37282263633845" lon="9.611032420576324"><ele>82.0</ele><time>2026-04-06T09:43:34Z</time></trkpt><trkpt lat="45.37295351650332" lon="9.610713239151814"><ele>83.0</ele><time>2026-04-06T09:43:35Z</time></trkpt><trkpt lat="45.37308636130961" lon="9.610392940203612"><ele>84.5</ele><time>2026-04-06T09:43:36Z</time></trkpt><trkpt lat="45.373219409998086" lon="9.610073001058751"><ele>86.0</ele><time>2026-04-06T09:43:37Z</time></trkpt><trkpt lat="45.37335165771962" lon="9.60975427019799"><ele>85.0</ele><time>2026-04-06T09:43:38Z</time></trkpt><trkpt lat="45.373483055943275" lon="9.609434453743603"><ele>84.0</ele><time>2026-04-06T09:43:39Z</time></trkpt><trkpt lat="45.3736134028352" lon="9.609112422230375"><ele>84.0</ele><time>2026-04-06T09:43:40Z</time></trkpt><trkpt lat="45.37374135161242" lon="9.608786943172266"><ele>84.0</ele><time>2026-04-06T09:43:41Z</time></trkpt><trkpt lat="45.373870141601394" lon="9.60846090916842"><ele>84.0</ele><time>2026-04-06T09:43:42Z</time></trkpt><trkpt lat="45.37399966338596" lon="9.608134575125723"><ele>84.0</ele><time>2026-04-06T09:43:43Z</time></trkpt><trkpt lat="45.37413113979223" lon="9.607809654014899"><ele>83.5</ele><time>2026-04-06T09:43:44Z</time></trkpt><trkpt lat="45.374263957241354" lon="9.607484902962582"><ele>83.0</ele><time>2026-04-06T09:43:45Z</time></trkpt><trkpt lat="45.37439786381659" lon="9.6071584741772"><ele>82.5</ele><time>2026-04-06T09:43:46Z</time></trkpt><trkpt lat="45.37453458237714" lon="9.606831609784216"><ele>82.0</ele><time>2026-04-06T09:43:47Z</time></trkpt><trkpt lat="45.37467159990776" lon="9.606505663284832"><ele>82.0</ele><time>2026-04-06T09:43:48Z</time></trkpt><trkpt lat="45.3748052341072" lon="9.60617640144057"><ele>82.0</ele><time>2026-04-06T09:43:49Z</time></trkpt><trkpt lat="45.37493979192553" lon="9.605849906811423"><ele>82.0</ele><time>2026-04-06T09:43:50Z</time></trkpt><trkpt lat="45.3750745908989" lon="9.605527852694717"><ele>82.0</ele><time>2026-04-06T09:43:51Z</time></trkpt><trkpt lat="45.37520671102535" lon="9.605205125986064"><ele>81.5</ele><time>2026-04-06T09:43:52Z</time></trkpt><trkpt lat="45.375338753514505" lon="9.604878835848705"><ele>81.0</ele><time>2026-04-06T09:43:53Z</time></trkpt><trkpt lat="45.37547026967104" lon="9.60455438136394"><ele>82.0</ele><time>2026-04-06T09:43:54Z</time></trkpt><trkpt lat="45.37559878687944" lon="9.604229363246123"><ele>83.0</ele><time>2026-04-06T09:43:55Z</time></trkpt><trkpt lat="45.3757308920557" lon="9.603905497805085"><ele>82.5</ele><time>2026-04-06T09:43:56Z</time></trkpt><trkpt lat="45.375864576987745" lon="9.603584961662813"><ele>82.0</ele><time>2026-04-06T09:43:57Z</time></trkpt><trkpt lat="45.37599978386818" lon="9.60326826500162"><ele>82.0</ele><time>2026-04-06T09:43:57.999Z</time></trkpt><trkpt lat="45.37613423536743" lon="9.6029507546381"><ele>82.0</ele><time>2026-04-06T09:43:58.999Z</time></trkpt><trkpt lat="45.37626613651096" lon="9.6026315208493"><ele>83.0</ele><time>2026-04-06T09:43:59.999Z</time></trkpt><trkpt lat="45.376397164639776" lon="9.602313116800552"><ele>84.0</ele><time>2026-04-06T09:44:00.999Z</time></trkpt><trkpt lat="45.376526599965274" lon="9.601995776227394"><ele>84.0</ele><time>2026-04-06T09:44:01.999Z</time></trkpt><trkpt lat="45.376658084671355" lon="9.601680355241555"><ele>84.0</ele><time>2026-04-06T09:44:02.999Z</time></trkpt><trkpt lat="45.37678923858905" lon="9.601364970606362"><ele>84.0</ele><time>2026-04-06T09:44:03.999Z</time></trkpt><trkpt lat="45.37691988217921" lon="9.60104667482273"><ele>84.0</ele><time>2026-04-06T09:44:04.999Z</time></trkpt><trkpt lat="45.377047412318994" lon="9.600721083319488"><ele>84.0</ele><time>2026-04-06T09:44:05.999Z</time></trkpt><trkpt lat="45.37717382440763" lon="9.600392416431879"><ele>84.0</ele><time>2026-04-06T09:44:06.999Z</time></trkpt><trkpt lat="45.37729993433929" lon="9.60006426997117"><ele>82.0</ele><time>2026-04-06T09:44:07.999Z</time></trkpt><trkpt lat="45.37743040796884" lon="9.599744670311377"><ele>80.0</ele><time>2026-04-06T09:44:08.999Z</time></trkpt><trkpt lat="45.377560491867534" lon="9.599423059314622"><ele>80.0</ele><time>2026-04-06T09:44:09.999Z</time></trkpt><trkpt lat="45.37769144270667" lon="9.59910259710616"><ele>80.0</ele><time>2026-04-06T09:44:10.999Z</time></trkpt><trkpt lat="45.37782288537286" lon="9.598780940724657"><ele>80.0</ele><time>2026-04-06T09:44:11.999Z</time></trkpt><trkpt lat="45.377952987874" lon="9.598458689895965"><ele>80.0</ele><time>2026-04-06T09:44:12.999Z</time></trkpt><trkpt lat="45.3780769425764" lon="9.598130872899073"><ele>80.0</ele><time>2026-04-06T09:44:13.999Z</time></trkpt><trkpt lat="45.37818970254179" lon="9.597799150561764"><ele>80.0</ele><time>2026-04-06T09:44:14.999Z</time></trkpt><trkpt lat="45.378282465308736" lon="9.597450937755385"><ele>80.0</ele><time>2026-04-06T09:44:15.999Z</time></trkpt><trkpt lat="45.378365773512506" lon="9.597096428627951"><ele>80.0</ele><time>2026-04-06T09:44:16.999Z</time></trkpt><trkpt lat="45.378441085288515" lon="9.59674011891428"><ele>80.0</ele><time>2026-04-06T09:44:17.999Z</time></trkpt><trkpt lat="45.37850632316086" lon="9.596379101536597"><ele>80.0</ele><time>2026-04-06T09:44:18.999Z</time></trkpt><trkpt lat="45.378561593241066" lon="9.596014478534045"><ele>81.0</ele><time>2026-04-06T09:44:19.999Z</time></trkpt><trkpt lat="45.37861187522884" lon="9.595645602026732"><ele>82.0</ele><time>2026-04-06T09:44:20.999Z</time></trkpt><trkpt lat="45.37866239588016" lon="9.59527621289894"><ele>82.0</ele><time>2026-04-06T09:44:21.999Z</time></trkpt><trkpt lat="45.378714313678955" lon="9.594913355132523"><ele>82.0</ele><time>2026-04-06T09:44:22.999Z</time></trkpt><trkpt lat="45.378768073215724" lon="9.594548888593927"><ele>82.5</ele><time>2026-04-06T09:44:23.999Z</time></trkpt><trkpt lat="45.37882126844581" lon="9.594183605380247"><ele>83.0</ele><time>2026-04-06T09:44:24.999Z</time></trkpt><trkpt lat="45.37886778738638" lon="9.59382233578068"><ele>82.0</ele><time>2026-04-06T09:44:25.999Z</time></trkpt><trkpt lat="45.37891347124792" lon="9.593459386389796"><ele>81.0</ele><time>2026-04-06T09:44:26.999Z</time></trkpt><trkpt lat="45.3789595862294" lon="9.593098752425465"><ele>81.0</ele><time>2026-04-06T09:44:27.999Z</time></trkpt><trkpt lat="45.37900759405301" lon="9.592736167421117"><ele>81.0</ele><time>2026-04-06T09:44:28.999Z</time></trkpt><trkpt lat="45.37905441936912" lon="9.592376208750212"><ele>81.0</ele><time>2026-04-06T09:44:29.999Z</time></trkpt><trkpt lat="45.37910640238373" lon="9.592018166774674"><ele>81.0</ele><time>2026-04-06T09:44:30.999Z</time></trkpt><trkpt lat="45.37916004803318" lon="9.591657824692804"><ele>81.0</ele><time>2026-04-06T09:44:31.999Z</time></trkpt><trkpt lat="45.37920988835923" lon="9.59129567682387"><ele>81.0</ele><time>2026-04-06T09:44:32.999Z</time></trkpt><trkpt lat="45.379259015290835" lon="9.590935011932148"><ele>82.0</ele><time>2026-04-06T09:44:33.999Z</time></trkpt><trkpt lat="45.37931016749871" lon="9.590570752882897"><ele>83.0</ele><time>2026-04-06T09:44:34.999Z</time></trkpt><trkpt lat="45.37936301138799" lon="9.590213274678081"><ele>83.0</ele><time>2026-04-06T09:44:35.999Z</time></trkpt><trkpt lat="45.37941526592673" lon="9.589851542862366"><ele>83.0</ele><time>2026-04-06T09:44:36.999Z</time></trkpt><trkpt lat="45.37947049712606" lon="9.589491094318488"><ele>82.5</ele><time>2026-04-06T09:44:37.999Z</time></trkpt><trkpt lat="45.37952482845872" lon="9.589132725722624"><ele>82.0</ele><time>2026-04-06T09:44:38.999Z</time></trkpt><trkpt lat="45.37957765087075" lon="9.588776109472644"><ele>82.0</ele><time>2026-04-06T09:44:39.999Z</time></trkpt><trkpt lat="45.3796304526682" lon="9.588418627512285"><ele>82.0</ele><time>2026-04-06T09:44:40.999Z</time></trkpt><trkpt lat="45.37968509512581" lon="9.588065773990774"><ele>82.5</ele><time>2026-04-06T09:44:41.999Z</time></trkpt><trkpt lat="45.3797381558634" lon="9.587710259672432"><ele>83.0</ele><time>2026-04-06T09:44:42.999Z</time></trkpt><trkpt lat="45.37978801047576" lon="9.58736422741029"><ele>83.0</ele><time>2026-04-06T09:44:43.999Z</time></trkpt><trkpt lat="45.37983750872623" lon="9.587020628123165"><ele>83.0</ele><time>2026-04-06T09:44:44.999Z</time></trkpt><trkpt lat="45.379889983657065" lon="9.586675208527256"><ele>83.0</ele><time>2026-04-06T09:44:45.999Z</time></trkpt><trkpt lat="45.37994278277825" lon="9.58632431583865"><ele>83.0</ele><time>2026-04-06T09:44:46.999Z</time></trkpt><trkpt lat="45.3799934149967" lon="9.585974953892862"><ele>83.0</ele><time>2026-04-06T09:44:47.999Z</time></trkpt><trkpt lat="45.38004307260948" lon="9.58562716150068"><ele>83.0</ele><time>2026-04-06T09:44:48.999Z</time></trkpt><trkpt lat="45.38008833542988" lon="9.585275837711949"><ele>83.0</ele><time>2026-04-06T09:44:49.999Z</time></trkpt><trkpt lat="45.38013555622421" lon="9.584936395404384"><ele>83.0</ele><time>2026-04-06T09:44:50.999Z</time></trkpt><trkpt lat="45.380186689386534" lon="9.584598004747214"><ele>84.0</ele><time>2026-04-06T09:44:51.999Z</time></trkpt><trkpt lat="45.38023602482803" lon="9.58426614002822"><ele>85.0</ele><time>2026-04-06T09:44:52.999Z</time></trkpt><trkpt lat="45.38028608070799" lon="9.583925609479685"><ele>85.5</ele><time>2026-04-06T09:44:53.999Z</time></trkpt><trkpt lat="45.380338487575756" lon="9.583581111102687"><ele>86.0</ele><time>2026-04-06T09:44:54.999Z</time></trkpt><trkpt lat="45.3803899818266" lon="9.583232744167386"><ele>86.0</ele><time>2026-04-06T09:44:55.999Z</time></trkpt><trkpt lat="45.380442668321244" lon="9.582879253217335"><ele>86.0</ele><time>2026-04-06T09:44:56.999Z</time></trkpt><trkpt lat="45.380498852520795" lon="9.582527487671278"><ele>85.5</ele><time>2026-04-06T09:44:57.999Z</time></trkpt><trkpt lat="45.38055502351725" lon="9.582178028607347"><ele>85.0</ele><time>2026-04-06T09:44:58.999Z</time></trkpt><trkpt lat="45.38060867221515" lon="9.581822776851507"><ele>84.5</ele><time>2026-04-06T09:44:59.999Z</time></trkpt><trkpt lat="45.38066247345365" lon="9.581470229754636"><ele>84.0</ele><time>2026-04-06T09:45:00.999Z</time></trkpt><trkpt lat="45.38071587022514" lon="9.581121983199974"><ele>83.0</ele><time>2026-04-06T09:45:01.999Z</time></trkpt><trkpt lat="45.38077250745301" lon="9.580761242295928"><ele>82.0</ele><time>2026-04-06T09:45:02.999Z</time></trkpt><trkpt lat="45.38082726272572" lon="9.580411145682099"><ele>82.0</ele><time>2026-04-06T09:45:03.999Z</time></trkpt><trkpt lat="45.38088221150871" lon="9.580049200263236"><ele>82.0</ele><time>2026-04-06T09:45:04.999Z</time></trkpt><trkpt lat="45.380937998417714" lon="9.579680643409212"><ele>82.5</ele><time>2026-04-06T09:45:05.999Z</time></trkpt><trkpt lat="45.38099249299647" lon="9.579315870743487"><ele>83.0</ele><time>2026-04-06T09:45:06.999Z</time></trkpt><trkpt lat="45.38104393662136" lon="9.578947551795443"><ele>83.5</ele><time>2026-04-06T09:45:07.999Z</time></trkpt><trkpt lat="45.381097782680804" lon="9.578575189836819"><ele>84.0</ele><time>2026-04-06T09:45:08.999Z</time></trkpt><trkpt lat="45.381157228747355" lon="9.578199113928818"><ele>84.0</ele><time>2026-04-06T09:45:09.999Z</time></trkpt><trkpt lat="45.381217774360074" lon="9.57783419977403"><ele>84.0</ele><time>2026-04-06T09:45:10.999Z</time></trkpt><trkpt lat="45.381275131872314" lon="9.577467366723287"><ele>84.0</ele><time>2026-04-06T09:45:11.999Z</time></trkpt><trkpt lat="45.38133164659939" lon="9.577097183948268"><ele>84.0</ele><time>2026-04-06T09:45:13Z</time></trkpt><trkpt lat="45.381387157903966" lon="9.576724919750008"><ele>84.0</ele><time>2026-04-06T09:45:14Z</time></trkpt><trkpt lat="45.3814442521287" lon="9.576352300743777"><ele>84.0</ele><time>2026-04-06T09:45:15Z</time></trkpt><trkpt lat="45.38149836757275" lon="9.575982154761443"><ele>83.5</ele><time>2026-04-06T09:45:16Z</time></trkpt><trkpt lat="45.38155343893028" lon="9.575607222678356"><ele>83.0</ele><time>2026-04-06T09:45:17Z</time></trkpt><trkpt lat="45.38160876107295" lon="9.575227542085731"><ele>83.0</ele><time>2026-04-06T09:45:18Z</time></trkpt><trkpt lat="45.381665315052025" lon="9.57483954008553"><ele>83.0</ele><time>2026-04-06T09:45:19Z</time></trkpt><trkpt lat="45.381720225008515" lon="9.574451637438422"><ele>83.5</ele><time>2026-04-06T09:45:20Z</time></trkpt><trkpt lat="45.38177338782567" lon="9.57405954016195"><ele>84.0</ele><time>2026-04-06T09:45:21Z</time></trkpt><trkpt lat="45.38182758674098" lon="9.573666107060744"><ele>84.5</ele><time>2026-04-06T09:45:22Z</time></trkpt><trkpt lat="45.38188429780137" lon="9.573277760313001"><ele>85.0</ele><time>2026-04-06T09:45:23Z</time></trkpt><trkpt lat="45.381939765862" lon="9.572888815400336"><ele>84.5</ele><time>2026-04-06T09:45:24Z</time></trkpt><trkpt lat="45.3819945607366" lon="9.572504277934323"><ele>84.0</ele><time>2026-04-06T09:45:25Z</time></trkpt><trkpt lat="45.38205188204442" lon="9.572127732617501"><ele>84.0</ele><time>2026-04-06T09:45:26Z</time></trkpt><trkpt lat="45.38210770138278" lon="9.571750927688122"><ele>84.0</ele><time>2026-04-06T09:45:27Z</time></trkpt><trkpt lat="45.38216426814036" lon="9.571375482358189"><ele>83.5</ele><time>2026-04-06T09:45:28Z</time></trkpt><trkpt lat="45.382219130494406" lon="9.57100061688826"><ele>83.0</ele><time>2026-04-06T09:45:29Z</time></trkpt><trkpt lat="45.38227424589283" lon="9.570621050311706"><ele>82.0</ele><time>2026-04-06T09:45:30Z</time></trkpt><trkpt lat="45.38232950140929" lon="9.570245504956072"><ele>81.0</ele><time>2026-04-06T09:45:31Z</time></trkpt><trkpt lat="45.38238817100278" lon="9.56986786648866"><ele>80.5</ele><time>2026-04-06T09:45:32Z</time></trkpt><trkpt lat="45.382447239056816" lon="9.569488781741233"><ele>80.0</ele><time>2026-04-06T09:45:33Z</time></trkpt><trkpt lat="45.38250432635964" lon="9.569107617441645"><ele>80.0</ele><time>2026-04-06T09:45:34Z</time></trkpt><trkpt lat="45.38256097895852" lon="9.568731886184283"><ele>80.0</ele><time>2026-04-06T09:45:35Z</time></trkpt><trkpt lat="45.382615360617386" lon="9.568355284973656"><ele>80.0</ele><time>2026-04-06T09:45:36Z</time></trkpt><trkpt lat="45.38266999002482" lon="9.567981013225973"><ele>80.0</ele><time>2026-04-06T09:45:37Z</time></trkpt><trkpt lat="45.38272150242002" lon="9.567605320113897"><ele>80.0</ele><time>2026-04-06T09:45:38Z</time></trkpt><trkpt lat="45.382769780555215" lon="9.567232346441335"><ele>80.0</ele><time>2026-04-06T09:45:39Z</time></trkpt><trkpt lat="45.38282245441581" lon="9.56686343712781"><ele>79.5</ele><time>2026-04-06T09:45:40Z</time></trkpt><trkpt lat="45.382876077778604" lon="9.566488386999305"><ele>79.0</ele><time>2026-04-06T09:45:41Z</time></trkpt><trkpt lat="45.38292766443988" lon="9.566121502698863"><ele>78.5</ele><time>2026-04-06T09:45:42Z</time></trkpt><trkpt lat="45.38297785500538" lon="9.565751272914438"><ele>78.0</ele><time>2026-04-06T09:45:43Z</time></trkpt><trkpt lat="45.38302974547365" lon="9.565378629443572"><ele>77.5</ele><time>2026-04-06T09:45:44Z</time></trkpt><trkpt lat="45.38308827395918" lon="9.565013028755455"><ele>77.0</ele><time>2026-04-06T09:45:45Z</time></trkpt><trkpt lat="45.38314399962978" lon="9.564649818517326"><ele>77.5</ele><time>2026-04-06T09:45:46Z</time></trkpt><trkpt lat="45.383197374836584" lon="9.564283967955431"><ele>78.0</ele><time>2026-04-06T09:45:47Z</time></trkpt><trkpt lat="45.38324423049986" lon="9.56391847493888"><ele>77.0</ele><time>2026-04-06T09:45:48Z</time></trkpt><trkpt lat="45.383294405529725" lon="9.563559890503019"><ele>76.0</ele><time>2026-04-06T09:45:49Z</time></trkpt><trkpt lat="45.38334645865158" lon="9.563197625931828"><ele>76.0</ele><time>2026-04-06T09:45:50Z</time></trkpt><trkpt lat="45.38339560029148" lon="9.562839460140433"><ele>76.0</ele><time>2026-04-06T09:45:51Z</time></trkpt><trkpt lat="45.38344430981368" lon="9.562479613699663"><ele>76.0</ele><time>2026-04-06T09:45:52Z</time></trkpt><trkpt lat="45.38349185898558" lon="9.562121231933936"><ele>76.0</ele><time>2026-04-06T09:45:52.999Z</time></trkpt><trkpt lat="45.383542226266094" lon="9.561753422829222"><ele>75.5</ele><time>2026-04-06T09:45:53.999Z</time></trkpt><trkpt lat="45.38359636096375" lon="9.561382710165251"><ele>75.0</ele><time>2026-04-06T09:45:54.999Z</time></trkpt><trkpt lat="45.3836441646273" lon="9.561013521787746"><ele>76.0</ele><time>2026-04-06T09:45:55.999Z</time></trkpt><trkpt lat="45.38369797988356" lon="9.560636627521857"><ele>77.0</ele><time>2026-04-06T09:45:56.999Z</time></trkpt><trkpt lat="45.38375752749239" lon="9.560265027825343"><ele>77.0</ele><time>2026-04-06T09:45:57.999Z</time></trkpt><trkpt lat="45.38380056006659" lon="9.559888808267253"><ele>77.0</ele><time>2026-04-06T09:45:58.999Z</time></trkpt><trkpt lat="45.383851261218865" lon="9.559518846298777"><ele>77.0</ele><time>2026-04-06T09:45:59.999Z</time></trkpt><trkpt lat="45.38391120689125" lon="9.55915672452108"><ele>77.0</ele><time>2026-04-06T09:46:00.999Z</time></trkpt><trkpt lat="45.38396157467933" lon="9.558793461923933"><ele>77.0</ele><time>2026-04-06T09:46:01.999Z</time></trkpt><trkpt lat="45.38400540178238" lon="9.558424390871407"><ele>77.0</ele><time>2026-04-06T09:46:02.999Z</time></trkpt><trkpt lat="45.384046616921616" lon="9.558061703760117"><ele>77.5</ele><time>2026-04-06T09:46:03.999Z</time></trkpt><trkpt lat="45.38409185983713" lon="9.55769357893328"><ele>78.0</ele><time>2026-04-06T09:46:04.999Z</time></trkpt><trkpt lat="45.384142439153884" lon="9.557333840491864"><ele>78.5</ele><time>2026-04-06T09:46:05.999Z</time></trkpt><trkpt lat="45.38418994110991" lon="9.556973966655661"><ele>79.0</ele><time>2026-04-06T09:46:06.999Z</time></trkpt><trkpt lat="45.38423833912927" lon="9.556611283970259"><ele>79.0</ele><time>2026-04-06T09:46:07.999Z</time></trkpt><trkpt lat="45.38428903907598" lon="9.556251658426826"><ele>79.0</ele><time>2026-04-06T09:46:08.999Z</time></trkpt><trkpt lat="45.38434012119497" lon="9.555891751542777"><ele>78.5</ele><time>2026-04-06T09:46:09.999Z</time></trkpt><trkpt lat="45.38439440056286" lon="9.555535320340246"><ele>78.0</ele><time>2026-04-06T09:46:10.999Z</time></trkpt><trkpt lat="45.38445544329615" lon="9.555178443670494"><ele>77.5</ele><time>2026-04-06T09:46:11.999Z</time></trkpt><trkpt lat="45.38451252342802" lon="9.554822656474594"><ele>77.0</ele><time>2026-04-06T09:46:12.999Z</time></trkpt><trkpt lat="45.38456525479774" lon="9.55447155347792"><ele>76.5</ele><time>2026-04-06T09:46:13.999Z</time></trkpt><trkpt lat="45.38461509945381" lon="9.55412239039375"><ele>76.0</ele><time>2026-04-06T09:46:14.999Z</time></trkpt><trkpt lat="45.384667232751355" lon="9.55377307069607"><ele>76.5</ele><time>2026-04-06T09:46:15.999Z</time></trkpt><trkpt lat="45.38472186620528" lon="9.553417991417124"><ele>77.0</ele><time>2026-04-06T09:46:16.999Z</time></trkpt><trkpt lat="45.384773365776375" lon="9.55306450834752"><ele>78.0</ele><time>2026-04-06T09:46:17.999Z</time></trkpt><trkpt lat="45.384822355735" lon="9.55271124059269"><ele>79.0</ele><time>2026-04-06T09:46:18.999Z</time></trkpt><trkpt lat="45.38487005511105" lon="9.552356095947461"><ele>78.0</ele><time>2026-04-06T09:46:19.999Z</time></trkpt><trkpt lat="45.3849181236194" lon="9.552001578463997"><ele>77.0</ele><time>2026-04-06T09:46:20.999Z</time></trkpt><trkpt lat="45.384967366015374" lon="9.551639395600757"><ele>77.0</ele><time>2026-04-06T09:46:21.999Z</time></trkpt><trkpt lat="45.38502162587226" lon="9.55128515184337"><ele>77.0</ele><time>2026-04-06T09:46:22.999Z</time></trkpt><trkpt lat="45.38507366630037" lon="9.550930256574956"><ele>77.0</ele><time>2026-04-06T09:46:23.999Z</time></trkpt><trkpt lat="45.385126212922046" lon="9.55057077719515"><ele>77.0</ele><time>2026-04-06T09:46:24.999Z</time></trkpt><trkpt lat="45.38517480459891" lon="9.550214694053125"><ele>76.5</ele><time>2026-04-06T09:46:25.999Z</time></trkpt><trkpt lat="45.3852222801026" lon="9.549859619151478"><ele>76.0</ele><time>2026-04-06T09:46:26.999Z</time></trkpt><trkpt lat="45.38526905612268" lon="9.549500316046895"><ele>76.0</ele><time>2026-04-06T09:46:27.999Z</time></trkpt><trkpt lat="45.38531776018757" lon="9.549151428667612"><ele>76.0</ele><time>2026-04-06T09:46:28.999Z</time></trkpt><trkpt lat="45.38536624748309" lon="9.548795716856867"><ele>76.0</ele><time>2026-04-06T09:46:29.999Z</time></trkpt><trkpt lat="45.38541418160889" lon="9.548448381026994"><ele>76.0</ele><time>2026-04-06T09:46:30.999Z</time></trkpt><trkpt lat="45.38546265061991" lon="9.548100591122585"><ele>76.5</ele><time>2026-04-06T09:46:31.999Z</time></trkpt><trkpt lat="45.38551004856827" lon="9.547757979490404"><ele>77.0</ele><time>2026-04-06T09:46:32.999Z</time></trkpt><trkpt lat="45.3855592790679" lon="9.547417873214258"><ele>77.5</ele><time>2026-04-06T09:46:33.999Z</time></trkpt><trkpt lat="45.38561169584777" lon="9.547081117200808"><ele>78.0</ele><time>2026-04-06T09:46:34.999Z</time></trkpt><trkpt lat="45.38566340021061" lon="9.546744851418278"><ele>78.5</ele><time>2026-04-06T09:46:35.999Z</time></trkpt><trkpt lat="45.38571317072554" lon="9.546409929153192"><ele>79.0</ele><time>2026-04-06T09:46:36.999Z</time></trkpt><trkpt lat="45.38576634557215" lon="9.54607207885575"><ele>78.0</ele><time>2026-04-06T09:46:37.999Z</time></trkpt><trkpt lat="45.385820790962" lon="9.545733303849932"><ele>77.0</ele><time>2026-04-06T09:46:38.999Z</time></trkpt><trkpt lat="45.38587598257062" lon="9.54539697247998"><ele>77.5</ele><time>2026-04-06T09:46:39.999Z</time></trkpt><trkpt lat="45.38593303386738" lon="9.545047387158291"><ele>78.0</ele><time>2026-04-06T09:46:40.999Z</time></trkpt><trkpt lat="45.38599478696286" lon="9.54466825253027"><ele>78.5</ele><time>2026-04-06T09:46:41.999Z</time></trkpt><trkpt lat="45.386053256778794" lon="9.54431390154936"><ele>79.0</ele><time>2026-04-06T09:46:42.999Z</time></trkpt><trkpt lat="45.38611075378347" lon="9.543964106297622"><ele>78.5</ele><time>2026-04-06T09:46:43.999Z</time></trkpt><trkpt lat="45.38617031459148" lon="9.543617486612115"><ele>78.0</ele><time>2026-04-06T09:46:44.999Z</time></trkpt><trkpt lat="45.38623149634206" lon="9.543273512198395"><ele>78.0</ele><time>2026-04-06T09:46:45.999Z</time></trkpt><trkpt lat="45.386290332357504" lon="9.542925983607903"><ele>78.0</ele><time>2026-04-06T09:46:46.999Z</time></trkpt><trkpt lat="45.38635520877591" lon="9.54258353531203"><ele>78.0</ele><time>2026-04-06T09:46:47.999Z</time></trkpt><trkpt lat="45.38642136320286" lon="9.542241823143161"><ele>78.0</ele><time>2026-04-06T09:46:48.999Z</time></trkpt><trkpt lat="45.38648445422825" lon="9.54189676768102"><ele>78.0</ele><time>2026-04-06T09:46:49.999Z</time></trkpt><trkpt lat="45.38654327338368" lon="9.541555692813844"><ele>78.0</ele><time>2026-04-06T09:46:50.999Z</time></trkpt><trkpt lat="45.38659956120951" lon="9.541215900685774"><ele>78.0</ele><time>2026-04-06T09:46:51.999Z</time></trkpt><trkpt lat="45.38665703755787" lon="9.540875601777193"><ele>78.0</ele><time>2026-04-06T09:46:52.999Z</time></trkpt><trkpt lat="45.386718301027834" lon="9.540533099407288"><ele>78.5</ele><time>2026-04-06T09:46:53.999Z</time></trkpt><trkpt lat="45.38678301191924" lon="9.540191881750271"><ele>79.0</ele><time>2026-04-06T09:46:54.999Z</time></trkpt><trkpt lat="45.38684294243071" lon="9.539847124081879"><ele>79.0</ele><time>2026-04-06T09:46:55.999Z</time></trkpt><trkpt lat="45.386901863195256" lon="9.539507651058553"><ele>79.0</ele><time>2026-04-06T09:46:56.999Z</time></trkpt><trkpt lat="45.38696012698494" lon="9.539170313775212"><ele>79.0</ele><time>2026-04-06T09:46:57.999Z</time></trkpt><trkpt lat="45.38702154628364" lon="9.538836986670542"><ele>79.0</ele><time>2026-04-06T09:46:58.999Z</time></trkpt><trkpt lat="45.3870835840393" lon="9.538505218787378"><ele>79.0</ele><time>2026-04-06T09:46:59.999Z</time></trkpt><trkpt lat="45.38714525162081" lon="9.538171219319496"><ele>79.0</ele><time>2026-04-06T09:47:00.999Z</time></trkpt><trkpt lat="45.387202933923916" lon="9.53783888470581"><ele>79.0</ele><time>2026-04-06T09:47:01.999Z</time></trkpt><trkpt lat="45.38726034639888" lon="9.537504135095071"><ele>79.0</ele><time>2026-04-06T09:47:02.999Z</time></trkpt><trkpt lat="45.38731830201941" lon="9.537170075106031"><ele>79.5</ele><time>2026-04-06T09:47:03.999Z</time></trkpt><trkpt lat="45.38737869010717" lon="9.536834956136964"><ele>80.0</ele><time>2026-04-06T09:47:04.999Z</time></trkpt><trkpt lat="45.38743942372744" lon="9.536497045707325"><ele>79.5</ele><time>2026-04-06T09:47:05.999Z</time></trkpt><trkpt lat="45.387496247548526" lon="9.536159944556557"><ele>79.0</ele><time>2026-04-06T09:47:06.999Z</time></trkpt><trkpt lat="45.387552455708175" lon="9.535820968861385"><ele>79.0</ele><time>2026-04-06T09:47:07.999Z</time></trkpt><trkpt lat="45.38760889296756" lon="9.53548533297736"><ele>79.0</ele><time>2026-04-06T09:47:08.999Z</time></trkpt><trkpt lat="45.38766023249064" lon="9.535147451698382"><ele>79.0</ele><time>2026-04-06T09:47:09.999Z</time></trkpt><trkpt lat="45.38771123159224" lon="9.534817509820593"><ele>79.0</ele><time>2026-04-06T09:47:10.999Z</time></trkpt><trkpt lat="45.387763786919486" lon="9.534480517171124"><ele>79.0</ele><time>2026-04-06T09:47:11.999Z</time></trkpt><trkpt lat="45.38781488285262" lon="9.534141683084624"><ele>79.0</ele><time>2026-04-06T09:47:12.999Z</time></trkpt><trkpt lat="45.3878667063896" lon="9.533793562000799"><ele>79.0</ele><time>2026-04-06T09:47:13.999Z</time></trkpt><trkpt lat="45.38791470465643" lon="9.533449898848898"><ele>79.0</ele><time>2026-04-06T09:47:14.999Z</time></trkpt><trkpt lat="45.38796449943806" lon="9.533109648046043"><ele>78.5</ele><time>2026-04-06T09:47:15.999Z</time></trkpt><trkpt lat="45.388014176536295" lon="9.532770031043622"><ele>78.0</ele><time>2026-04-06T09:47:16.999Z</time></trkpt><trkpt lat="45.388063167930305" lon="9.53243559117505"><ele>78.0</ele><time>2026-04-06T09:47:17.999Z</time></trkpt><trkpt lat="45.38811173995109" lon="9.532102192855438"><ele>78.0</ele><time>2026-04-06T09:47:19Z</time></trkpt><trkpt lat="45.388159084941066" lon="9.531765765189679"><ele>78.0</ele><time>2026-04-06T09:47:20Z</time></trkpt><trkpt lat="45.38820911650948" lon="9.531427913866652"><ele>78.0</ele><time>2026-04-06T09:47:21Z</time></trkpt><trkpt lat="45.38825852577361" lon="9.531091160414885"><ele>78.5</ele><time>2026-04-06T09:47:22Z</time></trkpt><trkpt lat="45.38830768292439" lon="9.530753170542233"><ele>79.0</ele><time>2026-04-06T09:47:23Z</time></trkpt><trkpt lat="45.38835504277079" lon="9.53041738805989"><ele>78.5</ele><time>2026-04-06T09:47:24Z</time></trkpt><trkpt lat="45.38840242765632" lon="9.530084229155289"><ele>78.0</ele><time>2026-04-06T09:47:25Z</time></trkpt><trkpt lat="45.38844952167892" lon="9.529752856957527"><ele>77.5</ele><time>2026-04-06T09:47:26Z</time></trkpt><trkpt lat="45.38849879834259" lon="9.529424437356417"><ele>77.0</ele><time>2026-04-06T09:47:27Z</time></trkpt><trkpt lat="45.38854792976276" lon="9.529103492674958"><ele>77.0</ele><time>2026-04-06T09:47:28Z</time></trkpt><trkpt lat="45.3885950215184" lon="9.528774563194009"><ele>77.0</ele><time>2026-04-06T09:47:29Z</time></trkpt><trkpt lat="45.38863962401657" lon="9.528444561979585"><ele>77.5</ele><time>2026-04-06T09:47:30Z</time></trkpt><trkpt lat="45.3886826234137" lon="9.528111975007073"><ele>78.0</ele><time>2026-04-06T09:47:31Z</time></trkpt><trkpt lat="45.388733009050725" lon="9.52777439706404"><ele>78.0</ele><time>2026-04-06T09:47:32Z</time></trkpt><trkpt lat="45.38878008272798" lon="9.527428869771855"><ele>78.0</ele><time>2026-04-06T09:47:33Z</time></trkpt><trkpt lat="45.388829015814885" lon="9.52706692453411"><ele>78.0</ele><time>2026-04-06T09:47:34Z</time></trkpt><trkpt lat="45.388883488252816" lon="9.526720773632416"><ele>78.0</ele><time>2026-04-06T09:47:35Z</time></trkpt><trkpt lat="45.38893138043899" lon="9.526377549952153"><ele>79.5</ele><time>2026-04-06T09:47:36Z</time></trkpt><trkpt lat="45.38897958481351" lon="9.526034387633947"><ele>81.0</ele><time>2026-04-06T09:47:37Z</time></trkpt><trkpt lat="45.38902971954969" lon="9.525690654779261"><ele>81.0</ele><time>2026-04-06T09:47:38.001Z</time></trkpt><trkpt lat="45.38907821675256" lon="9.525350619069457"><ele>81.0</ele><time>2026-04-06T09:47:39.001Z</time></trkpt><trkpt lat="45.38912637607351" lon="9.525011295710614"><ele>81.0</ele><time>2026-04-06T09:47:40.001Z</time></trkpt><trkpt lat="45.38917331396826" lon="9.524673431040226"><ele>81.0</ele><time>2026-04-06T09:47:41.001Z</time></trkpt><trkpt lat="45.389222744804925" lon="9.524335923792137"><ele>80.5</ele><time>2026-04-06T09:47:42Z</time></trkpt><trkpt lat="45.38927184064044" lon="9.5239996203691"><ele>80.0</ele><time>2026-04-06T09:47:43Z</time></trkpt><trkpt lat="45.38932371108736" lon="9.523668590483949"><ele>79.5</ele><time>2026-04-06T09:47:44Z</time></trkpt><trkpt lat="45.389375039731696" lon="9.523336653810548"><ele>79.0</ele><time>2026-04-06T09:47:45Z</time></trkpt><trkpt lat="45.389426238334124" lon="9.523005529196793"><ele>79.5</ele><time>2026-04-06T09:47:46Z</time></trkpt><trkpt lat="45.38947900427551" lon="9.522673811158645"><ele>80.0</ele><time>2026-04-06T09:47:47Z</time></trkpt><trkpt lat="45.38953162504337" lon="9.522338676637974"><ele>80.5</ele><time>2026-04-06T09:47:48Z</time></trkpt><trkpt lat="45.389581699895906" lon="9.522001827617261"><ele>81.0</ele><time>2026-04-06T09:47:49Z</time></trkpt><trkpt lat="45.389630097230395" lon="9.521664113744642"><ele>81.5</ele><time>2026-04-06T09:47:50Z</time></trkpt><trkpt lat="45.38967997566298" lon="9.521323446528859"><ele>82.0</ele><time>2026-04-06T09:47:51Z</time></trkpt><trkpt lat="45.38973482614021" lon="9.520975875218229"><ele>81.5</ele><time>2026-04-06T09:47:52Z</time></trkpt><trkpt lat="45.38978950588693" lon="9.520634827425647"><ele>81.0</ele><time>2026-04-06T09:47:53Z</time></trkpt><trkpt lat="45.38984166457408" lon="9.520293451225497"><ele>81.0</ele><time>2026-04-06T09:47:54Z</time></trkpt><trkpt lat="45.38988979401757" lon="9.519950116879631"><ele>81.0</ele><time>2026-04-06T09:47:55Z</time></trkpt><trkpt lat="45.38993463730622" lon="9.519604903409482"><ele>80.0</ele><time>2026-04-06T09:47:56Z</time></trkpt><trkpt lat="45.38999074353365" lon="9.519273536221794"><ele>79.0</ele><time>2026-04-06T09:47:57Z</time></trkpt><trkpt lat="45.39004389313157" lon="9.51894050963959"><ele>79.0</ele><time>2026-04-06T09:47:58Z</time></trkpt><trkpt lat="45.390093313893175" lon="9.518604626897774"><ele>79.0</ele><time>2026-04-06T09:47:59Z</time></trkpt><trkpt lat="45.39014282240173" lon="9.518270927629397"><ele>79.0</ele><time>2026-04-06T09:48:00Z</time></trkpt><trkpt lat="45.39019201998737" lon="9.517936618004004"><ele>79.0</ele><time>2026-04-06T09:48:01Z</time></trkpt><trkpt lat="45.39024370991247" lon="9.517604942117703"><ele>79.5</ele><time>2026-04-06T09:48:02Z</time></trkpt><trkpt lat="45.39030044366206" lon="9.517273412166638"><ele>80.0</ele><time>2026-04-06T09:48:03Z</time></trkpt><trkpt lat="45.3903563675499" lon="9.516941021890728"><ele>80.5</ele><time>2026-04-06T09:48:04Z</time></trkpt><trkpt lat="45.39040864344884" lon="9.516597900397336"><ele>81.0</ele><time>2026-04-06T09:48:05Z</time></trkpt><trkpt lat="45.39046011847922" lon="9.516251536813558"><ele>80.5</ele><time>2026-04-06T09:48:06Z</time></trkpt><trkpt lat="45.390512470692144" lon="9.515900597329919"><ele>80.0</ele><time>2026-04-06T09:48:07Z</time></trkpt><trkpt lat="45.390568082209626" lon="9.515551856430726"><ele>80.0</ele><time>2026-04-06T09:48:08Z</time></trkpt><trkpt lat="45.39062502834495" lon="9.51520657856428"><ele>80.0</ele><time>2026-04-06T09:48:09Z</time></trkpt><trkpt lat="45.39068083807289" lon="9.514859953267358"><ele>80.5</ele><time>2026-04-06T09:48:10Z</time></trkpt><trkpt lat="45.39073186278011" lon="9.514512972972307"><ele>81.0</ele><time>2026-04-06T09:48:11Z</time></trkpt><trkpt lat="45.390781387538254" lon="9.51416808434141"><ele>81.0</ele><time>2026-04-06T09:48:12Z</time></trkpt><trkpt lat="45.3908312649985" lon="9.513841712321549"><ele>81.0</ele><time>2026-04-06T09:48:13Z</time></trkpt><trkpt lat="45.39088056818034" lon="9.513519379008484"><ele>80.5</ele><time>2026-04-06T09:48:14Z</time></trkpt><trkpt lat="45.39093030547656" lon="9.513191361613233"><ele>80.0</ele><time>2026-04-06T09:48:15Z</time></trkpt><trkpt lat="45.39098158685762" lon="9.512856234714155"><ele>80.0</ele><time>2026-04-06T09:48:16Z</time></trkpt><trkpt lat="45.39103377056036" lon="9.512520152509257"><ele>80.0</ele><time>2026-04-06T09:48:17Z</time></trkpt><trkpt lat="45.391083552620906" lon="9.512189081040491"><ele>80.0</ele><time>2026-04-06T09:48:18Z</time></trkpt><trkpt lat="45.39113115530628" lon="9.51185884289392"><ele>80.0</ele><time>2026-04-06T09:48:19Z</time></trkpt><trkpt lat="45.39118011582356" lon="9.511529772399989"><ele>80.0</ele><time>2026-04-06T09:48:20Z</time></trkpt><trkpt lat="45.39122815742506" lon="9.511193346282894"><ele>80.0</ele><time>2026-04-06T09:48:21Z</time></trkpt><trkpt lat="45.39127714741" lon="9.51085306997496"><ele>80.0</ele><time>2026-04-06T09:48:22Z</time></trkpt><trkpt lat="45.39132501521965" lon="9.510504092910415"><ele>80.0</ele><time>2026-04-06T09:48:23Z</time></trkpt><trkpt lat="45.3913718835054" lon="9.510160356382562"><ele>79.5</ele><time>2026-04-06T09:48:24Z</time></trkpt><trkpt lat="45.39142327730393" lon="9.509820389843545"><ele>79.0</ele><time>2026-04-06T09:48:25Z</time></trkpt><trkpt lat="45.39147354850232" lon="9.509483811887396"><ele>79.0</ele><time>2026-04-06T09:48:26Z</time></trkpt><trkpt lat="45.391523046509135" lon="9.509147625053155"><ele>79.0</ele><time>2026-04-06T09:48:27Z</time></trkpt><trkpt lat="45.39157150179066" lon="9.508815702418119"><ele>79.5</ele><time>2026-04-06T09:48:28Z</time></trkpt><trkpt lat="45.39162103325975" lon="9.508484738915259"><ele>80.0</ele><time>2026-04-06T09:48:29Z</time></trkpt><trkpt lat="45.391673399909116" lon="9.50815511658129"><ele>80.5</ele><time>2026-04-06T09:48:30Z</time></trkpt><trkpt lat="45.39173027806595" lon="9.507823774205221"><ele>81.0</ele><time>2026-04-06T09:48:31Z</time></trkpt><trkpt lat="45.391788993392694" lon="9.507488952243628"><ele>81.0</ele><time>2026-04-06T09:48:32Z</time></trkpt><trkpt lat="45.391843586279826" lon="9.507158641368896"><ele>81.0</ele><time>2026-04-06T09:48:33Z</time></trkpt><trkpt lat="45.391895875526544" lon="9.506829224590328"><ele>81.0</ele><time>2026-04-06T09:48:34Z</time></trkpt><trkpt lat="45.391944208009505" lon="9.50649683944961"><ele>81.0</ele><time>2026-04-06T09:48:35Z</time></trkpt><trkpt lat="45.391987952725216" lon="9.506164924230097"><ele>81.0</ele><time>2026-04-06T09:48:36Z</time></trkpt><trkpt lat="45.39202936636093" lon="9.505831915008331"><ele>81.0</ele><time>2026-04-06T09:48:37Z</time></trkpt><trkpt lat="45.3920715826991" lon="9.505501399995238"><ele>80.5</ele><time>2026-04-06T09:48:38Z</time></trkpt><trkpt lat="45.3921073635712" lon="9.50517051173946"><ele>80.0</ele><time>2026-04-06T09:48:39Z</time></trkpt><trkpt lat="45.39213703991632" lon="9.504840885979869"><ele>80.5</ele><time>2026-04-06T09:48:40Z</time></trkpt><trkpt lat="45.39216331018721" lon="9.504507066727815"><ele>81.0</ele><time>2026-04-06T09:48:41Z</time></trkpt><trkpt lat="45.39218699842625" lon="9.504172300970149"><ele>81.0</ele><time>2026-04-06T09:48:42Z</time></trkpt><trkpt lat="45.3922042935881" lon="9.503836178967568"><ele>81.0</ele><time>2026-04-06T09:48:43Z</time></trkpt><trkpt lat="45.3922174565582" lon="9.503504447681502"><ele>81.0</ele><time>2026-04-06T09:48:44Z</time></trkpt><trkpt lat="45.39223083640557" lon="9.503175100271147"><ele>81.0</ele><time>2026-04-06T09:48:45Z</time></trkpt><trkpt lat="45.39223653294936" lon="9.502838843670375"><ele>81.0</ele><time>2026-04-06T09:48:46Z</time></trkpt><trkpt lat="45.39223486385908" lon="9.502497675502168"><ele>81.0</ele><time>2026-04-06T09:48:47Z</time></trkpt><trkpt lat="45.39223109161218" lon="9.502160285749406"><ele>80.0</ele><time>2026-04-06T09:48:48Z</time></trkpt><trkpt lat="45.392224579451856" lon="9.501823583818489"><ele>79.0</ele><time>2026-04-06T09:48:49Z</time></trkpt><trkpt lat="45.39221578793727" lon="9.501486732962958"><ele>79.0</ele><time>2026-04-06T09:48:50Z</time></trkpt><trkpt lat="45.39220442657396" lon="9.501156059767586"><ele>79.0</ele><time>2026-04-06T09:48:51Z</time></trkpt><trkpt lat="45.39218652130183" lon="9.500823579073327"><ele>79.5</ele><time>2026-04-06T09:48:52Z</time></trkpt><trkpt lat="45.39216590793812" lon="9.50049445927914"><ele>80.0</ele><time>2026-04-06T09:48:53Z</time></trkpt><trkpt lat="45.392139031888235" lon="9.500166220945134"><ele>80.0</ele><time>2026-04-06T09:48:54Z</time></trkpt><trkpt lat="45.3921079433971" lon="9.499839021580467"><ele>80.0</ele><time>2026-04-06T09:48:55Z</time></trkpt><trkpt lat="45.392073443332954" lon="9.499509660837061"><ele>80.0</ele><time>2026-04-06T09:48:56Z</time></trkpt><trkpt lat="45.39203553092802" lon="9.499182406791327"><ele>80.0</ele><time>2026-04-06T09:48:57Z</time></trkpt><trkpt lat="45.391992505278445" lon="9.498855785515225"><ele>80.5</ele><time>2026-04-06T09:48:58Z</time></trkpt><trkpt lat="45.391950140702434" lon="9.498519161303918"><ele>81.0</ele><time>2026-04-06T09:48:59Z</time></trkpt><trkpt lat="45.39190965358405" lon="9.498182149006732"><ele>81.5</ele><time>2026-04-06T09:49:00Z</time></trkpt><trkpt lat="45.39186596348622" lon="9.497844604791583"><ele>82.0</ele><time>2026-04-06T09:49:01Z</time></trkpt><trkpt lat="45.391820924326616" lon="9.49750948923052"><ele>82.0</ele><time>2026-04-06T09:49:02Z</time></trkpt><trkpt lat="45.39177518459888" lon="9.49717775107025"><ele>82.0</ele><time>2026-04-06T09:49:03Z</time></trkpt><trkpt lat="45.391733485612214" lon="9.496843667980391"><ele>82.0</ele><time>2026-04-06T09:49:04Z</time></trkpt><trkpt lat="45.39169309014582" lon="9.49651755746192"><ele>82.0</ele><time>2026-04-06T09:49:05Z</time></trkpt><trkpt lat="45.39165021069615" lon="9.496187984784116"><ele>81.5</ele><time>2026-04-06T09:49:06Z</time></trkpt><trkpt lat="45.3916057790788" lon="9.495860689568302"><ele>81.0</ele><time>2026-04-06T09:49:07Z</time></trkpt><trkpt lat="45.39156285916938" lon="9.495531878149407"><ele>81.0</ele><time>2026-04-06T09:49:08Z</time></trkpt><trkpt lat="45.39151941575664" lon="9.495202569680496"><ele>81.0</ele><time>2026-04-06T09:49:09Z</time></trkpt><trkpt lat="45.39147586428717" lon="9.494873878401126"><ele>80.5</ele><time>2026-04-06T09:49:10Z</time></trkpt><trkpt lat="45.39142956692599" lon="9.494540302112563"><ele>80.0</ele><time>2026-04-06T09:49:11Z</time></trkpt><trkpt lat="45.391385673459844" lon="9.494207845421382"><ele>80.0</ele><time>2026-04-06T09:49:12Z</time></trkpt><trkpt lat="45.391341329856076" lon="9.493876341219874"><ele>80.0</ele><time>2026-04-06T09:49:13Z</time></trkpt><trkpt lat="45.391298570723414" lon="9.493536255624388"><ele>80.5</ele><time>2026-04-06T09:49:14Z</time></trkpt><trkpt lat="45.391257630862654" lon="9.493185605279436"><ele>81.0</ele><time>2026-04-06T09:49:15Z</time></trkpt><trkpt lat="45.39121843159516" lon="9.492839490813662"><ele>81.0</ele><time>2026-04-06T09:49:16Z</time></trkpt><trkpt lat="45.391186439004464" lon="9.492490042138863"><ele>81.0</ele><time>2026-04-06T09:49:17Z</time></trkpt><trkpt lat="45.391161138134756" lon="9.492151452737637"><ele>81.0</ele><time>2026-04-06T09:49:18Z</time></trkpt><trkpt lat="45.391141321465454" lon="9.491815585230453"><ele>81.0</ele><time>2026-04-06T09:49:19Z</time></trkpt><trkpt lat="45.391128648402216" lon="9.491477576028473"><ele>81.0</ele><time>2026-04-06T09:49:20Z</time></trkpt><trkpt lat="45.39112101072434" lon="9.491134073564208"><ele>81.0</ele><time>2026-04-06T09:49:21Z</time></trkpt><trkpt lat="45.39111706537192" lon="9.490793231587087"><ele>81.0</ele><time>2026-04-06T09:49:22Z</time></trkpt><trkpt lat="45.39112180224585" lon="9.49045421015426"><ele>81.0</ele><time>2026-04-06T09:49:23Z</time></trkpt><trkpt lat="45.391134804706894" lon="9.490109390347738"><ele>80.5</ele><time>2026-04-06T09:49:24Z</time></trkpt><trkpt lat="45.39115236896259" lon="9.489759542168233"><ele>80.0</ele><time>2026-04-06T09:49:25.001Z</time></trkpt><trkpt lat="45.39117782227419" lon="9.489414320002979"><ele>80.0</ele><time>2026-04-06T09:49:26.001Z</time></trkpt><trkpt lat="45.3912105666398" lon="9.489068435554927"><ele>80.0</ele><time>2026-04-06T09:49:27.001Z</time></trkpt><trkpt lat="45.391251443973836" lon="9.488723166883087"><ele>80.0</ele><time>2026-04-06T09:49:28.001Z</time></trkpt><trkpt lat="45.39129978023444" lon="9.488377584172806"><ele>80.0</ele><time>2026-04-06T09:49:29.001Z</time></trkpt><trkpt lat="45.39135648230354" lon="9.48803005646559"><ele>79.0</ele><time>2026-04-06T09:49:30.001Z</time></trkpt><trkpt lat="45.39142052374673" lon="9.487679731061961"><ele>78.0</ele><time>2026-04-06T09:49:31.001Z</time></trkpt><trkpt lat="45.39149072343248" lon="9.487339383800641"><ele>77.5</ele><time>2026-04-06T09:49:32.001Z</time></trkpt><trkpt lat="45.39156650208509" lon="9.486999658643843"><ele>77.0</ele><time>2026-04-06T09:49:33.001Z</time></trkpt><trkpt lat="45.3916510379082" lon="9.486664200694692"><ele>77.0</ele><time>2026-04-06T09:49:34.001Z</time></trkpt><trkpt lat="45.39173873464689" lon="9.486329714085953"><ele>77.0</ele><time>2026-04-06T09:49:35.001Z</time></trkpt><trkpt lat="45.391834074564564" lon="9.485997601088156"><ele>78.0</ele><time>2026-04-06T09:49:36.001Z</time></trkpt><trkpt lat="45.39193611213492" lon="9.485671130073772"><ele>79.0</ele><time>2026-04-06T09:49:37.001Z</time></trkpt><trkpt lat="45.392045954628024" lon="9.485349997996684"><ele>79.0</ele><time>2026-04-06T09:49:38.001Z</time></trkpt><trkpt lat="45.39216572384137" lon="9.485033090217481"><ele>79.0</ele><time>2026-04-06T09:49:39.001Z</time></trkpt><trkpt lat="45.392287743611334" lon="9.484722886468257"><ele>79.0</ele><time>2026-04-06T09:49:40Z</time></trkpt><trkpt lat="45.392415963302405" lon="9.484416776588994"><ele>79.0</ele><time>2026-04-06T09:49:41Z</time></trkpt><trkpt lat="45.392551402968316" lon="9.484117722791995"><ele>79.0</ele><time>2026-04-06T09:49:42Z</time></trkpt><trkpt lat="45.39269038747185" lon="9.483822287213927"><ele>79.0</ele><time>2026-04-06T09:49:43Z</time></trkpt><trkpt lat="45.39283534102257" lon="9.483530793980044"><ele>79.5</ele><time>2026-04-06T09:49:44Z</time></trkpt><trkpt lat="45.39298541402001" lon="9.483245080388498"><ele>80.0</ele><time>2026-04-06T09:49:45Z</time></trkpt><trkpt lat="45.393142018943216" lon="9.482966807288483"><ele>80.0</ele><time>2026-04-06T09:49:46Z</time></trkpt><trkpt lat="45.393304362018064" lon="9.482697132665107"><ele>80.0</ele><time>2026-04-06T09:49:47Z</time></trkpt><trkpt lat="45.39347252003269" lon="9.48243689414772"><ele>80.0</ele><time>2026-04-06T09:49:48Z</time></trkpt><trkpt lat="45.39364227267869" lon="9.482183351820693"><ele>80.0</ele><time>2026-04-06T09:49:49Z</time></trkpt><trkpt lat="45.3938169609495" lon="9.481937972099605"><ele>81.0</ele><time>2026-04-06T09:49:50Z</time></trkpt><trkpt lat="45.393995512366914" lon="9.481697847897701"><ele>82.0</ele><time>2026-04-06T09:49:51Z</time></trkpt><trkpt lat="45.39417762844273" lon="9.481464620538159"><ele>81.5</ele><time>2026-04-06T09:49:52Z</time></trkpt><trkpt lat="45.39436177059996" lon="9.481231090044961"><ele>81.0</ele><time>2026-04-06T09:49:53Z</time></trkpt><trkpt lat="45.39454257230597" lon="9.480995394521152"><ele>81.5</ele><time>2026-04-06T09:49:54Z</time></trkpt><trkpt lat="45.39473113319368" lon="9.480755162615127"><ele>82.0</ele><time>2026-04-06T09:49:55Z</time></trkpt><trkpt lat="45.39491726905817" lon="9.480521173946801"><ele>80.5</ele><time>2026-04-06T09:49:56Z</time></trkpt><trkpt lat="45.39510249040564" lon="9.480291501519824"><ele>79.0</ele><time>2026-04-06T09:49:57Z</time></trkpt><trkpt lat="45.39528924844904" lon="9.480059226690262"><ele>79.0</ele><time>2026-04-06T09:49:58Z</time></trkpt><trkpt lat="45.39547692958755" lon="9.47982262801456"><ele>79.0</ele><time>2026-04-06T09:49:59Z</time></trkpt><trkpt lat="45.39566517441947" lon="9.479588674411096"><ele>79.5</ele><time>2026-04-06T09:50:00Z</time></trkpt><trkpt lat="45.39585310649517" lon="9.479353910435695"><ele>80.0</ele><time>2026-04-06T09:50:01Z</time></trkpt><trkpt lat="45.396040086486785" lon="9.479121541849471"><ele>80.0</ele><time>2026-04-06T09:50:02Z</time></trkpt><trkpt lat="45.3962241333014" lon="9.478891762798112"><ele>80.0</ele><time>2026-04-06T09:50:03Z</time></trkpt><trkpt lat="45.3964013645956" lon="9.47866986895212"><ele>80.5</ele><time>2026-04-06T09:50:04Z</time></trkpt><trkpt lat="45.39657246748401" lon="9.478452370852912"><ele>81.0</ele><time>2026-04-06T09:50:05Z</time></trkpt><trkpt lat="45.39674937403401" lon="9.478228241264286"><ele>81.0</ele><time>2026-04-06T09:50:06Z</time></trkpt><trkpt lat="45.396920703368764" lon="9.478009677404307"><ele>81.0</ele><time>2026-04-06T09:50:07Z</time></trkpt><trkpt lat="45.397089872582576" lon="9.477792447385061"><ele>81.0</ele><time>2026-04-06T09:50:08Z</time></trkpt><trkpt lat="45.39725456119792" lon="9.47758511306988"><ele>81.0</ele><time>2026-04-06T09:50:09Z</time></trkpt><trkpt lat="45.397417638906504" lon="9.477376649548122"><ele>81.0</ele><time>2026-04-06T09:50:10Z</time></trkpt><trkpt lat="45.397584080588686" lon="9.477172475260586"><ele>80.66666666666667</ele><time>2026-04-06T09:50:11Z</time></trkpt><trkpt lat="45.39775233847764" lon="9.476968221929765"><ele>80.33333333333334</ele><time>2026-04-06T09:50:12Z</time></trkpt><trkpt lat="45.39791860851996" lon="9.47676146701629"><ele>80.0</ele><time>2026-04-06T09:50:13Z</time></trkpt><trkpt lat="45.39808419330896" lon="9.47655061788949"><ele>79.66666666666667</ele><time>2026-04-06T09:50:14Z</time></trkpt><trkpt lat="45.398250627836894" lon="9.47633903294013"><ele>79.33333333333333</ele><time>2026-04-06T09:50:15Z</time></trkpt><trkpt lat="45.39841921273985" lon="9.476130310854625"><ele>79.0</ele><time>2026-04-06T09:50:16Z</time></trkpt><trkpt lat="45.39858652686613" lon="9.475922723585416"><ele>78.66666666666666</ele><time>2026-04-06T09:50:17Z</time></trkpt><trkpt lat="45.39875036615705" lon="9.475714275046023"><ele>78.33333333333333</ele><time>2026-04-06T09:50:18Z</time></trkpt><trkpt lat="45.39891736373715" lon="9.475503151908168"><ele>78.0</ele><time>2026-04-06T09:50:19Z</time></trkpt><trkpt lat="45.3990837901653" lon="9.475298567644183"><ele>79.0</ele><time>2026-04-06T09:50:20Z</time></trkpt><trkpt lat="45.399245038231385" lon="9.475097636935326"><ele>80.0</ele><time>2026-04-06T09:50:21Z</time></trkpt><trkpt lat="45.39940444953562" lon="9.474895684347105"><ele>81.0</ele><time>2026-04-06T09:50:22Z</time></trkpt><trkpt lat="45.39955951727234" lon="9.474700276067528"><ele>80.66666666666667</ele><time>2026-04-06T09:50:23Z</time></trkpt><trkpt lat="45.39970624984917" lon="9.474518763943678"><ele>80.33333333333334</ele><time>2026-04-06T09:50:24Z</time></trkpt><trkpt lat="45.399848930345264" lon="9.474347899869132"><ele>80.0</ele><time>2026-04-06T09:50:25Z</time></trkpt><trkpt lat="45.39998607739733" lon="9.47418565925358"><ele>80.0</ele><time>2026-04-06T09:50:26Z</time></trkpt><trkpt lat="45.400211888178355" lon="9.473879346265964"><ele>80.0</ele><time>2026-04-06T09:50:27Z</time></trkpt><trkpt lat="45.400375671197686" lon="9.473665877398895"><ele>80.33333333333334</ele><time>2026-04-06T09:50:28Z</time></trkpt><trkpt lat="45.40054409822745" lon="9.47345464761684"><ele>80.66666666666667</ele><time>2026-04-06T09:50:29Z</time></trkpt><trkpt lat="45.400706933082695" lon="9.47325418126344"><ele>81.0</ele><time>2026-04-06T09:50:30Z</time></trkpt><trkpt lat="45.400858762534874" lon="9.473044587139734"><ele>81.0</ele><time>2026-04-06T09:50:31Z</time></trkpt><trkpt lat="45.40100848398917" lon="9.472823527021747"><ele>81.0</ele><time>2026-04-06T09:50:32Z</time></trkpt><trkpt lat="45.40115202878079" lon="9.472603353756258"><ele>81.0</ele><time>2026-04-06T09:50:33Z</time></trkpt><trkpt lat="45.401285147022" lon="9.472376516218189"><ele>81.0</ele><time>2026-04-06T09:50:34Z</time></trkpt><trkpt lat="45.401415590145476" lon="9.47213934662405"><ele>81.0</ele><time>2026-04-06T09:50:35Z</time></trkpt><trkpt lat="45.40154125622373" lon="9.471901801077216"><ele>81.0</ele><time>2026-04-06T09:50:36Z</time></trkpt><trkpt lat="45.40166929165612" lon="9.471656304937182"><ele>81.0</ele><time>2026-04-06T09:50:37Z</time></trkpt><trkpt lat="45.401793633676604" lon="9.471399733607269"><ele>81.0</ele><time>2026-04-06T09:50:38Z</time></trkpt><trkpt lat="45.40191291405671" lon="9.471151017431788"><ele>81.0</ele><time>2026-04-06T09:50:39Z</time></trkpt><trkpt lat="45.402016088208086" lon="9.470899958673314"><ele>80.33333333333333</ele><time>2026-04-06T09:50:40Z</time></trkpt><trkpt lat="45.402122396228144" lon="9.470647421197313"><ele>79.66666666666666</ele><time>2026-04-06T09:50:41Z</time></trkpt><trkpt lat="45.40222279195605" lon="9.470394046951464"><ele>79.0</ele><time>2026-04-06T09:50:42Z</time></trkpt><trkpt lat="45.40231472259933" lon="9.470146916299054"><ele>80.33333333333333</ele><time>2026-04-06T09:50:43Z</time></trkpt><trkpt lat="45.40240210178195" lon="9.4699035510303"><ele>81.66666666666667</ele><time>2026-04-06T09:50:44Z</time></trkpt><trkpt lat="45.40247921667597" lon="9.469672458952813"><ele>83.0</ele><time>2026-04-06T09:50:45Z</time></trkpt><trkpt lat="45.40255584299228" lon="9.469435055407423"><ele>83.33333333333334</ele><time>2026-04-06T09:50:46Z</time></trkpt><trkpt lat="45.40261882734224" lon="9.46920350480428"><ele>83.66666666666667</ele><time>2026-04-06T09:50:47Z</time></trkpt><trkpt lat="45.40267127536535" lon="9.468968851880245"><ele>84.0</ele><time>2026-04-06T09:50:48Z</time></trkpt><trkpt lat="45.402703988373425" lon="9.468716056203561"><ele>84.0</ele><time>2026-04-06T09:50:49Z</time></trkpt><trkpt lat="45.40275071329469" lon="9.468463877055694"><ele>84.0</ele><time>2026-04-06T09:50:50Z</time></trkpt><trkpt lat="45.40278725049457" lon="9.468198223277062"><ele>84.0</ele><time>2026-04-06T09:50:51Z</time></trkpt><trkpt lat="45.40282732416811" lon="9.467940609892553"><ele>83.0</ele><time>2026-04-06T09:50:52Z</time></trkpt><trkpt lat="45.40286629147538" lon="9.467692600495345"><ele>82.0</ele><time>2026-04-06T09:50:53Z</time></trkpt><trkpt lat="45.40290053140574" lon="9.467432933633885"><ele>81.0</ele><time>2026-04-06T09:50:54Z</time></trkpt><trkpt lat="45.402940888606906" lon="9.46717784518075"><ele>81.0</ele><time>2026-04-06T09:50:55Z</time></trkpt><trkpt lat="45.40298251757804" lon="9.466907168463552"><ele>81.0</ele><time>2026-04-06T09:50:56Z</time></trkpt><trkpt lat="45.403024184479946" lon="9.466617063766547"><ele>81.0</ele><time>2026-04-06T09:50:57Z</time></trkpt><trkpt lat="45.40306889003657" lon="9.46631909771604"><ele>81.33333333333333</ele><time>2026-04-06T09:50:58Z</time></trkpt><trkpt lat="45.403122562163446" lon="9.466007042802149"><ele>81.66666666666666</ele><time>2026-04-06T09:50:59Z</time></trkpt><trkpt lat="45.403162497301174" lon="9.465696415425162"><ele>82.0</ele><time>2026-04-06T09:51:00Z</time></trkpt><trkpt lat="45.40319661726096" lon="9.46537890500342"><ele>82.0</ele><time>2026-04-06T09:51:01Z</time></trkpt><trkpt lat="45.40323052262893" lon="9.465080267060925"><ele>82.0</ele><time>2026-04-06T09:51:02Z</time></trkpt><trkpt lat="45.403257412885885" lon="9.464771698622748"><ele>82.0</ele><time>2026-04-06T09:51:03Z</time></trkpt><trkpt lat="45.403273913682256" lon="9.464469349951242"><ele>82.0</ele><time>2026-04-06T09:51:04Z</time></trkpt><trkpt lat="45.403287101397034" lon="9.464164822955391"><ele>82.0</ele><time>2026-04-06T09:51:05Z</time></trkpt><trkpt lat="45.40330596557239" lon="9.463857514292986"><ele>82.0</ele><time>2026-04-06T09:51:06Z</time></trkpt><trkpt lat="45.40331346118996" lon="9.463556967298329"><ele>82.33333333333333</ele><time>2026-04-06T09:51:07Z</time></trkpt><trkpt lat="45.40331748993596" lon="9.463253925878087"><ele>82.66666666666667</ele><time>2026-04-06T09:51:08Z</time></trkpt><trkpt lat="45.4033278005451" lon="9.462950078086578"><ele>83.0</ele><time>2026-04-06T09:51:09Z</time></trkpt><trkpt lat="45.40332880345062" lon="9.46262554019395"><ele>83.0</ele><time>2026-04-06T09:51:10Z</time></trkpt><trkpt lat="45.40332507579807" lon="9.462311129002382"><ele>83.0</ele><time>2026-04-06T09:51:11Z</time></trkpt><trkpt lat="45.40332228865076" lon="9.46201059236725"><ele>83.0</ele><time>2026-04-06T09:51:12Z</time></trkpt><trkpt lat="45.403319648704105" lon="9.461716717026686"><ele>82.0</ele><time>2026-04-06T09:51:13Z</time></trkpt><trkpt lat="45.4033183208598" lon="9.461419188520841"><ele>81.0</ele><time>2026-04-06T09:51:14Z</time></trkpt><trkpt lat="45.40331829261945" lon="9.461117871958066"><ele>80.0</ele><time>2026-04-06T09:51:15Z</time></trkpt><trkpt lat="45.40331780781574" lon="9.46081345661741"><ele>79.5</ele><time>2026-04-06T09:51:16Z</time></trkpt><trkpt lat="45.403316904116195" lon="9.460492069068698"><ele>79.0</ele><time>2026-04-06T09:51:17Z</time></trkpt><trkpt lat="45.40331519990582" lon="9.460160580439798"><ele>81.5</ele><time>2026-04-06T09:51:18Z</time></trkpt><trkpt lat="45.40331367350875" lon="9.459837955867414"><ele>84.0</ele><time>2026-04-06T09:51:19Z</time></trkpt><trkpt lat="45.403312955113556" lon="9.459516603586753"><ele>84.66666666666667</ele><time>2026-04-06T09:51:20Z</time></trkpt><trkpt lat="45.403311724327544" lon="9.45920576737244"><ele>85.33333333333334</ele><time>2026-04-06T09:51:21Z</time></trkpt><trkpt lat="45.40331229912668" lon="9.458901773652881"><ele>86.0</ele><time>2026-04-06T09:51:22Z</time></trkpt><trkpt lat="45.40330924680044" lon="9.458601399653476"><ele>86.0</ele><time>2026-04-06T09:51:23Z</time></trkpt><trkpt lat="45.403308286771725" lon="9.458304289693954"><ele>86.0</ele><time>2026-04-06T09:51:24Z</time></trkpt><trkpt lat="45.40330824849129" lon="9.457996866434124"><ele>86.0</ele><time>2026-04-06T09:51:25Z</time></trkpt><trkpt lat="45.4033074306046" lon="9.457689170027566"><ele>85.66666666666667</ele><time>2026-04-06T09:51:26Z</time></trkpt><trkpt lat="45.40330681025652" lon="9.45738562628362"><ele>85.33333333333333</ele><time>2026-04-06T09:51:27Z</time></trkpt><trkpt lat="45.40330750759475" lon="9.457091974293613"><ele>85.0</ele><time>2026-04-06T09:51:28Z</time></trkpt><trkpt lat="45.4033135756902" lon="9.456821472495317"><ele>85.0</ele><time>2026-04-06T09:51:29Z</time></trkpt><trkpt lat="45.403321080938795" lon="9.456566320333886"><ele>85.0</ele><time>2026-04-06T09:51:30Z</time></trkpt><trkpt lat="45.40332922309621" lon="9.456344629638304"><ele>85.0</ele><time>2026-04-06T09:51:31Z</time></trkpt><trkpt lat="45.40334405283188" lon="9.456170057259051"><ele>85.0</ele><time>2026-04-06T09:51:32Z</time></trkpt><trkpt lat="45.40337495792956" lon="9.456025844576207"><ele>85.0</ele><time>2026-04-06T09:51:33Z</time></trkpt><trkpt lat="45.4034246957252" lon="9.455885859044926"><ele>85.0</ele><time>2026-04-06T09:51:34Z</time></trkpt><trkpt lat="45.4034914395645" lon="9.455738643451577"><ele>85.0</ele><time>2026-04-06T09:51:35Z</time></trkpt><trkpt lat="45.403556224876354" lon="9.455604218887713"><ele>85.0</ele><time>2026-04-06T09:51:36Z</time></trkpt><trkpt lat="45.403615013815134" lon="9.455471905774846"><ele>85.0</ele><time>2026-04-06T09:51:37Z</time></trkpt><trkpt lat="45.40367132301438" lon="9.455334385999773"><ele>85.0</ele><time>2026-04-06T09:51:38Z</time></trkpt><trkpt lat="45.403736923356945" lon="9.455188036213967"><ele>85.0</ele><time>2026-04-06T09:51:39Z</time></trkpt><trkpt lat="45.40380232306765" lon="9.455030816508568"><ele>85.0</ele><time>2026-04-06T09:51:40Z</time></trkpt><trkpt lat="45.403867133964035" lon="9.45486781405661"><ele>85.0</ele><time>2026-04-06T09:51:41Z</time></trkpt><trkpt lat="45.403935661144516" lon="9.454706237481759"><ele>85.0</ele><time>2026-04-06T09:51:42Z</time></trkpt><trkpt lat="45.404005580077325" lon="9.454546858148944"><ele>85.0</ele><time>2026-04-06T09:51:43Z</time></trkpt><trkpt lat="45.404071513166976" lon="9.45438649885386"><ele>85.0</ele><time>2026-04-06T09:51:44Z</time></trkpt><trkpt lat="45.40413606240779" lon="9.454227810566593"><ele>85.0</ele><time>2026-04-06T09:51:45Z</time></trkpt><trkpt lat="45.404203010371575" lon="9.454075515964739"><ele>85.0</ele><time>2026-04-06T09:51:46Z</time></trkpt><trkpt lat="45.40426870166676" lon="9.45392154334556"><ele>85.0</ele><time>2026-04-06T09:51:47Z</time></trkpt><trkpt lat="45.40433402226425" lon="9.453764144555798"><ele>84.75</ele><time>2026-04-06T09:51:48Z</time></trkpt><trkpt lat="45.40440476232374" lon="9.45359829242752"><ele>84.5</ele><time>2026-04-06T09:51:49Z</time></trkpt><trkpt lat="45.40447898665053" lon="9.453416354032004"><ele>84.25</ele><time>2026-04-06T09:51:50Z</time></trkpt><trkpt lat="45.40455339880974" lon="9.453244700617018"><ele>84.0</ele><time>2026-04-06T09:51:51Z</time></trkpt><trkpt lat="45.40461568144947" lon="9.453089295931742"><ele>85.6</ele><time>2026-04-06T09:51:52Z</time></trkpt><trkpt lat="45.40467504847025" lon="9.452947393868095"><ele>87.2</ele><time>2026-04-06T09:51:53Z</time></trkpt><trkpt lat="45.404743914056674" lon="9.452826018976115"><ele>88.8</ele><time>2026-04-06T09:51:54Z</time></trkpt><trkpt lat="45.40478519194532" lon="9.452684511823547"><ele>90.39999999999999</ele><time>2026-04-06T09:51:55Z</time></trkpt><trkpt lat="45.40485071645706" lon="9.452548714031176"><ele>92.0</ele><time>2026-04-06T09:51:56Z</time></trkpt><trkpt lat="45.404900027501846" lon="9.452420197493684"><ele>92.0</ele><time>2026-04-06T09:51:57Z</time></trkpt><trkpt lat="45.404947784914356" lon="9.452310522675237"><ele>92.0</ele><time>2026-04-06T09:51:58Z</time></trkpt><trkpt lat="45.40499070253383" lon="9.452208693626961"><ele>92.0</ele><time>2026-04-06T09:51:59Z</time></trkpt><trkpt lat="45.405030421506225" lon="9.452110076208806"><ele>92.0</ele><time>2026-04-06T09:52:00Z</time></trkpt><trkpt lat="45.40506848406431" lon="9.452026080658166"><ele>92.0</ele><time>2026-04-06T09:52:01Z</time></trkpt><trkpt lat="45.40511161082875" lon="9.45193047052597"><ele>92.0</ele><time>2026-04-06T09:52:02Z</time></trkpt><trkpt lat="45.40515312605534" lon="9.451837240354536"><ele>92.0</ele><time>2026-04-06T09:52:03Z</time></trkpt><trkpt lat="45.40519517850889" lon="9.45175236063292"><ele>92.0</ele><time>2026-04-06T09:52:04Z</time></trkpt><trkpt lat="45.40524244633351" lon="9.451664485248088"><ele>92.0</ele><time>2026-04-06T09:52:05Z</time></trkpt><trkpt lat="45.40529306736248" lon="9.451555716520078"><ele>92.0</ele><time>2026-04-06T09:52:06Z</time></trkpt><trkpt lat="45.40534408244109" lon="9.451436454800087"><ele>92.0</ele><time>2026-04-06T09:52:07Z</time></trkpt><trkpt lat="45.40540762909745" lon="9.451345049076261"><ele>92.0</ele><time>2026-04-06T09:52:08Z</time></trkpt><trkpt lat="45.40545564337107" lon="9.451234769711686"><ele>92.25</ele><time>2026-04-06T09:52:09Z</time></trkpt><trkpt lat="45.40551451312387" lon="9.451097588362554"><ele>92.5</ele><time>2026-04-06T09:52:10Z</time></trkpt><trkpt lat="45.40557910609143" lon="9.450942746340356"><ele>92.75</ele><time>2026-04-06T09:52:11Z</time></trkpt><trkpt lat="45.40564424998839" lon="9.450782906169584"><ele>93.0</ele><time>2026-04-06T09:52:12Z</time></trkpt><trkpt lat="45.40570098495167" lon="9.45063982105958"><ele>93.0</ele><time>2026-04-06T09:52:13Z</time></trkpt><trkpt lat="45.405755826537685" lon="9.450492351489757"><ele>93.0</ele><time>2026-04-06T09:52:14Z</time></trkpt><trkpt lat="45.40581549401037" lon="9.450324026254796"><ele>93.0</ele><time>2026-04-06T09:52:15Z</time></trkpt><trkpt lat="45.40589016574211" lon="9.450104981468549"><ele>93.0</ele><time>2026-04-06T09:52:16Z</time></trkpt><trkpt lat="45.40596435885656" lon="9.449874912615568"><ele>93.0</ele><time>2026-04-06T09:52:17Z</time></trkpt><trkpt lat="45.406040638047465" lon="9.449620936166523"><ele>93.0</ele><time>2026-04-06T09:52:18Z</time></trkpt><trkpt lat="45.40611251807503" lon="9.449375587797864"><ele>93.0</ele><time>2026-04-06T09:52:19Z</time></trkpt><trkpt lat="45.406182494507824" lon="9.449131352206052"><ele>93.0</ele><time>2026-04-06T09:52:20Z</time></trkpt><trkpt lat="45.406251034756465" lon="9.448899039215982"><ele>93.0</ele><time>2026-04-06T09:52:21Z</time></trkpt><trkpt lat="45.40631241061299" lon="9.448696625230234"><ele>93.0</ele><time>2026-04-06T09:52:22Z</time></trkpt><trkpt lat="45.406362824689595" lon="9.448521082211716"><ele>92.83333333333333</ele><time>2026-04-06T09:52:23Z</time></trkpt><trkpt lat="45.40639524748289" lon="9.448397232345789"><ele>92.66666666666667</ele><time>2026-04-06T09:52:24Z</time></trkpt><trkpt lat="45.40641430724934" lon="9.448300460337487"><ele>92.5</ele><time>2026-04-06T09:52:25Z</time></trkpt><trkpt lat="45.40641248789171" lon="9.448186948618739"><ele>92.33333333333334</ele><time>2026-04-06T09:52:26Z</time></trkpt><trkpt lat="45.40639405201172" lon="9.44807197995653"><ele>92.16666666666667</ele><time>2026-04-06T09:52:27Z</time></trkpt><trkpt lat="45.40628811055874" lon="9.447988320995176"><ele>92.0</ele><time>2026-04-06T09:52:28Z</time></trkpt><trkpt lat="45.40623274020689" lon="9.447911036148524"><ele>92.0</ele><time>2026-04-06T09:52:29Z</time></trkpt><trkpt lat="45.40618744490327" lon="9.447841959871903"><ele>92.0</ele><time>2026-04-06T09:52:30Z</time></trkpt><trkpt lat="45.40614140859043" lon="9.447771447680681"><ele>92.0</ele><time>2026-04-06T09:52:32Z</time></trkpt><trkpt lat="45.40619954744953" lon="9.44757994505847"><ele>92.0</ele><time>2026-04-06T09:52:48Z</time></trkpt><trkpt lat="45.40626351124907" lon="9.447472870475458"><ele>92.0</ele><time>2026-04-06T09:52:49Z</time></trkpt><trkpt lat="45.40634846455493" lon="9.447353335452606"><ele>92.0</ele><time>2026-04-06T09:52:50Z</time></trkpt><trkpt lat="45.406456546208084" lon="9.447180754302932"><ele>92.0</ele><time>2026-04-06T09:52:51Z</time></trkpt><trkpt lat="45.40657646288881" lon="9.446989650823836"><ele>92.0</ele><time>2026-04-06T09:52:52Z</time></trkpt><trkpt lat="45.40672436878525" lon="9.446753996312482"><ele>91.5</ele><time>2026-04-06T09:52:53Z</time></trkpt><trkpt lat="45.40688459883896" lon="9.446499136053976"><ele>91.0</ele><time>2026-04-06T09:52:54Z</time></trkpt><trkpt lat="45.40703916383669" lon="9.446249908902297"><ele>92.0</ele><time>2026-04-06T09:52:55Z</time></trkpt><trkpt lat="45.40717523282715" lon="9.44606604319342"><ele>93.0</ele><time>2026-04-06T09:52:56Z</time></trkpt><trkpt lat="45.40727879306937" lon="9.445903091971136"><ele>94.0</ele><time>2026-04-06T09:52:57Z</time></trkpt><trkpt lat="45.407364263871216" lon="9.445768604338928"><ele>94.0</ele><time>2026-04-06T09:52:58Z</time></trkpt><trkpt lat="45.40742436907216" lon="9.445674029279797"><ele>94.0</ele><time>2026-04-06T09:52:59Z</time></trkpt><trkpt lat="45.40747859273476" lon="9.445588708776855"><ele>94.0</ele><time>2026-04-06T09:53:01Z</time></trkpt><trkpt lat="45.40755137763083" lon="9.445477411440487"><ele>94.0</ele><time>2026-04-06T09:53:05Z</time></trkpt><trkpt lat="45.40749322829432" lon="9.445288995684386"><ele>94.0</ele><time>2026-04-06T09:53:06Z</time></trkpt><trkpt lat="45.40749222788355" lon="9.445160300259895"><ele>94.25</ele><time>2026-04-06T09:53:07Z</time></trkpt><trkpt lat="45.40749744660456" lon="9.444998786149823"><ele>94.5</ele><time>2026-04-06T09:53:08Z</time></trkpt><trkpt lat="45.40750548186031" lon="9.44481309588201"><ele>94.75</ele><time>2026-04-06T09:53:09Z</time></trkpt><trkpt lat="45.40751692207005" lon="9.444635180868973"><ele>95.0</ele><time>2026-04-06T09:53:10Z</time></trkpt><trkpt lat="45.40753412945015" lon="9.444457038752283"><ele>95.0</ele><time>2026-04-06T09:53:11Z</time></trkpt><trkpt lat="45.40759711813449" lon="9.444292042677423"><ele>95.0</ele><time>2026-04-06T09:53:12Z</time></trkpt><trkpt lat="45.40765387990467" lon="9.444106318149915"><ele>95.0</ele><time>2026-04-06T09:53:13Z</time></trkpt><trkpt lat="45.407715899666925" lon="9.443913608981747"><ele>95.0</ele><time>2026-04-06T09:53:14Z</time></trkpt><trkpt lat="45.407765237020875" lon="9.443728644559696"><ele>95.0</ele><time>2026-04-06T09:53:15Z</time></trkpt><trkpt lat="45.4078232745541" lon="9.443569581244741"><ele>95.0</ele><time>2026-04-06T09:53:16Z</time></trkpt><trkpt lat="45.407894308831956" lon="9.443436317140877"><ele>95.0</ele><time>2026-04-06T09:53:17Z</time></trkpt><trkpt lat="45.4079546539365" lon="9.443282543351811"><ele>95.0</ele><time>2026-04-06T09:53:18Z</time></trkpt><trkpt lat="45.408023072258324" lon="9.443113693703632"><ele>95.0</ele><time>2026-04-06T09:53:19Z</time></trkpt><trkpt lat="45.40810175247552" lon="9.442934774951635"><ele>95.0</ele><time>2026-04-06T09:53:20Z</time></trkpt><trkpt lat="45.40818538329145" lon="9.44274677040406"><ele>95.0</ele><time>2026-04-06T09:53:21Z</time></trkpt><trkpt lat="45.40825799723615" lon="9.44255544983674"><ele>95.0</ele><time>2026-04-06T09:53:22Z</time></trkpt><trkpt lat="45.40833593964989" lon="9.442383263687043"><ele>95.0</ele><time>2026-04-06T09:53:23Z</time></trkpt><trkpt lat="45.40840186290765" lon="9.442223597204135"><ele>95.0</ele><time>2026-04-06T09:53:24Z</time></trkpt><trkpt lat="45.40847440240853" lon="9.442066025477224"><ele>95.0</ele><time>2026-04-06T09:53:25Z</time></trkpt><trkpt lat="45.40855469998432" lon="9.441907757079976"><ele>95.0</ele><time>2026-04-06T09:53:26Z</time></trkpt><trkpt lat="45.40863433721355" lon="9.441742249512304"><ele>95.0</ele><time>2026-04-06T09:53:27Z</time></trkpt><trkpt lat="45.40871958632865" lon="9.441589260145829"><ele>95.0</ele><time>2026-04-06T09:53:28Z</time></trkpt><trkpt lat="45.40879737842265" lon="9.441418783719618"><ele>95.0</ele><time>2026-04-06T09:53:29Z</time></trkpt><trkpt lat="45.40887574941047" lon="9.441246997327003"><ele>95.0</ele><time>2026-04-06T09:53:30Z</time></trkpt><trkpt lat="45.4089513829915" lon="9.441080508211035"><ele>95.0</ele><time>2026-04-06T09:53:31Z</time></trkpt><trkpt lat="45.409020564646" lon="9.44092822146369"><ele>95.0</ele><time>2026-04-06T09:53:32Z</time></trkpt><trkpt lat="45.40908541595624" lon="9.44078546691789"><ele>95.0</ele><time>2026-04-06T09:53:33Z</time></trkpt><trkpt lat="45.409145259477086" lon="9.44065373582085"><ele>95.0</ele><time>2026-04-06T09:53:34Z</time></trkpt><trkpt lat="45.409198735321596" lon="9.440536021620948"><ele>95.0</ele><time>2026-04-06T09:53:35Z</time></trkpt><trkpt lat="45.40925637610983" lon="9.44040913930884"><ele>95.0</ele><time>2026-04-06T09:53:36Z</time></trkpt><trkpt lat="45.40931160772948" lon="9.4402875601996"><ele>95.0</ele><time>2026-04-06T09:53:37Z</time></trkpt><trkpt lat="45.40935969010583" lon="9.440181707203145"><ele>95.0</ele><time>2026-04-06T09:53:38Z</time></trkpt><trkpt lat="45.409388539493044" lon="9.44007624653391"><ele>94.8</ele><time>2026-04-06T09:53:39Z</time></trkpt><trkpt lat="45.40945067992392" lon="9.439945632994478"><ele>94.6</ele><time>2026-04-06T09:53:41Z</time></trkpt><trkpt lat="45.409498925077045" lon="9.43987513981439"><ele>94.4</ele><time>2026-04-06T09:53:43Z</time></trkpt><trkpt lat="45.40953732396831" lon="9.439790593199936"><ele>94.2</ele><time>2026-04-06T09:53:46Z</time></trkpt><trkpt lat="45.40938680362494" lon="9.439665041875969"><ele>94.0</ele><time>2026-04-06T09:53:48Z</time></trkpt><trkpt lat="45.40934144766367" lon="9.439589654792442"><ele>94.0</ele><time>2026-04-06T09:53:49Z</time></trkpt><trkpt lat="45.40927636765272" lon="9.439523105144303"><ele>94.0</ele><time>2026-04-06T09:53:50Z</time></trkpt><trkpt lat="45.40919806685716" lon="9.439441088464779"><ele>94.0</ele><time>2026-04-06T09:53:51Z</time></trkpt><trkpt lat="45.409129453198254" lon="9.439362718339646"><ele>94.0</ele><time>2026-04-06T09:53:52Z</time></trkpt><trkpt lat="45.409058967512976" lon="9.43928065531089"><ele>94.0</ele><time>2026-04-06T09:53:53Z</time></trkpt><trkpt lat="45.40899348229988" lon="9.439203917742677"><ele>94.0</ele><time>2026-04-06T09:53:54Z</time></trkpt><trkpt lat="45.40895277420681" lon="9.43906633586707"><ele>94.0</ele><time>2026-04-06T09:53:55Z</time></trkpt><trkpt lat="45.40891000819756" lon="9.438902594480568"><ele>94.0</ele><time>2026-04-06T09:53:56Z</time></trkpt><trkpt lat="45.40886348195397" lon="9.438747857730208"><ele>94.0</ele><time>2026-04-06T09:53:57Z</time></trkpt><trkpt lat="45.40881448795919" lon="9.438602716401766"><ele>94.0</ele><time>2026-04-06T09:53:58Z</time></trkpt><trkpt lat="45.4087638359178" lon="9.438440348877396"><ele>93.83333333333333</ele><time>2026-04-06T09:53:59Z</time></trkpt><trkpt lat="45.408724039678496" lon="9.438297159734569"><ele>93.66666666666666</ele><time>2026-04-06T09:54:00Z</time></trkpt><trkpt lat="45.40868756346948" lon="9.438184942499435"><ele>93.5</ele><time>2026-04-06T09:54:01Z</time></trkpt><trkpt lat="45.408653840987164" lon="9.438090732238061"><ele>93.33333333333333</ele><time>2026-04-06T09:54:02Z</time></trkpt><trkpt lat="45.408627907883705" lon="9.438007505242313"><ele>93.16666666666667</ele><time>2026-04-06T09:54:03Z</time></trkpt><trkpt lat="45.40859090338594" lon="9.437893677357554"><ele>93.0</ele><time>2026-04-06T09:54:05Z</time></trkpt><trkpt lat="45.408597494806436" lon="9.437791057419435"><ele>93.2</ele><time>2026-04-06T09:54:10Z</time></trkpt><trkpt lat="45.40874533642392" lon="9.437744492407727"><ele>93.4</ele><time>2026-04-06T09:54:11Z</time></trkpt><trkpt lat="45.40881270703077" lon="9.437683633378684"><ele>93.60000000000001</ele><time>2026-04-06T09:54:12Z</time></trkpt><trkpt lat="45.40887352502156" lon="9.437652223294327"><ele>93.80000000000001</ele><time>2026-04-06T09:54:13Z</time></trkpt><trkpt lat="45.40895210683487" lon="9.437611626002024"><ele>94.0</ele><time>2026-04-06T09:54:14Z</time></trkpt><trkpt lat="45.409022880743976" lon="9.437565625861453"><ele>94.0</ele><time>2026-04-06T09:54:15Z</time></trkpt><trkpt lat="45.409090639997096" lon="9.437517142257745"><ele>94.0</ele><time>2026-04-06T09:54:16Z</time></trkpt><trkpt lat="45.40915185061154" lon="9.437482012962777"><ele>94.0</ele><time>2026-04-06T09:54:17Z</time></trkpt><trkpt lat="45.40925167752805" lon="9.43741720444365"><ele>94.0</ele><time>2026-04-06T09:54:19Z</time></trkpt><trkpt lat="45.40932255430487" lon="9.43738036086421"><ele>94.0</ele><time>2026-04-06T09:54:21Z</time></trkpt><trkpt lat="45.409396446266726" lon="9.437375223953762"><ele>94.0</ele><time>2026-04-06T09:54:25Z</time></trkpt><trkpt lat="45.409516664389194" lon="9.437471001580066"><ele>94.0</ele><time>2026-04-06T09:54:27Z</time></trkpt><trkpt lat="45.40959348243733" lon="9.437541969961103"><ele>94.0</ele><time>2026-04-06T09:54:28Z</time></trkpt><trkpt lat="45.40968720125841" lon="9.437626670380855"><ele>94.0</ele><time>2026-04-06T09:54:29Z</time></trkpt><trkpt lat="45.40978070250604" lon="9.437714571152503"><ele>94.0</ele><time>2026-04-06T09:54:30Z</time></trkpt><trkpt lat="45.409872159471966" lon="9.4377930089174"><ele>94.0</ele><time>2026-04-06T09:54:31Z</time></trkpt><trkpt lat="45.40996481389754" lon="9.437879712068419"><ele>94.2</ele><time>2026-04-06T09:54:32Z</time></trkpt><trkpt lat="45.41005871342515" lon="9.437969861029574"><ele>94.4</ele><time>2026-04-06T09:54:33Z</time></trkpt><trkpt lat="45.41013287100865" lon="9.438021970562836"><ele>94.6</ele><time>2026-04-06T09:54:34Z</time></trkpt><trkpt lat="45.41019072625486" lon="9.438106473583723"><ele>94.8</ele><time>2026-04-06T09:54:36Z</time></trkpt><trkpt lat="45.410262468573656" lon="9.438136489629688"><ele>95.0</ele><time>2026-04-06T09:54:41Z</time></trkpt><trkpt lat="45.41035501726559" lon="9.437989914806252"><ele>95.25</ele><time>2026-04-06T09:54:42Z</time></trkpt><trkpt lat="45.41041878758904" lon="9.437847047156291"><ele>95.5</ele><time>2026-04-06T09:54:43Z</time></trkpt><trkpt lat="45.410488967507575" lon="9.437693109726583"><ele>95.75</ele><time>2026-04-06T09:54:44Z</time></trkpt><trkpt lat="45.410533551259725" lon="9.437503615404323"><ele>96.0</ele><time>2026-04-06T09:54:45Z</time></trkpt><trkpt lat="45.410609496931556" lon="9.43733631415556"><ele>96.0</ele><time>2026-04-06T09:54:46Z</time></trkpt><trkpt lat="45.410688066885" lon="9.437180714230719"><ele>96.0</ele><time>2026-04-06T09:54:47Z</time></trkpt><trkpt lat="45.410759749134826" lon="9.437030689766326"><ele>96.0</ele><time>2026-04-06T09:54:48Z</time></trkpt><trkpt lat="45.410821363470625" lon="9.436884341313837"><ele>96.0</ele><time>2026-04-06T09:54:49Z</time></trkpt><trkpt lat="45.4108867976582" lon="9.436732408547579"><ele>96.0</ele><time>2026-04-06T09:54:50Z</time></trkpt><trkpt lat="45.41095300284621" lon="9.436593165299447"><ele>96.0</ele><time>2026-04-06T09:54:51Z</time></trkpt><trkpt lat="45.41101679365822" lon="9.436453767015829"><ele>96.0</ele><time>2026-04-06T09:54:52Z</time></trkpt><trkpt lat="45.41109751807136" lon="9.436352286590296"><ele>96.0</ele><time>2026-04-06T09:54:53Z</time></trkpt><trkpt lat="45.41115512786465" lon="9.43622523723973"><ele>96.0</ele><time>2026-04-06T09:54:54Z</time></trkpt><trkpt lat="45.41121338672116" lon="9.436096576355295"><ele>96.0</ele><time>2026-04-06T09:54:55Z</time></trkpt><trkpt lat="45.41127014123271" lon="9.435970365062394"><ele>96.0</ele><time>2026-04-06T09:54:56Z</time></trkpt><trkpt lat="45.41132379258209" lon="9.435850697825334"><ele>96.0</ele><time>2026-04-06T09:54:57Z</time></trkpt><trkpt lat="45.411369786568585" lon="9.43574811003322"><ele>96.0</ele><time>2026-04-06T09:54:58Z</time></trkpt><trkpt lat="45.41141051183281" lon="9.435659010691808"><ele>96.0</ele><time>2026-04-06T09:54:59Z</time></trkpt><trkpt lat="45.4114469486408" lon="9.435582383875161"><ele>96.0</ele><time>2026-04-06T09:55:00Z</time></trkpt><trkpt lat="45.41152795587576" lon="9.43547785965305"><ele>95.83333333333333</ele><time>2026-04-06T09:55:02Z</time></trkpt><trkpt lat="45.4115921470716" lon="9.435460448230405"><ele>95.66666666666667</ele><time>2026-04-06T09:55:03Z</time></trkpt><trkpt lat="45.4116595543531" lon="9.435411770105988"><ele>95.5</ele><time>2026-04-06T09:55:04Z</time></trkpt><trkpt lat="45.41171077650311" lon="9.435323675455638"><ele>95.33333333333334</ele><time>2026-04-06T09:55:05Z</time></trkpt><trkpt lat="45.411757726332624" lon="9.435227297338194"><ele>95.16666666666667</ele><time>2026-04-06T09:55:06Z</time></trkpt><trkpt lat="45.41173963175854" lon="9.435109808661784"><ele>95.0</ele><time>2026-04-06T09:55:07Z</time></trkpt><trkpt lat="45.41172692232774" lon="9.43501349601499"><ele>95.0</ele><time>2026-04-06T09:55:08Z</time></trkpt><trkpt lat="45.411732300207454" lon="9.43491919514054"><ele>95.0</ele><time>2026-04-06T09:55:09Z</time></trkpt><trkpt lat="45.41175922400971" lon="9.434835095654226"><ele>95.0</ele><time>2026-04-06T09:55:10Z</time></trkpt><trkpt lat="45.41184374951716" lon="9.434703017348522"><ele>95.0</ele><time>2026-04-06T09:55:12Z</time></trkpt><trkpt lat="45.411881387343776" lon="9.434620562224698"><ele>95.0</ele><time>2026-04-06T09:55:13Z</time></trkpt><trkpt lat="45.41190587168383" lon="9.434522280619111"><ele>95.0</ele><time>2026-04-06T09:55:14Z</time></trkpt><trkpt lat="45.41194855374355" lon="9.434435828541954"><ele>94.8</ele><time>2026-04-06T09:55:15Z</time></trkpt><trkpt lat="45.411980583979584" lon="9.43434826656678"><ele>94.6</ele><time>2026-04-06T09:55:16Z</time></trkpt><trkpt lat="45.411999957518894" lon="9.434252504675227"><ele>94.4</ele><time>2026-04-06T09:55:17Z</time></trkpt><trkpt lat="45.41202586910514" lon="9.434079658213069"><ele>94.2</ele><time>2026-04-06T09:55:19Z</time></trkpt><trkpt lat="45.41206501121026" lon="9.433903629569226"><ele>94.0</ele><time>2026-04-06T09:55:21Z</time></trkpt><trkpt lat="45.41206807183247" lon="9.433791170297278"><ele>94.0</ele><time>2026-04-06T09:55:22Z</time></trkpt><trkpt lat="45.41206280422172" lon="9.433696009435131"><ele>94.0</ele><time>2026-04-06T09:55:23Z</time></trkpt><trkpt lat="45.41205534903878" lon="9.433586982592747"><ele>94.0</ele><time>2026-04-06T09:55:24Z</time></trkpt><trkpt lat="45.41204802587229" lon="9.433477028313105"><ele>94.0</ele><time>2026-04-06T09:55:25Z</time></trkpt><trkpt lat="45.412040780520904" lon="9.433379323249198"><ele>94.0</ele><time>2026-04-06T09:55:26Z</time></trkpt><trkpt lat="45.41201886333808" lon="9.433285689646384"><ele>94.0</ele><time>2026-04-06T09:55:27Z</time></trkpt><trkpt lat="45.41202242693017" lon="9.433113846652542"><ele>94.4</ele><time>2026-04-06T09:55:29Z</time></trkpt><trkpt lat="45.412011114517895" lon="9.432945445031313"><ele>94.80000000000001</ele><time>2026-04-06T09:55:31Z</time></trkpt><trkpt lat="45.412005054680606" lon="9.432855235589724"><ele>95.19999999999999</ele><time>2026-04-06T09:55:32Z</time></trkpt><trkpt lat="45.41199418322711" lon="9.432693398270972"><ele>95.6</ele><time>2026-04-06T09:55:34Z</time></trkpt><trkpt lat="45.41198656006993" lon="9.432579916553799"><ele>96.0</ele><time>2026-04-06T09:55:36Z</time></trkpt><trkpt lat="45.41197162280567" lon="9.432476491277985"><ele>96.0</ele><time>2026-04-06T09:55:55Z</time></trkpt><trkpt lat="45.41195865470052" lon="9.43228081949316"><ele>96.0</ele><time>2026-04-06T09:55:57Z</time></trkpt><trkpt lat="45.41196573860522" lon="9.432142606138601"><ele>96.0</ele><time>2026-04-06T09:55:58Z</time></trkpt><trkpt lat="45.411996178301955" lon="9.431994902354093"><ele>96.0</ele><time>2026-04-06T09:55:59Z</time></trkpt><trkpt lat="45.41202461183005" lon="9.431843344826847"><ele>96.0</ele><time>2026-04-06T09:56:00Z</time></trkpt><trkpt lat="45.41207032756058" lon="9.431688275150288"><ele>96.0</ele><time>2026-04-06T09:56:01Z</time></trkpt><trkpt lat="45.41212327206123" lon="9.431549133314428"><ele>96.0</ele><time>2026-04-06T09:56:02Z</time></trkpt><trkpt lat="45.41218488549714" lon="9.431400732357547"><ele>96.0</ele><time>2026-04-06T09:56:03Z</time></trkpt><trkpt lat="45.41224582334879" lon="9.431257415057903"><ele>96.0</ele><time>2026-04-06T09:56:04Z</time></trkpt><trkpt lat="45.412312074634826" lon="9.431099908889381"><ele>96.0</ele><time>2026-04-06T09:56:05Z</time></trkpt><trkpt lat="45.41237534212865" lon="9.430947961893997"><ele>96.0</ele><time>2026-04-06T09:56:06Z</time></trkpt><trkpt lat="45.41244361209397" lon="9.430783827079072"><ele>96.0</ele><time>2026-04-06T09:56:07Z</time></trkpt><trkpt lat="45.41251480473414" lon="9.430614926645543"><ele>96.0</ele><time>2026-04-06T09:56:08Z</time></trkpt><trkpt lat="45.41258395222184" lon="9.430446721820992"><ele>96.0</ele><time>2026-04-06T09:56:09Z</time></trkpt><trkpt lat="45.41264550175943" lon="9.430298008961943"><ele>96.0</ele><time>2026-04-06T09:56:10Z</time></trkpt><trkpt lat="45.412692444788945" lon="9.430142969281853"><ele>96.0</ele><time>2026-04-06T09:56:11Z</time></trkpt><trkpt lat="45.412750241567416" lon="9.430016974526525"><ele>96.0</ele><time>2026-04-06T09:56:12Z</time></trkpt><trkpt lat="45.412797804564676" lon="9.429897875003185"><ele>96.0</ele><time>2026-04-06T09:56:13Z</time></trkpt><trkpt lat="45.41285204230749" lon="9.429799620947811"><ele>96.0</ele><time>2026-04-06T09:56:14Z</time></trkpt><trkpt lat="45.41289740052805" lon="9.429690652248558"><ele>96.0</ele><time>2026-04-06T09:56:15Z</time></trkpt><trkpt lat="45.41294433060743" lon="9.429577907357766"><ele>96.0</ele><time>2026-04-06T09:56:16Z</time></trkpt><trkpt lat="45.41299597740313" lon="9.429451765639316"><ele>95.8</ele><time>2026-04-06T09:56:17Z</time></trkpt><trkpt lat="45.41303805353892" lon="9.429308505320632"><ele>95.6</ele><time>2026-04-06T09:56:18Z</time></trkpt><trkpt lat="45.41310581855507" lon="9.429187469480595"><ele>95.4</ele><time>2026-04-06T09:56:19Z</time></trkpt><trkpt lat="45.413155068643896" lon="9.42906913513464"><ele>95.2</ele><time>2026-04-06T09:56:20Z</time></trkpt><trkpt lat="45.41319732346257" lon="9.428933923822665"><ele>95.0</ele><time>2026-04-06T09:56:21Z</time></trkpt><trkpt lat="45.41324384669204" lon="9.428823219224231"><ele>94.8</ele><time>2026-04-06T09:56:22Z</time></trkpt><trkpt lat="45.413289190025445" lon="9.42871328928162"><ele>94.6</ele><time>2026-04-06T09:56:23Z</time></trkpt><trkpt lat="45.413348508201715" lon="9.42860435358418"><ele>94.4</ele><time>2026-04-06T09:56:24Z</time></trkpt><trkpt lat="45.41340453982945" lon="9.428469831164268"><ele>94.2</ele><time>2026-04-06T09:56:25Z</time></trkpt><trkpt lat="45.41344004729992" lon="9.428343500296066"><ele>94.0</ele><time>2026-04-06T09:56:26Z</time></trkpt><trkpt lat="45.41350464037239" lon="9.42822960683455"><ele>94.0</ele><time>2026-04-06T09:56:27Z</time></trkpt><trkpt lat="45.41356262712836" lon="9.428090456277392"><ele>94.0</ele><time>2026-04-06T09:56:28Z</time></trkpt><trkpt lat="45.41361762821869" lon="9.427958470402908"><ele>94.0</ele><time>2026-04-06T09:56:29Z</time></trkpt><trkpt lat="45.41366756643516" lon="9.427838633900176"><ele>94.0</ele><time>2026-04-06T09:56:30Z</time></trkpt><trkpt lat="45.41371389512525" lon="9.427727123778567"><ele>94.0</ele><time>2026-04-06T09:56:31Z</time></trkpt><trkpt lat="45.41375197411383" lon="9.427606816466868"><ele>94.16666666666666</ele><time>2026-04-06T09:56:32Z</time></trkpt><trkpt lat="45.41379734695784" lon="9.427502667231872"><ele>94.33333333333333</ele><time>2026-04-06T09:56:33Z</time></trkpt><trkpt lat="45.41383668614824" lon="9.42740179018308"><ele>94.5</ele><time>2026-04-06T09:56:34Z</time></trkpt><trkpt lat="45.41388662090604" lon="9.427283536059607"><ele>94.66666666666667</ele><time>2026-04-06T09:56:35Z</time></trkpt><trkpt lat="45.413934511180344" lon="9.4271627550141"><ele>94.83333333333334</ele><time>2026-04-06T09:56:36Z</time></trkpt><trkpt lat="45.41397925584403" lon="9.427061926530298"><ele>95.0</ele><time>2026-04-06T09:56:37Z</time></trkpt><trkpt lat="45.41402112247341" lon="9.426960218393308"><ele>95.2</ele><time>2026-04-06T09:56:38Z</time></trkpt><trkpt lat="45.41406773862754" lon="9.426848482134474"><ele>95.4</ele><time>2026-04-06T09:56:39Z</time></trkpt><trkpt lat="45.414114755698016" lon="9.42673769830404"><ele>95.6</ele><time>2026-04-06T09:56:40Z</time></trkpt><trkpt lat="45.41415951721925" lon="9.426625933655133"><ele>95.8</ele><time>2026-04-06T09:56:41Z</time></trkpt><trkpt lat="45.41420523050678" lon="9.42651291297034"><ele>96.0</ele><time>2026-04-06T09:56:42Z</time></trkpt><trkpt lat="45.4142548119106" lon="9.42640519672264"><ele>95.83333333333333</ele><time>2026-04-06T09:56:43Z</time></trkpt><trkpt lat="45.414297671148475" lon="9.426309202100148"><ele>95.66666666666667</ele><time>2026-04-06T09:56:44Z</time></trkpt><trkpt lat="45.41432681834988" lon="9.426222229602756"><ele>95.5</ele><time>2026-04-06T09:56:45Z</time></trkpt><trkpt lat="45.414360678249516" lon="9.426144334841137"><ele>95.33333333333334</ele><time>2026-04-06T09:56:50Z</time></trkpt><trkpt lat="45.41440771053136" lon="9.4260437795633"><ele>95.16666666666667</ele><time>2026-04-06T09:56:52Z</time></trkpt><trkpt lat="45.41446110558037" lon="9.425975019240024"><ele>95.0</ele><time>2026-04-06T09:56:53Z</time></trkpt><trkpt lat="45.414521057512275" lon="9.425791804719228"><ele>95.0</ele><time>2026-04-06T09:56:55Z</time></trkpt><trkpt lat="45.41452593847713" lon="9.425639738743232"><ele>95.0</ele><time>2026-04-06T09:56:56Z</time></trkpt><trkpt lat="45.414511646941754" lon="9.425496606513637"><ele>95.0</ele><time>2026-04-06T09:56:57Z</time></trkpt><trkpt lat="45.41466474904037" lon="9.425369731906342"><ele>95.0</ele><time>2026-04-06T09:56:58Z</time></trkpt><trkpt lat="45.41478166752386" lon="9.425154141145008"><ele>95.0</ele><time>2026-04-06T09:56:59Z</time></trkpt><trkpt lat="45.414854706608516" lon="9.424916232520461"><ele>95.0</ele><time>2026-04-06T09:57:00Z</time></trkpt><trkpt lat="45.41494464204863" lon="9.424712840587697"><ele>95.0</ele><time>2026-04-06T09:57:01Z</time></trkpt><trkpt lat="45.41502179881087" lon="9.42450926208471"><ele>95.0</ele><time>2026-04-06T09:57:02Z</time></trkpt><trkpt lat="45.41511128984227" lon="9.42428938979281"><ele>95.0</ele><time>2026-04-06T09:57:03Z</time></trkpt><trkpt lat="45.41519830237461" lon="9.42407630995172"><ele>95.0</ele><time>2026-04-06T09:57:04Z</time></trkpt><trkpt lat="45.415318362225435" lon="9.423870115307675"><ele>95.0</ele><time>2026-04-06T09:57:05Z</time></trkpt><trkpt lat="45.415400563825564" lon="9.423622408199627"><ele>95.0</ele><time>2026-04-06T09:57:06Z</time></trkpt><trkpt lat="45.41551059030023" lon="9.423400702805363"><ele>95.0</ele><time>2026-04-06T09:57:07Z</time></trkpt><trkpt lat="45.41559842999374" lon="9.423186887514271"><ele>95.0</ele><time>2026-04-06T09:57:08Z</time></trkpt><trkpt lat="45.41568200928315" lon="9.422983442819293"><ele>95.0</ele><time>2026-04-06T09:57:09Z</time></trkpt><trkpt lat="45.41577660517706" lon="9.422752922381552"><ele>95.0</ele><time>2026-04-06T09:57:10Z</time></trkpt><trkpt lat="45.415880797362576" lon="9.422499026304253"><ele>95.0</ele><time>2026-04-06T09:57:11Z</time></trkpt><trkpt lat="45.41599260805652" lon="9.422226565462548"><ele>95.0</ele><time>2026-04-06T09:57:12Z</time></trkpt><trkpt lat="45.41610575971071" lon="9.421958198795187"><ele>95.0</ele><time>2026-04-06T09:57:13Z</time></trkpt><trkpt lat="45.41618785873515" lon="9.421718488483021"><ele>95.0</ele><time>2026-04-06T09:57:14Z</time></trkpt><trkpt lat="45.41628516989116" lon="9.42153422024252"><ele>95.0</ele><time>2026-04-06T09:57:15Z</time></trkpt><trkpt lat="45.416354038614806" lon="9.42137224233899"><ele>95.0</ele><time>2026-04-06T09:57:16Z</time></trkpt><trkpt lat="45.41641316648164" lon="9.421233094215575"><ele>95.0</ele><time>2026-04-06T09:57:17Z</time></trkpt><trkpt lat="45.41646025218675" lon="9.421121955881684"><ele>95.16666666666667</ele><time>2026-04-06T09:57:18Z</time></trkpt><trkpt lat="45.416499733857954" lon="9.421028867379084"><ele>95.33333333333334</ele><time>2026-04-06T09:57:19Z</time></trkpt><trkpt lat="45.41653721366823" lon="9.420940498808665"><ele>95.5</ele><time>2026-04-06T09:57:21Z</time></trkpt><trkpt lat="45.416473205056505" lon="9.42086502645262"><ele>95.66666666666667</ele><time>2026-04-06T09:57:22Z</time></trkpt><trkpt lat="45.416400660307126" lon="9.420850459374458"><ele>95.83333333333333</ele><time>2026-04-06T09:57:24Z</time></trkpt><trkpt lat="45.41634619866341" lon="9.420905572289028"><ele>96.0</ele><time>2026-04-06T09:57:34Z</time></trkpt><trkpt lat="45.41635270562784" lon="9.420746470557138"><ele>96.0</ele><time>2026-04-06T09:57:36Z</time></trkpt><trkpt lat="45.41639063617818" lon="9.420823118591759"><ele>96.0</ele><time>2026-04-06T09:57:38Z</time></trkpt><trkpt lat="45.41632203225317" lon="9.420805982645666"><ele>96.0</ele><time>2026-04-06T09:57:57Z</time></trkpt><trkpt lat="45.416247205590246" lon="9.420750446755438"><ele>96.0</ele><time>2026-04-06T09:57:58Z</time></trkpt><trkpt lat="45.41615903563465" lon="9.420684114663732"><ele>96.0</ele><time>2026-04-06T09:57:59Z</time></trkpt><trkpt lat="45.41607193948775" lon="9.42061400049024"><ele>96.0</ele><time>2026-04-06T09:58:00Z</time></trkpt><trkpt lat="45.416018087475834" lon="9.420542160476339"><ele>96.0</ele><time>2026-04-06T09:58:01Z</time></trkpt><trkpt lat="45.4159953835094" lon="9.420457785960572"><ele>96.0</ele><time>2026-04-06T09:58:02Z</time></trkpt><trkpt lat="45.41602863107569" lon="9.420353847881843"><ele>96.0</ele><time>2026-04-06T09:58:04Z</time></trkpt><trkpt lat="45.416092595770095" lon="9.420292505937107"><ele>96.0</ele><time>2026-04-06T09:58:50Z</time></trkpt><trkpt lat="45.416139818435596" lon="9.420196128208858"><ele>96.0</ele><time>2026-04-06T09:58:52Z</time></trkpt><trkpt lat="45.416237755183" lon="9.420221097474892"><ele>96.0</ele><time>2026-04-06T09:58:55Z</time></trkpt><trkpt lat="45.416309163878616" lon="9.420272448074"><ele>96.0</ele><time>2026-04-06T09:58:56Z</time></trkpt><trkpt lat="45.41636334500918" lon="9.42034574379994"><ele>96.0</ele><time>2026-04-06T09:58:57Z</time></trkpt><trkpt lat="45.41641584255862" lon="9.420395602978667"><ele>96.0</ele><time>2026-04-06T09:58:58Z</time></trkpt><trkpt lat="45.41649892721199" lon="9.420470828500372"><ele>96.0</ele><time>2026-04-06T09:59:00Z</time></trkpt><trkpt lat="45.41643973034002" lon="9.42059262528089"><ele>96.0</ele><time>2026-04-06T09:59:02Z</time></trkpt><trkpt lat="45.41641453133898" lon="9.420694570957753"><ele>96.0</ele><time>2026-04-06T09:59:03Z</time></trkpt><trkpt lat="45.416370421328004" lon="9.42077983135255"><ele>96.0</ele><time>2026-04-06T09:59:04Z</time></trkpt><trkpt lat="45.41631820857559" lon="9.42085069019193"><ele>96.0</ele><time>2026-04-06T09:59:05Z</time></trkpt><trkpt lat="45.4162303708287" lon="9.420849633735596"><ele>96.0</ele><time>2026-04-06T09:59:07Z</time></trkpt><trkpt lat="45.41617800534928" lon="9.420698374027989"><ele>96.0</ele><time>2026-04-06T09:59:09Z</time></trkpt><trkpt lat="45.41610617562484" lon="9.420642541721076"><ele>96.0</ele><time>2026-04-06T09:59:10Z</time></trkpt><trkpt lat="45.41604315466247" lon="9.420574458382124"><ele>96.0</ele><time>2026-04-06T09:59:11Z</time></trkpt><trkpt lat="45.415999726702665" lon="9.420496046080773"><ele>96.0</ele><time>2026-04-06T09:59:12Z</time></trkpt><trkpt lat="45.416028931779366" lon="9.420347566616567"><ele>96.0</ele><time>2026-04-06T09:59:14Z</time></trkpt><trkpt lat="45.41611964441338" lon="9.42023730180959"><ele>96.0</ele><time>2026-04-06T09:59:16Z</time></trkpt><trkpt lat="45.41616504964133" lon="9.420144633445585"><ele>96.0</ele><time>2026-04-06T09:59:18Z</time></trkpt><trkpt lat="45.41625810110852" lon="9.420254078247503"><ele>96.0</ele><time>2026-04-06T09:59:19Z</time></trkpt><trkpt lat="45.41632851961986" lon="9.420282545876752"><ele>96.0</ele><time>2026-04-06T09:59:20Z</time></trkpt><trkpt lat="45.41638236989137" lon="9.42036381252658"><ele>96.0</ele><time>2026-04-06T09:59:21Z</time></trkpt><trkpt lat="45.41643898366442" lon="9.420417581068238"><ele>96.0</ele><time>2026-04-06T09:59:22Z</time></trkpt><trkpt lat="45.416516239232486" lon="9.420490953920615"><ele>96.0</ele><time>2026-04-06T09:59:24Z</time></trkpt><trkpt lat="45.41647244147717" lon="9.420606080587785"><ele>96.0</ele><time>2026-04-06T09:59:25Z</time></trkpt><trkpt lat="45.41642118130248" lon="9.420691695967937"><ele>96.0</ele><time>2026-04-06T09:59:26Z</time></trkpt><trkpt lat="45.41637073085398" lon="9.420774824471522"><ele>96.0</ele><time>2026-04-06T09:59:27Z</time></trkpt><trkpt lat="45.41632468660842" lon="9.420839232998802"><ele>96.0</ele><time>2026-04-06T09:59:28Z</time></trkpt><trkpt lat="45.41622680184404" lon="9.420735053928706"><ele>96.0</ele><time>2026-04-06T09:59:30Z</time></trkpt><trkpt lat="45.41614262786256" lon="9.42067178114435"><ele>96.0</ele><time>2026-04-06T09:59:31Z</time></trkpt><trkpt lat="45.41606091380316" lon="9.4205984992725"><ele>96.0</ele><time>2026-04-06T09:59:32Z</time></trkpt><trkpt lat="45.41600771724305" lon="9.420509340015949"><ele>96.0</ele><time>2026-04-06T09:59:33Z</time></trkpt><trkpt lat="45.41601865053496" lon="9.420366968202456"><ele>96.0</ele><time>2026-04-06T09:59:35Z</time></trkpt><trkpt lat="45.41611523866284" lon="9.420246293584064"><ele>96.0</ele><time>2026-04-06T09:59:37Z</time></trkpt><trkpt lat="45.416162635404355" lon="9.420149560684752"><ele>96.0</ele><time>2026-04-06T09:59:39Z</time></trkpt><trkpt lat="45.416259296748684" lon="9.420254872771853"><ele>96.0</ele><time>2026-04-06T09:59:40Z</time></trkpt><trkpt lat="45.41634259146119" lon="9.420284343045475"><ele>96.0</ele><time>2026-04-06T09:59:41Z</time></trkpt><trkpt lat="45.41639774460825" lon="9.420378414576438"><ele>96.0</ele><time>2026-04-06T09:59:42Z</time></trkpt><trkpt lat="45.41645430919901" lon="9.420432136405731"><ele>96.0</ele><time>2026-04-06T09:59:43Z</time></trkpt><trkpt lat="45.416500457151024" lon="9.420558672768856"><ele>96.0</ele><time>2026-04-06T09:59:45Z</time></trkpt><trkpt lat="45.41645641701286" lon="9.42063907947411"><ele>96.0</ele><time>2026-04-06T09:59:46Z</time></trkpt><trkpt lat="45.416400789651654" lon="9.420723306746375"><ele>96.0</ele><time>2026-04-06T09:59:47Z</time></trkpt><trkpt lat="45.416361250337175" lon="9.420804005939544"><ele>96.0</ele><time>2026-04-06T09:59:48Z</time></trkpt><trkpt lat="45.41631588617068" lon="9.420896328468192"><ele>96.0</ele><time>2026-04-06T09:59:50Z</time></trkpt><trkpt lat="45.41620781222455" lon="9.420720779581375"><ele>96.0</ele><time>2026-04-06T09:59:51Z</time></trkpt><trkpt lat="45.416131191573214" lon="9.420662401354548"><ele>96.0</ele><time>2026-04-06T09:59:52Z</time></trkpt><trkpt lat="45.41606834340726" lon="9.420606982660061"><ele>96.0</ele><time>2026-04-06T09:59:53Z</time></trkpt><trkpt lat="45.416024236774696" lon="9.420536823673777"><ele>96.0</ele><time>2026-04-06T09:59:54Z</time></trkpt><trkpt lat="45.41601351024832" lon="9.420393739215369"><ele>96.0</ele><time>2026-04-06T09:59:56Z</time></trkpt><trkpt lat="45.416072449811985" lon="9.42033362215053"><ele>96.0</ele><time>2026-04-06T09:59:59Z</time></trkpt><trkpt lat="45.416027744469254" lon="9.420265731208325"><ele>96.0</ele><time>2026-04-06T10:31:08Z</time></trkpt><trkpt lat="45.4161358396005" lon="9.42040840714246"><ele>96.0</ele><time>2026-04-06T10:31:30Z</time></trkpt><trkpt lat="45.41618702661336" lon="9.420341129973702"><ele>96.0</ele><time>2026-04-06T10:31:35Z</time></trkpt><trkpt lat="45.41655271405655" lon="9.42039794899125"><ele>96.0</ele><time>2026-04-06T10:31:46.03Z</time></trkpt><trkpt lat="45.41661379705081" lon="9.42042562837113"><ele>96.0</ele><time>2026-04-06T10:31:47.028Z</time></trkpt><trkpt lat="45.41625686280495" lon="9.420323701389776"><ele>96.0</ele><time>2026-04-06T10:32:09.719Z</time></trkpt><trkpt lat="45.41658856258314" lon="9.420358140580383"><ele>96.0</ele><time>2026-04-06T10:32:56.031Z</time></trkpt><trkpt lat="45.41646766659939" lon="9.420360924658956"><ele>96.0</ele><time>2026-04-06T10:33:53.349Z</time></trkpt><trkpt lat="45.41625184314763" lon="9.420446665929129"><ele>96.0</ele><time>2026-04-06T10:34:17.014Z</time></trkpt><trkpt lat="45.41616075921336" lon="9.420413420031245"><ele>96.0</ele><time>2026-04-06T10:34:20.014Z</time></trkpt><trkpt lat="45.4160885138169" lon="9.420336987510874"><ele>96.0</ele><time>2026-04-06T10:34:21.015Z</time></trkpt><trkpt lat="45.416040094790915" lon="9.420272620649678"><ele>96.0</ele><time>2026-04-06T10:34:31Z</time></trkpt><trkpt lat="45.41608034614451" lon="9.420345243070509"><ele>96.0</ele><time>2026-04-06T10:40:49Z</time></trkpt><trkpt lat="45.41613994039182" lon="9.420389550644497"><ele>96.0</ele><time>2026-04-06T10:41:15Z</time></trkpt><trkpt lat="45.416227684220836" lon="9.420274821156738"><ele>96.0</ele><time>2026-04-06T10:46:03.012Z</time></trkpt><trkpt lat="45.41626715068062" lon="9.420204230085984"><ele>96.0</ele><time>2026-04-06T10:46:07.012Z</time></trkpt><trkpt lat="45.41632342007822" lon="9.420278460586777"><ele>96.0</ele><time>2026-04-06T10:47:04.014Z</time></trkpt><trkpt lat="45.4162316640788" lon="9.420348945466893"><ele>96.0</ele><time>2026-04-06T10:47:15Z</time></trkpt><trkpt lat="45.416167631564214" lon="9.420380703698354"><ele>96.0</ele><time>2026-04-06T10:47:26.001Z</time></trkpt><trkpt lat="45.41605106653884" lon="9.420347718509687"><ele>96.0</ele><time>2026-04-06T10:47:39Z</time></trkpt><trkpt lat="45.41613250785429" lon="9.420331501837813"><ele>96.0</ele><time>2026-04-06T10:48:37Z</time></trkpt><trkpt lat="45.41605656817174" lon="9.420333340015437"><ele>96.0</ele><time>2026-04-06T10:48:48Z</time></trkpt><trkpt lat="45.41612076039338" lon="9.42035539856185"><ele>96.0</ele><time>2026-04-06T10:49:05Z</time></trkpt><trkpt lat="45.416170571581354" lon="9.420473803349838"><ele>95.99999999999999</ele><time>2026-04-06T10:50:39Z</time></trkpt><trkpt lat="45.41622169299061" lon="9.42039174063017"><ele>96.0</ele><time>2026-04-06T10:50:47Z</time></trkpt><trkpt lat="45.41625036482002" lon="9.420311171851033"><ele>96.0</ele><time>2026-04-06T10:50:51Z</time></trkpt><trkpt lat="45.416331567502766" lon="9.420247104919193"><ele>96.0</ele><time>2026-04-06T10:51:08Z</time></trkpt><trkpt lat="45.41636920902519" lon="9.420174789960356"><ele>96.0</ele><time>2026-04-06T10:51:13Z</time></trkpt><trkpt lat="45.416437577905704" lon="9.420142123815252"><ele>95.99999999999999</ele><time>2026-04-06T10:51:26Z</time></trkpt><trkpt lat="45.416455274919926" lon="9.420036328175293"><ele>96.0</ele><time>2026-04-06T10:52:22Z</time></trkpt><trkpt lat="45.416489500526005" lon="9.42011503012702"><ele>96.0</ele><time>2026-04-06T10:52:34Z</time></trkpt><trkpt lat="45.41642756930233" lon="9.420048300449567"><ele>96.0</ele><time>2026-04-06T10:52:50Z</time></trkpt><trkpt lat="45.416498849577046" lon="9.420202449796372"><ele>96.0</ele><time>2026-04-06T10:53:48Z</time></trkpt><trkpt lat="45.41654544418496" lon="9.420284582702182"><ele>96.0</ele><time>2026-04-06T10:53:50Z</time></trkpt><trkpt lat="45.4165285708064" lon="9.420175119222073"><ele>96.0</ele><time>2026-04-06T10:53:59Z</time></trkpt><trkpt lat="45.416520939452816" lon="9.42007183776169"><ele>96.0</ele><time>2026-04-06T10:54:05Z</time></trkpt><trkpt lat="45.4166249164771" lon="9.420314603492116"><ele>96.0</ele><time>2026-04-06T10:54:39Z</time></trkpt><trkpt lat="45.41654585613986" lon="9.420161174035446"><ele>96.0</ele><time>2026-04-06T10:54:45.059Z</time></trkpt><trkpt lat="45.41659681897909" lon="9.420095616428647"><ele>96.0</ele><time>2026-04-06T10:54:48Z</time></trkpt><trkpt lat="45.416503785573724" lon="9.420240224987069"><ele>96.0</ele><time>2026-04-06T10:55:17.059Z</time></trkpt><trkpt lat="45.416540675518256" lon="9.420142962973001"><ele>96.0</ele><time>2026-04-06T10:57:54.015Z</time></trkpt><trkpt lat="45.4165060522346" lon="9.420040648419803"><ele>96.0</ele><time>2026-04-06T10:57:58.012Z</time></trkpt><trkpt lat="45.41646915121738" lon="9.419960299372322"><ele>96.0</ele><time>2026-04-06T10:58:04.014Z</time></trkpt><trkpt lat="45.41644110894017" lon="9.419879547292169"><ele>96.0</ele><time>2026-04-06T10:58:11.012Z</time></trkpt><trkpt lat="45.41641184101709" lon="9.419798992137679"><ele>96.0</ele><time>2026-04-06T10:58:24.014Z</time></trkpt><trkpt lat="45.416402039514345" lon="9.419628714044894"><ele>96.0</ele><time>2026-04-06T10:58:42.016Z</time></trkpt><trkpt lat="45.416565309012924" lon="9.420249313037433"><ele>96.0</ele><time>2026-04-06T10:58:50.015Z</time></trkpt><trkpt lat="45.41654569250324" lon="9.420142632660923"><ele>96.0</ele><time>2026-04-06T10:59:10Z</time></trkpt><trkpt lat="45.416529940013206" lon="9.420055680036638"><ele>96.0</ele><time>2026-04-06T10:59:12Z</time></trkpt><trkpt lat="45.41645104177639" lon="9.419722548310729"><ele>96.0</ele><time>2026-04-06T10:59:20Z</time></trkpt><trkpt lat="45.416526704092476" lon="9.420038051215684"><ele>96.0</ele><time>2026-04-06T10:59:22Z</time></trkpt><trkpt lat="45.416475961287375" lon="9.419772626114606"><ele>96.0</ele><time>2026-04-06T10:59:30Z</time></trkpt><trkpt lat="45.41648325715408" lon="9.4199737679171"><ele>96.0</ele><time>2026-04-06T11:13:15Z</time></trkpt><trkpt lat="45.41645669571293" lon="9.420073905931869"><ele>96.0</ele><time>2026-04-06T11:24:03.999Z</time></trkpt></trkseg></trk></gpx>